<?xml version="1.0" encoding="UTF-8" standalone="no" ?>
<gpx xmlns="http://www.topografix.com/GPX/1/1" xmlns:xsi="http://www.w3.org/2001/XMLSchema-instance" xsi:schemaLocation="http://www.topografix.com/GPX/1/1 http://www.topografix.com/GPX/1/1/gpx.xsd" version="1.1" creator="VisuGPX - https://www.visugpx.com">
  <metadata>
    <name>OC GIF VTT - 29/08/2026 / Sarzeau - Brillac - Arzon - Port Navalo - Crouesty - St Gildas - St Jacques - Roaliguen - Kerguet - St Colombier - St Armel</name>
    <desc><![CDATA[Dernière petite balade estivale au départ de Lasné en direction de Port Navalo et retour côté golfe avec une pause au glacier Mon Plaisir au port du Crouesty et une pinte de blanche au moulin à café de St Armel]]></desc>
  </metadata>
  <trk>
    <name><![CDATA[OC GIF VTT - 29/08/2026 / Sarzeau - Brillac - Arzon - Port Navalo - Crouesty - St Gildas - St Jacques - Roaliguen - Kerguet - St Colombier - St Armel_1]]></name>
    <trkseg>
      <trkpt lat="47.56547" lon="-2.72419">
        <ele>4.7</ele>
        <time>2026-08-29T11:45:17Z</time>
      </trkpt>
      <trkpt lat="47.56547" lon="-2.72419">
        <ele>4.7</ele>
        <time>2026-08-29T11:45:18Z</time>
      </trkpt>
      <trkpt lat="47.56561" lon="-2.72434">
        <ele>4.9</ele>
        <time>2026-08-29T11:46:38Z</time>
      </trkpt>
      <trkpt lat="47.56562" lon="-2.72435">
        <ele>4.9</ele>
        <time>2026-08-29T11:46:39Z</time>
      </trkpt>
      <trkpt lat="47.56563" lon="-2.72438">
        <ele>4.9</ele>
        <time>2026-08-29T11:46:40Z</time>
      </trkpt>
      <trkpt lat="47.56564" lon="-2.72441">
        <ele>5</ele>
        <time>2026-08-29T11:46:41Z</time>
      </trkpt>
      <trkpt lat="47.56564" lon="-2.72444">
        <ele>5</ele>
        <time>2026-08-29T11:46:42Z</time>
      </trkpt>
      <trkpt lat="47.56564" lon="-2.72448">
        <ele>5</ele>
        <time>2026-08-29T11:46:43Z</time>
      </trkpt>
      <trkpt lat="47.56562" lon="-2.72451">
        <ele>5</ele>
        <time>2026-08-29T11:46:44Z</time>
      </trkpt>
      <trkpt lat="47.56561" lon="-2.72453">
        <ele>5</ele>
        <time>2026-08-29T11:46:45Z</time>
      </trkpt>
      <trkpt lat="47.56559" lon="-2.72454">
        <ele>5</ele>
        <time>2026-08-29T11:46:46Z</time>
      </trkpt>
      <trkpt lat="47.56556" lon="-2.72455">
        <ele>5</ele>
        <time>2026-08-29T11:46:47Z</time>
      </trkpt>
      <trkpt lat="47.56554" lon="-2.72454">
        <ele>5</ele>
        <time>2026-08-29T11:46:48Z</time>
      </trkpt>
      <trkpt lat="47.56551" lon="-2.72453">
        <ele>5</ele>
        <time>2026-08-29T11:46:49Z</time>
      </trkpt>
      <trkpt lat="47.56549" lon="-2.7245">
        <ele>5</ele>
        <time>2026-08-29T11:46:50Z</time>
      </trkpt>
      <trkpt lat="47.56546" lon="-2.72447">
        <ele>5</ele>
        <time>2026-08-29T11:46:51Z</time>
      </trkpt>
      <trkpt lat="47.56544" lon="-2.72443">
        <ele>5</ele>
        <time>2026-08-29T11:46:52Z</time>
      </trkpt>
      <trkpt lat="47.56542" lon="-2.72439">
        <ele>4.9</ele>
        <time>2026-08-29T11:46:53Z</time>
      </trkpt>
      <trkpt lat="47.5654" lon="-2.72434">
        <ele>4.8</ele>
        <time>2026-08-29T11:46:54Z</time>
      </trkpt>
      <trkpt lat="47.56539" lon="-2.72428">
        <ele>4.6</ele>
        <time>2026-08-29T11:46:55Z</time>
      </trkpt>
      <trkpt lat="47.56538" lon="-2.72422">
        <ele>4.5</ele>
        <time>2026-08-29T11:46:56Z</time>
      </trkpt>
      <trkpt lat="47.56537" lon="-2.72415">
        <ele>4.3</ele>
        <time>2026-08-29T11:46:57Z</time>
      </trkpt>
      <trkpt lat="47.56537" lon="-2.72409">
        <ele>4.2</ele>
        <time>2026-08-29T11:46:58Z</time>
      </trkpt>
      <trkpt lat="47.56536" lon="-2.72402">
        <ele>4.1</ele>
        <time>2026-08-29T11:46:59Z</time>
      </trkpt>
      <trkpt lat="47.56535" lon="-2.72395">
        <ele>4.1</ele>
        <time>2026-08-29T11:47:00Z</time>
      </trkpt>
      <trkpt lat="47.56535" lon="-2.72388">
        <ele>4</ele>
        <time>2026-08-29T11:47:01Z</time>
      </trkpt>
      <trkpt lat="47.56534" lon="-2.72381">
        <ele>4</ele>
        <time>2026-08-29T11:47:02Z</time>
      </trkpt>
      <trkpt lat="47.56533" lon="-2.72374">
        <ele>4</ele>
        <time>2026-08-29T11:47:03Z</time>
      </trkpt>
      <trkpt lat="47.56532" lon="-2.72367">
        <ele>4</ele>
        <time>2026-08-29T11:47:04Z</time>
      </trkpt>
      <trkpt lat="47.56531" lon="-2.7236">
        <ele>4</ele>
        <time>2026-08-29T11:47:05Z</time>
      </trkpt>
      <trkpt lat="47.56529" lon="-2.72354">
        <ele>3.7</ele>
        <time>2026-08-29T11:47:06Z</time>
      </trkpt>
      <trkpt lat="47.56527" lon="-2.72348">
        <ele>3.5</ele>
        <time>2026-08-29T11:47:07Z</time>
      </trkpt>
      <trkpt lat="47.56526" lon="-2.72342">
        <ele>3.3</ele>
        <time>2026-08-29T11:47:08Z</time>
      </trkpt>
      <trkpt lat="47.56524" lon="-2.72335">
        <ele>3.2</ele>
        <time>2026-08-29T11:47:09Z</time>
      </trkpt>
      <trkpt lat="47.56522" lon="-2.72329">
        <ele>3.3</ele>
        <time>2026-08-29T11:47:10Z</time>
      </trkpt>
      <trkpt lat="47.5652" lon="-2.72323">
        <ele>3.5</ele>
        <time>2026-08-29T11:47:11Z</time>
      </trkpt>
      <trkpt lat="47.56519" lon="-2.72316">
        <ele>3.7</ele>
        <time>2026-08-29T11:47:12Z</time>
      </trkpt>
      <trkpt lat="47.56517" lon="-2.7231">
        <ele>3.9</ele>
        <time>2026-08-29T11:47:13Z</time>
      </trkpt>
      <trkpt lat="47.56516" lon="-2.72304">
        <ele>4</ele>
        <time>2026-08-29T11:47:14Z</time>
      </trkpt>
      <trkpt lat="47.56515" lon="-2.72297">
        <ele>4</ele>
        <time>2026-08-29T11:47:15Z</time>
      </trkpt>
      <trkpt lat="47.56514" lon="-2.72291">
        <ele>4</ele>
        <time>2026-08-29T11:47:16Z</time>
      </trkpt>
      <trkpt lat="47.56514" lon="-2.72284">
        <ele>4</ele>
        <time>2026-08-29T11:47:17Z</time>
      </trkpt>
      <trkpt lat="47.56514" lon="-2.72278">
        <ele>4</ele>
        <time>2026-08-29T11:47:18Z</time>
      </trkpt>
      <trkpt lat="47.56514" lon="-2.72271">
        <ele>4.2</ele>
        <time>2026-08-29T11:47:19Z</time>
      </trkpt>
      <trkpt lat="47.56514" lon="-2.72265">
        <ele>4.5</ele>
        <time>2026-08-29T11:47:20Z</time>
      </trkpt>
      <trkpt lat="47.56515" lon="-2.72259">
        <ele>4.7</ele>
        <time>2026-08-29T11:47:21Z</time>
      </trkpt>
      <trkpt lat="47.56515" lon="-2.72253">
        <ele>4.9</ele>
        <time>2026-08-29T11:47:22Z</time>
      </trkpt>
      <trkpt lat="47.56515" lon="-2.72246">
        <ele>5</ele>
        <time>2026-08-29T11:47:23Z</time>
      </trkpt>
      <trkpt lat="47.56516" lon="-2.7224">
        <ele>5</ele>
        <time>2026-08-29T11:47:24Z</time>
      </trkpt>
      <trkpt lat="47.56516" lon="-2.72234">
        <ele>5</ele>
        <time>2026-08-29T11:47:25Z</time>
      </trkpt>
      <trkpt lat="47.56517" lon="-2.72228">
        <ele>5</ele>
        <time>2026-08-29T11:47:26Z</time>
      </trkpt>
      <trkpt lat="47.56517" lon="-2.72222">
        <ele>5</ele>
        <time>2026-08-29T11:47:27Z</time>
      </trkpt>
      <trkpt lat="47.56516" lon="-2.72216">
        <ele>5.4</ele>
        <time>2026-08-29T11:47:28Z</time>
      </trkpt>
      <trkpt lat="47.56516" lon="-2.72211">
        <ele>5.6</ele>
        <time>2026-08-29T11:47:29Z</time>
      </trkpt>
      <trkpt lat="47.56516" lon="-2.72205">
        <ele>6</ele>
        <time>2026-08-29T11:47:30Z</time>
      </trkpt>
      <trkpt lat="47.56515" lon="-2.72199">
        <ele>6.3</ele>
        <time>2026-08-29T11:47:31Z</time>
      </trkpt>
      <trkpt lat="47.56515" lon="-2.72194">
        <ele>6.5</ele>
        <time>2026-08-29T11:47:32Z</time>
      </trkpt>
      <trkpt lat="47.56514" lon="-2.72188">
        <ele>6.5</ele>
        <time>2026-08-29T11:47:33Z</time>
      </trkpt>
      <trkpt lat="47.56514" lon="-2.72183">
        <ele>6.5</ele>
        <time>2026-08-29T11:47:34Z</time>
      </trkpt>
      <trkpt lat="47.56514" lon="-2.72177">
        <ele>6.5</ele>
        <time>2026-08-29T11:47:35Z</time>
      </trkpt>
      <trkpt lat="47.56514" lon="-2.72172">
        <ele>6.5</ele>
        <time>2026-08-29T11:47:36Z</time>
      </trkpt>
      <trkpt lat="47.56514" lon="-2.72166">
        <ele>6.5</ele>
        <time>2026-08-29T11:47:37Z</time>
      </trkpt>
      <trkpt lat="47.56514" lon="-2.7216">
        <ele>6.4</ele>
        <time>2026-08-29T11:47:38Z</time>
      </trkpt>
      <trkpt lat="47.56515" lon="-2.72154">
        <ele>6.3</ele>
        <time>2026-08-29T11:47:39Z</time>
      </trkpt>
      <trkpt lat="47.56515" lon="-2.72148">
        <ele>6.2</ele>
        <time>2026-08-29T11:47:40Z</time>
      </trkpt>
      <trkpt lat="47.56516" lon="-2.72142">
        <ele>6.1</ele>
        <time>2026-08-29T11:47:41Z</time>
      </trkpt>
      <trkpt lat="47.56516" lon="-2.72135">
        <ele>5.9</ele>
        <time>2026-08-29T11:47:42Z</time>
      </trkpt>
      <trkpt lat="47.56517" lon="-2.72129">
        <ele>5.8</ele>
        <time>2026-08-29T11:47:43Z</time>
      </trkpt>
      <trkpt lat="47.56518" lon="-2.72122">
        <ele>5.6</ele>
        <time>2026-08-29T11:47:44Z</time>
      </trkpt>
      <trkpt lat="47.56518" lon="-2.72115">
        <ele>5.4</ele>
        <time>2026-08-29T11:47:45Z</time>
      </trkpt>
      <trkpt lat="47.56519" lon="-2.72108">
        <ele>5.3</ele>
        <time>2026-08-29T11:47:46Z</time>
      </trkpt>
      <trkpt lat="47.56519" lon="-2.721">
        <ele>5.2</ele>
        <time>2026-08-29T11:47:47Z</time>
      </trkpt>
      <trkpt lat="47.56518" lon="-2.72093">
        <ele>5.1</ele>
        <time>2026-08-29T11:47:48Z</time>
      </trkpt>
      <trkpt lat="47.56517" lon="-2.72085">
        <ele>5</ele>
        <time>2026-08-29T11:47:49Z</time>
      </trkpt>
      <trkpt lat="47.56516" lon="-2.72077">
        <ele>4.9</ele>
        <time>2026-08-29T11:47:50Z</time>
      </trkpt>
      <trkpt lat="47.56515" lon="-2.7207">
        <ele>4.7</ele>
        <time>2026-08-29T11:47:51Z</time>
      </trkpt>
      <trkpt lat="47.56512" lon="-2.72062">
        <ele>4.7</ele>
        <time>2026-08-29T11:47:52Z</time>
      </trkpt>
      <trkpt lat="47.5651" lon="-2.72055">
        <ele>4.6</ele>
        <time>2026-08-29T11:47:53Z</time>
      </trkpt>
      <trkpt lat="47.56508" lon="-2.72048">
        <ele>4.5</ele>
        <time>2026-08-29T11:47:54Z</time>
      </trkpt>
      <trkpt lat="47.56507" lon="-2.72041">
        <ele>4.4</ele>
        <time>2026-08-29T11:47:55Z</time>
      </trkpt>
      <trkpt lat="47.56505" lon="-2.72034">
        <ele>4.2</ele>
        <time>2026-08-29T11:47:56Z</time>
      </trkpt>
      <trkpt lat="47.56502" lon="-2.72027">
        <ele>4</ele>
        <time>2026-08-29T11:47:57Z</time>
      </trkpt>
      <trkpt lat="47.56498" lon="-2.72023">
        <ele>4</ele>
        <time>2026-08-29T11:47:58Z</time>
      </trkpt>
      <trkpt lat="47.56493" lon="-2.72021">
        <ele>4.1</ele>
        <time>2026-08-29T11:47:59Z</time>
      </trkpt>
      <trkpt lat="47.56489" lon="-2.7202">
        <ele>4.1</ele>
        <time>2026-08-29T11:48:00Z</time>
      </trkpt>
      <trkpt lat="47.56484" lon="-2.72021">
        <ele>4.1</ele>
        <time>2026-08-29T11:48:01Z</time>
      </trkpt>
      <trkpt lat="47.5648" lon="-2.72022">
        <ele>4.1</ele>
        <time>2026-08-29T11:48:02Z</time>
      </trkpt>
      <trkpt lat="47.56475" lon="-2.72023">
        <ele>4.2</ele>
        <time>2026-08-29T11:48:03Z</time>
      </trkpt>
      <trkpt lat="47.56471" lon="-2.72024">
        <ele>4.2</ele>
        <time>2026-08-29T11:48:04Z</time>
      </trkpt>
      <trkpt lat="47.56467" lon="-2.72026">
        <ele>4.3</ele>
        <time>2026-08-29T11:48:05Z</time>
      </trkpt>
      <trkpt lat="47.56462" lon="-2.72027">
        <ele>4.4</ele>
        <time>2026-08-29T11:48:06Z</time>
      </trkpt>
      <trkpt lat="47.56459" lon="-2.72028">
        <ele>4.5</ele>
        <time>2026-08-29T11:48:07Z</time>
      </trkpt>
      <trkpt lat="47.56454" lon="-2.7203">
        <ele>4.7</ele>
        <time>2026-08-29T11:48:08Z</time>
      </trkpt>
      <trkpt lat="47.56451" lon="-2.72031">
        <ele>4.8</ele>
        <time>2026-08-29T11:48:09Z</time>
      </trkpt>
      <trkpt lat="47.56447" lon="-2.72032">
        <ele>4.9</ele>
        <time>2026-08-29T11:48:10Z</time>
      </trkpt>
      <trkpt lat="47.56442" lon="-2.72033">
        <ele>5</ele>
        <time>2026-08-29T11:48:11Z</time>
      </trkpt>
      <trkpt lat="47.56438" lon="-2.72034">
        <ele>5</ele>
        <time>2026-08-29T11:48:12Z</time>
      </trkpt>
      <trkpt lat="47.56434" lon="-2.72035">
        <ele>5</ele>
        <time>2026-08-29T11:48:13Z</time>
      </trkpt>
      <trkpt lat="47.5643" lon="-2.72036">
        <ele>5</ele>
        <time>2026-08-29T11:48:14Z</time>
      </trkpt>
      <trkpt lat="47.56426" lon="-2.72038">
        <ele>5</ele>
        <time>2026-08-29T11:48:15Z</time>
      </trkpt>
      <trkpt lat="47.56422" lon="-2.72039">
        <ele>5</ele>
        <time>2026-08-29T11:48:16Z</time>
      </trkpt>
      <trkpt lat="47.56418" lon="-2.7204">
        <ele>5</ele>
        <time>2026-08-29T11:48:17Z</time>
      </trkpt>
      <trkpt lat="47.56414" lon="-2.72041">
        <ele>5</ele>
        <time>2026-08-29T11:48:18Z</time>
      </trkpt>
      <trkpt lat="47.5641" lon="-2.72042">
        <ele>4.9</ele>
        <time>2026-08-29T11:48:19Z</time>
      </trkpt>
      <trkpt lat="47.56406" lon="-2.72043">
        <ele>4.8</ele>
        <time>2026-08-29T11:48:20Z</time>
      </trkpt>
      <trkpt lat="47.56402" lon="-2.72044">
        <ele>4.7</ele>
        <time>2026-08-29T11:48:21Z</time>
      </trkpt>
      <trkpt lat="47.56398" lon="-2.72045">
        <ele>4.6</ele>
        <time>2026-08-29T11:48:22Z</time>
      </trkpt>
      <trkpt lat="47.56394" lon="-2.72046">
        <ele>4.5</ele>
        <time>2026-08-29T11:48:23Z</time>
      </trkpt>
      <trkpt lat="47.5639" lon="-2.72047">
        <ele>4.3</ele>
        <time>2026-08-29T11:48:24Z</time>
      </trkpt>
      <trkpt lat="47.56386" lon="-2.72049">
        <ele>4.3</ele>
        <time>2026-08-29T11:48:25Z</time>
      </trkpt>
      <trkpt lat="47.56382" lon="-2.7205">
        <ele>4.4</ele>
        <time>2026-08-29T11:48:26Z</time>
      </trkpt>
      <trkpt lat="47.56378" lon="-2.72051">
        <ele>4.6</ele>
        <time>2026-08-29T11:48:27Z</time>
      </trkpt>
      <trkpt lat="47.56374" lon="-2.72053">
        <ele>4.6</ele>
        <time>2026-08-29T11:48:28Z</time>
      </trkpt>
      <trkpt lat="47.5637" lon="-2.72054">
        <ele>4.7</ele>
        <time>2026-08-29T11:48:29Z</time>
      </trkpt>
      <trkpt lat="47.56366" lon="-2.72055">
        <ele>4.8</ele>
        <time>2026-08-29T11:48:30Z</time>
      </trkpt>
      <trkpt lat="47.56361" lon="-2.72056">
        <ele>5</ele>
        <time>2026-08-29T11:48:31Z</time>
      </trkpt>
      <trkpt lat="47.56357" lon="-2.72057">
        <ele>4.9</ele>
        <time>2026-08-29T11:48:32Z</time>
      </trkpt>
      <trkpt lat="47.56353" lon="-2.72058">
        <ele>4.9</ele>
        <time>2026-08-29T11:48:33Z</time>
      </trkpt>
      <trkpt lat="47.56349" lon="-2.72059">
        <ele>4.9</ele>
        <time>2026-08-29T11:48:34Z</time>
      </trkpt>
      <trkpt lat="47.56345" lon="-2.7206">
        <ele>4.8</ele>
        <time>2026-08-29T11:48:35Z</time>
      </trkpt>
      <trkpt lat="47.56341" lon="-2.72061">
        <ele>4.8</ele>
        <time>2026-08-29T11:48:36Z</time>
      </trkpt>
      <trkpt lat="47.56337" lon="-2.72063">
        <ele>4.7</ele>
        <time>2026-08-29T11:48:37Z</time>
      </trkpt>
      <trkpt lat="47.56333" lon="-2.72064">
        <ele>4.7</ele>
        <time>2026-08-29T11:48:38Z</time>
      </trkpt>
      <trkpt lat="47.56329" lon="-2.72065">
        <ele>4.7</ele>
        <time>2026-08-29T11:48:39Z</time>
      </trkpt>
      <trkpt lat="47.56325" lon="-2.72067">
        <ele>4.7</ele>
        <time>2026-08-29T11:48:40Z</time>
      </trkpt>
      <trkpt lat="47.56321" lon="-2.72068">
        <ele>4.8</ele>
        <time>2026-08-29T11:48:41Z</time>
      </trkpt>
      <trkpt lat="47.56317" lon="-2.72068">
        <ele>4.8</ele>
        <time>2026-08-29T11:48:42Z</time>
      </trkpt>
      <trkpt lat="47.56313" lon="-2.72069">
        <ele>4.9</ele>
        <time>2026-08-29T11:48:43Z</time>
      </trkpt>
      <trkpt lat="47.56309" lon="-2.72069">
        <ele>4.9</ele>
        <time>2026-08-29T11:48:44Z</time>
      </trkpt>
      <trkpt lat="47.56305" lon="-2.72069">
        <ele>5</ele>
        <time>2026-08-29T11:48:45Z</time>
      </trkpt>
      <trkpt lat="47.56301" lon="-2.72069">
        <ele>5.1</ele>
        <time>2026-08-29T11:48:46Z</time>
      </trkpt>
      <trkpt lat="47.56297" lon="-2.72069">
        <ele>5.2</ele>
        <time>2026-08-29T11:48:47Z</time>
      </trkpt>
      <trkpt lat="47.56293" lon="-2.72069">
        <ele>5.2</ele>
        <time>2026-08-29T11:48:48Z</time>
      </trkpt>
      <trkpt lat="47.56289" lon="-2.72068">
        <ele>5.3</ele>
        <time>2026-08-29T11:48:49Z</time>
      </trkpt>
      <trkpt lat="47.56285" lon="-2.72068">
        <ele>5.4</ele>
        <time>2026-08-29T11:48:50Z</time>
      </trkpt>
      <trkpt lat="47.5628" lon="-2.72068">
        <ele>5.5</ele>
        <time>2026-08-29T11:48:51Z</time>
      </trkpt>
      <trkpt lat="47.56276" lon="-2.72068">
        <ele>5.6</ele>
        <time>2026-08-29T11:48:52Z</time>
      </trkpt>
      <trkpt lat="47.56272" lon="-2.72068">
        <ele>5.6</ele>
        <time>2026-08-29T11:48:53Z</time>
      </trkpt>
      <trkpt lat="47.56268" lon="-2.72067">
        <ele>5.7</ele>
        <time>2026-08-29T11:48:54Z</time>
      </trkpt>
      <trkpt lat="47.56264" lon="-2.72067">
        <ele>5.8</ele>
        <time>2026-08-29T11:48:55Z</time>
      </trkpt>
      <trkpt lat="47.5626" lon="-2.72067">
        <ele>5.9</ele>
        <time>2026-08-29T11:48:56Z</time>
      </trkpt>
      <trkpt lat="47.56256" lon="-2.72067">
        <ele>5.9</ele>
        <time>2026-08-29T11:48:57Z</time>
      </trkpt>
      <trkpt lat="47.56252" lon="-2.72067">
        <ele>6</ele>
        <time>2026-08-29T11:48:58Z</time>
      </trkpt>
      <trkpt lat="47.56248" lon="-2.72066">
        <ele>6</ele>
        <time>2026-08-29T11:48:59Z</time>
      </trkpt>
      <trkpt lat="47.56243" lon="-2.72066">
        <ele>6</ele>
        <time>2026-08-29T11:49:00Z</time>
      </trkpt>
      <trkpt lat="47.56239" lon="-2.72065">
        <ele>6</ele>
        <time>2026-08-29T11:49:01Z</time>
      </trkpt>
      <trkpt lat="47.56236" lon="-2.72065">
        <ele>6</ele>
        <time>2026-08-29T11:49:02Z</time>
      </trkpt>
      <trkpt lat="47.56232" lon="-2.72065">
        <ele>6</ele>
        <time>2026-08-29T11:49:03Z</time>
      </trkpt>
      <trkpt lat="47.56228" lon="-2.72064">
        <ele>6</ele>
        <time>2026-08-29T11:49:04Z</time>
      </trkpt>
      <trkpt lat="47.56224" lon="-2.72064">
        <ele>6</ele>
        <time>2026-08-29T11:49:05Z</time>
      </trkpt>
      <trkpt lat="47.5622" lon="-2.72064">
        <ele>6</ele>
        <time>2026-08-29T11:49:06Z</time>
      </trkpt>
      <trkpt lat="47.56216" lon="-2.72064">
        <ele>6</ele>
        <time>2026-08-29T11:49:07Z</time>
      </trkpt>
      <trkpt lat="47.56212" lon="-2.72064">
        <ele>6</ele>
        <time>2026-08-29T11:49:08Z</time>
      </trkpt>
      <trkpt lat="47.56207" lon="-2.72063">
        <ele>6</ele>
        <time>2026-08-29T11:49:09Z</time>
      </trkpt>
      <trkpt lat="47.56203" lon="-2.72063">
        <ele>6</ele>
        <time>2026-08-29T11:49:10Z</time>
      </trkpt>
      <trkpt lat="47.562" lon="-2.72063">
        <ele>6</ele>
        <time>2026-08-29T11:49:11Z</time>
      </trkpt>
      <trkpt lat="47.56196" lon="-2.72063">
        <ele>6</ele>
        <time>2026-08-29T11:49:12Z</time>
      </trkpt>
      <trkpt lat="47.56191" lon="-2.72063">
        <ele>6.1</ele>
        <time>2026-08-29T11:49:13Z</time>
      </trkpt>
      <trkpt lat="47.56187" lon="-2.72063">
        <ele>6.3</ele>
        <time>2026-08-29T11:49:14Z</time>
      </trkpt>
      <trkpt lat="47.56184" lon="-2.72062">
        <ele>6.4</ele>
        <time>2026-08-29T11:49:15Z</time>
      </trkpt>
      <trkpt lat="47.5618" lon="-2.72062">
        <ele>6.5</ele>
        <time>2026-08-29T11:49:16Z</time>
      </trkpt>
      <trkpt lat="47.56176" lon="-2.72062">
        <ele>6.7</ele>
        <time>2026-08-29T11:49:17Z</time>
      </trkpt>
      <trkpt lat="47.56172" lon="-2.72062">
        <ele>6.8</ele>
        <time>2026-08-29T11:49:18Z</time>
      </trkpt>
      <trkpt lat="47.56168" lon="-2.72062">
        <ele>7</ele>
        <time>2026-08-29T11:49:19Z</time>
      </trkpt>
      <trkpt lat="47.56164" lon="-2.72062">
        <ele>7</ele>
        <time>2026-08-29T11:49:20Z</time>
      </trkpt>
      <trkpt lat="47.56161" lon="-2.72062">
        <ele>7</ele>
        <time>2026-08-29T11:49:21Z</time>
      </trkpt>
      <trkpt lat="47.56157" lon="-2.72061">
        <ele>7</ele>
        <time>2026-08-29T11:49:22Z</time>
      </trkpt>
      <trkpt lat="47.56153" lon="-2.72062">
        <ele>7</ele>
        <time>2026-08-29T11:49:23Z</time>
      </trkpt>
      <trkpt lat="47.56149" lon="-2.72062">
        <ele>7</ele>
        <time>2026-08-29T11:49:24Z</time>
      </trkpt>
      <trkpt lat="47.56146" lon="-2.72062">
        <ele>7</ele>
        <time>2026-08-29T11:49:25Z</time>
      </trkpt>
      <trkpt lat="47.56142" lon="-2.72062">
        <ele>7</ele>
        <time>2026-08-29T11:49:26Z</time>
      </trkpt>
      <trkpt lat="47.56138" lon="-2.72062">
        <ele>7</ele>
        <time>2026-08-29T11:49:27Z</time>
      </trkpt>
      <trkpt lat="47.56134" lon="-2.72061">
        <ele>7.1</ele>
        <time>2026-08-29T11:49:28Z</time>
      </trkpt>
      <trkpt lat="47.5613" lon="-2.72061">
        <ele>7.3</ele>
        <time>2026-08-29T11:49:29Z</time>
      </trkpt>
      <trkpt lat="47.56127" lon="-2.72061">
        <ele>7.3</ele>
        <time>2026-08-29T11:49:30Z</time>
      </trkpt>
      <trkpt lat="47.56124" lon="-2.72061">
        <ele>7.4</ele>
        <time>2026-08-29T11:49:31Z</time>
      </trkpt>
      <trkpt lat="47.56121" lon="-2.72061">
        <ele>7.5</ele>
        <time>2026-08-29T11:49:32Z</time>
      </trkpt>
      <trkpt lat="47.56117" lon="-2.72061">
        <ele>7.6</ele>
        <time>2026-08-29T11:49:33Z</time>
      </trkpt>
      <trkpt lat="47.56113" lon="-2.72061">
        <ele>7.7</ele>
        <time>2026-08-29T11:49:34Z</time>
      </trkpt>
      <trkpt lat="47.5611" lon="-2.72061">
        <ele>7.8</ele>
        <time>2026-08-29T11:49:35Z</time>
      </trkpt>
      <trkpt lat="47.56106" lon="-2.72061">
        <ele>8</ele>
        <time>2026-08-29T11:49:36Z</time>
      </trkpt>
      <trkpt lat="47.56103" lon="-2.72062">
        <ele>8.1</ele>
        <time>2026-08-29T11:49:37Z</time>
      </trkpt>
      <trkpt lat="47.56099" lon="-2.72063">
        <ele>8.2</ele>
        <time>2026-08-29T11:49:38Z</time>
      </trkpt>
      <trkpt lat="47.56095" lon="-2.72063">
        <ele>8.3</ele>
        <time>2026-08-29T11:49:39Z</time>
      </trkpt>
      <trkpt lat="47.56092" lon="-2.72063">
        <ele>8.4</ele>
        <time>2026-08-29T11:49:40Z</time>
      </trkpt>
      <trkpt lat="47.56089" lon="-2.72063">
        <ele>8.5</ele>
        <time>2026-08-29T11:49:41Z</time>
      </trkpt>
      <trkpt lat="47.56086" lon="-2.72063">
        <ele>8.6</ele>
        <time>2026-08-29T11:49:42Z</time>
      </trkpt>
      <trkpt lat="47.56083" lon="-2.72063">
        <ele>8.8</ele>
        <time>2026-08-29T11:49:43Z</time>
      </trkpt>
      <trkpt lat="47.5608" lon="-2.72062">
        <ele>9</ele>
        <time>2026-08-29T11:49:44Z</time>
      </trkpt>
      <trkpt lat="47.56077" lon="-2.72061">
        <ele>9.3</ele>
        <time>2026-08-29T11:49:45Z</time>
      </trkpt>
      <trkpt lat="47.56074" lon="-2.7206">
        <ele>9.6</ele>
        <time>2026-08-29T11:49:46Z</time>
      </trkpt>
      <trkpt lat="47.56071" lon="-2.7206">
        <ele>9.8</ele>
        <time>2026-08-29T11:49:47Z</time>
      </trkpt>
      <trkpt lat="47.56067" lon="-2.7206">
        <ele>10.1</ele>
        <time>2026-08-29T11:49:48Z</time>
      </trkpt>
      <trkpt lat="47.56064" lon="-2.7206">
        <ele>10.3</ele>
        <time>2026-08-29T11:49:49Z</time>
      </trkpt>
      <trkpt lat="47.56061" lon="-2.72059">
        <ele>10.6</ele>
        <time>2026-08-29T11:49:50Z</time>
      </trkpt>
      <trkpt lat="47.56058" lon="-2.72059">
        <ele>10.8</ele>
        <time>2026-08-29T11:49:51Z</time>
      </trkpt>
      <trkpt lat="47.56055" lon="-2.72059">
        <ele>11</ele>
        <time>2026-08-29T11:49:52Z</time>
      </trkpt>
      <trkpt lat="47.56052" lon="-2.72058">
        <ele>11</ele>
        <time>2026-08-29T11:49:53Z</time>
      </trkpt>
      <trkpt lat="47.56049" lon="-2.72058">
        <ele>11</ele>
        <time>2026-08-29T11:49:54Z</time>
      </trkpt>
      <trkpt lat="47.56046" lon="-2.72058">
        <ele>11</ele>
        <time>2026-08-29T11:49:55Z</time>
      </trkpt>
      <trkpt lat="47.56043" lon="-2.72058">
        <ele>11</ele>
        <time>2026-08-29T11:49:56Z</time>
      </trkpt>
      <trkpt lat="47.56039" lon="-2.72058">
        <ele>11</ele>
        <time>2026-08-29T11:49:57Z</time>
      </trkpt>
      <trkpt lat="47.56036" lon="-2.72057">
        <ele>11</ele>
        <time>2026-08-29T11:49:58Z</time>
      </trkpt>
      <trkpt lat="47.56033" lon="-2.72057">
        <ele>11</ele>
        <time>2026-08-29T11:49:59Z</time>
      </trkpt>
      <trkpt lat="47.5603" lon="-2.72057">
        <ele>11</ele>
        <time>2026-08-29T11:50:00Z</time>
      </trkpt>
      <trkpt lat="47.56027" lon="-2.72057">
        <ele>11</ele>
        <time>2026-08-29T11:50:01Z</time>
      </trkpt>
      <trkpt lat="47.56023" lon="-2.72056">
        <ele>11</ele>
        <time>2026-08-29T11:50:02Z</time>
      </trkpt>
      <trkpt lat="47.5602" lon="-2.72056">
        <ele>11</ele>
        <time>2026-08-29T11:50:03Z</time>
      </trkpt>
      <trkpt lat="47.56017" lon="-2.72056">
        <ele>11</ele>
        <time>2026-08-29T11:50:04Z</time>
      </trkpt>
      <trkpt lat="47.56014" lon="-2.72056">
        <ele>11</ele>
        <time>2026-08-29T11:50:05Z</time>
      </trkpt>
      <trkpt lat="47.5601" lon="-2.72055">
        <ele>11</ele>
        <time>2026-08-29T11:50:06Z</time>
      </trkpt>
      <trkpt lat="47.56007" lon="-2.72055">
        <ele>11</ele>
        <time>2026-08-29T11:50:07Z</time>
      </trkpt>
      <trkpt lat="47.56004" lon="-2.72055">
        <ele>11</ele>
        <time>2026-08-29T11:50:08Z</time>
      </trkpt>
      <trkpt lat="47.56" lon="-2.72054">
        <ele>11.1</ele>
        <time>2026-08-29T11:50:09Z</time>
      </trkpt>
      <trkpt lat="47.55997" lon="-2.72054">
        <ele>11</ele>
        <time>2026-08-29T11:50:10Z</time>
      </trkpt>
      <trkpt lat="47.55994" lon="-2.72054">
        <ele>11</ele>
        <time>2026-08-29T11:50:11Z</time>
      </trkpt>
      <trkpt lat="47.5599" lon="-2.72053">
        <ele>11.1</ele>
        <time>2026-08-29T11:50:12Z</time>
      </trkpt>
      <trkpt lat="47.55986" lon="-2.72053">
        <ele>11</ele>
        <time>2026-08-29T11:50:13Z</time>
      </trkpt>
      <trkpt lat="47.55983" lon="-2.72053">
        <ele>11</ele>
        <time>2026-08-29T11:50:14Z</time>
      </trkpt>
      <trkpt lat="47.55979" lon="-2.72052">
        <ele>11</ele>
        <time>2026-08-29T11:50:15Z</time>
      </trkpt>
      <trkpt lat="47.55975" lon="-2.72052">
        <ele>11</ele>
        <time>2026-08-29T11:50:16Z</time>
      </trkpt>
      <trkpt lat="47.55971" lon="-2.72052">
        <ele>11</ele>
        <time>2026-08-29T11:50:17Z</time>
      </trkpt>
      <trkpt lat="47.55967" lon="-2.72052">
        <ele>10.8</ele>
        <time>2026-08-29T11:50:18Z</time>
      </trkpt>
      <trkpt lat="47.55963" lon="-2.72052">
        <ele>10.7</ele>
        <time>2026-08-29T11:50:19Z</time>
      </trkpt>
      <trkpt lat="47.55959" lon="-2.72051">
        <ele>10.6</ele>
        <time>2026-08-29T11:50:20Z</time>
      </trkpt>
      <trkpt lat="47.55955" lon="-2.72051">
        <ele>10.5</ele>
        <time>2026-08-29T11:50:21Z</time>
      </trkpt>
      <trkpt lat="47.55951" lon="-2.72051">
        <ele>10.4</ele>
        <time>2026-08-29T11:50:22Z</time>
      </trkpt>
      <trkpt lat="47.55947" lon="-2.72051">
        <ele>10.2</ele>
        <time>2026-08-29T11:50:23Z</time>
      </trkpt>
      <trkpt lat="47.55942" lon="-2.7205">
        <ele>10.1</ele>
        <time>2026-08-29T11:50:24Z</time>
      </trkpt>
      <trkpt lat="47.55938" lon="-2.7205">
        <ele>10</ele>
        <time>2026-08-29T11:50:25Z</time>
      </trkpt>
      <trkpt lat="47.55933" lon="-2.7205">
        <ele>9.9</ele>
        <time>2026-08-29T11:50:26Z</time>
      </trkpt>
      <trkpt lat="47.55929" lon="-2.7205">
        <ele>9.8</ele>
        <time>2026-08-29T11:50:27Z</time>
      </trkpt>
      <trkpt lat="47.55925" lon="-2.72049">
        <ele>9.7</ele>
        <time>2026-08-29T11:50:28Z</time>
      </trkpt>
      <trkpt lat="47.5592" lon="-2.72049">
        <ele>9.6</ele>
        <time>2026-08-29T11:50:29Z</time>
      </trkpt>
      <trkpt lat="47.55916" lon="-2.72048">
        <ele>9.6</ele>
        <time>2026-08-29T11:50:30Z</time>
      </trkpt>
      <trkpt lat="47.55912" lon="-2.72048">
        <ele>9.7</ele>
        <time>2026-08-29T11:50:31Z</time>
      </trkpt>
      <trkpt lat="47.55908" lon="-2.72048">
        <ele>9.8</ele>
        <time>2026-08-29T11:50:32Z</time>
      </trkpt>
      <trkpt lat="47.55904" lon="-2.72048">
        <ele>9.9</ele>
        <time>2026-08-29T11:50:33Z</time>
      </trkpt>
      <trkpt lat="47.559" lon="-2.72048">
        <ele>10</ele>
        <time>2026-08-29T11:50:34Z</time>
      </trkpt>
      <trkpt lat="47.55896" lon="-2.72047">
        <ele>10.1</ele>
        <time>2026-08-29T11:50:35Z</time>
      </trkpt>
      <trkpt lat="47.55892" lon="-2.72047">
        <ele>10.2</ele>
        <time>2026-08-29T11:50:36Z</time>
      </trkpt>
      <trkpt lat="47.55888" lon="-2.72047">
        <ele>10.3</ele>
        <time>2026-08-29T11:50:37Z</time>
      </trkpt>
      <trkpt lat="47.55884" lon="-2.72046">
        <ele>10.5</ele>
        <time>2026-08-29T11:50:38Z</time>
      </trkpt>
      <trkpt lat="47.5588" lon="-2.72046">
        <ele>10.7</ele>
        <time>2026-08-29T11:50:39Z</time>
      </trkpt>
      <trkpt lat="47.55877" lon="-2.72046">
        <ele>10.8</ele>
        <time>2026-08-29T11:50:40Z</time>
      </trkpt>
      <trkpt lat="47.55873" lon="-2.72046">
        <ele>10.9</ele>
        <time>2026-08-29T11:50:41Z</time>
      </trkpt>
      <trkpt lat="47.55869" lon="-2.72046">
        <ele>11.1</ele>
        <time>2026-08-29T11:50:42Z</time>
      </trkpt>
      <trkpt lat="47.55865" lon="-2.72046">
        <ele>11.2</ele>
        <time>2026-08-29T11:50:43Z</time>
      </trkpt>
      <trkpt lat="47.55861" lon="-2.72046">
        <ele>11.3</ele>
        <time>2026-08-29T11:50:44Z</time>
      </trkpt>
      <trkpt lat="47.55857" lon="-2.72045">
        <ele>11.4</ele>
        <time>2026-08-29T11:50:45Z</time>
      </trkpt>
      <trkpt lat="47.55853" lon="-2.72045">
        <ele>11.4</ele>
        <time>2026-08-29T11:50:46Z</time>
      </trkpt>
      <trkpt lat="47.5585" lon="-2.72045">
        <ele>11.4</ele>
        <time>2026-08-29T11:50:47Z</time>
      </trkpt>
      <trkpt lat="47.55846" lon="-2.72045">
        <ele>11.4</ele>
        <time>2026-08-29T11:50:48Z</time>
      </trkpt>
      <trkpt lat="47.55842" lon="-2.72045">
        <ele>11.4</ele>
        <time>2026-08-29T11:50:49Z</time>
      </trkpt>
      <trkpt lat="47.55838" lon="-2.72045">
        <ele>11.4</ele>
        <time>2026-08-29T11:50:50Z</time>
      </trkpt>
      <trkpt lat="47.55834" lon="-2.72044">
        <ele>11.4</ele>
        <time>2026-08-29T11:50:51Z</time>
      </trkpt>
      <trkpt lat="47.5583" lon="-2.72044">
        <ele>11.4</ele>
        <time>2026-08-29T11:50:52Z</time>
      </trkpt>
      <trkpt lat="47.55827" lon="-2.72044">
        <ele>11.4</ele>
        <time>2026-08-29T11:50:53Z</time>
      </trkpt>
      <trkpt lat="47.55823" lon="-2.72044">
        <ele>11.4</ele>
        <time>2026-08-29T11:50:54Z</time>
      </trkpt>
      <trkpt lat="47.55819" lon="-2.72044">
        <ele>11.4</ele>
        <time>2026-08-29T11:50:55Z</time>
      </trkpt>
      <trkpt lat="47.55815" lon="-2.72044">
        <ele>11.4</ele>
        <time>2026-08-29T11:50:56Z</time>
      </trkpt>
      <trkpt lat="47.55811" lon="-2.72043">
        <ele>11.5</ele>
        <time>2026-08-29T11:50:57Z</time>
      </trkpt>
      <trkpt lat="47.55808" lon="-2.72043">
        <ele>11.5</ele>
        <time>2026-08-29T11:50:58Z</time>
      </trkpt>
      <trkpt lat="47.55804" lon="-2.72043">
        <ele>11.5</ele>
        <time>2026-08-29T11:50:59Z</time>
      </trkpt>
      <trkpt lat="47.558" lon="-2.72043">
        <ele>11.5</ele>
        <time>2026-08-29T11:51:00Z</time>
      </trkpt>
      <trkpt lat="47.55796" lon="-2.72043">
        <ele>11.5</ele>
        <time>2026-08-29T11:51:01Z</time>
      </trkpt>
      <trkpt lat="47.55792" lon="-2.72043">
        <ele>11.5</ele>
        <time>2026-08-29T11:51:02Z</time>
      </trkpt>
      <trkpt lat="47.55788" lon="-2.72043">
        <ele>11.5</ele>
        <time>2026-08-29T11:51:03Z</time>
      </trkpt>
      <trkpt lat="47.55784" lon="-2.72043">
        <ele>11.5</ele>
        <time>2026-08-29T11:51:04Z</time>
      </trkpt>
      <trkpt lat="47.5578" lon="-2.72042">
        <ele>11.5</ele>
        <time>2026-08-29T11:51:05Z</time>
      </trkpt>
      <trkpt lat="47.55776" lon="-2.72042">
        <ele>11.5</ele>
        <time>2026-08-29T11:51:06Z</time>
      </trkpt>
      <trkpt lat="47.55772" lon="-2.72041">
        <ele>11.5</ele>
        <time>2026-08-29T11:51:07Z</time>
      </trkpt>
      <trkpt lat="47.55768" lon="-2.72041">
        <ele>11.5</ele>
        <time>2026-08-29T11:51:08Z</time>
      </trkpt>
      <trkpt lat="47.55764" lon="-2.72041">
        <ele>11.5</ele>
        <time>2026-08-29T11:51:09Z</time>
      </trkpt>
      <trkpt lat="47.55759" lon="-2.7204">
        <ele>11.6</ele>
        <time>2026-08-29T11:51:10Z</time>
      </trkpt>
      <trkpt lat="47.55755" lon="-2.7204">
        <ele>11.6</ele>
        <time>2026-08-29T11:51:11Z</time>
      </trkpt>
      <trkpt lat="47.55751" lon="-2.7204">
        <ele>11.6</ele>
        <time>2026-08-29T11:51:12Z</time>
      </trkpt>
      <trkpt lat="47.55747" lon="-2.72039">
        <ele>11.5</ele>
        <time>2026-08-29T11:51:13Z</time>
      </trkpt>
      <trkpt lat="47.55742" lon="-2.72039">
        <ele>11.3</ele>
        <time>2026-08-29T11:51:14Z</time>
      </trkpt>
      <trkpt lat="47.55738" lon="-2.72039">
        <ele>11.2</ele>
        <time>2026-08-29T11:51:15Z</time>
      </trkpt>
      <trkpt lat="47.55733" lon="-2.72039">
        <ele>11</ele>
        <time>2026-08-29T11:51:16Z</time>
      </trkpt>
      <trkpt lat="47.55728" lon="-2.72038">
        <ele>10.8</ele>
        <time>2026-08-29T11:51:17Z</time>
      </trkpt>
      <trkpt lat="47.55723" lon="-2.72038">
        <ele>10.7</ele>
        <time>2026-08-29T11:51:18Z</time>
      </trkpt>
      <trkpt lat="47.55718" lon="-2.72038">
        <ele>10.5</ele>
        <time>2026-08-29T11:51:19Z</time>
      </trkpt>
      <trkpt lat="47.55712" lon="-2.72038">
        <ele>10.3</ele>
        <time>2026-08-29T11:51:20Z</time>
      </trkpt>
      <trkpt lat="47.55707" lon="-2.72037">
        <ele>10.1</ele>
        <time>2026-08-29T11:51:21Z</time>
      </trkpt>
      <trkpt lat="47.55701" lon="-2.72037">
        <ele>9.9</ele>
        <time>2026-08-29T11:51:22Z</time>
      </trkpt>
      <trkpt lat="47.55696" lon="-2.72037">
        <ele>9.7</ele>
        <time>2026-08-29T11:51:23Z</time>
      </trkpt>
      <trkpt lat="47.5569" lon="-2.72036">
        <ele>9.4</ele>
        <time>2026-08-29T11:51:24Z</time>
      </trkpt>
      <trkpt lat="47.55684" lon="-2.72036">
        <ele>9</ele>
        <time>2026-08-29T11:51:25Z</time>
      </trkpt>
      <trkpt lat="47.55678" lon="-2.72036">
        <ele>8.5</ele>
        <time>2026-08-29T11:51:26Z</time>
      </trkpt>
      <trkpt lat="47.55671" lon="-2.72035">
        <ele>8.1</ele>
        <time>2026-08-29T11:51:27Z</time>
      </trkpt>
      <trkpt lat="47.55665" lon="-2.72035">
        <ele>7.6</ele>
        <time>2026-08-29T11:51:28Z</time>
      </trkpt>
      <trkpt lat="47.55658" lon="-2.72034">
        <ele>7.2</ele>
        <time>2026-08-29T11:51:29Z</time>
      </trkpt>
      <trkpt lat="47.55652" lon="-2.72034">
        <ele>6.8</ele>
        <time>2026-08-29T11:51:30Z</time>
      </trkpt>
      <trkpt lat="47.55645" lon="-2.72034">
        <ele>6.4</ele>
        <time>2026-08-29T11:51:31Z</time>
      </trkpt>
      <trkpt lat="47.55638" lon="-2.72034">
        <ele>6</ele>
        <time>2026-08-29T11:51:32Z</time>
      </trkpt>
      <trkpt lat="47.5563" lon="-2.72033">
        <ele>5.9</ele>
        <time>2026-08-29T11:51:33Z</time>
      </trkpt>
      <trkpt lat="47.55624" lon="-2.72032">
        <ele>5.9</ele>
        <time>2026-08-29T11:51:34Z</time>
      </trkpt>
      <trkpt lat="47.55617" lon="-2.72032">
        <ele>5.9</ele>
        <time>2026-08-29T11:51:35Z</time>
      </trkpt>
      <trkpt lat="47.55611" lon="-2.72032">
        <ele>5.8</ele>
        <time>2026-08-29T11:51:36Z</time>
      </trkpt>
      <trkpt lat="47.55605" lon="-2.72033">
        <ele>5.9</ele>
        <time>2026-08-29T11:51:37Z</time>
      </trkpt>
      <trkpt lat="47.55599" lon="-2.72034">
        <ele>5.9</ele>
        <time>2026-08-29T11:51:38Z</time>
      </trkpt>
      <trkpt lat="47.55594" lon="-2.72037">
        <ele>5.9</ele>
        <time>2026-08-29T11:51:39Z</time>
      </trkpt>
      <trkpt lat="47.55589" lon="-2.7204">
        <ele>5.9</ele>
        <time>2026-08-29T11:51:40Z</time>
      </trkpt>
      <trkpt lat="47.55584" lon="-2.72044">
        <ele>6</ele>
        <time>2026-08-29T11:51:41Z</time>
      </trkpt>
      <trkpt lat="47.5558" lon="-2.72047">
        <ele>6</ele>
        <time>2026-08-29T11:51:42Z</time>
      </trkpt>
      <trkpt lat="47.55576" lon="-2.7205">
        <ele>6</ele>
        <time>2026-08-29T11:51:43Z</time>
      </trkpt>
      <trkpt lat="47.55571" lon="-2.72054">
        <ele>6</ele>
        <time>2026-08-29T11:51:44Z</time>
      </trkpt>
      <trkpt lat="47.55568" lon="-2.72058">
        <ele>6</ele>
        <time>2026-08-29T11:51:45Z</time>
      </trkpt>
      <trkpt lat="47.55564" lon="-2.72062">
        <ele>6.2</ele>
        <time>2026-08-29T11:51:46Z</time>
      </trkpt>
      <trkpt lat="47.5556" lon="-2.72065">
        <ele>6.3</ele>
        <time>2026-08-29T11:51:47Z</time>
      </trkpt>
      <trkpt lat="47.55556" lon="-2.72067">
        <ele>6.4</ele>
        <time>2026-08-29T11:51:48Z</time>
      </trkpt>
      <trkpt lat="47.55552" lon="-2.7207">
        <ele>6.6</ele>
        <time>2026-08-29T11:51:49Z</time>
      </trkpt>
      <trkpt lat="47.55548" lon="-2.72072">
        <ele>6.8</ele>
        <time>2026-08-29T11:51:50Z</time>
      </trkpt>
      <trkpt lat="47.55544" lon="-2.72074">
        <ele>6.9</ele>
        <time>2026-08-29T11:51:51Z</time>
      </trkpt>
      <trkpt lat="47.5554" lon="-2.72075">
        <ele>7</ele>
        <time>2026-08-29T11:51:52Z</time>
      </trkpt>
      <trkpt lat="47.55536" lon="-2.72077">
        <ele>7.1</ele>
        <time>2026-08-29T11:51:53Z</time>
      </trkpt>
      <trkpt lat="47.55532" lon="-2.72079">
        <ele>7.1</ele>
        <time>2026-08-29T11:51:54Z</time>
      </trkpt>
      <trkpt lat="47.55528" lon="-2.7208">
        <ele>7.1</ele>
        <time>2026-08-29T11:51:55Z</time>
      </trkpt>
      <trkpt lat="47.55524" lon="-2.72081">
        <ele>7.1</ele>
        <time>2026-08-29T11:51:56Z</time>
      </trkpt>
      <trkpt lat="47.5552" lon="-2.72082">
        <ele>7</ele>
        <time>2026-08-29T11:51:57Z</time>
      </trkpt>
      <trkpt lat="47.55516" lon="-2.72083">
        <ele>7</ele>
        <time>2026-08-29T11:51:58Z</time>
      </trkpt>
      <trkpt lat="47.55512" lon="-2.72083">
        <ele>7</ele>
        <time>2026-08-29T11:51:59Z</time>
      </trkpt>
      <trkpt lat="47.55508" lon="-2.72084">
        <ele>7</ele>
        <time>2026-08-29T11:52:00Z</time>
      </trkpt>
      <trkpt lat="47.55504" lon="-2.72084">
        <ele>7</ele>
        <time>2026-08-29T11:52:01Z</time>
      </trkpt>
      <trkpt lat="47.55499" lon="-2.72083">
        <ele>7</ele>
        <time>2026-08-29T11:52:02Z</time>
      </trkpt>
      <trkpt lat="47.55495" lon="-2.72083">
        <ele>7</ele>
        <time>2026-08-29T11:52:03Z</time>
      </trkpt>
      <trkpt lat="47.55491" lon="-2.72083">
        <ele>7</ele>
        <time>2026-08-29T11:52:04Z</time>
      </trkpt>
      <trkpt lat="47.55486" lon="-2.72082">
        <ele>7</ele>
        <time>2026-08-29T11:52:05Z</time>
      </trkpt>
      <trkpt lat="47.55482" lon="-2.72081">
        <ele>7.1</ele>
        <time>2026-08-29T11:52:06Z</time>
      </trkpt>
      <trkpt lat="47.55478" lon="-2.72081">
        <ele>7.1</ele>
        <time>2026-08-29T11:52:07Z</time>
      </trkpt>
      <trkpt lat="47.55474" lon="-2.7208">
        <ele>7.1</ele>
        <time>2026-08-29T11:52:08Z</time>
      </trkpt>
      <trkpt lat="47.55469" lon="-2.72079">
        <ele>7.2</ele>
        <time>2026-08-29T11:52:09Z</time>
      </trkpt>
      <trkpt lat="47.55465" lon="-2.72078">
        <ele>7.2</ele>
        <time>2026-08-29T11:52:10Z</time>
      </trkpt>
      <trkpt lat="47.55461" lon="-2.72078">
        <ele>7.2</ele>
        <time>2026-08-29T11:52:11Z</time>
      </trkpt>
      <trkpt lat="47.55457" lon="-2.72077">
        <ele>7.2</ele>
        <time>2026-08-29T11:52:12Z</time>
      </trkpt>
      <trkpt lat="47.55452" lon="-2.72077">
        <ele>7.2</ele>
        <time>2026-08-29T11:52:13Z</time>
      </trkpt>
      <trkpt lat="47.55448" lon="-2.72076">
        <ele>7.3</ele>
        <time>2026-08-29T11:52:14Z</time>
      </trkpt>
      <trkpt lat="47.55443" lon="-2.72075">
        <ele>7.3</ele>
        <time>2026-08-29T11:52:15Z</time>
      </trkpt>
      <trkpt lat="47.55439" lon="-2.72075">
        <ele>7.4</ele>
        <time>2026-08-29T11:52:16Z</time>
      </trkpt>
      <trkpt lat="47.55435" lon="-2.72074">
        <ele>7.6</ele>
        <time>2026-08-29T11:52:17Z</time>
      </trkpt>
      <trkpt lat="47.55431" lon="-2.72074">
        <ele>7.7</ele>
        <time>2026-08-29T11:52:18Z</time>
      </trkpt>
      <trkpt lat="47.55426" lon="-2.72073">
        <ele>7.8</ele>
        <time>2026-08-29T11:52:19Z</time>
      </trkpt>
      <trkpt lat="47.55422" lon="-2.72072">
        <ele>7.9</ele>
        <time>2026-08-29T11:52:20Z</time>
      </trkpt>
      <trkpt lat="47.55418" lon="-2.72072">
        <ele>8</ele>
        <time>2026-08-29T11:52:21Z</time>
      </trkpt>
      <trkpt lat="47.55414" lon="-2.72071">
        <ele>8</ele>
        <time>2026-08-29T11:52:22Z</time>
      </trkpt>
      <trkpt lat="47.55409" lon="-2.7207">
        <ele>8</ele>
        <time>2026-08-29T11:52:23Z</time>
      </trkpt>
      <trkpt lat="47.55405" lon="-2.72069">
        <ele>8</ele>
        <time>2026-08-29T11:52:24Z</time>
      </trkpt>
      <trkpt lat="47.55401" lon="-2.72069">
        <ele>8</ele>
        <time>2026-08-29T11:52:25Z</time>
      </trkpt>
      <trkpt lat="47.55397" lon="-2.72068">
        <ele>8</ele>
        <time>2026-08-29T11:52:26Z</time>
      </trkpt>
      <trkpt lat="47.55393" lon="-2.72068">
        <ele>8</ele>
        <time>2026-08-29T11:52:27Z</time>
      </trkpt>
      <trkpt lat="47.55389" lon="-2.72067">
        <ele>8</ele>
        <time>2026-08-29T11:52:28Z</time>
      </trkpt>
      <trkpt lat="47.55385" lon="-2.72066">
        <ele>7.9</ele>
        <time>2026-08-29T11:52:29Z</time>
      </trkpt>
      <trkpt lat="47.5538" lon="-2.72065">
        <ele>7.8</ele>
        <time>2026-08-29T11:52:30Z</time>
      </trkpt>
      <trkpt lat="47.55376" lon="-2.72064">
        <ele>7.7</ele>
        <time>2026-08-29T11:52:31Z</time>
      </trkpt>
      <trkpt lat="47.55371" lon="-2.72063">
        <ele>7.5</ele>
        <time>2026-08-29T11:52:32Z</time>
      </trkpt>
      <trkpt lat="47.55366" lon="-2.72062">
        <ele>7.4</ele>
        <time>2026-08-29T11:52:33Z</time>
      </trkpt>
      <trkpt lat="47.55362" lon="-2.72062">
        <ele>7.3</ele>
        <time>2026-08-29T11:52:34Z</time>
      </trkpt>
      <trkpt lat="47.55357" lon="-2.72061">
        <ele>7.1</ele>
        <time>2026-08-29T11:52:35Z</time>
      </trkpt>
      <trkpt lat="47.55352" lon="-2.72059">
        <ele>6.8</ele>
        <time>2026-08-29T11:52:36Z</time>
      </trkpt>
      <trkpt lat="47.55347" lon="-2.72058">
        <ele>6.6</ele>
        <time>2026-08-29T11:52:37Z</time>
      </trkpt>
      <trkpt lat="47.55341" lon="-2.72057">
        <ele>6.4</ele>
        <time>2026-08-29T11:52:38Z</time>
      </trkpt>
      <trkpt lat="47.55336" lon="-2.72056">
        <ele>6.1</ele>
        <time>2026-08-29T11:52:39Z</time>
      </trkpt>
      <trkpt lat="47.55331" lon="-2.72055">
        <ele>5.9</ele>
        <time>2026-08-29T11:52:40Z</time>
      </trkpt>
      <trkpt lat="47.55326" lon="-2.72053">
        <ele>5.7</ele>
        <time>2026-08-29T11:52:41Z</time>
      </trkpt>
      <trkpt lat="47.5532" lon="-2.72052">
        <ele>5.5</ele>
        <time>2026-08-29T11:52:42Z</time>
      </trkpt>
      <trkpt lat="47.55314" lon="-2.72051">
        <ele>5.3</ele>
        <time>2026-08-29T11:52:43Z</time>
      </trkpt>
      <trkpt lat="47.55308" lon="-2.72049">
        <ele>5.1</ele>
        <time>2026-08-29T11:52:44Z</time>
      </trkpt>
      <trkpt lat="47.55303" lon="-2.72049">
        <ele>5</ele>
        <time>2026-08-29T11:52:45Z</time>
      </trkpt>
      <trkpt lat="47.55297" lon="-2.72047">
        <ele>4.9</ele>
        <time>2026-08-29T11:52:46Z</time>
      </trkpt>
      <trkpt lat="47.55292" lon="-2.72046">
        <ele>4.8</ele>
        <time>2026-08-29T11:52:47Z</time>
      </trkpt>
      <trkpt lat="47.55287" lon="-2.72045">
        <ele>4.7</ele>
        <time>2026-08-29T11:52:48Z</time>
      </trkpt>
      <trkpt lat="47.55283" lon="-2.72043">
        <ele>4.6</ele>
        <time>2026-08-29T11:52:49Z</time>
      </trkpt>
      <trkpt lat="47.55278" lon="-2.72042">
        <ele>4.5</ele>
        <time>2026-08-29T11:52:50Z</time>
      </trkpt>
      <trkpt lat="47.55274" lon="-2.72041">
        <ele>4.8</ele>
        <time>2026-08-29T11:52:51Z</time>
      </trkpt>
      <trkpt lat="47.5527" lon="-2.72039">
        <ele>5</ele>
        <time>2026-08-29T11:52:52Z</time>
      </trkpt>
      <trkpt lat="47.55266" lon="-2.72039">
        <ele>5.3</ele>
        <time>2026-08-29T11:52:53Z</time>
      </trkpt>
      <trkpt lat="47.55262" lon="-2.72038">
        <ele>5.7</ele>
        <time>2026-08-29T11:52:54Z</time>
      </trkpt>
      <trkpt lat="47.55259" lon="-2.72037">
        <ele>5.9</ele>
        <time>2026-08-29T11:52:55Z</time>
      </trkpt>
      <trkpt lat="47.55255" lon="-2.72036">
        <ele>6.3</ele>
        <time>2026-08-29T11:52:56Z</time>
      </trkpt>
      <trkpt lat="47.55252" lon="-2.72035">
        <ele>6.6</ele>
        <time>2026-08-29T11:52:57Z</time>
      </trkpt>
      <trkpt lat="47.55249" lon="-2.72033">
        <ele>6.9</ele>
        <time>2026-08-29T11:52:58Z</time>
      </trkpt>
      <trkpt lat="47.55245" lon="-2.72032">
        <ele>7.2</ele>
        <time>2026-08-29T11:52:59Z</time>
      </trkpt>
      <trkpt lat="47.55242" lon="-2.72031">
        <ele>7.5</ele>
        <time>2026-08-29T11:53:00Z</time>
      </trkpt>
      <trkpt lat="47.55239" lon="-2.7203">
        <ele>7.7</ele>
        <time>2026-08-29T11:53:01Z</time>
      </trkpt>
      <trkpt lat="47.55236" lon="-2.72029">
        <ele>8</ele>
        <time>2026-08-29T11:53:02Z</time>
      </trkpt>
      <trkpt lat="47.55233" lon="-2.72029">
        <ele>8.2</ele>
        <time>2026-08-29T11:53:03Z</time>
      </trkpt>
      <trkpt lat="47.5523" lon="-2.7203">
        <ele>8.4</ele>
        <time>2026-08-29T11:53:04Z</time>
      </trkpt>
      <trkpt lat="47.55227" lon="-2.7203">
        <ele>8.6</ele>
        <time>2026-08-29T11:53:05Z</time>
      </trkpt>
      <trkpt lat="47.55224" lon="-2.72031">
        <ele>8.9</ele>
        <time>2026-08-29T11:53:06Z</time>
      </trkpt>
      <trkpt lat="47.55221" lon="-2.72031">
        <ele>9.1</ele>
        <time>2026-08-29T11:53:07Z</time>
      </trkpt>
      <trkpt lat="47.55217" lon="-2.72032">
        <ele>9.4</ele>
        <time>2026-08-29T11:53:08Z</time>
      </trkpt>
      <trkpt lat="47.55214" lon="-2.72033">
        <ele>9.6</ele>
        <time>2026-08-29T11:53:09Z</time>
      </trkpt>
      <trkpt lat="47.55211" lon="-2.72034">
        <ele>9.8</ele>
        <time>2026-08-29T11:53:10Z</time>
      </trkpt>
      <trkpt lat="47.55208" lon="-2.72035">
        <ele>10</ele>
        <time>2026-08-29T11:53:11Z</time>
      </trkpt>
      <trkpt lat="47.55205" lon="-2.72036">
        <ele>10.2</ele>
        <time>2026-08-29T11:53:12Z</time>
      </trkpt>
      <trkpt lat="47.55202" lon="-2.72036">
        <ele>10.5</ele>
        <time>2026-08-29T11:53:13Z</time>
      </trkpt>
      <trkpt lat="47.55199" lon="-2.72037">
        <ele>10.7</ele>
        <time>2026-08-29T11:53:14Z</time>
      </trkpt>
      <trkpt lat="47.55197" lon="-2.72037">
        <ele>10.8</ele>
        <time>2026-08-29T11:53:15Z</time>
      </trkpt>
      <trkpt lat="47.55194" lon="-2.72037">
        <ele>11</ele>
        <time>2026-08-29T11:53:16Z</time>
      </trkpt>
      <trkpt lat="47.55191" lon="-2.72036">
        <ele>11.1</ele>
        <time>2026-08-29T11:53:17Z</time>
      </trkpt>
      <trkpt lat="47.55188" lon="-2.72036">
        <ele>11.2</ele>
        <time>2026-08-29T11:53:18Z</time>
      </trkpt>
      <trkpt lat="47.55185" lon="-2.72037">
        <ele>11.3</ele>
        <time>2026-08-29T11:53:19Z</time>
      </trkpt>
      <trkpt lat="47.55181" lon="-2.72037">
        <ele>11.5</ele>
        <time>2026-08-29T11:53:20Z</time>
      </trkpt>
      <trkpt lat="47.55178" lon="-2.72038">
        <ele>11.6</ele>
        <time>2026-08-29T11:53:21Z</time>
      </trkpt>
      <trkpt lat="47.55175" lon="-2.72038">
        <ele>11.7</ele>
        <time>2026-08-29T11:53:22Z</time>
      </trkpt>
      <trkpt lat="47.55172" lon="-2.72039">
        <ele>11.8</ele>
        <time>2026-08-29T11:53:23Z</time>
      </trkpt>
      <trkpt lat="47.55169" lon="-2.7204">
        <ele>11.9</ele>
        <time>2026-08-29T11:53:24Z</time>
      </trkpt>
      <trkpt lat="47.55166" lon="-2.7204">
        <ele>12</ele>
        <time>2026-08-29T11:53:25Z</time>
      </trkpt>
      <trkpt lat="47.55163" lon="-2.72041">
        <ele>12.1</ele>
        <time>2026-08-29T11:53:26Z</time>
      </trkpt>
      <trkpt lat="47.5516" lon="-2.72042">
        <ele>12.1</ele>
        <time>2026-08-29T11:53:27Z</time>
      </trkpt>
      <trkpt lat="47.55157" lon="-2.72043">
        <ele>12.2</ele>
        <time>2026-08-29T11:53:28Z</time>
      </trkpt>
      <trkpt lat="47.55154" lon="-2.72044">
        <ele>12.3</ele>
        <time>2026-08-29T11:53:29Z</time>
      </trkpt>
      <trkpt lat="47.55151" lon="-2.72045">
        <ele>12.3</ele>
        <time>2026-08-29T11:53:30Z</time>
      </trkpt>
      <trkpt lat="47.55148" lon="-2.72045">
        <ele>12.4</ele>
        <time>2026-08-29T11:53:31Z</time>
      </trkpt>
      <trkpt lat="47.55145" lon="-2.72046">
        <ele>12.5</ele>
        <time>2026-08-29T11:53:32Z</time>
      </trkpt>
      <trkpt lat="47.55142" lon="-2.72047">
        <ele>12.6</ele>
        <time>2026-08-29T11:53:33Z</time>
      </trkpt>
      <trkpt lat="47.55139" lon="-2.72047">
        <ele>12.7</ele>
        <time>2026-08-29T11:53:34Z</time>
      </trkpt>
      <trkpt lat="47.55136" lon="-2.72048">
        <ele>12.8</ele>
        <time>2026-08-29T11:53:35Z</time>
      </trkpt>
      <trkpt lat="47.55132" lon="-2.72049">
        <ele>12.8</ele>
        <time>2026-08-29T11:53:36Z</time>
      </trkpt>
      <trkpt lat="47.55129" lon="-2.72049">
        <ele>12.8</ele>
        <time>2026-08-29T11:53:37Z</time>
      </trkpt>
      <trkpt lat="47.55126" lon="-2.7205">
        <ele>12.9</ele>
        <time>2026-08-29T11:53:38Z</time>
      </trkpt>
      <trkpt lat="47.55122" lon="-2.72051">
        <ele>12.9</ele>
        <time>2026-08-29T11:53:39Z</time>
      </trkpt>
      <trkpt lat="47.55119" lon="-2.72051">
        <ele>13</ele>
        <time>2026-08-29T11:53:40Z</time>
      </trkpt>
      <trkpt lat="47.55115" lon="-2.72052">
        <ele>13</ele>
        <time>2026-08-29T11:53:41Z</time>
      </trkpt>
      <trkpt lat="47.55111" lon="-2.72053">
        <ele>13</ele>
        <time>2026-08-29T11:53:42Z</time>
      </trkpt>
      <trkpt lat="47.55108" lon="-2.72053">
        <ele>12.9</ele>
        <time>2026-08-29T11:53:43Z</time>
      </trkpt>
      <trkpt lat="47.55104" lon="-2.72054">
        <ele>12.8</ele>
        <time>2026-08-29T11:53:44Z</time>
      </trkpt>
      <trkpt lat="47.551" lon="-2.72054">
        <ele>12.6</ele>
        <time>2026-08-29T11:53:45Z</time>
      </trkpt>
      <trkpt lat="47.55096" lon="-2.72054">
        <ele>12.5</ele>
        <time>2026-08-29T11:53:46Z</time>
      </trkpt>
      <trkpt lat="47.55092" lon="-2.72054">
        <ele>12.4</ele>
        <time>2026-08-29T11:53:47Z</time>
      </trkpt>
      <trkpt lat="47.55088" lon="-2.72055">
        <ele>12.2</ele>
        <time>2026-08-29T11:53:48Z</time>
      </trkpt>
      <trkpt lat="47.55084" lon="-2.72055">
        <ele>12</ele>
        <time>2026-08-29T11:53:49Z</time>
      </trkpt>
      <trkpt lat="47.55081" lon="-2.72055">
        <ele>12.1</ele>
        <time>2026-08-29T11:53:50Z</time>
      </trkpt>
      <trkpt lat="47.55077" lon="-2.72055">
        <ele>12.2</ele>
        <time>2026-08-29T11:53:51Z</time>
      </trkpt>
      <trkpt lat="47.55073" lon="-2.72056">
        <ele>12.4</ele>
        <time>2026-08-29T11:53:52Z</time>
      </trkpt>
      <trkpt lat="47.55069" lon="-2.72056">
        <ele>12.5</ele>
        <time>2026-08-29T11:53:53Z</time>
      </trkpt>
      <trkpt lat="47.55065" lon="-2.72057">
        <ele>12.6</ele>
        <time>2026-08-29T11:53:54Z</time>
      </trkpt>
      <trkpt lat="47.55061" lon="-2.72058">
        <ele>12.7</ele>
        <time>2026-08-29T11:53:55Z</time>
      </trkpt>
      <trkpt lat="47.55057" lon="-2.72058">
        <ele>12.9</ele>
        <time>2026-08-29T11:53:56Z</time>
      </trkpt>
      <trkpt lat="47.55052" lon="-2.72059">
        <ele>12.8</ele>
        <time>2026-08-29T11:53:57Z</time>
      </trkpt>
      <trkpt lat="47.55048" lon="-2.7206">
        <ele>12.6</ele>
        <time>2026-08-29T11:53:58Z</time>
      </trkpt>
      <trkpt lat="47.55044" lon="-2.72061">
        <ele>12.5</ele>
        <time>2026-08-29T11:53:59Z</time>
      </trkpt>
      <trkpt lat="47.5504" lon="-2.72062">
        <ele>12.3</ele>
        <time>2026-08-29T11:54:00Z</time>
      </trkpt>
      <trkpt lat="47.55036" lon="-2.72063">
        <ele>12.2</ele>
        <time>2026-08-29T11:54:01Z</time>
      </trkpt>
      <trkpt lat="47.55032" lon="-2.72064">
        <ele>12.1</ele>
        <time>2026-08-29T11:54:02Z</time>
      </trkpt>
      <trkpt lat="47.55028" lon="-2.72065">
        <ele>12</ele>
        <time>2026-08-29T11:54:03Z</time>
      </trkpt>
      <trkpt lat="47.55024" lon="-2.72066">
        <ele>12.1</ele>
        <time>2026-08-29T11:54:04Z</time>
      </trkpt>
      <trkpt lat="47.5502" lon="-2.72068">
        <ele>12.2</ele>
        <time>2026-08-29T11:54:05Z</time>
      </trkpt>
      <trkpt lat="47.55016" lon="-2.72069">
        <ele>12.2</ele>
        <time>2026-08-29T11:54:06Z</time>
      </trkpt>
      <trkpt lat="47.55012" lon="-2.7207">
        <ele>12.3</ele>
        <time>2026-08-29T11:54:07Z</time>
      </trkpt>
      <trkpt lat="47.55008" lon="-2.72071">
        <ele>12.3</ele>
        <time>2026-08-29T11:54:08Z</time>
      </trkpt>
      <trkpt lat="47.55004" lon="-2.72073">
        <ele>12.3</ele>
        <time>2026-08-29T11:54:09Z</time>
      </trkpt>
      <trkpt lat="47.55" lon="-2.72074">
        <ele>12.3</ele>
        <time>2026-08-29T11:54:10Z</time>
      </trkpt>
      <trkpt lat="47.54996" lon="-2.72075">
        <ele>12.3</ele>
        <time>2026-08-29T11:54:11Z</time>
      </trkpt>
      <trkpt lat="47.54992" lon="-2.72076">
        <ele>12.3</ele>
        <time>2026-08-29T11:54:12Z</time>
      </trkpt>
      <trkpt lat="47.54988" lon="-2.72077">
        <ele>12.2</ele>
        <time>2026-08-29T11:54:13Z</time>
      </trkpt>
      <trkpt lat="47.54983" lon="-2.72078">
        <ele>12.2</ele>
        <time>2026-08-29T11:54:14Z</time>
      </trkpt>
      <trkpt lat="47.54979" lon="-2.72079">
        <ele>12.2</ele>
        <time>2026-08-29T11:54:15Z</time>
      </trkpt>
      <trkpt lat="47.54975" lon="-2.7208">
        <ele>12.1</ele>
        <time>2026-08-29T11:54:16Z</time>
      </trkpt>
      <trkpt lat="47.54971" lon="-2.7208">
        <ele>12.1</ele>
        <time>2026-08-29T11:54:17Z</time>
      </trkpt>
      <trkpt lat="47.54966" lon="-2.7208">
        <ele>11.9</ele>
        <time>2026-08-29T11:54:18Z</time>
      </trkpt>
      <trkpt lat="47.54961" lon="-2.7208">
        <ele>11.8</ele>
        <time>2026-08-29T11:54:19Z</time>
      </trkpt>
      <trkpt lat="47.54956" lon="-2.7208">
        <ele>11.6</ele>
        <time>2026-08-29T11:54:20Z</time>
      </trkpt>
      <trkpt lat="47.54951" lon="-2.7208">
        <ele>11.4</ele>
        <time>2026-08-29T11:54:21Z</time>
      </trkpt>
      <trkpt lat="47.54946" lon="-2.72079">
        <ele>11.4</ele>
        <time>2026-08-29T11:54:22Z</time>
      </trkpt>
      <trkpt lat="47.54941" lon="-2.72079">
        <ele>11.3</ele>
        <time>2026-08-29T11:54:23Z</time>
      </trkpt>
      <trkpt lat="47.54936" lon="-2.72079">
        <ele>11.3</ele>
        <time>2026-08-29T11:54:24Z</time>
      </trkpt>
      <trkpt lat="47.54931" lon="-2.72078">
        <ele>11.3</ele>
        <time>2026-08-29T11:54:25Z</time>
      </trkpt>
      <trkpt lat="47.54925" lon="-2.72077">
        <ele>11.3</ele>
        <time>2026-08-29T11:54:26Z</time>
      </trkpt>
      <trkpt lat="47.5492" lon="-2.72076">
        <ele>11.3</ele>
        <time>2026-08-29T11:54:27Z</time>
      </trkpt>
      <trkpt lat="47.54915" lon="-2.72076">
        <ele>11.2</ele>
        <time>2026-08-29T11:54:28Z</time>
      </trkpt>
      <trkpt lat="47.5491" lon="-2.72076">
        <ele>11.2</ele>
        <time>2026-08-29T11:54:29Z</time>
      </trkpt>
      <trkpt lat="47.54905" lon="-2.72076">
        <ele>11.2</ele>
        <time>2026-08-29T11:54:30Z</time>
      </trkpt>
      <trkpt lat="47.549" lon="-2.72076">
        <ele>11.1</ele>
        <time>2026-08-29T11:54:31Z</time>
      </trkpt>
      <trkpt lat="47.54896" lon="-2.72076">
        <ele>11.1</ele>
        <time>2026-08-29T11:54:32Z</time>
      </trkpt>
      <trkpt lat="47.54892" lon="-2.72077">
        <ele>11</ele>
        <time>2026-08-29T11:54:33Z</time>
      </trkpt>
      <trkpt lat="47.54887" lon="-2.72078">
        <ele>11.1</ele>
        <time>2026-08-29T11:54:34Z</time>
      </trkpt>
      <trkpt lat="47.54883" lon="-2.72078">
        <ele>11.2</ele>
        <time>2026-08-29T11:54:35Z</time>
      </trkpt>
      <trkpt lat="47.54879" lon="-2.72079">
        <ele>11.3</ele>
        <time>2026-08-29T11:54:36Z</time>
      </trkpt>
      <trkpt lat="47.54875" lon="-2.72079">
        <ele>11.4</ele>
        <time>2026-08-29T11:54:37Z</time>
      </trkpt>
      <trkpt lat="47.54871" lon="-2.72081">
        <ele>11.6</ele>
        <time>2026-08-29T11:54:38Z</time>
      </trkpt>
      <trkpt lat="47.54867" lon="-2.72083">
        <ele>11.8</ele>
        <time>2026-08-29T11:54:39Z</time>
      </trkpt>
      <trkpt lat="47.54864" lon="-2.72085">
        <ele>11.8</ele>
        <time>2026-08-29T11:54:40Z</time>
      </trkpt>
      <trkpt lat="47.5486" lon="-2.72086">
        <ele>11.9</ele>
        <time>2026-08-29T11:54:41Z</time>
      </trkpt>
      <trkpt lat="47.54856" lon="-2.72089">
        <ele>12</ele>
        <time>2026-08-29T11:54:42Z</time>
      </trkpt>
      <trkpt lat="47.54853" lon="-2.72092">
        <ele>12</ele>
        <time>2026-08-29T11:54:43Z</time>
      </trkpt>
      <trkpt lat="47.54849" lon="-2.72095">
        <ele>12</ele>
        <time>2026-08-29T11:54:44Z</time>
      </trkpt>
      <trkpt lat="47.54846" lon="-2.72099">
        <ele>12</ele>
        <time>2026-08-29T11:54:45Z</time>
      </trkpt>
      <trkpt lat="47.54842" lon="-2.72103">
        <ele>12</ele>
        <time>2026-08-29T11:54:46Z</time>
      </trkpt>
      <trkpt lat="47.54838" lon="-2.72106">
        <ele>12</ele>
        <time>2026-08-29T11:54:47Z</time>
      </trkpt>
      <trkpt lat="47.54834" lon="-2.72108">
        <ele>12.1</ele>
        <time>2026-08-29T11:54:48Z</time>
      </trkpt>
      <trkpt lat="47.54831" lon="-2.72111">
        <ele>12.1</ele>
        <time>2026-08-29T11:54:49Z</time>
      </trkpt>
      <trkpt lat="47.54827" lon="-2.72114">
        <ele>12.1</ele>
        <time>2026-08-29T11:54:50Z</time>
      </trkpt>
      <trkpt lat="47.54823" lon="-2.72116">
        <ele>12.2</ele>
        <time>2026-08-29T11:54:51Z</time>
      </trkpt>
      <trkpt lat="47.54819" lon="-2.72119">
        <ele>12.2</ele>
        <time>2026-08-29T11:54:52Z</time>
      </trkpt>
      <trkpt lat="47.54816" lon="-2.72122">
        <ele>12.2</ele>
        <time>2026-08-29T11:54:53Z</time>
      </trkpt>
      <trkpt lat="47.54812" lon="-2.72124">
        <ele>12.3</ele>
        <time>2026-08-29T11:54:54Z</time>
      </trkpt>
      <trkpt lat="47.54808" lon="-2.72127">
        <ele>12.3</ele>
        <time>2026-08-29T11:54:55Z</time>
      </trkpt>
      <trkpt lat="47.54804" lon="-2.72129">
        <ele>12.4</ele>
        <time>2026-08-29T11:54:56Z</time>
      </trkpt>
      <trkpt lat="47.54801" lon="-2.72132">
        <ele>12.5</ele>
        <time>2026-08-29T11:54:57Z</time>
      </trkpt>
      <trkpt lat="47.54797" lon="-2.72134">
        <ele>12.7</ele>
        <time>2026-08-29T11:54:58Z</time>
      </trkpt>
      <trkpt lat="47.54794" lon="-2.72136">
        <ele>12.9</ele>
        <time>2026-08-29T11:54:59Z</time>
      </trkpt>
      <trkpt lat="47.54791" lon="-2.72139">
        <ele>13</ele>
        <time>2026-08-29T11:55:00Z</time>
      </trkpt>
      <trkpt lat="47.54787" lon="-2.72141">
        <ele>13.3</ele>
        <time>2026-08-29T11:55:01Z</time>
      </trkpt>
      <trkpt lat="47.54784" lon="-2.72143">
        <ele>13.4</ele>
        <time>2026-08-29T11:55:02Z</time>
      </trkpt>
      <trkpt lat="47.54781" lon="-2.72145">
        <ele>13.6</ele>
        <time>2026-08-29T11:55:03Z</time>
      </trkpt>
      <trkpt lat="47.54778" lon="-2.72148">
        <ele>13.7</ele>
        <time>2026-08-29T11:55:04Z</time>
      </trkpt>
      <trkpt lat="47.54775" lon="-2.7215">
        <ele>13.7</ele>
        <time>2026-08-29T11:55:05Z</time>
      </trkpt>
      <trkpt lat="47.54772" lon="-2.72152">
        <ele>13.8</ele>
        <time>2026-08-29T11:55:06Z</time>
      </trkpt>
      <trkpt lat="47.54769" lon="-2.72154">
        <ele>13.9</ele>
        <time>2026-08-29T11:55:07Z</time>
      </trkpt>
      <trkpt lat="47.54766" lon="-2.72157">
        <ele>14</ele>
        <time>2026-08-29T11:55:08Z</time>
      </trkpt>
      <trkpt lat="47.54763" lon="-2.72159">
        <ele>14.2</ele>
        <time>2026-08-29T11:55:09Z</time>
      </trkpt>
      <trkpt lat="47.5476" lon="-2.72161">
        <ele>14.4</ele>
        <time>2026-08-29T11:55:10Z</time>
      </trkpt>
      <trkpt lat="47.54757" lon="-2.72164">
        <ele>14.5</ele>
        <time>2026-08-29T11:55:11Z</time>
      </trkpt>
      <trkpt lat="47.54754" lon="-2.72166">
        <ele>14.7</ele>
        <time>2026-08-29T11:55:12Z</time>
      </trkpt>
      <trkpt lat="47.54751" lon="-2.72168">
        <ele>14.9</ele>
        <time>2026-08-29T11:55:13Z</time>
      </trkpt>
      <trkpt lat="47.54748" lon="-2.7217">
        <ele>15.1</ele>
        <time>2026-08-29T11:55:14Z</time>
      </trkpt>
      <trkpt lat="47.54745" lon="-2.72173">
        <ele>15.2</ele>
        <time>2026-08-29T11:55:15Z</time>
      </trkpt>
      <trkpt lat="47.54742" lon="-2.72176">
        <ele>15.3</ele>
        <time>2026-08-29T11:55:16Z</time>
      </trkpt>
      <trkpt lat="47.54739" lon="-2.72178">
        <ele>15.4</ele>
        <time>2026-08-29T11:55:17Z</time>
      </trkpt>
      <trkpt lat="47.54736" lon="-2.72181">
        <ele>15.5</ele>
        <time>2026-08-29T11:55:18Z</time>
      </trkpt>
      <trkpt lat="47.54733" lon="-2.72184">
        <ele>15.6</ele>
        <time>2026-08-29T11:55:19Z</time>
      </trkpt>
      <trkpt lat="47.54731" lon="-2.72187">
        <ele>15.7</ele>
        <time>2026-08-29T11:55:20Z</time>
      </trkpt>
      <trkpt lat="47.54728" lon="-2.72189">
        <ele>15.8</ele>
        <time>2026-08-29T11:55:21Z</time>
      </trkpt>
      <trkpt lat="47.54725" lon="-2.72192">
        <ele>15.9</ele>
        <time>2026-08-29T11:55:22Z</time>
      </trkpt>
      <trkpt lat="47.54722" lon="-2.72194">
        <ele>16</ele>
        <time>2026-08-29T11:55:23Z</time>
      </trkpt>
      <trkpt lat="47.54719" lon="-2.72197">
        <ele>16</ele>
        <time>2026-08-29T11:55:24Z</time>
      </trkpt>
      <trkpt lat="47.54716" lon="-2.722">
        <ele>16</ele>
        <time>2026-08-29T11:55:25Z</time>
      </trkpt>
      <trkpt lat="47.54713" lon="-2.72202">
        <ele>16</ele>
        <time>2026-08-29T11:55:26Z</time>
      </trkpt>
      <trkpt lat="47.5471" lon="-2.72205">
        <ele>16</ele>
        <time>2026-08-29T11:55:27Z</time>
      </trkpt>
      <trkpt lat="47.54707" lon="-2.72207">
        <ele>16</ele>
        <time>2026-08-29T11:55:28Z</time>
      </trkpt>
      <trkpt lat="47.54704" lon="-2.72209">
        <ele>16</ele>
        <time>2026-08-29T11:55:29Z</time>
      </trkpt>
      <trkpt lat="47.54702" lon="-2.72212">
        <ele>16</ele>
        <time>2026-08-29T11:55:30Z</time>
      </trkpt>
      <trkpt lat="47.54699" lon="-2.72215">
        <ele>16</ele>
        <time>2026-08-29T11:55:31Z</time>
      </trkpt>
      <trkpt lat="47.54696" lon="-2.72218">
        <ele>16</ele>
        <time>2026-08-29T11:55:32Z</time>
      </trkpt>
      <trkpt lat="47.54694" lon="-2.72221">
        <ele>16</ele>
        <time>2026-08-29T11:55:33Z</time>
      </trkpt>
      <trkpt lat="47.54692" lon="-2.72225">
        <ele>16.2</ele>
        <time>2026-08-29T11:55:34Z</time>
      </trkpt>
      <trkpt lat="47.54689" lon="-2.72228">
        <ele>16.4</ele>
        <time>2026-08-29T11:55:35Z</time>
      </trkpt>
      <trkpt lat="47.54687" lon="-2.72232">
        <ele>16.5</ele>
        <time>2026-08-29T11:55:36Z</time>
      </trkpt>
      <trkpt lat="47.54684" lon="-2.72235">
        <ele>16.7</ele>
        <time>2026-08-29T11:55:37Z</time>
      </trkpt>
      <trkpt lat="47.54682" lon="-2.72239">
        <ele>16.8</ele>
        <time>2026-08-29T11:55:38Z</time>
      </trkpt>
      <trkpt lat="47.5468" lon="-2.72243">
        <ele>16.9</ele>
        <time>2026-08-29T11:55:39Z</time>
      </trkpt>
      <trkpt lat="47.54678" lon="-2.72246">
        <ele>16.9</ele>
        <time>2026-08-29T11:55:40Z</time>
      </trkpt>
      <trkpt lat="47.54675" lon="-2.7225">
        <ele>17</ele>
        <time>2026-08-29T11:55:41Z</time>
      </trkpt>
      <trkpt lat="47.54673" lon="-2.72254">
        <ele>17.1</ele>
        <time>2026-08-29T11:55:42Z</time>
      </trkpt>
      <trkpt lat="47.54672" lon="-2.72258">
        <ele>17.2</ele>
        <time>2026-08-29T11:55:43Z</time>
      </trkpt>
      <trkpt lat="47.5467" lon="-2.72262">
        <ele>17.4</ele>
        <time>2026-08-29T11:55:44Z</time>
      </trkpt>
      <trkpt lat="47.54668" lon="-2.72267">
        <ele>17.6</ele>
        <time>2026-08-29T11:55:45Z</time>
      </trkpt>
      <trkpt lat="47.54666" lon="-2.72271">
        <ele>17.8</ele>
        <time>2026-08-29T11:55:46Z</time>
      </trkpt>
      <trkpt lat="47.54664" lon="-2.72275">
        <ele>17.9</ele>
        <time>2026-08-29T11:55:47Z</time>
      </trkpt>
      <trkpt lat="47.54663" lon="-2.7228">
        <ele>18</ele>
        <time>2026-08-29T11:55:48Z</time>
      </trkpt>
      <trkpt lat="47.54661" lon="-2.72284">
        <ele>18</ele>
        <time>2026-08-29T11:55:49Z</time>
      </trkpt>
      <trkpt lat="47.54659" lon="-2.72289">
        <ele>18</ele>
        <time>2026-08-29T11:55:50Z</time>
      </trkpt>
      <trkpt lat="47.54658" lon="-2.72294">
        <ele>18</ele>
        <time>2026-08-29T11:55:51Z</time>
      </trkpt>
      <trkpt lat="47.54657" lon="-2.72299">
        <ele>18</ele>
        <time>2026-08-29T11:55:52Z</time>
      </trkpt>
      <trkpt lat="47.54657" lon="-2.72303">
        <ele>18</ele>
        <time>2026-08-29T11:55:53Z</time>
      </trkpt>
      <trkpt lat="47.54658" lon="-2.72308">
        <ele>18</ele>
        <time>2026-08-29T11:55:54Z</time>
      </trkpt>
      <trkpt lat="47.54659" lon="-2.72313">
        <ele>18.1</ele>
        <time>2026-08-29T11:55:55Z</time>
      </trkpt>
      <trkpt lat="47.5466" lon="-2.72317">
        <ele>18.1</ele>
        <time>2026-08-29T11:55:56Z</time>
      </trkpt>
      <trkpt lat="47.54662" lon="-2.72323">
        <ele>18.1</ele>
        <time>2026-08-29T11:55:57Z</time>
      </trkpt>
      <trkpt lat="47.54663" lon="-2.72328">
        <ele>18.1</ele>
        <time>2026-08-29T11:55:58Z</time>
      </trkpt>
      <trkpt lat="47.54664" lon="-2.72333">
        <ele>18.1</ele>
        <time>2026-08-29T11:55:59Z</time>
      </trkpt>
      <trkpt lat="47.54665" lon="-2.72338">
        <ele>18.2</ele>
        <time>2026-08-29T11:56:00Z</time>
      </trkpt>
      <trkpt lat="47.54666" lon="-2.72343">
        <ele>18.4</ele>
        <time>2026-08-29T11:56:01Z</time>
      </trkpt>
      <trkpt lat="47.54668" lon="-2.72348">
        <ele>18.5</ele>
        <time>2026-08-29T11:56:02Z</time>
      </trkpt>
      <trkpt lat="47.54669" lon="-2.72353">
        <ele>18.6</ele>
        <time>2026-08-29T11:56:03Z</time>
      </trkpt>
      <trkpt lat="47.5467" lon="-2.72357">
        <ele>18.7</ele>
        <time>2026-08-29T11:56:04Z</time>
      </trkpt>
      <trkpt lat="47.54671" lon="-2.72362">
        <ele>18.8</ele>
        <time>2026-08-29T11:56:05Z</time>
      </trkpt>
      <trkpt lat="47.54673" lon="-2.72367">
        <ele>18.8</ele>
        <time>2026-08-29T11:56:06Z</time>
      </trkpt>
      <trkpt lat="47.54675" lon="-2.72372">
        <ele>18.7</ele>
        <time>2026-08-29T11:56:07Z</time>
      </trkpt>
      <trkpt lat="47.54676" lon="-2.72377">
        <ele>18.7</ele>
        <time>2026-08-29T11:56:08Z</time>
      </trkpt>
      <trkpt lat="47.54678" lon="-2.72382">
        <ele>18.6</ele>
        <time>2026-08-29T11:56:09Z</time>
      </trkpt>
      <trkpt lat="47.54679" lon="-2.72386">
        <ele>18.6</ele>
        <time>2026-08-29T11:56:10Z</time>
      </trkpt>
      <trkpt lat="47.54681" lon="-2.72391">
        <ele>18.5</ele>
        <time>2026-08-29T11:56:11Z</time>
      </trkpt>
      <trkpt lat="47.54683" lon="-2.72396">
        <ele>18.6</ele>
        <time>2026-08-29T11:56:12Z</time>
      </trkpt>
      <trkpt lat="47.54685" lon="-2.72401">
        <ele>18.6</ele>
        <time>2026-08-29T11:56:13Z</time>
      </trkpt>
      <trkpt lat="47.54686" lon="-2.72406">
        <ele>18.7</ele>
        <time>2026-08-29T11:56:14Z</time>
      </trkpt>
      <trkpt lat="47.54688" lon="-2.72411">
        <ele>18.8</ele>
        <time>2026-08-29T11:56:15Z</time>
      </trkpt>
      <trkpt lat="47.5469" lon="-2.72416">
        <ele>19</ele>
        <time>2026-08-29T11:56:16Z</time>
      </trkpt>
      <trkpt lat="47.54692" lon="-2.72421">
        <ele>19</ele>
        <time>2026-08-29T11:56:17Z</time>
      </trkpt>
      <trkpt lat="47.54694" lon="-2.72426">
        <ele>19</ele>
        <time>2026-08-29T11:56:18Z</time>
      </trkpt>
      <trkpt lat="47.54696" lon="-2.72431">
        <ele>18.9</ele>
        <time>2026-08-29T11:56:19Z</time>
      </trkpt>
      <trkpt lat="47.54697" lon="-2.72436">
        <ele>18.8</ele>
        <time>2026-08-29T11:56:20Z</time>
      </trkpt>
      <trkpt lat="47.54699" lon="-2.72441">
        <ele>18.7</ele>
        <time>2026-08-29T11:56:21Z</time>
      </trkpt>
      <trkpt lat="47.54699" lon="-2.72447">
        <ele>18.5</ele>
        <time>2026-08-29T11:56:22Z</time>
      </trkpt>
      <trkpt lat="47.54698" lon="-2.72452">
        <ele>18.3</ele>
        <time>2026-08-29T11:56:23Z</time>
      </trkpt>
      <trkpt lat="47.54696" lon="-2.72457">
        <ele>18</ele>
        <time>2026-08-29T11:56:24Z</time>
      </trkpt>
      <trkpt lat="47.54693" lon="-2.7246">
        <ele>18</ele>
        <time>2026-08-29T11:56:25Z</time>
      </trkpt>
      <trkpt lat="47.5469" lon="-2.72463">
        <ele>18</ele>
        <time>2026-08-29T11:56:26Z</time>
      </trkpt>
      <trkpt lat="47.54687" lon="-2.72466">
        <ele>18.1</ele>
        <time>2026-08-29T11:56:27Z</time>
      </trkpt>
      <trkpt lat="47.54684" lon="-2.72469">
        <ele>18.3</ele>
        <time>2026-08-29T11:56:28Z</time>
      </trkpt>
      <trkpt lat="47.54682" lon="-2.72471">
        <ele>18.4</ele>
        <time>2026-08-29T11:56:29Z</time>
      </trkpt>
      <trkpt lat="47.54679" lon="-2.72474">
        <ele>18.7</ele>
        <time>2026-08-29T11:56:30Z</time>
      </trkpt>
      <trkpt lat="47.54676" lon="-2.72477">
        <ele>19</ele>
        <time>2026-08-29T11:56:31Z</time>
      </trkpt>
      <trkpt lat="47.54673" lon="-2.7248">
        <ele>19.3</ele>
        <time>2026-08-29T11:56:32Z</time>
      </trkpt>
      <trkpt lat="47.5467" lon="-2.72483">
        <ele>19.6</ele>
        <time>2026-08-29T11:56:33Z</time>
      </trkpt>
      <trkpt lat="47.54668" lon="-2.72486">
        <ele>19.9</ele>
        <time>2026-08-29T11:56:34Z</time>
      </trkpt>
      <trkpt lat="47.54665" lon="-2.7249">
        <ele>20</ele>
        <time>2026-08-29T11:56:35Z</time>
      </trkpt>
      <trkpt lat="47.54663" lon="-2.72493">
        <ele>20</ele>
        <time>2026-08-29T11:56:36Z</time>
      </trkpt>
      <trkpt lat="47.54661" lon="-2.72497">
        <ele>20</ele>
        <time>2026-08-29T11:56:37Z</time>
      </trkpt>
      <trkpt lat="47.54659" lon="-2.72501">
        <ele>20</ele>
        <time>2026-08-29T11:56:38Z</time>
      </trkpt>
      <trkpt lat="47.54657" lon="-2.72505">
        <ele>19.9</ele>
        <time>2026-08-29T11:56:39Z</time>
      </trkpt>
      <trkpt lat="47.54655" lon="-2.72509">
        <ele>19.8</ele>
        <time>2026-08-29T11:56:40Z</time>
      </trkpt>
      <trkpt lat="47.54652" lon="-2.72513">
        <ele>19.8</ele>
        <time>2026-08-29T11:56:41Z</time>
      </trkpt>
      <trkpt lat="47.5465" lon="-2.72517">
        <ele>19.8</ele>
        <time>2026-08-29T11:56:42Z</time>
      </trkpt>
      <trkpt lat="47.54647" lon="-2.72521">
        <ele>19.8</ele>
        <time>2026-08-29T11:56:43Z</time>
      </trkpt>
      <trkpt lat="47.54645" lon="-2.72525">
        <ele>19.8</ele>
        <time>2026-08-29T11:56:44Z</time>
      </trkpt>
      <trkpt lat="47.54642" lon="-2.72529">
        <ele>19.8</ele>
        <time>2026-08-29T11:56:45Z</time>
      </trkpt>
      <trkpt lat="47.5464" lon="-2.72533">
        <ele>19.8</ele>
        <time>2026-08-29T11:56:46Z</time>
      </trkpt>
      <trkpt lat="47.54637" lon="-2.72536">
        <ele>19.7</ele>
        <time>2026-08-29T11:56:47Z</time>
      </trkpt>
      <trkpt lat="47.54634" lon="-2.72539">
        <ele>19.7</ele>
        <time>2026-08-29T11:56:48Z</time>
      </trkpt>
      <trkpt lat="47.54631" lon="-2.72542">
        <ele>19.6</ele>
        <time>2026-08-29T11:56:49Z</time>
      </trkpt>
      <trkpt lat="47.54628" lon="-2.72544">
        <ele>19.6</ele>
        <time>2026-08-29T11:56:50Z</time>
      </trkpt>
      <trkpt lat="47.54625" lon="-2.72547">
        <ele>19.7</ele>
        <time>2026-08-29T11:56:51Z</time>
      </trkpt>
      <trkpt lat="47.54622" lon="-2.72551">
        <ele>19.7</ele>
        <time>2026-08-29T11:56:52Z</time>
      </trkpt>
      <trkpt lat="47.5462" lon="-2.72555">
        <ele>19.7</ele>
        <time>2026-08-29T11:56:53Z</time>
      </trkpt>
      <trkpt lat="47.54618" lon="-2.7256">
        <ele>19.6</ele>
        <time>2026-08-29T11:56:54Z</time>
      </trkpt>
      <trkpt lat="47.54615" lon="-2.72565">
        <ele>19.5</ele>
        <time>2026-08-29T11:56:55Z</time>
      </trkpt>
      <trkpt lat="47.54613" lon="-2.7257">
        <ele>19.4</ele>
        <time>2026-08-29T11:56:56Z</time>
      </trkpt>
      <trkpt lat="47.5461" lon="-2.72575">
        <ele>19.3</ele>
        <time>2026-08-29T11:56:57Z</time>
      </trkpt>
      <trkpt lat="47.54608" lon="-2.72579">
        <ele>19.1</ele>
        <time>2026-08-29T11:56:58Z</time>
      </trkpt>
      <trkpt lat="47.54605" lon="-2.72584">
        <ele>19</ele>
        <time>2026-08-29T11:56:59Z</time>
      </trkpt>
      <trkpt lat="47.54602" lon="-2.72589">
        <ele>18.8</ele>
        <time>2026-08-29T11:57:00Z</time>
      </trkpt>
      <trkpt lat="47.54599" lon="-2.72594">
        <ele>18.6</ele>
        <time>2026-08-29T11:57:01Z</time>
      </trkpt>
      <trkpt lat="47.54595" lon="-2.72599">
        <ele>18.4</ele>
        <time>2026-08-29T11:57:02Z</time>
      </trkpt>
      <trkpt lat="47.54591" lon="-2.72603">
        <ele>18.3</ele>
        <time>2026-08-29T11:57:03Z</time>
      </trkpt>
      <trkpt lat="47.54587" lon="-2.72607">
        <ele>18.1</ele>
        <time>2026-08-29T11:57:04Z</time>
      </trkpt>
      <trkpt lat="47.54584" lon="-2.72612">
        <ele>18</ele>
        <time>2026-08-29T11:57:05Z</time>
      </trkpt>
      <trkpt lat="47.5458" lon="-2.72616">
        <ele>17.7</ele>
        <time>2026-08-29T11:57:06Z</time>
      </trkpt>
      <trkpt lat="47.54576" lon="-2.72621">
        <ele>17.4</ele>
        <time>2026-08-29T11:57:07Z</time>
      </trkpt>
      <trkpt lat="47.54572" lon="-2.72625">
        <ele>17.1</ele>
        <time>2026-08-29T11:57:08Z</time>
      </trkpt>
      <trkpt lat="47.54568" lon="-2.72629">
        <ele>16.8</ele>
        <time>2026-08-29T11:57:09Z</time>
      </trkpt>
      <trkpt lat="47.54564" lon="-2.72633">
        <ele>16.5</ele>
        <time>2026-08-29T11:57:10Z</time>
      </trkpt>
      <trkpt lat="47.54559" lon="-2.72638">
        <ele>16.2</ele>
        <time>2026-08-29T11:57:11Z</time>
      </trkpt>
      <trkpt lat="47.54554" lon="-2.72642">
        <ele>15.8</ele>
        <time>2026-08-29T11:57:12Z</time>
      </trkpt>
      <trkpt lat="47.54549" lon="-2.72646">
        <ele>15.6</ele>
        <time>2026-08-29T11:57:13Z</time>
      </trkpt>
      <trkpt lat="47.54543" lon="-2.72651">
        <ele>15.3</ele>
        <time>2026-08-29T11:57:14Z</time>
      </trkpt>
      <trkpt lat="47.54538" lon="-2.72655">
        <ele>15.2</ele>
        <time>2026-08-29T11:57:15Z</time>
      </trkpt>
      <trkpt lat="47.54533" lon="-2.7266">
        <ele>15</ele>
        <time>2026-08-29T11:57:16Z</time>
      </trkpt>
      <trkpt lat="47.54528" lon="-2.72665">
        <ele>15</ele>
        <time>2026-08-29T11:57:17Z</time>
      </trkpt>
      <trkpt lat="47.54524" lon="-2.7267">
        <ele>14.9</ele>
        <time>2026-08-29T11:57:18Z</time>
      </trkpt>
      <trkpt lat="47.54519" lon="-2.72675">
        <ele>14.8</ele>
        <time>2026-08-29T11:57:19Z</time>
      </trkpt>
      <trkpt lat="47.54515" lon="-2.7268">
        <ele>14.7</ele>
        <time>2026-08-29T11:57:20Z</time>
      </trkpt>
      <trkpt lat="47.54511" lon="-2.72686">
        <ele>14.7</ele>
        <time>2026-08-29T11:57:21Z</time>
      </trkpt>
      <trkpt lat="47.54508" lon="-2.72691">
        <ele>14.7</ele>
        <time>2026-08-29T11:57:22Z</time>
      </trkpt>
      <trkpt lat="47.54504" lon="-2.72696">
        <ele>14.8</ele>
        <time>2026-08-29T11:57:23Z</time>
      </trkpt>
      <trkpt lat="47.54501" lon="-2.72701">
        <ele>14.7</ele>
        <time>2026-08-29T11:57:24Z</time>
      </trkpt>
      <trkpt lat="47.54498" lon="-2.72707">
        <ele>14.6</ele>
        <time>2026-08-29T11:57:25Z</time>
      </trkpt>
      <trkpt lat="47.54495" lon="-2.72712">
        <ele>14.5</ele>
        <time>2026-08-29T11:57:26Z</time>
      </trkpt>
      <trkpt lat="47.54493" lon="-2.72718">
        <ele>14.4</ele>
        <time>2026-08-29T11:57:27Z</time>
      </trkpt>
      <trkpt lat="47.54491" lon="-2.72723">
        <ele>14.3</ele>
        <time>2026-08-29T11:57:28Z</time>
      </trkpt>
      <trkpt lat="47.5449" lon="-2.72729">
        <ele>14.4</ele>
        <time>2026-08-29T11:57:29Z</time>
      </trkpt>
      <trkpt lat="47.54488" lon="-2.72734">
        <ele>14.4</ele>
        <time>2026-08-29T11:57:30Z</time>
      </trkpt>
      <trkpt lat="47.54486" lon="-2.7274">
        <ele>14.5</ele>
        <time>2026-08-29T11:57:31Z</time>
      </trkpt>
      <trkpt lat="47.54484" lon="-2.72745">
        <ele>14.6</ele>
        <time>2026-08-29T11:57:32Z</time>
      </trkpt>
      <trkpt lat="47.54482" lon="-2.72751">
        <ele>14.6</ele>
        <time>2026-08-29T11:57:33Z</time>
      </trkpt>
      <trkpt lat="47.5448" lon="-2.72757">
        <ele>14.5</ele>
        <time>2026-08-29T11:57:34Z</time>
      </trkpt>
      <trkpt lat="47.54478" lon="-2.72763">
        <ele>14.3</ele>
        <time>2026-08-29T11:57:35Z</time>
      </trkpt>
      <trkpt lat="47.54475" lon="-2.72768">
        <ele>14.3</ele>
        <time>2026-08-29T11:57:36Z</time>
      </trkpt>
      <trkpt lat="47.54473" lon="-2.72774">
        <ele>14.1</ele>
        <time>2026-08-29T11:57:37Z</time>
      </trkpt>
      <trkpt lat="47.5447" lon="-2.72779">
        <ele>14</ele>
        <time>2026-08-29T11:57:38Z</time>
      </trkpt>
      <trkpt lat="47.54468" lon="-2.72784">
        <ele>13.7</ele>
        <time>2026-08-29T11:57:39Z</time>
      </trkpt>
      <trkpt lat="47.54465" lon="-2.7279">
        <ele>13.5</ele>
        <time>2026-08-29T11:57:40Z</time>
      </trkpt>
      <trkpt lat="47.54462" lon="-2.72795">
        <ele>13.4</ele>
        <time>2026-08-29T11:57:41Z</time>
      </trkpt>
      <trkpt lat="47.54459" lon="-2.728">
        <ele>13.3</ele>
        <time>2026-08-29T11:57:42Z</time>
      </trkpt>
      <trkpt lat="47.54456" lon="-2.72805">
        <ele>13.2</ele>
        <time>2026-08-29T11:57:43Z</time>
      </trkpt>
      <trkpt lat="47.54453" lon="-2.72809">
        <ele>13.2</ele>
        <time>2026-08-29T11:57:44Z</time>
      </trkpt>
      <trkpt lat="47.54449" lon="-2.72813">
        <ele>13.2</ele>
        <time>2026-08-29T11:57:45Z</time>
      </trkpt>
      <trkpt lat="47.54446" lon="-2.72818">
        <ele>13</ele>
        <time>2026-08-29T11:57:46Z</time>
      </trkpt>
      <trkpt lat="47.54442" lon="-2.72822">
        <ele>13</ele>
        <time>2026-08-29T11:57:47Z</time>
      </trkpt>
      <trkpt lat="47.54438" lon="-2.72827">
        <ele>12.9</ele>
        <time>2026-08-29T11:57:48Z</time>
      </trkpt>
      <trkpt lat="47.54434" lon="-2.72831">
        <ele>12.9</ele>
        <time>2026-08-29T11:57:49Z</time>
      </trkpt>
      <trkpt lat="47.54431" lon="-2.72836">
        <ele>12.8</ele>
        <time>2026-08-29T11:57:50Z</time>
      </trkpt>
      <trkpt lat="47.54427" lon="-2.72841">
        <ele>12.7</ele>
        <time>2026-08-29T11:57:51Z</time>
      </trkpt>
      <trkpt lat="47.54424" lon="-2.72845">
        <ele>12.6</ele>
        <time>2026-08-29T11:57:52Z</time>
      </trkpt>
      <trkpt lat="47.5442" lon="-2.7285">
        <ele>12.6</ele>
        <time>2026-08-29T11:57:53Z</time>
      </trkpt>
      <trkpt lat="47.54416" lon="-2.72854">
        <ele>12.5</ele>
        <time>2026-08-29T11:57:54Z</time>
      </trkpt>
      <trkpt lat="47.54412" lon="-2.72858">
        <ele>12.4</ele>
        <time>2026-08-29T11:57:55Z</time>
      </trkpt>
      <trkpt lat="47.54409" lon="-2.72863">
        <ele>12.2</ele>
        <time>2026-08-29T11:57:56Z</time>
      </trkpt>
      <trkpt lat="47.54405" lon="-2.72867">
        <ele>12.1</ele>
        <time>2026-08-29T11:57:57Z</time>
      </trkpt>
      <trkpt lat="47.54401" lon="-2.72871">
        <ele>12</ele>
        <time>2026-08-29T11:57:58Z</time>
      </trkpt>
      <trkpt lat="47.54397" lon="-2.72875">
        <ele>11.9</ele>
        <time>2026-08-29T11:57:59Z</time>
      </trkpt>
      <trkpt lat="47.54393" lon="-2.7288">
        <ele>11.6</ele>
        <time>2026-08-29T11:58:00Z</time>
      </trkpt>
      <trkpt lat="47.54389" lon="-2.72885">
        <ele>11.3</ele>
        <time>2026-08-29T11:58:01Z</time>
      </trkpt>
      <trkpt lat="47.54385" lon="-2.7289">
        <ele>11</ele>
        <time>2026-08-29T11:58:02Z</time>
      </trkpt>
      <trkpt lat="47.54382" lon="-2.72895">
        <ele>10.8</ele>
        <time>2026-08-29T11:58:03Z</time>
      </trkpt>
      <trkpt lat="47.54378" lon="-2.72901">
        <ele>10.6</ele>
        <time>2026-08-29T11:58:04Z</time>
      </trkpt>
      <trkpt lat="47.54374" lon="-2.72907">
        <ele>10.3</ele>
        <time>2026-08-29T11:58:05Z</time>
      </trkpt>
      <trkpt lat="47.5437" lon="-2.72914">
        <ele>10.1</ele>
        <time>2026-08-29T11:58:06Z</time>
      </trkpt>
      <trkpt lat="47.54366" lon="-2.72921">
        <ele>9.7</ele>
        <time>2026-08-29T11:58:07Z</time>
      </trkpt>
      <trkpt lat="47.54362" lon="-2.72928">
        <ele>9.2</ele>
        <time>2026-08-29T11:58:08Z</time>
      </trkpt>
      <trkpt lat="47.54359" lon="-2.72936">
        <ele>8.6</ele>
        <time>2026-08-29T11:58:09Z</time>
      </trkpt>
      <trkpt lat="47.54355" lon="-2.72945">
        <ele>8</ele>
        <time>2026-08-29T11:58:10Z</time>
      </trkpt>
      <trkpt lat="47.54352" lon="-2.72953">
        <ele>7.6</ele>
        <time>2026-08-29T11:58:11Z</time>
      </trkpt>
      <trkpt lat="47.54348" lon="-2.72962">
        <ele>7.1</ele>
        <time>2026-08-29T11:58:12Z</time>
      </trkpt>
      <trkpt lat="47.54345" lon="-2.72971">
        <ele>6.5</ele>
        <time>2026-08-29T11:58:13Z</time>
      </trkpt>
      <trkpt lat="47.54341" lon="-2.7298">
        <ele>5.8</ele>
        <time>2026-08-29T11:58:14Z</time>
      </trkpt>
      <trkpt lat="47.54338" lon="-2.72989">
        <ele>5.3</ele>
        <time>2026-08-29T11:58:15Z</time>
      </trkpt>
      <trkpt lat="47.54334" lon="-2.72998">
        <ele>5</ele>
        <time>2026-08-29T11:58:16Z</time>
      </trkpt>
      <trkpt lat="47.54329" lon="-2.73006">
        <ele>4.4</ele>
        <time>2026-08-29T11:58:17Z</time>
      </trkpt>
      <trkpt lat="47.54322" lon="-2.73012">
        <ele>3.9</ele>
        <time>2026-08-29T11:58:18Z</time>
      </trkpt>
      <trkpt lat="47.54315" lon="-2.73017">
        <ele>3.5</ele>
        <time>2026-08-29T11:58:19Z</time>
      </trkpt>
      <trkpt lat="47.54307" lon="-2.7302">
        <ele>3.3</ele>
        <time>2026-08-29T11:58:20Z</time>
      </trkpt>
      <trkpt lat="47.54299" lon="-2.73021">
        <ele>2.8</ele>
        <time>2026-08-29T11:58:21Z</time>
      </trkpt>
      <trkpt lat="47.54291" lon="-2.7302">
        <ele>2.2</ele>
        <time>2026-08-29T11:58:22Z</time>
      </trkpt>
      <trkpt lat="47.54283" lon="-2.73018">
        <ele>1.7</ele>
        <time>2026-08-29T11:58:23Z</time>
      </trkpt>
      <trkpt lat="47.54276" lon="-2.73015">
        <ele>1.5</ele>
        <time>2026-08-29T11:58:24Z</time>
      </trkpt>
      <trkpt lat="47.54269" lon="-2.73011">
        <ele>1.7</ele>
        <time>2026-08-29T11:58:25Z</time>
      </trkpt>
      <trkpt lat="47.54263" lon="-2.73007">
        <ele>1.9</ele>
        <time>2026-08-29T11:58:26Z</time>
      </trkpt>
      <trkpt lat="47.54258" lon="-2.73003">
        <ele>2</ele>
        <time>2026-08-29T11:58:27Z</time>
      </trkpt>
      <trkpt lat="47.54254" lon="-2.73">
        <ele>2</ele>
        <time>2026-08-29T11:58:28Z</time>
      </trkpt>
      <trkpt lat="47.54251" lon="-2.73">
        <ele>2</ele>
        <time>2026-08-29T11:58:29Z</time>
      </trkpt>
      <trkpt lat="47.54248" lon="-2.73001">
        <ele>2.1</ele>
        <time>2026-08-29T11:58:30Z</time>
      </trkpt>
      <trkpt lat="47.54246" lon="-2.73003">
        <ele>2.1</ele>
        <time>2026-08-29T11:58:31Z</time>
      </trkpt>
      <trkpt lat="47.54244" lon="-2.73003">
        <ele>2.2</ele>
        <time>2026-08-29T11:58:32Z</time>
      </trkpt>
      <trkpt lat="47.54242" lon="-2.73002">
        <ele>2.3</ele>
        <time>2026-08-29T11:58:33Z</time>
      </trkpt>
      <trkpt lat="47.5424" lon="-2.73001">
        <ele>2.3</ele>
        <time>2026-08-29T11:58:34Z</time>
      </trkpt>
      <trkpt lat="47.54237" lon="-2.73">
        <ele>2.5</ele>
        <time>2026-08-29T11:58:35Z</time>
      </trkpt>
      <trkpt lat="47.54234" lon="-2.73">
        <ele>2.6</ele>
        <time>2026-08-29T11:58:36Z</time>
      </trkpt>
      <trkpt lat="47.54231" lon="-2.73">
        <ele>2.7</ele>
        <time>2026-08-29T11:58:37Z</time>
      </trkpt>
      <trkpt lat="47.54228" lon="-2.73001">
        <ele>2.8</ele>
        <time>2026-08-29T11:58:38Z</time>
      </trkpt>
      <trkpt lat="47.54225" lon="-2.73003">
        <ele>2.8</ele>
        <time>2026-08-29T11:58:39Z</time>
      </trkpt>
      <trkpt lat="47.54222" lon="-2.73006">
        <ele>2.8</ele>
        <time>2026-08-29T11:58:40Z</time>
      </trkpt>
      <trkpt lat="47.54219" lon="-2.73009">
        <ele>2.8</ele>
        <time>2026-08-29T11:58:41Z</time>
      </trkpt>
      <trkpt lat="47.54217" lon="-2.73014">
        <ele>2.8</ele>
        <time>2026-08-29T11:58:42Z</time>
      </trkpt>
      <trkpt lat="47.54215" lon="-2.73019">
        <ele>2.8</ele>
        <time>2026-08-29T11:58:43Z</time>
      </trkpt>
      <trkpt lat="47.54213" lon="-2.73024">
        <ele>2.8</ele>
        <time>2026-08-29T11:58:44Z</time>
      </trkpt>
      <trkpt lat="47.54212" lon="-2.73029">
        <ele>2.7</ele>
        <time>2026-08-29T11:58:45Z</time>
      </trkpt>
      <trkpt lat="47.5421" lon="-2.73034">
        <ele>2.8</ele>
        <time>2026-08-29T11:58:46Z</time>
      </trkpt>
      <trkpt lat="47.54209" lon="-2.73039">
        <ele>2.8</ele>
        <time>2026-08-29T11:58:47Z</time>
      </trkpt>
      <trkpt lat="47.54206" lon="-2.73044">
        <ele>2.8</ele>
        <time>2026-08-29T11:58:48Z</time>
      </trkpt>
      <trkpt lat="47.54204" lon="-2.73049">
        <ele>2.8</ele>
        <time>2026-08-29T11:58:49Z</time>
      </trkpt>
      <trkpt lat="47.54203" lon="-2.73054">
        <ele>2.7</ele>
        <time>2026-08-29T11:58:50Z</time>
      </trkpt>
      <trkpt lat="47.54201" lon="-2.73058">
        <ele>2.7</ele>
        <time>2026-08-29T11:58:51Z</time>
      </trkpt>
      <trkpt lat="47.54199" lon="-2.73063">
        <ele>2.6</ele>
        <time>2026-08-29T11:58:52Z</time>
      </trkpt>
      <trkpt lat="47.54196" lon="-2.73068">
        <ele>2.5</ele>
        <time>2026-08-29T11:58:53Z</time>
      </trkpt>
      <trkpt lat="47.54194" lon="-2.73073">
        <ele>2.4</ele>
        <time>2026-08-29T11:58:54Z</time>
      </trkpt>
      <trkpt lat="47.54193" lon="-2.73078">
        <ele>2.3</ele>
        <time>2026-08-29T11:58:55Z</time>
      </trkpt>
      <trkpt lat="47.54191" lon="-2.73083">
        <ele>2.3</ele>
        <time>2026-08-29T11:58:56Z</time>
      </trkpt>
      <trkpt lat="47.54189" lon="-2.73089">
        <ele>2.4</ele>
        <time>2026-08-29T11:58:57Z</time>
      </trkpt>
      <trkpt lat="47.54188" lon="-2.73094">
        <ele>2.5</ele>
        <time>2026-08-29T11:58:58Z</time>
      </trkpt>
      <trkpt lat="47.54187" lon="-2.731">
        <ele>2.5</ele>
        <time>2026-08-29T11:58:59Z</time>
      </trkpt>
      <trkpt lat="47.54186" lon="-2.73106">
        <ele>2.6</ele>
        <time>2026-08-29T11:59:00Z</time>
      </trkpt>
      <trkpt lat="47.54185" lon="-2.73112">
        <ele>2.7</ele>
        <time>2026-08-29T11:59:01Z</time>
      </trkpt>
      <trkpt lat="47.54185" lon="-2.73118">
        <ele>2.6</ele>
        <time>2026-08-29T11:59:02Z</time>
      </trkpt>
      <trkpt lat="47.54184" lon="-2.73124">
        <ele>2.6</ele>
        <time>2026-08-29T11:59:03Z</time>
      </trkpt>
      <trkpt lat="47.54183" lon="-2.7313">
        <ele>2.5</ele>
        <time>2026-08-29T11:59:04Z</time>
      </trkpt>
      <trkpt lat="47.54182" lon="-2.73135">
        <ele>2.5</ele>
        <time>2026-08-29T11:59:05Z</time>
      </trkpt>
      <trkpt lat="47.5418" lon="-2.73141">
        <ele>2.5</ele>
        <time>2026-08-29T11:59:06Z</time>
      </trkpt>
      <trkpt lat="47.54179" lon="-2.73146">
        <ele>2.4</ele>
        <time>2026-08-29T11:59:07Z</time>
      </trkpt>
      <trkpt lat="47.54178" lon="-2.73152">
        <ele>2.3</ele>
        <time>2026-08-29T11:59:08Z</time>
      </trkpt>
      <trkpt lat="47.54176" lon="-2.73157">
        <ele>2.2</ele>
        <time>2026-08-29T11:59:09Z</time>
      </trkpt>
      <trkpt lat="47.54174" lon="-2.73162">
        <ele>2.1</ele>
        <time>2026-08-29T11:59:10Z</time>
      </trkpt>
      <trkpt lat="47.54172" lon="-2.73167">
        <ele>2</ele>
        <time>2026-08-29T11:59:11Z</time>
      </trkpt>
      <trkpt lat="47.54171" lon="-2.73172">
        <ele>2</ele>
        <time>2026-08-29T11:59:12Z</time>
      </trkpt>
      <trkpt lat="47.54169" lon="-2.73177">
        <ele>2</ele>
        <time>2026-08-29T11:59:13Z</time>
      </trkpt>
      <trkpt lat="47.54167" lon="-2.73182">
        <ele>2</ele>
        <time>2026-08-29T11:59:14Z</time>
      </trkpt>
      <trkpt lat="47.54166" lon="-2.73187">
        <ele>2</ele>
        <time>2026-08-29T11:59:15Z</time>
      </trkpt>
      <trkpt lat="47.54165" lon="-2.73193">
        <ele>2.1</ele>
        <time>2026-08-29T11:59:16Z</time>
      </trkpt>
      <trkpt lat="47.54163" lon="-2.73198">
        <ele>2.2</ele>
        <time>2026-08-29T11:59:17Z</time>
      </trkpt>
      <trkpt lat="47.54161" lon="-2.73203">
        <ele>2.3</ele>
        <time>2026-08-29T11:59:18Z</time>
      </trkpt>
      <trkpt lat="47.54159" lon="-2.73209">
        <ele>2.4</ele>
        <time>2026-08-29T11:59:19Z</time>
      </trkpt>
      <trkpt lat="47.54157" lon="-2.73214">
        <ele>2.5</ele>
        <time>2026-08-29T11:59:20Z</time>
      </trkpt>
      <trkpt lat="47.54155" lon="-2.73218">
        <ele>2.5</ele>
        <time>2026-08-29T11:59:21Z</time>
      </trkpt>
      <trkpt lat="47.54153" lon="-2.73223">
        <ele>2.5</ele>
        <time>2026-08-29T11:59:22Z</time>
      </trkpt>
      <trkpt lat="47.5415" lon="-2.73227">
        <ele>2.6</ele>
        <time>2026-08-29T11:59:23Z</time>
      </trkpt>
      <trkpt lat="47.54148" lon="-2.73232">
        <ele>2.7</ele>
        <time>2026-08-29T11:59:24Z</time>
      </trkpt>
      <trkpt lat="47.54145" lon="-2.73236">
        <ele>2.8</ele>
        <time>2026-08-29T11:59:25Z</time>
      </trkpt>
      <trkpt lat="47.54143" lon="-2.73241">
        <ele>2.9</ele>
        <time>2026-08-29T11:59:26Z</time>
      </trkpt>
      <trkpt lat="47.54142" lon="-2.73247">
        <ele>2.9</ele>
        <time>2026-08-29T11:59:27Z</time>
      </trkpt>
      <trkpt lat="47.5414" lon="-2.73252">
        <ele>3</ele>
        <time>2026-08-29T11:59:28Z</time>
      </trkpt>
      <trkpt lat="47.54139" lon="-2.73257">
        <ele>3</ele>
        <time>2026-08-29T11:59:29Z</time>
      </trkpt>
      <trkpt lat="47.54137" lon="-2.73262">
        <ele>3</ele>
        <time>2026-08-29T11:59:30Z</time>
      </trkpt>
      <trkpt lat="47.54136" lon="-2.73267">
        <ele>3.1</ele>
        <time>2026-08-29T11:59:31Z</time>
      </trkpt>
      <trkpt lat="47.54135" lon="-2.73272">
        <ele>3.1</ele>
        <time>2026-08-29T11:59:32Z</time>
      </trkpt>
      <trkpt lat="47.54134" lon="-2.73277">
        <ele>3.2</ele>
        <time>2026-08-29T11:59:33Z</time>
      </trkpt>
      <trkpt lat="47.54133" lon="-2.73283">
        <ele>3.2</ele>
        <time>2026-08-29T11:59:34Z</time>
      </trkpt>
      <trkpt lat="47.54132" lon="-2.73288">
        <ele>3.2</ele>
        <time>2026-08-29T11:59:35Z</time>
      </trkpt>
      <trkpt lat="47.54131" lon="-2.73293">
        <ele>3.3</ele>
        <time>2026-08-29T11:59:36Z</time>
      </trkpt>
      <trkpt lat="47.5413" lon="-2.73299">
        <ele>3.3</ele>
        <time>2026-08-29T11:59:37Z</time>
      </trkpt>
      <trkpt lat="47.54128" lon="-2.73304">
        <ele>3.4</ele>
        <time>2026-08-29T11:59:38Z</time>
      </trkpt>
      <trkpt lat="47.54127" lon="-2.7331">
        <ele>3.4</ele>
        <time>2026-08-29T11:59:39Z</time>
      </trkpt>
      <trkpt lat="47.54126" lon="-2.73315">
        <ele>3.3</ele>
        <time>2026-08-29T11:59:40Z</time>
      </trkpt>
      <trkpt lat="47.54125" lon="-2.73321">
        <ele>3.2</ele>
        <time>2026-08-29T11:59:41Z</time>
      </trkpt>
      <trkpt lat="47.54123" lon="-2.73327">
        <ele>3.1</ele>
        <time>2026-08-29T11:59:42Z</time>
      </trkpt>
      <trkpt lat="47.54121" lon="-2.73332">
        <ele>3</ele>
        <time>2026-08-29T11:59:43Z</time>
      </trkpt>
      <trkpt lat="47.5412" lon="-2.73338">
        <ele>2.9</ele>
        <time>2026-08-29T11:59:44Z</time>
      </trkpt>
      <trkpt lat="47.54118" lon="-2.73344">
        <ele>2.9</ele>
        <time>2026-08-29T11:59:45Z</time>
      </trkpt>
      <trkpt lat="47.54116" lon="-2.73349">
        <ele>2.9</ele>
        <time>2026-08-29T11:59:46Z</time>
      </trkpt>
      <trkpt lat="47.54114" lon="-2.73354">
        <ele>2.9</ele>
        <time>2026-08-29T11:59:47Z</time>
      </trkpt>
      <trkpt lat="47.54112" lon="-2.7336">
        <ele>3</ele>
        <time>2026-08-29T11:59:48Z</time>
      </trkpt>
      <trkpt lat="47.5411" lon="-2.73365">
        <ele>2.9</ele>
        <time>2026-08-29T11:59:49Z</time>
      </trkpt>
      <trkpt lat="47.54108" lon="-2.7337">
        <ele>2.8</ele>
        <time>2026-08-29T11:59:50Z</time>
      </trkpt>
      <trkpt lat="47.54106" lon="-2.73376">
        <ele>2.7</ele>
        <time>2026-08-29T11:59:51Z</time>
      </trkpt>
      <trkpt lat="47.54104" lon="-2.73381">
        <ele>2.7</ele>
        <time>2026-08-29T11:59:52Z</time>
      </trkpt>
      <trkpt lat="47.54103" lon="-2.73387">
        <ele>2.6</ele>
        <time>2026-08-29T11:59:53Z</time>
      </trkpt>
      <trkpt lat="47.54101" lon="-2.73393">
        <ele>2.7</ele>
        <time>2026-08-29T11:59:54Z</time>
      </trkpt>
      <trkpt lat="47.54099" lon="-2.73399">
        <ele>2.7</ele>
        <time>2026-08-29T11:59:55Z</time>
      </trkpt>
      <trkpt lat="47.54098" lon="-2.73404">
        <ele>2.7</ele>
        <time>2026-08-29T11:59:56Z</time>
      </trkpt>
      <trkpt lat="47.54096" lon="-2.7341">
        <ele>2.7</ele>
        <time>2026-08-29T11:59:57Z</time>
      </trkpt>
      <trkpt lat="47.54095" lon="-2.73416">
        <ele>2.6</ele>
        <time>2026-08-29T11:59:58Z</time>
      </trkpt>
      <trkpt lat="47.54093" lon="-2.73422">
        <ele>2.7</ele>
        <time>2026-08-29T11:59:59Z</time>
      </trkpt>
      <trkpt lat="47.54091" lon="-2.73428">
        <ele>2.7</ele>
        <time>2026-08-29T12:00:00Z</time>
      </trkpt>
      <trkpt lat="47.5409" lon="-2.73434">
        <ele>2.8</ele>
        <time>2026-08-29T12:00:01Z</time>
      </trkpt>
      <trkpt lat="47.54088" lon="-2.7344">
        <ele>2.8</ele>
        <time>2026-08-29T12:00:02Z</time>
      </trkpt>
      <trkpt lat="47.54087" lon="-2.73446">
        <ele>2.8</ele>
        <time>2026-08-29T12:00:03Z</time>
      </trkpt>
      <trkpt lat="47.54085" lon="-2.73451">
        <ele>2.7</ele>
        <time>2026-08-29T12:00:04Z</time>
      </trkpt>
      <trkpt lat="47.54083" lon="-2.73457">
        <ele>2.6</ele>
        <time>2026-08-29T12:00:05Z</time>
      </trkpt>
      <trkpt lat="47.54082" lon="-2.73463">
        <ele>2.4</ele>
        <time>2026-08-29T12:00:06Z</time>
      </trkpt>
      <trkpt lat="47.5408" lon="-2.73468">
        <ele>2.4</ele>
        <time>2026-08-29T12:00:07Z</time>
      </trkpt>
      <trkpt lat="47.54079" lon="-2.73474">
        <ele>2.3</ele>
        <time>2026-08-29T12:00:08Z</time>
      </trkpt>
      <trkpt lat="47.54077" lon="-2.73479">
        <ele>2.4</ele>
        <time>2026-08-29T12:00:09Z</time>
      </trkpt>
      <trkpt lat="47.54076" lon="-2.73485">
        <ele>2.4</ele>
        <time>2026-08-29T12:00:10Z</time>
      </trkpt>
      <trkpt lat="47.54075" lon="-2.7349">
        <ele>2.4</ele>
        <time>2026-08-29T12:00:11Z</time>
      </trkpt>
      <trkpt lat="47.54073" lon="-2.73496">
        <ele>2.4</ele>
        <time>2026-08-29T12:00:12Z</time>
      </trkpt>
      <trkpt lat="47.54072" lon="-2.73502">
        <ele>2.4</ele>
        <time>2026-08-29T12:00:13Z</time>
      </trkpt>
      <trkpt lat="47.5407" lon="-2.73507">
        <ele>2.5</ele>
        <time>2026-08-29T12:00:14Z</time>
      </trkpt>
      <trkpt lat="47.54069" lon="-2.73513">
        <ele>2.5</ele>
        <time>2026-08-29T12:00:15Z</time>
      </trkpt>
      <trkpt lat="47.54068" lon="-2.73518">
        <ele>2.6</ele>
        <time>2026-08-29T12:00:16Z</time>
      </trkpt>
      <trkpt lat="47.54067" lon="-2.73524">
        <ele>2.6</ele>
        <time>2026-08-29T12:00:17Z</time>
      </trkpt>
      <trkpt lat="47.54066" lon="-2.73529">
        <ele>2.6</ele>
        <time>2026-08-29T12:00:18Z</time>
      </trkpt>
      <trkpt lat="47.54065" lon="-2.73534">
        <ele>2.7</ele>
        <time>2026-08-29T12:00:19Z</time>
      </trkpt>
      <trkpt lat="47.54064" lon="-2.7354">
        <ele>2.7</ele>
        <time>2026-08-29T12:00:20Z</time>
      </trkpt>
      <trkpt lat="47.54063" lon="-2.73545">
        <ele>2.7</ele>
        <time>2026-08-29T12:00:21Z</time>
      </trkpt>
      <trkpt lat="47.54062" lon="-2.73551">
        <ele>2.8</ele>
        <time>2026-08-29T12:00:22Z</time>
      </trkpt>
      <trkpt lat="47.54061" lon="-2.73557">
        <ele>2.8</ele>
        <time>2026-08-29T12:00:23Z</time>
      </trkpt>
      <trkpt lat="47.5406" lon="-2.73563">
        <ele>2.8</ele>
        <time>2026-08-29T12:00:24Z</time>
      </trkpt>
      <trkpt lat="47.54059" lon="-2.73568">
        <ele>2.9</ele>
        <time>2026-08-29T12:00:25Z</time>
      </trkpt>
      <trkpt lat="47.54058" lon="-2.73574">
        <ele>2.9</ele>
        <time>2026-08-29T12:00:26Z</time>
      </trkpt>
      <trkpt lat="47.54057" lon="-2.73579">
        <ele>2.9</ele>
        <time>2026-08-29T12:00:27Z</time>
      </trkpt>
      <trkpt lat="47.54056" lon="-2.73585">
        <ele>3</ele>
        <time>2026-08-29T12:00:28Z</time>
      </trkpt>
      <trkpt lat="47.54055" lon="-2.73591">
        <ele>3</ele>
        <time>2026-08-29T12:00:29Z</time>
      </trkpt>
      <trkpt lat="47.54054" lon="-2.73596">
        <ele>3</ele>
        <time>2026-08-29T12:00:30Z</time>
      </trkpt>
      <trkpt lat="47.54053" lon="-2.73601">
        <ele>3</ele>
        <time>2026-08-29T12:00:31Z</time>
      </trkpt>
      <trkpt lat="47.54052" lon="-2.73607">
        <ele>3</ele>
        <time>2026-08-29T12:00:32Z</time>
      </trkpt>
      <trkpt lat="47.54051" lon="-2.73612">
        <ele>3</ele>
        <time>2026-08-29T12:00:33Z</time>
      </trkpt>
      <trkpt lat="47.54051" lon="-2.73618">
        <ele>3</ele>
        <time>2026-08-29T12:00:34Z</time>
      </trkpt>
      <trkpt lat="47.5405" lon="-2.73623">
        <ele>3</ele>
        <time>2026-08-29T12:00:35Z</time>
      </trkpt>
      <trkpt lat="47.54049" lon="-2.73629">
        <ele>3</ele>
        <time>2026-08-29T12:00:36Z</time>
      </trkpt>
      <trkpt lat="47.54048" lon="-2.73634">
        <ele>3</ele>
        <time>2026-08-29T12:00:37Z</time>
      </trkpt>
      <trkpt lat="47.54048" lon="-2.7364">
        <ele>3</ele>
        <time>2026-08-29T12:00:38Z</time>
      </trkpt>
      <trkpt lat="47.54047" lon="-2.73645">
        <ele>3</ele>
        <time>2026-08-29T12:00:39Z</time>
      </trkpt>
      <trkpt lat="47.54046" lon="-2.73651">
        <ele>3</ele>
        <time>2026-08-29T12:00:40Z</time>
      </trkpt>
      <trkpt lat="47.54046" lon="-2.73656">
        <ele>3</ele>
        <time>2026-08-29T12:00:41Z</time>
      </trkpt>
      <trkpt lat="47.54045" lon="-2.73661">
        <ele>3</ele>
        <time>2026-08-29T12:00:42Z</time>
      </trkpt>
      <trkpt lat="47.54044" lon="-2.73667">
        <ele>3</ele>
        <time>2026-08-29T12:00:43Z</time>
      </trkpt>
      <trkpt lat="47.54043" lon="-2.73672">
        <ele>3</ele>
        <time>2026-08-29T12:00:44Z</time>
      </trkpt>
      <trkpt lat="47.54042" lon="-2.73678">
        <ele>3</ele>
        <time>2026-08-29T12:00:45Z</time>
      </trkpt>
      <trkpt lat="47.54042" lon="-2.73683">
        <ele>3</ele>
        <time>2026-08-29T12:00:46Z</time>
      </trkpt>
      <trkpt lat="47.54041" lon="-2.73689">
        <ele>3</ele>
        <time>2026-08-29T12:00:47Z</time>
      </trkpt>
      <trkpt lat="47.5404" lon="-2.73695">
        <ele>3</ele>
        <time>2026-08-29T12:00:48Z</time>
      </trkpt>
      <trkpt lat="47.54039" lon="-2.737">
        <ele>3</ele>
        <time>2026-08-29T12:00:49Z</time>
      </trkpt>
      <trkpt lat="47.54038" lon="-2.73706">
        <ele>3</ele>
        <time>2026-08-29T12:00:50Z</time>
      </trkpt>
      <trkpt lat="47.54037" lon="-2.73711">
        <ele>3</ele>
        <time>2026-08-29T12:00:51Z</time>
      </trkpt>
      <trkpt lat="47.54035" lon="-2.73716">
        <ele>3</ele>
        <time>2026-08-29T12:00:52Z</time>
      </trkpt>
      <trkpt lat="47.54034" lon="-2.73721">
        <ele>3</ele>
        <time>2026-08-29T12:00:53Z</time>
      </trkpt>
      <trkpt lat="47.54032" lon="-2.73726">
        <ele>3</ele>
        <time>2026-08-29T12:00:54Z</time>
      </trkpt>
      <trkpt lat="47.5403" lon="-2.73731">
        <ele>3</ele>
        <time>2026-08-29T12:00:55Z</time>
      </trkpt>
      <trkpt lat="47.54028" lon="-2.73736">
        <ele>3</ele>
        <time>2026-08-29T12:00:56Z</time>
      </trkpt>
      <trkpt lat="47.54026" lon="-2.73741">
        <ele>3.1</ele>
        <time>2026-08-29T12:00:57Z</time>
      </trkpt>
      <trkpt lat="47.54024" lon="-2.73746">
        <ele>3.1</ele>
        <time>2026-08-29T12:00:58Z</time>
      </trkpt>
      <trkpt lat="47.54022" lon="-2.73751">
        <ele>3.2</ele>
        <time>2026-08-29T12:00:59Z</time>
      </trkpt>
      <trkpt lat="47.5402" lon="-2.73756">
        <ele>3.3</ele>
        <time>2026-08-29T12:01:00Z</time>
      </trkpt>
      <trkpt lat="47.54018" lon="-2.73761">
        <ele>3.4</ele>
        <time>2026-08-29T12:01:01Z</time>
      </trkpt>
      <trkpt lat="47.54017" lon="-2.73766">
        <ele>3.4</ele>
        <time>2026-08-29T12:01:02Z</time>
      </trkpt>
      <trkpt lat="47.54015" lon="-2.73772">
        <ele>3.5</ele>
        <time>2026-08-29T12:01:03Z</time>
      </trkpt>
      <trkpt lat="47.54014" lon="-2.73777">
        <ele>3.5</ele>
        <time>2026-08-29T12:01:04Z</time>
      </trkpt>
      <trkpt lat="47.54013" lon="-2.73782">
        <ele>3.6</ele>
        <time>2026-08-29T12:01:05Z</time>
      </trkpt>
      <trkpt lat="47.54012" lon="-2.73788">
        <ele>3.7</ele>
        <time>2026-08-29T12:01:06Z</time>
      </trkpt>
      <trkpt lat="47.54011" lon="-2.73792">
        <ele>3.8</ele>
        <time>2026-08-29T12:01:07Z</time>
      </trkpt>
      <trkpt lat="47.54009" lon="-2.73797">
        <ele>3.9</ele>
        <time>2026-08-29T12:01:08Z</time>
      </trkpt>
      <trkpt lat="47.54007" lon="-2.73802">
        <ele>4</ele>
        <time>2026-08-29T12:01:09Z</time>
      </trkpt>
      <trkpt lat="47.54005" lon="-2.73807">
        <ele>4</ele>
        <time>2026-08-29T12:01:10Z</time>
      </trkpt>
      <trkpt lat="47.54003" lon="-2.73812">
        <ele>4</ele>
        <time>2026-08-29T12:01:11Z</time>
      </trkpt>
      <trkpt lat="47.54001" lon="-2.73817">
        <ele>4</ele>
        <time>2026-08-29T12:01:12Z</time>
      </trkpt>
      <trkpt lat="47.53999" lon="-2.73822">
        <ele>4</ele>
        <time>2026-08-29T12:01:13Z</time>
      </trkpt>
      <trkpt lat="47.53998" lon="-2.73827">
        <ele>4.1</ele>
        <time>2026-08-29T12:01:14Z</time>
      </trkpt>
      <trkpt lat="47.53996" lon="-2.73832">
        <ele>4.1</ele>
        <time>2026-08-29T12:01:15Z</time>
      </trkpt>
      <trkpt lat="47.53994" lon="-2.73837">
        <ele>4.2</ele>
        <time>2026-08-29T12:01:16Z</time>
      </trkpt>
      <trkpt lat="47.53992" lon="-2.73841">
        <ele>4.3</ele>
        <time>2026-08-29T12:01:17Z</time>
      </trkpt>
      <trkpt lat="47.5399" lon="-2.73846">
        <ele>4.4</ele>
        <time>2026-08-29T12:01:18Z</time>
      </trkpt>
      <trkpt lat="47.53988" lon="-2.7385">
        <ele>4.4</ele>
        <time>2026-08-29T12:01:19Z</time>
      </trkpt>
      <trkpt lat="47.53985" lon="-2.73854">
        <ele>4.5</ele>
        <time>2026-08-29T12:01:20Z</time>
      </trkpt>
      <trkpt lat="47.53983" lon="-2.73858">
        <ele>4.6</ele>
        <time>2026-08-29T12:01:21Z</time>
      </trkpt>
      <trkpt lat="47.5398" lon="-2.73862">
        <ele>4.7</ele>
        <time>2026-08-29T12:01:22Z</time>
      </trkpt>
      <trkpt lat="47.53978" lon="-2.73865">
        <ele>4.8</ele>
        <time>2026-08-29T12:01:23Z</time>
      </trkpt>
      <trkpt lat="47.53975" lon="-2.73869">
        <ele>4.9</ele>
        <time>2026-08-29T12:01:24Z</time>
      </trkpt>
      <trkpt lat="47.53972" lon="-2.73873">
        <ele>5</ele>
        <time>2026-08-29T12:01:25Z</time>
      </trkpt>
      <trkpt lat="47.5397" lon="-2.73876">
        <ele>5.1</ele>
        <time>2026-08-29T12:01:26Z</time>
      </trkpt>
      <trkpt lat="47.53968" lon="-2.7388">
        <ele>5.2</ele>
        <time>2026-08-29T12:01:27Z</time>
      </trkpt>
      <trkpt lat="47.53966" lon="-2.73884">
        <ele>5.2</ele>
        <time>2026-08-29T12:01:28Z</time>
      </trkpt>
      <trkpt lat="47.53964" lon="-2.73888">
        <ele>5.3</ele>
        <time>2026-08-29T12:01:29Z</time>
      </trkpt>
      <trkpt lat="47.53961" lon="-2.73891">
        <ele>5.4</ele>
        <time>2026-08-29T12:01:30Z</time>
      </trkpt>
      <trkpt lat="47.53959" lon="-2.73895">
        <ele>5.5</ele>
        <time>2026-08-29T12:01:31Z</time>
      </trkpt>
      <trkpt lat="47.53957" lon="-2.73899">
        <ele>5.5</ele>
        <time>2026-08-29T12:01:32Z</time>
      </trkpt>
      <trkpt lat="47.53955" lon="-2.73903">
        <ele>5.6</ele>
        <time>2026-08-29T12:01:33Z</time>
      </trkpt>
      <trkpt lat="47.53952" lon="-2.73906">
        <ele>5.7</ele>
        <time>2026-08-29T12:01:34Z</time>
      </trkpt>
      <trkpt lat="47.5395" lon="-2.7391">
        <ele>5.8</ele>
        <time>2026-08-29T12:01:35Z</time>
      </trkpt>
      <trkpt lat="47.53948" lon="-2.73913">
        <ele>5.9</ele>
        <time>2026-08-29T12:01:36Z</time>
      </trkpt>
      <trkpt lat="47.53945" lon="-2.73916">
        <ele>6</ele>
        <time>2026-08-29T12:01:37Z</time>
      </trkpt>
      <trkpt lat="47.53943" lon="-2.7392">
        <ele>6.1</ele>
        <time>2026-08-29T12:01:38Z</time>
      </trkpt>
      <trkpt lat="47.5394" lon="-2.73923">
        <ele>6.2</ele>
        <time>2026-08-29T12:01:39Z</time>
      </trkpt>
      <trkpt lat="47.53938" lon="-2.73927">
        <ele>6.2</ele>
        <time>2026-08-29T12:01:40Z</time>
      </trkpt>
      <trkpt lat="47.53936" lon="-2.7393">
        <ele>6.3</ele>
        <time>2026-08-29T12:01:41Z</time>
      </trkpt>
      <trkpt lat="47.53934" lon="-2.73933">
        <ele>6.4</ele>
        <time>2026-08-29T12:01:42Z</time>
      </trkpt>
      <trkpt lat="47.53932" lon="-2.73937">
        <ele>6.4</ele>
        <time>2026-08-29T12:01:43Z</time>
      </trkpt>
      <trkpt lat="47.53929" lon="-2.7394">
        <ele>6.6</ele>
        <time>2026-08-29T12:01:44Z</time>
      </trkpt>
      <trkpt lat="47.53927" lon="-2.73944">
        <ele>6.6</ele>
        <time>2026-08-29T12:01:45Z</time>
      </trkpt>
      <trkpt lat="47.53925" lon="-2.73948">
        <ele>6.7</ele>
        <time>2026-08-29T12:01:46Z</time>
      </trkpt>
      <trkpt lat="47.53922" lon="-2.73953">
        <ele>6.8</ele>
        <time>2026-08-29T12:01:47Z</time>
      </trkpt>
      <trkpt lat="47.53921" lon="-2.73958">
        <ele>6.8</ele>
        <time>2026-08-29T12:01:48Z</time>
      </trkpt>
      <trkpt lat="47.53919" lon="-2.73963">
        <ele>6.9</ele>
        <time>2026-08-29T12:01:49Z</time>
      </trkpt>
      <trkpt lat="47.53917" lon="-2.73967">
        <ele>7</ele>
        <time>2026-08-29T12:01:50Z</time>
      </trkpt>
      <trkpt lat="47.53916" lon="-2.73972">
        <ele>7</ele>
        <time>2026-08-29T12:01:51Z</time>
      </trkpt>
      <trkpt lat="47.53915" lon="-2.73977">
        <ele>6.8</ele>
        <time>2026-08-29T12:01:52Z</time>
      </trkpt>
      <trkpt lat="47.53915" lon="-2.73982">
        <ele>6.6</ele>
        <time>2026-08-29T12:01:53Z</time>
      </trkpt>
      <trkpt lat="47.53915" lon="-2.73987">
        <ele>6.5</ele>
        <time>2026-08-29T12:01:54Z</time>
      </trkpt>
      <trkpt lat="47.53916" lon="-2.73992">
        <ele>6.3</ele>
        <time>2026-08-29T12:01:55Z</time>
      </trkpt>
      <trkpt lat="47.53917" lon="-2.73997">
        <ele>6.1</ele>
        <time>2026-08-29T12:01:56Z</time>
      </trkpt>
      <trkpt lat="47.53919" lon="-2.74002">
        <ele>5.8</ele>
        <time>2026-08-29T12:01:57Z</time>
      </trkpt>
      <trkpt lat="47.53922" lon="-2.74008">
        <ele>5.3</ele>
        <time>2026-08-29T12:01:58Z</time>
      </trkpt>
      <trkpt lat="47.53925" lon="-2.74012">
        <ele>5</ele>
        <time>2026-08-29T12:01:59Z</time>
      </trkpt>
      <trkpt lat="47.53928" lon="-2.74017">
        <ele>4.6</ele>
        <time>2026-08-29T12:02:00Z</time>
      </trkpt>
      <trkpt lat="47.5393" lon="-2.74021">
        <ele>4.4</ele>
        <time>2026-08-29T12:02:01Z</time>
      </trkpt>
      <trkpt lat="47.53933" lon="-2.74026">
        <ele>4.1</ele>
        <time>2026-08-29T12:02:02Z</time>
      </trkpt>
      <trkpt lat="47.53935" lon="-2.7403">
        <ele>3.9</ele>
        <time>2026-08-29T12:02:03Z</time>
      </trkpt>
      <trkpt lat="47.53935" lon="-2.74034">
        <ele>3.9</ele>
        <time>2026-08-29T12:02:04Z</time>
      </trkpt>
      <trkpt lat="47.53934" lon="-2.74037">
        <ele>3.8</ele>
        <time>2026-08-29T12:02:05Z</time>
      </trkpt>
      <trkpt lat="47.53933" lon="-2.74039">
        <ele>3.8</ele>
        <time>2026-08-29T12:02:06Z</time>
      </trkpt>
      <trkpt lat="47.53933" lon="-2.74043">
        <ele>3.7</ele>
        <time>2026-08-29T12:02:07Z</time>
      </trkpt>
      <trkpt lat="47.53933" lon="-2.74047">
        <ele>3.6</ele>
        <time>2026-08-29T12:02:08Z</time>
      </trkpt>
      <trkpt lat="47.53934" lon="-2.74052">
        <ele>3.5</ele>
        <time>2026-08-29T12:02:09Z</time>
      </trkpt>
      <trkpt lat="47.53936" lon="-2.74057">
        <ele>3.3</ele>
        <time>2026-08-29T12:02:10Z</time>
      </trkpt>
      <trkpt lat="47.53938" lon="-2.74061">
        <ele>3.2</ele>
        <time>2026-08-29T12:02:11Z</time>
      </trkpt>
      <trkpt lat="47.53941" lon="-2.74066">
        <ele>3.1</ele>
        <time>2026-08-29T12:02:12Z</time>
      </trkpt>
      <trkpt lat="47.53943" lon="-2.74071">
        <ele>3.1</ele>
        <time>2026-08-29T12:02:13Z</time>
      </trkpt>
      <trkpt lat="47.53945" lon="-2.74077">
        <ele>3</ele>
        <time>2026-08-29T12:02:14Z</time>
      </trkpt>
      <trkpt lat="47.53946" lon="-2.74083">
        <ele>3</ele>
        <time>2026-08-29T12:02:15Z</time>
      </trkpt>
      <trkpt lat="47.53948" lon="-2.74088">
        <ele>3</ele>
        <time>2026-08-29T12:02:16Z</time>
      </trkpt>
      <trkpt lat="47.53949" lon="-2.74094">
        <ele>3</ele>
        <time>2026-08-29T12:02:17Z</time>
      </trkpt>
      <trkpt lat="47.53951" lon="-2.741">
        <ele>3</ele>
        <time>2026-08-29T12:02:18Z</time>
      </trkpt>
      <trkpt lat="47.53952" lon="-2.74105">
        <ele>3</ele>
        <time>2026-08-29T12:02:19Z</time>
      </trkpt>
      <trkpt lat="47.53953" lon="-2.74111">
        <ele>3</ele>
        <time>2026-08-29T12:02:20Z</time>
      </trkpt>
      <trkpt lat="47.53954" lon="-2.74117">
        <ele>3.2</ele>
        <time>2026-08-29T12:02:21Z</time>
      </trkpt>
      <trkpt lat="47.53954" lon="-2.74122">
        <ele>3.4</ele>
        <time>2026-08-29T12:02:22Z</time>
      </trkpt>
      <trkpt lat="47.53954" lon="-2.74128">
        <ele>3.6</ele>
        <time>2026-08-29T12:02:23Z</time>
      </trkpt>
      <trkpt lat="47.53955" lon="-2.74133">
        <ele>3.8</ele>
        <time>2026-08-29T12:02:24Z</time>
      </trkpt>
      <trkpt lat="47.53955" lon="-2.74139">
        <ele>4</ele>
        <time>2026-08-29T12:02:25Z</time>
      </trkpt>
      <trkpt lat="47.53955" lon="-2.74144">
        <ele>4.1</ele>
        <time>2026-08-29T12:02:26Z</time>
      </trkpt>
      <trkpt lat="47.53955" lon="-2.74149">
        <ele>4.2</ele>
        <time>2026-08-29T12:02:27Z</time>
      </trkpt>
      <trkpt lat="47.53955" lon="-2.74154">
        <ele>4.3</ele>
        <time>2026-08-29T12:02:28Z</time>
      </trkpt>
      <trkpt lat="47.53955" lon="-2.74158">
        <ele>4.4</ele>
        <time>2026-08-29T12:02:29Z</time>
      </trkpt>
      <trkpt lat="47.53956" lon="-2.74163">
        <ele>4.5</ele>
        <time>2026-08-29T12:02:30Z</time>
      </trkpt>
      <trkpt lat="47.53956" lon="-2.74168">
        <ele>4.6</ele>
        <time>2026-08-29T12:02:31Z</time>
      </trkpt>
      <trkpt lat="47.53956" lon="-2.74173">
        <ele>4.7</ele>
        <time>2026-08-29T12:02:32Z</time>
      </trkpt>
      <trkpt lat="47.53956" lon="-2.74177">
        <ele>4.7</ele>
        <time>2026-08-29T12:02:33Z</time>
      </trkpt>
      <trkpt lat="47.53956" lon="-2.74182">
        <ele>4.8</ele>
        <time>2026-08-29T12:02:34Z</time>
      </trkpt>
      <trkpt lat="47.53956" lon="-2.74186">
        <ele>4.9</ele>
        <time>2026-08-29T12:02:35Z</time>
      </trkpt>
      <trkpt lat="47.53955" lon="-2.74191">
        <ele>5</ele>
        <time>2026-08-29T12:02:36Z</time>
      </trkpt>
      <trkpt lat="47.53954" lon="-2.74196">
        <ele>5</ele>
        <time>2026-08-29T12:02:37Z</time>
      </trkpt>
      <trkpt lat="47.53953" lon="-2.742">
        <ele>5</ele>
        <time>2026-08-29T12:02:38Z</time>
      </trkpt>
      <trkpt lat="47.53951" lon="-2.74204">
        <ele>5</ele>
        <time>2026-08-29T12:02:39Z</time>
      </trkpt>
      <trkpt lat="47.53949" lon="-2.74208">
        <ele>5</ele>
        <time>2026-08-29T12:02:40Z</time>
      </trkpt>
      <trkpt lat="47.53947" lon="-2.74212">
        <ele>5</ele>
        <time>2026-08-29T12:02:41Z</time>
      </trkpt>
      <trkpt lat="47.53945" lon="-2.74216">
        <ele>5</ele>
        <time>2026-08-29T12:02:42Z</time>
      </trkpt>
      <trkpt lat="47.53942" lon="-2.74219">
        <ele>5.1</ele>
        <time>2026-08-29T12:02:43Z</time>
      </trkpt>
      <trkpt lat="47.5394" lon="-2.74222">
        <ele>5.2</ele>
        <time>2026-08-29T12:02:44Z</time>
      </trkpt>
      <trkpt lat="47.53938" lon="-2.74226">
        <ele>5.2</ele>
        <time>2026-08-29T12:02:45Z</time>
      </trkpt>
      <trkpt lat="47.53935" lon="-2.74229">
        <ele>5.3</ele>
        <time>2026-08-29T12:02:46Z</time>
      </trkpt>
      <trkpt lat="47.53933" lon="-2.74232">
        <ele>5.3</ele>
        <time>2026-08-29T12:02:47Z</time>
      </trkpt>
      <trkpt lat="47.5393" lon="-2.74235">
        <ele>5.3</ele>
        <time>2026-08-29T12:02:48Z</time>
      </trkpt>
      <trkpt lat="47.53928" lon="-2.74239">
        <ele>5.2</ele>
        <time>2026-08-29T12:02:49Z</time>
      </trkpt>
      <trkpt lat="47.53926" lon="-2.74242">
        <ele>5.2</ele>
        <time>2026-08-29T12:02:50Z</time>
      </trkpt>
      <trkpt lat="47.53923" lon="-2.74245">
        <ele>5.1</ele>
        <time>2026-08-29T12:02:51Z</time>
      </trkpt>
      <trkpt lat="47.53921" lon="-2.74249">
        <ele>5</ele>
        <time>2026-08-29T12:02:52Z</time>
      </trkpt>
      <trkpt lat="47.53919" lon="-2.74252">
        <ele>5.1</ele>
        <time>2026-08-29T12:02:53Z</time>
      </trkpt>
      <trkpt lat="47.53917" lon="-2.74255">
        <ele>5.2</ele>
        <time>2026-08-29T12:02:54Z</time>
      </trkpt>
      <trkpt lat="47.53915" lon="-2.74259">
        <ele>5.4</ele>
        <time>2026-08-29T12:02:55Z</time>
      </trkpt>
      <trkpt lat="47.53913" lon="-2.74262">
        <ele>5.6</ele>
        <time>2026-08-29T12:02:56Z</time>
      </trkpt>
      <trkpt lat="47.53911" lon="-2.74265">
        <ele>5.7</ele>
        <time>2026-08-29T12:02:57Z</time>
      </trkpt>
      <trkpt lat="47.53909" lon="-2.74268">
        <ele>5.8</ele>
        <time>2026-08-29T12:02:58Z</time>
      </trkpt>
      <trkpt lat="47.53906" lon="-2.74271">
        <ele>5.9</ele>
        <time>2026-08-29T12:02:59Z</time>
      </trkpt>
      <trkpt lat="47.53904" lon="-2.74273">
        <ele>6</ele>
        <time>2026-08-29T12:03:00Z</time>
      </trkpt>
      <trkpt lat="47.53901" lon="-2.74275">
        <ele>6</ele>
        <time>2026-08-29T12:03:01Z</time>
      </trkpt>
      <trkpt lat="47.53898" lon="-2.74276">
        <ele>6</ele>
        <time>2026-08-29T12:03:02Z</time>
      </trkpt>
      <trkpt lat="47.53895" lon="-2.74277">
        <ele>6</ele>
        <time>2026-08-29T12:03:03Z</time>
      </trkpt>
      <trkpt lat="47.53892" lon="-2.74277">
        <ele>6</ele>
        <time>2026-08-29T12:03:04Z</time>
      </trkpt>
      <trkpt lat="47.53889" lon="-2.74278">
        <ele>6</ele>
        <time>2026-08-29T12:03:05Z</time>
      </trkpt>
      <trkpt lat="47.53886" lon="-2.74277">
        <ele>6.1</ele>
        <time>2026-08-29T12:03:06Z</time>
      </trkpt>
      <trkpt lat="47.53883" lon="-2.74277">
        <ele>6.2</ele>
        <time>2026-08-29T12:03:07Z</time>
      </trkpt>
      <trkpt lat="47.5388" lon="-2.74276">
        <ele>6.4</ele>
        <time>2026-08-29T12:03:08Z</time>
      </trkpt>
      <trkpt lat="47.53877" lon="-2.74275">
        <ele>6.5</ele>
        <time>2026-08-29T12:03:09Z</time>
      </trkpt>
      <trkpt lat="47.53874" lon="-2.74274">
        <ele>6.7</ele>
        <time>2026-08-29T12:03:10Z</time>
      </trkpt>
      <trkpt lat="47.53871" lon="-2.74273">
        <ele>6.8</ele>
        <time>2026-08-29T12:03:11Z</time>
      </trkpt>
      <trkpt lat="47.53869" lon="-2.74272">
        <ele>6.9</ele>
        <time>2026-08-29T12:03:12Z</time>
      </trkpt>
      <trkpt lat="47.53866" lon="-2.74271">
        <ele>7.1</ele>
        <time>2026-08-29T12:03:13Z</time>
      </trkpt>
      <trkpt lat="47.53863" lon="-2.7427">
        <ele>7.2</ele>
        <time>2026-08-29T12:03:14Z</time>
      </trkpt>
      <trkpt lat="47.5386" lon="-2.74269">
        <ele>7.4</ele>
        <time>2026-08-29T12:03:15Z</time>
      </trkpt>
      <trkpt lat="47.53857" lon="-2.74268">
        <ele>7.5</ele>
        <time>2026-08-29T12:03:16Z</time>
      </trkpt>
      <trkpt lat="47.53854" lon="-2.74267">
        <ele>7.7</ele>
        <time>2026-08-29T12:03:17Z</time>
      </trkpt>
      <trkpt lat="47.53851" lon="-2.74266">
        <ele>7.8</ele>
        <time>2026-08-29T12:03:18Z</time>
      </trkpt>
      <trkpt lat="47.53849" lon="-2.74265">
        <ele>7.9</ele>
        <time>2026-08-29T12:03:19Z</time>
      </trkpt>
      <trkpt lat="47.53846" lon="-2.74263">
        <ele>8</ele>
        <time>2026-08-29T12:03:20Z</time>
      </trkpt>
      <trkpt lat="47.53844" lon="-2.74262">
        <ele>8.1</ele>
        <time>2026-08-29T12:03:21Z</time>
      </trkpt>
      <trkpt lat="47.53841" lon="-2.74262">
        <ele>8.2</ele>
        <time>2026-08-29T12:03:22Z</time>
      </trkpt>
      <trkpt lat="47.53839" lon="-2.74263">
        <ele>8.3</ele>
        <time>2026-08-29T12:03:23Z</time>
      </trkpt>
      <trkpt lat="47.53836" lon="-2.74265">
        <ele>8.4</ele>
        <time>2026-08-29T12:03:24Z</time>
      </trkpt>
      <trkpt lat="47.53835" lon="-2.74268">
        <ele>8.6</ele>
        <time>2026-08-29T12:03:25Z</time>
      </trkpt>
      <trkpt lat="47.53834" lon="-2.74272">
        <ele>8.8</ele>
        <time>2026-08-29T12:03:26Z</time>
      </trkpt>
      <trkpt lat="47.53833" lon="-2.74276">
        <ele>9</ele>
        <time>2026-08-29T12:03:27Z</time>
      </trkpt>
      <trkpt lat="47.53834" lon="-2.7428">
        <ele>9</ele>
        <time>2026-08-29T12:03:28Z</time>
      </trkpt>
      <trkpt lat="47.53834" lon="-2.74284">
        <ele>9</ele>
        <time>2026-08-29T12:03:29Z</time>
      </trkpt>
      <trkpt lat="47.53833" lon="-2.74289">
        <ele>9</ele>
        <time>2026-08-29T12:03:30Z</time>
      </trkpt>
      <trkpt lat="47.53833" lon="-2.74293">
        <ele>9</ele>
        <time>2026-08-29T12:03:31Z</time>
      </trkpt>
      <trkpt lat="47.53833" lon="-2.74297">
        <ele>9</ele>
        <time>2026-08-29T12:03:32Z</time>
      </trkpt>
      <trkpt lat="47.53832" lon="-2.74301">
        <ele>9.1</ele>
        <time>2026-08-29T12:03:33Z</time>
      </trkpt>
      <trkpt lat="47.53832" lon="-2.74306">
        <ele>9.1</ele>
        <time>2026-08-29T12:03:34Z</time>
      </trkpt>
      <trkpt lat="47.53831" lon="-2.7431">
        <ele>9.2</ele>
        <time>2026-08-29T12:03:35Z</time>
      </trkpt>
      <trkpt lat="47.53831" lon="-2.74314">
        <ele>9.2</ele>
        <time>2026-08-29T12:03:36Z</time>
      </trkpt>
      <trkpt lat="47.5383" lon="-2.74318">
        <ele>9.2</ele>
        <time>2026-08-29T12:03:37Z</time>
      </trkpt>
      <trkpt lat="47.5383" lon="-2.74322">
        <ele>9.2</ele>
        <time>2026-08-29T12:03:38Z</time>
      </trkpt>
      <trkpt lat="47.53829" lon="-2.74326">
        <ele>9.3</ele>
        <time>2026-08-29T12:03:39Z</time>
      </trkpt>
      <trkpt lat="47.53828" lon="-2.7433">
        <ele>9.4</ele>
        <time>2026-08-29T12:03:40Z</time>
      </trkpt>
      <trkpt lat="47.53828" lon="-2.74333">
        <ele>9.4</ele>
        <time>2026-08-29T12:03:41Z</time>
      </trkpt>
      <trkpt lat="47.53827" lon="-2.74337">
        <ele>9.5</ele>
        <time>2026-08-29T12:03:42Z</time>
      </trkpt>
      <trkpt lat="47.53826" lon="-2.74341">
        <ele>9.5</ele>
        <time>2026-08-29T12:03:43Z</time>
      </trkpt>
      <trkpt lat="47.53824" lon="-2.74344">
        <ele>9.7</ele>
        <time>2026-08-29T12:03:44Z</time>
      </trkpt>
      <trkpt lat="47.53822" lon="-2.74347">
        <ele>9.8</ele>
        <time>2026-08-29T12:03:45Z</time>
      </trkpt>
      <trkpt lat="47.53821" lon="-2.7435">
        <ele>9.9</ele>
        <time>2026-08-29T12:03:46Z</time>
      </trkpt>
      <trkpt lat="47.53819" lon="-2.74353">
        <ele>10</ele>
        <time>2026-08-29T12:03:47Z</time>
      </trkpt>
      <trkpt lat="47.53817" lon="-2.74356">
        <ele>10.2</ele>
        <time>2026-08-29T12:03:48Z</time>
      </trkpt>
      <trkpt lat="47.53815" lon="-2.74358">
        <ele>10.3</ele>
        <time>2026-08-29T12:03:49Z</time>
      </trkpt>
      <trkpt lat="47.53813" lon="-2.74361">
        <ele>10.5</ele>
        <time>2026-08-29T12:03:50Z</time>
      </trkpt>
      <trkpt lat="47.53811" lon="-2.74365">
        <ele>10.6</ele>
        <time>2026-08-29T12:03:51Z</time>
      </trkpt>
      <trkpt lat="47.5381" lon="-2.74368">
        <ele>10.7</ele>
        <time>2026-08-29T12:03:52Z</time>
      </trkpt>
      <trkpt lat="47.53808" lon="-2.74372">
        <ele>10.8</ele>
        <time>2026-08-29T12:03:53Z</time>
      </trkpt>
      <trkpt lat="47.53807" lon="-2.74376">
        <ele>10.9</ele>
        <time>2026-08-29T12:03:54Z</time>
      </trkpt>
      <trkpt lat="47.53806" lon="-2.7438">
        <ele>11</ele>
        <time>2026-08-29T12:03:55Z</time>
      </trkpt>
      <trkpt lat="47.53805" lon="-2.74384">
        <ele>11</ele>
        <time>2026-08-29T12:03:56Z</time>
      </trkpt>
      <trkpt lat="47.53803" lon="-2.74386">
        <ele>11.1</ele>
        <time>2026-08-29T12:03:57Z</time>
      </trkpt>
      <trkpt lat="47.53802" lon="-2.74389">
        <ele>11.1</ele>
        <time>2026-08-29T12:03:58Z</time>
      </trkpt>
      <trkpt lat="47.53801" lon="-2.74392">
        <ele>11.1</ele>
        <time>2026-08-29T12:03:59Z</time>
      </trkpt>
      <trkpt lat="47.53799" lon="-2.74396">
        <ele>11</ele>
        <time>2026-08-29T12:04:00Z</time>
      </trkpt>
      <trkpt lat="47.53798" lon="-2.744">
        <ele>11</ele>
        <time>2026-08-29T12:04:01Z</time>
      </trkpt>
      <trkpt lat="47.53796" lon="-2.74403">
        <ele>11</ele>
        <time>2026-08-29T12:04:02Z</time>
      </trkpt>
      <trkpt lat="47.53794" lon="-2.74407">
        <ele>11</ele>
        <time>2026-08-29T12:04:03Z</time>
      </trkpt>
      <trkpt lat="47.53792" lon="-2.74412">
        <ele>11.1</ele>
        <time>2026-08-29T12:04:04Z</time>
      </trkpt>
      <trkpt lat="47.53791" lon="-2.74416">
        <ele>11.1</ele>
        <time>2026-08-29T12:04:05Z</time>
      </trkpt>
      <trkpt lat="47.53789" lon="-2.7442">
        <ele>11.1</ele>
        <time>2026-08-29T12:04:06Z</time>
      </trkpt>
      <trkpt lat="47.53788" lon="-2.74424">
        <ele>11.1</ele>
        <time>2026-08-29T12:04:07Z</time>
      </trkpt>
      <trkpt lat="47.53787" lon="-2.74428">
        <ele>11.1</ele>
        <time>2026-08-29T12:04:08Z</time>
      </trkpt>
      <trkpt lat="47.53785" lon="-2.74432">
        <ele>11.1</ele>
        <time>2026-08-29T12:04:09Z</time>
      </trkpt>
      <trkpt lat="47.53784" lon="-2.74437">
        <ele>11</ele>
        <time>2026-08-29T12:04:10Z</time>
      </trkpt>
      <trkpt lat="47.53783" lon="-2.74442">
        <ele>10.9</ele>
        <time>2026-08-29T12:04:11Z</time>
      </trkpt>
      <trkpt lat="47.53783" lon="-2.74446">
        <ele>10.8</ele>
        <time>2026-08-29T12:04:12Z</time>
      </trkpt>
      <trkpt lat="47.53782" lon="-2.74451">
        <ele>10.8</ele>
        <time>2026-08-29T12:04:13Z</time>
      </trkpt>
      <trkpt lat="47.53782" lon="-2.74455">
        <ele>10.8</ele>
        <time>2026-08-29T12:04:14Z</time>
      </trkpt>
      <trkpt lat="47.53781" lon="-2.7446">
        <ele>10.8</ele>
        <time>2026-08-29T12:04:15Z</time>
      </trkpt>
      <trkpt lat="47.53781" lon="-2.74466">
        <ele>10.8</ele>
        <time>2026-08-29T12:04:16Z</time>
      </trkpt>
      <trkpt lat="47.5378" lon="-2.74471">
        <ele>10.8</ele>
        <time>2026-08-29T12:04:17Z</time>
      </trkpt>
      <trkpt lat="47.53779" lon="-2.74477">
        <ele>10.9</ele>
        <time>2026-08-29T12:04:18Z</time>
      </trkpt>
      <trkpt lat="47.53779" lon="-2.74482">
        <ele>10.9</ele>
        <time>2026-08-29T12:04:19Z</time>
      </trkpt>
      <trkpt lat="47.53778" lon="-2.74487">
        <ele>11</ele>
        <time>2026-08-29T12:04:20Z</time>
      </trkpt>
      <trkpt lat="47.53777" lon="-2.74492">
        <ele>11</ele>
        <time>2026-08-29T12:04:21Z</time>
      </trkpt>
      <trkpt lat="47.53777" lon="-2.74497">
        <ele>11</ele>
        <time>2026-08-29T12:04:22Z</time>
      </trkpt>
      <trkpt lat="47.53777" lon="-2.74502">
        <ele>11</ele>
        <time>2026-08-29T12:04:23Z</time>
      </trkpt>
      <trkpt lat="47.53777" lon="-2.74507">
        <ele>11</ele>
        <time>2026-08-29T12:04:24Z</time>
      </trkpt>
      <trkpt lat="47.53776" lon="-2.74512">
        <ele>11.1</ele>
        <time>2026-08-29T12:04:25Z</time>
      </trkpt>
      <trkpt lat="47.53776" lon="-2.74517">
        <ele>11.1</ele>
        <time>2026-08-29T12:04:26Z</time>
      </trkpt>
      <trkpt lat="47.53775" lon="-2.74522">
        <ele>11.1</ele>
        <time>2026-08-29T12:04:27Z</time>
      </trkpt>
      <trkpt lat="47.53775" lon="-2.74528">
        <ele>11.1</ele>
        <time>2026-08-29T12:04:28Z</time>
      </trkpt>
      <trkpt lat="47.53774" lon="-2.74533">
        <ele>11.1</ele>
        <time>2026-08-29T12:04:29Z</time>
      </trkpt>
      <trkpt lat="47.53774" lon="-2.74538">
        <ele>11.1</ele>
        <time>2026-08-29T12:04:30Z</time>
      </trkpt>
      <trkpt lat="47.53774" lon="-2.74543">
        <ele>11.1</ele>
        <time>2026-08-29T12:04:31Z</time>
      </trkpt>
      <trkpt lat="47.53773" lon="-2.74549">
        <ele>11.2</ele>
        <time>2026-08-29T12:04:32Z</time>
      </trkpt>
      <trkpt lat="47.53773" lon="-2.74554">
        <ele>11.2</ele>
        <time>2026-08-29T12:04:33Z</time>
      </trkpt>
      <trkpt lat="47.53773" lon="-2.74559">
        <ele>11.2</ele>
        <time>2026-08-29T12:04:34Z</time>
      </trkpt>
      <trkpt lat="47.53772" lon="-2.74564">
        <ele>11.3</ele>
        <time>2026-08-29T12:04:35Z</time>
      </trkpt>
      <trkpt lat="47.53772" lon="-2.7457">
        <ele>11.3</ele>
        <time>2026-08-29T12:04:36Z</time>
      </trkpt>
      <trkpt lat="47.53771" lon="-2.74575">
        <ele>11.4</ele>
        <time>2026-08-29T12:04:37Z</time>
      </trkpt>
      <trkpt lat="47.53771" lon="-2.7458">
        <ele>11.5</ele>
        <time>2026-08-29T12:04:38Z</time>
      </trkpt>
      <trkpt lat="47.53771" lon="-2.74585">
        <ele>11.5</ele>
        <time>2026-08-29T12:04:39Z</time>
      </trkpt>
      <trkpt lat="47.5377" lon="-2.7459">
        <ele>11.6</ele>
        <time>2026-08-29T12:04:40Z</time>
      </trkpt>
      <trkpt lat="47.53769" lon="-2.74594">
        <ele>11.6</ele>
        <time>2026-08-29T12:04:41Z</time>
      </trkpt>
      <trkpt lat="47.53767" lon="-2.74598">
        <ele>11.8</ele>
        <time>2026-08-29T12:04:42Z</time>
      </trkpt>
      <trkpt lat="47.53766" lon="-2.74601">
        <ele>11.8</ele>
        <time>2026-08-29T12:04:43Z</time>
      </trkpt>
      <trkpt lat="47.53763" lon="-2.74602">
        <ele>12.1</ele>
        <time>2026-08-29T12:04:44Z</time>
      </trkpt>
      <trkpt lat="47.5376" lon="-2.74602">
        <ele>12.3</ele>
        <time>2026-08-29T12:04:45Z</time>
      </trkpt>
      <trkpt lat="47.53758" lon="-2.74601">
        <ele>12.4</ele>
        <time>2026-08-29T12:04:46Z</time>
      </trkpt>
      <trkpt lat="47.53755" lon="-2.74599">
        <ele>12.6</ele>
        <time>2026-08-29T12:04:47Z</time>
      </trkpt>
      <trkpt lat="47.53752" lon="-2.74597">
        <ele>12.9</ele>
        <time>2026-08-29T12:04:48Z</time>
      </trkpt>
      <trkpt lat="47.5375" lon="-2.74595">
        <ele>13</ele>
        <time>2026-08-29T12:04:49Z</time>
      </trkpt>
      <trkpt lat="47.53748" lon="-2.74593">
        <ele>13.1</ele>
        <time>2026-08-29T12:04:50Z</time>
      </trkpt>
      <trkpt lat="47.53745" lon="-2.74592">
        <ele>13.4</ele>
        <time>2026-08-29T12:04:51Z</time>
      </trkpt>
      <trkpt lat="47.53743" lon="-2.7459">
        <ele>13.5</ele>
        <time>2026-08-29T12:04:52Z</time>
      </trkpt>
      <trkpt lat="47.53741" lon="-2.74588">
        <ele>13.6</ele>
        <time>2026-08-29T12:04:53Z</time>
      </trkpt>
      <trkpt lat="47.53739" lon="-2.74586">
        <ele>13.8</ele>
        <time>2026-08-29T12:04:54Z</time>
      </trkpt>
      <trkpt lat="47.53737" lon="-2.74585">
        <ele>13.9</ele>
        <time>2026-08-29T12:04:55Z</time>
      </trkpt>
      <trkpt lat="47.53735" lon="-2.74584">
        <ele>14.1</ele>
        <time>2026-08-29T12:04:56Z</time>
      </trkpt>
      <trkpt lat="47.53732" lon="-2.74582">
        <ele>14.2</ele>
        <time>2026-08-29T12:04:57Z</time>
      </trkpt>
      <trkpt lat="47.5373" lon="-2.74581">
        <ele>14.4</ele>
        <time>2026-08-29T12:04:58Z</time>
      </trkpt>
      <trkpt lat="47.53728" lon="-2.74579">
        <ele>14.4</ele>
        <time>2026-08-29T12:04:59Z</time>
      </trkpt>
      <trkpt lat="47.53725" lon="-2.74578">
        <ele>14.6</ele>
        <time>2026-08-29T12:05:00Z</time>
      </trkpt>
      <trkpt lat="47.53722" lon="-2.74576">
        <ele>14.8</ele>
        <time>2026-08-29T12:05:01Z</time>
      </trkpt>
      <trkpt lat="47.5372" lon="-2.74574">
        <ele>14.8</ele>
        <time>2026-08-29T12:05:02Z</time>
      </trkpt>
      <trkpt lat="47.53717" lon="-2.74572">
        <ele>15</ele>
        <time>2026-08-29T12:05:03Z</time>
      </trkpt>
      <trkpt lat="47.53715" lon="-2.7457">
        <ele>15</ele>
        <time>2026-08-29T12:05:04Z</time>
      </trkpt>
      <trkpt lat="47.53712" lon="-2.74568">
        <ele>15.2</ele>
        <time>2026-08-29T12:05:05Z</time>
      </trkpt>
      <trkpt lat="47.5371" lon="-2.74567">
        <ele>15.3</ele>
        <time>2026-08-29T12:05:06Z</time>
      </trkpt>
      <trkpt lat="47.53707" lon="-2.74565">
        <ele>15.4</ele>
        <time>2026-08-29T12:05:07Z</time>
      </trkpt>
      <trkpt lat="47.53705" lon="-2.74563">
        <ele>15.5</ele>
        <time>2026-08-29T12:05:08Z</time>
      </trkpt>
      <trkpt lat="47.53702" lon="-2.74562">
        <ele>15.7</ele>
        <time>2026-08-29T12:05:09Z</time>
      </trkpt>
      <trkpt lat="47.537" lon="-2.7456">
        <ele>15.8</ele>
        <time>2026-08-29T12:05:10Z</time>
      </trkpt>
      <trkpt lat="47.53697" lon="-2.74558">
        <ele>15.9</ele>
        <time>2026-08-29T12:05:11Z</time>
      </trkpt>
      <trkpt lat="47.53695" lon="-2.74557">
        <ele>16</ele>
        <time>2026-08-29T12:05:12Z</time>
      </trkpt>
      <trkpt lat="47.53692" lon="-2.74555">
        <ele>16.2</ele>
        <time>2026-08-29T12:05:13Z</time>
      </trkpt>
      <trkpt lat="47.5369" lon="-2.74553">
        <ele>16.4</ele>
        <time>2026-08-29T12:05:14Z</time>
      </trkpt>
      <trkpt lat="47.53688" lon="-2.74551">
        <ele>16.6</ele>
        <time>2026-08-29T12:05:15Z</time>
      </trkpt>
      <trkpt lat="47.53685" lon="-2.74549">
        <ele>16.8</ele>
        <time>2026-08-29T12:05:16Z</time>
      </trkpt>
      <trkpt lat="47.53683" lon="-2.74548">
        <ele>17</ele>
        <time>2026-08-29T12:05:17Z</time>
      </trkpt>
      <trkpt lat="47.53681" lon="-2.74546">
        <ele>17.1</ele>
        <time>2026-08-29T12:05:18Z</time>
      </trkpt>
      <trkpt lat="47.53678" lon="-2.74545">
        <ele>17.3</ele>
        <time>2026-08-29T12:05:19Z</time>
      </trkpt>
      <trkpt lat="47.53675" lon="-2.74545">
        <ele>17.5</ele>
        <time>2026-08-29T12:05:20Z</time>
      </trkpt>
      <trkpt lat="47.53672" lon="-2.74545">
        <ele>17.7</ele>
        <time>2026-08-29T12:05:21Z</time>
      </trkpt>
      <trkpt lat="47.5367" lon="-2.74546">
        <ele>17.8</ele>
        <time>2026-08-29T12:05:22Z</time>
      </trkpt>
      <trkpt lat="47.53667" lon="-2.74547">
        <ele>18</ele>
        <time>2026-08-29T12:05:23Z</time>
      </trkpt>
      <trkpt lat="47.53665" lon="-2.74549">
        <ele>18</ele>
        <time>2026-08-29T12:05:24Z</time>
      </trkpt>
      <trkpt lat="47.53663" lon="-2.74552">
        <ele>18</ele>
        <time>2026-08-29T12:05:25Z</time>
      </trkpt>
      <trkpt lat="47.5366" lon="-2.74554">
        <ele>18</ele>
        <time>2026-08-29T12:05:26Z</time>
      </trkpt>
      <trkpt lat="47.53659" lon="-2.74557">
        <ele>18</ele>
        <time>2026-08-29T12:05:27Z</time>
      </trkpt>
      <trkpt lat="47.53657" lon="-2.7456">
        <ele>18</ele>
        <time>2026-08-29T12:05:28Z</time>
      </trkpt>
      <trkpt lat="47.53656" lon="-2.74564">
        <ele>18</ele>
        <time>2026-08-29T12:05:29Z</time>
      </trkpt>
      <trkpt lat="47.53655" lon="-2.74567">
        <ele>18</ele>
        <time>2026-08-29T12:05:30Z</time>
      </trkpt>
      <trkpt lat="47.53654" lon="-2.74571">
        <ele>18</ele>
        <time>2026-08-29T12:05:31Z</time>
      </trkpt>
      <trkpt lat="47.53653" lon="-2.74575">
        <ele>18</ele>
        <time>2026-08-29T12:05:32Z</time>
      </trkpt>
      <trkpt lat="47.53652" lon="-2.74579">
        <ele>18</ele>
        <time>2026-08-29T12:05:33Z</time>
      </trkpt>
      <trkpt lat="47.53652" lon="-2.74583">
        <ele>18</ele>
        <time>2026-08-29T12:05:34Z</time>
      </trkpt>
      <trkpt lat="47.53652" lon="-2.74587">
        <ele>18.1</ele>
        <time>2026-08-29T12:05:35Z</time>
      </trkpt>
      <trkpt lat="47.53652" lon="-2.74591">
        <ele>18.1</ele>
        <time>2026-08-29T12:05:36Z</time>
      </trkpt>
      <trkpt lat="47.53651" lon="-2.74595">
        <ele>18.2</ele>
        <time>2026-08-29T12:05:37Z</time>
      </trkpt>
      <trkpt lat="47.53651" lon="-2.746">
        <ele>18.3</ele>
        <time>2026-08-29T12:05:38Z</time>
      </trkpt>
      <trkpt lat="47.5365" lon="-2.74604">
        <ele>18.4</ele>
        <time>2026-08-29T12:05:39Z</time>
      </trkpt>
      <trkpt lat="47.5365" lon="-2.74608">
        <ele>18.5</ele>
        <time>2026-08-29T12:05:40Z</time>
      </trkpt>
      <trkpt lat="47.5365" lon="-2.74613">
        <ele>18.6</ele>
        <time>2026-08-29T12:05:41Z</time>
      </trkpt>
      <trkpt lat="47.53649" lon="-2.74617">
        <ele>18.8</ele>
        <time>2026-08-29T12:05:42Z</time>
      </trkpt>
      <trkpt lat="47.53649" lon="-2.74621">
        <ele>18.9</ele>
        <time>2026-08-29T12:05:43Z</time>
      </trkpt>
      <trkpt lat="47.53649" lon="-2.74625">
        <ele>19</ele>
        <time>2026-08-29T12:05:44Z</time>
      </trkpt>
      <trkpt lat="47.53649" lon="-2.74629">
        <ele>19</ele>
        <time>2026-08-29T12:05:45Z</time>
      </trkpt>
      <trkpt lat="47.53648" lon="-2.74633">
        <ele>19.2</ele>
        <time>2026-08-29T12:05:46Z</time>
      </trkpt>
      <trkpt lat="47.53647" lon="-2.74637">
        <ele>19.4</ele>
        <time>2026-08-29T12:05:47Z</time>
      </trkpt>
      <trkpt lat="47.53646" lon="-2.74641">
        <ele>19.5</ele>
        <time>2026-08-29T12:05:48Z</time>
      </trkpt>
      <trkpt lat="47.53646" lon="-2.74646">
        <ele>19.5</ele>
        <time>2026-08-29T12:05:49Z</time>
      </trkpt>
      <trkpt lat="47.53645" lon="-2.7465">
        <ele>19.6</ele>
        <time>2026-08-29T12:05:50Z</time>
      </trkpt>
      <trkpt lat="47.53644" lon="-2.74654">
        <ele>19.6</ele>
        <time>2026-08-29T12:05:51Z</time>
      </trkpt>
      <trkpt lat="47.53643" lon="-2.74658">
        <ele>19.7</ele>
        <time>2026-08-29T12:05:52Z</time>
      </trkpt>
      <trkpt lat="47.53642" lon="-2.74662">
        <ele>19.8</ele>
        <time>2026-08-29T12:05:53Z</time>
      </trkpt>
      <trkpt lat="47.53641" lon="-2.74667">
        <ele>19.8</ele>
        <time>2026-08-29T12:05:54Z</time>
      </trkpt>
      <trkpt lat="47.5364" lon="-2.74671">
        <ele>19.9</ele>
        <time>2026-08-29T12:05:55Z</time>
      </trkpt>
      <trkpt lat="47.5364" lon="-2.74675">
        <ele>19.9</ele>
        <time>2026-08-29T12:05:56Z</time>
      </trkpt>
      <trkpt lat="47.53639" lon="-2.7468">
        <ele>20</ele>
        <time>2026-08-29T12:05:57Z</time>
      </trkpt>
      <trkpt lat="47.53639" lon="-2.74684">
        <ele>20</ele>
        <time>2026-08-29T12:05:58Z</time>
      </trkpt>
      <trkpt lat="47.53639" lon="-2.74687">
        <ele>20</ele>
        <time>2026-08-29T12:05:59Z</time>
      </trkpt>
      <trkpt lat="47.5364" lon="-2.74691">
        <ele>19.9</ele>
        <time>2026-08-29T12:06:00Z</time>
      </trkpt>
      <trkpt lat="47.5364" lon="-2.74696">
        <ele>19.9</ele>
        <time>2026-08-29T12:06:01Z</time>
      </trkpt>
      <trkpt lat="47.53639" lon="-2.747">
        <ele>20</ele>
        <time>2026-08-29T12:06:02Z</time>
      </trkpt>
      <trkpt lat="47.53638" lon="-2.747">
        <ele>20</ele>
        <time>2026-08-29T12:06:03Z</time>
      </trkpt>
      <trkpt lat="47.53636" lon="-2.74699">
        <ele>19.9</ele>
        <time>2026-08-29T12:06:04Z</time>
      </trkpt>
      <trkpt lat="47.53634" lon="-2.74697">
        <ele>19.8</ele>
        <time>2026-08-29T12:06:05Z</time>
      </trkpt>
      <trkpt lat="47.53632" lon="-2.74695">
        <ele>19.8</ele>
        <time>2026-08-29T12:06:06Z</time>
      </trkpt>
      <trkpt lat="47.53629" lon="-2.74695">
        <ele>19.7</ele>
        <time>2026-08-29T12:06:07Z</time>
      </trkpt>
      <trkpt lat="47.53626" lon="-2.74696">
        <ele>19.6</ele>
        <time>2026-08-29T12:06:08Z</time>
      </trkpt>
      <trkpt lat="47.53624" lon="-2.74699">
        <ele>19.6</ele>
        <time>2026-08-29T12:06:09Z</time>
      </trkpt>
      <trkpt lat="47.53622" lon="-2.74702">
        <ele>19.6</ele>
        <time>2026-08-29T12:06:10Z</time>
      </trkpt>
      <trkpt lat="47.53619" lon="-2.74705">
        <ele>19.6</ele>
        <time>2026-08-29T12:06:11Z</time>
      </trkpt>
      <trkpt lat="47.53617" lon="-2.74709">
        <ele>19.6</ele>
        <time>2026-08-29T12:06:12Z</time>
      </trkpt>
      <trkpt lat="47.53615" lon="-2.74713">
        <ele>19.7</ele>
        <time>2026-08-29T12:06:13Z</time>
      </trkpt>
      <trkpt lat="47.53613" lon="-2.74717">
        <ele>19.8</ele>
        <time>2026-08-29T12:06:14Z</time>
      </trkpt>
      <trkpt lat="47.53611" lon="-2.74721">
        <ele>20</ele>
        <time>2026-08-29T12:06:15Z</time>
      </trkpt>
      <trkpt lat="47.53609" lon="-2.74725">
        <ele>19.9</ele>
        <time>2026-08-29T12:06:16Z</time>
      </trkpt>
      <trkpt lat="47.53607" lon="-2.74729">
        <ele>19.9</ele>
        <time>2026-08-29T12:06:17Z</time>
      </trkpt>
      <trkpt lat="47.53606" lon="-2.74733">
        <ele>19.8</ele>
        <time>2026-08-29T12:06:18Z</time>
      </trkpt>
      <trkpt lat="47.53604" lon="-2.74737">
        <ele>19.7</ele>
        <time>2026-08-29T12:06:19Z</time>
      </trkpt>
      <trkpt lat="47.53602" lon="-2.74741">
        <ele>19.7</ele>
        <time>2026-08-29T12:06:20Z</time>
      </trkpt>
      <trkpt lat="47.53601" lon="-2.74745">
        <ele>19.6</ele>
        <time>2026-08-29T12:06:21Z</time>
      </trkpt>
      <trkpt lat="47.53599" lon="-2.74749">
        <ele>19.6</ele>
        <time>2026-08-29T12:06:22Z</time>
      </trkpt>
      <trkpt lat="47.53597" lon="-2.74753">
        <ele>19.5</ele>
        <time>2026-08-29T12:06:23Z</time>
      </trkpt>
      <trkpt lat="47.53596" lon="-2.74757">
        <ele>19.6</ele>
        <time>2026-08-29T12:06:24Z</time>
      </trkpt>
      <trkpt lat="47.53594" lon="-2.74761">
        <ele>19.6</ele>
        <time>2026-08-29T12:06:25Z</time>
      </trkpt>
      <trkpt lat="47.53592" lon="-2.74765">
        <ele>19.7</ele>
        <time>2026-08-29T12:06:26Z</time>
      </trkpt>
      <trkpt lat="47.5359" lon="-2.74769">
        <ele>19.8</ele>
        <time>2026-08-29T12:06:27Z</time>
      </trkpt>
      <trkpt lat="47.53589" lon="-2.74773">
        <ele>19.9</ele>
        <time>2026-08-29T12:06:28Z</time>
      </trkpt>
      <trkpt lat="47.53587" lon="-2.74778">
        <ele>20</ele>
        <time>2026-08-29T12:06:29Z</time>
      </trkpt>
      <trkpt lat="47.53586" lon="-2.74782">
        <ele>20.2</ele>
        <time>2026-08-29T12:06:30Z</time>
      </trkpt>
      <trkpt lat="47.53584" lon="-2.74786">
        <ele>20.3</ele>
        <time>2026-08-29T12:06:31Z</time>
      </trkpt>
      <trkpt lat="47.53583" lon="-2.74791">
        <ele>20.5</ele>
        <time>2026-08-29T12:06:32Z</time>
      </trkpt>
      <trkpt lat="47.53581" lon="-2.74794">
        <ele>20.5</ele>
        <time>2026-08-29T12:06:33Z</time>
      </trkpt>
      <trkpt lat="47.5358" lon="-2.74799">
        <ele>20.6</ele>
        <time>2026-08-29T12:06:34Z</time>
      </trkpt>
      <trkpt lat="47.53578" lon="-2.74803">
        <ele>20.7</ele>
        <time>2026-08-29T12:06:35Z</time>
      </trkpt>
      <trkpt lat="47.53577" lon="-2.74807">
        <ele>20.8</ele>
        <time>2026-08-29T12:06:36Z</time>
      </trkpt>
      <trkpt lat="47.53576" lon="-2.74812">
        <ele>20.7</ele>
        <time>2026-08-29T12:06:37Z</time>
      </trkpt>
      <trkpt lat="47.53574" lon="-2.74816">
        <ele>20.7</ele>
        <time>2026-08-29T12:06:38Z</time>
      </trkpt>
      <trkpt lat="47.53573" lon="-2.74821">
        <ele>20.6</ele>
        <time>2026-08-29T12:06:39Z</time>
      </trkpt>
      <trkpt lat="47.53572" lon="-2.74826">
        <ele>20.6</ele>
        <time>2026-08-29T12:06:40Z</time>
      </trkpt>
      <trkpt lat="47.5357" lon="-2.7483">
        <ele>20.5</ele>
        <time>2026-08-29T12:06:41Z</time>
      </trkpt>
      <trkpt lat="47.53569" lon="-2.74834">
        <ele>20.5</ele>
        <time>2026-08-29T12:06:42Z</time>
      </trkpt>
      <trkpt lat="47.53567" lon="-2.74839">
        <ele>20.6</ele>
        <time>2026-08-29T12:06:43Z</time>
      </trkpt>
      <trkpt lat="47.53566" lon="-2.74844">
        <ele>20.8</ele>
        <time>2026-08-29T12:06:44Z</time>
      </trkpt>
      <trkpt lat="47.53564" lon="-2.74848">
        <ele>20.8</ele>
        <time>2026-08-29T12:06:45Z</time>
      </trkpt>
      <trkpt lat="47.53563" lon="-2.74852">
        <ele>20.9</ele>
        <time>2026-08-29T12:06:46Z</time>
      </trkpt>
      <trkpt lat="47.53562" lon="-2.74857">
        <ele>21.1</ele>
        <time>2026-08-29T12:06:47Z</time>
      </trkpt>
      <trkpt lat="47.5356" lon="-2.74861">
        <ele>21.2</ele>
        <time>2026-08-29T12:06:48Z</time>
      </trkpt>
      <trkpt lat="47.53559" lon="-2.74866">
        <ele>21.1</ele>
        <time>2026-08-29T12:06:49Z</time>
      </trkpt>
      <trkpt lat="47.53557" lon="-2.7487">
        <ele>21.1</ele>
        <time>2026-08-29T12:06:50Z</time>
      </trkpt>
      <trkpt lat="47.53556" lon="-2.74875">
        <ele>21</ele>
        <time>2026-08-29T12:06:51Z</time>
      </trkpt>
      <trkpt lat="47.53555" lon="-2.7488">
        <ele>21</ele>
        <time>2026-08-29T12:06:52Z</time>
      </trkpt>
      <trkpt lat="47.53554" lon="-2.74885">
        <ele>20.9</ele>
        <time>2026-08-29T12:06:53Z</time>
      </trkpt>
      <trkpt lat="47.53552" lon="-2.7489">
        <ele>20.9</ele>
        <time>2026-08-29T12:06:54Z</time>
      </trkpt>
      <trkpt lat="47.53551" lon="-2.74894">
        <ele>20.8</ele>
        <time>2026-08-29T12:06:55Z</time>
      </trkpt>
      <trkpt lat="47.5355" lon="-2.74899">
        <ele>20.8</ele>
        <time>2026-08-29T12:06:56Z</time>
      </trkpt>
      <trkpt lat="47.53549" lon="-2.74904">
        <ele>20.8</ele>
        <time>2026-08-29T12:06:57Z</time>
      </trkpt>
      <trkpt lat="47.53548" lon="-2.74909">
        <ele>20.7</ele>
        <time>2026-08-29T12:06:58Z</time>
      </trkpt>
      <trkpt lat="47.53547" lon="-2.74913">
        <ele>20.7</ele>
        <time>2026-08-29T12:06:59Z</time>
      </trkpt>
      <trkpt lat="47.53546" lon="-2.74918">
        <ele>20.7</ele>
        <time>2026-08-29T12:07:00Z</time>
      </trkpt>
      <trkpt lat="47.53545" lon="-2.74923">
        <ele>20.6</ele>
        <time>2026-08-29T12:07:01Z</time>
      </trkpt>
      <trkpt lat="47.53544" lon="-2.74928">
        <ele>20.6</ele>
        <time>2026-08-29T12:07:02Z</time>
      </trkpt>
      <trkpt lat="47.53542" lon="-2.74934">
        <ele>20.5</ele>
        <time>2026-08-29T12:07:03Z</time>
      </trkpt>
      <trkpt lat="47.53541" lon="-2.74938">
        <ele>20.5</ele>
        <time>2026-08-29T12:07:04Z</time>
      </trkpt>
      <trkpt lat="47.5354" lon="-2.74943">
        <ele>20.4</ele>
        <time>2026-08-29T12:07:05Z</time>
      </trkpt>
      <trkpt lat="47.53539" lon="-2.74949">
        <ele>20.4</ele>
        <time>2026-08-29T12:07:06Z</time>
      </trkpt>
      <trkpt lat="47.53538" lon="-2.74954">
        <ele>20.4</ele>
        <time>2026-08-29T12:07:07Z</time>
      </trkpt>
      <trkpt lat="47.53537" lon="-2.7496">
        <ele>20.3</ele>
        <time>2026-08-29T12:07:08Z</time>
      </trkpt>
      <trkpt lat="47.53536" lon="-2.74965">
        <ele>20.3</ele>
        <time>2026-08-29T12:07:09Z</time>
      </trkpt>
      <trkpt lat="47.53535" lon="-2.74971">
        <ele>20.3</ele>
        <time>2026-08-29T12:07:10Z</time>
      </trkpt>
      <trkpt lat="47.53534" lon="-2.74977">
        <ele>20.3</ele>
        <time>2026-08-29T12:07:11Z</time>
      </trkpt>
      <trkpt lat="47.53533" lon="-2.74982">
        <ele>20.4</ele>
        <time>2026-08-29T12:07:12Z</time>
      </trkpt>
      <trkpt lat="47.53532" lon="-2.74988">
        <ele>20.5</ele>
        <time>2026-08-29T12:07:13Z</time>
      </trkpt>
      <trkpt lat="47.53531" lon="-2.74994">
        <ele>20.7</ele>
        <time>2026-08-29T12:07:14Z</time>
      </trkpt>
      <trkpt lat="47.53529" lon="-2.75">
        <ele>21</ele>
        <time>2026-08-29T12:07:15Z</time>
      </trkpt>
      <trkpt lat="47.53528" lon="-2.75005">
        <ele>21</ele>
        <time>2026-08-29T12:07:16Z</time>
      </trkpt>
      <trkpt lat="47.53527" lon="-2.7501">
        <ele>21</ele>
        <time>2026-08-29T12:07:17Z</time>
      </trkpt>
      <trkpt lat="47.53526" lon="-2.75015">
        <ele>20.9</ele>
        <time>2026-08-29T12:07:18Z</time>
      </trkpt>
      <trkpt lat="47.53525" lon="-2.7502">
        <ele>20.9</ele>
        <time>2026-08-29T12:07:19Z</time>
      </trkpt>
      <trkpt lat="47.53523" lon="-2.75026">
        <ele>20.8</ele>
        <time>2026-08-29T12:07:20Z</time>
      </trkpt>
      <trkpt lat="47.53522" lon="-2.75031">
        <ele>20.8</ele>
        <time>2026-08-29T12:07:21Z</time>
      </trkpt>
      <trkpt lat="47.5352" lon="-2.75036">
        <ele>20.7</ele>
        <time>2026-08-29T12:07:22Z</time>
      </trkpt>
      <trkpt lat="47.53519" lon="-2.75041">
        <ele>20.7</ele>
        <time>2026-08-29T12:07:23Z</time>
      </trkpt>
      <trkpt lat="47.53517" lon="-2.75046">
        <ele>20.6</ele>
        <time>2026-08-29T12:07:24Z</time>
      </trkpt>
      <trkpt lat="47.53516" lon="-2.75051">
        <ele>20.6</ele>
        <time>2026-08-29T12:07:25Z</time>
      </trkpt>
      <trkpt lat="47.53515" lon="-2.75056">
        <ele>20.5</ele>
        <time>2026-08-29T12:07:26Z</time>
      </trkpt>
      <trkpt lat="47.53514" lon="-2.75061">
        <ele>20.5</ele>
        <time>2026-08-29T12:07:27Z</time>
      </trkpt>
      <trkpt lat="47.53513" lon="-2.75066">
        <ele>20.5</ele>
        <time>2026-08-29T12:07:28Z</time>
      </trkpt>
      <trkpt lat="47.53512" lon="-2.7507">
        <ele>20.4</ele>
        <time>2026-08-29T12:07:29Z</time>
      </trkpt>
      <trkpt lat="47.5351" lon="-2.75074">
        <ele>20.4</ele>
        <time>2026-08-29T12:07:30Z</time>
      </trkpt>
      <trkpt lat="47.53508" lon="-2.75078">
        <ele>20.3</ele>
        <time>2026-08-29T12:07:31Z</time>
      </trkpt>
      <trkpt lat="47.53505" lon="-2.75083">
        <ele>20.2</ele>
        <time>2026-08-29T12:07:32Z</time>
      </trkpt>
      <trkpt lat="47.53503" lon="-2.75088">
        <ele>20.3</ele>
        <time>2026-08-29T12:07:33Z</time>
      </trkpt>
      <trkpt lat="47.53502" lon="-2.75092">
        <ele>20.4</ele>
        <time>2026-08-29T12:07:34Z</time>
      </trkpt>
      <trkpt lat="47.535" lon="-2.75097">
        <ele>20.5</ele>
        <time>2026-08-29T12:07:35Z</time>
      </trkpt>
      <trkpt lat="47.53499" lon="-2.75103">
        <ele>20.7</ele>
        <time>2026-08-29T12:07:36Z</time>
      </trkpt>
      <trkpt lat="47.53497" lon="-2.75108">
        <ele>20.8</ele>
        <time>2026-08-29T12:07:37Z</time>
      </trkpt>
      <trkpt lat="47.53495" lon="-2.75113">
        <ele>20.8</ele>
        <time>2026-08-29T12:07:38Z</time>
      </trkpt>
      <trkpt lat="47.53494" lon="-2.75118">
        <ele>20.8</ele>
        <time>2026-08-29T12:07:39Z</time>
      </trkpt>
      <trkpt lat="47.53492" lon="-2.75123">
        <ele>20.7</ele>
        <time>2026-08-29T12:07:40Z</time>
      </trkpt>
      <trkpt lat="47.53491" lon="-2.75128">
        <ele>20.7</ele>
        <time>2026-08-29T12:07:41Z</time>
      </trkpt>
      <trkpt lat="47.53489" lon="-2.75133">
        <ele>20.6</ele>
        <time>2026-08-29T12:07:42Z</time>
      </trkpt>
      <trkpt lat="47.53488" lon="-2.75138">
        <ele>20.6</ele>
        <time>2026-08-29T12:07:43Z</time>
      </trkpt>
      <trkpt lat="47.53486" lon="-2.75143">
        <ele>20.6</ele>
        <time>2026-08-29T12:07:44Z</time>
      </trkpt>
      <trkpt lat="47.53485" lon="-2.75147">
        <ele>20.6</ele>
        <time>2026-08-29T12:07:45Z</time>
      </trkpt>
      <trkpt lat="47.53483" lon="-2.75152">
        <ele>20.7</ele>
        <time>2026-08-29T12:07:46Z</time>
      </trkpt>
      <trkpt lat="47.53481" lon="-2.75157">
        <ele>20.8</ele>
        <time>2026-08-29T12:07:47Z</time>
      </trkpt>
      <trkpt lat="47.5348" lon="-2.75163">
        <ele>20.9</ele>
        <time>2026-08-29T12:07:48Z</time>
      </trkpt>
      <trkpt lat="47.53478" lon="-2.75168">
        <ele>21</ele>
        <time>2026-08-29T12:07:49Z</time>
      </trkpt>
      <trkpt lat="47.53476" lon="-2.75173">
        <ele>21</ele>
        <time>2026-08-29T12:07:50Z</time>
      </trkpt>
      <trkpt lat="47.53475" lon="-2.75179">
        <ele>21</ele>
        <time>2026-08-29T12:07:51Z</time>
      </trkpt>
      <trkpt lat="47.53473" lon="-2.75184">
        <ele>21</ele>
        <time>2026-08-29T12:07:52Z</time>
      </trkpt>
      <trkpt lat="47.53471" lon="-2.75189">
        <ele>21</ele>
        <time>2026-08-29T12:07:53Z</time>
      </trkpt>
      <trkpt lat="47.53468" lon="-2.75194">
        <ele>20.8</ele>
        <time>2026-08-29T12:07:54Z</time>
      </trkpt>
      <trkpt lat="47.53466" lon="-2.75199">
        <ele>20.6</ele>
        <time>2026-08-29T12:07:55Z</time>
      </trkpt>
      <trkpt lat="47.53463" lon="-2.75204">
        <ele>20.4</ele>
        <time>2026-08-29T12:07:56Z</time>
      </trkpt>
      <trkpt lat="47.53461" lon="-2.75208">
        <ele>20.3</ele>
        <time>2026-08-29T12:07:57Z</time>
      </trkpt>
      <trkpt lat="47.53458" lon="-2.75214">
        <ele>20.1</ele>
        <time>2026-08-29T12:07:58Z</time>
      </trkpt>
      <trkpt lat="47.53455" lon="-2.75219">
        <ele>20</ele>
        <time>2026-08-29T12:07:59Z</time>
      </trkpt>
      <trkpt lat="47.53452" lon="-2.75224">
        <ele>20</ele>
        <time>2026-08-29T12:08:00Z</time>
      </trkpt>
      <trkpt lat="47.5345" lon="-2.75229">
        <ele>20</ele>
        <time>2026-08-29T12:08:01Z</time>
      </trkpt>
      <trkpt lat="47.53447" lon="-2.75235">
        <ele>20</ele>
        <time>2026-08-29T12:08:02Z</time>
      </trkpt>
      <trkpt lat="47.53444" lon="-2.7524">
        <ele>20</ele>
        <time>2026-08-29T12:08:03Z</time>
      </trkpt>
      <trkpt lat="47.53441" lon="-2.75245">
        <ele>20</ele>
        <time>2026-08-29T12:08:04Z</time>
      </trkpt>
      <trkpt lat="47.53438" lon="-2.7525">
        <ele>20</ele>
        <time>2026-08-29T12:08:05Z</time>
      </trkpt>
      <trkpt lat="47.53436" lon="-2.75256">
        <ele>20</ele>
        <time>2026-08-29T12:08:06Z</time>
      </trkpt>
      <trkpt lat="47.53433" lon="-2.75261">
        <ele>20</ele>
        <time>2026-08-29T12:08:07Z</time>
      </trkpt>
      <trkpt lat="47.5343" lon="-2.75267">
        <ele>20</ele>
        <time>2026-08-29T12:08:08Z</time>
      </trkpt>
      <trkpt lat="47.53427" lon="-2.75272">
        <ele>20</ele>
        <time>2026-08-29T12:08:09Z</time>
      </trkpt>
      <trkpt lat="47.53424" lon="-2.75277">
        <ele>20</ele>
        <time>2026-08-29T12:08:10Z</time>
      </trkpt>
      <trkpt lat="47.53422" lon="-2.75283">
        <ele>19.8</ele>
        <time>2026-08-29T12:08:11Z</time>
      </trkpt>
      <trkpt lat="47.53419" lon="-2.75288">
        <ele>19.6</ele>
        <time>2026-08-29T12:08:12Z</time>
      </trkpt>
      <trkpt lat="47.53416" lon="-2.75294">
        <ele>19.4</ele>
        <time>2026-08-29T12:08:13Z</time>
      </trkpt>
      <trkpt lat="47.53413" lon="-2.75299">
        <ele>19.2</ele>
        <time>2026-08-29T12:08:14Z</time>
      </trkpt>
      <trkpt lat="47.5341" lon="-2.75304">
        <ele>19</ele>
        <time>2026-08-29T12:08:15Z</time>
      </trkpt>
      <trkpt lat="47.53406" lon="-2.75309">
        <ele>19</ele>
        <time>2026-08-29T12:08:16Z</time>
      </trkpt>
      <trkpt lat="47.53403" lon="-2.75315">
        <ele>19</ele>
        <time>2026-08-29T12:08:17Z</time>
      </trkpt>
      <trkpt lat="47.534" lon="-2.7532">
        <ele>19</ele>
        <time>2026-08-29T12:08:18Z</time>
      </trkpt>
      <trkpt lat="47.53397" lon="-2.75325">
        <ele>19</ele>
        <time>2026-08-29T12:08:19Z</time>
      </trkpt>
      <trkpt lat="47.53394" lon="-2.75331">
        <ele>19</ele>
        <time>2026-08-29T12:08:20Z</time>
      </trkpt>
      <trkpt lat="47.53391" lon="-2.75336">
        <ele>19</ele>
        <time>2026-08-29T12:08:21Z</time>
      </trkpt>
      <trkpt lat="47.53388" lon="-2.75341">
        <ele>19</ele>
        <time>2026-08-29T12:08:22Z</time>
      </trkpt>
      <trkpt lat="47.53384" lon="-2.75346">
        <ele>18.9</ele>
        <time>2026-08-29T12:08:23Z</time>
      </trkpt>
      <trkpt lat="47.53381" lon="-2.75351">
        <ele>18.8</ele>
        <time>2026-08-29T12:08:24Z</time>
      </trkpt>
      <trkpt lat="47.53377" lon="-2.75356">
        <ele>18.7</ele>
        <time>2026-08-29T12:08:25Z</time>
      </trkpt>
      <trkpt lat="47.53374" lon="-2.75361">
        <ele>18.5</ele>
        <time>2026-08-29T12:08:26Z</time>
      </trkpt>
      <trkpt lat="47.5337" lon="-2.75366">
        <ele>18.3</ele>
        <time>2026-08-29T12:08:27Z</time>
      </trkpt>
      <trkpt lat="47.53367" lon="-2.75371">
        <ele>18.1</ele>
        <time>2026-08-29T12:08:28Z</time>
      </trkpt>
      <trkpt lat="47.53363" lon="-2.75375">
        <ele>18</ele>
        <time>2026-08-29T12:08:29Z</time>
      </trkpt>
      <trkpt lat="47.5336" lon="-2.7538">
        <ele>18</ele>
        <time>2026-08-29T12:08:30Z</time>
      </trkpt>
      <trkpt lat="47.53357" lon="-2.75385">
        <ele>18.1</ele>
        <time>2026-08-29T12:08:31Z</time>
      </trkpt>
      <trkpt lat="47.53354" lon="-2.75389">
        <ele>18.3</ele>
        <time>2026-08-29T12:08:32Z</time>
      </trkpt>
      <trkpt lat="47.53353" lon="-2.75393">
        <ele>18.2</ele>
        <time>2026-08-29T12:08:33Z</time>
      </trkpt>
      <trkpt lat="47.53352" lon="-2.75396">
        <ele>18.2</ele>
        <time>2026-08-29T12:08:34Z</time>
      </trkpt>
      <trkpt lat="47.53353" lon="-2.75399">
        <ele>18.2</ele>
        <time>2026-08-29T12:08:35Z</time>
      </trkpt>
      <trkpt lat="47.53355" lon="-2.754">
        <ele>18.1</ele>
        <time>2026-08-29T12:08:36Z</time>
      </trkpt>
      <trkpt lat="47.53358" lon="-2.75402">
        <ele>18.1</ele>
        <time>2026-08-29T12:08:37Z</time>
      </trkpt>
      <trkpt lat="47.53361" lon="-2.75403">
        <ele>18</ele>
        <time>2026-08-29T12:08:38Z</time>
      </trkpt>
      <trkpt lat="47.53364" lon="-2.75405">
        <ele>17.9</ele>
        <time>2026-08-29T12:08:39Z</time>
      </trkpt>
      <trkpt lat="47.53368" lon="-2.75407">
        <ele>17.8</ele>
        <time>2026-08-29T12:08:40Z</time>
      </trkpt>
      <trkpt lat="47.53372" lon="-2.7541">
        <ele>17.7</ele>
        <time>2026-08-29T12:08:41Z</time>
      </trkpt>
      <trkpt lat="47.53376" lon="-2.75414">
        <ele>17.5</ele>
        <time>2026-08-29T12:08:42Z</time>
      </trkpt>
      <trkpt lat="47.5338" lon="-2.75418">
        <ele>17.3</ele>
        <time>2026-08-29T12:08:43Z</time>
      </trkpt>
      <trkpt lat="47.53383" lon="-2.75423">
        <ele>17</ele>
        <time>2026-08-29T12:08:44Z</time>
      </trkpt>
      <trkpt lat="47.53387" lon="-2.75429">
        <ele>16.6</ele>
        <time>2026-08-29T12:08:45Z</time>
      </trkpt>
      <trkpt lat="47.53391" lon="-2.75435">
        <ele>16.3</ele>
        <time>2026-08-29T12:08:46Z</time>
      </trkpt>
      <trkpt lat="47.53395" lon="-2.75441">
        <ele>15.9</ele>
        <time>2026-08-29T12:08:47Z</time>
      </trkpt>
      <trkpt lat="47.53398" lon="-2.75447">
        <ele>15.7</ele>
        <time>2026-08-29T12:08:48Z</time>
      </trkpt>
      <trkpt lat="47.53402" lon="-2.75453">
        <ele>15.5</ele>
        <time>2026-08-29T12:08:49Z</time>
      </trkpt>
      <trkpt lat="47.53406" lon="-2.75459">
        <ele>15.4</ele>
        <time>2026-08-29T12:08:50Z</time>
      </trkpt>
      <trkpt lat="47.5341" lon="-2.75466">
        <ele>15.2</ele>
        <time>2026-08-29T12:08:51Z</time>
      </trkpt>
      <trkpt lat="47.53415" lon="-2.75474">
        <ele>15</ele>
        <time>2026-08-29T12:08:52Z</time>
      </trkpt>
      <trkpt lat="47.53419" lon="-2.75482">
        <ele>14.6</ele>
        <time>2026-08-29T12:08:53Z</time>
      </trkpt>
      <trkpt lat="47.53423" lon="-2.75489">
        <ele>14.3</ele>
        <time>2026-08-29T12:08:54Z</time>
      </trkpt>
      <trkpt lat="47.53427" lon="-2.75497">
        <ele>14.1</ele>
        <time>2026-08-29T12:08:55Z</time>
      </trkpt>
      <trkpt lat="47.53432" lon="-2.75505">
        <ele>14</ele>
        <time>2026-08-29T12:08:56Z</time>
      </trkpt>
      <trkpt lat="47.53436" lon="-2.75512">
        <ele>14</ele>
        <time>2026-08-29T12:08:57Z</time>
      </trkpt>
      <trkpt lat="47.53441" lon="-2.75519">
        <ele>14</ele>
        <time>2026-08-29T12:08:58Z</time>
      </trkpt>
      <trkpt lat="47.53445" lon="-2.75526">
        <ele>14</ele>
        <time>2026-08-29T12:08:59Z</time>
      </trkpt>
      <trkpt lat="47.53448" lon="-2.75532">
        <ele>14</ele>
        <time>2026-08-29T12:09:00Z</time>
      </trkpt>
      <trkpt lat="47.53452" lon="-2.75539">
        <ele>14</ele>
        <time>2026-08-29T12:09:01Z</time>
      </trkpt>
      <trkpt lat="47.53455" lon="-2.75546">
        <ele>14</ele>
        <time>2026-08-29T12:09:02Z</time>
      </trkpt>
      <trkpt lat="47.53459" lon="-2.75553">
        <ele>14</ele>
        <time>2026-08-29T12:09:03Z</time>
      </trkpt>
      <trkpt lat="47.53463" lon="-2.75559">
        <ele>14</ele>
        <time>2026-08-29T12:09:04Z</time>
      </trkpt>
      <trkpt lat="47.53467" lon="-2.75564">
        <ele>14</ele>
        <time>2026-08-29T12:09:05Z</time>
      </trkpt>
      <trkpt lat="47.5347" lon="-2.7557">
        <ele>14</ele>
        <time>2026-08-29T12:09:06Z</time>
      </trkpt>
      <trkpt lat="47.53473" lon="-2.75575">
        <ele>14</ele>
        <time>2026-08-29T12:09:07Z</time>
      </trkpt>
      <trkpt lat="47.53477" lon="-2.7558">
        <ele>14.2</ele>
        <time>2026-08-29T12:09:08Z</time>
      </trkpt>
      <trkpt lat="47.53479" lon="-2.75584">
        <ele>14.3</ele>
        <time>2026-08-29T12:09:09Z</time>
      </trkpt>
      <trkpt lat="47.53482" lon="-2.7559">
        <ele>14.5</ele>
        <time>2026-08-29T12:09:10Z</time>
      </trkpt>
      <trkpt lat="47.53485" lon="-2.75596">
        <ele>14.7</ele>
        <time>2026-08-29T12:09:11Z</time>
      </trkpt>
      <trkpt lat="47.53487" lon="-2.75602">
        <ele>14.8</ele>
        <time>2026-08-29T12:09:12Z</time>
      </trkpt>
      <trkpt lat="47.53488" lon="-2.75608">
        <ele>15</ele>
        <time>2026-08-29T12:09:13Z</time>
      </trkpt>
      <trkpt lat="47.53489" lon="-2.75614">
        <ele>15</ele>
        <time>2026-08-29T12:09:14Z</time>
      </trkpt>
      <trkpt lat="47.53489" lon="-2.7562">
        <ele>15</ele>
        <time>2026-08-29T12:09:15Z</time>
      </trkpt>
      <trkpt lat="47.53489" lon="-2.75626">
        <ele>15</ele>
        <time>2026-08-29T12:09:16Z</time>
      </trkpt>
      <trkpt lat="47.53489" lon="-2.75631">
        <ele>15</ele>
        <time>2026-08-29T12:09:17Z</time>
      </trkpt>
      <trkpt lat="47.53488" lon="-2.75636">
        <ele>15</ele>
        <time>2026-08-29T12:09:18Z</time>
      </trkpt>
      <trkpt lat="47.53487" lon="-2.75642">
        <ele>15</ele>
        <time>2026-08-29T12:09:19Z</time>
      </trkpt>
      <trkpt lat="47.53486" lon="-2.75647">
        <ele>15</ele>
        <time>2026-08-29T12:09:20Z</time>
      </trkpt>
      <trkpt lat="47.53485" lon="-2.75652">
        <ele>15</ele>
        <time>2026-08-29T12:09:21Z</time>
      </trkpt>
      <trkpt lat="47.53483" lon="-2.75658">
        <ele>15</ele>
        <time>2026-08-29T12:09:22Z</time>
      </trkpt>
      <trkpt lat="47.53482" lon="-2.75664">
        <ele>15</ele>
        <time>2026-08-29T12:09:23Z</time>
      </trkpt>
      <trkpt lat="47.5348" lon="-2.7567">
        <ele>15</ele>
        <time>2026-08-29T12:09:24Z</time>
      </trkpt>
      <trkpt lat="47.53479" lon="-2.75676">
        <ele>14.9</ele>
        <time>2026-08-29T12:09:25Z</time>
      </trkpt>
      <trkpt lat="47.53477" lon="-2.75682">
        <ele>14.9</ele>
        <time>2026-08-29T12:09:26Z</time>
      </trkpt>
      <trkpt lat="47.53475" lon="-2.75689">
        <ele>14.9</ele>
        <time>2026-08-29T12:09:27Z</time>
      </trkpt>
      <trkpt lat="47.53473" lon="-2.75695">
        <ele>15</ele>
        <time>2026-08-29T12:09:28Z</time>
      </trkpt>
      <trkpt lat="47.53471" lon="-2.757">
        <ele>15</ele>
        <time>2026-08-29T12:09:29Z</time>
      </trkpt>
      <trkpt lat="47.5347" lon="-2.75706">
        <ele>15</ele>
        <time>2026-08-29T12:09:30Z</time>
      </trkpt>
      <trkpt lat="47.53468" lon="-2.75712">
        <ele>15</ele>
        <time>2026-08-29T12:09:31Z</time>
      </trkpt>
      <trkpt lat="47.53467" lon="-2.75718">
        <ele>15</ele>
        <time>2026-08-29T12:09:32Z</time>
      </trkpt>
      <trkpt lat="47.53467" lon="-2.75723">
        <ele>15</ele>
        <time>2026-08-29T12:09:33Z</time>
      </trkpt>
      <trkpt lat="47.53468" lon="-2.75727">
        <ele>14.9</ele>
        <time>2026-08-29T12:09:34Z</time>
      </trkpt>
      <trkpt lat="47.5347" lon="-2.7573">
        <ele>14.7</ele>
        <time>2026-08-29T12:09:35Z</time>
      </trkpt>
      <trkpt lat="47.53473" lon="-2.75732">
        <ele>14.6</ele>
        <time>2026-08-29T12:09:36Z</time>
      </trkpt>
      <trkpt lat="47.53475" lon="-2.75736">
        <ele>14.5</ele>
        <time>2026-08-29T12:09:37Z</time>
      </trkpt>
      <trkpt lat="47.53479" lon="-2.75739">
        <ele>14.3</ele>
        <time>2026-08-29T12:09:38Z</time>
      </trkpt>
      <trkpt lat="47.53482" lon="-2.75742">
        <ele>14.2</ele>
        <time>2026-08-29T12:09:39Z</time>
      </trkpt>
      <trkpt lat="47.53486" lon="-2.75745">
        <ele>14.1</ele>
        <time>2026-08-29T12:09:40Z</time>
      </trkpt>
      <trkpt lat="47.53489" lon="-2.75749">
        <ele>14</ele>
        <time>2026-08-29T12:09:41Z</time>
      </trkpt>
      <trkpt lat="47.53492" lon="-2.75753">
        <ele>14</ele>
        <time>2026-08-29T12:09:42Z</time>
      </trkpt>
      <trkpt lat="47.53495" lon="-2.75758">
        <ele>14</ele>
        <time>2026-08-29T12:09:43Z</time>
      </trkpt>
      <trkpt lat="47.53498" lon="-2.75764">
        <ele>14</ele>
        <time>2026-08-29T12:09:44Z</time>
      </trkpt>
      <trkpt lat="47.53501" lon="-2.7577">
        <ele>14</ele>
        <time>2026-08-29T12:09:45Z</time>
      </trkpt>
      <trkpt lat="47.53503" lon="-2.75777">
        <ele>13.9</ele>
        <time>2026-08-29T12:09:46Z</time>
      </trkpt>
      <trkpt lat="47.53505" lon="-2.75784">
        <ele>13.6</ele>
        <time>2026-08-29T12:09:47Z</time>
      </trkpt>
      <trkpt lat="47.53507" lon="-2.75791">
        <ele>13.4</ele>
        <time>2026-08-29T12:09:48Z</time>
      </trkpt>
      <trkpt lat="47.53508" lon="-2.75798">
        <ele>13.2</ele>
        <time>2026-08-29T12:09:49Z</time>
      </trkpt>
      <trkpt lat="47.5351" lon="-2.75806">
        <ele>13</ele>
        <time>2026-08-29T12:09:50Z</time>
      </trkpt>
      <trkpt lat="47.53511" lon="-2.75813">
        <ele>13</ele>
        <time>2026-08-29T12:09:51Z</time>
      </trkpt>
      <trkpt lat="47.53512" lon="-2.7582">
        <ele>13</ele>
        <time>2026-08-29T12:09:52Z</time>
      </trkpt>
      <trkpt lat="47.53514" lon="-2.75828">
        <ele>13</ele>
        <time>2026-08-29T12:09:53Z</time>
      </trkpt>
      <trkpt lat="47.53515" lon="-2.75835">
        <ele>13</ele>
        <time>2026-08-29T12:09:54Z</time>
      </trkpt>
      <trkpt lat="47.53516" lon="-2.75843">
        <ele>12.8</ele>
        <time>2026-08-29T12:09:55Z</time>
      </trkpt>
      <trkpt lat="47.53517" lon="-2.7585">
        <ele>12.6</ele>
        <time>2026-08-29T12:09:56Z</time>
      </trkpt>
      <trkpt lat="47.53519" lon="-2.75857">
        <ele>12.4</ele>
        <time>2026-08-29T12:09:57Z</time>
      </trkpt>
      <trkpt lat="47.53521" lon="-2.75865">
        <ele>12.2</ele>
        <time>2026-08-29T12:09:58Z</time>
      </trkpt>
      <trkpt lat="47.53522" lon="-2.75872">
        <ele>12.1</ele>
        <time>2026-08-29T12:09:59Z</time>
      </trkpt>
      <trkpt lat="47.53523" lon="-2.75879">
        <ele>12.1</ele>
        <time>2026-08-29T12:10:00Z</time>
      </trkpt>
      <trkpt lat="47.53525" lon="-2.75886">
        <ele>12</ele>
        <time>2026-08-29T12:10:01Z</time>
      </trkpt>
      <trkpt lat="47.53527" lon="-2.75893">
        <ele>12</ele>
        <time>2026-08-29T12:10:02Z</time>
      </trkpt>
      <trkpt lat="47.53529" lon="-2.759">
        <ele>12</ele>
        <time>2026-08-29T12:10:03Z</time>
      </trkpt>
      <trkpt lat="47.53531" lon="-2.75907">
        <ele>12</ele>
        <time>2026-08-29T12:10:04Z</time>
      </trkpt>
      <trkpt lat="47.53533" lon="-2.75914">
        <ele>12</ele>
        <time>2026-08-29T12:10:05Z</time>
      </trkpt>
      <trkpt lat="47.53535" lon="-2.75921">
        <ele>11.8</ele>
        <time>2026-08-29T12:10:06Z</time>
      </trkpt>
      <trkpt lat="47.53537" lon="-2.75929">
        <ele>11.6</ele>
        <time>2026-08-29T12:10:07Z</time>
      </trkpt>
      <trkpt lat="47.53538" lon="-2.75935">
        <ele>11.3</ele>
        <time>2026-08-29T12:10:08Z</time>
      </trkpt>
      <trkpt lat="47.53539" lon="-2.75942">
        <ele>11.1</ele>
        <time>2026-08-29T12:10:09Z</time>
      </trkpt>
      <trkpt lat="47.5354" lon="-2.75949">
        <ele>11.1</ele>
        <time>2026-08-29T12:10:10Z</time>
      </trkpt>
      <trkpt lat="47.53541" lon="-2.75957">
        <ele>11.2</ele>
        <time>2026-08-29T12:10:11Z</time>
      </trkpt>
      <trkpt lat="47.53541" lon="-2.75964">
        <ele>11.4</ele>
        <time>2026-08-29T12:10:12Z</time>
      </trkpt>
      <trkpt lat="47.53541" lon="-2.75971">
        <ele>11.5</ele>
        <time>2026-08-29T12:10:13Z</time>
      </trkpt>
      <trkpt lat="47.53541" lon="-2.75977">
        <ele>11.5</ele>
        <time>2026-08-29T12:10:14Z</time>
      </trkpt>
      <trkpt lat="47.53541" lon="-2.75983">
        <ele>11.5</ele>
        <time>2026-08-29T12:10:15Z</time>
      </trkpt>
      <trkpt lat="47.5354" lon="-2.75991">
        <ele>11.6</ele>
        <time>2026-08-29T12:10:16Z</time>
      </trkpt>
      <trkpt lat="47.53539" lon="-2.75996">
        <ele>11.6</ele>
        <time>2026-08-29T12:10:17Z</time>
      </trkpt>
      <trkpt lat="47.53539" lon="-2.76001">
        <ele>11.6</ele>
        <time>2026-08-29T12:10:18Z</time>
      </trkpt>
      <trkpt lat="47.53539" lon="-2.76006">
        <ele>11.8</ele>
        <time>2026-08-29T12:10:19Z</time>
      </trkpt>
      <trkpt lat="47.53538" lon="-2.76011">
        <ele>12</ele>
        <time>2026-08-29T12:10:20Z</time>
      </trkpt>
      <trkpt lat="47.53537" lon="-2.76016">
        <ele>12.2</ele>
        <time>2026-08-29T12:10:21Z</time>
      </trkpt>
      <trkpt lat="47.53536" lon="-2.76022">
        <ele>12.5</ele>
        <time>2026-08-29T12:10:22Z</time>
      </trkpt>
      <trkpt lat="47.53536" lon="-2.76028">
        <ele>12.7</ele>
        <time>2026-08-29T12:10:23Z</time>
      </trkpt>
      <trkpt lat="47.53535" lon="-2.76034">
        <ele>12.8</ele>
        <time>2026-08-29T12:10:24Z</time>
      </trkpt>
      <trkpt lat="47.53534" lon="-2.76039">
        <ele>12.9</ele>
        <time>2026-08-29T12:10:25Z</time>
      </trkpt>
      <trkpt lat="47.53533" lon="-2.76045">
        <ele>12.9</ele>
        <time>2026-08-29T12:10:26Z</time>
      </trkpt>
      <trkpt lat="47.53532" lon="-2.7605">
        <ele>13</ele>
        <time>2026-08-29T12:10:27Z</time>
      </trkpt>
      <trkpt lat="47.53532" lon="-2.76055">
        <ele>13</ele>
        <time>2026-08-29T12:10:28Z</time>
      </trkpt>
      <trkpt lat="47.53531" lon="-2.76061">
        <ele>13.2</ele>
        <time>2026-08-29T12:10:29Z</time>
      </trkpt>
      <trkpt lat="47.5353" lon="-2.76066">
        <ele>13.3</ele>
        <time>2026-08-29T12:10:30Z</time>
      </trkpt>
      <trkpt lat="47.5353" lon="-2.76071">
        <ele>13.5</ele>
        <time>2026-08-29T12:10:31Z</time>
      </trkpt>
      <trkpt lat="47.53529" lon="-2.76076">
        <ele>13.7</ele>
        <time>2026-08-29T12:10:32Z</time>
      </trkpt>
      <trkpt lat="47.53529" lon="-2.76081">
        <ele>13.9</ele>
        <time>2026-08-29T12:10:33Z</time>
      </trkpt>
      <trkpt lat="47.53528" lon="-2.76085">
        <ele>14</ele>
        <time>2026-08-29T12:10:34Z</time>
      </trkpt>
      <trkpt lat="47.53528" lon="-2.76089">
        <ele>14</ele>
        <time>2026-08-29T12:10:35Z</time>
      </trkpt>
      <trkpt lat="47.53527" lon="-2.76095">
        <ele>14</ele>
        <time>2026-08-29T12:10:36Z</time>
      </trkpt>
      <trkpt lat="47.53527" lon="-2.76099">
        <ele>14</ele>
        <time>2026-08-29T12:10:37Z</time>
      </trkpt>
      <trkpt lat="47.53527" lon="-2.76104">
        <ele>14</ele>
        <time>2026-08-29T12:10:38Z</time>
      </trkpt>
      <trkpt lat="47.53527" lon="-2.76109">
        <ele>14</ele>
        <time>2026-08-29T12:10:39Z</time>
      </trkpt>
      <trkpt lat="47.53527" lon="-2.76113">
        <ele>13.9</ele>
        <time>2026-08-29T12:10:40Z</time>
      </trkpt>
      <trkpt lat="47.53527" lon="-2.76119">
        <ele>13.7</ele>
        <time>2026-08-29T12:10:41Z</time>
      </trkpt>
      <trkpt lat="47.53527" lon="-2.76126">
        <ele>13.5</ele>
        <time>2026-08-29T12:10:42Z</time>
      </trkpt>
      <trkpt lat="47.53527" lon="-2.76132">
        <ele>13.2</ele>
        <time>2026-08-29T12:10:43Z</time>
      </trkpt>
      <trkpt lat="47.53529" lon="-2.76137">
        <ele>13.1</ele>
        <time>2026-08-29T12:10:44Z</time>
      </trkpt>
      <trkpt lat="47.53531" lon="-2.76142">
        <ele>12.9</ele>
        <time>2026-08-29T12:10:45Z</time>
      </trkpt>
      <trkpt lat="47.53533" lon="-2.76148">
        <ele>12.6</ele>
        <time>2026-08-29T12:10:46Z</time>
      </trkpt>
      <trkpt lat="47.53535" lon="-2.76153">
        <ele>12.4</ele>
        <time>2026-08-29T12:10:47Z</time>
      </trkpt>
      <trkpt lat="47.53537" lon="-2.76158">
        <ele>12.1</ele>
        <time>2026-08-29T12:10:48Z</time>
      </trkpt>
      <trkpt lat="47.53538" lon="-2.76165">
        <ele>11.7</ele>
        <time>2026-08-29T12:10:49Z</time>
      </trkpt>
      <trkpt lat="47.53538" lon="-2.76174">
        <ele>11.4</ele>
        <time>2026-08-29T12:10:50Z</time>
      </trkpt>
      <trkpt lat="47.53538" lon="-2.76182">
        <ele>11.1</ele>
        <time>2026-08-29T12:10:51Z</time>
      </trkpt>
      <trkpt lat="47.53535" lon="-2.7619">
        <ele>10.9</ele>
        <time>2026-08-29T12:10:52Z</time>
      </trkpt>
      <trkpt lat="47.53532" lon="-2.762">
        <ele>10.6</ele>
        <time>2026-08-29T12:10:53Z</time>
      </trkpt>
      <trkpt lat="47.5353" lon="-2.7621">
        <ele>10.3</ele>
        <time>2026-08-29T12:10:54Z</time>
      </trkpt>
      <trkpt lat="47.53528" lon="-2.76218">
        <ele>10.1</ele>
        <time>2026-08-29T12:10:55Z</time>
      </trkpt>
      <trkpt lat="47.53526" lon="-2.76227">
        <ele>9.9</ele>
        <time>2026-08-29T12:10:56Z</time>
      </trkpt>
      <trkpt lat="47.53524" lon="-2.76235">
        <ele>9.7</ele>
        <time>2026-08-29T12:10:57Z</time>
      </trkpt>
      <trkpt lat="47.53523" lon="-2.76244">
        <ele>9.5</ele>
        <time>2026-08-29T12:10:58Z</time>
      </trkpt>
      <trkpt lat="47.53522" lon="-2.76254">
        <ele>9.3</ele>
        <time>2026-08-29T12:10:59Z</time>
      </trkpt>
      <trkpt lat="47.53522" lon="-2.76263">
        <ele>8.9</ele>
        <time>2026-08-29T12:11:00Z</time>
      </trkpt>
      <trkpt lat="47.5352" lon="-2.76273">
        <ele>8.7</ele>
        <time>2026-08-29T12:11:01Z</time>
      </trkpt>
      <trkpt lat="47.5352" lon="-2.76282">
        <ele>8.6</ele>
        <time>2026-08-29T12:11:02Z</time>
      </trkpt>
      <trkpt lat="47.5352" lon="-2.76291">
        <ele>8.6</ele>
        <time>2026-08-29T12:11:03Z</time>
      </trkpt>
      <trkpt lat="47.53519" lon="-2.76301">
        <ele>8.6</ele>
        <time>2026-08-29T12:11:04Z</time>
      </trkpt>
      <trkpt lat="47.53518" lon="-2.76312">
        <ele>8.5</ele>
        <time>2026-08-29T12:11:05Z</time>
      </trkpt>
      <trkpt lat="47.53519" lon="-2.76322">
        <ele>8</ele>
        <time>2026-08-29T12:11:06Z</time>
      </trkpt>
      <trkpt lat="47.53518" lon="-2.76331">
        <ele>7.8</ele>
        <time>2026-08-29T12:11:07Z</time>
      </trkpt>
      <trkpt lat="47.53517" lon="-2.76339">
        <ele>7.8</ele>
        <time>2026-08-29T12:11:08Z</time>
      </trkpt>
      <trkpt lat="47.53516" lon="-2.76343">
        <ele>7.8</ele>
        <time>2026-08-29T12:11:09Z</time>
      </trkpt>
      <trkpt lat="47.53516" lon="-2.7635">
        <ele>7.8</ele>
        <time>2026-08-29T12:11:10Z</time>
      </trkpt>
      <trkpt lat="47.53515" lon="-2.76357">
        <ele>7.9</ele>
        <time>2026-08-29T12:11:11Z</time>
      </trkpt>
      <trkpt lat="47.53515" lon="-2.76365">
        <ele>7.8</ele>
        <time>2026-08-29T12:11:12Z</time>
      </trkpt>
      <trkpt lat="47.53514" lon="-2.76372">
        <ele>7.6</ele>
        <time>2026-08-29T12:11:13Z</time>
      </trkpt>
      <trkpt lat="47.53514" lon="-2.76379">
        <ele>7.3</ele>
        <time>2026-08-29T12:11:14Z</time>
      </trkpt>
      <trkpt lat="47.53514" lon="-2.76388">
        <ele>7</ele>
        <time>2026-08-29T12:11:15Z</time>
      </trkpt>
      <trkpt lat="47.53513" lon="-2.76397">
        <ele>6.8</ele>
        <time>2026-08-29T12:11:16Z</time>
      </trkpt>
      <trkpt lat="47.53512" lon="-2.76409">
        <ele>6.4</ele>
        <time>2026-08-29T12:11:17Z</time>
      </trkpt>
      <trkpt lat="47.5351" lon="-2.76418">
        <ele>6.2</ele>
        <time>2026-08-29T12:11:18Z</time>
      </trkpt>
      <trkpt lat="47.53508" lon="-2.76426">
        <ele>6.1</ele>
        <time>2026-08-29T12:11:19Z</time>
      </trkpt>
      <trkpt lat="47.53507" lon="-2.76435">
        <ele>5.8</ele>
        <time>2026-08-29T12:11:20Z</time>
      </trkpt>
      <trkpt lat="47.53506" lon="-2.76443">
        <ele>5.6</ele>
        <time>2026-08-29T12:11:21Z</time>
      </trkpt>
      <trkpt lat="47.53504" lon="-2.76451">
        <ele>5.7</ele>
        <time>2026-08-29T12:11:22Z</time>
      </trkpt>
      <trkpt lat="47.53503" lon="-2.76458">
        <ele>5.8</ele>
        <time>2026-08-29T12:11:23Z</time>
      </trkpt>
      <trkpt lat="47.53501" lon="-2.76465">
        <ele>6</ele>
        <time>2026-08-29T12:11:24Z</time>
      </trkpt>
      <trkpt lat="47.535" lon="-2.76473">
        <ele>6</ele>
        <time>2026-08-29T12:11:25Z</time>
      </trkpt>
      <trkpt lat="47.53499" lon="-2.7648">
        <ele>5.7</ele>
        <time>2026-08-29T12:11:26Z</time>
      </trkpt>
      <trkpt lat="47.53498" lon="-2.76486">
        <ele>5.5</ele>
        <time>2026-08-29T12:11:27Z</time>
      </trkpt>
      <trkpt lat="47.53497" lon="-2.76493">
        <ele>5.3</ele>
        <time>2026-08-29T12:11:28Z</time>
      </trkpt>
      <trkpt lat="47.53496" lon="-2.765">
        <ele>5.1</ele>
        <time>2026-08-29T12:11:29Z</time>
      </trkpt>
      <trkpt lat="47.53494" lon="-2.76507">
        <ele>5.2</ele>
        <time>2026-08-29T12:11:30Z</time>
      </trkpt>
      <trkpt lat="47.53494" lon="-2.76514">
        <ele>5.2</ele>
        <time>2026-08-29T12:11:31Z</time>
      </trkpt>
      <trkpt lat="47.53493" lon="-2.76521">
        <ele>5.3</ele>
        <time>2026-08-29T12:11:32Z</time>
      </trkpt>
      <trkpt lat="47.53493" lon="-2.76529">
        <ele>5.3</ele>
        <time>2026-08-29T12:11:33Z</time>
      </trkpt>
      <trkpt lat="47.53492" lon="-2.76536">
        <ele>5.3</ele>
        <time>2026-08-29T12:11:34Z</time>
      </trkpt>
      <trkpt lat="47.53492" lon="-2.76543">
        <ele>5.3</ele>
        <time>2026-08-29T12:11:35Z</time>
      </trkpt>
      <trkpt lat="47.53493" lon="-2.76551">
        <ele>5.3</ele>
        <time>2026-08-29T12:11:36Z</time>
      </trkpt>
      <trkpt lat="47.53493" lon="-2.76559">
        <ele>5.1</ele>
        <time>2026-08-29T12:11:37Z</time>
      </trkpt>
      <trkpt lat="47.53493" lon="-2.76566">
        <ele>4.9</ele>
        <time>2026-08-29T12:11:38Z</time>
      </trkpt>
      <trkpt lat="47.53492" lon="-2.76574">
        <ele>4.6</ele>
        <time>2026-08-29T12:11:39Z</time>
      </trkpt>
      <trkpt lat="47.53492" lon="-2.76582">
        <ele>4.3</ele>
        <time>2026-08-29T12:11:40Z</time>
      </trkpt>
      <trkpt lat="47.53492" lon="-2.76589">
        <ele>4.2</ele>
        <time>2026-08-29T12:11:41Z</time>
      </trkpt>
      <trkpt lat="47.53491" lon="-2.76596">
        <ele>4.2</ele>
        <time>2026-08-29T12:11:42Z</time>
      </trkpt>
      <trkpt lat="47.5349" lon="-2.76603">
        <ele>4.1</ele>
        <time>2026-08-29T12:11:43Z</time>
      </trkpt>
      <trkpt lat="47.53489" lon="-2.7661">
        <ele>4</ele>
        <time>2026-08-29T12:11:44Z</time>
      </trkpt>
      <trkpt lat="47.53489" lon="-2.76618">
        <ele>4</ele>
        <time>2026-08-29T12:11:45Z</time>
      </trkpt>
      <trkpt lat="47.53489" lon="-2.76625">
        <ele>4</ele>
        <time>2026-08-29T12:11:46Z</time>
      </trkpt>
      <trkpt lat="47.5349" lon="-2.76633">
        <ele>4</ele>
        <time>2026-08-29T12:11:47Z</time>
      </trkpt>
      <trkpt lat="47.5349" lon="-2.7664">
        <ele>4</ele>
        <time>2026-08-29T12:11:48Z</time>
      </trkpt>
      <trkpt lat="47.53491" lon="-2.76647">
        <ele>4</ele>
        <time>2026-08-29T12:11:49Z</time>
      </trkpt>
      <trkpt lat="47.53492" lon="-2.76654">
        <ele>4</ele>
        <time>2026-08-29T12:11:50Z</time>
      </trkpt>
      <trkpt lat="47.53492" lon="-2.76661">
        <ele>4</ele>
        <time>2026-08-29T12:11:51Z</time>
      </trkpt>
      <trkpt lat="47.53494" lon="-2.76669">
        <ele>4</ele>
        <time>2026-08-29T12:11:52Z</time>
      </trkpt>
      <trkpt lat="47.53495" lon="-2.76676">
        <ele>4</ele>
        <time>2026-08-29T12:11:53Z</time>
      </trkpt>
      <trkpt lat="47.53496" lon="-2.76683">
        <ele>4</ele>
        <time>2026-08-29T12:11:54Z</time>
      </trkpt>
      <trkpt lat="47.53498" lon="-2.76691">
        <ele>4</ele>
        <time>2026-08-29T12:11:55Z</time>
      </trkpt>
      <trkpt lat="47.53499" lon="-2.76698">
        <ele>4</ele>
        <time>2026-08-29T12:11:56Z</time>
      </trkpt>
      <trkpt lat="47.535" lon="-2.76705">
        <ele>4</ele>
        <time>2026-08-29T12:11:57Z</time>
      </trkpt>
      <trkpt lat="47.53502" lon="-2.7671">
        <ele>4</ele>
        <time>2026-08-29T12:11:58Z</time>
      </trkpt>
      <trkpt lat="47.53503" lon="-2.76716">
        <ele>4</ele>
        <time>2026-08-29T12:11:59Z</time>
      </trkpt>
      <trkpt lat="47.53504" lon="-2.76721">
        <ele>4</ele>
        <time>2026-08-29T12:12:00Z</time>
      </trkpt>
      <trkpt lat="47.53506" lon="-2.76728">
        <ele>4.2</ele>
        <time>2026-08-29T12:12:01Z</time>
      </trkpt>
      <trkpt lat="47.53507" lon="-2.76735">
        <ele>4.3</ele>
        <time>2026-08-29T12:12:02Z</time>
      </trkpt>
      <trkpt lat="47.53508" lon="-2.76743">
        <ele>4.5</ele>
        <time>2026-08-29T12:12:03Z</time>
      </trkpt>
      <trkpt lat="47.53509" lon="-2.7675">
        <ele>4.7</ele>
        <time>2026-08-29T12:12:04Z</time>
      </trkpt>
      <trkpt lat="47.53511" lon="-2.76756">
        <ele>4.5</ele>
        <time>2026-08-29T12:12:05Z</time>
      </trkpt>
      <trkpt lat="47.53512" lon="-2.76763">
        <ele>4.4</ele>
        <time>2026-08-29T12:12:06Z</time>
      </trkpt>
      <trkpt lat="47.53513" lon="-2.7677">
        <ele>4.2</ele>
        <time>2026-08-29T12:12:07Z</time>
      </trkpt>
      <trkpt lat="47.53513" lon="-2.76777">
        <ele>4.1</ele>
        <time>2026-08-29T12:12:08Z</time>
      </trkpt>
      <trkpt lat="47.53514" lon="-2.76784">
        <ele>3.9</ele>
        <time>2026-08-29T12:12:09Z</time>
      </trkpt>
      <trkpt lat="47.53515" lon="-2.76789">
        <ele>3.7</ele>
        <time>2026-08-29T12:12:10Z</time>
      </trkpt>
      <trkpt lat="47.53515" lon="-2.76795">
        <ele>3.6</ele>
        <time>2026-08-29T12:12:11Z</time>
      </trkpt>
      <trkpt lat="47.53516" lon="-2.768">
        <ele>3.5</ele>
        <time>2026-08-29T12:12:12Z</time>
      </trkpt>
      <trkpt lat="47.53516" lon="-2.76806">
        <ele>3.4</ele>
        <time>2026-08-29T12:12:13Z</time>
      </trkpt>
      <trkpt lat="47.53516" lon="-2.76812">
        <ele>3.3</ele>
        <time>2026-08-29T12:12:14Z</time>
      </trkpt>
      <trkpt lat="47.53516" lon="-2.76819">
        <ele>3.2</ele>
        <time>2026-08-29T12:12:15Z</time>
      </trkpt>
      <trkpt lat="47.53515" lon="-2.76825">
        <ele>3.1</ele>
        <time>2026-08-29T12:12:16Z</time>
      </trkpt>
      <trkpt lat="47.53515" lon="-2.76832">
        <ele>3</ele>
        <time>2026-08-29T12:12:17Z</time>
      </trkpt>
      <trkpt lat="47.53514" lon="-2.76838">
        <ele>2.8</ele>
        <time>2026-08-29T12:12:18Z</time>
      </trkpt>
      <trkpt lat="47.53513" lon="-2.76845">
        <ele>2.6</ele>
        <time>2026-08-29T12:12:19Z</time>
      </trkpt>
      <trkpt lat="47.53513" lon="-2.76851">
        <ele>2.4</ele>
        <time>2026-08-29T12:12:20Z</time>
      </trkpt>
      <trkpt lat="47.53513" lon="-2.76856">
        <ele>2.2</ele>
        <time>2026-08-29T12:12:21Z</time>
      </trkpt>
      <trkpt lat="47.53513" lon="-2.76861">
        <ele>2</ele>
        <time>2026-08-29T12:12:22Z</time>
      </trkpt>
      <trkpt lat="47.53514" lon="-2.76866">
        <ele>2.1</ele>
        <time>2026-08-29T12:12:23Z</time>
      </trkpt>
      <trkpt lat="47.53514" lon="-2.76873">
        <ele>2.2</ele>
        <time>2026-08-29T12:12:24Z</time>
      </trkpt>
      <trkpt lat="47.53514" lon="-2.7688">
        <ele>2.3</ele>
        <time>2026-08-29T12:12:25Z</time>
      </trkpt>
      <trkpt lat="47.53515" lon="-2.76886">
        <ele>2.4</ele>
        <time>2026-08-29T12:12:26Z</time>
      </trkpt>
      <trkpt lat="47.53515" lon="-2.76892">
        <ele>2.5</ele>
        <time>2026-08-29T12:12:27Z</time>
      </trkpt>
      <trkpt lat="47.53516" lon="-2.76898">
        <ele>2.6</ele>
        <time>2026-08-29T12:12:28Z</time>
      </trkpt>
      <trkpt lat="47.53516" lon="-2.76904">
        <ele>2.7</ele>
        <time>2026-08-29T12:12:29Z</time>
      </trkpt>
      <trkpt lat="47.53516" lon="-2.76911">
        <ele>2.9</ele>
        <time>2026-08-29T12:12:30Z</time>
      </trkpt>
      <trkpt lat="47.53516" lon="-2.76916">
        <ele>3</ele>
        <time>2026-08-29T12:12:31Z</time>
      </trkpt>
      <trkpt lat="47.53516" lon="-2.76922">
        <ele>3</ele>
        <time>2026-08-29T12:12:32Z</time>
      </trkpt>
      <trkpt lat="47.53516" lon="-2.76928">
        <ele>3</ele>
        <time>2026-08-29T12:12:33Z</time>
      </trkpt>
      <trkpt lat="47.53515" lon="-2.76934">
        <ele>3</ele>
        <time>2026-08-29T12:12:34Z</time>
      </trkpt>
      <trkpt lat="47.53515" lon="-2.7694">
        <ele>3</ele>
        <time>2026-08-29T12:12:35Z</time>
      </trkpt>
      <trkpt lat="47.53515" lon="-2.76946">
        <ele>3</ele>
        <time>2026-08-29T12:12:36Z</time>
      </trkpt>
      <trkpt lat="47.53515" lon="-2.76952">
        <ele>3.1</ele>
        <time>2026-08-29T12:12:37Z</time>
      </trkpt>
      <trkpt lat="47.53516" lon="-2.76958">
        <ele>3.3</ele>
        <time>2026-08-29T12:12:38Z</time>
      </trkpt>
      <trkpt lat="47.53516" lon="-2.76964">
        <ele>3.4</ele>
        <time>2026-08-29T12:12:39Z</time>
      </trkpt>
      <trkpt lat="47.53516" lon="-2.76971">
        <ele>3.6</ele>
        <time>2026-08-29T12:12:40Z</time>
      </trkpt>
      <trkpt lat="47.53516" lon="-2.76977">
        <ele>3.6</ele>
        <time>2026-08-29T12:12:41Z</time>
      </trkpt>
      <trkpt lat="47.53516" lon="-2.76983">
        <ele>3.7</ele>
        <time>2026-08-29T12:12:42Z</time>
      </trkpt>
      <trkpt lat="47.53516" lon="-2.76989">
        <ele>3.8</ele>
        <time>2026-08-29T12:12:43Z</time>
      </trkpt>
      <trkpt lat="47.53516" lon="-2.76994">
        <ele>3.9</ele>
        <time>2026-08-29T12:12:44Z</time>
      </trkpt>
      <trkpt lat="47.53516" lon="-2.77">
        <ele>4</ele>
        <time>2026-08-29T12:12:45Z</time>
      </trkpt>
      <trkpt lat="47.53516" lon="-2.77005">
        <ele>4</ele>
        <time>2026-08-29T12:12:46Z</time>
      </trkpt>
      <trkpt lat="47.53515" lon="-2.77011">
        <ele>4</ele>
        <time>2026-08-29T12:12:47Z</time>
      </trkpt>
      <trkpt lat="47.53515" lon="-2.77016">
        <ele>4</ele>
        <time>2026-08-29T12:12:48Z</time>
      </trkpt>
      <trkpt lat="47.53514" lon="-2.77022">
        <ele>4</ele>
        <time>2026-08-29T12:12:49Z</time>
      </trkpt>
      <trkpt lat="47.53514" lon="-2.77028">
        <ele>4</ele>
        <time>2026-08-29T12:12:50Z</time>
      </trkpt>
      <trkpt lat="47.53513" lon="-2.77033">
        <ele>4.1</ele>
        <time>2026-08-29T12:12:51Z</time>
      </trkpt>
      <trkpt lat="47.53511" lon="-2.77039">
        <ele>4.2</ele>
        <time>2026-08-29T12:12:52Z</time>
      </trkpt>
      <trkpt lat="47.5351" lon="-2.77044">
        <ele>4.4</ele>
        <time>2026-08-29T12:12:53Z</time>
      </trkpt>
      <trkpt lat="47.53509" lon="-2.77049">
        <ele>4.5</ele>
        <time>2026-08-29T12:12:54Z</time>
      </trkpt>
      <trkpt lat="47.53507" lon="-2.77054">
        <ele>4.7</ele>
        <time>2026-08-29T12:12:55Z</time>
      </trkpt>
      <trkpt lat="47.53506" lon="-2.7706">
        <ele>4.8</ele>
        <time>2026-08-29T12:12:56Z</time>
      </trkpt>
      <trkpt lat="47.53505" lon="-2.77065">
        <ele>4.8</ele>
        <time>2026-08-29T12:12:57Z</time>
      </trkpt>
      <trkpt lat="47.53503" lon="-2.7707">
        <ele>4.9</ele>
        <time>2026-08-29T12:12:58Z</time>
      </trkpt>
      <trkpt lat="47.53502" lon="-2.77075">
        <ele>4.9</ele>
        <time>2026-08-29T12:12:59Z</time>
      </trkpt>
      <trkpt lat="47.535" lon="-2.7708">
        <ele>5</ele>
        <time>2026-08-29T12:13:00Z</time>
      </trkpt>
      <trkpt lat="47.53498" lon="-2.77085">
        <ele>4.9</ele>
        <time>2026-08-29T12:13:01Z</time>
      </trkpt>
      <trkpt lat="47.53497" lon="-2.7709">
        <ele>4.9</ele>
        <time>2026-08-29T12:13:02Z</time>
      </trkpt>
      <trkpt lat="47.53495" lon="-2.77095">
        <ele>4.8</ele>
        <time>2026-08-29T12:13:03Z</time>
      </trkpt>
      <trkpt lat="47.53493" lon="-2.771">
        <ele>4.7</ele>
        <time>2026-08-29T12:13:04Z</time>
      </trkpt>
      <trkpt lat="47.53491" lon="-2.77106">
        <ele>4.7</ele>
        <time>2026-08-29T12:13:05Z</time>
      </trkpt>
      <trkpt lat="47.53489" lon="-2.77111">
        <ele>4.6</ele>
        <time>2026-08-29T12:13:06Z</time>
      </trkpt>
      <trkpt lat="47.53488" lon="-2.77117">
        <ele>4.7</ele>
        <time>2026-08-29T12:13:07Z</time>
      </trkpt>
      <trkpt lat="47.53487" lon="-2.77123">
        <ele>4.8</ele>
        <time>2026-08-29T12:13:08Z</time>
      </trkpt>
      <trkpt lat="47.53486" lon="-2.77129">
        <ele>4.8</ele>
        <time>2026-08-29T12:13:09Z</time>
      </trkpt>
      <trkpt lat="47.53485" lon="-2.77135">
        <ele>4.9</ele>
        <time>2026-08-29T12:13:10Z</time>
      </trkpt>
      <trkpt lat="47.53484" lon="-2.77141">
        <ele>4.9</ele>
        <time>2026-08-29T12:13:11Z</time>
      </trkpt>
      <trkpt lat="47.53482" lon="-2.77147">
        <ele>4.9</ele>
        <time>2026-08-29T12:13:12Z</time>
      </trkpt>
      <trkpt lat="47.53481" lon="-2.77153">
        <ele>5</ele>
        <time>2026-08-29T12:13:13Z</time>
      </trkpt>
      <trkpt lat="47.53481" lon="-2.77158">
        <ele>5.1</ele>
        <time>2026-08-29T12:13:14Z</time>
      </trkpt>
      <trkpt lat="47.5348" lon="-2.77164">
        <ele>5.2</ele>
        <time>2026-08-29T12:13:15Z</time>
      </trkpt>
      <trkpt lat="47.53479" lon="-2.7717">
        <ele>5.3</ele>
        <time>2026-08-29T12:13:16Z</time>
      </trkpt>
      <trkpt lat="47.53479" lon="-2.77176">
        <ele>5.3</ele>
        <time>2026-08-29T12:13:17Z</time>
      </trkpt>
      <trkpt lat="47.53478" lon="-2.77181">
        <ele>5.3</ele>
        <time>2026-08-29T12:13:18Z</time>
      </trkpt>
      <trkpt lat="47.53477" lon="-2.77187">
        <ele>5.3</ele>
        <time>2026-08-29T12:13:19Z</time>
      </trkpt>
      <trkpt lat="47.53477" lon="-2.77192">
        <ele>5.3</ele>
        <time>2026-08-29T12:13:20Z</time>
      </trkpt>
      <trkpt lat="47.53477" lon="-2.77197">
        <ele>5.4</ele>
        <time>2026-08-29T12:13:21Z</time>
      </trkpt>
      <trkpt lat="47.53476" lon="-2.77203">
        <ele>5.5</ele>
        <time>2026-08-29T12:13:22Z</time>
      </trkpt>
      <trkpt lat="47.53476" lon="-2.77208">
        <ele>5.7</ele>
        <time>2026-08-29T12:13:23Z</time>
      </trkpt>
      <trkpt lat="47.53475" lon="-2.77214">
        <ele>5.8</ele>
        <time>2026-08-29T12:13:24Z</time>
      </trkpt>
      <trkpt lat="47.53475" lon="-2.77219">
        <ele>6</ele>
        <time>2026-08-29T12:13:25Z</time>
      </trkpt>
      <trkpt lat="47.53475" lon="-2.77224">
        <ele>6.1</ele>
        <time>2026-08-29T12:13:26Z</time>
      </trkpt>
      <trkpt lat="47.53474" lon="-2.7723">
        <ele>6.1</ele>
        <time>2026-08-29T12:13:27Z</time>
      </trkpt>
      <trkpt lat="47.53474" lon="-2.77235">
        <ele>6.1</ele>
        <time>2026-08-29T12:13:28Z</time>
      </trkpt>
      <trkpt lat="47.53474" lon="-2.7724">
        <ele>6.1</ele>
        <time>2026-08-29T12:13:29Z</time>
      </trkpt>
      <trkpt lat="47.53474" lon="-2.77245">
        <ele>6.1</ele>
        <time>2026-08-29T12:13:30Z</time>
      </trkpt>
      <trkpt lat="47.53473" lon="-2.7725">
        <ele>6.1</ele>
        <time>2026-08-29T12:13:31Z</time>
      </trkpt>
      <trkpt lat="47.53473" lon="-2.77255">
        <ele>6.2</ele>
        <time>2026-08-29T12:13:32Z</time>
      </trkpt>
      <trkpt lat="47.53473" lon="-2.7726">
        <ele>6.4</ele>
        <time>2026-08-29T12:13:33Z</time>
      </trkpt>
      <trkpt lat="47.53472" lon="-2.77266">
        <ele>6.6</ele>
        <time>2026-08-29T12:13:34Z</time>
      </trkpt>
      <trkpt lat="47.53472" lon="-2.77271">
        <ele>6.7</ele>
        <time>2026-08-29T12:13:35Z</time>
      </trkpt>
      <trkpt lat="47.53472" lon="-2.77276">
        <ele>6.9</ele>
        <time>2026-08-29T12:13:36Z</time>
      </trkpt>
      <trkpt lat="47.53472" lon="-2.77282">
        <ele>7</ele>
        <time>2026-08-29T12:13:37Z</time>
      </trkpt>
      <trkpt lat="47.53471" lon="-2.77287">
        <ele>6.9</ele>
        <time>2026-08-29T12:13:38Z</time>
      </trkpt>
      <trkpt lat="47.53471" lon="-2.77292">
        <ele>6.9</ele>
        <time>2026-08-29T12:13:39Z</time>
      </trkpt>
      <trkpt lat="47.53471" lon="-2.77298">
        <ele>6.9</ele>
        <time>2026-08-29T12:13:40Z</time>
      </trkpt>
      <trkpt lat="47.53471" lon="-2.77303">
        <ele>7</ele>
        <time>2026-08-29T12:13:41Z</time>
      </trkpt>
      <trkpt lat="47.5347" lon="-2.77308">
        <ele>6.9</ele>
        <time>2026-08-29T12:13:42Z</time>
      </trkpt>
      <trkpt lat="47.5347" lon="-2.77313">
        <ele>6.9</ele>
        <time>2026-08-29T12:13:43Z</time>
      </trkpt>
      <trkpt lat="47.5347" lon="-2.77318">
        <ele>6.9</ele>
        <time>2026-08-29T12:13:44Z</time>
      </trkpt>
      <trkpt lat="47.53469" lon="-2.77323">
        <ele>6.9</ele>
        <time>2026-08-29T12:13:45Z</time>
      </trkpt>
      <trkpt lat="47.53469" lon="-2.77328">
        <ele>6.9</ele>
        <time>2026-08-29T12:13:46Z</time>
      </trkpt>
      <trkpt lat="47.53468" lon="-2.77334">
        <ele>6.9</ele>
        <time>2026-08-29T12:13:47Z</time>
      </trkpt>
      <trkpt lat="47.53468" lon="-2.77339">
        <ele>7</ele>
        <time>2026-08-29T12:13:48Z</time>
      </trkpt>
      <trkpt lat="47.53468" lon="-2.77344">
        <ele>7.2</ele>
        <time>2026-08-29T12:13:49Z</time>
      </trkpt>
      <trkpt lat="47.53468" lon="-2.7735">
        <ele>7.4</ele>
        <time>2026-08-29T12:13:50Z</time>
      </trkpt>
      <trkpt lat="47.53467" lon="-2.77355">
        <ele>7.4</ele>
        <time>2026-08-29T12:13:51Z</time>
      </trkpt>
      <trkpt lat="47.53467" lon="-2.7736">
        <ele>7.6</ele>
        <time>2026-08-29T12:13:52Z</time>
      </trkpt>
      <trkpt lat="47.53466" lon="-2.77365">
        <ele>7.6</ele>
        <time>2026-08-29T12:13:53Z</time>
      </trkpt>
      <trkpt lat="47.53466" lon="-2.7737">
        <ele>7.6</ele>
        <time>2026-08-29T12:13:54Z</time>
      </trkpt>
      <trkpt lat="47.53466" lon="-2.77375">
        <ele>7.6</ele>
        <time>2026-08-29T12:13:55Z</time>
      </trkpt>
      <trkpt lat="47.53465" lon="-2.7738">
        <ele>7.5</ele>
        <time>2026-08-29T12:13:56Z</time>
      </trkpt>
      <trkpt lat="47.53465" lon="-2.77385">
        <ele>7.5</ele>
        <time>2026-08-29T12:13:57Z</time>
      </trkpt>
      <trkpt lat="47.53465" lon="-2.7739">
        <ele>7.5</ele>
        <time>2026-08-29T12:13:58Z</time>
      </trkpt>
      <trkpt lat="47.53465" lon="-2.77395">
        <ele>7.7</ele>
        <time>2026-08-29T12:13:59Z</time>
      </trkpt>
      <trkpt lat="47.53464" lon="-2.774">
        <ele>7.8</ele>
        <time>2026-08-29T12:14:00Z</time>
      </trkpt>
      <trkpt lat="47.53464" lon="-2.77405">
        <ele>8</ele>
        <time>2026-08-29T12:14:01Z</time>
      </trkpt>
      <trkpt lat="47.53464" lon="-2.7741">
        <ele>8.2</ele>
        <time>2026-08-29T12:14:02Z</time>
      </trkpt>
      <trkpt lat="47.53463" lon="-2.77415">
        <ele>8.3</ele>
        <time>2026-08-29T12:14:03Z</time>
      </trkpt>
      <trkpt lat="47.53463" lon="-2.77421">
        <ele>8.3</ele>
        <time>2026-08-29T12:14:04Z</time>
      </trkpt>
      <trkpt lat="47.53463" lon="-2.77426">
        <ele>8.3</ele>
        <time>2026-08-29T12:14:05Z</time>
      </trkpt>
      <trkpt lat="47.53462" lon="-2.77431">
        <ele>8.3</ele>
        <time>2026-08-29T12:14:06Z</time>
      </trkpt>
      <trkpt lat="47.53462" lon="-2.77436">
        <ele>8.3</ele>
        <time>2026-08-29T12:14:07Z</time>
      </trkpt>
      <trkpt lat="47.53462" lon="-2.77441">
        <ele>8.3</ele>
        <time>2026-08-29T12:14:08Z</time>
      </trkpt>
      <trkpt lat="47.53461" lon="-2.77446">
        <ele>8.2</ele>
        <time>2026-08-29T12:14:09Z</time>
      </trkpt>
      <trkpt lat="47.53461" lon="-2.77451">
        <ele>8.4</ele>
        <time>2026-08-29T12:14:10Z</time>
      </trkpt>
      <trkpt lat="47.53461" lon="-2.77456">
        <ele>8.6</ele>
        <time>2026-08-29T12:14:11Z</time>
      </trkpt>
      <trkpt lat="47.53461" lon="-2.7746">
        <ele>8.8</ele>
        <time>2026-08-29T12:14:12Z</time>
      </trkpt>
      <trkpt lat="47.53461" lon="-2.77465">
        <ele>8.9</ele>
        <time>2026-08-29T12:14:13Z</time>
      </trkpt>
      <trkpt lat="47.5346" lon="-2.77469">
        <ele>9</ele>
        <time>2026-08-29T12:14:14Z</time>
      </trkpt>
      <trkpt lat="47.5346" lon="-2.77474">
        <ele>9.2</ele>
        <time>2026-08-29T12:14:15Z</time>
      </trkpt>
      <trkpt lat="47.53459" lon="-2.77479">
        <ele>9.2</ele>
        <time>2026-08-29T12:14:16Z</time>
      </trkpt>
      <trkpt lat="47.53459" lon="-2.77484">
        <ele>9.3</ele>
        <time>2026-08-29T12:14:17Z</time>
      </trkpt>
      <trkpt lat="47.53459" lon="-2.77488">
        <ele>9.3</ele>
        <time>2026-08-29T12:14:18Z</time>
      </trkpt>
      <trkpt lat="47.53458" lon="-2.77493">
        <ele>9.3</ele>
        <time>2026-08-29T12:14:19Z</time>
      </trkpt>
      <trkpt lat="47.53457" lon="-2.77498">
        <ele>9.3</ele>
        <time>2026-08-29T12:14:20Z</time>
      </trkpt>
      <trkpt lat="47.53457" lon="-2.77503">
        <ele>9.5</ele>
        <time>2026-08-29T12:14:21Z</time>
      </trkpt>
      <trkpt lat="47.53456" lon="-2.77508">
        <ele>9.5</ele>
        <time>2026-08-29T12:14:22Z</time>
      </trkpt>
      <trkpt lat="47.53455" lon="-2.77513">
        <ele>9.6</ele>
        <time>2026-08-29T12:14:23Z</time>
      </trkpt>
      <trkpt lat="47.53454" lon="-2.77518">
        <ele>9.7</ele>
        <time>2026-08-29T12:14:24Z</time>
      </trkpt>
      <trkpt lat="47.53453" lon="-2.77523">
        <ele>9.8</ele>
        <time>2026-08-29T12:14:25Z</time>
      </trkpt>
      <trkpt lat="47.53452" lon="-2.77528">
        <ele>9.8</ele>
        <time>2026-08-29T12:14:26Z</time>
      </trkpt>
      <trkpt lat="47.5345" lon="-2.77532">
        <ele>9.7</ele>
        <time>2026-08-29T12:14:27Z</time>
      </trkpt>
      <trkpt lat="47.53449" lon="-2.77537">
        <ele>9.8</ele>
        <time>2026-08-29T12:14:28Z</time>
      </trkpt>
      <trkpt lat="47.53448" lon="-2.77542">
        <ele>9.8</ele>
        <time>2026-08-29T12:14:29Z</time>
      </trkpt>
      <trkpt lat="47.53446" lon="-2.77547">
        <ele>9.8</ele>
        <time>2026-08-29T12:14:30Z</time>
      </trkpt>
      <trkpt lat="47.53444" lon="-2.77551">
        <ele>9.8</ele>
        <time>2026-08-29T12:14:31Z</time>
      </trkpt>
      <trkpt lat="47.53443" lon="-2.77555">
        <ele>9.9</ele>
        <time>2026-08-29T12:14:32Z</time>
      </trkpt>
      <trkpt lat="47.53441" lon="-2.7756">
        <ele>10.1</ele>
        <time>2026-08-29T12:14:33Z</time>
      </trkpt>
      <trkpt lat="47.53439" lon="-2.77565">
        <ele>10.2</ele>
        <time>2026-08-29T12:14:34Z</time>
      </trkpt>
      <trkpt lat="47.53437" lon="-2.77569">
        <ele>10.3</ele>
        <time>2026-08-29T12:14:35Z</time>
      </trkpt>
      <trkpt lat="47.53435" lon="-2.77574">
        <ele>10.4</ele>
        <time>2026-08-29T12:14:36Z</time>
      </trkpt>
      <trkpt lat="47.53433" lon="-2.77578">
        <ele>10.5</ele>
        <time>2026-08-29T12:14:37Z</time>
      </trkpt>
      <trkpt lat="47.53431" lon="-2.77582">
        <ele>10.5</ele>
        <time>2026-08-29T12:14:38Z</time>
      </trkpt>
      <trkpt lat="47.53429" lon="-2.77587">
        <ele>10.5</ele>
        <time>2026-08-29T12:14:39Z</time>
      </trkpt>
      <trkpt lat="47.53427" lon="-2.77592">
        <ele>10.4</ele>
        <time>2026-08-29T12:14:40Z</time>
      </trkpt>
      <trkpt lat="47.53425" lon="-2.77597">
        <ele>10.4</ele>
        <time>2026-08-29T12:14:41Z</time>
      </trkpt>
      <trkpt lat="47.53423" lon="-2.77601">
        <ele>10.3</ele>
        <time>2026-08-29T12:14:42Z</time>
      </trkpt>
      <trkpt lat="47.5342" lon="-2.77606">
        <ele>10.2</ele>
        <time>2026-08-29T12:14:43Z</time>
      </trkpt>
      <trkpt lat="47.53418" lon="-2.77611">
        <ele>10.1</ele>
        <time>2026-08-29T12:14:44Z</time>
      </trkpt>
      <trkpt lat="47.53416" lon="-2.77616">
        <ele>10.1</ele>
        <time>2026-08-29T12:14:45Z</time>
      </trkpt>
      <trkpt lat="47.53413" lon="-2.77621">
        <ele>10</ele>
        <time>2026-08-29T12:14:46Z</time>
      </trkpt>
      <trkpt lat="47.53411" lon="-2.77626">
        <ele>10</ele>
        <time>2026-08-29T12:14:47Z</time>
      </trkpt>
      <trkpt lat="47.53409" lon="-2.77631">
        <ele>10</ele>
        <time>2026-08-29T12:14:48Z</time>
      </trkpt>
      <trkpt lat="47.53406" lon="-2.77635">
        <ele>9.8</ele>
        <time>2026-08-29T12:14:49Z</time>
      </trkpt>
      <trkpt lat="47.53404" lon="-2.7764">
        <ele>9.7</ele>
        <time>2026-08-29T12:14:50Z</time>
      </trkpt>
      <trkpt lat="47.53401" lon="-2.77644">
        <ele>9.5</ele>
        <time>2026-08-29T12:14:51Z</time>
      </trkpt>
      <trkpt lat="47.53399" lon="-2.77649">
        <ele>9.5</ele>
        <time>2026-08-29T12:14:52Z</time>
      </trkpt>
      <trkpt lat="47.53397" lon="-2.77654">
        <ele>9.4</ele>
        <time>2026-08-29T12:14:53Z</time>
      </trkpt>
      <trkpt lat="47.53397" lon="-2.77659">
        <ele>9.6</ele>
        <time>2026-08-29T12:14:54Z</time>
      </trkpt>
      <trkpt lat="47.53397" lon="-2.77664">
        <ele>9.8</ele>
        <time>2026-08-29T12:14:55Z</time>
      </trkpt>
      <trkpt lat="47.53398" lon="-2.77669">
        <ele>10</ele>
        <time>2026-08-29T12:14:56Z</time>
      </trkpt>
      <trkpt lat="47.53398" lon="-2.77673">
        <ele>9.9</ele>
        <time>2026-08-29T12:14:57Z</time>
      </trkpt>
      <trkpt lat="47.53398" lon="-2.77677">
        <ele>9.9</ele>
        <time>2026-08-29T12:14:58Z</time>
      </trkpt>
      <trkpt lat="47.53398" lon="-2.77682">
        <ele>9.8</ele>
        <time>2026-08-29T12:14:59Z</time>
      </trkpt>
      <trkpt lat="47.53397" lon="-2.77687">
        <ele>9.7</ele>
        <time>2026-08-29T12:15:00Z</time>
      </trkpt>
      <trkpt lat="47.53396" lon="-2.77691">
        <ele>9.5</ele>
        <time>2026-08-29T12:15:01Z</time>
      </trkpt>
      <trkpt lat="47.53396" lon="-2.77696">
        <ele>9.6</ele>
        <time>2026-08-29T12:15:02Z</time>
      </trkpt>
      <trkpt lat="47.53395" lon="-2.777">
        <ele>9.7</ele>
        <time>2026-08-29T12:15:03Z</time>
      </trkpt>
      <trkpt lat="47.53394" lon="-2.77704">
        <ele>9.8</ele>
        <time>2026-08-29T12:15:04Z</time>
      </trkpt>
      <trkpt lat="47.53393" lon="-2.77709">
        <ele>10</ele>
        <time>2026-08-29T12:15:05Z</time>
      </trkpt>
      <trkpt lat="47.53392" lon="-2.77714">
        <ele>10.1</ele>
        <time>2026-08-29T12:15:06Z</time>
      </trkpt>
      <trkpt lat="47.53392" lon="-2.77719">
        <ele>10.3</ele>
        <time>2026-08-29T12:15:07Z</time>
      </trkpt>
      <trkpt lat="47.53391" lon="-2.77725">
        <ele>10.4</ele>
        <time>2026-08-29T12:15:08Z</time>
      </trkpt>
      <trkpt lat="47.53391" lon="-2.7773">
        <ele>10.6</ele>
        <time>2026-08-29T12:15:09Z</time>
      </trkpt>
      <trkpt lat="47.53391" lon="-2.77736">
        <ele>10.8</ele>
        <time>2026-08-29T12:15:10Z</time>
      </trkpt>
      <trkpt lat="47.5339" lon="-2.77741">
        <ele>10.9</ele>
        <time>2026-08-29T12:15:11Z</time>
      </trkpt>
      <trkpt lat="47.53391" lon="-2.77747">
        <ele>11.3</ele>
        <time>2026-08-29T12:15:12Z</time>
      </trkpt>
      <trkpt lat="47.53391" lon="-2.77752">
        <ele>11.4</ele>
        <time>2026-08-29T12:15:13Z</time>
      </trkpt>
      <trkpt lat="47.53391" lon="-2.77757">
        <ele>11.4</ele>
        <time>2026-08-29T12:15:14Z</time>
      </trkpt>
      <trkpt lat="47.53392" lon="-2.77763">
        <ele>11.5</ele>
        <time>2026-08-29T12:15:15Z</time>
      </trkpt>
      <trkpt lat="47.53392" lon="-2.77767">
        <ele>11.5</ele>
        <time>2026-08-29T12:15:16Z</time>
      </trkpt>
      <trkpt lat="47.53393" lon="-2.77772">
        <ele>11.6</ele>
        <time>2026-08-29T12:15:17Z</time>
      </trkpt>
      <trkpt lat="47.53394" lon="-2.77777">
        <ele>11.7</ele>
        <time>2026-08-29T12:15:18Z</time>
      </trkpt>
      <trkpt lat="47.53394" lon="-2.77782">
        <ele>11.6</ele>
        <time>2026-08-29T12:15:19Z</time>
      </trkpt>
      <trkpt lat="47.53395" lon="-2.77787">
        <ele>11.5</ele>
        <time>2026-08-29T12:15:20Z</time>
      </trkpt>
      <trkpt lat="47.53396" lon="-2.77792">
        <ele>11.5</ele>
        <time>2026-08-29T12:15:21Z</time>
      </trkpt>
      <trkpt lat="47.53398" lon="-2.77796">
        <ele>11.7</ele>
        <time>2026-08-29T12:15:22Z</time>
      </trkpt>
      <trkpt lat="47.534" lon="-2.77801">
        <ele>11.8</ele>
        <time>2026-08-29T12:15:23Z</time>
      </trkpt>
      <trkpt lat="47.53401" lon="-2.77805">
        <ele>11.8</ele>
        <time>2026-08-29T12:15:24Z</time>
      </trkpt>
      <trkpt lat="47.53403" lon="-2.77809">
        <ele>12</ele>
        <time>2026-08-29T12:15:25Z</time>
      </trkpt>
      <trkpt lat="47.53404" lon="-2.77813">
        <ele>12</ele>
        <time>2026-08-29T12:15:26Z</time>
      </trkpt>
      <trkpt lat="47.53406" lon="-2.77817">
        <ele>12.2</ele>
        <time>2026-08-29T12:15:27Z</time>
      </trkpt>
      <trkpt lat="47.53408" lon="-2.77821">
        <ele>12.4</ele>
        <time>2026-08-29T12:15:28Z</time>
      </trkpt>
      <trkpt lat="47.53409" lon="-2.77825">
        <ele>12.4</ele>
        <time>2026-08-29T12:15:29Z</time>
      </trkpt>
      <trkpt lat="47.5341" lon="-2.77829">
        <ele>12.4</ele>
        <time>2026-08-29T12:15:30Z</time>
      </trkpt>
      <trkpt lat="47.53412" lon="-2.77833">
        <ele>12.5</ele>
        <time>2026-08-29T12:15:31Z</time>
      </trkpt>
      <trkpt lat="47.53413" lon="-2.77838">
        <ele>12.5</ele>
        <time>2026-08-29T12:15:32Z</time>
      </trkpt>
      <trkpt lat="47.53414" lon="-2.77843">
        <ele>12.4</ele>
        <time>2026-08-29T12:15:33Z</time>
      </trkpt>
      <trkpt lat="47.53415" lon="-2.77847">
        <ele>12.4</ele>
        <time>2026-08-29T12:15:34Z</time>
      </trkpt>
      <trkpt lat="47.53416" lon="-2.77852">
        <ele>12.3</ele>
        <time>2026-08-29T12:15:35Z</time>
      </trkpt>
      <trkpt lat="47.53418" lon="-2.77857">
        <ele>12.2</ele>
        <time>2026-08-29T12:15:36Z</time>
      </trkpt>
      <trkpt lat="47.53418" lon="-2.77862">
        <ele>12</ele>
        <time>2026-08-29T12:15:37Z</time>
      </trkpt>
      <trkpt lat="47.53419" lon="-2.77868">
        <ele>12.1</ele>
        <time>2026-08-29T12:15:38Z</time>
      </trkpt>
      <trkpt lat="47.53419" lon="-2.77873">
        <ele>12.1</ele>
        <time>2026-08-29T12:15:39Z</time>
      </trkpt>
      <trkpt lat="47.53419" lon="-2.77879">
        <ele>12.1</ele>
        <time>2026-08-29T12:15:40Z</time>
      </trkpt>
      <trkpt lat="47.53419" lon="-2.77885">
        <ele>12.1</ele>
        <time>2026-08-29T12:15:41Z</time>
      </trkpt>
      <trkpt lat="47.53419" lon="-2.77891">
        <ele>12.2</ele>
        <time>2026-08-29T12:15:42Z</time>
      </trkpt>
      <trkpt lat="47.53419" lon="-2.77896">
        <ele>12.3</ele>
        <time>2026-08-29T12:15:43Z</time>
      </trkpt>
      <trkpt lat="47.53418" lon="-2.77902">
        <ele>12.5</ele>
        <time>2026-08-29T12:15:44Z</time>
      </trkpt>
      <trkpt lat="47.53417" lon="-2.77907">
        <ele>12.7</ele>
        <time>2026-08-29T12:15:45Z</time>
      </trkpt>
      <trkpt lat="47.53417" lon="-2.77912">
        <ele>12.8</ele>
        <time>2026-08-29T12:15:46Z</time>
      </trkpt>
      <trkpt lat="47.53416" lon="-2.77916">
        <ele>12.9</ele>
        <time>2026-08-29T12:15:47Z</time>
      </trkpt>
      <trkpt lat="47.53415" lon="-2.77921">
        <ele>12.8</ele>
        <time>2026-08-29T12:15:48Z</time>
      </trkpt>
      <trkpt lat="47.53415" lon="-2.77926">
        <ele>12.8</ele>
        <time>2026-08-29T12:15:49Z</time>
      </trkpt>
      <trkpt lat="47.53414" lon="-2.77932">
        <ele>12.7</ele>
        <time>2026-08-29T12:15:50Z</time>
      </trkpt>
      <trkpt lat="47.53413" lon="-2.77937">
        <ele>12.6</ele>
        <time>2026-08-29T12:15:51Z</time>
      </trkpt>
      <trkpt lat="47.53413" lon="-2.77942">
        <ele>12.6</ele>
        <time>2026-08-29T12:15:52Z</time>
      </trkpt>
      <trkpt lat="47.53412" lon="-2.77947">
        <ele>12.6</ele>
        <time>2026-08-29T12:15:53Z</time>
      </trkpt>
      <trkpt lat="47.53411" lon="-2.77952">
        <ele>12.7</ele>
        <time>2026-08-29T12:15:54Z</time>
      </trkpt>
      <trkpt lat="47.53411" lon="-2.77957">
        <ele>12.8</ele>
        <time>2026-08-29T12:15:55Z</time>
      </trkpt>
      <trkpt lat="47.5341" lon="-2.77962">
        <ele>12.9</ele>
        <time>2026-08-29T12:15:56Z</time>
      </trkpt>
      <trkpt lat="47.53409" lon="-2.77967">
        <ele>13</ele>
        <time>2026-08-29T12:15:57Z</time>
      </trkpt>
      <trkpt lat="47.53408" lon="-2.77973">
        <ele>13.1</ele>
        <time>2026-08-29T12:15:58Z</time>
      </trkpt>
      <trkpt lat="47.53407" lon="-2.77978">
        <ele>13</ele>
        <time>2026-08-29T12:15:59Z</time>
      </trkpt>
      <trkpt lat="47.53406" lon="-2.77984">
        <ele>13</ele>
        <time>2026-08-29T12:16:00Z</time>
      </trkpt>
      <trkpt lat="47.53405" lon="-2.77989">
        <ele>13</ele>
        <time>2026-08-29T12:16:01Z</time>
      </trkpt>
      <trkpt lat="47.53405" lon="-2.77993">
        <ele>13.1</ele>
        <time>2026-08-29T12:16:02Z</time>
      </trkpt>
      <trkpt lat="47.53405" lon="-2.77997">
        <ele>13.1</ele>
        <time>2026-08-29T12:16:03Z</time>
      </trkpt>
      <trkpt lat="47.53404" lon="-2.78">
        <ele>13.1</ele>
        <time>2026-08-29T12:16:04Z</time>
      </trkpt>
      <trkpt lat="47.53404" lon="-2.78003">
        <ele>13.1</ele>
        <time>2026-08-29T12:16:05Z</time>
      </trkpt>
      <trkpt lat="47.53403" lon="-2.78005">
        <ele>13.1</ele>
        <time>2026-08-29T12:16:06Z</time>
      </trkpt>
      <trkpt lat="47.53403" lon="-2.78008">
        <ele>13.2</ele>
        <time>2026-08-29T12:16:07Z</time>
      </trkpt>
      <trkpt lat="47.53403" lon="-2.78011">
        <ele>13.2</ele>
        <time>2026-08-29T12:16:08Z</time>
      </trkpt>
      <trkpt lat="47.53403" lon="-2.78015">
        <ele>13.3</ele>
        <time>2026-08-29T12:16:09Z</time>
      </trkpt>
      <trkpt lat="47.53402" lon="-2.78019">
        <ele>13.3</ele>
        <time>2026-08-29T12:16:10Z</time>
      </trkpt>
      <trkpt lat="47.53401" lon="-2.78024">
        <ele>13.2</ele>
        <time>2026-08-29T12:16:11Z</time>
      </trkpt>
      <trkpt lat="47.534" lon="-2.78029">
        <ele>13.2</ele>
        <time>2026-08-29T12:16:12Z</time>
      </trkpt>
      <trkpt lat="47.53398" lon="-2.78034">
        <ele>13.1</ele>
        <time>2026-08-29T12:16:13Z</time>
      </trkpt>
      <trkpt lat="47.53398" lon="-2.78038">
        <ele>13.2</ele>
        <time>2026-08-29T12:16:14Z</time>
      </trkpt>
      <trkpt lat="47.53396" lon="-2.78043">
        <ele>13.2</ele>
        <time>2026-08-29T12:16:15Z</time>
      </trkpt>
      <trkpt lat="47.53396" lon="-2.78048">
        <ele>13.3</ele>
        <time>2026-08-29T12:16:16Z</time>
      </trkpt>
      <trkpt lat="47.53394" lon="-2.78054">
        <ele>13.3</ele>
        <time>2026-08-29T12:16:17Z</time>
      </trkpt>
      <trkpt lat="47.53393" lon="-2.7806">
        <ele>13.4</ele>
        <time>2026-08-29T12:16:18Z</time>
      </trkpt>
      <trkpt lat="47.53392" lon="-2.78066">
        <ele>13.6</ele>
        <time>2026-08-29T12:16:19Z</time>
      </trkpt>
      <trkpt lat="47.5339" lon="-2.78072">
        <ele>13.6</ele>
        <time>2026-08-29T12:16:20Z</time>
      </trkpt>
      <trkpt lat="47.53389" lon="-2.78078">
        <ele>13.8</ele>
        <time>2026-08-29T12:16:21Z</time>
      </trkpt>
      <trkpt lat="47.53388" lon="-2.78083">
        <ele>13.9</ele>
        <time>2026-08-29T12:16:22Z</time>
      </trkpt>
      <trkpt lat="47.53387" lon="-2.78089">
        <ele>13.8</ele>
        <time>2026-08-29T12:16:23Z</time>
      </trkpt>
      <trkpt lat="47.53385" lon="-2.78096">
        <ele>13.6</ele>
        <time>2026-08-29T12:16:24Z</time>
      </trkpt>
      <trkpt lat="47.53384" lon="-2.78102">
        <ele>13.6</ele>
        <time>2026-08-29T12:16:25Z</time>
      </trkpt>
      <trkpt lat="47.53383" lon="-2.78107">
        <ele>13.5</ele>
        <time>2026-08-29T12:16:26Z</time>
      </trkpt>
      <trkpt lat="47.53381" lon="-2.78113">
        <ele>13.5</ele>
        <time>2026-08-29T12:16:27Z</time>
      </trkpt>
      <trkpt lat="47.5338" lon="-2.78118">
        <ele>13.4</ele>
        <time>2026-08-29T12:16:28Z</time>
      </trkpt>
      <trkpt lat="47.53379" lon="-2.78123">
        <ele>13.4</ele>
        <time>2026-08-29T12:16:29Z</time>
      </trkpt>
      <trkpt lat="47.53378" lon="-2.78128">
        <ele>13.5</ele>
        <time>2026-08-29T12:16:30Z</time>
      </trkpt>
      <trkpt lat="47.53377" lon="-2.78134">
        <ele>13.5</ele>
        <time>2026-08-29T12:16:31Z</time>
      </trkpt>
      <trkpt lat="47.53376" lon="-2.78139">
        <ele>13.5</ele>
        <time>2026-08-29T12:16:32Z</time>
      </trkpt>
      <trkpt lat="47.53375" lon="-2.78144">
        <ele>13.5</ele>
        <time>2026-08-29T12:16:33Z</time>
      </trkpt>
      <trkpt lat="47.53374" lon="-2.78151">
        <ele>13.5</ele>
        <time>2026-08-29T12:16:34Z</time>
      </trkpt>
      <trkpt lat="47.53373" lon="-2.78156">
        <ele>13.4</ele>
        <time>2026-08-29T12:16:35Z</time>
      </trkpt>
      <trkpt lat="47.53372" lon="-2.78161">
        <ele>13.4</ele>
        <time>2026-08-29T12:16:36Z</time>
      </trkpt>
      <trkpt lat="47.53371" lon="-2.78166">
        <ele>13.4</ele>
        <time>2026-08-29T12:16:37Z</time>
      </trkpt>
      <trkpt lat="47.53371" lon="-2.7817">
        <ele>13.4</ele>
        <time>2026-08-29T12:16:38Z</time>
      </trkpt>
      <trkpt lat="47.5337" lon="-2.78175">
        <ele>13.5</ele>
        <time>2026-08-29T12:16:39Z</time>
      </trkpt>
      <trkpt lat="47.5337" lon="-2.78178">
        <ele>13.6</ele>
        <time>2026-08-29T12:16:40Z</time>
      </trkpt>
      <trkpt lat="47.53369" lon="-2.78184">
        <ele>13.7</ele>
        <time>2026-08-29T12:16:41Z</time>
      </trkpt>
      <trkpt lat="47.53369" lon="-2.78188">
        <ele>13.8</ele>
        <time>2026-08-29T12:16:42Z</time>
      </trkpt>
      <trkpt lat="47.53368" lon="-2.78193">
        <ele>14</ele>
        <time>2026-08-29T12:16:43Z</time>
      </trkpt>
      <trkpt lat="47.53368" lon="-2.78197">
        <ele>14</ele>
        <time>2026-08-29T12:16:44Z</time>
      </trkpt>
      <trkpt lat="47.53368" lon="-2.78201">
        <ele>14</ele>
        <time>2026-08-29T12:16:45Z</time>
      </trkpt>
      <trkpt lat="47.53367" lon="-2.78206">
        <ele>14</ele>
        <time>2026-08-29T12:16:46Z</time>
      </trkpt>
      <trkpt lat="47.53367" lon="-2.78212">
        <ele>14</ele>
        <time>2026-08-29T12:16:47Z</time>
      </trkpt>
      <trkpt lat="47.53367" lon="-2.78217">
        <ele>14</ele>
        <time>2026-08-29T12:16:48Z</time>
      </trkpt>
      <trkpt lat="47.53366" lon="-2.78222">
        <ele>14</ele>
        <time>2026-08-29T12:16:49Z</time>
      </trkpt>
      <trkpt lat="47.53365" lon="-2.78229">
        <ele>14</ele>
        <time>2026-08-29T12:16:50Z</time>
      </trkpt>
      <trkpt lat="47.53363" lon="-2.78235">
        <ele>14</ele>
        <time>2026-08-29T12:16:51Z</time>
      </trkpt>
      <trkpt lat="47.53363" lon="-2.78241">
        <ele>14</ele>
        <time>2026-08-29T12:16:52Z</time>
      </trkpt>
      <trkpt lat="47.53362" lon="-2.78247">
        <ele>14</ele>
        <time>2026-08-29T12:16:53Z</time>
      </trkpt>
      <trkpt lat="47.5336" lon="-2.78253">
        <ele>14</ele>
        <time>2026-08-29T12:16:54Z</time>
      </trkpt>
      <trkpt lat="47.53359" lon="-2.78258">
        <ele>13.9</ele>
        <time>2026-08-29T12:16:55Z</time>
      </trkpt>
      <trkpt lat="47.53357" lon="-2.78265">
        <ele>13.9</ele>
        <time>2026-08-29T12:16:56Z</time>
      </trkpt>
      <trkpt lat="47.53355" lon="-2.78273">
        <ele>13.8</ele>
        <time>2026-08-29T12:16:57Z</time>
      </trkpt>
      <trkpt lat="47.53354" lon="-2.78279">
        <ele>13.7</ele>
        <time>2026-08-29T12:16:58Z</time>
      </trkpt>
      <trkpt lat="47.53352" lon="-2.78284">
        <ele>13.7</ele>
        <time>2026-08-29T12:16:59Z</time>
      </trkpt>
      <trkpt lat="47.53351" lon="-2.78291">
        <ele>13.6</ele>
        <time>2026-08-29T12:17:00Z</time>
      </trkpt>
      <trkpt lat="47.53349" lon="-2.78297">
        <ele>13.6</ele>
        <time>2026-08-29T12:17:01Z</time>
      </trkpt>
      <trkpt lat="47.53348" lon="-2.78302">
        <ele>13.5</ele>
        <time>2026-08-29T12:17:02Z</time>
      </trkpt>
      <trkpt lat="47.53347" lon="-2.78309">
        <ele>13.6</ele>
        <time>2026-08-29T12:17:03Z</time>
      </trkpt>
      <trkpt lat="47.53346" lon="-2.78315">
        <ele>13.6</ele>
        <time>2026-08-29T12:17:04Z</time>
      </trkpt>
      <trkpt lat="47.53346" lon="-2.78321">
        <ele>13.8</ele>
        <time>2026-08-29T12:17:05Z</time>
      </trkpt>
      <trkpt lat="47.53345" lon="-2.78328">
        <ele>13.9</ele>
        <time>2026-08-29T12:17:06Z</time>
      </trkpt>
      <trkpt lat="47.53344" lon="-2.78334">
        <ele>14</ele>
        <time>2026-08-29T12:17:07Z</time>
      </trkpt>
      <trkpt lat="47.53344" lon="-2.78339">
        <ele>14.2</ele>
        <time>2026-08-29T12:17:08Z</time>
      </trkpt>
      <trkpt lat="47.53344" lon="-2.78344">
        <ele>14.4</ele>
        <time>2026-08-29T12:17:09Z</time>
      </trkpt>
      <trkpt lat="47.53343" lon="-2.78349">
        <ele>14.6</ele>
        <time>2026-08-29T12:17:10Z</time>
      </trkpt>
      <trkpt lat="47.53343" lon="-2.78355">
        <ele>14.8</ele>
        <time>2026-08-29T12:17:11Z</time>
      </trkpt>
      <trkpt lat="47.53343" lon="-2.7836">
        <ele>15</ele>
        <time>2026-08-29T12:17:12Z</time>
      </trkpt>
      <trkpt lat="47.53342" lon="-2.78365">
        <ele>15.1</ele>
        <time>2026-08-29T12:17:13Z</time>
      </trkpt>
      <trkpt lat="47.53342" lon="-2.7837">
        <ele>15.3</ele>
        <time>2026-08-29T12:17:14Z</time>
      </trkpt>
      <trkpt lat="47.53342" lon="-2.78375">
        <ele>15.5</ele>
        <time>2026-08-29T12:17:15Z</time>
      </trkpt>
      <trkpt lat="47.53342" lon="-2.7838">
        <ele>15.7</ele>
        <time>2026-08-29T12:17:16Z</time>
      </trkpt>
      <trkpt lat="47.53342" lon="-2.78385">
        <ele>15.9</ele>
        <time>2026-08-29T12:17:17Z</time>
      </trkpt>
      <trkpt lat="47.53342" lon="-2.7839">
        <ele>16</ele>
        <time>2026-08-29T12:17:18Z</time>
      </trkpt>
      <trkpt lat="47.53342" lon="-2.78394">
        <ele>16.1</ele>
        <time>2026-08-29T12:17:19Z</time>
      </trkpt>
      <trkpt lat="47.53342" lon="-2.78399">
        <ele>16.1</ele>
        <time>2026-08-29T12:17:20Z</time>
      </trkpt>
      <trkpt lat="47.53341" lon="-2.78403">
        <ele>16.1</ele>
        <time>2026-08-29T12:17:21Z</time>
      </trkpt>
      <trkpt lat="47.53341" lon="-2.78408">
        <ele>16.2</ele>
        <time>2026-08-29T12:17:22Z</time>
      </trkpt>
      <trkpt lat="47.53342" lon="-2.78413">
        <ele>16.3</ele>
        <time>2026-08-29T12:17:23Z</time>
      </trkpt>
      <trkpt lat="47.53342" lon="-2.78418">
        <ele>16.3</ele>
        <time>2026-08-29T12:17:24Z</time>
      </trkpt>
      <trkpt lat="47.53344" lon="-2.78423">
        <ele>16.5</ele>
        <time>2026-08-29T12:17:25Z</time>
      </trkpt>
      <trkpt lat="47.53346" lon="-2.78428">
        <ele>16.7</ele>
        <time>2026-08-29T12:17:26Z</time>
      </trkpt>
      <trkpt lat="47.53348" lon="-2.78432">
        <ele>16.8</ele>
        <time>2026-08-29T12:17:27Z</time>
      </trkpt>
      <trkpt lat="47.5335" lon="-2.78436">
        <ele>16.9</ele>
        <time>2026-08-29T12:17:28Z</time>
      </trkpt>
      <trkpt lat="47.53352" lon="-2.78439">
        <ele>16.9</ele>
        <time>2026-08-29T12:17:29Z</time>
      </trkpt>
      <trkpt lat="47.53354" lon="-2.78443">
        <ele>17</ele>
        <time>2026-08-29T12:17:30Z</time>
      </trkpt>
      <trkpt lat="47.53356" lon="-2.78447">
        <ele>17.1</ele>
        <time>2026-08-29T12:17:31Z</time>
      </trkpt>
      <trkpt lat="47.53358" lon="-2.78451">
        <ele>17.2</ele>
        <time>2026-08-29T12:17:32Z</time>
      </trkpt>
      <trkpt lat="47.5336" lon="-2.78455">
        <ele>17.4</ele>
        <time>2026-08-29T12:17:33Z</time>
      </trkpt>
      <trkpt lat="47.53362" lon="-2.78459">
        <ele>17.5</ele>
        <time>2026-08-29T12:17:34Z</time>
      </trkpt>
      <trkpt lat="47.53364" lon="-2.78463">
        <ele>17.6</ele>
        <time>2026-08-29T12:17:35Z</time>
      </trkpt>
      <trkpt lat="47.53366" lon="-2.78467">
        <ele>17.6</ele>
        <time>2026-08-29T12:17:36Z</time>
      </trkpt>
      <trkpt lat="47.53368" lon="-2.78471">
        <ele>17.7</ele>
        <time>2026-08-29T12:17:37Z</time>
      </trkpt>
      <trkpt lat="47.53371" lon="-2.78475">
        <ele>17.6</ele>
        <time>2026-08-29T12:17:38Z</time>
      </trkpt>
      <trkpt lat="47.53373" lon="-2.78479">
        <ele>17.6</ele>
        <time>2026-08-29T12:17:39Z</time>
      </trkpt>
      <trkpt lat="47.53375" lon="-2.78483">
        <ele>17.5</ele>
        <time>2026-08-29T12:17:40Z</time>
      </trkpt>
      <trkpt lat="47.53378" lon="-2.78487">
        <ele>17.4</ele>
        <time>2026-08-29T12:17:41Z</time>
      </trkpt>
      <trkpt lat="47.53381" lon="-2.78491">
        <ele>17.3</ele>
        <time>2026-08-29T12:17:42Z</time>
      </trkpt>
      <trkpt lat="47.53384" lon="-2.78495">
        <ele>17.2</ele>
        <time>2026-08-29T12:17:43Z</time>
      </trkpt>
      <trkpt lat="47.53387" lon="-2.78498">
        <ele>17.1</ele>
        <time>2026-08-29T12:17:44Z</time>
      </trkpt>
      <trkpt lat="47.5339" lon="-2.78502">
        <ele>17</ele>
        <time>2026-08-29T12:17:45Z</time>
      </trkpt>
      <trkpt lat="47.53394" lon="-2.78505">
        <ele>16.8</ele>
        <time>2026-08-29T12:17:46Z</time>
      </trkpt>
      <trkpt lat="47.53397" lon="-2.78509">
        <ele>16.7</ele>
        <time>2026-08-29T12:17:47Z</time>
      </trkpt>
      <trkpt lat="47.534" lon="-2.78513">
        <ele>16.6</ele>
        <time>2026-08-29T12:17:48Z</time>
      </trkpt>
      <trkpt lat="47.53403" lon="-2.78516">
        <ele>16.5</ele>
        <time>2026-08-29T12:17:49Z</time>
      </trkpt>
      <trkpt lat="47.53406" lon="-2.78519">
        <ele>16.4</ele>
        <time>2026-08-29T12:17:50Z</time>
      </trkpt>
      <trkpt lat="47.53409" lon="-2.78521">
        <ele>16.3</ele>
        <time>2026-08-29T12:17:51Z</time>
      </trkpt>
      <trkpt lat="47.53412" lon="-2.78525">
        <ele>16.2</ele>
        <time>2026-08-29T12:17:52Z</time>
      </trkpt>
      <trkpt lat="47.53415" lon="-2.78529">
        <ele>16.1</ele>
        <time>2026-08-29T12:17:53Z</time>
      </trkpt>
      <trkpt lat="47.53418" lon="-2.78532">
        <ele>16.1</ele>
        <time>2026-08-29T12:17:54Z</time>
      </trkpt>
      <trkpt lat="47.53422" lon="-2.78535">
        <ele>16.2</ele>
        <time>2026-08-29T12:17:55Z</time>
      </trkpt>
      <trkpt lat="47.53425" lon="-2.78537">
        <ele>16.2</ele>
        <time>2026-08-29T12:17:56Z</time>
      </trkpt>
      <trkpt lat="47.53429" lon="-2.7854">
        <ele>16.2</ele>
        <time>2026-08-29T12:17:57Z</time>
      </trkpt>
      <trkpt lat="47.53433" lon="-2.78542">
        <ele>16.2</ele>
        <time>2026-08-29T12:17:58Z</time>
      </trkpt>
      <trkpt lat="47.53437" lon="-2.78544">
        <ele>16.2</ele>
        <time>2026-08-29T12:17:59Z</time>
      </trkpt>
      <trkpt lat="47.53441" lon="-2.78547">
        <ele>16.1</ele>
        <time>2026-08-29T12:18:00Z</time>
      </trkpt>
      <trkpt lat="47.53444" lon="-2.78549">
        <ele>16</ele>
        <time>2026-08-29T12:18:01Z</time>
      </trkpt>
      <trkpt lat="47.53448" lon="-2.7855">
        <ele>16</ele>
        <time>2026-08-29T12:18:02Z</time>
      </trkpt>
      <trkpt lat="47.53451" lon="-2.78552">
        <ele>16</ele>
        <time>2026-08-29T12:18:03Z</time>
      </trkpt>
      <trkpt lat="47.53455" lon="-2.78554">
        <ele>16</ele>
        <time>2026-08-29T12:18:04Z</time>
      </trkpt>
      <trkpt lat="47.53458" lon="-2.78556">
        <ele>16</ele>
        <time>2026-08-29T12:18:05Z</time>
      </trkpt>
      <trkpt lat="47.53461" lon="-2.78557">
        <ele>16.1</ele>
        <time>2026-08-29T12:18:06Z</time>
      </trkpt>
      <trkpt lat="47.53463" lon="-2.78559">
        <ele>16.1</ele>
        <time>2026-08-29T12:18:07Z</time>
      </trkpt>
      <trkpt lat="47.53465" lon="-2.7856">
        <ele>16.2</ele>
        <time>2026-08-29T12:18:08Z</time>
      </trkpt>
      <trkpt lat="47.53467" lon="-2.7856">
        <ele>16.2</ele>
        <time>2026-08-29T12:18:09Z</time>
      </trkpt>
      <trkpt lat="47.53468" lon="-2.78561">
        <ele>16.2</ele>
        <time>2026-08-29T12:18:10Z</time>
      </trkpt>
      <trkpt lat="47.53469" lon="-2.78562">
        <ele>16.2</ele>
        <time>2026-08-29T12:18:11Z</time>
      </trkpt>
      <trkpt lat="47.53469" lon="-2.78563">
        <ele>16.3</ele>
        <time>2026-08-29T12:18:12Z</time>
      </trkpt>
      <trkpt lat="47.53478" lon="-2.7857">
        <ele>16.1</ele>
        <time>2026-08-29T12:18:21Z</time>
      </trkpt>
      <trkpt lat="47.5348" lon="-2.78572">
        <ele>16</ele>
        <time>2026-08-29T12:18:22Z</time>
      </trkpt>
      <trkpt lat="47.53483" lon="-2.78574">
        <ele>15.8</ele>
        <time>2026-08-29T12:18:23Z</time>
      </trkpt>
      <trkpt lat="47.53486" lon="-2.78577">
        <ele>15.5</ele>
        <time>2026-08-29T12:18:24Z</time>
      </trkpt>
      <trkpt lat="47.5349" lon="-2.78581">
        <ele>15.1</ele>
        <time>2026-08-29T12:18:25Z</time>
      </trkpt>
      <trkpt lat="47.53495" lon="-2.78585">
        <ele>14.5</ele>
        <time>2026-08-29T12:18:26Z</time>
      </trkpt>
      <trkpt lat="47.535" lon="-2.7859">
        <ele>14</ele>
        <time>2026-08-29T12:18:27Z</time>
      </trkpt>
      <trkpt lat="47.53505" lon="-2.78596">
        <ele>13.6</ele>
        <time>2026-08-29T12:18:28Z</time>
      </trkpt>
      <trkpt lat="47.53511" lon="-2.78603">
        <ele>12.9</ele>
        <time>2026-08-29T12:18:29Z</time>
      </trkpt>
      <trkpt lat="47.53517" lon="-2.7861">
        <ele>12.2</ele>
        <time>2026-08-29T12:18:30Z</time>
      </trkpt>
      <trkpt lat="47.53523" lon="-2.78616">
        <ele>11.3</ele>
        <time>2026-08-29T12:18:31Z</time>
      </trkpt>
      <trkpt lat="47.5353" lon="-2.78623">
        <ele>10.4</ele>
        <time>2026-08-29T12:18:32Z</time>
      </trkpt>
      <trkpt lat="47.53538" lon="-2.78629">
        <ele>9.6</ele>
        <time>2026-08-29T12:18:33Z</time>
      </trkpt>
      <trkpt lat="47.53546" lon="-2.78634">
        <ele>8.9</ele>
        <time>2026-08-29T12:18:34Z</time>
      </trkpt>
      <trkpt lat="47.53554" lon="-2.78638">
        <ele>8.1</ele>
        <time>2026-08-29T12:18:35Z</time>
      </trkpt>
      <trkpt lat="47.53563" lon="-2.78641">
        <ele>7.7</ele>
        <time>2026-08-29T12:18:36Z</time>
      </trkpt>
      <trkpt lat="47.53571" lon="-2.78643">
        <ele>7.4</ele>
        <time>2026-08-29T12:18:37Z</time>
      </trkpt>
      <trkpt lat="47.53579" lon="-2.78646">
        <ele>7.2</ele>
        <time>2026-08-29T12:18:38Z</time>
      </trkpt>
      <trkpt lat="47.53587" lon="-2.7865">
        <ele>6.9</ele>
        <time>2026-08-29T12:18:39Z</time>
      </trkpt>
      <trkpt lat="47.53595" lon="-2.78653">
        <ele>6.6</ele>
        <time>2026-08-29T12:18:40Z</time>
      </trkpt>
      <trkpt lat="47.53602" lon="-2.78658">
        <ele>6.3</ele>
        <time>2026-08-29T12:18:41Z</time>
      </trkpt>
      <trkpt lat="47.53609" lon="-2.78663">
        <ele>6.1</ele>
        <time>2026-08-29T12:18:42Z</time>
      </trkpt>
      <trkpt lat="47.53614" lon="-2.78669">
        <ele>6</ele>
        <time>2026-08-29T12:18:43Z</time>
      </trkpt>
      <trkpt lat="47.53619" lon="-2.78676">
        <ele>6.1</ele>
        <time>2026-08-29T12:18:44Z</time>
      </trkpt>
      <trkpt lat="47.53623" lon="-2.78684">
        <ele>6.2</ele>
        <time>2026-08-29T12:18:45Z</time>
      </trkpt>
      <trkpt lat="47.53627" lon="-2.78693">
        <ele>6.4</ele>
        <time>2026-08-29T12:18:46Z</time>
      </trkpt>
      <trkpt lat="47.5363" lon="-2.78702">
        <ele>6.3</ele>
        <time>2026-08-29T12:18:47Z</time>
      </trkpt>
      <trkpt lat="47.53634" lon="-2.7871">
        <ele>6.2</ele>
        <time>2026-08-29T12:18:48Z</time>
      </trkpt>
      <trkpt lat="47.53639" lon="-2.78716">
        <ele>6</ele>
        <time>2026-08-29T12:18:49Z</time>
      </trkpt>
      <trkpt lat="47.53644" lon="-2.7872">
        <ele>6.2</ele>
        <time>2026-08-29T12:18:50Z</time>
      </trkpt>
      <trkpt lat="47.53649" lon="-2.78722">
        <ele>6.4</ele>
        <time>2026-08-29T12:18:51Z</time>
      </trkpt>
      <trkpt lat="47.53654" lon="-2.78724">
        <ele>6.6</ele>
        <time>2026-08-29T12:18:52Z</time>
      </trkpt>
      <trkpt lat="47.53658" lon="-2.78726">
        <ele>6.8</ele>
        <time>2026-08-29T12:18:53Z</time>
      </trkpt>
      <trkpt lat="47.53662" lon="-2.78727">
        <ele>7</ele>
        <time>2026-08-29T12:18:54Z</time>
      </trkpt>
      <trkpt lat="47.53665" lon="-2.78729">
        <ele>7.2</ele>
        <time>2026-08-29T12:18:55Z</time>
      </trkpt>
      <trkpt lat="47.53669" lon="-2.78731">
        <ele>7.5</ele>
        <time>2026-08-29T12:18:56Z</time>
      </trkpt>
      <trkpt lat="47.53673" lon="-2.78732">
        <ele>7.8</ele>
        <time>2026-08-29T12:18:57Z</time>
      </trkpt>
      <trkpt lat="47.53676" lon="-2.78734">
        <ele>8.1</ele>
        <time>2026-08-29T12:18:58Z</time>
      </trkpt>
      <trkpt lat="47.53679" lon="-2.78736">
        <ele>8.4</ele>
        <time>2026-08-29T12:18:59Z</time>
      </trkpt>
      <trkpt lat="47.53682" lon="-2.78738">
        <ele>8.7</ele>
        <time>2026-08-29T12:19:00Z</time>
      </trkpt>
      <trkpt lat="47.53685" lon="-2.78741">
        <ele>9</ele>
        <time>2026-08-29T12:19:01Z</time>
      </trkpt>
      <trkpt lat="47.53687" lon="-2.78745">
        <ele>9.3</ele>
        <time>2026-08-29T12:19:02Z</time>
      </trkpt>
      <trkpt lat="47.53688" lon="-2.78748">
        <ele>9.5</ele>
        <time>2026-08-29T12:19:03Z</time>
      </trkpt>
      <trkpt lat="47.53689" lon="-2.78751">
        <ele>9.6</ele>
        <time>2026-08-29T12:19:04Z</time>
      </trkpt>
      <trkpt lat="47.5369" lon="-2.78754">
        <ele>9.8</ele>
        <time>2026-08-29T12:19:05Z</time>
      </trkpt>
      <trkpt lat="47.53691" lon="-2.78757">
        <ele>10</ele>
        <time>2026-08-29T12:19:06Z</time>
      </trkpt>
      <trkpt lat="47.53692" lon="-2.78761">
        <ele>10.2</ele>
        <time>2026-08-29T12:19:07Z</time>
      </trkpt>
      <trkpt lat="47.53693" lon="-2.78765">
        <ele>10.4</ele>
        <time>2026-08-29T12:19:08Z</time>
      </trkpt>
      <trkpt lat="47.53695" lon="-2.7877">
        <ele>10.7</ele>
        <time>2026-08-29T12:19:09Z</time>
      </trkpt>
      <trkpt lat="47.53696" lon="-2.78774">
        <ele>10.9</ele>
        <time>2026-08-29T12:19:10Z</time>
      </trkpt>
      <trkpt lat="47.53698" lon="-2.78779">
        <ele>11</ele>
        <time>2026-08-29T12:19:11Z</time>
      </trkpt>
      <trkpt lat="47.53699" lon="-2.78783">
        <ele>11</ele>
        <time>2026-08-29T12:19:12Z</time>
      </trkpt>
      <trkpt lat="47.53701" lon="-2.78787">
        <ele>11.1</ele>
        <time>2026-08-29T12:19:13Z</time>
      </trkpt>
      <trkpt lat="47.53703" lon="-2.78791">
        <ele>11.1</ele>
        <time>2026-08-29T12:19:14Z</time>
      </trkpt>
      <trkpt lat="47.53705" lon="-2.78795">
        <ele>11.2</ele>
        <time>2026-08-29T12:19:15Z</time>
      </trkpt>
      <trkpt lat="47.53707" lon="-2.78799">
        <ele>11.3</ele>
        <time>2026-08-29T12:19:16Z</time>
      </trkpt>
      <trkpt lat="47.53709" lon="-2.78803">
        <ele>11.5</ele>
        <time>2026-08-29T12:19:17Z</time>
      </trkpt>
      <trkpt lat="47.53711" lon="-2.78807">
        <ele>11.6</ele>
        <time>2026-08-29T12:19:18Z</time>
      </trkpt>
      <trkpt lat="47.53713" lon="-2.78811">
        <ele>11.7</ele>
        <time>2026-08-29T12:19:19Z</time>
      </trkpt>
      <trkpt lat="47.53715" lon="-2.78815">
        <ele>11.7</ele>
        <time>2026-08-29T12:19:20Z</time>
      </trkpt>
      <trkpt lat="47.53717" lon="-2.78819">
        <ele>11.8</ele>
        <time>2026-08-29T12:19:21Z</time>
      </trkpt>
      <trkpt lat="47.53718" lon="-2.78823">
        <ele>11.8</ele>
        <time>2026-08-29T12:19:22Z</time>
      </trkpt>
      <trkpt lat="47.5372" lon="-2.78827">
        <ele>11.9</ele>
        <time>2026-08-29T12:19:23Z</time>
      </trkpt>
      <trkpt lat="47.53722" lon="-2.78831">
        <ele>12</ele>
        <time>2026-08-29T12:19:24Z</time>
      </trkpt>
      <trkpt lat="47.53724" lon="-2.78836">
        <ele>12</ele>
        <time>2026-08-29T12:19:25Z</time>
      </trkpt>
      <trkpt lat="47.53726" lon="-2.7884">
        <ele>12</ele>
        <time>2026-08-29T12:19:26Z</time>
      </trkpt>
      <trkpt lat="47.53727" lon="-2.78844">
        <ele>12</ele>
        <time>2026-08-29T12:19:27Z</time>
      </trkpt>
      <trkpt lat="47.53729" lon="-2.78848">
        <ele>12</ele>
        <time>2026-08-29T12:19:28Z</time>
      </trkpt>
      <trkpt lat="47.53731" lon="-2.78852">
        <ele>12</ele>
        <time>2026-08-29T12:19:29Z</time>
      </trkpt>
      <trkpt lat="47.53733" lon="-2.78857">
        <ele>12</ele>
        <time>2026-08-29T12:19:30Z</time>
      </trkpt>
      <trkpt lat="47.53735" lon="-2.78861">
        <ele>12</ele>
        <time>2026-08-29T12:19:31Z</time>
      </trkpt>
      <trkpt lat="47.53737" lon="-2.78865">
        <ele>12</ele>
        <time>2026-08-29T12:19:32Z</time>
      </trkpt>
      <trkpt lat="47.53739" lon="-2.78869">
        <ele>12</ele>
        <time>2026-08-29T12:19:33Z</time>
      </trkpt>
      <trkpt lat="47.53741" lon="-2.78874">
        <ele>12</ele>
        <time>2026-08-29T12:19:34Z</time>
      </trkpt>
      <trkpt lat="47.53743" lon="-2.78879">
        <ele>12</ele>
        <time>2026-08-29T12:19:35Z</time>
      </trkpt>
      <trkpt lat="47.53745" lon="-2.78883">
        <ele>12</ele>
        <time>2026-08-29T12:19:36Z</time>
      </trkpt>
      <trkpt lat="47.53747" lon="-2.78888">
        <ele>12</ele>
        <time>2026-08-29T12:19:37Z</time>
      </trkpt>
      <trkpt lat="47.53748" lon="-2.78893">
        <ele>12</ele>
        <time>2026-08-29T12:19:38Z</time>
      </trkpt>
      <trkpt lat="47.5375" lon="-2.78898">
        <ele>12</ele>
        <time>2026-08-29T12:19:39Z</time>
      </trkpt>
      <trkpt lat="47.53751" lon="-2.78902">
        <ele>12</ele>
        <time>2026-08-29T12:19:40Z</time>
      </trkpt>
      <trkpt lat="47.53753" lon="-2.78907">
        <ele>12.1</ele>
        <time>2026-08-29T12:19:41Z</time>
      </trkpt>
      <trkpt lat="47.53754" lon="-2.78912">
        <ele>12.1</ele>
        <time>2026-08-29T12:19:42Z</time>
      </trkpt>
      <trkpt lat="47.53756" lon="-2.78917">
        <ele>12.2</ele>
        <time>2026-08-29T12:19:43Z</time>
      </trkpt>
      <trkpt lat="47.53757" lon="-2.78921">
        <ele>12.4</ele>
        <time>2026-08-29T12:19:44Z</time>
      </trkpt>
      <trkpt lat="47.53759" lon="-2.78926">
        <ele>12.7</ele>
        <time>2026-08-29T12:19:45Z</time>
      </trkpt>
      <trkpt lat="47.5376" lon="-2.7893">
        <ele>12.8</ele>
        <time>2026-08-29T12:19:46Z</time>
      </trkpt>
      <trkpt lat="47.53761" lon="-2.78935">
        <ele>13.1</ele>
        <time>2026-08-29T12:19:47Z</time>
      </trkpt>
      <trkpt lat="47.53763" lon="-2.78939">
        <ele>13.3</ele>
        <time>2026-08-29T12:19:48Z</time>
      </trkpt>
      <trkpt lat="47.53764" lon="-2.78943">
        <ele>13.5</ele>
        <time>2026-08-29T12:19:49Z</time>
      </trkpt>
      <trkpt lat="47.53766" lon="-2.78948">
        <ele>13.6</ele>
        <time>2026-08-29T12:19:50Z</time>
      </trkpt>
      <trkpt lat="47.53767" lon="-2.78952">
        <ele>13.6</ele>
        <time>2026-08-29T12:19:51Z</time>
      </trkpt>
      <trkpt lat="47.53768" lon="-2.78956">
        <ele>13.6</ele>
        <time>2026-08-29T12:19:52Z</time>
      </trkpt>
      <trkpt lat="47.5377" lon="-2.78961">
        <ele>13.7</ele>
        <time>2026-08-29T12:19:53Z</time>
      </trkpt>
      <trkpt lat="47.53771" lon="-2.78965">
        <ele>13.8</ele>
        <time>2026-08-29T12:19:54Z</time>
      </trkpt>
      <trkpt lat="47.53772" lon="-2.7897">
        <ele>13.8</ele>
        <time>2026-08-29T12:19:55Z</time>
      </trkpt>
      <trkpt lat="47.53774" lon="-2.78974">
        <ele>13.9</ele>
        <time>2026-08-29T12:19:56Z</time>
      </trkpt>
      <trkpt lat="47.53775" lon="-2.78979">
        <ele>13.9</ele>
        <time>2026-08-29T12:19:57Z</time>
      </trkpt>
      <trkpt lat="47.53776" lon="-2.78983">
        <ele>13.9</ele>
        <time>2026-08-29T12:19:58Z</time>
      </trkpt>
      <trkpt lat="47.53778" lon="-2.78987">
        <ele>14</ele>
        <time>2026-08-29T12:19:59Z</time>
      </trkpt>
      <trkpt lat="47.5378" lon="-2.78991">
        <ele>14.1</ele>
        <time>2026-08-29T12:20:00Z</time>
      </trkpt>
      <trkpt lat="47.53781" lon="-2.78996">
        <ele>14.1</ele>
        <time>2026-08-29T12:20:01Z</time>
      </trkpt>
      <trkpt lat="47.53783" lon="-2.79">
        <ele>14.2</ele>
        <time>2026-08-29T12:20:02Z</time>
      </trkpt>
      <trkpt lat="47.53784" lon="-2.79005">
        <ele>14.2</ele>
        <time>2026-08-29T12:20:03Z</time>
      </trkpt>
      <trkpt lat="47.53786" lon="-2.79009">
        <ele>14.3</ele>
        <time>2026-08-29T12:20:04Z</time>
      </trkpt>
      <trkpt lat="47.53787" lon="-2.79014">
        <ele>14.3</ele>
        <time>2026-08-29T12:20:05Z</time>
      </trkpt>
      <trkpt lat="47.53789" lon="-2.79018">
        <ele>14.4</ele>
        <time>2026-08-29T12:20:06Z</time>
      </trkpt>
      <trkpt lat="47.5379" lon="-2.79023">
        <ele>14.4</ele>
        <time>2026-08-29T12:20:07Z</time>
      </trkpt>
      <trkpt lat="47.53792" lon="-2.79028">
        <ele>14.5</ele>
        <time>2026-08-29T12:20:08Z</time>
      </trkpt>
      <trkpt lat="47.53793" lon="-2.79033">
        <ele>14.5</ele>
        <time>2026-08-29T12:20:09Z</time>
      </trkpt>
      <trkpt lat="47.53795" lon="-2.79038">
        <ele>14.6</ele>
        <time>2026-08-29T12:20:10Z</time>
      </trkpt>
      <trkpt lat="47.53797" lon="-2.79042">
        <ele>14.7</ele>
        <time>2026-08-29T12:20:11Z</time>
      </trkpt>
      <trkpt lat="47.53799" lon="-2.79047">
        <ele>14.8</ele>
        <time>2026-08-29T12:20:12Z</time>
      </trkpt>
      <trkpt lat="47.53801" lon="-2.79052">
        <ele>14.8</ele>
        <time>2026-08-29T12:20:13Z</time>
      </trkpt>
      <trkpt lat="47.53803" lon="-2.79058">
        <ele>14.8</ele>
        <time>2026-08-29T12:20:14Z</time>
      </trkpt>
      <trkpt lat="47.53806" lon="-2.79063">
        <ele>14.7</ele>
        <time>2026-08-29T12:20:15Z</time>
      </trkpt>
      <trkpt lat="47.53808" lon="-2.79069">
        <ele>14.5</ele>
        <time>2026-08-29T12:20:16Z</time>
      </trkpt>
      <trkpt lat="47.53811" lon="-2.79074">
        <ele>14.3</ele>
        <time>2026-08-29T12:20:17Z</time>
      </trkpt>
      <trkpt lat="47.53813" lon="-2.7908">
        <ele>14.1</ele>
        <time>2026-08-29T12:20:18Z</time>
      </trkpt>
      <trkpt lat="47.53816" lon="-2.79085">
        <ele>14</ele>
        <time>2026-08-29T12:20:19Z</time>
      </trkpt>
      <trkpt lat="47.53818" lon="-2.79091">
        <ele>13.8</ele>
        <time>2026-08-29T12:20:20Z</time>
      </trkpt>
      <trkpt lat="47.53821" lon="-2.79096">
        <ele>13.8</ele>
        <time>2026-08-29T12:20:21Z</time>
      </trkpt>
      <trkpt lat="47.53823" lon="-2.79101">
        <ele>13.8</ele>
        <time>2026-08-29T12:20:22Z</time>
      </trkpt>
      <trkpt lat="47.53825" lon="-2.79105">
        <ele>13.8</ele>
        <time>2026-08-29T12:20:23Z</time>
      </trkpt>
      <trkpt lat="47.53828" lon="-2.7911">
        <ele>13.8</ele>
        <time>2026-08-29T12:20:24Z</time>
      </trkpt>
      <trkpt lat="47.5383" lon="-2.79115">
        <ele>13.9</ele>
        <time>2026-08-29T12:20:25Z</time>
      </trkpt>
      <trkpt lat="47.53832" lon="-2.7912">
        <ele>14</ele>
        <time>2026-08-29T12:20:26Z</time>
      </trkpt>
      <trkpt lat="47.53834" lon="-2.79125">
        <ele>14</ele>
        <time>2026-08-29T12:20:27Z</time>
      </trkpt>
      <trkpt lat="47.53837" lon="-2.79129">
        <ele>14</ele>
        <time>2026-08-29T12:20:28Z</time>
      </trkpt>
      <trkpt lat="47.53839" lon="-2.79134">
        <ele>14</ele>
        <time>2026-08-29T12:20:29Z</time>
      </trkpt>
      <trkpt lat="47.53841" lon="-2.79139">
        <ele>14</ele>
        <time>2026-08-29T12:20:30Z</time>
      </trkpt>
      <trkpt lat="47.53843" lon="-2.79144">
        <ele>14.1</ele>
        <time>2026-08-29T12:20:31Z</time>
      </trkpt>
      <trkpt lat="47.53845" lon="-2.79149">
        <ele>14.2</ele>
        <time>2026-08-29T12:20:32Z</time>
      </trkpt>
      <trkpt lat="47.53847" lon="-2.79154">
        <ele>14.3</ele>
        <time>2026-08-29T12:20:33Z</time>
      </trkpt>
      <trkpt lat="47.53849" lon="-2.79158">
        <ele>14.4</ele>
        <time>2026-08-29T12:20:34Z</time>
      </trkpt>
      <trkpt lat="47.53851" lon="-2.79162">
        <ele>14.5</ele>
        <time>2026-08-29T12:20:35Z</time>
      </trkpt>
      <trkpt lat="47.53854" lon="-2.79166">
        <ele>14.7</ele>
        <time>2026-08-29T12:20:36Z</time>
      </trkpt>
      <trkpt lat="47.53856" lon="-2.7917">
        <ele>14.8</ele>
        <time>2026-08-29T12:20:37Z</time>
      </trkpt>
      <trkpt lat="47.53858" lon="-2.79174">
        <ele>14.9</ele>
        <time>2026-08-29T12:20:38Z</time>
      </trkpt>
      <trkpt lat="47.5386" lon="-2.79178">
        <ele>15</ele>
        <time>2026-08-29T12:20:39Z</time>
      </trkpt>
      <trkpt lat="47.53863" lon="-2.79181">
        <ele>15</ele>
        <time>2026-08-29T12:20:40Z</time>
      </trkpt>
      <trkpt lat="47.53865" lon="-2.79185">
        <ele>15.1</ele>
        <time>2026-08-29T12:20:41Z</time>
      </trkpt>
      <trkpt lat="47.53867" lon="-2.79188">
        <ele>15.2</ele>
        <time>2026-08-29T12:20:42Z</time>
      </trkpt>
      <trkpt lat="47.5387" lon="-2.79192">
        <ele>15.3</ele>
        <time>2026-08-29T12:20:43Z</time>
      </trkpt>
      <trkpt lat="47.53872" lon="-2.79194">
        <ele>15.4</ele>
        <time>2026-08-29T12:20:44Z</time>
      </trkpt>
      <trkpt lat="47.53875" lon="-2.79197">
        <ele>15.5</ele>
        <time>2026-08-29T12:20:45Z</time>
      </trkpt>
      <trkpt lat="47.53878" lon="-2.792">
        <ele>15.7</ele>
        <time>2026-08-29T12:20:46Z</time>
      </trkpt>
      <trkpt lat="47.5388" lon="-2.79203">
        <ele>15.8</ele>
        <time>2026-08-29T12:20:47Z</time>
      </trkpt>
      <trkpt lat="47.53883" lon="-2.79206">
        <ele>15.9</ele>
        <time>2026-08-29T12:20:48Z</time>
      </trkpt>
      <trkpt lat="47.53886" lon="-2.79209">
        <ele>16</ele>
        <time>2026-08-29T12:20:49Z</time>
      </trkpt>
      <trkpt lat="47.53888" lon="-2.79212">
        <ele>16</ele>
        <time>2026-08-29T12:20:50Z</time>
      </trkpt>
      <trkpt lat="47.53891" lon="-2.79215">
        <ele>16</ele>
        <time>2026-08-29T12:20:51Z</time>
      </trkpt>
      <trkpt lat="47.53894" lon="-2.79217">
        <ele>16</ele>
        <time>2026-08-29T12:20:52Z</time>
      </trkpt>
      <trkpt lat="47.53896" lon="-2.7922">
        <ele>16</ele>
        <time>2026-08-29T12:20:53Z</time>
      </trkpt>
      <trkpt lat="47.53899" lon="-2.79222">
        <ele>16</ele>
        <time>2026-08-29T12:20:54Z</time>
      </trkpt>
      <trkpt lat="47.53902" lon="-2.79225">
        <ele>16</ele>
        <time>2026-08-29T12:20:55Z</time>
      </trkpt>
      <trkpt lat="47.53904" lon="-2.79228">
        <ele>15.9</ele>
        <time>2026-08-29T12:20:56Z</time>
      </trkpt>
      <trkpt lat="47.53907" lon="-2.79231">
        <ele>15.8</ele>
        <time>2026-08-29T12:20:57Z</time>
      </trkpt>
      <trkpt lat="47.5391" lon="-2.79234">
        <ele>15.7</ele>
        <time>2026-08-29T12:20:58Z</time>
      </trkpt>
      <trkpt lat="47.53913" lon="-2.79237">
        <ele>15.5</ele>
        <time>2026-08-29T12:20:59Z</time>
      </trkpt>
      <trkpt lat="47.53916" lon="-2.79241">
        <ele>15.3</ele>
        <time>2026-08-29T12:21:00Z</time>
      </trkpt>
      <trkpt lat="47.53918" lon="-2.79244">
        <ele>15.2</ele>
        <time>2026-08-29T12:21:01Z</time>
      </trkpt>
      <trkpt lat="47.53921" lon="-2.79248">
        <ele>15.1</ele>
        <time>2026-08-29T12:21:02Z</time>
      </trkpt>
      <trkpt lat="47.53923" lon="-2.79252">
        <ele>15</ele>
        <time>2026-08-29T12:21:03Z</time>
      </trkpt>
      <trkpt lat="47.53926" lon="-2.79256">
        <ele>15</ele>
        <time>2026-08-29T12:21:04Z</time>
      </trkpt>
      <trkpt lat="47.53928" lon="-2.7926">
        <ele>15</ele>
        <time>2026-08-29T12:21:05Z</time>
      </trkpt>
      <trkpt lat="47.53929" lon="-2.79265">
        <ele>15</ele>
        <time>2026-08-29T12:21:06Z</time>
      </trkpt>
      <trkpt lat="47.5393" lon="-2.7927">
        <ele>15</ele>
        <time>2026-08-29T12:21:07Z</time>
      </trkpt>
      <trkpt lat="47.53931" lon="-2.79275">
        <ele>15</ele>
        <time>2026-08-29T12:21:08Z</time>
      </trkpt>
      <trkpt lat="47.53932" lon="-2.79281">
        <ele>14.9</ele>
        <time>2026-08-29T12:21:09Z</time>
      </trkpt>
      <trkpt lat="47.53932" lon="-2.79286">
        <ele>14.7</ele>
        <time>2026-08-29T12:21:10Z</time>
      </trkpt>
      <trkpt lat="47.53932" lon="-2.7929">
        <ele>14.6</ele>
        <time>2026-08-29T12:21:11Z</time>
      </trkpt>
      <trkpt lat="47.53932" lon="-2.79292">
        <ele>14.5</ele>
        <time>2026-08-29T12:21:12Z</time>
      </trkpt>
      <trkpt lat="47.53933" lon="-2.79294">
        <ele>14.4</ele>
        <time>2026-08-29T12:21:13Z</time>
      </trkpt>
      <trkpt lat="47.53933" lon="-2.79296">
        <ele>14.3</ele>
        <time>2026-08-29T12:21:14Z</time>
      </trkpt>
      <trkpt lat="47.53933" lon="-2.79297">
        <ele>14.3</ele>
        <time>2026-08-29T12:21:15Z</time>
      </trkpt>
      <trkpt lat="47.53933" lon="-2.79298">
        <ele>14.3</ele>
        <time>2026-08-29T12:21:16Z</time>
      </trkpt>
      <trkpt lat="47.53932" lon="-2.79299">
        <ele>14.2</ele>
        <time>2026-08-29T12:21:17Z</time>
      </trkpt>
      <trkpt lat="47.53929" lon="-2.79301">
        <ele>14.2</ele>
        <time>2026-08-29T12:21:19Z</time>
      </trkpt>
      <trkpt lat="47.53927" lon="-2.79301">
        <ele>14.2</ele>
        <time>2026-08-29T12:21:20Z</time>
      </trkpt>
      <trkpt lat="47.53924" lon="-2.79301">
        <ele>14.2</ele>
        <time>2026-08-29T12:21:21Z</time>
      </trkpt>
      <trkpt lat="47.53921" lon="-2.79302">
        <ele>14.1</ele>
        <time>2026-08-29T12:21:22Z</time>
      </trkpt>
      <trkpt lat="47.53919" lon="-2.79302">
        <ele>14.1</ele>
        <time>2026-08-29T12:21:23Z</time>
      </trkpt>
      <trkpt lat="47.53916" lon="-2.79303">
        <ele>14.1</ele>
        <time>2026-08-29T12:21:24Z</time>
      </trkpt>
      <trkpt lat="47.53913" lon="-2.79304">
        <ele>14.3</ele>
        <time>2026-08-29T12:21:25Z</time>
      </trkpt>
      <trkpt lat="47.53911" lon="-2.79305">
        <ele>14.4</ele>
        <time>2026-08-29T12:21:26Z</time>
      </trkpt>
      <trkpt lat="47.53909" lon="-2.79307">
        <ele>14.5</ele>
        <time>2026-08-29T12:21:27Z</time>
      </trkpt>
      <trkpt lat="47.53907" lon="-2.79308">
        <ele>14.7</ele>
        <time>2026-08-29T12:21:28Z</time>
      </trkpt>
      <trkpt lat="47.53905" lon="-2.79308">
        <ele>14.8</ele>
        <time>2026-08-29T12:21:29Z</time>
      </trkpt>
      <trkpt lat="47.53905" lon="-2.79306">
        <ele>14.8</ele>
        <time>2026-08-29T12:21:30Z</time>
      </trkpt>
      <trkpt lat="47.53906" lon="-2.79305">
        <ele>14.8</ele>
        <time>2026-08-29T12:21:31Z</time>
      </trkpt>
      <trkpt lat="47.53907" lon="-2.79305">
        <ele>14.7</ele>
        <time>2026-08-29T12:21:32Z</time>
      </trkpt>
      <trkpt lat="47.5391" lon="-2.79304">
        <ele>14.5</ele>
        <time>2026-08-29T12:21:33Z</time>
      </trkpt>
      <trkpt lat="47.53913" lon="-2.79303">
        <ele>14.3</ele>
        <time>2026-08-29T12:21:34Z</time>
      </trkpt>
      <trkpt lat="47.53916" lon="-2.79302">
        <ele>14.2</ele>
        <time>2026-08-29T12:21:35Z</time>
      </trkpt>
      <trkpt lat="47.53919" lon="-2.79302">
        <ele>14.1</ele>
        <time>2026-08-29T12:21:36Z</time>
      </trkpt>
      <trkpt lat="47.53923" lon="-2.79302">
        <ele>14.1</ele>
        <time>2026-08-29T12:21:37Z</time>
      </trkpt>
      <trkpt lat="47.53927" lon="-2.79302">
        <ele>14.1</ele>
        <time>2026-08-29T12:21:38Z</time>
      </trkpt>
      <trkpt lat="47.53931" lon="-2.79303">
        <ele>14.1</ele>
        <time>2026-08-29T12:21:39Z</time>
      </trkpt>
      <trkpt lat="47.53935" lon="-2.79303">
        <ele>14.1</ele>
        <time>2026-08-29T12:21:40Z</time>
      </trkpt>
      <trkpt lat="47.53939" lon="-2.79303">
        <ele>14.1</ele>
        <time>2026-08-29T12:21:41Z</time>
      </trkpt>
      <trkpt lat="47.53944" lon="-2.79302">
        <ele>14.1</ele>
        <time>2026-08-29T12:21:42Z</time>
      </trkpt>
      <trkpt lat="47.53948" lon="-2.79302">
        <ele>14</ele>
        <time>2026-08-29T12:21:43Z</time>
      </trkpt>
      <trkpt lat="47.53952" lon="-2.79302">
        <ele>13.8</ele>
        <time>2026-08-29T12:21:44Z</time>
      </trkpt>
      <trkpt lat="47.53957" lon="-2.79302">
        <ele>13.6</ele>
        <time>2026-08-29T12:21:45Z</time>
      </trkpt>
      <trkpt lat="47.53961" lon="-2.79302">
        <ele>13.5</ele>
        <time>2026-08-29T12:21:46Z</time>
      </trkpt>
      <trkpt lat="47.53966" lon="-2.79303">
        <ele>13.2</ele>
        <time>2026-08-29T12:21:47Z</time>
      </trkpt>
      <trkpt lat="47.53971" lon="-2.79303">
        <ele>13</ele>
        <time>2026-08-29T12:21:48Z</time>
      </trkpt>
      <trkpt lat="47.53975" lon="-2.79304">
        <ele>12.9</ele>
        <time>2026-08-29T12:21:49Z</time>
      </trkpt>
      <trkpt lat="47.53978" lon="-2.79306">
        <ele>12.8</ele>
        <time>2026-08-29T12:21:50Z</time>
      </trkpt>
      <trkpt lat="47.53979" lon="-2.79309">
        <ele>12.7</ele>
        <time>2026-08-29T12:21:51Z</time>
      </trkpt>
      <trkpt lat="47.53979" lon="-2.79313">
        <ele>12.6</ele>
        <time>2026-08-29T12:21:52Z</time>
      </trkpt>
      <trkpt lat="47.53978" lon="-2.79317">
        <ele>12.5</ele>
        <time>2026-08-29T12:21:53Z</time>
      </trkpt>
      <trkpt lat="47.53977" lon="-2.79321">
        <ele>12.4</ele>
        <time>2026-08-29T12:21:54Z</time>
      </trkpt>
      <trkpt lat="47.53976" lon="-2.79325">
        <ele>12.3</ele>
        <time>2026-08-29T12:21:55Z</time>
      </trkpt>
      <trkpt lat="47.53974" lon="-2.79329">
        <ele>12.1</ele>
        <time>2026-08-29T12:21:56Z</time>
      </trkpt>
      <trkpt lat="47.53971" lon="-2.79334">
        <ele>12</ele>
        <time>2026-08-29T12:21:57Z</time>
      </trkpt>
      <trkpt lat="47.53969" lon="-2.79338">
        <ele>12.1</ele>
        <time>2026-08-29T12:21:58Z</time>
      </trkpt>
      <trkpt lat="47.53966" lon="-2.79342">
        <ele>12.2</ele>
        <time>2026-08-29T12:21:59Z</time>
      </trkpt>
      <trkpt lat="47.53964" lon="-2.79347">
        <ele>12.2</ele>
        <time>2026-08-29T12:22:00Z</time>
      </trkpt>
      <trkpt lat="47.53961" lon="-2.79352">
        <ele>12.1</ele>
        <time>2026-08-29T12:22:01Z</time>
      </trkpt>
      <trkpt lat="47.53958" lon="-2.79356">
        <ele>12.1</ele>
        <time>2026-08-29T12:22:02Z</time>
      </trkpt>
      <trkpt lat="47.53956" lon="-2.79361">
        <ele>12</ele>
        <time>2026-08-29T12:22:03Z</time>
      </trkpt>
      <trkpt lat="47.53953" lon="-2.79366">
        <ele>11.8</ele>
        <time>2026-08-29T12:22:04Z</time>
      </trkpt>
      <trkpt lat="47.5395" lon="-2.79371">
        <ele>11.6</ele>
        <time>2026-08-29T12:22:05Z</time>
      </trkpt>
      <trkpt lat="47.53947" lon="-2.79376">
        <ele>11.5</ele>
        <time>2026-08-29T12:22:06Z</time>
      </trkpt>
      <trkpt lat="47.53944" lon="-2.79381">
        <ele>11.3</ele>
        <time>2026-08-29T12:22:07Z</time>
      </trkpt>
      <trkpt lat="47.53941" lon="-2.79386">
        <ele>11.2</ele>
        <time>2026-08-29T12:22:08Z</time>
      </trkpt>
      <trkpt lat="47.53938" lon="-2.79391">
        <ele>11.2</ele>
        <time>2026-08-29T12:22:09Z</time>
      </trkpt>
      <trkpt lat="47.53935" lon="-2.79396">
        <ele>11.3</ele>
        <time>2026-08-29T12:22:10Z</time>
      </trkpt>
      <trkpt lat="47.53932" lon="-2.79402">
        <ele>11.2</ele>
        <time>2026-08-29T12:22:11Z</time>
      </trkpt>
      <trkpt lat="47.53929" lon="-2.79407">
        <ele>11.2</ele>
        <time>2026-08-29T12:22:12Z</time>
      </trkpt>
      <trkpt lat="47.53926" lon="-2.79413">
        <ele>11.1</ele>
        <time>2026-08-29T12:22:13Z</time>
      </trkpt>
      <trkpt lat="47.53923" lon="-2.79418">
        <ele>11</ele>
        <time>2026-08-29T12:22:14Z</time>
      </trkpt>
      <trkpt lat="47.5392" lon="-2.79423">
        <ele>10.8</ele>
        <time>2026-08-29T12:22:15Z</time>
      </trkpt>
      <trkpt lat="47.53917" lon="-2.79428">
        <ele>10.6</ele>
        <time>2026-08-29T12:22:16Z</time>
      </trkpt>
      <trkpt lat="47.53914" lon="-2.79434">
        <ele>10.4</ele>
        <time>2026-08-29T12:22:17Z</time>
      </trkpt>
      <trkpt lat="47.53912" lon="-2.7944">
        <ele>10.3</ele>
        <time>2026-08-29T12:22:18Z</time>
      </trkpt>
      <trkpt lat="47.53909" lon="-2.79446">
        <ele>10.3</ele>
        <time>2026-08-29T12:22:19Z</time>
      </trkpt>
      <trkpt lat="47.53907" lon="-2.79451">
        <ele>10.3</ele>
        <time>2026-08-29T12:22:20Z</time>
      </trkpt>
      <trkpt lat="47.53905" lon="-2.79457">
        <ele>10.2</ele>
        <time>2026-08-29T12:22:21Z</time>
      </trkpt>
      <trkpt lat="47.53902" lon="-2.79464">
        <ele>10.2</ele>
        <time>2026-08-29T12:22:22Z</time>
      </trkpt>
      <trkpt lat="47.539" lon="-2.7947">
        <ele>10</ele>
        <time>2026-08-29T12:22:23Z</time>
      </trkpt>
      <trkpt lat="47.53898" lon="-2.79476">
        <ele>10</ele>
        <time>2026-08-29T12:22:24Z</time>
      </trkpt>
      <trkpt lat="47.53895" lon="-2.79482">
        <ele>10</ele>
        <time>2026-08-29T12:22:25Z</time>
      </trkpt>
      <trkpt lat="47.53893" lon="-2.79488">
        <ele>10</ele>
        <time>2026-08-29T12:22:26Z</time>
      </trkpt>
      <trkpt lat="47.5389" lon="-2.79494">
        <ele>10</ele>
        <time>2026-08-29T12:22:27Z</time>
      </trkpt>
      <trkpt lat="47.53887" lon="-2.79499">
        <ele>10</ele>
        <time>2026-08-29T12:22:28Z</time>
      </trkpt>
      <trkpt lat="47.53883" lon="-2.79504">
        <ele>9.9</ele>
        <time>2026-08-29T12:22:29Z</time>
      </trkpt>
      <trkpt lat="47.5388" lon="-2.79508">
        <ele>9.7</ele>
        <time>2026-08-29T12:22:30Z</time>
      </trkpt>
      <trkpt lat="47.53876" lon="-2.79513">
        <ele>9.5</ele>
        <time>2026-08-29T12:22:31Z</time>
      </trkpt>
      <trkpt lat="47.53872" lon="-2.79517">
        <ele>9.4</ele>
        <time>2026-08-29T12:22:32Z</time>
      </trkpt>
      <trkpt lat="47.53868" lon="-2.7952">
        <ele>9.3</ele>
        <time>2026-08-29T12:22:33Z</time>
      </trkpt>
      <trkpt lat="47.53863" lon="-2.79523">
        <ele>9.2</ele>
        <time>2026-08-29T12:22:34Z</time>
      </trkpt>
      <trkpt lat="47.53859" lon="-2.79526">
        <ele>9.1</ele>
        <time>2026-08-29T12:22:35Z</time>
      </trkpt>
      <trkpt lat="47.53854" lon="-2.79528">
        <ele>9.2</ele>
        <time>2026-08-29T12:22:36Z</time>
      </trkpt>
      <trkpt lat="47.5385" lon="-2.7953">
        <ele>9.3</ele>
        <time>2026-08-29T12:22:37Z</time>
      </trkpt>
      <trkpt lat="47.53846" lon="-2.79532">
        <ele>9.4</ele>
        <time>2026-08-29T12:22:38Z</time>
      </trkpt>
      <trkpt lat="47.53841" lon="-2.79535">
        <ele>9.5</ele>
        <time>2026-08-29T12:22:39Z</time>
      </trkpt>
      <trkpt lat="47.53837" lon="-2.79537">
        <ele>9.5</ele>
        <time>2026-08-29T12:22:40Z</time>
      </trkpt>
      <trkpt lat="47.53833" lon="-2.7954">
        <ele>9.6</ele>
        <time>2026-08-29T12:22:41Z</time>
      </trkpt>
      <trkpt lat="47.53829" lon="-2.79544">
        <ele>9.7</ele>
        <time>2026-08-29T12:22:42Z</time>
      </trkpt>
      <trkpt lat="47.53826" lon="-2.79547">
        <ele>9.8</ele>
        <time>2026-08-29T12:22:43Z</time>
      </trkpt>
      <trkpt lat="47.53822" lon="-2.79551">
        <ele>9.9</ele>
        <time>2026-08-29T12:22:44Z</time>
      </trkpt>
      <trkpt lat="47.53819" lon="-2.79555">
        <ele>10</ele>
        <time>2026-08-29T12:22:45Z</time>
      </trkpt>
      <trkpt lat="47.53816" lon="-2.79559">
        <ele>10.1</ele>
        <time>2026-08-29T12:22:46Z</time>
      </trkpt>
      <trkpt lat="47.53813" lon="-2.79563">
        <ele>10.2</ele>
        <time>2026-08-29T12:22:47Z</time>
      </trkpt>
      <trkpt lat="47.5381" lon="-2.79567">
        <ele>10.3</ele>
        <time>2026-08-29T12:22:48Z</time>
      </trkpt>
      <trkpt lat="47.53808" lon="-2.79571">
        <ele>10.3</ele>
        <time>2026-08-29T12:22:49Z</time>
      </trkpt>
      <trkpt lat="47.53806" lon="-2.79576">
        <ele>10.2</ele>
        <time>2026-08-29T12:22:50Z</time>
      </trkpt>
      <trkpt lat="47.53803" lon="-2.79581">
        <ele>10.4</ele>
        <time>2026-08-29T12:22:51Z</time>
      </trkpt>
      <trkpt lat="47.53801" lon="-2.79585">
        <ele>10.4</ele>
        <time>2026-08-29T12:22:52Z</time>
      </trkpt>
      <trkpt lat="47.53799" lon="-2.7959">
        <ele>10.4</ele>
        <time>2026-08-29T12:22:53Z</time>
      </trkpt>
      <trkpt lat="47.53796" lon="-2.79596">
        <ele>10.4</ele>
        <time>2026-08-29T12:22:54Z</time>
      </trkpt>
      <trkpt lat="47.53794" lon="-2.79601">
        <ele>10.3</ele>
        <time>2026-08-29T12:22:55Z</time>
      </trkpt>
      <trkpt lat="47.53792" lon="-2.79606">
        <ele>10.2</ele>
        <time>2026-08-29T12:22:56Z</time>
      </trkpt>
      <trkpt lat="47.5379" lon="-2.79611">
        <ele>10.1</ele>
        <time>2026-08-29T12:22:57Z</time>
      </trkpt>
      <trkpt lat="47.53787" lon="-2.79616">
        <ele>10.2</ele>
        <time>2026-08-29T12:22:58Z</time>
      </trkpt>
      <trkpt lat="47.53785" lon="-2.79621">
        <ele>10.1</ele>
        <time>2026-08-29T12:22:59Z</time>
      </trkpt>
      <trkpt lat="47.53782" lon="-2.79626">
        <ele>10.2</ele>
        <time>2026-08-29T12:23:00Z</time>
      </trkpt>
      <trkpt lat="47.53779" lon="-2.79631">
        <ele>10.2</ele>
        <time>2026-08-29T12:23:01Z</time>
      </trkpt>
      <trkpt lat="47.53777" lon="-2.79636">
        <ele>10.1</ele>
        <time>2026-08-29T12:23:02Z</time>
      </trkpt>
      <trkpt lat="47.53774" lon="-2.79641">
        <ele>10</ele>
        <time>2026-08-29T12:23:03Z</time>
      </trkpt>
      <trkpt lat="47.53771" lon="-2.79646">
        <ele>9.9</ele>
        <time>2026-08-29T12:23:04Z</time>
      </trkpt>
      <trkpt lat="47.53768" lon="-2.79652">
        <ele>9.7</ele>
        <time>2026-08-29T12:23:05Z</time>
      </trkpt>
      <trkpt lat="47.53765" lon="-2.79658">
        <ele>9.5</ele>
        <time>2026-08-29T12:23:06Z</time>
      </trkpt>
      <trkpt lat="47.53762" lon="-2.79663">
        <ele>9.2</ele>
        <time>2026-08-29T12:23:07Z</time>
      </trkpt>
      <trkpt lat="47.5376" lon="-2.79669">
        <ele>9</ele>
        <time>2026-08-29T12:23:08Z</time>
      </trkpt>
      <trkpt lat="47.53758" lon="-2.79675">
        <ele>9</ele>
        <time>2026-08-29T12:23:09Z</time>
      </trkpt>
      <trkpt lat="47.53756" lon="-2.79681">
        <ele>9</ele>
        <time>2026-08-29T12:23:10Z</time>
      </trkpt>
      <trkpt lat="47.53755" lon="-2.79688">
        <ele>9</ele>
        <time>2026-08-29T12:23:11Z</time>
      </trkpt>
      <trkpt lat="47.53755" lon="-2.79695">
        <ele>9</ele>
        <time>2026-08-29T12:23:12Z</time>
      </trkpt>
      <trkpt lat="47.53756" lon="-2.79702">
        <ele>8.9</ele>
        <time>2026-08-29T12:23:13Z</time>
      </trkpt>
      <trkpt lat="47.53756" lon="-2.79709">
        <ele>8.9</ele>
        <time>2026-08-29T12:23:14Z</time>
      </trkpt>
      <trkpt lat="47.53756" lon="-2.79717">
        <ele>8.8</ele>
        <time>2026-08-29T12:23:15Z</time>
      </trkpt>
      <trkpt lat="47.53755" lon="-2.79724">
        <ele>8.8</ele>
        <time>2026-08-29T12:23:16Z</time>
      </trkpt>
      <trkpt lat="47.53754" lon="-2.79731">
        <ele>8.8</ele>
        <time>2026-08-29T12:23:17Z</time>
      </trkpt>
      <trkpt lat="47.53753" lon="-2.79738">
        <ele>8.8</ele>
        <time>2026-08-29T12:23:18Z</time>
      </trkpt>
      <trkpt lat="47.53752" lon="-2.79744">
        <ele>8.9</ele>
        <time>2026-08-29T12:23:19Z</time>
      </trkpt>
      <trkpt lat="47.53751" lon="-2.79751">
        <ele>8.9</ele>
        <time>2026-08-29T12:23:20Z</time>
      </trkpt>
      <trkpt lat="47.53749" lon="-2.79757">
        <ele>8.7</ele>
        <time>2026-08-29T12:23:21Z</time>
      </trkpt>
      <trkpt lat="47.53748" lon="-2.79763">
        <ele>8.4</ele>
        <time>2026-08-29T12:23:22Z</time>
      </trkpt>
      <trkpt lat="47.53747" lon="-2.7977">
        <ele>8.1</ele>
        <time>2026-08-29T12:23:23Z</time>
      </trkpt>
      <trkpt lat="47.53745" lon="-2.79777">
        <ele>7.7</ele>
        <time>2026-08-29T12:23:24Z</time>
      </trkpt>
      <trkpt lat="47.53744" lon="-2.79783">
        <ele>7.4</ele>
        <time>2026-08-29T12:23:25Z</time>
      </trkpt>
      <trkpt lat="47.53742" lon="-2.79789">
        <ele>7.1</ele>
        <time>2026-08-29T12:23:26Z</time>
      </trkpt>
      <trkpt lat="47.5374" lon="-2.79795">
        <ele>6.9</ele>
        <time>2026-08-29T12:23:27Z</time>
      </trkpt>
      <trkpt lat="47.53739" lon="-2.79801">
        <ele>6.7</ele>
        <time>2026-08-29T12:23:28Z</time>
      </trkpt>
      <trkpt lat="47.53737" lon="-2.79807">
        <ele>6.4</ele>
        <time>2026-08-29T12:23:29Z</time>
      </trkpt>
      <trkpt lat="47.53735" lon="-2.79813">
        <ele>5.9</ele>
        <time>2026-08-29T12:23:30Z</time>
      </trkpt>
      <trkpt lat="47.53733" lon="-2.7982">
        <ele>5.5</ele>
        <time>2026-08-29T12:23:31Z</time>
      </trkpt>
      <trkpt lat="47.5373" lon="-2.79826">
        <ele>5.1</ele>
        <time>2026-08-29T12:23:32Z</time>
      </trkpt>
      <trkpt lat="47.53726" lon="-2.79832">
        <ele>4.9</ele>
        <time>2026-08-29T12:23:33Z</time>
      </trkpt>
      <trkpt lat="47.53723" lon="-2.79838">
        <ele>4.8</ele>
        <time>2026-08-29T12:23:34Z</time>
      </trkpt>
      <trkpt lat="47.53721" lon="-2.79844">
        <ele>4.5</ele>
        <time>2026-08-29T12:23:35Z</time>
      </trkpt>
      <trkpt lat="47.53719" lon="-2.79851">
        <ele>4.1</ele>
        <time>2026-08-29T12:23:36Z</time>
      </trkpt>
      <trkpt lat="47.53718" lon="-2.79859">
        <ele>3.8</ele>
        <time>2026-08-29T12:23:37Z</time>
      </trkpt>
      <trkpt lat="47.53718" lon="-2.79867">
        <ele>3.3</ele>
        <time>2026-08-29T12:23:38Z</time>
      </trkpt>
      <trkpt lat="47.53718" lon="-2.79875">
        <ele>2.8</ele>
        <time>2026-08-29T12:23:39Z</time>
      </trkpt>
      <trkpt lat="47.53718" lon="-2.79883">
        <ele>2.4</ele>
        <time>2026-08-29T12:23:40Z</time>
      </trkpt>
      <trkpt lat="47.53717" lon="-2.7989">
        <ele>2</ele>
        <time>2026-08-29T12:23:41Z</time>
      </trkpt>
      <trkpt lat="47.53716" lon="-2.79898">
        <ele>1.7</ele>
        <time>2026-08-29T12:23:42Z</time>
      </trkpt>
      <trkpt lat="47.53714" lon="-2.79905">
        <ele>1.6</ele>
        <time>2026-08-29T12:23:43Z</time>
      </trkpt>
      <trkpt lat="47.53713" lon="-2.79913">
        <ele>1.4</ele>
        <time>2026-08-29T12:23:44Z</time>
      </trkpt>
      <trkpt lat="47.53712" lon="-2.79919">
        <ele>1.5</ele>
        <time>2026-08-29T12:23:45Z</time>
      </trkpt>
      <trkpt lat="47.53711" lon="-2.79926">
        <ele>2</ele>
        <time>2026-08-29T12:23:46Z</time>
      </trkpt>
      <trkpt lat="47.5371" lon="-2.79932">
        <ele>2.5</ele>
        <time>2026-08-29T12:23:47Z</time>
      </trkpt>
      <trkpt lat="47.53709" lon="-2.79939">
        <ele>3</ele>
        <time>2026-08-29T12:23:48Z</time>
      </trkpt>
      <trkpt lat="47.53709" lon="-2.79945">
        <ele>3.5</ele>
        <time>2026-08-29T12:23:49Z</time>
      </trkpt>
      <trkpt lat="47.53709" lon="-2.79951">
        <ele>3.8</ele>
        <time>2026-08-29T12:23:50Z</time>
      </trkpt>
      <trkpt lat="47.53709" lon="-2.79956">
        <ele>4.1</ele>
        <time>2026-08-29T12:23:51Z</time>
      </trkpt>
      <trkpt lat="47.53708" lon="-2.79961">
        <ele>4.4</ele>
        <time>2026-08-29T12:23:52Z</time>
      </trkpt>
      <trkpt lat="47.53707" lon="-2.79965">
        <ele>4.7</ele>
        <time>2026-08-29T12:23:53Z</time>
      </trkpt>
      <trkpt lat="47.53705" lon="-2.79969">
        <ele>5.1</ele>
        <time>2026-08-29T12:23:54Z</time>
      </trkpt>
      <trkpt lat="47.53703" lon="-2.79972">
        <ele>5.4</ele>
        <time>2026-08-29T12:23:55Z</time>
      </trkpt>
      <trkpt lat="47.53702" lon="-2.79975">
        <ele>5.6</ele>
        <time>2026-08-29T12:23:56Z</time>
      </trkpt>
      <trkpt lat="47.53701" lon="-2.79978">
        <ele>5.8</ele>
        <time>2026-08-29T12:23:57Z</time>
      </trkpt>
      <trkpt lat="47.53701" lon="-2.79981">
        <ele>6</ele>
        <time>2026-08-29T12:23:58Z</time>
      </trkpt>
      <trkpt lat="47.537" lon="-2.79985">
        <ele>6.2</ele>
        <time>2026-08-29T12:23:59Z</time>
      </trkpt>
      <trkpt lat="47.53699" lon="-2.79989">
        <ele>6.5</ele>
        <time>2026-08-29T12:24:00Z</time>
      </trkpt>
      <trkpt lat="47.53698" lon="-2.79993">
        <ele>6.7</ele>
        <time>2026-08-29T12:24:01Z</time>
      </trkpt>
      <trkpt lat="47.53697" lon="-2.79997">
        <ele>6.9</ele>
        <time>2026-08-29T12:24:02Z</time>
      </trkpt>
      <trkpt lat="47.53696" lon="-2.80001">
        <ele>7</ele>
        <time>2026-08-29T12:24:03Z</time>
      </trkpt>
      <trkpt lat="47.53695" lon="-2.80006">
        <ele>7</ele>
        <time>2026-08-29T12:24:04Z</time>
      </trkpt>
      <trkpt lat="47.53694" lon="-2.8001">
        <ele>7</ele>
        <time>2026-08-29T12:24:05Z</time>
      </trkpt>
      <trkpt lat="47.53693" lon="-2.80014">
        <ele>7.1</ele>
        <time>2026-08-29T12:24:06Z</time>
      </trkpt>
      <trkpt lat="47.53693" lon="-2.80019">
        <ele>7.1</ele>
        <time>2026-08-29T12:24:07Z</time>
      </trkpt>
      <trkpt lat="47.53691" lon="-2.80023">
        <ele>7.1</ele>
        <time>2026-08-29T12:24:08Z</time>
      </trkpt>
      <trkpt lat="47.5369" lon="-2.80028">
        <ele>7.2</ele>
        <time>2026-08-29T12:24:09Z</time>
      </trkpt>
      <trkpt lat="47.53688" lon="-2.80032">
        <ele>7.2</ele>
        <time>2026-08-29T12:24:10Z</time>
      </trkpt>
      <trkpt lat="47.53686" lon="-2.80036">
        <ele>7.3</ele>
        <time>2026-08-29T12:24:11Z</time>
      </trkpt>
      <trkpt lat="47.53684" lon="-2.8004">
        <ele>7.4</ele>
        <time>2026-08-29T12:24:12Z</time>
      </trkpt>
      <trkpt lat="47.53682" lon="-2.80044">
        <ele>7.4</ele>
        <time>2026-08-29T12:24:13Z</time>
      </trkpt>
      <trkpt lat="47.5368" lon="-2.80048">
        <ele>7.5</ele>
        <time>2026-08-29T12:24:14Z</time>
      </trkpt>
      <trkpt lat="47.53677" lon="-2.8005">
        <ele>7.6</ele>
        <time>2026-08-29T12:24:15Z</time>
      </trkpt>
      <trkpt lat="47.53674" lon="-2.80051">
        <ele>7.7</ele>
        <time>2026-08-29T12:24:16Z</time>
      </trkpt>
      <trkpt lat="47.5367" lon="-2.80052">
        <ele>7.9</ele>
        <time>2026-08-29T12:24:17Z</time>
      </trkpt>
      <trkpt lat="47.53666" lon="-2.80052">
        <ele>8</ele>
        <time>2026-08-29T12:24:18Z</time>
      </trkpt>
      <trkpt lat="47.53663" lon="-2.80052">
        <ele>8</ele>
        <time>2026-08-29T12:24:19Z</time>
      </trkpt>
      <trkpt lat="47.53659" lon="-2.80054">
        <ele>8</ele>
        <time>2026-08-29T12:24:20Z</time>
      </trkpt>
      <trkpt lat="47.53656" lon="-2.80055">
        <ele>8</ele>
        <time>2026-08-29T12:24:21Z</time>
      </trkpt>
      <trkpt lat="47.53652" lon="-2.80056">
        <ele>8</ele>
        <time>2026-08-29T12:24:22Z</time>
      </trkpt>
      <trkpt lat="47.53648" lon="-2.80057">
        <ele>8</ele>
        <time>2026-08-29T12:24:23Z</time>
      </trkpt>
      <trkpt lat="47.53645" lon="-2.80059">
        <ele>8</ele>
        <time>2026-08-29T12:24:24Z</time>
      </trkpt>
      <trkpt lat="47.53641" lon="-2.80061">
        <ele>8</ele>
        <time>2026-08-29T12:24:25Z</time>
      </trkpt>
      <trkpt lat="47.53638" lon="-2.80062">
        <ele>8</ele>
        <time>2026-08-29T12:24:26Z</time>
      </trkpt>
      <trkpt lat="47.53634" lon="-2.80063">
        <ele>8</ele>
        <time>2026-08-29T12:24:27Z</time>
      </trkpt>
      <trkpt lat="47.53631" lon="-2.80065">
        <ele>7.9</ele>
        <time>2026-08-29T12:24:28Z</time>
      </trkpt>
      <trkpt lat="47.53627" lon="-2.80066">
        <ele>7.8</ele>
        <time>2026-08-29T12:24:29Z</time>
      </trkpt>
      <trkpt lat="47.53624" lon="-2.80068">
        <ele>7.8</ele>
        <time>2026-08-29T12:24:30Z</time>
      </trkpt>
      <trkpt lat="47.5362" lon="-2.80069">
        <ele>7.7</ele>
        <time>2026-08-29T12:24:31Z</time>
      </trkpt>
      <trkpt lat="47.53617" lon="-2.80071">
        <ele>7.6</ele>
        <time>2026-08-29T12:24:32Z</time>
      </trkpt>
      <trkpt lat="47.53613" lon="-2.80072">
        <ele>7.4</ele>
        <time>2026-08-29T12:24:33Z</time>
      </trkpt>
      <trkpt lat="47.53609" lon="-2.80073">
        <ele>7.3</ele>
        <time>2026-08-29T12:24:34Z</time>
      </trkpt>
      <trkpt lat="47.53605" lon="-2.80075">
        <ele>7.1</ele>
        <time>2026-08-29T12:24:35Z</time>
      </trkpt>
      <trkpt lat="47.53601" lon="-2.80077">
        <ele>6.9</ele>
        <time>2026-08-29T12:24:36Z</time>
      </trkpt>
      <trkpt lat="47.53597" lon="-2.80079">
        <ele>6.6</ele>
        <time>2026-08-29T12:24:37Z</time>
      </trkpt>
      <trkpt lat="47.53593" lon="-2.8008">
        <ele>6.5</ele>
        <time>2026-08-29T12:24:38Z</time>
      </trkpt>
      <trkpt lat="47.53589" lon="-2.80083">
        <ele>6.2</ele>
        <time>2026-08-29T12:24:39Z</time>
      </trkpt>
      <trkpt lat="47.53585" lon="-2.80084">
        <ele>6.1</ele>
        <time>2026-08-29T12:24:40Z</time>
      </trkpt>
      <trkpt lat="47.53581" lon="-2.80086">
        <ele>5.9</ele>
        <time>2026-08-29T12:24:41Z</time>
      </trkpt>
      <trkpt lat="47.53576" lon="-2.80087">
        <ele>5.7</ele>
        <time>2026-08-29T12:24:42Z</time>
      </trkpt>
      <trkpt lat="47.53571" lon="-2.80089">
        <ele>5.5</ele>
        <time>2026-08-29T12:24:43Z</time>
      </trkpt>
      <trkpt lat="47.53567" lon="-2.8009">
        <ele>5.3</ele>
        <time>2026-08-29T12:24:44Z</time>
      </trkpt>
      <trkpt lat="47.53563" lon="-2.80092">
        <ele>5</ele>
        <time>2026-08-29T12:24:45Z</time>
      </trkpt>
      <trkpt lat="47.53561" lon="-2.80094">
        <ele>4.9</ele>
        <time>2026-08-29T12:24:46Z</time>
      </trkpt>
      <trkpt lat="47.53559" lon="-2.80097">
        <ele>4.7</ele>
        <time>2026-08-29T12:24:47Z</time>
      </trkpt>
      <trkpt lat="47.53559" lon="-2.80101">
        <ele>4.6</ele>
        <time>2026-08-29T12:24:48Z</time>
      </trkpt>
      <trkpt lat="47.53561" lon="-2.80105">
        <ele>4.6</ele>
        <time>2026-08-29T12:24:49Z</time>
      </trkpt>
      <trkpt lat="47.53562" lon="-2.80109">
        <ele>4.5</ele>
        <time>2026-08-29T12:24:50Z</time>
      </trkpt>
      <trkpt lat="47.53565" lon="-2.80113">
        <ele>4.6</ele>
        <time>2026-08-29T12:24:51Z</time>
      </trkpt>
      <trkpt lat="47.53568" lon="-2.80117">
        <ele>4.8</ele>
        <time>2026-08-29T12:24:52Z</time>
      </trkpt>
      <trkpt lat="47.5357" lon="-2.80121">
        <ele>4.9</ele>
        <time>2026-08-29T12:24:53Z</time>
      </trkpt>
      <trkpt lat="47.53572" lon="-2.80125">
        <ele>5</ele>
        <time>2026-08-29T12:24:54Z</time>
      </trkpt>
      <trkpt lat="47.53574" lon="-2.80129">
        <ele>5.1</ele>
        <time>2026-08-29T12:24:55Z</time>
      </trkpt>
      <trkpt lat="47.53576" lon="-2.80133">
        <ele>5.3</ele>
        <time>2026-08-29T12:24:56Z</time>
      </trkpt>
      <trkpt lat="47.53578" lon="-2.80137">
        <ele>5.4</ele>
        <time>2026-08-29T12:24:57Z</time>
      </trkpt>
      <trkpt lat="47.5358" lon="-2.80141">
        <ele>5.6</ele>
        <time>2026-08-29T12:24:58Z</time>
      </trkpt>
      <trkpt lat="47.53581" lon="-2.80147">
        <ele>5.5</ele>
        <time>2026-08-29T12:24:59Z</time>
      </trkpt>
      <trkpt lat="47.53582" lon="-2.80153">
        <ele>5.4</ele>
        <time>2026-08-29T12:25:00Z</time>
      </trkpt>
      <trkpt lat="47.53583" lon="-2.80158">
        <ele>5.3</ele>
        <time>2026-08-29T12:25:01Z</time>
      </trkpt>
      <trkpt lat="47.53584" lon="-2.80163">
        <ele>5.2</ele>
        <time>2026-08-29T12:25:02Z</time>
      </trkpt>
      <trkpt lat="47.53585" lon="-2.80168">
        <ele>5.1</ele>
        <time>2026-08-29T12:25:03Z</time>
      </trkpt>
      <trkpt lat="47.53586" lon="-2.80174">
        <ele>5.2</ele>
        <time>2026-08-29T12:25:04Z</time>
      </trkpt>
      <trkpt lat="47.53586" lon="-2.80181">
        <ele>5.2</ele>
        <time>2026-08-29T12:25:05Z</time>
      </trkpt>
      <trkpt lat="47.53586" lon="-2.80187">
        <ele>5.2</ele>
        <time>2026-08-29T12:25:06Z</time>
      </trkpt>
      <trkpt lat="47.53586" lon="-2.80194">
        <ele>5.2</ele>
        <time>2026-08-29T12:25:07Z</time>
      </trkpt>
      <trkpt lat="47.53586" lon="-2.802">
        <ele>5.2</ele>
        <time>2026-08-29T12:25:08Z</time>
      </trkpt>
      <trkpt lat="47.53586" lon="-2.80207">
        <ele>5.2</ele>
        <time>2026-08-29T12:25:09Z</time>
      </trkpt>
      <trkpt lat="47.53586" lon="-2.80213">
        <ele>5.2</ele>
        <time>2026-08-29T12:25:10Z</time>
      </trkpt>
      <trkpt lat="47.53586" lon="-2.8022">
        <ele>5.2</ele>
        <time>2026-08-29T12:25:11Z</time>
      </trkpt>
      <trkpt lat="47.53586" lon="-2.80226">
        <ele>5.2</ele>
        <time>2026-08-29T12:25:12Z</time>
      </trkpt>
      <trkpt lat="47.53586" lon="-2.80232">
        <ele>5.2</ele>
        <time>2026-08-29T12:25:13Z</time>
      </trkpt>
      <trkpt lat="47.53586" lon="-2.80239">
        <ele>5.2</ele>
        <time>2026-08-29T12:25:14Z</time>
      </trkpt>
      <trkpt lat="47.53585" lon="-2.80245">
        <ele>5.1</ele>
        <time>2026-08-29T12:25:15Z</time>
      </trkpt>
      <trkpt lat="47.53585" lon="-2.80251">
        <ele>5.1</ele>
        <time>2026-08-29T12:25:16Z</time>
      </trkpt>
      <trkpt lat="47.53585" lon="-2.80257">
        <ele>5.1</ele>
        <time>2026-08-29T12:25:17Z</time>
      </trkpt>
      <trkpt lat="47.53585" lon="-2.80263">
        <ele>5.1</ele>
        <time>2026-08-29T12:25:18Z</time>
      </trkpt>
      <trkpt lat="47.53584" lon="-2.80269">
        <ele>5</ele>
        <time>2026-08-29T12:25:19Z</time>
      </trkpt>
      <trkpt lat="47.53584" lon="-2.80275">
        <ele>5</ele>
        <time>2026-08-29T12:25:20Z</time>
      </trkpt>
      <trkpt lat="47.53584" lon="-2.80281">
        <ele>5</ele>
        <time>2026-08-29T12:25:21Z</time>
      </trkpt>
      <trkpt lat="47.53584" lon="-2.80287">
        <ele>5</ele>
        <time>2026-08-29T12:25:22Z</time>
      </trkpt>
      <trkpt lat="47.53585" lon="-2.80294">
        <ele>5.1</ele>
        <time>2026-08-29T12:25:23Z</time>
      </trkpt>
      <trkpt lat="47.53585" lon="-2.80299">
        <ele>5.1</ele>
        <time>2026-08-29T12:25:24Z</time>
      </trkpt>
      <trkpt lat="47.53584" lon="-2.80305">
        <ele>5</ele>
        <time>2026-08-29T12:25:25Z</time>
      </trkpt>
      <trkpt lat="47.53584" lon="-2.80311">
        <ele>5.2</ele>
        <time>2026-08-29T12:25:26Z</time>
      </trkpt>
      <trkpt lat="47.53583" lon="-2.80317">
        <ele>5.4</ele>
        <time>2026-08-29T12:25:27Z</time>
      </trkpt>
      <trkpt lat="47.53583" lon="-2.80323">
        <ele>5.6</ele>
        <time>2026-08-29T12:25:28Z</time>
      </trkpt>
      <trkpt lat="47.53583" lon="-2.80329">
        <ele>5.8</ele>
        <time>2026-08-29T12:25:29Z</time>
      </trkpt>
      <trkpt lat="47.53582" lon="-2.80334">
        <ele>5.9</ele>
        <time>2026-08-29T12:25:30Z</time>
      </trkpt>
      <trkpt lat="47.53581" lon="-2.8034">
        <ele>5.6</ele>
        <time>2026-08-29T12:25:31Z</time>
      </trkpt>
      <trkpt lat="47.53581" lon="-2.80345">
        <ele>5.5</ele>
        <time>2026-08-29T12:25:32Z</time>
      </trkpt>
      <trkpt lat="47.5358" lon="-2.80351">
        <ele>5.3</ele>
        <time>2026-08-29T12:25:33Z</time>
      </trkpt>
      <trkpt lat="47.5358" lon="-2.80357">
        <ele>5.1</ele>
        <time>2026-08-29T12:25:34Z</time>
      </trkpt>
      <trkpt lat="47.53579" lon="-2.80363">
        <ele>5.1</ele>
        <time>2026-08-29T12:25:35Z</time>
      </trkpt>
      <trkpt lat="47.53578" lon="-2.80369">
        <ele>5.2</ele>
        <time>2026-08-29T12:25:36Z</time>
      </trkpt>
      <trkpt lat="47.53578" lon="-2.80376">
        <ele>5.4</ele>
        <time>2026-08-29T12:25:37Z</time>
      </trkpt>
      <trkpt lat="47.53577" lon="-2.80382">
        <ele>5.6</ele>
        <time>2026-08-29T12:25:38Z</time>
      </trkpt>
      <trkpt lat="47.53577" lon="-2.80389">
        <ele>5.8</ele>
        <time>2026-08-29T12:25:39Z</time>
      </trkpt>
      <trkpt lat="47.53576" lon="-2.80396">
        <ele>5.7</ele>
        <time>2026-08-29T12:25:40Z</time>
      </trkpt>
      <trkpt lat="47.53576" lon="-2.80402">
        <ele>5.7</ele>
        <time>2026-08-29T12:25:41Z</time>
      </trkpt>
      <trkpt lat="47.53576" lon="-2.80408">
        <ele>5.7</ele>
        <time>2026-08-29T12:25:42Z</time>
      </trkpt>
      <trkpt lat="47.53576" lon="-2.80413">
        <ele>5.7</ele>
        <time>2026-08-29T12:25:43Z</time>
      </trkpt>
      <trkpt lat="47.53577" lon="-2.80419">
        <ele>5.8</ele>
        <time>2026-08-29T12:25:44Z</time>
      </trkpt>
      <trkpt lat="47.5358" lon="-2.80422">
        <ele>5.9</ele>
        <time>2026-08-29T12:25:45Z</time>
      </trkpt>
      <trkpt lat="47.53582" lon="-2.80424">
        <ele>6</ele>
        <time>2026-08-29T12:25:46Z</time>
      </trkpt>
      <trkpt lat="47.53585" lon="-2.80425">
        <ele>6.1</ele>
        <time>2026-08-29T12:25:47Z</time>
      </trkpt>
      <trkpt lat="47.53588" lon="-2.80426">
        <ele>6.2</ele>
        <time>2026-08-29T12:25:48Z</time>
      </trkpt>
      <trkpt lat="47.53592" lon="-2.80427">
        <ele>6.3</ele>
        <time>2026-08-29T12:25:49Z</time>
      </trkpt>
      <trkpt lat="47.53595" lon="-2.80427">
        <ele>6.4</ele>
        <time>2026-08-29T12:25:50Z</time>
      </trkpt>
      <trkpt lat="47.53599" lon="-2.80427">
        <ele>6.6</ele>
        <time>2026-08-29T12:25:51Z</time>
      </trkpt>
      <trkpt lat="47.53602" lon="-2.80428">
        <ele>6.7</ele>
        <time>2026-08-29T12:25:52Z</time>
      </trkpt>
      <trkpt lat="47.53605" lon="-2.80428">
        <ele>6.8</ele>
        <time>2026-08-29T12:25:53Z</time>
      </trkpt>
      <trkpt lat="47.53608" lon="-2.80428">
        <ele>6.9</ele>
        <time>2026-08-29T12:25:54Z</time>
      </trkpt>
      <trkpt lat="47.53612" lon="-2.80428">
        <ele>7</ele>
        <time>2026-08-29T12:25:55Z</time>
      </trkpt>
      <trkpt lat="47.53615" lon="-2.80428">
        <ele>7.1</ele>
        <time>2026-08-29T12:25:56Z</time>
      </trkpt>
      <trkpt lat="47.53618" lon="-2.80429">
        <ele>7.2</ele>
        <time>2026-08-29T12:25:57Z</time>
      </trkpt>
      <trkpt lat="47.53621" lon="-2.80429">
        <ele>7.4</ele>
        <time>2026-08-29T12:25:58Z</time>
      </trkpt>
      <trkpt lat="47.53624" lon="-2.8043">
        <ele>7.5</ele>
        <time>2026-08-29T12:25:59Z</time>
      </trkpt>
      <trkpt lat="47.53627" lon="-2.80431">
        <ele>7.6</ele>
        <time>2026-08-29T12:26:00Z</time>
      </trkpt>
      <trkpt lat="47.5363" lon="-2.80433">
        <ele>7.7</ele>
        <time>2026-08-29T12:26:01Z</time>
      </trkpt>
      <trkpt lat="47.53632" lon="-2.80435">
        <ele>7.8</ele>
        <time>2026-08-29T12:26:02Z</time>
      </trkpt>
      <trkpt lat="47.53633" lon="-2.80439">
        <ele>7.8</ele>
        <time>2026-08-29T12:26:03Z</time>
      </trkpt>
      <trkpt lat="47.53633" lon="-2.80443">
        <ele>7.8</ele>
        <time>2026-08-29T12:26:04Z</time>
      </trkpt>
      <trkpt lat="47.53632" lon="-2.80447">
        <ele>7.8</ele>
        <time>2026-08-29T12:26:05Z</time>
      </trkpt>
      <trkpt lat="47.53632" lon="-2.80452">
        <ele>7.8</ele>
        <time>2026-08-29T12:26:06Z</time>
      </trkpt>
      <trkpt lat="47.53631" lon="-2.80457">
        <ele>7.7</ele>
        <time>2026-08-29T12:26:07Z</time>
      </trkpt>
      <trkpt lat="47.53631" lon="-2.80462">
        <ele>7.7</ele>
        <time>2026-08-29T12:26:08Z</time>
      </trkpt>
      <trkpt lat="47.53631" lon="-2.80468">
        <ele>7.7</ele>
        <time>2026-08-29T12:26:09Z</time>
      </trkpt>
      <trkpt lat="47.53631" lon="-2.80474">
        <ele>7.7</ele>
        <time>2026-08-29T12:26:10Z</time>
      </trkpt>
      <trkpt lat="47.53631" lon="-2.8048">
        <ele>7.7</ele>
        <time>2026-08-29T12:26:11Z</time>
      </trkpt>
      <trkpt lat="47.5363" lon="-2.80485">
        <ele>7.7</ele>
        <time>2026-08-29T12:26:12Z</time>
      </trkpt>
      <trkpt lat="47.5363" lon="-2.80491">
        <ele>7.7</ele>
        <time>2026-08-29T12:26:13Z</time>
      </trkpt>
      <trkpt lat="47.5363" lon="-2.80497">
        <ele>7.7</ele>
        <time>2026-08-29T12:26:14Z</time>
      </trkpt>
      <trkpt lat="47.5363" lon="-2.80502">
        <ele>7.7</ele>
        <time>2026-08-29T12:26:15Z</time>
      </trkpt>
      <trkpt lat="47.5363" lon="-2.80508">
        <ele>7.7</ele>
        <time>2026-08-29T12:26:16Z</time>
      </trkpt>
      <trkpt lat="47.53629" lon="-2.80513">
        <ele>7.6</ele>
        <time>2026-08-29T12:26:17Z</time>
      </trkpt>
      <trkpt lat="47.5363" lon="-2.80518">
        <ele>7.7</ele>
        <time>2026-08-29T12:26:18Z</time>
      </trkpt>
      <trkpt lat="47.53631" lon="-2.80523">
        <ele>7.7</ele>
        <time>2026-08-29T12:26:19Z</time>
      </trkpt>
      <trkpt lat="47.53632" lon="-2.80529">
        <ele>7.8</ele>
        <time>2026-08-29T12:26:20Z</time>
      </trkpt>
      <trkpt lat="47.53632" lon="-2.80535">
        <ele>7.8</ele>
        <time>2026-08-29T12:26:21Z</time>
      </trkpt>
      <trkpt lat="47.53632" lon="-2.80541">
        <ele>7.8</ele>
        <time>2026-08-29T12:26:22Z</time>
      </trkpt>
      <trkpt lat="47.53631" lon="-2.80547">
        <ele>7.7</ele>
        <time>2026-08-29T12:26:23Z</time>
      </trkpt>
      <trkpt lat="47.5363" lon="-2.80553">
        <ele>7.7</ele>
        <time>2026-08-29T12:26:24Z</time>
      </trkpt>
      <trkpt lat="47.53629" lon="-2.80559">
        <ele>7.7</ele>
        <time>2026-08-29T12:26:25Z</time>
      </trkpt>
      <trkpt lat="47.53628" lon="-2.80565">
        <ele>7.7</ele>
        <time>2026-08-29T12:26:26Z</time>
      </trkpt>
      <trkpt lat="47.53628" lon="-2.8057">
        <ele>7.8</ele>
        <time>2026-08-29T12:26:27Z</time>
      </trkpt>
      <trkpt lat="47.53627" lon="-2.80575">
        <ele>7.9</ele>
        <time>2026-08-29T12:26:28Z</time>
      </trkpt>
      <trkpt lat="47.53625" lon="-2.8058">
        <ele>7.9</ele>
        <time>2026-08-29T12:26:29Z</time>
      </trkpt>
      <trkpt lat="47.53623" lon="-2.80586">
        <ele>8</ele>
        <time>2026-08-29T12:26:30Z</time>
      </trkpt>
      <trkpt lat="47.53621" lon="-2.80591">
        <ele>8.1</ele>
        <time>2026-08-29T12:26:31Z</time>
      </trkpt>
      <trkpt lat="47.5362" lon="-2.80597">
        <ele>8.2</ele>
        <time>2026-08-29T12:26:32Z</time>
      </trkpt>
      <trkpt lat="47.53618" lon="-2.80602">
        <ele>8.2</ele>
        <time>2026-08-29T12:26:33Z</time>
      </trkpt>
      <trkpt lat="47.53617" lon="-2.80608">
        <ele>8.2</ele>
        <time>2026-08-29T12:26:34Z</time>
      </trkpt>
      <trkpt lat="47.53616" lon="-2.80614">
        <ele>8.2</ele>
        <time>2026-08-29T12:26:35Z</time>
      </trkpt>
      <trkpt lat="47.53615" lon="-2.80618">
        <ele>8.1</ele>
        <time>2026-08-29T12:26:36Z</time>
      </trkpt>
      <trkpt lat="47.53614" lon="-2.80623">
        <ele>8.1</ele>
        <time>2026-08-29T12:26:37Z</time>
      </trkpt>
      <trkpt lat="47.53613" lon="-2.80628">
        <ele>8.1</ele>
        <time>2026-08-29T12:26:38Z</time>
      </trkpt>
      <trkpt lat="47.53612" lon="-2.80633">
        <ele>8</ele>
        <time>2026-08-29T12:26:39Z</time>
      </trkpt>
      <trkpt lat="47.5361" lon="-2.80639">
        <ele>8</ele>
        <time>2026-08-29T12:26:40Z</time>
      </trkpt>
      <trkpt lat="47.53609" lon="-2.80644">
        <ele>8.2</ele>
        <time>2026-08-29T12:26:41Z</time>
      </trkpt>
      <trkpt lat="47.53608" lon="-2.80649">
        <ele>8.3</ele>
        <time>2026-08-29T12:26:42Z</time>
      </trkpt>
      <trkpt lat="47.53606" lon="-2.80655">
        <ele>8.5</ele>
        <time>2026-08-29T12:26:43Z</time>
      </trkpt>
      <trkpt lat="47.53604" lon="-2.8066">
        <ele>8.6</ele>
        <time>2026-08-29T12:26:44Z</time>
      </trkpt>
      <trkpt lat="47.53603" lon="-2.80665">
        <ele>8.7</ele>
        <time>2026-08-29T12:26:45Z</time>
      </trkpt>
      <trkpt lat="47.53601" lon="-2.80669">
        <ele>8.7</ele>
        <time>2026-08-29T12:26:46Z</time>
      </trkpt>
      <trkpt lat="47.53599" lon="-2.80674">
        <ele>8.7</ele>
        <time>2026-08-29T12:26:47Z</time>
      </trkpt>
      <trkpt lat="47.53596" lon="-2.80679">
        <ele>8.7</ele>
        <time>2026-08-29T12:26:48Z</time>
      </trkpt>
      <trkpt lat="47.53594" lon="-2.80684">
        <ele>8.8</ele>
        <time>2026-08-29T12:26:49Z</time>
      </trkpt>
      <trkpt lat="47.53592" lon="-2.80689">
        <ele>8.9</ele>
        <time>2026-08-29T12:26:50Z</time>
      </trkpt>
      <trkpt lat="47.53591" lon="-2.80694">
        <ele>9</ele>
        <time>2026-08-29T12:26:51Z</time>
      </trkpt>
      <trkpt lat="47.53591" lon="-2.80699">
        <ele>9</ele>
        <time>2026-08-29T12:26:52Z</time>
      </trkpt>
      <trkpt lat="47.53592" lon="-2.80702">
        <ele>9.1</ele>
        <time>2026-08-29T12:26:53Z</time>
      </trkpt>
      <trkpt lat="47.53594" lon="-2.80703">
        <ele>9.1</ele>
        <time>2026-08-29T12:26:54Z</time>
      </trkpt>
      <trkpt lat="47.53596" lon="-2.80703">
        <ele>9.1</ele>
        <time>2026-08-29T12:26:55Z</time>
      </trkpt>
      <trkpt lat="47.53599" lon="-2.80703">
        <ele>9.2</ele>
        <time>2026-08-29T12:26:56Z</time>
      </trkpt>
      <trkpt lat="47.53602" lon="-2.80702">
        <ele>9.2</ele>
        <time>2026-08-29T12:26:57Z</time>
      </trkpt>
      <trkpt lat="47.53606" lon="-2.80702">
        <ele>9.2</ele>
        <time>2026-08-29T12:26:58Z</time>
      </trkpt>
      <trkpt lat="47.53609" lon="-2.80701">
        <ele>9.2</ele>
        <time>2026-08-29T12:26:59Z</time>
      </trkpt>
      <trkpt lat="47.53612" lon="-2.80701">
        <ele>9.3</ele>
        <time>2026-08-29T12:27:00Z</time>
      </trkpt>
      <trkpt lat="47.53616" lon="-2.807">
        <ele>9.4</ele>
        <time>2026-08-29T12:27:01Z</time>
      </trkpt>
      <trkpt lat="47.53619" lon="-2.80699">
        <ele>9.4</ele>
        <time>2026-08-29T12:27:02Z</time>
      </trkpt>
      <trkpt lat="47.53623" lon="-2.80699">
        <ele>9.6</ele>
        <time>2026-08-29T12:27:03Z</time>
      </trkpt>
      <trkpt lat="47.53626" lon="-2.80698">
        <ele>9.7</ele>
        <time>2026-08-29T12:27:04Z</time>
      </trkpt>
      <trkpt lat="47.5363" lon="-2.80697">
        <ele>9.8</ele>
        <time>2026-08-29T12:27:05Z</time>
      </trkpt>
      <trkpt lat="47.53633" lon="-2.80696">
        <ele>9.8</ele>
        <time>2026-08-29T12:27:06Z</time>
      </trkpt>
      <trkpt lat="47.53637" lon="-2.80694">
        <ele>9.9</ele>
        <time>2026-08-29T12:27:07Z</time>
      </trkpt>
      <trkpt lat="47.5364" lon="-2.80693">
        <ele>10.1</ele>
        <time>2026-08-29T12:27:08Z</time>
      </trkpt>
      <trkpt lat="47.53643" lon="-2.80692">
        <ele>10.3</ele>
        <time>2026-08-29T12:27:09Z</time>
      </trkpt>
      <trkpt lat="47.53646" lon="-2.80691">
        <ele>10.5</ele>
        <time>2026-08-29T12:27:10Z</time>
      </trkpt>
      <trkpt lat="47.5365" lon="-2.8069">
        <ele>10.7</ele>
        <time>2026-08-29T12:27:11Z</time>
      </trkpt>
      <trkpt lat="47.53653" lon="-2.80689">
        <ele>10.9</ele>
        <time>2026-08-29T12:27:12Z</time>
      </trkpt>
      <trkpt lat="47.53657" lon="-2.80688">
        <ele>11.2</ele>
        <time>2026-08-29T12:27:13Z</time>
      </trkpt>
      <trkpt lat="47.5366" lon="-2.80687">
        <ele>11.3</ele>
        <time>2026-08-29T12:27:14Z</time>
      </trkpt>
      <trkpt lat="47.53663" lon="-2.80686">
        <ele>11.5</ele>
        <time>2026-08-29T12:27:15Z</time>
      </trkpt>
      <trkpt lat="47.53666" lon="-2.80685">
        <ele>11.6</ele>
        <time>2026-08-29T12:27:16Z</time>
      </trkpt>
      <trkpt lat="47.53669" lon="-2.80684">
        <ele>11.7</ele>
        <time>2026-08-29T12:27:17Z</time>
      </trkpt>
      <trkpt lat="47.53672" lon="-2.80684">
        <ele>11.8</ele>
        <time>2026-08-29T12:27:18Z</time>
      </trkpt>
      <trkpt lat="47.53675" lon="-2.80683">
        <ele>11.9</ele>
        <time>2026-08-29T12:27:19Z</time>
      </trkpt>
      <trkpt lat="47.53679" lon="-2.80683">
        <ele>12</ele>
        <time>2026-08-29T12:27:20Z</time>
      </trkpt>
      <trkpt lat="47.53682" lon="-2.80682">
        <ele>12.1</ele>
        <time>2026-08-29T12:27:21Z</time>
      </trkpt>
      <trkpt lat="47.53685" lon="-2.80681">
        <ele>12.2</ele>
        <time>2026-08-29T12:27:22Z</time>
      </trkpt>
      <trkpt lat="47.53688" lon="-2.80681">
        <ele>12.3</ele>
        <time>2026-08-29T12:27:23Z</time>
      </trkpt>
      <trkpt lat="47.53691" lon="-2.8068">
        <ele>12.4</ele>
        <time>2026-08-29T12:27:24Z</time>
      </trkpt>
      <trkpt lat="47.53695" lon="-2.8068">
        <ele>12.5</ele>
        <time>2026-08-29T12:27:25Z</time>
      </trkpt>
      <trkpt lat="47.53698" lon="-2.8068">
        <ele>12.4</ele>
        <time>2026-08-29T12:27:26Z</time>
      </trkpt>
      <trkpt lat="47.53701" lon="-2.80679">
        <ele>12.3</ele>
        <time>2026-08-29T12:27:27Z</time>
      </trkpt>
      <trkpt lat="47.53704" lon="-2.80678">
        <ele>12.3</ele>
        <time>2026-08-29T12:27:28Z</time>
      </trkpt>
      <trkpt lat="47.53708" lon="-2.80678">
        <ele>12.2</ele>
        <time>2026-08-29T12:27:29Z</time>
      </trkpt>
      <trkpt lat="47.53711" lon="-2.80677">
        <ele>12.2</ele>
        <time>2026-08-29T12:27:30Z</time>
      </trkpt>
      <trkpt lat="47.53714" lon="-2.80677">
        <ele>12.1</ele>
        <time>2026-08-29T12:27:31Z</time>
      </trkpt>
      <trkpt lat="47.53717" lon="-2.80677">
        <ele>12.1</ele>
        <time>2026-08-29T12:27:32Z</time>
      </trkpt>
      <trkpt lat="47.53721" lon="-2.80676">
        <ele>12</ele>
        <time>2026-08-29T12:27:33Z</time>
      </trkpt>
      <trkpt lat="47.53724" lon="-2.80676">
        <ele>11.9</ele>
        <time>2026-08-29T12:27:34Z</time>
      </trkpt>
      <trkpt lat="47.53728" lon="-2.80675">
        <ele>11.8</ele>
        <time>2026-08-29T12:27:35Z</time>
      </trkpt>
      <trkpt lat="47.53731" lon="-2.80675">
        <ele>11.7</ele>
        <time>2026-08-29T12:27:36Z</time>
      </trkpt>
      <trkpt lat="47.53733" lon="-2.80676">
        <ele>11.6</ele>
        <time>2026-08-29T12:27:37Z</time>
      </trkpt>
      <trkpt lat="47.53735" lon="-2.80678">
        <ele>11.5</ele>
        <time>2026-08-29T12:27:38Z</time>
      </trkpt>
      <trkpt lat="47.53736" lon="-2.8068">
        <ele>11.5</ele>
        <time>2026-08-29T12:27:39Z</time>
      </trkpt>
      <trkpt lat="47.53737" lon="-2.80683">
        <ele>11.5</ele>
        <time>2026-08-29T12:27:40Z</time>
      </trkpt>
      <trkpt lat="47.53737" lon="-2.80686">
        <ele>11.5</ele>
        <time>2026-08-29T12:27:41Z</time>
      </trkpt>
      <trkpt lat="47.53737" lon="-2.80691">
        <ele>11.5</ele>
        <time>2026-08-29T12:27:42Z</time>
      </trkpt>
      <trkpt lat="47.53736" lon="-2.80695">
        <ele>11.5</ele>
        <time>2026-08-29T12:27:43Z</time>
      </trkpt>
      <trkpt lat="47.53736" lon="-2.807">
        <ele>11.5</ele>
        <time>2026-08-29T12:27:44Z</time>
      </trkpt>
      <trkpt lat="47.53735" lon="-2.80705">
        <ele>11.5</ele>
        <time>2026-08-29T12:27:45Z</time>
      </trkpt>
      <trkpt lat="47.53734" lon="-2.80711">
        <ele>11.6</ele>
        <time>2026-08-29T12:27:46Z</time>
      </trkpt>
      <trkpt lat="47.53733" lon="-2.80717">
        <ele>11.6</ele>
        <time>2026-08-29T12:27:47Z</time>
      </trkpt>
      <trkpt lat="47.53733" lon="-2.80723">
        <ele>11.6</ele>
        <time>2026-08-29T12:27:48Z</time>
      </trkpt>
      <trkpt lat="47.53733" lon="-2.8073">
        <ele>11.4</ele>
        <time>2026-08-29T12:27:49Z</time>
      </trkpt>
      <trkpt lat="47.53733" lon="-2.80737">
        <ele>11.3</ele>
        <time>2026-08-29T12:27:50Z</time>
      </trkpt>
      <trkpt lat="47.53734" lon="-2.80742">
        <ele>11.2</ele>
        <time>2026-08-29T12:27:51Z</time>
      </trkpt>
      <trkpt lat="47.53735" lon="-2.80748">
        <ele>11</ele>
        <time>2026-08-29T12:27:52Z</time>
      </trkpt>
      <trkpt lat="47.53735" lon="-2.80755">
        <ele>11</ele>
        <time>2026-08-29T12:27:53Z</time>
      </trkpt>
      <trkpt lat="47.53735" lon="-2.80761">
        <ele>11</ele>
        <time>2026-08-29T12:27:54Z</time>
      </trkpt>
      <trkpt lat="47.53734" lon="-2.80767">
        <ele>11</ele>
        <time>2026-08-29T12:27:55Z</time>
      </trkpt>
      <trkpt lat="47.53734" lon="-2.80773">
        <ele>11</ele>
        <time>2026-08-29T12:27:56Z</time>
      </trkpt>
      <trkpt lat="47.53734" lon="-2.80779">
        <ele>11</ele>
        <time>2026-08-29T12:27:57Z</time>
      </trkpt>
      <trkpt lat="47.53734" lon="-2.80785">
        <ele>11</ele>
        <time>2026-08-29T12:27:58Z</time>
      </trkpt>
      <trkpt lat="47.53734" lon="-2.80791">
        <ele>11</ele>
        <time>2026-08-29T12:27:59Z</time>
      </trkpt>
      <trkpt lat="47.53734" lon="-2.80797">
        <ele>11</ele>
        <time>2026-08-29T12:28:00Z</time>
      </trkpt>
      <trkpt lat="47.53735" lon="-2.80803">
        <ele>11</ele>
        <time>2026-08-29T12:28:01Z</time>
      </trkpt>
      <trkpt lat="47.53734" lon="-2.80809">
        <ele>11</ele>
        <time>2026-08-29T12:28:02Z</time>
      </trkpt>
      <trkpt lat="47.53734" lon="-2.80814">
        <ele>11</ele>
        <time>2026-08-29T12:28:03Z</time>
      </trkpt>
      <trkpt lat="47.53734" lon="-2.80819">
        <ele>11</ele>
        <time>2026-08-29T12:28:04Z</time>
      </trkpt>
      <trkpt lat="47.53734" lon="-2.80825">
        <ele>11</ele>
        <time>2026-08-29T12:28:05Z</time>
      </trkpt>
      <trkpt lat="47.53735" lon="-2.8083">
        <ele>11</ele>
        <time>2026-08-29T12:28:06Z</time>
      </trkpt>
      <trkpt lat="47.53735" lon="-2.80835">
        <ele>11</ele>
        <time>2026-08-29T12:28:07Z</time>
      </trkpt>
      <trkpt lat="47.53735" lon="-2.80841">
        <ele>11</ele>
        <time>2026-08-29T12:28:08Z</time>
      </trkpt>
      <trkpt lat="47.53735" lon="-2.80847">
        <ele>11</ele>
        <time>2026-08-29T12:28:09Z</time>
      </trkpt>
      <trkpt lat="47.53735" lon="-2.80853">
        <ele>11</ele>
        <time>2026-08-29T12:28:10Z</time>
      </trkpt>
      <trkpt lat="47.53735" lon="-2.80859">
        <ele>11</ele>
        <time>2026-08-29T12:28:11Z</time>
      </trkpt>
      <trkpt lat="47.53736" lon="-2.80864">
        <ele>11</ele>
        <time>2026-08-29T12:28:12Z</time>
      </trkpt>
      <trkpt lat="47.53737" lon="-2.80869">
        <ele>11</ele>
        <time>2026-08-29T12:28:13Z</time>
      </trkpt>
      <trkpt lat="47.5374" lon="-2.80872">
        <ele>11</ele>
        <time>2026-08-29T12:28:14Z</time>
      </trkpt>
      <trkpt lat="47.53743" lon="-2.80873">
        <ele>11</ele>
        <time>2026-08-29T12:28:15Z</time>
      </trkpt>
      <trkpt lat="47.53745" lon="-2.80875">
        <ele>11</ele>
        <time>2026-08-29T12:28:16Z</time>
      </trkpt>
      <trkpt lat="47.53746" lon="-2.80877">
        <ele>11</ele>
        <time>2026-08-29T12:28:17Z</time>
      </trkpt>
      <trkpt lat="47.53747" lon="-2.8088">
        <ele>11</ele>
        <time>2026-08-29T12:28:18Z</time>
      </trkpt>
      <trkpt lat="47.53746" lon="-2.80884">
        <ele>11</ele>
        <time>2026-08-29T12:28:19Z</time>
      </trkpt>
      <trkpt lat="47.53746" lon="-2.80889">
        <ele>11</ele>
        <time>2026-08-29T12:28:20Z</time>
      </trkpt>
      <trkpt lat="47.53747" lon="-2.80894">
        <ele>11</ele>
        <time>2026-08-29T12:28:21Z</time>
      </trkpt>
      <trkpt lat="47.53747" lon="-2.80899">
        <ele>11</ele>
        <time>2026-08-29T12:28:22Z</time>
      </trkpt>
      <trkpt lat="47.53748" lon="-2.80904">
        <ele>11</ele>
        <time>2026-08-29T12:28:23Z</time>
      </trkpt>
      <trkpt lat="47.5375" lon="-2.80909">
        <ele>11</ele>
        <time>2026-08-29T12:28:24Z</time>
      </trkpt>
      <trkpt lat="47.53751" lon="-2.80914">
        <ele>11</ele>
        <time>2026-08-29T12:28:25Z</time>
      </trkpt>
      <trkpt lat="47.53753" lon="-2.80918">
        <ele>10.9</ele>
        <time>2026-08-29T12:28:26Z</time>
      </trkpt>
      <trkpt lat="47.53756" lon="-2.80923">
        <ele>10.8</ele>
        <time>2026-08-29T12:28:27Z</time>
      </trkpt>
      <trkpt lat="47.53757" lon="-2.80929">
        <ele>10.7</ele>
        <time>2026-08-29T12:28:28Z</time>
      </trkpt>
      <trkpt lat="47.53757" lon="-2.80935">
        <ele>10.7</ele>
        <time>2026-08-29T12:28:29Z</time>
      </trkpt>
      <trkpt lat="47.53757" lon="-2.8094">
        <ele>10.7</ele>
        <time>2026-08-29T12:28:30Z</time>
      </trkpt>
      <trkpt lat="47.53757" lon="-2.80946">
        <ele>10.7</ele>
        <time>2026-08-29T12:28:31Z</time>
      </trkpt>
      <trkpt lat="47.53757" lon="-2.80952">
        <ele>10.7</ele>
        <time>2026-08-29T12:28:32Z</time>
      </trkpt>
      <trkpt lat="47.53757" lon="-2.80958">
        <ele>10.7</ele>
        <time>2026-08-29T12:28:33Z</time>
      </trkpt>
      <trkpt lat="47.53757" lon="-2.80965">
        <ele>10.7</ele>
        <time>2026-08-29T12:28:34Z</time>
      </trkpt>
      <trkpt lat="47.53757" lon="-2.80971">
        <ele>10.7</ele>
        <time>2026-08-29T12:28:35Z</time>
      </trkpt>
      <trkpt lat="47.53757" lon="-2.80977">
        <ele>10.7</ele>
        <time>2026-08-29T12:28:36Z</time>
      </trkpt>
      <trkpt lat="47.53756" lon="-2.80983">
        <ele>10.8</ele>
        <time>2026-08-29T12:28:37Z</time>
      </trkpt>
      <trkpt lat="47.53756" lon="-2.80989">
        <ele>10.8</ele>
        <time>2026-08-29T12:28:38Z</time>
      </trkpt>
      <trkpt lat="47.53756" lon="-2.80996">
        <ele>10.8</ele>
        <time>2026-08-29T12:28:39Z</time>
      </trkpt>
      <trkpt lat="47.53756" lon="-2.81002">
        <ele>10.8</ele>
        <time>2026-08-29T12:28:40Z</time>
      </trkpt>
      <trkpt lat="47.53756" lon="-2.81007">
        <ele>10.8</ele>
        <time>2026-08-29T12:28:41Z</time>
      </trkpt>
      <trkpt lat="47.53758" lon="-2.81012">
        <ele>10.7</ele>
        <time>2026-08-29T12:28:42Z</time>
      </trkpt>
      <trkpt lat="47.5376" lon="-2.81016">
        <ele>10.6</ele>
        <time>2026-08-29T12:28:43Z</time>
      </trkpt>
      <trkpt lat="47.53762" lon="-2.8102">
        <ele>10.6</ele>
        <time>2026-08-29T12:28:44Z</time>
      </trkpt>
      <trkpt lat="47.53765" lon="-2.81022">
        <ele>10.5</ele>
        <time>2026-08-29T12:28:45Z</time>
      </trkpt>
      <trkpt lat="47.53767" lon="-2.81025">
        <ele>10.4</ele>
        <time>2026-08-29T12:28:46Z</time>
      </trkpt>
      <trkpt lat="47.5377" lon="-2.81028">
        <ele>10.3</ele>
        <time>2026-08-29T12:28:47Z</time>
      </trkpt>
      <trkpt lat="47.53772" lon="-2.81031">
        <ele>10.2</ele>
        <time>2026-08-29T12:28:48Z</time>
      </trkpt>
      <trkpt lat="47.53775" lon="-2.81034">
        <ele>10.1</ele>
        <time>2026-08-29T12:28:49Z</time>
      </trkpt>
      <trkpt lat="47.53779" lon="-2.81038">
        <ele>10</ele>
        <time>2026-08-29T12:28:50Z</time>
      </trkpt>
      <trkpt lat="47.53782" lon="-2.81042">
        <ele>9.8</ele>
        <time>2026-08-29T12:28:51Z</time>
      </trkpt>
      <trkpt lat="47.53786" lon="-2.81046">
        <ele>9.7</ele>
        <time>2026-08-29T12:28:52Z</time>
      </trkpt>
      <trkpt lat="47.5379" lon="-2.81051">
        <ele>9.6</ele>
        <time>2026-08-29T12:28:53Z</time>
      </trkpt>
      <trkpt lat="47.53793" lon="-2.81055">
        <ele>9.5</ele>
        <time>2026-08-29T12:28:54Z</time>
      </trkpt>
      <trkpt lat="47.53798" lon="-2.8106">
        <ele>9.2</ele>
        <time>2026-08-29T12:28:55Z</time>
      </trkpt>
      <trkpt lat="47.53802" lon="-2.81064">
        <ele>8.9</ele>
        <time>2026-08-29T12:28:56Z</time>
      </trkpt>
      <trkpt lat="47.53807" lon="-2.81069">
        <ele>8.5</ele>
        <time>2026-08-29T12:28:57Z</time>
      </trkpt>
      <trkpt lat="47.53812" lon="-2.81073">
        <ele>8.4</ele>
        <time>2026-08-29T12:28:58Z</time>
      </trkpt>
      <trkpt lat="47.53816" lon="-2.81078">
        <ele>8.2</ele>
        <time>2026-08-29T12:28:59Z</time>
      </trkpt>
      <trkpt lat="47.53821" lon="-2.81083">
        <ele>8</ele>
        <time>2026-08-29T12:29:00Z</time>
      </trkpt>
      <trkpt lat="47.53825" lon="-2.81087">
        <ele>8</ele>
        <time>2026-08-29T12:29:01Z</time>
      </trkpt>
      <trkpt lat="47.5383" lon="-2.81091">
        <ele>8</ele>
        <time>2026-08-29T12:29:02Z</time>
      </trkpt>
      <trkpt lat="47.53835" lon="-2.81096">
        <ele>8</ele>
        <time>2026-08-29T12:29:03Z</time>
      </trkpt>
      <trkpt lat="47.53839" lon="-2.81101">
        <ele>7.9</ele>
        <time>2026-08-29T12:29:04Z</time>
      </trkpt>
      <trkpt lat="47.53843" lon="-2.81106">
        <ele>7.7</ele>
        <time>2026-08-29T12:29:05Z</time>
      </trkpt>
      <trkpt lat="47.53845" lon="-2.81112">
        <ele>7.6</ele>
        <time>2026-08-29T12:29:06Z</time>
      </trkpt>
      <trkpt lat="47.53847" lon="-2.81117">
        <ele>7.4</ele>
        <time>2026-08-29T12:29:07Z</time>
      </trkpt>
      <trkpt lat="47.53848" lon="-2.81124">
        <ele>7.2</ele>
        <time>2026-08-29T12:29:08Z</time>
      </trkpt>
      <trkpt lat="47.53849" lon="-2.8113">
        <ele>7.1</ele>
        <time>2026-08-29T12:29:09Z</time>
      </trkpt>
      <trkpt lat="47.53849" lon="-2.81137">
        <ele>6.9</ele>
        <time>2026-08-29T12:29:10Z</time>
      </trkpt>
      <trkpt lat="47.5385" lon="-2.81144">
        <ele>6.7</ele>
        <time>2026-08-29T12:29:11Z</time>
      </trkpt>
      <trkpt lat="47.53851" lon="-2.81151">
        <ele>6.4</ele>
        <time>2026-08-29T12:29:12Z</time>
      </trkpt>
      <trkpt lat="47.53852" lon="-2.81158">
        <ele>6.2</ele>
        <time>2026-08-29T12:29:13Z</time>
      </trkpt>
      <trkpt lat="47.53853" lon="-2.81164">
        <ele>6.1</ele>
        <time>2026-08-29T12:29:14Z</time>
      </trkpt>
      <trkpt lat="47.53855" lon="-2.8117">
        <ele>6.1</ele>
        <time>2026-08-29T12:29:15Z</time>
      </trkpt>
      <trkpt lat="47.53856" lon="-2.81176">
        <ele>6.3</ele>
        <time>2026-08-29T12:29:16Z</time>
      </trkpt>
      <trkpt lat="47.53858" lon="-2.81182">
        <ele>6.6</ele>
        <time>2026-08-29T12:29:17Z</time>
      </trkpt>
      <trkpt lat="47.53861" lon="-2.81187">
        <ele>6.7</ele>
        <time>2026-08-29T12:29:18Z</time>
      </trkpt>
      <trkpt lat="47.53864" lon="-2.81191">
        <ele>6.8</ele>
        <time>2026-08-29T12:29:19Z</time>
      </trkpt>
      <trkpt lat="47.53868" lon="-2.81193">
        <ele>6.7</ele>
        <time>2026-08-29T12:29:20Z</time>
      </trkpt>
      <trkpt lat="47.53872" lon="-2.81195">
        <ele>6.6</ele>
        <time>2026-08-29T12:29:21Z</time>
      </trkpt>
      <trkpt lat="47.53877" lon="-2.81196">
        <ele>6.4</ele>
        <time>2026-08-29T12:29:22Z</time>
      </trkpt>
      <trkpt lat="47.53881" lon="-2.81197">
        <ele>6.3</ele>
        <time>2026-08-29T12:29:23Z</time>
      </trkpt>
      <trkpt lat="47.53885" lon="-2.81198">
        <ele>6.1</ele>
        <time>2026-08-29T12:29:24Z</time>
      </trkpt>
      <trkpt lat="47.5389" lon="-2.81199">
        <ele>6</ele>
        <time>2026-08-29T12:29:25Z</time>
      </trkpt>
      <trkpt lat="47.53894" lon="-2.81201">
        <ele>6.1</ele>
        <time>2026-08-29T12:29:26Z</time>
      </trkpt>
      <trkpt lat="47.53899" lon="-2.81202">
        <ele>6.3</ele>
        <time>2026-08-29T12:29:27Z</time>
      </trkpt>
      <trkpt lat="47.53903" lon="-2.81205">
        <ele>6.3</ele>
        <time>2026-08-29T12:29:28Z</time>
      </trkpt>
      <trkpt lat="47.53906" lon="-2.81209">
        <ele>6.3</ele>
        <time>2026-08-29T12:29:29Z</time>
      </trkpt>
      <trkpt lat="47.53909" lon="-2.81214">
        <ele>6.2</ele>
        <time>2026-08-29T12:29:30Z</time>
      </trkpt>
      <trkpt lat="47.53911" lon="-2.81219">
        <ele>6.1</ele>
        <time>2026-08-29T12:29:31Z</time>
      </trkpt>
      <trkpt lat="47.53913" lon="-2.81225">
        <ele>6</ele>
        <time>2026-08-29T12:29:32Z</time>
      </trkpt>
      <trkpt lat="47.53915" lon="-2.81231">
        <ele>6</ele>
        <time>2026-08-29T12:29:33Z</time>
      </trkpt>
      <trkpt lat="47.53917" lon="-2.81237">
        <ele>6</ele>
        <time>2026-08-29T12:29:34Z</time>
      </trkpt>
      <trkpt lat="47.53919" lon="-2.81243">
        <ele>6</ele>
        <time>2026-08-29T12:29:35Z</time>
      </trkpt>
      <trkpt lat="47.53921" lon="-2.81248">
        <ele>6</ele>
        <time>2026-08-29T12:29:36Z</time>
      </trkpt>
      <trkpt lat="47.53923" lon="-2.81254">
        <ele>6</ele>
        <time>2026-08-29T12:29:37Z</time>
      </trkpt>
      <trkpt lat="47.53925" lon="-2.81259">
        <ele>6</ele>
        <time>2026-08-29T12:29:38Z</time>
      </trkpt>
      <trkpt lat="47.53927" lon="-2.81265">
        <ele>6</ele>
        <time>2026-08-29T12:29:39Z</time>
      </trkpt>
      <trkpt lat="47.53929" lon="-2.81271">
        <ele>6</ele>
        <time>2026-08-29T12:29:40Z</time>
      </trkpt>
      <trkpt lat="47.5393" lon="-2.81277">
        <ele>6</ele>
        <time>2026-08-29T12:29:41Z</time>
      </trkpt>
      <trkpt lat="47.53931" lon="-2.81284">
        <ele>5.8</ele>
        <time>2026-08-29T12:29:42Z</time>
      </trkpt>
      <trkpt lat="47.53932" lon="-2.8129">
        <ele>5.6</ele>
        <time>2026-08-29T12:29:43Z</time>
      </trkpt>
      <trkpt lat="47.53933" lon="-2.81297">
        <ele>5.4</ele>
        <time>2026-08-29T12:29:44Z</time>
      </trkpt>
      <trkpt lat="47.53934" lon="-2.81304">
        <ele>5.3</ele>
        <time>2026-08-29T12:29:45Z</time>
      </trkpt>
      <trkpt lat="47.53934" lon="-2.8131">
        <ele>5.4</ele>
        <time>2026-08-29T12:29:46Z</time>
      </trkpt>
      <trkpt lat="47.53935" lon="-2.81317">
        <ele>5.6</ele>
        <time>2026-08-29T12:29:47Z</time>
      </trkpt>
      <trkpt lat="47.53936" lon="-2.81323">
        <ele>5.8</ele>
        <time>2026-08-29T12:29:48Z</time>
      </trkpt>
      <trkpt lat="47.53936" lon="-2.8133">
        <ele>5.9</ele>
        <time>2026-08-29T12:29:49Z</time>
      </trkpt>
      <trkpt lat="47.53936" lon="-2.81336">
        <ele>6</ele>
        <time>2026-08-29T12:29:50Z</time>
      </trkpt>
      <trkpt lat="47.53935" lon="-2.81342">
        <ele>6.1</ele>
        <time>2026-08-29T12:29:51Z</time>
      </trkpt>
      <trkpt lat="47.53934" lon="-2.81348">
        <ele>6.2</ele>
        <time>2026-08-29T12:29:52Z</time>
      </trkpt>
      <trkpt lat="47.53934" lon="-2.81354">
        <ele>6.3</ele>
        <time>2026-08-29T12:29:53Z</time>
      </trkpt>
      <trkpt lat="47.53933" lon="-2.8136">
        <ele>6.4</ele>
        <time>2026-08-29T12:29:54Z</time>
      </trkpt>
      <trkpt lat="47.53932" lon="-2.81365">
        <ele>6.4</ele>
        <time>2026-08-29T12:29:55Z</time>
      </trkpt>
      <trkpt lat="47.53931" lon="-2.8137">
        <ele>6.5</ele>
        <time>2026-08-29T12:29:56Z</time>
      </trkpt>
      <trkpt lat="47.53929" lon="-2.81375">
        <ele>6.6</ele>
        <time>2026-08-29T12:29:57Z</time>
      </trkpt>
      <trkpt lat="47.53928" lon="-2.81379">
        <ele>6.6</ele>
        <time>2026-08-29T12:29:58Z</time>
      </trkpt>
      <trkpt lat="47.53926" lon="-2.81383">
        <ele>6.7</ele>
        <time>2026-08-29T12:29:59Z</time>
      </trkpt>
      <trkpt lat="47.53925" lon="-2.81388">
        <ele>6.7</ele>
        <time>2026-08-29T12:30:00Z</time>
      </trkpt>
      <trkpt lat="47.53923" lon="-2.81393">
        <ele>6.9</ele>
        <time>2026-08-29T12:30:01Z</time>
      </trkpt>
      <trkpt lat="47.53921" lon="-2.81397">
        <ele>7.1</ele>
        <time>2026-08-29T12:30:02Z</time>
      </trkpt>
      <trkpt lat="47.5392" lon="-2.81401">
        <ele>7.3</ele>
        <time>2026-08-29T12:30:03Z</time>
      </trkpt>
      <trkpt lat="47.53918" lon="-2.81405">
        <ele>7.5</ele>
        <time>2026-08-29T12:30:04Z</time>
      </trkpt>
      <trkpt lat="47.53916" lon="-2.81409">
        <ele>7.7</ele>
        <time>2026-08-29T12:30:05Z</time>
      </trkpt>
      <trkpt lat="47.53914" lon="-2.81414">
        <ele>8</ele>
        <time>2026-08-29T12:30:06Z</time>
      </trkpt>
      <trkpt lat="47.53913" lon="-2.81418">
        <ele>8.2</ele>
        <time>2026-08-29T12:30:07Z</time>
      </trkpt>
      <trkpt lat="47.53911" lon="-2.81422">
        <ele>8.4</ele>
        <time>2026-08-29T12:30:08Z</time>
      </trkpt>
      <trkpt lat="47.5391" lon="-2.81426">
        <ele>8.5</ele>
        <time>2026-08-29T12:30:09Z</time>
      </trkpt>
      <trkpt lat="47.53908" lon="-2.8143">
        <ele>8.6</ele>
        <time>2026-08-29T12:30:10Z</time>
      </trkpt>
      <trkpt lat="47.53907" lon="-2.81433">
        <ele>8.7</ele>
        <time>2026-08-29T12:30:11Z</time>
      </trkpt>
      <trkpt lat="47.53906" lon="-2.81437">
        <ele>8.8</ele>
        <time>2026-08-29T12:30:12Z</time>
      </trkpt>
      <trkpt lat="47.53905" lon="-2.8144">
        <ele>8.9</ele>
        <time>2026-08-29T12:30:13Z</time>
      </trkpt>
      <trkpt lat="47.53904" lon="-2.81444">
        <ele>9</ele>
        <time>2026-08-29T12:30:14Z</time>
      </trkpt>
      <trkpt lat="47.53903" lon="-2.81447">
        <ele>9.1</ele>
        <time>2026-08-29T12:30:15Z</time>
      </trkpt>
      <trkpt lat="47.53903" lon="-2.81451">
        <ele>9.2</ele>
        <time>2026-08-29T12:30:16Z</time>
      </trkpt>
      <trkpt lat="47.53902" lon="-2.81455">
        <ele>9.4</ele>
        <time>2026-08-29T12:30:17Z</time>
      </trkpt>
      <trkpt lat="47.53902" lon="-2.81459">
        <ele>9.5</ele>
        <time>2026-08-29T12:30:18Z</time>
      </trkpt>
      <trkpt lat="47.53901" lon="-2.81462">
        <ele>9.6</ele>
        <time>2026-08-29T12:30:19Z</time>
      </trkpt>
      <trkpt lat="47.53901" lon="-2.81466">
        <ele>9.8</ele>
        <time>2026-08-29T12:30:20Z</time>
      </trkpt>
      <trkpt lat="47.539" lon="-2.81469">
        <ele>9.9</ele>
        <time>2026-08-29T12:30:21Z</time>
      </trkpt>
      <trkpt lat="47.539" lon="-2.81473">
        <ele>10.1</ele>
        <time>2026-08-29T12:30:22Z</time>
      </trkpt>
      <trkpt lat="47.53899" lon="-2.81477">
        <ele>10.3</ele>
        <time>2026-08-29T12:30:23Z</time>
      </trkpt>
      <trkpt lat="47.53898" lon="-2.8148">
        <ele>10.6</ele>
        <time>2026-08-29T12:30:24Z</time>
      </trkpt>
      <trkpt lat="47.53897" lon="-2.81483">
        <ele>10.8</ele>
        <time>2026-08-29T12:30:25Z</time>
      </trkpt>
      <trkpt lat="47.53896" lon="-2.81487">
        <ele>11.1</ele>
        <time>2026-08-29T12:30:26Z</time>
      </trkpt>
      <trkpt lat="47.53895" lon="-2.81489">
        <ele>11.2</ele>
        <time>2026-08-29T12:30:27Z</time>
      </trkpt>
      <trkpt lat="47.53895" lon="-2.81492">
        <ele>11.4</ele>
        <time>2026-08-29T12:30:28Z</time>
      </trkpt>
      <trkpt lat="47.53895" lon="-2.81495">
        <ele>11.6</ele>
        <time>2026-08-29T12:30:29Z</time>
      </trkpt>
      <trkpt lat="47.53895" lon="-2.81498">
        <ele>11.9</ele>
        <time>2026-08-29T12:30:30Z</time>
      </trkpt>
      <trkpt lat="47.53895" lon="-2.81501">
        <ele>12</ele>
        <time>2026-08-29T12:30:31Z</time>
      </trkpt>
      <trkpt lat="47.53896" lon="-2.81502">
        <ele>12.1</ele>
        <time>2026-08-29T12:30:32Z</time>
      </trkpt>
      <trkpt lat="47.53897" lon="-2.81503">
        <ele>12.1</ele>
        <time>2026-08-29T12:30:33Z</time>
      </trkpt>
      <trkpt lat="47.53899" lon="-2.81504">
        <ele>12.2</ele>
        <time>2026-08-29T12:30:34Z</time>
      </trkpt>
      <trkpt lat="47.53901" lon="-2.81505">
        <ele>12.3</ele>
        <time>2026-08-29T12:30:35Z</time>
      </trkpt>
      <trkpt lat="47.53903" lon="-2.81505">
        <ele>12.3</ele>
        <time>2026-08-29T12:30:36Z</time>
      </trkpt>
      <trkpt lat="47.53904" lon="-2.81507">
        <ele>12.4</ele>
        <time>2026-08-29T12:30:37Z</time>
      </trkpt>
      <trkpt lat="47.53906" lon="-2.81509">
        <ele>12.5</ele>
        <time>2026-08-29T12:30:38Z</time>
      </trkpt>
      <trkpt lat="47.53907" lon="-2.81511">
        <ele>12.7</ele>
        <time>2026-08-29T12:30:39Z</time>
      </trkpt>
      <trkpt lat="47.53909" lon="-2.81513">
        <ele>12.8</ele>
        <time>2026-08-29T12:30:40Z</time>
      </trkpt>
      <trkpt lat="47.5391" lon="-2.81515">
        <ele>13</ele>
        <time>2026-08-29T12:30:41Z</time>
      </trkpt>
      <trkpt lat="47.53912" lon="-2.81516">
        <ele>13.1</ele>
        <time>2026-08-29T12:30:42Z</time>
      </trkpt>
      <trkpt lat="47.53914" lon="-2.81518">
        <ele>13.2</ele>
        <time>2026-08-29T12:30:43Z</time>
      </trkpt>
      <trkpt lat="47.53915" lon="-2.81519">
        <ele>13.3</ele>
        <time>2026-08-29T12:30:44Z</time>
      </trkpt>
      <trkpt lat="47.53917" lon="-2.81521">
        <ele>13.5</ele>
        <time>2026-08-29T12:30:45Z</time>
      </trkpt>
      <trkpt lat="47.53918" lon="-2.81523">
        <ele>13.7</ele>
        <time>2026-08-29T12:30:46Z</time>
      </trkpt>
      <trkpt lat="47.5392" lon="-2.81525">
        <ele>14</ele>
        <time>2026-08-29T12:30:47Z</time>
      </trkpt>
      <trkpt lat="47.53921" lon="-2.81526">
        <ele>14.2</ele>
        <time>2026-08-29T12:30:48Z</time>
      </trkpt>
      <trkpt lat="47.53922" lon="-2.81528">
        <ele>14.4</ele>
        <time>2026-08-29T12:30:49Z</time>
      </trkpt>
      <trkpt lat="47.53924" lon="-2.8153">
        <ele>14.7</ele>
        <time>2026-08-29T12:30:50Z</time>
      </trkpt>
      <trkpt lat="47.53925" lon="-2.81532">
        <ele>14.9</ele>
        <time>2026-08-29T12:30:51Z</time>
      </trkpt>
      <trkpt lat="47.53926" lon="-2.81533">
        <ele>15</ele>
        <time>2026-08-29T12:30:52Z</time>
      </trkpt>
      <trkpt lat="47.53927" lon="-2.81534">
        <ele>15.1</ele>
        <time>2026-08-29T12:30:53Z</time>
      </trkpt>
      <trkpt lat="47.53929" lon="-2.81535">
        <ele>15.3</ele>
        <time>2026-08-29T12:30:54Z</time>
      </trkpt>
      <trkpt lat="47.53931" lon="-2.81536">
        <ele>15.5</ele>
        <time>2026-08-29T12:30:55Z</time>
      </trkpt>
      <trkpt lat="47.53932" lon="-2.81538">
        <ele>15.6</ele>
        <time>2026-08-29T12:30:56Z</time>
      </trkpt>
      <trkpt lat="47.53933" lon="-2.8154">
        <ele>15.8</ele>
        <time>2026-08-29T12:30:57Z</time>
      </trkpt>
      <trkpt lat="47.53934" lon="-2.81542">
        <ele>16</ele>
        <time>2026-08-29T12:30:58Z</time>
      </trkpt>
      <trkpt lat="47.53934" lon="-2.81544">
        <ele>16.1</ele>
        <time>2026-08-29T12:30:59Z</time>
      </trkpt>
      <trkpt lat="47.53934" lon="-2.81547">
        <ele>16.2</ele>
        <time>2026-08-29T12:31:00Z</time>
      </trkpt>
      <trkpt lat="47.53935" lon="-2.81549">
        <ele>16.3</ele>
        <time>2026-08-29T12:31:01Z</time>
      </trkpt>
      <trkpt lat="47.53935" lon="-2.81551">
        <ele>16.4</ele>
        <time>2026-08-29T12:31:02Z</time>
      </trkpt>
      <trkpt lat="47.53935" lon="-2.81554">
        <ele>16.6</ele>
        <time>2026-08-29T12:31:03Z</time>
      </trkpt>
      <trkpt lat="47.53936" lon="-2.81556">
        <ele>16.7</ele>
        <time>2026-08-29T12:31:04Z</time>
      </trkpt>
      <trkpt lat="47.53936" lon="-2.81558">
        <ele>16.8</ele>
        <time>2026-08-29T12:31:05Z</time>
      </trkpt>
      <trkpt lat="47.53936" lon="-2.8156">
        <ele>16.9</ele>
        <time>2026-08-29T12:31:06Z</time>
      </trkpt>
      <trkpt lat="47.53936" lon="-2.81561">
        <ele>17</ele>
        <time>2026-08-29T12:31:07Z</time>
      </trkpt>
      <trkpt lat="47.53937" lon="-2.81564">
        <ele>17.1</ele>
        <time>2026-08-29T12:31:08Z</time>
      </trkpt>
      <trkpt lat="47.53937" lon="-2.81565">
        <ele>17.2</ele>
        <time>2026-08-29T12:31:09Z</time>
      </trkpt>
      <trkpt lat="47.53938" lon="-2.81567">
        <ele>17.3</ele>
        <time>2026-08-29T12:31:10Z</time>
      </trkpt>
      <trkpt lat="47.53937" lon="-2.8157">
        <ele>17.4</ele>
        <time>2026-08-29T12:31:11Z</time>
      </trkpt>
      <trkpt lat="47.53937" lon="-2.81573">
        <ele>17.5</ele>
        <time>2026-08-29T12:31:12Z</time>
      </trkpt>
      <trkpt lat="47.53937" lon="-2.81576">
        <ele>17.7</ele>
        <time>2026-08-29T12:31:13Z</time>
      </trkpt>
      <trkpt lat="47.53938" lon="-2.81579">
        <ele>17.8</ele>
        <time>2026-08-29T12:31:14Z</time>
      </trkpt>
      <trkpt lat="47.53939" lon="-2.81581">
        <ele>17.9</ele>
        <time>2026-08-29T12:31:15Z</time>
      </trkpt>
      <trkpt lat="47.53939" lon="-2.81584">
        <ele>18</ele>
        <time>2026-08-29T12:31:16Z</time>
      </trkpt>
      <trkpt lat="47.53939" lon="-2.81587">
        <ele>18.1</ele>
        <time>2026-08-29T12:31:17Z</time>
      </trkpt>
      <trkpt lat="47.53939" lon="-2.81589">
        <ele>18.2</ele>
        <time>2026-08-29T12:31:18Z</time>
      </trkpt>
      <trkpt lat="47.53939" lon="-2.81592">
        <ele>18.3</ele>
        <time>2026-08-29T12:31:19Z</time>
      </trkpt>
      <trkpt lat="47.53939" lon="-2.81594">
        <ele>18.3</ele>
        <time>2026-08-29T12:31:20Z</time>
      </trkpt>
      <trkpt lat="47.5394" lon="-2.81597">
        <ele>18.4</ele>
        <time>2026-08-29T12:31:21Z</time>
      </trkpt>
      <trkpt lat="47.5394" lon="-2.816">
        <ele>18.5</ele>
        <time>2026-08-29T12:31:22Z</time>
      </trkpt>
      <trkpt lat="47.5394" lon="-2.81602">
        <ele>18.6</ele>
        <time>2026-08-29T12:31:23Z</time>
      </trkpt>
      <trkpt lat="47.53941" lon="-2.81605">
        <ele>18.7</ele>
        <time>2026-08-29T12:31:24Z</time>
      </trkpt>
      <trkpt lat="47.53941" lon="-2.81607">
        <ele>18.7</ele>
        <time>2026-08-29T12:31:25Z</time>
      </trkpt>
      <trkpt lat="47.5394" lon="-2.8161">
        <ele>18.8</ele>
        <time>2026-08-29T12:31:26Z</time>
      </trkpt>
      <trkpt lat="47.53939" lon="-2.81613">
        <ele>18.7</ele>
        <time>2026-08-29T12:31:27Z</time>
      </trkpt>
      <trkpt lat="47.53937" lon="-2.81615">
        <ele>18.6</ele>
        <time>2026-08-29T12:31:28Z</time>
      </trkpt>
      <trkpt lat="47.53935" lon="-2.81618">
        <ele>18.5</ele>
        <time>2026-08-29T12:31:29Z</time>
      </trkpt>
      <trkpt lat="47.53934" lon="-2.8162">
        <ele>18.4</ele>
        <time>2026-08-29T12:31:30Z</time>
      </trkpt>
      <trkpt lat="47.53931" lon="-2.81623">
        <ele>18.3</ele>
        <time>2026-08-29T12:31:31Z</time>
      </trkpt>
      <trkpt lat="47.53929" lon="-2.81625">
        <ele>18.2</ele>
        <time>2026-08-29T12:31:32Z</time>
      </trkpt>
      <trkpt lat="47.53926" lon="-2.81627">
        <ele>18.1</ele>
        <time>2026-08-29T12:31:33Z</time>
      </trkpt>
      <trkpt lat="47.53923" lon="-2.8163">
        <ele>18.1</ele>
        <time>2026-08-29T12:31:34Z</time>
      </trkpt>
      <trkpt lat="47.53919" lon="-2.81632">
        <ele>18</ele>
        <time>2026-08-29T12:31:35Z</time>
      </trkpt>
      <trkpt lat="47.53916" lon="-2.81635">
        <ele>18</ele>
        <time>2026-08-29T12:31:36Z</time>
      </trkpt>
      <trkpt lat="47.53912" lon="-2.81638">
        <ele>17.8</ele>
        <time>2026-08-29T12:31:37Z</time>
      </trkpt>
      <trkpt lat="47.53907" lon="-2.81642">
        <ele>17.5</ele>
        <time>2026-08-29T12:31:38Z</time>
      </trkpt>
      <trkpt lat="47.53903" lon="-2.81646">
        <ele>17.1</ele>
        <time>2026-08-29T12:31:39Z</time>
      </trkpt>
      <trkpt lat="47.53898" lon="-2.81651">
        <ele>16.6</ele>
        <time>2026-08-29T12:31:40Z</time>
      </trkpt>
      <trkpt lat="47.53894" lon="-2.81657">
        <ele>16</ele>
        <time>2026-08-29T12:31:41Z</time>
      </trkpt>
      <trkpt lat="47.5389" lon="-2.81663">
        <ele>15.3</ele>
        <time>2026-08-29T12:31:42Z</time>
      </trkpt>
      <trkpt lat="47.53886" lon="-2.8167">
        <ele>15</ele>
        <time>2026-08-29T12:31:43Z</time>
      </trkpt>
      <trkpt lat="47.53882" lon="-2.81677">
        <ele>14.8</ele>
        <time>2026-08-29T12:31:44Z</time>
      </trkpt>
      <trkpt lat="47.53879" lon="-2.81685">
        <ele>14.5</ele>
        <time>2026-08-29T12:31:45Z</time>
      </trkpt>
      <trkpt lat="47.53876" lon="-2.81693">
        <ele>14.1</ele>
        <time>2026-08-29T12:31:46Z</time>
      </trkpt>
      <trkpt lat="47.53873" lon="-2.81702">
        <ele>13.9</ele>
        <time>2026-08-29T12:31:47Z</time>
      </trkpt>
      <trkpt lat="47.53871" lon="-2.81711">
        <ele>13.7</ele>
        <time>2026-08-29T12:31:48Z</time>
      </trkpt>
      <trkpt lat="47.53869" lon="-2.8172">
        <ele>13.6</ele>
        <time>2026-08-29T12:31:49Z</time>
      </trkpt>
      <trkpt lat="47.53867" lon="-2.81729">
        <ele>13.2</ele>
        <time>2026-08-29T12:31:50Z</time>
      </trkpt>
      <trkpt lat="47.53865" lon="-2.81738">
        <ele>12.8</ele>
        <time>2026-08-29T12:31:51Z</time>
      </trkpt>
      <trkpt lat="47.53863" lon="-2.81747">
        <ele>12.3</ele>
        <time>2026-08-29T12:31:52Z</time>
      </trkpt>
      <trkpt lat="47.53862" lon="-2.81756">
        <ele>12.1</ele>
        <time>2026-08-29T12:31:53Z</time>
      </trkpt>
      <trkpt lat="47.53859" lon="-2.81766">
        <ele>11.9</ele>
        <time>2026-08-29T12:31:54Z</time>
      </trkpt>
      <trkpt lat="47.53856" lon="-2.81775">
        <ele>11.7</ele>
        <time>2026-08-29T12:31:55Z</time>
      </trkpt>
      <trkpt lat="47.53853" lon="-2.81784">
        <ele>11.4</ele>
        <time>2026-08-29T12:31:56Z</time>
      </trkpt>
      <trkpt lat="47.53849" lon="-2.81793">
        <ele>10.9</ele>
        <time>2026-08-29T12:31:57Z</time>
      </trkpt>
      <trkpt lat="47.53845" lon="-2.81802">
        <ele>10.3</ele>
        <time>2026-08-29T12:31:58Z</time>
      </trkpt>
      <trkpt lat="47.53841" lon="-2.8181">
        <ele>10</ele>
        <time>2026-08-29T12:31:59Z</time>
      </trkpt>
      <trkpt lat="47.53836" lon="-2.81817">
        <ele>9.7</ele>
        <time>2026-08-29T12:32:00Z</time>
      </trkpt>
      <trkpt lat="47.5383" lon="-2.81823">
        <ele>9.4</ele>
        <time>2026-08-29T12:32:01Z</time>
      </trkpt>
      <trkpt lat="47.53824" lon="-2.81828">
        <ele>9.1</ele>
        <time>2026-08-29T12:32:02Z</time>
      </trkpt>
      <trkpt lat="47.53818" lon="-2.81832">
        <ele>8.8</ele>
        <time>2026-08-29T12:32:03Z</time>
      </trkpt>
      <trkpt lat="47.53812" lon="-2.81836">
        <ele>8.5</ele>
        <time>2026-08-29T12:32:04Z</time>
      </trkpt>
      <trkpt lat="47.53806" lon="-2.8184">
        <ele>8</ele>
        <time>2026-08-29T12:32:05Z</time>
      </trkpt>
      <trkpt lat="47.538" lon="-2.81844">
        <ele>7.7</ele>
        <time>2026-08-29T12:32:06Z</time>
      </trkpt>
      <trkpt lat="47.53793" lon="-2.81848">
        <ele>7.3</ele>
        <time>2026-08-29T12:32:07Z</time>
      </trkpt>
      <trkpt lat="47.53788" lon="-2.81853">
        <ele>7.2</ele>
        <time>2026-08-29T12:32:08Z</time>
      </trkpt>
      <trkpt lat="47.53782" lon="-2.81859">
        <ele>7.1</ele>
        <time>2026-08-29T12:32:09Z</time>
      </trkpt>
      <trkpt lat="47.53776" lon="-2.81865">
        <ele>7.1</ele>
        <time>2026-08-29T12:32:10Z</time>
      </trkpt>
      <trkpt lat="47.53771" lon="-2.81871">
        <ele>7</ele>
        <time>2026-08-29T12:32:11Z</time>
      </trkpt>
      <trkpt lat="47.53766" lon="-2.81877">
        <ele>6.9</ele>
        <time>2026-08-29T12:32:12Z</time>
      </trkpt>
      <trkpt lat="47.53761" lon="-2.81883">
        <ele>6.7</ele>
        <time>2026-08-29T12:32:13Z</time>
      </trkpt>
      <trkpt lat="47.53756" lon="-2.81889">
        <ele>6.4</ele>
        <time>2026-08-29T12:32:14Z</time>
      </trkpt>
      <trkpt lat="47.53751" lon="-2.81895">
        <ele>6.1</ele>
        <time>2026-08-29T12:32:15Z</time>
      </trkpt>
      <trkpt lat="47.53746" lon="-2.81901">
        <ele>5.9</ele>
        <time>2026-08-29T12:32:16Z</time>
      </trkpt>
      <trkpt lat="47.53741" lon="-2.81906">
        <ele>5.7</ele>
        <time>2026-08-29T12:32:17Z</time>
      </trkpt>
      <trkpt lat="47.53736" lon="-2.81911">
        <ele>5.5</ele>
        <time>2026-08-29T12:32:18Z</time>
      </trkpt>
      <trkpt lat="47.5373" lon="-2.81915">
        <ele>5.3</ele>
        <time>2026-08-29T12:32:19Z</time>
      </trkpt>
      <trkpt lat="47.53725" lon="-2.81917">
        <ele>5.1</ele>
        <time>2026-08-29T12:32:20Z</time>
      </trkpt>
      <trkpt lat="47.53719" lon="-2.8192">
        <ele>5</ele>
        <time>2026-08-29T12:32:21Z</time>
      </trkpt>
      <trkpt lat="47.53713" lon="-2.81922">
        <ele>4.8</ele>
        <time>2026-08-29T12:32:22Z</time>
      </trkpt>
      <trkpt lat="47.53707" lon="-2.81924">
        <ele>4.6</ele>
        <time>2026-08-29T12:32:23Z</time>
      </trkpt>
      <trkpt lat="47.53701" lon="-2.81927">
        <ele>4.3</ele>
        <time>2026-08-29T12:32:24Z</time>
      </trkpt>
      <trkpt lat="47.53695" lon="-2.81929">
        <ele>4</ele>
        <time>2026-08-29T12:32:25Z</time>
      </trkpt>
      <trkpt lat="47.53689" lon="-2.81931">
        <ele>4</ele>
        <time>2026-08-29T12:32:26Z</time>
      </trkpt>
      <trkpt lat="47.53683" lon="-2.81932">
        <ele>4</ele>
        <time>2026-08-29T12:32:27Z</time>
      </trkpt>
      <trkpt lat="47.53677" lon="-2.81934">
        <ele>4</ele>
        <time>2026-08-29T12:32:28Z</time>
      </trkpt>
      <trkpt lat="47.53672" lon="-2.81935">
        <ele>4</ele>
        <time>2026-08-29T12:32:29Z</time>
      </trkpt>
      <trkpt lat="47.53666" lon="-2.81937">
        <ele>4</ele>
        <time>2026-08-29T12:32:30Z</time>
      </trkpt>
      <trkpt lat="47.53662" lon="-2.8194">
        <ele>3.8</ele>
        <time>2026-08-29T12:32:31Z</time>
      </trkpt>
      <trkpt lat="47.53657" lon="-2.81944">
        <ele>3.7</ele>
        <time>2026-08-29T12:32:32Z</time>
      </trkpt>
      <trkpt lat="47.53653" lon="-2.81949">
        <ele>3.5</ele>
        <time>2026-08-29T12:32:33Z</time>
      </trkpt>
      <trkpt lat="47.5365" lon="-2.81953">
        <ele>3.4</ele>
        <time>2026-08-29T12:32:34Z</time>
      </trkpt>
      <trkpt lat="47.53646" lon="-2.81958">
        <ele>3.3</ele>
        <time>2026-08-29T12:32:35Z</time>
      </trkpt>
      <trkpt lat="47.53643" lon="-2.81963">
        <ele>3.1</ele>
        <time>2026-08-29T12:32:36Z</time>
      </trkpt>
      <trkpt lat="47.5364" lon="-2.81967">
        <ele>3</ele>
        <time>2026-08-29T12:32:37Z</time>
      </trkpt>
      <trkpt lat="47.53636" lon="-2.8197">
        <ele>3</ele>
        <time>2026-08-29T12:32:38Z</time>
      </trkpt>
      <trkpt lat="47.53633" lon="-2.81973">
        <ele>3</ele>
        <time>2026-08-29T12:32:39Z</time>
      </trkpt>
      <trkpt lat="47.5363" lon="-2.81975">
        <ele>3.1</ele>
        <time>2026-08-29T12:32:40Z</time>
      </trkpt>
      <trkpt lat="47.53627" lon="-2.81977">
        <ele>3.1</ele>
        <time>2026-08-29T12:32:41Z</time>
      </trkpt>
      <trkpt lat="47.53623" lon="-2.81978">
        <ele>3.1</ele>
        <time>2026-08-29T12:32:42Z</time>
      </trkpt>
      <trkpt lat="47.53619" lon="-2.81978">
        <ele>3.1</ele>
        <time>2026-08-29T12:32:43Z</time>
      </trkpt>
      <trkpt lat="47.53616" lon="-2.81978">
        <ele>3</ele>
        <time>2026-08-29T12:32:44Z</time>
      </trkpt>
      <trkpt lat="47.53611" lon="-2.81978">
        <ele>3</ele>
        <time>2026-08-29T12:32:45Z</time>
      </trkpt>
      <trkpt lat="47.53607" lon="-2.81979">
        <ele>3.1</ele>
        <time>2026-08-29T12:32:46Z</time>
      </trkpt>
      <trkpt lat="47.53603" lon="-2.8198">
        <ele>3.2</ele>
        <time>2026-08-29T12:32:47Z</time>
      </trkpt>
      <trkpt lat="47.536" lon="-2.81982">
        <ele>3.3</ele>
        <time>2026-08-29T12:32:48Z</time>
      </trkpt>
      <trkpt lat="47.53598" lon="-2.81986">
        <ele>3.2</ele>
        <time>2026-08-29T12:32:49Z</time>
      </trkpt>
      <trkpt lat="47.53597" lon="-2.8199">
        <ele>3.2</ele>
        <time>2026-08-29T12:32:50Z</time>
      </trkpt>
      <trkpt lat="47.53596" lon="-2.81995">
        <ele>3.1</ele>
        <time>2026-08-29T12:32:51Z</time>
      </trkpt>
      <trkpt lat="47.53595" lon="-2.82">
        <ele>3</ele>
        <time>2026-08-29T12:32:52Z</time>
      </trkpt>
      <trkpt lat="47.53593" lon="-2.82004">
        <ele>3</ele>
        <time>2026-08-29T12:32:53Z</time>
      </trkpt>
      <trkpt lat="47.53592" lon="-2.82008">
        <ele>3</ele>
        <time>2026-08-29T12:32:54Z</time>
      </trkpt>
      <trkpt lat="47.53589" lon="-2.82012">
        <ele>3</ele>
        <time>2026-08-29T12:32:55Z</time>
      </trkpt>
      <trkpt lat="47.53586" lon="-2.82016">
        <ele>3</ele>
        <time>2026-08-29T12:32:56Z</time>
      </trkpt>
      <trkpt lat="47.53583" lon="-2.82017">
        <ele>3</ele>
        <time>2026-08-29T12:32:57Z</time>
      </trkpt>
      <trkpt lat="47.5358" lon="-2.82018">
        <ele>3.1</ele>
        <time>2026-08-29T12:32:58Z</time>
      </trkpt>
      <trkpt lat="47.53576" lon="-2.82018">
        <ele>3.2</ele>
        <time>2026-08-29T12:32:59Z</time>
      </trkpt>
      <trkpt lat="47.53572" lon="-2.82017">
        <ele>3.2</ele>
        <time>2026-08-29T12:33:00Z</time>
      </trkpt>
      <trkpt lat="47.53568" lon="-2.82017">
        <ele>3.3</ele>
        <time>2026-08-29T12:33:01Z</time>
      </trkpt>
      <trkpt lat="47.53563" lon="-2.82017">
        <ele>3.4</ele>
        <time>2026-08-29T12:33:02Z</time>
      </trkpt>
      <trkpt lat="47.53559" lon="-2.82016">
        <ele>3.5</ele>
        <time>2026-08-29T12:33:03Z</time>
      </trkpt>
      <trkpt lat="47.53554" lon="-2.82015">
        <ele>3.5</ele>
        <time>2026-08-29T12:33:04Z</time>
      </trkpt>
      <trkpt lat="47.53549" lon="-2.82014">
        <ele>3.4</ele>
        <time>2026-08-29T12:33:05Z</time>
      </trkpt>
      <trkpt lat="47.53545" lon="-2.82013">
        <ele>3.3</ele>
        <time>2026-08-29T12:33:06Z</time>
      </trkpt>
      <trkpt lat="47.53541" lon="-2.82012">
        <ele>3.2</ele>
        <time>2026-08-29T12:33:07Z</time>
      </trkpt>
      <trkpt lat="47.53537" lon="-2.82012">
        <ele>3.1</ele>
        <time>2026-08-29T12:33:08Z</time>
      </trkpt>
      <trkpt lat="47.53533" lon="-2.82013">
        <ele>3.1</ele>
        <time>2026-08-29T12:33:09Z</time>
      </trkpt>
      <trkpt lat="47.5353" lon="-2.82016">
        <ele>3</ele>
        <time>2026-08-29T12:33:10Z</time>
      </trkpt>
      <trkpt lat="47.53528" lon="-2.82021">
        <ele>3</ele>
        <time>2026-08-29T12:33:11Z</time>
      </trkpt>
      <trkpt lat="47.53527" lon="-2.82026">
        <ele>3</ele>
        <time>2026-08-29T12:33:12Z</time>
      </trkpt>
      <trkpt lat="47.53527" lon="-2.82032">
        <ele>3</ele>
        <time>2026-08-29T12:33:13Z</time>
      </trkpt>
      <trkpt lat="47.53526" lon="-2.82038">
        <ele>3</ele>
        <time>2026-08-29T12:33:14Z</time>
      </trkpt>
      <trkpt lat="47.53527" lon="-2.82044">
        <ele>3</ele>
        <time>2026-08-29T12:33:15Z</time>
      </trkpt>
      <trkpt lat="47.53527" lon="-2.8205">
        <ele>3</ele>
        <time>2026-08-29T12:33:16Z</time>
      </trkpt>
      <trkpt lat="47.53527" lon="-2.82056">
        <ele>3</ele>
        <time>2026-08-29T12:33:17Z</time>
      </trkpt>
      <trkpt lat="47.53528" lon="-2.82063">
        <ele>3</ele>
        <time>2026-08-29T12:33:18Z</time>
      </trkpt>
      <trkpt lat="47.53529" lon="-2.8207">
        <ele>3</ele>
        <time>2026-08-29T12:33:19Z</time>
      </trkpt>
      <trkpt lat="47.53529" lon="-2.82077">
        <ele>3</ele>
        <time>2026-08-29T12:33:20Z</time>
      </trkpt>
      <trkpt lat="47.5353" lon="-2.82083">
        <ele>3</ele>
        <time>2026-08-29T12:33:21Z</time>
      </trkpt>
      <trkpt lat="47.53531" lon="-2.82089">
        <ele>3</ele>
        <time>2026-08-29T12:33:22Z</time>
      </trkpt>
      <trkpt lat="47.53531" lon="-2.82095">
        <ele>3</ele>
        <time>2026-08-29T12:33:23Z</time>
      </trkpt>
      <trkpt lat="47.53532" lon="-2.82101">
        <ele>3</ele>
        <time>2026-08-29T12:33:24Z</time>
      </trkpt>
      <trkpt lat="47.53533" lon="-2.82108">
        <ele>3</ele>
        <time>2026-08-29T12:33:25Z</time>
      </trkpt>
      <trkpt lat="47.53533" lon="-2.82114">
        <ele>3</ele>
        <time>2026-08-29T12:33:26Z</time>
      </trkpt>
      <trkpt lat="47.53534" lon="-2.82121">
        <ele>3</ele>
        <time>2026-08-29T12:33:27Z</time>
      </trkpt>
      <trkpt lat="47.53533" lon="-2.82127">
        <ele>3</ele>
        <time>2026-08-29T12:33:28Z</time>
      </trkpt>
      <trkpt lat="47.53533" lon="-2.82132">
        <ele>3</ele>
        <time>2026-08-29T12:33:29Z</time>
      </trkpt>
      <trkpt lat="47.53533" lon="-2.82139">
        <ele>3</ele>
        <time>2026-08-29T12:33:30Z</time>
      </trkpt>
      <trkpt lat="47.53533" lon="-2.82146">
        <ele>3</ele>
        <time>2026-08-29T12:33:31Z</time>
      </trkpt>
      <trkpt lat="47.53531" lon="-2.82153">
        <ele>3</ele>
        <time>2026-08-29T12:33:32Z</time>
      </trkpt>
      <trkpt lat="47.53531" lon="-2.8216">
        <ele>3</ele>
        <time>2026-08-29T12:33:33Z</time>
      </trkpt>
      <trkpt lat="47.5353" lon="-2.82166">
        <ele>3</ele>
        <time>2026-08-29T12:33:34Z</time>
      </trkpt>
      <trkpt lat="47.53531" lon="-2.82172">
        <ele>3</ele>
        <time>2026-08-29T12:33:35Z</time>
      </trkpt>
      <trkpt lat="47.53531" lon="-2.82178">
        <ele>3</ele>
        <time>2026-08-29T12:33:36Z</time>
      </trkpt>
      <trkpt lat="47.53532" lon="-2.82184">
        <ele>3</ele>
        <time>2026-08-29T12:33:37Z</time>
      </trkpt>
      <trkpt lat="47.53532" lon="-2.8219">
        <ele>3</ele>
        <time>2026-08-29T12:33:38Z</time>
      </trkpt>
      <trkpt lat="47.53532" lon="-2.82196">
        <ele>3</ele>
        <time>2026-08-29T12:33:39Z</time>
      </trkpt>
      <trkpt lat="47.53533" lon="-2.82201">
        <ele>3</ele>
        <time>2026-08-29T12:33:40Z</time>
      </trkpt>
      <trkpt lat="47.53534" lon="-2.82207">
        <ele>3</ele>
        <time>2026-08-29T12:33:41Z</time>
      </trkpt>
      <trkpt lat="47.53535" lon="-2.82214">
        <ele>3</ele>
        <time>2026-08-29T12:33:42Z</time>
      </trkpt>
      <trkpt lat="47.53535" lon="-2.82221">
        <ele>3</ele>
        <time>2026-08-29T12:33:43Z</time>
      </trkpt>
      <trkpt lat="47.53536" lon="-2.82227">
        <ele>3.2</ele>
        <time>2026-08-29T12:33:44Z</time>
      </trkpt>
      <trkpt lat="47.53538" lon="-2.82233">
        <ele>3.4</ele>
        <time>2026-08-29T12:33:45Z</time>
      </trkpt>
      <trkpt lat="47.53539" lon="-2.82238">
        <ele>3.6</ele>
        <time>2026-08-29T12:33:46Z</time>
      </trkpt>
      <trkpt lat="47.53539" lon="-2.82245">
        <ele>3.8</ele>
        <time>2026-08-29T12:33:47Z</time>
      </trkpt>
      <trkpt lat="47.53538" lon="-2.82253">
        <ele>4</ele>
        <time>2026-08-29T12:33:48Z</time>
      </trkpt>
      <trkpt lat="47.53539" lon="-2.82259">
        <ele>4.1</ele>
        <time>2026-08-29T12:33:49Z</time>
      </trkpt>
      <trkpt lat="47.5354" lon="-2.82266">
        <ele>4.3</ele>
        <time>2026-08-29T12:33:50Z</time>
      </trkpt>
      <trkpt lat="47.53541" lon="-2.82272">
        <ele>4.4</ele>
        <time>2026-08-29T12:33:51Z</time>
      </trkpt>
      <trkpt lat="47.53542" lon="-2.82277">
        <ele>4.5</ele>
        <time>2026-08-29T12:33:52Z</time>
      </trkpt>
      <trkpt lat="47.53542" lon="-2.82282">
        <ele>4.7</ele>
        <time>2026-08-29T12:33:53Z</time>
      </trkpt>
      <trkpt lat="47.53542" lon="-2.82285">
        <ele>4.9</ele>
        <time>2026-08-29T12:33:54Z</time>
      </trkpt>
      <trkpt lat="47.53541" lon="-2.8229">
        <ele>5.1</ele>
        <time>2026-08-29T12:33:55Z</time>
      </trkpt>
      <trkpt lat="47.53541" lon="-2.82295">
        <ele>5.4</ele>
        <time>2026-08-29T12:33:56Z</time>
      </trkpt>
      <trkpt lat="47.53541" lon="-2.823">
        <ele>5.7</ele>
        <time>2026-08-29T12:33:57Z</time>
      </trkpt>
      <trkpt lat="47.5354" lon="-2.82306">
        <ele>5.9</ele>
        <time>2026-08-29T12:33:58Z</time>
      </trkpt>
      <trkpt lat="47.5354" lon="-2.82311">
        <ele>6.1</ele>
        <time>2026-08-29T12:33:59Z</time>
      </trkpt>
      <trkpt lat="47.53541" lon="-2.82315">
        <ele>6.3</ele>
        <time>2026-08-29T12:34:00Z</time>
      </trkpt>
      <trkpt lat="47.53541" lon="-2.82319">
        <ele>6.4</ele>
        <time>2026-08-29T12:34:01Z</time>
      </trkpt>
      <trkpt lat="47.53541" lon="-2.82323">
        <ele>6.6</ele>
        <time>2026-08-29T12:34:02Z</time>
      </trkpt>
      <trkpt lat="47.53541" lon="-2.82327">
        <ele>6.7</ele>
        <time>2026-08-29T12:34:03Z</time>
      </trkpt>
      <trkpt lat="47.53542" lon="-2.82332">
        <ele>7</ele>
        <time>2026-08-29T12:34:04Z</time>
      </trkpt>
      <trkpt lat="47.53542" lon="-2.82336">
        <ele>7</ele>
        <time>2026-08-29T12:34:05Z</time>
      </trkpt>
      <trkpt lat="47.53542" lon="-2.8234">
        <ele>7</ele>
        <time>2026-08-29T12:34:06Z</time>
      </trkpt>
      <trkpt lat="47.53542" lon="-2.82345">
        <ele>7</ele>
        <time>2026-08-29T12:34:07Z</time>
      </trkpt>
      <trkpt lat="47.53542" lon="-2.82349">
        <ele>7</ele>
        <time>2026-08-29T12:34:08Z</time>
      </trkpt>
      <trkpt lat="47.53542" lon="-2.82353">
        <ele>7</ele>
        <time>2026-08-29T12:34:09Z</time>
      </trkpt>
      <trkpt lat="47.53543" lon="-2.82358">
        <ele>7.1</ele>
        <time>2026-08-29T12:34:10Z</time>
      </trkpt>
      <trkpt lat="47.53543" lon="-2.82361">
        <ele>7.1</ele>
        <time>2026-08-29T12:34:11Z</time>
      </trkpt>
      <trkpt lat="47.53544" lon="-2.82367">
        <ele>7.4</ele>
        <time>2026-08-29T12:34:12Z</time>
      </trkpt>
      <trkpt lat="47.53544" lon="-2.82372">
        <ele>7.6</ele>
        <time>2026-08-29T12:34:13Z</time>
      </trkpt>
      <trkpt lat="47.53544" lon="-2.82377">
        <ele>7.7</ele>
        <time>2026-08-29T12:34:14Z</time>
      </trkpt>
      <trkpt lat="47.53544" lon="-2.82381">
        <ele>7.9</ele>
        <time>2026-08-29T12:34:15Z</time>
      </trkpt>
      <trkpt lat="47.53544" lon="-2.82386">
        <ele>8.1</ele>
        <time>2026-08-29T12:34:16Z</time>
      </trkpt>
      <trkpt lat="47.53543" lon="-2.82391">
        <ele>8.2</ele>
        <time>2026-08-29T12:34:17Z</time>
      </trkpt>
      <trkpt lat="47.53543" lon="-2.82396">
        <ele>8.4</ele>
        <time>2026-08-29T12:34:18Z</time>
      </trkpt>
      <trkpt lat="47.53543" lon="-2.824">
        <ele>8.5</ele>
        <time>2026-08-29T12:34:19Z</time>
      </trkpt>
      <trkpt lat="47.53542" lon="-2.82404">
        <ele>8.6</ele>
        <time>2026-08-29T12:34:20Z</time>
      </trkpt>
      <trkpt lat="47.53542" lon="-2.82409">
        <ele>8.7</ele>
        <time>2026-08-29T12:34:21Z</time>
      </trkpt>
      <trkpt lat="47.53541" lon="-2.82414">
        <ele>8.9</ele>
        <time>2026-08-29T12:34:22Z</time>
      </trkpt>
      <trkpt lat="47.53541" lon="-2.82419">
        <ele>9</ele>
        <time>2026-08-29T12:34:23Z</time>
      </trkpt>
      <trkpt lat="47.5354" lon="-2.82425">
        <ele>9</ele>
        <time>2026-08-29T12:34:24Z</time>
      </trkpt>
      <trkpt lat="47.5354" lon="-2.82431">
        <ele>9.1</ele>
        <time>2026-08-29T12:34:25Z</time>
      </trkpt>
      <trkpt lat="47.53539" lon="-2.82436">
        <ele>9.1</ele>
        <time>2026-08-29T12:34:26Z</time>
      </trkpt>
      <trkpt lat="47.53538" lon="-2.82441">
        <ele>9.1</ele>
        <time>2026-08-29T12:34:27Z</time>
      </trkpt>
      <trkpt lat="47.53537" lon="-2.82447">
        <ele>9.1</ele>
        <time>2026-08-29T12:34:28Z</time>
      </trkpt>
      <trkpt lat="47.53537" lon="-2.82452">
        <ele>9.3</ele>
        <time>2026-08-29T12:34:29Z</time>
      </trkpt>
      <trkpt lat="47.53537" lon="-2.82456">
        <ele>9.4</ele>
        <time>2026-08-29T12:34:30Z</time>
      </trkpt>
      <trkpt lat="47.53537" lon="-2.82461">
        <ele>9.6</ele>
        <time>2026-08-29T12:34:31Z</time>
      </trkpt>
      <trkpt lat="47.53537" lon="-2.82465">
        <ele>9.7</ele>
        <time>2026-08-29T12:34:32Z</time>
      </trkpt>
      <trkpt lat="47.53536" lon="-2.82469">
        <ele>9.8</ele>
        <time>2026-08-29T12:34:33Z</time>
      </trkpt>
      <trkpt lat="47.53535" lon="-2.82474">
        <ele>9.8</ele>
        <time>2026-08-29T12:34:34Z</time>
      </trkpt>
      <trkpt lat="47.53535" lon="-2.82478">
        <ele>9.9</ele>
        <time>2026-08-29T12:34:35Z</time>
      </trkpt>
      <trkpt lat="47.53534" lon="-2.82483">
        <ele>10</ele>
        <time>2026-08-29T12:34:36Z</time>
      </trkpt>
      <trkpt lat="47.53534" lon="-2.82488">
        <ele>10.1</ele>
        <time>2026-08-29T12:34:37Z</time>
      </trkpt>
      <trkpt lat="47.53534" lon="-2.82492">
        <ele>10.2</ele>
        <time>2026-08-29T12:34:38Z</time>
      </trkpt>
      <trkpt lat="47.53533" lon="-2.82497">
        <ele>10.3</ele>
        <time>2026-08-29T12:34:39Z</time>
      </trkpt>
      <trkpt lat="47.53533" lon="-2.82502">
        <ele>10.4</ele>
        <time>2026-08-29T12:34:40Z</time>
      </trkpt>
      <trkpt lat="47.53533" lon="-2.82506">
        <ele>10.4</ele>
        <time>2026-08-29T12:34:41Z</time>
      </trkpt>
      <trkpt lat="47.53532" lon="-2.82511">
        <ele>10.4</ele>
        <time>2026-08-29T12:34:42Z</time>
      </trkpt>
      <trkpt lat="47.53532" lon="-2.82516">
        <ele>10.4</ele>
        <time>2026-08-29T12:34:43Z</time>
      </trkpt>
      <trkpt lat="47.53531" lon="-2.8252">
        <ele>10.3</ele>
        <time>2026-08-29T12:34:44Z</time>
      </trkpt>
      <trkpt lat="47.53531" lon="-2.82525">
        <ele>10.3</ele>
        <time>2026-08-29T12:34:45Z</time>
      </trkpt>
      <trkpt lat="47.5353" lon="-2.82529">
        <ele>10.3</ele>
        <time>2026-08-29T12:34:46Z</time>
      </trkpt>
      <trkpt lat="47.5353" lon="-2.82534">
        <ele>10.4</ele>
        <time>2026-08-29T12:34:47Z</time>
      </trkpt>
      <trkpt lat="47.53529" lon="-2.82538">
        <ele>10.5</ele>
        <time>2026-08-29T12:34:48Z</time>
      </trkpt>
      <trkpt lat="47.53529" lon="-2.82542">
        <ele>10.6</ele>
        <time>2026-08-29T12:34:49Z</time>
      </trkpt>
      <trkpt lat="47.53529" lon="-2.82546">
        <ele>10.8</ele>
        <time>2026-08-29T12:34:50Z</time>
      </trkpt>
      <trkpt lat="47.53529" lon="-2.8255">
        <ele>10.9</ele>
        <time>2026-08-29T12:34:51Z</time>
      </trkpt>
      <trkpt lat="47.53529" lon="-2.82554">
        <ele>11</ele>
        <time>2026-08-29T12:34:52Z</time>
      </trkpt>
      <trkpt lat="47.53528" lon="-2.82558">
        <ele>11.1</ele>
        <time>2026-08-29T12:34:53Z</time>
      </trkpt>
      <trkpt lat="47.53528" lon="-2.82562">
        <ele>11.2</ele>
        <time>2026-08-29T12:34:54Z</time>
      </trkpt>
      <trkpt lat="47.53528" lon="-2.82567">
        <ele>11.4</ele>
        <time>2026-08-29T12:34:55Z</time>
      </trkpt>
      <trkpt lat="47.53528" lon="-2.8257">
        <ele>11.5</ele>
        <time>2026-08-29T12:34:56Z</time>
      </trkpt>
      <trkpt lat="47.53528" lon="-2.82574">
        <ele>11.7</ele>
        <time>2026-08-29T12:34:57Z</time>
      </trkpt>
      <trkpt lat="47.53529" lon="-2.82578">
        <ele>11.9</ele>
        <time>2026-08-29T12:34:58Z</time>
      </trkpt>
      <trkpt lat="47.53529" lon="-2.82582">
        <ele>12</ele>
        <time>2026-08-29T12:34:59Z</time>
      </trkpt>
      <trkpt lat="47.53529" lon="-2.82586">
        <ele>12</ele>
        <time>2026-08-29T12:35:00Z</time>
      </trkpt>
      <trkpt lat="47.53529" lon="-2.82589">
        <ele>12</ele>
        <time>2026-08-29T12:35:01Z</time>
      </trkpt>
      <trkpt lat="47.53529" lon="-2.82594">
        <ele>12</ele>
        <time>2026-08-29T12:35:02Z</time>
      </trkpt>
      <trkpt lat="47.53529" lon="-2.82597">
        <ele>12</ele>
        <time>2026-08-29T12:35:03Z</time>
      </trkpt>
      <trkpt lat="47.53529" lon="-2.82601">
        <ele>12</ele>
        <time>2026-08-29T12:35:04Z</time>
      </trkpt>
      <trkpt lat="47.53529" lon="-2.82605">
        <ele>12</ele>
        <time>2026-08-29T12:35:05Z</time>
      </trkpt>
      <trkpt lat="47.53529" lon="-2.8261">
        <ele>12</ele>
        <time>2026-08-29T12:35:06Z</time>
      </trkpt>
      <trkpt lat="47.53528" lon="-2.82614">
        <ele>12.1</ele>
        <time>2026-08-29T12:35:07Z</time>
      </trkpt>
      <trkpt lat="47.53528" lon="-2.82618">
        <ele>12.3</ele>
        <time>2026-08-29T12:35:08Z</time>
      </trkpt>
      <trkpt lat="47.53528" lon="-2.82622">
        <ele>12.4</ele>
        <time>2026-08-29T12:35:09Z</time>
      </trkpt>
      <trkpt lat="47.53528" lon="-2.82627">
        <ele>12.6</ele>
        <time>2026-08-29T12:35:10Z</time>
      </trkpt>
      <trkpt lat="47.53528" lon="-2.82631">
        <ele>12.7</ele>
        <time>2026-08-29T12:35:11Z</time>
      </trkpt>
      <trkpt lat="47.53527" lon="-2.82635">
        <ele>12.8</ele>
        <time>2026-08-29T12:35:12Z</time>
      </trkpt>
      <trkpt lat="47.53527" lon="-2.82639">
        <ele>13</ele>
        <time>2026-08-29T12:35:13Z</time>
      </trkpt>
      <trkpt lat="47.53527" lon="-2.82644">
        <ele>13</ele>
        <time>2026-08-29T12:35:14Z</time>
      </trkpt>
      <trkpt lat="47.53527" lon="-2.82648">
        <ele>13</ele>
        <time>2026-08-29T12:35:15Z</time>
      </trkpt>
      <trkpt lat="47.53527" lon="-2.82652">
        <ele>13</ele>
        <time>2026-08-29T12:35:16Z</time>
      </trkpt>
      <trkpt lat="47.53527" lon="-2.82657">
        <ele>13</ele>
        <time>2026-08-29T12:35:17Z</time>
      </trkpt>
      <trkpt lat="47.53526" lon="-2.82661">
        <ele>13</ele>
        <time>2026-08-29T12:35:18Z</time>
      </trkpt>
      <trkpt lat="47.53526" lon="-2.82665">
        <ele>13</ele>
        <time>2026-08-29T12:35:19Z</time>
      </trkpt>
      <trkpt lat="47.53526" lon="-2.82669">
        <ele>13</ele>
        <time>2026-08-29T12:35:20Z</time>
      </trkpt>
      <trkpt lat="47.53526" lon="-2.82674">
        <ele>13</ele>
        <time>2026-08-29T12:35:21Z</time>
      </trkpt>
      <trkpt lat="47.53525" lon="-2.82678">
        <ele>13</ele>
        <time>2026-08-29T12:35:22Z</time>
      </trkpt>
      <trkpt lat="47.53525" lon="-2.82683">
        <ele>13</ele>
        <time>2026-08-29T12:35:23Z</time>
      </trkpt>
      <trkpt lat="47.53526" lon="-2.82687">
        <ele>13</ele>
        <time>2026-08-29T12:35:24Z</time>
      </trkpt>
      <trkpt lat="47.53525" lon="-2.82692">
        <ele>13</ele>
        <time>2026-08-29T12:35:25Z</time>
      </trkpt>
      <trkpt lat="47.53525" lon="-2.82696">
        <ele>13</ele>
        <time>2026-08-29T12:35:26Z</time>
      </trkpt>
      <trkpt lat="47.53525" lon="-2.82701">
        <ele>13</ele>
        <time>2026-08-29T12:35:27Z</time>
      </trkpt>
      <trkpt lat="47.53526" lon="-2.82705">
        <ele>13</ele>
        <time>2026-08-29T12:35:28Z</time>
      </trkpt>
      <trkpt lat="47.53526" lon="-2.8271">
        <ele>13</ele>
        <time>2026-08-29T12:35:29Z</time>
      </trkpt>
      <trkpt lat="47.53526" lon="-2.82714">
        <ele>13</ele>
        <time>2026-08-29T12:35:30Z</time>
      </trkpt>
      <trkpt lat="47.53527" lon="-2.82719">
        <ele>13</ele>
        <time>2026-08-29T12:35:31Z</time>
      </trkpt>
      <trkpt lat="47.53527" lon="-2.82724">
        <ele>13</ele>
        <time>2026-08-29T12:35:32Z</time>
      </trkpt>
      <trkpt lat="47.53527" lon="-2.82728">
        <ele>13</ele>
        <time>2026-08-29T12:35:33Z</time>
      </trkpt>
      <trkpt lat="47.53527" lon="-2.82733">
        <ele>13</ele>
        <time>2026-08-29T12:35:34Z</time>
      </trkpt>
      <trkpt lat="47.53527" lon="-2.82738">
        <ele>13</ele>
        <time>2026-08-29T12:35:35Z</time>
      </trkpt>
      <trkpt lat="47.53527" lon="-2.82742">
        <ele>13</ele>
        <time>2026-08-29T12:35:36Z</time>
      </trkpt>
      <trkpt lat="47.53527" lon="-2.82747">
        <ele>13</ele>
        <time>2026-08-29T12:35:37Z</time>
      </trkpt>
      <trkpt lat="47.53527" lon="-2.82752">
        <ele>13</ele>
        <time>2026-08-29T12:35:38Z</time>
      </trkpt>
      <trkpt lat="47.53527" lon="-2.82757">
        <ele>13</ele>
        <time>2026-08-29T12:35:39Z</time>
      </trkpt>
      <trkpt lat="47.53527" lon="-2.82761">
        <ele>13</ele>
        <time>2026-08-29T12:35:40Z</time>
      </trkpt>
      <trkpt lat="47.53527" lon="-2.82766">
        <ele>13</ele>
        <time>2026-08-29T12:35:41Z</time>
      </trkpt>
      <trkpt lat="47.53527" lon="-2.8277">
        <ele>13</ele>
        <time>2026-08-29T12:35:42Z</time>
      </trkpt>
      <trkpt lat="47.53528" lon="-2.82776">
        <ele>13</ele>
        <time>2026-08-29T12:35:43Z</time>
      </trkpt>
      <trkpt lat="47.53528" lon="-2.82781">
        <ele>12.9</ele>
        <time>2026-08-29T12:35:44Z</time>
      </trkpt>
      <trkpt lat="47.53528" lon="-2.82786">
        <ele>12.7</ele>
        <time>2026-08-29T12:35:45Z</time>
      </trkpt>
      <trkpt lat="47.53528" lon="-2.82792">
        <ele>12.5</ele>
        <time>2026-08-29T12:35:46Z</time>
      </trkpt>
      <trkpt lat="47.53529" lon="-2.82797">
        <ele>12.3</ele>
        <time>2026-08-29T12:35:47Z</time>
      </trkpt>
      <trkpt lat="47.53529" lon="-2.82803">
        <ele>12</ele>
        <time>2026-08-29T12:35:48Z</time>
      </trkpt>
      <trkpt lat="47.53529" lon="-2.82809">
        <ele>12</ele>
        <time>2026-08-29T12:35:49Z</time>
      </trkpt>
      <trkpt lat="47.53529" lon="-2.82815">
        <ele>12</ele>
        <time>2026-08-29T12:35:50Z</time>
      </trkpt>
      <trkpt lat="47.53529" lon="-2.82821">
        <ele>12</ele>
        <time>2026-08-29T12:35:51Z</time>
      </trkpt>
      <trkpt lat="47.53529" lon="-2.82827">
        <ele>12</ele>
        <time>2026-08-29T12:35:52Z</time>
      </trkpt>
      <trkpt lat="47.53529" lon="-2.82833">
        <ele>12</ele>
        <time>2026-08-29T12:35:53Z</time>
      </trkpt>
      <trkpt lat="47.5353" lon="-2.82838">
        <ele>11.9</ele>
        <time>2026-08-29T12:35:54Z</time>
      </trkpt>
      <trkpt lat="47.5353" lon="-2.82844">
        <ele>11.9</ele>
        <time>2026-08-29T12:35:55Z</time>
      </trkpt>
      <trkpt lat="47.5353" lon="-2.8285">
        <ele>11.9</ele>
        <time>2026-08-29T12:35:56Z</time>
      </trkpt>
      <trkpt lat="47.5353" lon="-2.82855">
        <ele>11.9</ele>
        <time>2026-08-29T12:35:57Z</time>
      </trkpt>
      <trkpt lat="47.5353" lon="-2.82861">
        <ele>11.9</ele>
        <time>2026-08-29T12:35:58Z</time>
      </trkpt>
      <trkpt lat="47.5353" lon="-2.82867">
        <ele>12.1</ele>
        <time>2026-08-29T12:35:59Z</time>
      </trkpt>
      <trkpt lat="47.5353" lon="-2.82872">
        <ele>12.3</ele>
        <time>2026-08-29T12:36:00Z</time>
      </trkpt>
      <trkpt lat="47.53531" lon="-2.82878">
        <ele>12.4</ele>
        <time>2026-08-29T12:36:01Z</time>
      </trkpt>
      <trkpt lat="47.53531" lon="-2.82883">
        <ele>12.6</ele>
        <time>2026-08-29T12:36:02Z</time>
      </trkpt>
      <trkpt lat="47.53531" lon="-2.82889">
        <ele>12.8</ele>
        <time>2026-08-29T12:36:03Z</time>
      </trkpt>
      <trkpt lat="47.53531" lon="-2.82894">
        <ele>12.8</ele>
        <time>2026-08-29T12:36:04Z</time>
      </trkpt>
      <trkpt lat="47.53532" lon="-2.829">
        <ele>12.8</ele>
        <time>2026-08-29T12:36:05Z</time>
      </trkpt>
      <trkpt lat="47.53532" lon="-2.82905">
        <ele>12.8</ele>
        <time>2026-08-29T12:36:06Z</time>
      </trkpt>
      <trkpt lat="47.53532" lon="-2.82911">
        <ele>12.8</ele>
        <time>2026-08-29T12:36:07Z</time>
      </trkpt>
      <trkpt lat="47.53532" lon="-2.82916">
        <ele>12.8</ele>
        <time>2026-08-29T12:36:08Z</time>
      </trkpt>
      <trkpt lat="47.53532" lon="-2.82921">
        <ele>13</ele>
        <time>2026-08-29T12:36:09Z</time>
      </trkpt>
      <trkpt lat="47.53532" lon="-2.82926">
        <ele>13.2</ele>
        <time>2026-08-29T12:36:10Z</time>
      </trkpt>
      <trkpt lat="47.53533" lon="-2.82931">
        <ele>13.4</ele>
        <time>2026-08-29T12:36:11Z</time>
      </trkpt>
      <trkpt lat="47.53533" lon="-2.82934">
        <ele>13.6</ele>
        <time>2026-08-29T12:36:12Z</time>
      </trkpt>
      <trkpt lat="47.53533" lon="-2.82936">
        <ele>13.6</ele>
        <time>2026-08-29T12:36:13Z</time>
      </trkpt>
      <trkpt lat="47.53533" lon="-2.82938">
        <ele>13.7</ele>
        <time>2026-08-29T12:36:14Z</time>
      </trkpt>
      <trkpt lat="47.53532" lon="-2.82937">
        <ele>13.7</ele>
        <time>2026-08-29T12:36:15Z</time>
      </trkpt>
      <trkpt lat="47.53531" lon="-2.82935">
        <ele>13.6</ele>
        <time>2026-08-29T12:36:16Z</time>
      </trkpt>
      <trkpt lat="47.53531" lon="-2.82933">
        <ele>13.5</ele>
        <time>2026-08-29T12:36:17Z</time>
      </trkpt>
      <trkpt lat="47.53532" lon="-2.8293">
        <ele>13.4</ele>
        <time>2026-08-29T12:36:18Z</time>
      </trkpt>
      <trkpt lat="47.53533" lon="-2.82929">
        <ele>13.3</ele>
        <time>2026-08-29T12:36:19Z</time>
      </trkpt>
      <trkpt lat="47.53534" lon="-2.8293">
        <ele>13.4</ele>
        <time>2026-08-29T12:36:20Z</time>
      </trkpt>
      <trkpt lat="47.53534" lon="-2.82931">
        <ele>13.4</ele>
        <time>2026-08-29T12:36:21Z</time>
      </trkpt>
      <trkpt lat="47.53534" lon="-2.82931">
        <ele>13.4</ele>
        <time>2026-08-29T12:36:22Z</time>
      </trkpt>
      <trkpt lat="47.53533" lon="-2.82937">
        <ele>13.7</ele>
        <time>2026-08-29T12:37:04Z</time>
      </trkpt>
      <trkpt lat="47.53533" lon="-2.8294">
        <ele>13.8</ele>
        <time>2026-08-29T12:37:05Z</time>
      </trkpt>
      <trkpt lat="47.53533" lon="-2.82944">
        <ele>14</ele>
        <time>2026-08-29T12:37:06Z</time>
      </trkpt>
      <trkpt lat="47.53533" lon="-2.82948">
        <ele>14.1</ele>
        <time>2026-08-29T12:37:07Z</time>
      </trkpt>
      <trkpt lat="47.53533" lon="-2.82952">
        <ele>14.3</ele>
        <time>2026-08-29T12:37:08Z</time>
      </trkpt>
      <trkpt lat="47.53533" lon="-2.82956">
        <ele>14.4</ele>
        <time>2026-08-29T12:37:09Z</time>
      </trkpt>
      <trkpt lat="47.53533" lon="-2.82961">
        <ele>14.6</ele>
        <time>2026-08-29T12:37:10Z</time>
      </trkpt>
      <trkpt lat="47.53533" lon="-2.82966">
        <ele>14.8</ele>
        <time>2026-08-29T12:37:11Z</time>
      </trkpt>
      <trkpt lat="47.53533" lon="-2.8297">
        <ele>14.9</ele>
        <time>2026-08-29T12:37:12Z</time>
      </trkpt>
      <trkpt lat="47.53534" lon="-2.82974">
        <ele>15</ele>
        <time>2026-08-29T12:37:13Z</time>
      </trkpt>
      <trkpt lat="47.53534" lon="-2.82979">
        <ele>15</ele>
        <time>2026-08-29T12:37:14Z</time>
      </trkpt>
      <trkpt lat="47.53534" lon="-2.82983">
        <ele>15</ele>
        <time>2026-08-29T12:37:15Z</time>
      </trkpt>
      <trkpt lat="47.53534" lon="-2.82988">
        <ele>15</ele>
        <time>2026-08-29T12:37:16Z</time>
      </trkpt>
      <trkpt lat="47.53534" lon="-2.82993">
        <ele>15</ele>
        <time>2026-08-29T12:37:17Z</time>
      </trkpt>
      <trkpt lat="47.53534" lon="-2.82998">
        <ele>15</ele>
        <time>2026-08-29T12:37:18Z</time>
      </trkpt>
      <trkpt lat="47.53534" lon="-2.83003">
        <ele>15.1</ele>
        <time>2026-08-29T12:37:19Z</time>
      </trkpt>
      <trkpt lat="47.53534" lon="-2.83008">
        <ele>15.2</ele>
        <time>2026-08-29T12:37:20Z</time>
      </trkpt>
      <trkpt lat="47.53534" lon="-2.83013">
        <ele>15.4</ele>
        <time>2026-08-29T12:37:21Z</time>
      </trkpt>
      <trkpt lat="47.53535" lon="-2.83018">
        <ele>15.5</ele>
        <time>2026-08-29T12:37:22Z</time>
      </trkpt>
      <trkpt lat="47.53535" lon="-2.83023">
        <ele>15.6</ele>
        <time>2026-08-29T12:37:23Z</time>
      </trkpt>
      <trkpt lat="47.53536" lon="-2.83028">
        <ele>15.7</ele>
        <time>2026-08-29T12:37:24Z</time>
      </trkpt>
      <trkpt lat="47.53537" lon="-2.83032">
        <ele>15.7</ele>
        <time>2026-08-29T12:37:25Z</time>
      </trkpt>
      <trkpt lat="47.53537" lon="-2.83037">
        <ele>15.8</ele>
        <time>2026-08-29T12:37:26Z</time>
      </trkpt>
      <trkpt lat="47.53537" lon="-2.83041">
        <ele>15.8</ele>
        <time>2026-08-29T12:37:27Z</time>
      </trkpt>
      <trkpt lat="47.53537" lon="-2.83044">
        <ele>15.9</ele>
        <time>2026-08-29T12:37:28Z</time>
      </trkpt>
      <trkpt lat="47.53537" lon="-2.83047">
        <ele>15.9</ele>
        <time>2026-08-29T12:37:29Z</time>
      </trkpt>
      <trkpt lat="47.53537" lon="-2.83051">
        <ele>15.9</ele>
        <time>2026-08-29T12:37:30Z</time>
      </trkpt>
      <trkpt lat="47.53537" lon="-2.83053">
        <ele>16</ele>
        <time>2026-08-29T12:37:31Z</time>
      </trkpt>
      <trkpt lat="47.53536" lon="-2.83056">
        <ele>16</ele>
        <time>2026-08-29T12:37:32Z</time>
      </trkpt>
      <trkpt lat="47.53534" lon="-2.83058">
        <ele>16.1</ele>
        <time>2026-08-29T12:37:33Z</time>
      </trkpt>
      <trkpt lat="47.53533" lon="-2.83059">
        <ele>16.1</ele>
        <time>2026-08-29T12:37:34Z</time>
      </trkpt>
      <trkpt lat="47.53531" lon="-2.83061">
        <ele>16.2</ele>
        <time>2026-08-29T12:37:35Z</time>
      </trkpt>
      <trkpt lat="47.5353" lon="-2.83063">
        <ele>16.2</ele>
        <time>2026-08-29T12:37:36Z</time>
      </trkpt>
      <trkpt lat="47.53529" lon="-2.83066">
        <ele>16.4</ele>
        <time>2026-08-29T12:37:37Z</time>
      </trkpt>
      <trkpt lat="47.53528" lon="-2.83069">
        <ele>16.5</ele>
        <time>2026-08-29T12:37:38Z</time>
      </trkpt>
      <trkpt lat="47.53528" lon="-2.83072">
        <ele>16.6</ele>
        <time>2026-08-29T12:37:39Z</time>
      </trkpt>
      <trkpt lat="47.53528" lon="-2.83074">
        <ele>16.7</ele>
        <time>2026-08-29T12:37:40Z</time>
      </trkpt>
      <trkpt lat="47.53529" lon="-2.83076">
        <ele>16.7</ele>
        <time>2026-08-29T12:37:41Z</time>
      </trkpt>
      <trkpt lat="47.5353" lon="-2.83078">
        <ele>16.7</ele>
        <time>2026-08-29T12:37:42Z</time>
      </trkpt>
      <trkpt lat="47.5353" lon="-2.83081">
        <ele>16.8</ele>
        <time>2026-08-29T12:37:43Z</time>
      </trkpt>
      <trkpt lat="47.53531" lon="-2.83084">
        <ele>16.9</ele>
        <time>2026-08-29T12:37:44Z</time>
      </trkpt>
      <trkpt lat="47.53531" lon="-2.83087">
        <ele>16.9</ele>
        <time>2026-08-29T12:37:45Z</time>
      </trkpt>
      <trkpt lat="47.5353" lon="-2.8309">
        <ele>16.9</ele>
        <time>2026-08-29T12:37:46Z</time>
      </trkpt>
      <trkpt lat="47.53529" lon="-2.83095">
        <ele>17</ele>
        <time>2026-08-29T12:37:47Z</time>
      </trkpt>
      <trkpt lat="47.53528" lon="-2.831">
        <ele>17</ele>
        <time>2026-08-29T12:37:48Z</time>
      </trkpt>
      <trkpt lat="47.53527" lon="-2.83105">
        <ele>17</ele>
        <time>2026-08-29T12:37:49Z</time>
      </trkpt>
      <trkpt lat="47.53526" lon="-2.8311">
        <ele>17</ele>
        <time>2026-08-29T12:37:50Z</time>
      </trkpt>
      <trkpt lat="47.53524" lon="-2.83116">
        <ele>17</ele>
        <time>2026-08-29T12:37:51Z</time>
      </trkpt>
      <trkpt lat="47.53523" lon="-2.83122">
        <ele>17</ele>
        <time>2026-08-29T12:37:52Z</time>
      </trkpt>
      <trkpt lat="47.53522" lon="-2.83127">
        <ele>17</ele>
        <time>2026-08-29T12:37:53Z</time>
      </trkpt>
      <trkpt lat="47.53521" lon="-2.83131">
        <ele>17</ele>
        <time>2026-08-29T12:37:54Z</time>
      </trkpt>
      <trkpt lat="47.5352" lon="-2.83137">
        <ele>17</ele>
        <time>2026-08-29T12:37:55Z</time>
      </trkpt>
      <trkpt lat="47.53517" lon="-2.83143">
        <ele>16.9</ele>
        <time>2026-08-29T12:37:56Z</time>
      </trkpt>
      <trkpt lat="47.53515" lon="-2.83148">
        <ele>16.8</ele>
        <time>2026-08-29T12:37:57Z</time>
      </trkpt>
      <trkpt lat="47.53513" lon="-2.83154">
        <ele>16.7</ele>
        <time>2026-08-29T12:37:58Z</time>
      </trkpt>
      <trkpt lat="47.53511" lon="-2.8316">
        <ele>16.7</ele>
        <time>2026-08-29T12:37:59Z</time>
      </trkpt>
      <trkpt lat="47.53509" lon="-2.83165">
        <ele>16.7</ele>
        <time>2026-08-29T12:38:00Z</time>
      </trkpt>
      <trkpt lat="47.53507" lon="-2.83171">
        <ele>16.7</ele>
        <time>2026-08-29T12:38:01Z</time>
      </trkpt>
      <trkpt lat="47.53505" lon="-2.83176">
        <ele>16.8</ele>
        <time>2026-08-29T12:38:02Z</time>
      </trkpt>
      <trkpt lat="47.53503" lon="-2.83181">
        <ele>16.8</ele>
        <time>2026-08-29T12:38:03Z</time>
      </trkpt>
      <trkpt lat="47.53501" lon="-2.83186">
        <ele>16.9</ele>
        <time>2026-08-29T12:38:04Z</time>
      </trkpt>
      <trkpt lat="47.53499" lon="-2.8319">
        <ele>17</ele>
        <time>2026-08-29T12:38:05Z</time>
      </trkpt>
      <trkpt lat="47.53497" lon="-2.83195">
        <ele>17</ele>
        <time>2026-08-29T12:38:06Z</time>
      </trkpt>
      <trkpt lat="47.53495" lon="-2.83198">
        <ele>16.8</ele>
        <time>2026-08-29T12:38:07Z</time>
      </trkpt>
      <trkpt lat="47.53493" lon="-2.83202">
        <ele>16.5</ele>
        <time>2026-08-29T12:38:08Z</time>
      </trkpt>
      <trkpt lat="47.53491" lon="-2.83205">
        <ele>16.4</ele>
        <time>2026-08-29T12:38:09Z</time>
      </trkpt>
      <trkpt lat="47.53489" lon="-2.83208">
        <ele>16.2</ele>
        <time>2026-08-29T12:38:10Z</time>
      </trkpt>
      <trkpt lat="47.53488" lon="-2.83211">
        <ele>16.1</ele>
        <time>2026-08-29T12:38:11Z</time>
      </trkpt>
      <trkpt lat="47.53488" lon="-2.83213">
        <ele>16</ele>
        <time>2026-08-29T12:38:12Z</time>
      </trkpt>
      <trkpt lat="47.53487" lon="-2.83215">
        <ele>15.9</ele>
        <time>2026-08-29T12:38:13Z</time>
      </trkpt>
      <trkpt lat="47.53487" lon="-2.83216">
        <ele>15.8</ele>
        <time>2026-08-29T12:38:14Z</time>
      </trkpt>
      <trkpt lat="47.53485" lon="-2.83217">
        <ele>15.8</ele>
        <time>2026-08-29T12:38:15Z</time>
      </trkpt>
      <trkpt lat="47.53483" lon="-2.83218">
        <ele>15.8</ele>
        <time>2026-08-29T12:38:16Z</time>
      </trkpt>
      <trkpt lat="47.53481" lon="-2.83219">
        <ele>15.8</ele>
        <time>2026-08-29T12:38:17Z</time>
      </trkpt>
      <trkpt lat="47.53479" lon="-2.83218">
        <ele>15.9</ele>
        <time>2026-08-29T12:38:18Z</time>
      </trkpt>
      <trkpt lat="47.53477" lon="-2.83218">
        <ele>16</ele>
        <time>2026-08-29T12:38:19Z</time>
      </trkpt>
      <trkpt lat="47.53475" lon="-2.83217">
        <ele>16.1</ele>
        <time>2026-08-29T12:38:20Z</time>
      </trkpt>
      <trkpt lat="47.53473" lon="-2.83218">
        <ele>16.1</ele>
        <time>2026-08-29T12:38:21Z</time>
      </trkpt>
      <trkpt lat="47.53471" lon="-2.83218">
        <ele>16.1</ele>
        <time>2026-08-29T12:38:22Z</time>
      </trkpt>
      <trkpt lat="47.5347" lon="-2.83219">
        <ele>16.1</ele>
        <time>2026-08-29T12:38:23Z</time>
      </trkpt>
      <trkpt lat="47.53468" lon="-2.83218">
        <ele>16.1</ele>
        <time>2026-08-29T12:38:24Z</time>
      </trkpt>
      <trkpt lat="47.53467" lon="-2.83217">
        <ele>16.2</ele>
        <time>2026-08-29T12:38:25Z</time>
      </trkpt>
      <trkpt lat="47.53467" lon="-2.83214">
        <ele>16.2</ele>
        <time>2026-08-29T12:38:26Z</time>
      </trkpt>
      <trkpt lat="47.53467" lon="-2.83212">
        <ele>16.3</ele>
        <time>2026-08-29T12:38:27Z</time>
      </trkpt>
      <trkpt lat="47.53468" lon="-2.8321">
        <ele>16.4</ele>
        <time>2026-08-29T12:38:28Z</time>
      </trkpt>
      <trkpt lat="47.5347" lon="-2.8321">
        <ele>16.4</ele>
        <time>2026-08-29T12:38:29Z</time>
      </trkpt>
      <trkpt lat="47.53472" lon="-2.83211">
        <ele>16.4</ele>
        <time>2026-08-29T12:38:30Z</time>
      </trkpt>
      <trkpt lat="47.53475" lon="-2.83212">
        <ele>16.3</ele>
        <time>2026-08-29T12:38:31Z</time>
      </trkpt>
      <trkpt lat="47.53478" lon="-2.83214">
        <ele>16.1</ele>
        <time>2026-08-29T12:38:32Z</time>
      </trkpt>
      <trkpt lat="47.53481" lon="-2.83215">
        <ele>16</ele>
        <time>2026-08-29T12:38:33Z</time>
      </trkpt>
      <trkpt lat="47.53485" lon="-2.83217">
        <ele>15.8</ele>
        <time>2026-08-29T12:38:34Z</time>
      </trkpt>
      <trkpt lat="47.53489" lon="-2.83219">
        <ele>15.6</ele>
        <time>2026-08-29T12:38:35Z</time>
      </trkpt>
      <trkpt lat="47.53492" lon="-2.83221">
        <ele>15.4</ele>
        <time>2026-08-29T12:38:36Z</time>
      </trkpt>
      <trkpt lat="47.53496" lon="-2.83225">
        <ele>15.1</ele>
        <time>2026-08-29T12:38:37Z</time>
      </trkpt>
      <trkpt lat="47.53501" lon="-2.83228">
        <ele>14.8</ele>
        <time>2026-08-29T12:38:38Z</time>
      </trkpt>
      <trkpt lat="47.53505" lon="-2.83233">
        <ele>14.4</ele>
        <time>2026-08-29T12:38:39Z</time>
      </trkpt>
      <trkpt lat="47.5351" lon="-2.83238">
        <ele>14.1</ele>
        <time>2026-08-29T12:38:40Z</time>
      </trkpt>
      <trkpt lat="47.53515" lon="-2.83243">
        <ele>13.7</ele>
        <time>2026-08-29T12:38:41Z</time>
      </trkpt>
      <trkpt lat="47.5352" lon="-2.83248">
        <ele>13.4</ele>
        <time>2026-08-29T12:38:42Z</time>
      </trkpt>
      <trkpt lat="47.53525" lon="-2.83253">
        <ele>13.1</ele>
        <time>2026-08-29T12:38:43Z</time>
      </trkpt>
      <trkpt lat="47.53531" lon="-2.83258">
        <ele>12.9</ele>
        <time>2026-08-29T12:38:44Z</time>
      </trkpt>
      <trkpt lat="47.53537" lon="-2.83264">
        <ele>12.5</ele>
        <time>2026-08-29T12:38:45Z</time>
      </trkpt>
      <trkpt lat="47.53542" lon="-2.8327">
        <ele>12.1</ele>
        <time>2026-08-29T12:38:46Z</time>
      </trkpt>
      <trkpt lat="47.53548" lon="-2.83275">
        <ele>11.6</ele>
        <time>2026-08-29T12:38:47Z</time>
      </trkpt>
      <trkpt lat="47.53555" lon="-2.8328">
        <ele>11.1</ele>
        <time>2026-08-29T12:38:48Z</time>
      </trkpt>
      <trkpt lat="47.53561" lon="-2.83286">
        <ele>11.2</ele>
        <time>2026-08-29T12:38:49Z</time>
      </trkpt>
      <trkpt lat="47.53567" lon="-2.8329">
        <ele>11.3</ele>
        <time>2026-08-29T12:38:50Z</time>
      </trkpt>
      <trkpt lat="47.53574" lon="-2.83295">
        <ele>11.2</ele>
        <time>2026-08-29T12:38:51Z</time>
      </trkpt>
      <trkpt lat="47.53581" lon="-2.83299">
        <ele>11.1</ele>
        <time>2026-08-29T12:38:52Z</time>
      </trkpt>
      <trkpt lat="47.53587" lon="-2.83303">
        <ele>11</ele>
        <time>2026-08-29T12:38:53Z</time>
      </trkpt>
      <trkpt lat="47.53594" lon="-2.83307">
        <ele>11</ele>
        <time>2026-08-29T12:38:54Z</time>
      </trkpt>
      <trkpt lat="47.536" lon="-2.83311">
        <ele>10.9</ele>
        <time>2026-08-29T12:38:55Z</time>
      </trkpt>
      <trkpt lat="47.53606" lon="-2.83316">
        <ele>10.7</ele>
        <time>2026-08-29T12:38:56Z</time>
      </trkpt>
      <trkpt lat="47.53612" lon="-2.8332">
        <ele>10.5</ele>
        <time>2026-08-29T12:38:57Z</time>
      </trkpt>
      <trkpt lat="47.53618" lon="-2.83325">
        <ele>10.3</ele>
        <time>2026-08-29T12:38:58Z</time>
      </trkpt>
      <trkpt lat="47.53623" lon="-2.8333">
        <ele>10.1</ele>
        <time>2026-08-29T12:38:59Z</time>
      </trkpt>
      <trkpt lat="47.53628" lon="-2.83335">
        <ele>10</ele>
        <time>2026-08-29T12:39:00Z</time>
      </trkpt>
      <trkpt lat="47.53633" lon="-2.8334">
        <ele>10</ele>
        <time>2026-08-29T12:39:01Z</time>
      </trkpt>
      <trkpt lat="47.53637" lon="-2.83345">
        <ele>10</ele>
        <time>2026-08-29T12:39:02Z</time>
      </trkpt>
      <trkpt lat="47.5364" lon="-2.83351">
        <ele>10</ele>
        <time>2026-08-29T12:39:03Z</time>
      </trkpt>
      <trkpt lat="47.53642" lon="-2.83358">
        <ele>10.1</ele>
        <time>2026-08-29T12:39:04Z</time>
      </trkpt>
      <trkpt lat="47.53643" lon="-2.83365">
        <ele>10</ele>
        <time>2026-08-29T12:39:05Z</time>
      </trkpt>
      <trkpt lat="47.53643" lon="-2.83372">
        <ele>9.8</ele>
        <time>2026-08-29T12:39:06Z</time>
      </trkpt>
      <trkpt lat="47.53643" lon="-2.83379">
        <ele>9.5</ele>
        <time>2026-08-29T12:39:07Z</time>
      </trkpt>
      <trkpt lat="47.53643" lon="-2.83387">
        <ele>9.2</ele>
        <time>2026-08-29T12:39:08Z</time>
      </trkpt>
      <trkpt lat="47.53644" lon="-2.83393">
        <ele>9.2</ele>
        <time>2026-08-29T12:39:09Z</time>
      </trkpt>
      <trkpt lat="47.53644" lon="-2.83401">
        <ele>9.2</ele>
        <time>2026-08-29T12:39:10Z</time>
      </trkpt>
      <trkpt lat="47.53644" lon="-2.83407">
        <ele>9.2</ele>
        <time>2026-08-29T12:39:11Z</time>
      </trkpt>
      <trkpt lat="47.53644" lon="-2.83414">
        <ele>9.2</ele>
        <time>2026-08-29T12:39:12Z</time>
      </trkpt>
      <trkpt lat="47.53644" lon="-2.83421">
        <ele>9.2</ele>
        <time>2026-08-29T12:39:13Z</time>
      </trkpt>
      <trkpt lat="47.53643" lon="-2.83428">
        <ele>9.1</ele>
        <time>2026-08-29T12:39:14Z</time>
      </trkpt>
      <trkpt lat="47.53643" lon="-2.83435">
        <ele>9.1</ele>
        <time>2026-08-29T12:39:15Z</time>
      </trkpt>
      <trkpt lat="47.53643" lon="-2.83442">
        <ele>9.1</ele>
        <time>2026-08-29T12:39:16Z</time>
      </trkpt>
      <trkpt lat="47.53644" lon="-2.83448">
        <ele>9.2</ele>
        <time>2026-08-29T12:39:17Z</time>
      </trkpt>
      <trkpt lat="47.53644" lon="-2.83454">
        <ele>9.1</ele>
        <time>2026-08-29T12:39:18Z</time>
      </trkpt>
      <trkpt lat="47.53644" lon="-2.8346">
        <ele>9.1</ele>
        <time>2026-08-29T12:39:19Z</time>
      </trkpt>
      <trkpt lat="47.53644" lon="-2.83466">
        <ele>9</ele>
        <time>2026-08-29T12:39:20Z</time>
      </trkpt>
      <trkpt lat="47.53643" lon="-2.83472">
        <ele>9</ele>
        <time>2026-08-29T12:39:21Z</time>
      </trkpt>
      <trkpt lat="47.53644" lon="-2.83478">
        <ele>8.8</ele>
        <time>2026-08-29T12:39:22Z</time>
      </trkpt>
      <trkpt lat="47.53644" lon="-2.83485">
        <ele>8.6</ele>
        <time>2026-08-29T12:39:23Z</time>
      </trkpt>
      <trkpt lat="47.53644" lon="-2.83492">
        <ele>8.4</ele>
        <time>2026-08-29T12:39:24Z</time>
      </trkpt>
      <trkpt lat="47.53644" lon="-2.83498">
        <ele>8.2</ele>
        <time>2026-08-29T12:39:25Z</time>
      </trkpt>
      <trkpt lat="47.53644" lon="-2.83504">
        <ele>8.2</ele>
        <time>2026-08-29T12:39:26Z</time>
      </trkpt>
      <trkpt lat="47.53644" lon="-2.83511">
        <ele>8.2</ele>
        <time>2026-08-29T12:39:27Z</time>
      </trkpt>
      <trkpt lat="47.53644" lon="-2.83519">
        <ele>8.2</ele>
        <time>2026-08-29T12:39:28Z</time>
      </trkpt>
      <trkpt lat="47.53644" lon="-2.83526">
        <ele>8.2</ele>
        <time>2026-08-29T12:39:29Z</time>
      </trkpt>
      <trkpt lat="47.53645" lon="-2.83533">
        <ele>8.2</ele>
        <time>2026-08-29T12:39:30Z</time>
      </trkpt>
      <trkpt lat="47.53646" lon="-2.8354">
        <ele>8.1</ele>
        <time>2026-08-29T12:39:31Z</time>
      </trkpt>
      <trkpt lat="47.53648" lon="-2.83547">
        <ele>8.1</ele>
        <time>2026-08-29T12:39:32Z</time>
      </trkpt>
      <trkpt lat="47.5365" lon="-2.83555">
        <ele>8</ele>
        <time>2026-08-29T12:39:33Z</time>
      </trkpt>
      <trkpt lat="47.53652" lon="-2.83562">
        <ele>7.9</ele>
        <time>2026-08-29T12:39:34Z</time>
      </trkpt>
      <trkpt lat="47.53654" lon="-2.83569">
        <ele>7.7</ele>
        <time>2026-08-29T12:39:35Z</time>
      </trkpt>
      <trkpt lat="47.53657" lon="-2.83575">
        <ele>7.5</ele>
        <time>2026-08-29T12:39:36Z</time>
      </trkpt>
      <trkpt lat="47.5366" lon="-2.83582">
        <ele>7.3</ele>
        <time>2026-08-29T12:39:37Z</time>
      </trkpt>
      <trkpt lat="47.53664" lon="-2.83588">
        <ele>7.1</ele>
        <time>2026-08-29T12:39:38Z</time>
      </trkpt>
      <trkpt lat="47.53667" lon="-2.83594">
        <ele>7</ele>
        <time>2026-08-29T12:39:39Z</time>
      </trkpt>
      <trkpt lat="47.53671" lon="-2.836">
        <ele>6.9</ele>
        <time>2026-08-29T12:39:40Z</time>
      </trkpt>
      <trkpt lat="47.53675" lon="-2.83605">
        <ele>6.8</ele>
        <time>2026-08-29T12:39:41Z</time>
      </trkpt>
      <trkpt lat="47.53679" lon="-2.83611">
        <ele>6.6</ele>
        <time>2026-08-29T12:39:42Z</time>
      </trkpt>
      <trkpt lat="47.53683" lon="-2.83617">
        <ele>6.4</ele>
        <time>2026-08-29T12:39:43Z</time>
      </trkpt>
      <trkpt lat="47.53687" lon="-2.83622">
        <ele>6.3</ele>
        <time>2026-08-29T12:39:44Z</time>
      </trkpt>
      <trkpt lat="47.5369" lon="-2.83628">
        <ele>6.2</ele>
        <time>2026-08-29T12:39:45Z</time>
      </trkpt>
      <trkpt lat="47.53693" lon="-2.83634">
        <ele>6.1</ele>
        <time>2026-08-29T12:39:46Z</time>
      </trkpt>
      <trkpt lat="47.53696" lon="-2.8364">
        <ele>6</ele>
        <time>2026-08-29T12:39:47Z</time>
      </trkpt>
      <trkpt lat="47.53698" lon="-2.83647">
        <ele>6</ele>
        <time>2026-08-29T12:39:48Z</time>
      </trkpt>
      <trkpt lat="47.53701" lon="-2.83653">
        <ele>6</ele>
        <time>2026-08-29T12:39:49Z</time>
      </trkpt>
      <trkpt lat="47.53703" lon="-2.83659">
        <ele>6</ele>
        <time>2026-08-29T12:39:50Z</time>
      </trkpt>
      <trkpt lat="47.53705" lon="-2.83665">
        <ele>6</ele>
        <time>2026-08-29T12:39:51Z</time>
      </trkpt>
      <trkpt lat="47.53708" lon="-2.83671">
        <ele>5.9</ele>
        <time>2026-08-29T12:39:52Z</time>
      </trkpt>
      <trkpt lat="47.5371" lon="-2.83677">
        <ele>5.8</ele>
        <time>2026-08-29T12:39:53Z</time>
      </trkpt>
      <trkpt lat="47.53713" lon="-2.83682">
        <ele>5.6</ele>
        <time>2026-08-29T12:39:54Z</time>
      </trkpt>
      <trkpt lat="47.53715" lon="-2.83688">
        <ele>5.4</ele>
        <time>2026-08-29T12:39:55Z</time>
      </trkpt>
      <trkpt lat="47.53717" lon="-2.83694">
        <ele>5.2</ele>
        <time>2026-08-29T12:39:56Z</time>
      </trkpt>
      <trkpt lat="47.5372" lon="-2.83699">
        <ele>5.1</ele>
        <time>2026-08-29T12:39:57Z</time>
      </trkpt>
      <trkpt lat="47.53723" lon="-2.83704">
        <ele>5</ele>
        <time>2026-08-29T12:39:58Z</time>
      </trkpt>
      <trkpt lat="47.53725" lon="-2.8371">
        <ele>5</ele>
        <time>2026-08-29T12:39:59Z</time>
      </trkpt>
      <trkpt lat="47.53727" lon="-2.83716">
        <ele>5</ele>
        <time>2026-08-29T12:40:00Z</time>
      </trkpt>
      <trkpt lat="47.53728" lon="-2.83722">
        <ele>5</ele>
        <time>2026-08-29T12:40:01Z</time>
      </trkpt>
      <trkpt lat="47.53728" lon="-2.83729">
        <ele>5</ele>
        <time>2026-08-29T12:40:02Z</time>
      </trkpt>
      <trkpt lat="47.53727" lon="-2.83735">
        <ele>5</ele>
        <time>2026-08-29T12:40:03Z</time>
      </trkpt>
      <trkpt lat="47.53726" lon="-2.83741">
        <ele>5</ele>
        <time>2026-08-29T12:40:04Z</time>
      </trkpt>
      <trkpt lat="47.53724" lon="-2.83747">
        <ele>5</ele>
        <time>2026-08-29T12:40:05Z</time>
      </trkpt>
      <trkpt lat="47.53723" lon="-2.83753">
        <ele>5</ele>
        <time>2026-08-29T12:40:06Z</time>
      </trkpt>
      <trkpt lat="47.53721" lon="-2.83759">
        <ele>5</ele>
        <time>2026-08-29T12:40:07Z</time>
      </trkpt>
      <trkpt lat="47.53719" lon="-2.83765">
        <ele>5.1</ele>
        <time>2026-08-29T12:40:08Z</time>
      </trkpt>
      <trkpt lat="47.53717" lon="-2.83771">
        <ele>5.2</ele>
        <time>2026-08-29T12:40:09Z</time>
      </trkpt>
      <trkpt lat="47.53716" lon="-2.83778">
        <ele>5.2</ele>
        <time>2026-08-29T12:40:10Z</time>
      </trkpt>
      <trkpt lat="47.53714" lon="-2.83784">
        <ele>5.3</ele>
        <time>2026-08-29T12:40:11Z</time>
      </trkpt>
      <trkpt lat="47.53713" lon="-2.8379">
        <ele>5.3</ele>
        <time>2026-08-29T12:40:12Z</time>
      </trkpt>
      <trkpt lat="47.53711" lon="-2.83796">
        <ele>5.4</ele>
        <time>2026-08-29T12:40:13Z</time>
      </trkpt>
      <trkpt lat="47.5371" lon="-2.83802">
        <ele>5.4</ele>
        <time>2026-08-29T12:40:14Z</time>
      </trkpt>
      <trkpt lat="47.53709" lon="-2.83808">
        <ele>5.5</ele>
        <time>2026-08-29T12:40:15Z</time>
      </trkpt>
      <trkpt lat="47.53708" lon="-2.83814">
        <ele>5.5</ele>
        <time>2026-08-29T12:40:16Z</time>
      </trkpt>
      <trkpt lat="47.53707" lon="-2.8382">
        <ele>5.5</ele>
        <time>2026-08-29T12:40:17Z</time>
      </trkpt>
      <trkpt lat="47.53706" lon="-2.83826">
        <ele>5.6</ele>
        <time>2026-08-29T12:40:18Z</time>
      </trkpt>
      <trkpt lat="47.53705" lon="-2.83832">
        <ele>5.6</ele>
        <time>2026-08-29T12:40:19Z</time>
      </trkpt>
      <trkpt lat="47.53704" lon="-2.83839">
        <ele>5.5</ele>
        <time>2026-08-29T12:40:20Z</time>
      </trkpt>
      <trkpt lat="47.53704" lon="-2.83845">
        <ele>5.4</ele>
        <time>2026-08-29T12:40:21Z</time>
      </trkpt>
      <trkpt lat="47.53703" lon="-2.83852">
        <ele>5.2</ele>
        <time>2026-08-29T12:40:22Z</time>
      </trkpt>
      <trkpt lat="47.53703" lon="-2.83858">
        <ele>5.1</ele>
        <time>2026-08-29T12:40:23Z</time>
      </trkpt>
      <trkpt lat="47.53702" lon="-2.83865">
        <ele>5</ele>
        <time>2026-08-29T12:40:24Z</time>
      </trkpt>
      <trkpt lat="47.53702" lon="-2.83872">
        <ele>5</ele>
        <time>2026-08-29T12:40:25Z</time>
      </trkpt>
      <trkpt lat="47.53701" lon="-2.83879">
        <ele>5</ele>
        <time>2026-08-29T12:40:26Z</time>
      </trkpt>
      <trkpt lat="47.53701" lon="-2.83886">
        <ele>5</ele>
        <time>2026-08-29T12:40:27Z</time>
      </trkpt>
      <trkpt lat="47.53701" lon="-2.83892">
        <ele>5</ele>
        <time>2026-08-29T12:40:28Z</time>
      </trkpt>
      <trkpt lat="47.53702" lon="-2.83899">
        <ele>5</ele>
        <time>2026-08-29T12:40:29Z</time>
      </trkpt>
      <trkpt lat="47.53702" lon="-2.83905">
        <ele>5</ele>
        <time>2026-08-29T12:40:30Z</time>
      </trkpt>
      <trkpt lat="47.53703" lon="-2.83911">
        <ele>5</ele>
        <time>2026-08-29T12:40:31Z</time>
      </trkpt>
      <trkpt lat="47.53703" lon="-2.83917">
        <ele>5</ele>
        <time>2026-08-29T12:40:32Z</time>
      </trkpt>
      <trkpt lat="47.53702" lon="-2.83923">
        <ele>5</ele>
        <time>2026-08-29T12:40:33Z</time>
      </trkpt>
      <trkpt lat="47.53701" lon="-2.8393">
        <ele>5</ele>
        <time>2026-08-29T12:40:34Z</time>
      </trkpt>
      <trkpt lat="47.537" lon="-2.83937">
        <ele>5</ele>
        <time>2026-08-29T12:40:35Z</time>
      </trkpt>
      <trkpt lat="47.537" lon="-2.83944">
        <ele>5</ele>
        <time>2026-08-29T12:40:36Z</time>
      </trkpt>
      <trkpt lat="47.53699" lon="-2.83951">
        <ele>4.8</ele>
        <time>2026-08-29T12:40:37Z</time>
      </trkpt>
      <trkpt lat="47.53699" lon="-2.83958">
        <ele>4.5</ele>
        <time>2026-08-29T12:40:38Z</time>
      </trkpt>
      <trkpt lat="47.53699" lon="-2.83965">
        <ele>4.3</ele>
        <time>2026-08-29T12:40:39Z</time>
      </trkpt>
      <trkpt lat="47.53698" lon="-2.83972">
        <ele>4</ele>
        <time>2026-08-29T12:40:40Z</time>
      </trkpt>
      <trkpt lat="47.53697" lon="-2.8398">
        <ele>4</ele>
        <time>2026-08-29T12:40:41Z</time>
      </trkpt>
      <trkpt lat="47.53697" lon="-2.83987">
        <ele>4</ele>
        <time>2026-08-29T12:40:42Z</time>
      </trkpt>
      <trkpt lat="47.53696" lon="-2.83994">
        <ele>4</ele>
        <time>2026-08-29T12:40:43Z</time>
      </trkpt>
      <trkpt lat="47.53696" lon="-2.84">
        <ele>4</ele>
        <time>2026-08-29T12:40:44Z</time>
      </trkpt>
      <trkpt lat="47.53696" lon="-2.84007">
        <ele>4</ele>
        <time>2026-08-29T12:40:45Z</time>
      </trkpt>
      <trkpt lat="47.53696" lon="-2.84012">
        <ele>4</ele>
        <time>2026-08-29T12:40:46Z</time>
      </trkpt>
      <trkpt lat="47.53696" lon="-2.84018">
        <ele>4</ele>
        <time>2026-08-29T12:40:47Z</time>
      </trkpt>
      <trkpt lat="47.53696" lon="-2.84025">
        <ele>4</ele>
        <time>2026-08-29T12:40:48Z</time>
      </trkpt>
      <trkpt lat="47.53696" lon="-2.84032">
        <ele>4</ele>
        <time>2026-08-29T12:40:49Z</time>
      </trkpt>
      <trkpt lat="47.53695" lon="-2.84039">
        <ele>4</ele>
        <time>2026-08-29T12:40:50Z</time>
      </trkpt>
      <trkpt lat="47.53695" lon="-2.84046">
        <ele>4</ele>
        <time>2026-08-29T12:40:51Z</time>
      </trkpt>
      <trkpt lat="47.53694" lon="-2.84053">
        <ele>4</ele>
        <time>2026-08-29T12:40:52Z</time>
      </trkpt>
      <trkpt lat="47.53693" lon="-2.8406">
        <ele>4.1</ele>
        <time>2026-08-29T12:40:53Z</time>
      </trkpt>
      <trkpt lat="47.53693" lon="-2.84066">
        <ele>4.1</ele>
        <time>2026-08-29T12:40:54Z</time>
      </trkpt>
      <trkpt lat="47.53694" lon="-2.84073">
        <ele>4</ele>
        <time>2026-08-29T12:40:55Z</time>
      </trkpt>
      <trkpt lat="47.53695" lon="-2.84078">
        <ele>4</ele>
        <time>2026-08-29T12:40:56Z</time>
      </trkpt>
      <trkpt lat="47.53698" lon="-2.84082">
        <ele>4</ele>
        <time>2026-08-29T12:40:57Z</time>
      </trkpt>
      <trkpt lat="47.53701" lon="-2.84086">
        <ele>4</ele>
        <time>2026-08-29T12:40:58Z</time>
      </trkpt>
      <trkpt lat="47.53705" lon="-2.84088">
        <ele>4</ele>
        <time>2026-08-29T12:40:59Z</time>
      </trkpt>
      <trkpt lat="47.53709" lon="-2.84091">
        <ele>4</ele>
        <time>2026-08-29T12:41:00Z</time>
      </trkpt>
      <trkpt lat="47.53714" lon="-2.84094">
        <ele>4</ele>
        <time>2026-08-29T12:41:01Z</time>
      </trkpt>
      <trkpt lat="47.53718" lon="-2.84097">
        <ele>4</ele>
        <time>2026-08-29T12:41:02Z</time>
      </trkpt>
      <trkpt lat="47.53722" lon="-2.841">
        <ele>4</ele>
        <time>2026-08-29T12:41:03Z</time>
      </trkpt>
      <trkpt lat="47.53726" lon="-2.84103">
        <ele>4</ele>
        <time>2026-08-29T12:41:04Z</time>
      </trkpt>
      <trkpt lat="47.53731" lon="-2.84106">
        <ele>4</ele>
        <time>2026-08-29T12:41:05Z</time>
      </trkpt>
      <trkpt lat="47.53735" lon="-2.84109">
        <ele>4</ele>
        <time>2026-08-29T12:41:06Z</time>
      </trkpt>
      <trkpt lat="47.53739" lon="-2.84112">
        <ele>4</ele>
        <time>2026-08-29T12:41:07Z</time>
      </trkpt>
      <trkpt lat="47.53743" lon="-2.84116">
        <ele>4</ele>
        <time>2026-08-29T12:41:08Z</time>
      </trkpt>
      <trkpt lat="47.53748" lon="-2.84119">
        <ele>4</ele>
        <time>2026-08-29T12:41:09Z</time>
      </trkpt>
      <trkpt lat="47.53752" lon="-2.84122">
        <ele>4</ele>
        <time>2026-08-29T12:41:10Z</time>
      </trkpt>
      <trkpt lat="47.53756" lon="-2.84126">
        <ele>4</ele>
        <time>2026-08-29T12:41:11Z</time>
      </trkpt>
      <trkpt lat="47.53759" lon="-2.8413">
        <ele>4</ele>
        <time>2026-08-29T12:41:12Z</time>
      </trkpt>
      <trkpt lat="47.53763" lon="-2.84135">
        <ele>4</ele>
        <time>2026-08-29T12:41:13Z</time>
      </trkpt>
      <trkpt lat="47.53766" lon="-2.8414">
        <ele>4</ele>
        <time>2026-08-29T12:41:14Z</time>
      </trkpt>
      <trkpt lat="47.53768" lon="-2.84146">
        <ele>4</ele>
        <time>2026-08-29T12:41:15Z</time>
      </trkpt>
      <trkpt lat="47.53772" lon="-2.84151">
        <ele>4</ele>
        <time>2026-08-29T12:41:16Z</time>
      </trkpt>
      <trkpt lat="47.53775" lon="-2.84156">
        <ele>4</ele>
        <time>2026-08-29T12:41:17Z</time>
      </trkpt>
      <trkpt lat="47.53777" lon="-2.84161">
        <ele>4</ele>
        <time>2026-08-29T12:41:18Z</time>
      </trkpt>
      <trkpt lat="47.5378" lon="-2.84167">
        <ele>3.9</ele>
        <time>2026-08-29T12:41:19Z</time>
      </trkpt>
      <trkpt lat="47.53783" lon="-2.84172">
        <ele>3.8</ele>
        <time>2026-08-29T12:41:20Z</time>
      </trkpt>
      <trkpt lat="47.53786" lon="-2.84177">
        <ele>3.8</ele>
        <time>2026-08-29T12:41:21Z</time>
      </trkpt>
      <trkpt lat="47.53789" lon="-2.84183">
        <ele>3.8</ele>
        <time>2026-08-29T12:41:22Z</time>
      </trkpt>
      <trkpt lat="47.53791" lon="-2.84188">
        <ele>3.9</ele>
        <time>2026-08-29T12:41:23Z</time>
      </trkpt>
      <trkpt lat="47.53794" lon="-2.84194">
        <ele>4</ele>
        <time>2026-08-29T12:41:24Z</time>
      </trkpt>
      <trkpt lat="47.53795" lon="-2.84201">
        <ele>4</ele>
        <time>2026-08-29T12:41:25Z</time>
      </trkpt>
      <trkpt lat="47.53796" lon="-2.84207">
        <ele>4</ele>
        <time>2026-08-29T12:41:26Z</time>
      </trkpt>
      <trkpt lat="47.53798" lon="-2.84214">
        <ele>4</ele>
        <time>2026-08-29T12:41:27Z</time>
      </trkpt>
      <trkpt lat="47.53799" lon="-2.8422">
        <ele>4</ele>
        <time>2026-08-29T12:41:28Z</time>
      </trkpt>
      <trkpt lat="47.53799" lon="-2.84227">
        <ele>3.8</ele>
        <time>2026-08-29T12:41:29Z</time>
      </trkpt>
      <trkpt lat="47.53799" lon="-2.84234">
        <ele>3.6</ele>
        <time>2026-08-29T12:41:30Z</time>
      </trkpt>
      <trkpt lat="47.53799" lon="-2.84241">
        <ele>3.3</ele>
        <time>2026-08-29T12:41:31Z</time>
      </trkpt>
      <trkpt lat="47.538" lon="-2.84248">
        <ele>3.1</ele>
        <time>2026-08-29T12:41:32Z</time>
      </trkpt>
      <trkpt lat="47.538" lon="-2.84254">
        <ele>3</ele>
        <time>2026-08-29T12:41:33Z</time>
      </trkpt>
      <trkpt lat="47.53801" lon="-2.8426">
        <ele>3.1</ele>
        <time>2026-08-29T12:41:34Z</time>
      </trkpt>
      <trkpt lat="47.53803" lon="-2.84266">
        <ele>3.1</ele>
        <time>2026-08-29T12:41:35Z</time>
      </trkpt>
      <trkpt lat="47.53805" lon="-2.84272">
        <ele>3</ele>
        <time>2026-08-29T12:41:36Z</time>
      </trkpt>
      <trkpt lat="47.53808" lon="-2.84276">
        <ele>3</ele>
        <time>2026-08-29T12:41:37Z</time>
      </trkpt>
      <trkpt lat="47.53811" lon="-2.84279">
        <ele>3</ele>
        <time>2026-08-29T12:41:38Z</time>
      </trkpt>
      <trkpt lat="47.53814" lon="-2.84281">
        <ele>3</ele>
        <time>2026-08-29T12:41:39Z</time>
      </trkpt>
      <trkpt lat="47.53817" lon="-2.84283">
        <ele>3</ele>
        <time>2026-08-29T12:41:40Z</time>
      </trkpt>
      <trkpt lat="47.53819" lon="-2.84286">
        <ele>3</ele>
        <time>2026-08-29T12:41:41Z</time>
      </trkpt>
      <trkpt lat="47.53821" lon="-2.8429">
        <ele>3</ele>
        <time>2026-08-29T12:41:42Z</time>
      </trkpt>
      <trkpt lat="47.53822" lon="-2.84295">
        <ele>3</ele>
        <time>2026-08-29T12:41:43Z</time>
      </trkpt>
      <trkpt lat="47.53822" lon="-2.843">
        <ele>3</ele>
        <time>2026-08-29T12:41:44Z</time>
      </trkpt>
      <trkpt lat="47.53822" lon="-2.84306">
        <ele>3</ele>
        <time>2026-08-29T12:41:45Z</time>
      </trkpt>
      <trkpt lat="47.5382" lon="-2.84312">
        <ele>3</ele>
        <time>2026-08-29T12:41:46Z</time>
      </trkpt>
      <trkpt lat="47.53819" lon="-2.84317">
        <ele>3</ele>
        <time>2026-08-29T12:41:47Z</time>
      </trkpt>
      <trkpt lat="47.53817" lon="-2.84322">
        <ele>3</ele>
        <time>2026-08-29T12:41:48Z</time>
      </trkpt>
      <trkpt lat="47.53816" lon="-2.84327">
        <ele>3</ele>
        <time>2026-08-29T12:41:49Z</time>
      </trkpt>
      <trkpt lat="47.53815" lon="-2.84333">
        <ele>3</ele>
        <time>2026-08-29T12:41:50Z</time>
      </trkpt>
      <trkpt lat="47.53814" lon="-2.84338">
        <ele>3</ele>
        <time>2026-08-29T12:41:51Z</time>
      </trkpt>
      <trkpt lat="47.53812" lon="-2.84344">
        <ele>3</ele>
        <time>2026-08-29T12:41:52Z</time>
      </trkpt>
      <trkpt lat="47.5381" lon="-2.8435">
        <ele>3</ele>
        <time>2026-08-29T12:41:53Z</time>
      </trkpt>
      <trkpt lat="47.53808" lon="-2.84355">
        <ele>3</ele>
        <time>2026-08-29T12:41:54Z</time>
      </trkpt>
      <trkpt lat="47.53806" lon="-2.8436">
        <ele>3</ele>
        <time>2026-08-29T12:41:55Z</time>
      </trkpt>
      <trkpt lat="47.53803" lon="-2.84365">
        <ele>3.1</ele>
        <time>2026-08-29T12:41:56Z</time>
      </trkpt>
      <trkpt lat="47.53801" lon="-2.84369">
        <ele>3.2</ele>
        <time>2026-08-29T12:41:57Z</time>
      </trkpt>
      <trkpt lat="47.53798" lon="-2.84374">
        <ele>3.3</ele>
        <time>2026-08-29T12:41:58Z</time>
      </trkpt>
      <trkpt lat="47.53796" lon="-2.84379">
        <ele>3.3</ele>
        <time>2026-08-29T12:41:59Z</time>
      </trkpt>
      <trkpt lat="47.53794" lon="-2.84385">
        <ele>3.4</ele>
        <time>2026-08-29T12:42:00Z</time>
      </trkpt>
      <trkpt lat="47.53793" lon="-2.84391">
        <ele>3.5</ele>
        <time>2026-08-29T12:42:01Z</time>
      </trkpt>
      <trkpt lat="47.53792" lon="-2.84396">
        <ele>3.6</ele>
        <time>2026-08-29T12:42:02Z</time>
      </trkpt>
      <trkpt lat="47.53792" lon="-2.84402">
        <ele>3.7</ele>
        <time>2026-08-29T12:42:03Z</time>
      </trkpt>
      <trkpt lat="47.53792" lon="-2.84407">
        <ele>3.8</ele>
        <time>2026-08-29T12:42:04Z</time>
      </trkpt>
      <trkpt lat="47.53792" lon="-2.84412">
        <ele>3.9</ele>
        <time>2026-08-29T12:42:05Z</time>
      </trkpt>
      <trkpt lat="47.53791" lon="-2.84417">
        <ele>4</ele>
        <time>2026-08-29T12:42:06Z</time>
      </trkpt>
      <trkpt lat="47.53791" lon="-2.84423">
        <ele>3.9</ele>
        <time>2026-08-29T12:42:07Z</time>
      </trkpt>
      <trkpt lat="47.53791" lon="-2.84429">
        <ele>3.8</ele>
        <time>2026-08-29T12:42:08Z</time>
      </trkpt>
      <trkpt lat="47.53791" lon="-2.84434">
        <ele>3.7</ele>
        <time>2026-08-29T12:42:09Z</time>
      </trkpt>
      <trkpt lat="47.53789" lon="-2.84439">
        <ele>3.7</ele>
        <time>2026-08-29T12:42:10Z</time>
      </trkpt>
      <trkpt lat="47.53787" lon="-2.84444">
        <ele>3.7</ele>
        <time>2026-08-29T12:42:11Z</time>
      </trkpt>
      <trkpt lat="47.53785" lon="-2.84448">
        <ele>3.7</ele>
        <time>2026-08-29T12:42:12Z</time>
      </trkpt>
      <trkpt lat="47.53782" lon="-2.84451">
        <ele>3.8</ele>
        <time>2026-08-29T12:42:13Z</time>
      </trkpt>
      <trkpt lat="47.53779" lon="-2.84455">
        <ele>4</ele>
        <time>2026-08-29T12:42:14Z</time>
      </trkpt>
      <trkpt lat="47.53777" lon="-2.8446">
        <ele>4</ele>
        <time>2026-08-29T12:42:15Z</time>
      </trkpt>
      <trkpt lat="47.53776" lon="-2.84466">
        <ele>4</ele>
        <time>2026-08-29T12:42:16Z</time>
      </trkpt>
      <trkpt lat="47.53776" lon="-2.84472">
        <ele>4</ele>
        <time>2026-08-29T12:42:17Z</time>
      </trkpt>
      <trkpt lat="47.53776" lon="-2.84478">
        <ele>3.8</ele>
        <time>2026-08-29T12:42:18Z</time>
      </trkpt>
      <trkpt lat="47.53775" lon="-2.84485">
        <ele>3.5</ele>
        <time>2026-08-29T12:42:19Z</time>
      </trkpt>
      <trkpt lat="47.53774" lon="-2.84491">
        <ele>3.3</ele>
        <time>2026-08-29T12:42:20Z</time>
      </trkpt>
      <trkpt lat="47.53772" lon="-2.84496">
        <ele>3.1</ele>
        <time>2026-08-29T12:42:21Z</time>
      </trkpt>
      <trkpt lat="47.53768" lon="-2.84499">
        <ele>3</ele>
        <time>2026-08-29T12:42:22Z</time>
      </trkpt>
      <trkpt lat="47.53765" lon="-2.845">
        <ele>3</ele>
        <time>2026-08-29T12:42:23Z</time>
      </trkpt>
      <trkpt lat="47.53761" lon="-2.845">
        <ele>3</ele>
        <time>2026-08-29T12:42:24Z</time>
      </trkpt>
      <trkpt lat="47.53757" lon="-2.845">
        <ele>3</ele>
        <time>2026-08-29T12:42:25Z</time>
      </trkpt>
      <trkpt lat="47.53752" lon="-2.845">
        <ele>3</ele>
        <time>2026-08-29T12:42:26Z</time>
      </trkpt>
      <trkpt lat="47.53748" lon="-2.84498">
        <ele>3.1</ele>
        <time>2026-08-29T12:42:27Z</time>
      </trkpt>
      <trkpt lat="47.53744" lon="-2.84496">
        <ele>3.3</ele>
        <time>2026-08-29T12:42:28Z</time>
      </trkpt>
      <trkpt lat="47.5374" lon="-2.84493">
        <ele>3.5</ele>
        <time>2026-08-29T12:42:29Z</time>
      </trkpt>
      <trkpt lat="47.53737" lon="-2.84491">
        <ele>3.6</ele>
        <time>2026-08-29T12:42:30Z</time>
      </trkpt>
      <trkpt lat="47.53734" lon="-2.84488">
        <ele>3.8</ele>
        <time>2026-08-29T12:42:31Z</time>
      </trkpt>
      <trkpt lat="47.5373" lon="-2.84487">
        <ele>3.9</ele>
        <time>2026-08-29T12:42:32Z</time>
      </trkpt>
      <trkpt lat="47.53727" lon="-2.84486">
        <ele>3.9</ele>
        <time>2026-08-29T12:42:33Z</time>
      </trkpt>
      <trkpt lat="47.53723" lon="-2.84485">
        <ele>4</ele>
        <time>2026-08-29T12:42:34Z</time>
      </trkpt>
      <trkpt lat="47.5372" lon="-2.84484">
        <ele>4</ele>
        <time>2026-08-29T12:42:35Z</time>
      </trkpt>
      <trkpt lat="47.53716" lon="-2.84484">
        <ele>4</ele>
        <time>2026-08-29T12:42:36Z</time>
      </trkpt>
      <trkpt lat="47.53713" lon="-2.84483">
        <ele>4</ele>
        <time>2026-08-29T12:42:37Z</time>
      </trkpt>
      <trkpt lat="47.5371" lon="-2.84482">
        <ele>4</ele>
        <time>2026-08-29T12:42:38Z</time>
      </trkpt>
      <trkpt lat="47.53707" lon="-2.84481">
        <ele>4</ele>
        <time>2026-08-29T12:42:39Z</time>
      </trkpt>
      <trkpt lat="47.53702" lon="-2.84481">
        <ele>4</ele>
        <time>2026-08-29T12:42:40Z</time>
      </trkpt>
      <trkpt lat="47.53698" lon="-2.8448">
        <ele>4</ele>
        <time>2026-08-29T12:42:41Z</time>
      </trkpt>
      <trkpt lat="47.53694" lon="-2.84478">
        <ele>4</ele>
        <time>2026-08-29T12:42:42Z</time>
      </trkpt>
      <trkpt lat="47.5369" lon="-2.84477">
        <ele>4.1</ele>
        <time>2026-08-29T12:42:43Z</time>
      </trkpt>
      <trkpt lat="47.53686" lon="-2.84476">
        <ele>4.3</ele>
        <time>2026-08-29T12:42:44Z</time>
      </trkpt>
      <trkpt lat="47.53682" lon="-2.84475">
        <ele>4.4</ele>
        <time>2026-08-29T12:42:45Z</time>
      </trkpt>
      <trkpt lat="47.53679" lon="-2.84474">
        <ele>4.5</ele>
        <time>2026-08-29T12:42:46Z</time>
      </trkpt>
      <trkpt lat="47.53675" lon="-2.84473">
        <ele>4.7</ele>
        <time>2026-08-29T12:42:47Z</time>
      </trkpt>
      <trkpt lat="47.53671" lon="-2.84473">
        <ele>4.8</ele>
        <time>2026-08-29T12:42:48Z</time>
      </trkpt>
      <trkpt lat="47.53667" lon="-2.84473">
        <ele>5</ele>
        <time>2026-08-29T12:42:49Z</time>
      </trkpt>
      <trkpt lat="47.53663" lon="-2.84475">
        <ele>4.9</ele>
        <time>2026-08-29T12:42:50Z</time>
      </trkpt>
      <trkpt lat="47.53661" lon="-2.84478">
        <ele>4.8</ele>
        <time>2026-08-29T12:42:51Z</time>
      </trkpt>
      <trkpt lat="47.53658" lon="-2.84482">
        <ele>4.8</ele>
        <time>2026-08-29T12:42:52Z</time>
      </trkpt>
      <trkpt lat="47.53655" lon="-2.84486">
        <ele>4.7</ele>
        <time>2026-08-29T12:42:53Z</time>
      </trkpt>
      <trkpt lat="47.53653" lon="-2.8449">
        <ele>4.7</ele>
        <time>2026-08-29T12:42:54Z</time>
      </trkpt>
      <trkpt lat="47.53651" lon="-2.84494">
        <ele>4.7</ele>
        <time>2026-08-29T12:42:55Z</time>
      </trkpt>
      <trkpt lat="47.53649" lon="-2.84499">
        <ele>4.6</ele>
        <time>2026-08-29T12:42:56Z</time>
      </trkpt>
      <trkpt lat="47.53646" lon="-2.84503">
        <ele>4.8</ele>
        <time>2026-08-29T12:42:57Z</time>
      </trkpt>
      <trkpt lat="47.53644" lon="-2.84509">
        <ele>4.9</ele>
        <time>2026-08-29T12:42:58Z</time>
      </trkpt>
      <trkpt lat="47.53642" lon="-2.84513">
        <ele>4.9</ele>
        <time>2026-08-29T12:42:59Z</time>
      </trkpt>
      <trkpt lat="47.5364" lon="-2.8452">
        <ele>5</ele>
        <time>2026-08-29T12:43:00Z</time>
      </trkpt>
      <trkpt lat="47.53638" lon="-2.84525">
        <ele>5</ele>
        <time>2026-08-29T12:43:01Z</time>
      </trkpt>
      <trkpt lat="47.53636" lon="-2.84529">
        <ele>5.1</ele>
        <time>2026-08-29T12:43:02Z</time>
      </trkpt>
      <trkpt lat="47.53635" lon="-2.84533">
        <ele>5.3</ele>
        <time>2026-08-29T12:43:03Z</time>
      </trkpt>
      <trkpt lat="47.53633" lon="-2.84538">
        <ele>5.5</ele>
        <time>2026-08-29T12:43:04Z</time>
      </trkpt>
      <trkpt lat="47.53631" lon="-2.84542">
        <ele>5.7</ele>
        <time>2026-08-29T12:43:05Z</time>
      </trkpt>
      <trkpt lat="47.53629" lon="-2.84547">
        <ele>5.8</ele>
        <time>2026-08-29T12:43:06Z</time>
      </trkpt>
      <trkpt lat="47.53628" lon="-2.84551">
        <ele>5.9</ele>
        <time>2026-08-29T12:43:07Z</time>
      </trkpt>
      <trkpt lat="47.53626" lon="-2.84555">
        <ele>6</ele>
        <time>2026-08-29T12:43:08Z</time>
      </trkpt>
      <trkpt lat="47.53624" lon="-2.8456">
        <ele>6</ele>
        <time>2026-08-29T12:43:09Z</time>
      </trkpt>
      <trkpt lat="47.53622" lon="-2.84565">
        <ele>6</ele>
        <time>2026-08-29T12:43:10Z</time>
      </trkpt>
      <trkpt lat="47.53621" lon="-2.8457">
        <ele>6</ele>
        <time>2026-08-29T12:43:11Z</time>
      </trkpt>
      <trkpt lat="47.53619" lon="-2.84575">
        <ele>6</ele>
        <time>2026-08-29T12:43:12Z</time>
      </trkpt>
      <trkpt lat="47.53617" lon="-2.8458">
        <ele>6</ele>
        <time>2026-08-29T12:43:13Z</time>
      </trkpt>
      <trkpt lat="47.53615" lon="-2.84585">
        <ele>6</ele>
        <time>2026-08-29T12:43:14Z</time>
      </trkpt>
      <trkpt lat="47.53614" lon="-2.84589">
        <ele>6</ele>
        <time>2026-08-29T12:43:15Z</time>
      </trkpt>
      <trkpt lat="47.53612" lon="-2.84594">
        <ele>6</ele>
        <time>2026-08-29T12:43:16Z</time>
      </trkpt>
      <trkpt lat="47.53611" lon="-2.84598">
        <ele>6</ele>
        <time>2026-08-29T12:43:17Z</time>
      </trkpt>
      <trkpt lat="47.53609" lon="-2.84603">
        <ele>6.1</ele>
        <time>2026-08-29T12:43:18Z</time>
      </trkpt>
      <trkpt lat="47.53608" lon="-2.84607">
        <ele>6.2</ele>
        <time>2026-08-29T12:43:19Z</time>
      </trkpt>
      <trkpt lat="47.53607" lon="-2.84612">
        <ele>6.3</ele>
        <time>2026-08-29T12:43:20Z</time>
      </trkpt>
      <trkpt lat="47.53605" lon="-2.84616">
        <ele>6.6</ele>
        <time>2026-08-29T12:43:21Z</time>
      </trkpt>
      <trkpt lat="47.53604" lon="-2.84621">
        <ele>6.8</ele>
        <time>2026-08-29T12:43:22Z</time>
      </trkpt>
      <trkpt lat="47.53603" lon="-2.84625">
        <ele>6.9</ele>
        <time>2026-08-29T12:43:23Z</time>
      </trkpt>
      <trkpt lat="47.53602" lon="-2.84629">
        <ele>7.1</ele>
        <time>2026-08-29T12:43:24Z</time>
      </trkpt>
      <trkpt lat="47.53601" lon="-2.84633">
        <ele>7.2</ele>
        <time>2026-08-29T12:43:25Z</time>
      </trkpt>
      <trkpt lat="47.53601" lon="-2.84637">
        <ele>7.3</ele>
        <time>2026-08-29T12:43:26Z</time>
      </trkpt>
      <trkpt lat="47.536" lon="-2.84641">
        <ele>7.4</ele>
        <time>2026-08-29T12:43:27Z</time>
      </trkpt>
      <trkpt lat="47.53599" lon="-2.84645">
        <ele>7.4</ele>
        <time>2026-08-29T12:43:28Z</time>
      </trkpt>
      <trkpt lat="47.53599" lon="-2.84649">
        <ele>7.4</ele>
        <time>2026-08-29T12:43:29Z</time>
      </trkpt>
      <trkpt lat="47.53599" lon="-2.84654">
        <ele>7.4</ele>
        <time>2026-08-29T12:43:30Z</time>
      </trkpt>
      <trkpt lat="47.53598" lon="-2.84658">
        <ele>7.5</ele>
        <time>2026-08-29T12:43:31Z</time>
      </trkpt>
      <trkpt lat="47.53597" lon="-2.84663">
        <ele>7.5</ele>
        <time>2026-08-29T12:43:32Z</time>
      </trkpt>
      <trkpt lat="47.53597" lon="-2.84667">
        <ele>7.5</ele>
        <time>2026-08-29T12:43:33Z</time>
      </trkpt>
      <trkpt lat="47.53596" lon="-2.84672">
        <ele>7.5</ele>
        <time>2026-08-29T12:43:34Z</time>
      </trkpt>
      <trkpt lat="47.53596" lon="-2.84677">
        <ele>7.5</ele>
        <time>2026-08-29T12:43:35Z</time>
      </trkpt>
      <trkpt lat="47.53595" lon="-2.84681">
        <ele>7.6</ele>
        <time>2026-08-29T12:43:36Z</time>
      </trkpt>
      <trkpt lat="47.53595" lon="-2.84686">
        <ele>7.6</ele>
        <time>2026-08-29T12:43:37Z</time>
      </trkpt>
      <trkpt lat="47.53595" lon="-2.84691">
        <ele>7.6</ele>
        <time>2026-08-29T12:43:38Z</time>
      </trkpt>
      <trkpt lat="47.53595" lon="-2.84696">
        <ele>7.6</ele>
        <time>2026-08-29T12:43:39Z</time>
      </trkpt>
      <trkpt lat="47.53594" lon="-2.847">
        <ele>7.7</ele>
        <time>2026-08-29T12:43:40Z</time>
      </trkpt>
      <trkpt lat="47.53594" lon="-2.84705">
        <ele>7.8</ele>
        <time>2026-08-29T12:43:41Z</time>
      </trkpt>
      <trkpt lat="47.53594" lon="-2.84709">
        <ele>7.8</ele>
        <time>2026-08-29T12:43:42Z</time>
      </trkpt>
      <trkpt lat="47.53594" lon="-2.84713">
        <ele>7.9</ele>
        <time>2026-08-29T12:43:43Z</time>
      </trkpt>
      <trkpt lat="47.53593" lon="-2.84718">
        <ele>7.9</ele>
        <time>2026-08-29T12:43:44Z</time>
      </trkpt>
      <trkpt lat="47.53593" lon="-2.84722">
        <ele>8</ele>
        <time>2026-08-29T12:43:45Z</time>
      </trkpt>
      <trkpt lat="47.53593" lon="-2.84726">
        <ele>8</ele>
        <time>2026-08-29T12:43:46Z</time>
      </trkpt>
      <trkpt lat="47.53593" lon="-2.8473">
        <ele>8.1</ele>
        <time>2026-08-29T12:43:47Z</time>
      </trkpt>
      <trkpt lat="47.53593" lon="-2.84735">
        <ele>8.2</ele>
        <time>2026-08-29T12:43:48Z</time>
      </trkpt>
      <trkpt lat="47.53593" lon="-2.84739">
        <ele>8.2</ele>
        <time>2026-08-29T12:43:49Z</time>
      </trkpt>
      <trkpt lat="47.53592" lon="-2.84743">
        <ele>8.2</ele>
        <time>2026-08-29T12:43:50Z</time>
      </trkpt>
      <trkpt lat="47.53592" lon="-2.84748">
        <ele>8.3</ele>
        <time>2026-08-29T12:43:51Z</time>
      </trkpt>
      <trkpt lat="47.53592" lon="-2.84752">
        <ele>8.4</ele>
        <time>2026-08-29T12:43:52Z</time>
      </trkpt>
      <trkpt lat="47.53591" lon="-2.84757">
        <ele>8.5</ele>
        <time>2026-08-29T12:43:53Z</time>
      </trkpt>
      <trkpt lat="47.53591" lon="-2.84762">
        <ele>8.6</ele>
        <time>2026-08-29T12:43:54Z</time>
      </trkpt>
      <trkpt lat="47.5359" lon="-2.84767">
        <ele>8.7</ele>
        <time>2026-08-29T12:43:55Z</time>
      </trkpt>
      <trkpt lat="47.5359" lon="-2.84771">
        <ele>8.8</ele>
        <time>2026-08-29T12:43:56Z</time>
      </trkpt>
      <trkpt lat="47.53589" lon="-2.84776">
        <ele>8.9</ele>
        <time>2026-08-29T12:43:57Z</time>
      </trkpt>
      <trkpt lat="47.53587" lon="-2.84779">
        <ele>9</ele>
        <time>2026-08-29T12:43:58Z</time>
      </trkpt>
      <trkpt lat="47.53585" lon="-2.84782">
        <ele>9.2</ele>
        <time>2026-08-29T12:43:59Z</time>
      </trkpt>
      <trkpt lat="47.53582" lon="-2.84784">
        <ele>9.2</ele>
        <time>2026-08-29T12:44:00Z</time>
      </trkpt>
      <trkpt lat="47.5358" lon="-2.84786">
        <ele>9.3</ele>
        <time>2026-08-29T12:44:01Z</time>
      </trkpt>
      <trkpt lat="47.53577" lon="-2.84787">
        <ele>9.3</ele>
        <time>2026-08-29T12:44:02Z</time>
      </trkpt>
      <trkpt lat="47.53574" lon="-2.84789">
        <ele>9.3</ele>
        <time>2026-08-29T12:44:03Z</time>
      </trkpt>
      <trkpt lat="47.53572" lon="-2.84792">
        <ele>9.3</ele>
        <time>2026-08-29T12:44:04Z</time>
      </trkpt>
      <trkpt lat="47.5357" lon="-2.84795">
        <ele>9.3</ele>
        <time>2026-08-29T12:44:05Z</time>
      </trkpt>
      <trkpt lat="47.53568" lon="-2.84799">
        <ele>9.3</ele>
        <time>2026-08-29T12:44:06Z</time>
      </trkpt>
      <trkpt lat="47.53567" lon="-2.84804">
        <ele>9.4</ele>
        <time>2026-08-29T12:44:07Z</time>
      </trkpt>
      <trkpt lat="47.53566" lon="-2.84808">
        <ele>9.4</ele>
        <time>2026-08-29T12:44:08Z</time>
      </trkpt>
      <trkpt lat="47.53565" lon="-2.84812">
        <ele>9.5</ele>
        <time>2026-08-29T12:44:09Z</time>
      </trkpt>
      <trkpt lat="47.53565" lon="-2.84817">
        <ele>9.6</ele>
        <time>2026-08-29T12:44:10Z</time>
      </trkpt>
      <trkpt lat="47.53565" lon="-2.84822">
        <ele>9.7</ele>
        <time>2026-08-29T12:44:11Z</time>
      </trkpt>
      <trkpt lat="47.53564" lon="-2.84827">
        <ele>9.8</ele>
        <time>2026-08-29T12:44:12Z</time>
      </trkpt>
      <trkpt lat="47.53564" lon="-2.84832">
        <ele>10</ele>
        <time>2026-08-29T12:44:13Z</time>
      </trkpt>
      <trkpt lat="47.53564" lon="-2.84837">
        <ele>10</ele>
        <time>2026-08-29T12:44:14Z</time>
      </trkpt>
      <trkpt lat="47.53563" lon="-2.84843">
        <ele>10</ele>
        <time>2026-08-29T12:44:15Z</time>
      </trkpt>
      <trkpt lat="47.53563" lon="-2.84848">
        <ele>10</ele>
        <time>2026-08-29T12:44:16Z</time>
      </trkpt>
      <trkpt lat="47.53562" lon="-2.84852">
        <ele>10</ele>
        <time>2026-08-29T12:44:17Z</time>
      </trkpt>
      <trkpt lat="47.53562" lon="-2.84857">
        <ele>10</ele>
        <time>2026-08-29T12:44:18Z</time>
      </trkpt>
      <trkpt lat="47.53561" lon="-2.84862">
        <ele>10</ele>
        <time>2026-08-29T12:44:19Z</time>
      </trkpt>
      <trkpt lat="47.5356" lon="-2.84868">
        <ele>10</ele>
        <time>2026-08-29T12:44:20Z</time>
      </trkpt>
      <trkpt lat="47.5356" lon="-2.84873">
        <ele>10</ele>
        <time>2026-08-29T12:44:21Z</time>
      </trkpt>
      <trkpt lat="47.53559" lon="-2.84878">
        <ele>10</ele>
        <time>2026-08-29T12:44:22Z</time>
      </trkpt>
      <trkpt lat="47.53559" lon="-2.84883">
        <ele>10</ele>
        <time>2026-08-29T12:44:23Z</time>
      </trkpt>
      <trkpt lat="47.53558" lon="-2.84888">
        <ele>10</ele>
        <time>2026-08-29T12:44:24Z</time>
      </trkpt>
      <trkpt lat="47.53558" lon="-2.84894">
        <ele>10</ele>
        <time>2026-08-29T12:44:25Z</time>
      </trkpt>
      <trkpt lat="47.53557" lon="-2.84899">
        <ele>10</ele>
        <time>2026-08-29T12:44:26Z</time>
      </trkpt>
      <trkpt lat="47.53557" lon="-2.84904">
        <ele>10</ele>
        <time>2026-08-29T12:44:27Z</time>
      </trkpt>
      <trkpt lat="47.53556" lon="-2.84909">
        <ele>10</ele>
        <time>2026-08-29T12:44:28Z</time>
      </trkpt>
      <trkpt lat="47.53556" lon="-2.84914">
        <ele>10</ele>
        <time>2026-08-29T12:44:29Z</time>
      </trkpt>
      <trkpt lat="47.53555" lon="-2.84919">
        <ele>10</ele>
        <time>2026-08-29T12:44:30Z</time>
      </trkpt>
      <trkpt lat="47.53554" lon="-2.84925">
        <ele>10</ele>
        <time>2026-08-29T12:44:31Z</time>
      </trkpt>
      <trkpt lat="47.53553" lon="-2.8493">
        <ele>10</ele>
        <time>2026-08-29T12:44:32Z</time>
      </trkpt>
      <trkpt lat="47.53552" lon="-2.84934">
        <ele>10</ele>
        <time>2026-08-29T12:44:33Z</time>
      </trkpt>
      <trkpt lat="47.5355" lon="-2.84939">
        <ele>10</ele>
        <time>2026-08-29T12:44:34Z</time>
      </trkpt>
      <trkpt lat="47.53549" lon="-2.84944">
        <ele>10</ele>
        <time>2026-08-29T12:44:35Z</time>
      </trkpt>
      <trkpt lat="47.53548" lon="-2.84949">
        <ele>9.9</ele>
        <time>2026-08-29T12:44:36Z</time>
      </trkpt>
      <trkpt lat="47.53547" lon="-2.84954">
        <ele>9.8</ele>
        <time>2026-08-29T12:44:37Z</time>
      </trkpt>
      <trkpt lat="47.53546" lon="-2.84959">
        <ele>9.7</ele>
        <time>2026-08-29T12:44:38Z</time>
      </trkpt>
      <trkpt lat="47.53545" lon="-2.84963">
        <ele>9.6</ele>
        <time>2026-08-29T12:44:39Z</time>
      </trkpt>
      <trkpt lat="47.53544" lon="-2.84967">
        <ele>9.5</ele>
        <time>2026-08-29T12:44:40Z</time>
      </trkpt>
      <trkpt lat="47.53542" lon="-2.84969">
        <ele>9.5</ele>
        <time>2026-08-29T12:44:41Z</time>
      </trkpt>
      <trkpt lat="47.5354" lon="-2.84971">
        <ele>9.6</ele>
        <time>2026-08-29T12:44:42Z</time>
      </trkpt>
      <trkpt lat="47.53537" lon="-2.84972">
        <ele>9.7</ele>
        <time>2026-08-29T12:44:43Z</time>
      </trkpt>
      <trkpt lat="47.53533" lon="-2.84973">
        <ele>9.8</ele>
        <time>2026-08-29T12:44:44Z</time>
      </trkpt>
      <trkpt lat="47.5353" lon="-2.84973">
        <ele>9.9</ele>
        <time>2026-08-29T12:44:45Z</time>
      </trkpt>
      <trkpt lat="47.53526" lon="-2.84973">
        <ele>9.9</ele>
        <time>2026-08-29T12:44:46Z</time>
      </trkpt>
      <trkpt lat="47.53523" lon="-2.84973">
        <ele>9.8</ele>
        <time>2026-08-29T12:44:47Z</time>
      </trkpt>
      <trkpt lat="47.53521" lon="-2.84973">
        <ele>9.7</ele>
        <time>2026-08-29T12:44:48Z</time>
      </trkpt>
      <trkpt lat="47.5352" lon="-2.84975">
        <ele>9.6</ele>
        <time>2026-08-29T12:44:49Z</time>
      </trkpt>
      <trkpt lat="47.53519" lon="-2.84977">
        <ele>9.6</ele>
        <time>2026-08-29T12:44:50Z</time>
      </trkpt>
      <trkpt lat="47.53519" lon="-2.8498">
        <ele>9.5</ele>
        <time>2026-08-29T12:44:51Z</time>
      </trkpt>
      <trkpt lat="47.53519" lon="-2.84984">
        <ele>9.4</ele>
        <time>2026-08-29T12:44:52Z</time>
      </trkpt>
      <trkpt lat="47.5352" lon="-2.84989">
        <ele>9.3</ele>
        <time>2026-08-29T12:44:53Z</time>
      </trkpt>
      <trkpt lat="47.53521" lon="-2.84993">
        <ele>9.2</ele>
        <time>2026-08-29T12:44:54Z</time>
      </trkpt>
      <trkpt lat="47.53523" lon="-2.84998">
        <ele>9.1</ele>
        <time>2026-08-29T12:44:55Z</time>
      </trkpt>
      <trkpt lat="47.53524" lon="-2.85003">
        <ele>8.9</ele>
        <time>2026-08-29T12:44:56Z</time>
      </trkpt>
      <trkpt lat="47.53526" lon="-2.85009">
        <ele>8.7</ele>
        <time>2026-08-29T12:44:57Z</time>
      </trkpt>
      <trkpt lat="47.53528" lon="-2.85016">
        <ele>8.4</ele>
        <time>2026-08-29T12:44:58Z</time>
      </trkpt>
      <trkpt lat="47.53529" lon="-2.85022">
        <ele>8.2</ele>
        <time>2026-08-29T12:44:59Z</time>
      </trkpt>
      <trkpt lat="47.53531" lon="-2.85028">
        <ele>8</ele>
        <time>2026-08-29T12:45:00Z</time>
      </trkpt>
      <trkpt lat="47.53533" lon="-2.85034">
        <ele>7.8</ele>
        <time>2026-08-29T12:45:01Z</time>
      </trkpt>
      <trkpt lat="47.53535" lon="-2.85039">
        <ele>7.7</ele>
        <time>2026-08-29T12:45:02Z</time>
      </trkpt>
      <trkpt lat="47.53537" lon="-2.85046">
        <ele>7.6</ele>
        <time>2026-08-29T12:45:03Z</time>
      </trkpt>
      <trkpt lat="47.53539" lon="-2.85053">
        <ele>7.5</ele>
        <time>2026-08-29T12:45:04Z</time>
      </trkpt>
      <trkpt lat="47.53541" lon="-2.85059">
        <ele>7.5</ele>
        <time>2026-08-29T12:45:05Z</time>
      </trkpt>
      <trkpt lat="47.53543" lon="-2.85066">
        <ele>7.5</ele>
        <time>2026-08-29T12:45:06Z</time>
      </trkpt>
      <trkpt lat="47.53545" lon="-2.85072">
        <ele>7.6</ele>
        <time>2026-08-29T12:45:07Z</time>
      </trkpt>
      <trkpt lat="47.53547" lon="-2.8508">
        <ele>7.7</ele>
        <time>2026-08-29T12:45:08Z</time>
      </trkpt>
      <trkpt lat="47.53549" lon="-2.85087">
        <ele>7.8</ele>
        <time>2026-08-29T12:45:09Z</time>
      </trkpt>
      <trkpt lat="47.5355" lon="-2.85094">
        <ele>7.8</ele>
        <time>2026-08-29T12:45:10Z</time>
      </trkpt>
      <trkpt lat="47.53552" lon="-2.85102">
        <ele>7.9</ele>
        <time>2026-08-29T12:45:11Z</time>
      </trkpt>
      <trkpt lat="47.53554" lon="-2.85109">
        <ele>7.9</ele>
        <time>2026-08-29T12:45:12Z</time>
      </trkpt>
      <trkpt lat="47.53556" lon="-2.85116">
        <ele>7.8</ele>
        <time>2026-08-29T12:45:13Z</time>
      </trkpt>
      <trkpt lat="47.53557" lon="-2.85123">
        <ele>7.6</ele>
        <time>2026-08-29T12:45:14Z</time>
      </trkpt>
      <trkpt lat="47.53559" lon="-2.8513">
        <ele>7.4</ele>
        <time>2026-08-29T12:45:15Z</time>
      </trkpt>
      <trkpt lat="47.53561" lon="-2.85138">
        <ele>7.2</ele>
        <time>2026-08-29T12:45:16Z</time>
      </trkpt>
      <trkpt lat="47.53563" lon="-2.85145">
        <ele>7.2</ele>
        <time>2026-08-29T12:45:17Z</time>
      </trkpt>
      <trkpt lat="47.53565" lon="-2.85153">
        <ele>7.2</ele>
        <time>2026-08-29T12:45:18Z</time>
      </trkpt>
      <trkpt lat="47.53566" lon="-2.8516">
        <ele>7.1</ele>
        <time>2026-08-29T12:45:19Z</time>
      </trkpt>
      <trkpt lat="47.53568" lon="-2.85168">
        <ele>7</ele>
        <time>2026-08-29T12:45:20Z</time>
      </trkpt>
      <trkpt lat="47.5357" lon="-2.85175">
        <ele>6.7</ele>
        <time>2026-08-29T12:45:21Z</time>
      </trkpt>
      <trkpt lat="47.53572" lon="-2.85182">
        <ele>6.4</ele>
        <time>2026-08-29T12:45:22Z</time>
      </trkpt>
      <trkpt lat="47.53574" lon="-2.8519">
        <ele>6.2</ele>
        <time>2026-08-29T12:45:23Z</time>
      </trkpt>
      <trkpt lat="47.53576" lon="-2.85197">
        <ele>6</ele>
        <time>2026-08-29T12:45:24Z</time>
      </trkpt>
      <trkpt lat="47.53578" lon="-2.85205">
        <ele>6</ele>
        <time>2026-08-29T12:45:25Z</time>
      </trkpt>
      <trkpt lat="47.53579" lon="-2.85212">
        <ele>6</ele>
        <time>2026-08-29T12:45:26Z</time>
      </trkpt>
      <trkpt lat="47.53581" lon="-2.8522">
        <ele>6</ele>
        <time>2026-08-29T12:45:27Z</time>
      </trkpt>
      <trkpt lat="47.53583" lon="-2.85228">
        <ele>5.8</ele>
        <time>2026-08-29T12:45:28Z</time>
      </trkpt>
      <trkpt lat="47.53585" lon="-2.85236">
        <ele>5.5</ele>
        <time>2026-08-29T12:45:29Z</time>
      </trkpt>
      <trkpt lat="47.53587" lon="-2.85244">
        <ele>5.2</ele>
        <time>2026-08-29T12:45:30Z</time>
      </trkpt>
      <trkpt lat="47.53589" lon="-2.85251">
        <ele>5</ele>
        <time>2026-08-29T12:45:31Z</time>
      </trkpt>
      <trkpt lat="47.53592" lon="-2.85259">
        <ele>4.9</ele>
        <time>2026-08-29T12:45:32Z</time>
      </trkpt>
      <trkpt lat="47.53594" lon="-2.85266">
        <ele>4.8</ele>
        <time>2026-08-29T12:45:33Z</time>
      </trkpt>
      <trkpt lat="47.53596" lon="-2.85274">
        <ele>4.6</ele>
        <time>2026-08-29T12:45:34Z</time>
      </trkpt>
      <trkpt lat="47.53599" lon="-2.85282">
        <ele>4.4</ele>
        <time>2026-08-29T12:45:35Z</time>
      </trkpt>
      <trkpt lat="47.53601" lon="-2.85289">
        <ele>4.2</ele>
        <time>2026-08-29T12:45:36Z</time>
      </trkpt>
      <trkpt lat="47.53604" lon="-2.85295">
        <ele>4.1</ele>
        <time>2026-08-29T12:45:37Z</time>
      </trkpt>
      <trkpt lat="47.53606" lon="-2.85302">
        <ele>4</ele>
        <time>2026-08-29T12:45:38Z</time>
      </trkpt>
      <trkpt lat="47.53609" lon="-2.85308">
        <ele>4</ele>
        <time>2026-08-29T12:45:39Z</time>
      </trkpt>
      <trkpt lat="47.53611" lon="-2.85314">
        <ele>4</ele>
        <time>2026-08-29T12:45:40Z</time>
      </trkpt>
      <trkpt lat="47.53614" lon="-2.85321">
        <ele>3.9</ele>
        <time>2026-08-29T12:45:41Z</time>
      </trkpt>
      <trkpt lat="47.53617" lon="-2.85328">
        <ele>3.8</ele>
        <time>2026-08-29T12:45:42Z</time>
      </trkpt>
      <trkpt lat="47.53619" lon="-2.85335">
        <ele>3.7</ele>
        <time>2026-08-29T12:45:43Z</time>
      </trkpt>
      <trkpt lat="47.53622" lon="-2.85342">
        <ele>3.4</ele>
        <time>2026-08-29T12:45:44Z</time>
      </trkpt>
      <trkpt lat="47.53626" lon="-2.85348">
        <ele>3.2</ele>
        <time>2026-08-29T12:45:45Z</time>
      </trkpt>
      <trkpt lat="47.53629" lon="-2.85355">
        <ele>3.1</ele>
        <time>2026-08-29T12:45:46Z</time>
      </trkpt>
      <trkpt lat="47.53632" lon="-2.85362">
        <ele>3</ele>
        <time>2026-08-29T12:45:47Z</time>
      </trkpt>
      <trkpt lat="47.53635" lon="-2.85369">
        <ele>3</ele>
        <time>2026-08-29T12:45:48Z</time>
      </trkpt>
      <trkpt lat="47.53639" lon="-2.85375">
        <ele>3</ele>
        <time>2026-08-29T12:45:49Z</time>
      </trkpt>
      <trkpt lat="47.53643" lon="-2.8538">
        <ele>2.9</ele>
        <time>2026-08-29T12:45:50Z</time>
      </trkpt>
      <trkpt lat="47.53647" lon="-2.85385">
        <ele>2.7</ele>
        <time>2026-08-29T12:45:51Z</time>
      </trkpt>
      <trkpt lat="47.53651" lon="-2.85391">
        <ele>2.6</ele>
        <time>2026-08-29T12:45:52Z</time>
      </trkpt>
      <trkpt lat="47.53655" lon="-2.85396">
        <ele>2.5</ele>
        <time>2026-08-29T12:45:53Z</time>
      </trkpt>
      <trkpt lat="47.5366" lon="-2.85401">
        <ele>2.5</ele>
        <time>2026-08-29T12:45:54Z</time>
      </trkpt>
      <trkpt lat="47.53664" lon="-2.85406">
        <ele>2.6</ele>
        <time>2026-08-29T12:45:55Z</time>
      </trkpt>
      <trkpt lat="47.53668" lon="-2.85411">
        <ele>2.7</ele>
        <time>2026-08-29T12:45:56Z</time>
      </trkpt>
      <trkpt lat="47.53672" lon="-2.85416">
        <ele>2.8</ele>
        <time>2026-08-29T12:45:57Z</time>
      </trkpt>
      <trkpt lat="47.53677" lon="-2.85422">
        <ele>2.7</ele>
        <time>2026-08-29T12:45:58Z</time>
      </trkpt>
      <trkpt lat="47.53681" lon="-2.85427">
        <ele>2.7</ele>
        <time>2026-08-29T12:45:59Z</time>
      </trkpt>
      <trkpt lat="47.53686" lon="-2.85431">
        <ele>2.7</ele>
        <time>2026-08-29T12:46:00Z</time>
      </trkpt>
      <trkpt lat="47.5369" lon="-2.85436">
        <ele>2.7</ele>
        <time>2026-08-29T12:46:01Z</time>
      </trkpt>
      <trkpt lat="47.53695" lon="-2.8544">
        <ele>2.9</ele>
        <time>2026-08-29T12:46:02Z</time>
      </trkpt>
      <trkpt lat="47.537" lon="-2.85444">
        <ele>3.2</ele>
        <time>2026-08-29T12:46:03Z</time>
      </trkpt>
      <trkpt lat="47.53705" lon="-2.85447">
        <ele>3.4</ele>
        <time>2026-08-29T12:46:04Z</time>
      </trkpt>
      <trkpt lat="47.5371" lon="-2.85451">
        <ele>3.6</ele>
        <time>2026-08-29T12:46:05Z</time>
      </trkpt>
      <trkpt lat="47.53715" lon="-2.85454">
        <ele>3.7</ele>
        <time>2026-08-29T12:46:06Z</time>
      </trkpt>
      <trkpt lat="47.5372" lon="-2.85457">
        <ele>3.9</ele>
        <time>2026-08-29T12:46:07Z</time>
      </trkpt>
      <trkpt lat="47.53724" lon="-2.8546">
        <ele>4</ele>
        <time>2026-08-29T12:46:08Z</time>
      </trkpt>
      <trkpt lat="47.53729" lon="-2.85462">
        <ele>3.9</ele>
        <time>2026-08-29T12:46:09Z</time>
      </trkpt>
      <trkpt lat="47.53734" lon="-2.85465">
        <ele>3.9</ele>
        <time>2026-08-29T12:46:10Z</time>
      </trkpt>
      <trkpt lat="47.53739" lon="-2.85468">
        <ele>3.9</ele>
        <time>2026-08-29T12:46:11Z</time>
      </trkpt>
      <trkpt lat="47.53744" lon="-2.85471">
        <ele>4</ele>
        <time>2026-08-29T12:46:12Z</time>
      </trkpt>
      <trkpt lat="47.53748" lon="-2.85473">
        <ele>4</ele>
        <time>2026-08-29T12:46:13Z</time>
      </trkpt>
      <trkpt lat="47.53752" lon="-2.85475">
        <ele>4.1</ele>
        <time>2026-08-29T12:46:14Z</time>
      </trkpt>
      <trkpt lat="47.53756" lon="-2.85477">
        <ele>4.2</ele>
        <time>2026-08-29T12:46:15Z</time>
      </trkpt>
      <trkpt lat="47.53761" lon="-2.85479">
        <ele>4.2</ele>
        <time>2026-08-29T12:46:16Z</time>
      </trkpt>
      <trkpt lat="47.53765" lon="-2.85481">
        <ele>4.3</ele>
        <time>2026-08-29T12:46:17Z</time>
      </trkpt>
      <trkpt lat="47.5377" lon="-2.85484">
        <ele>4.4</ele>
        <time>2026-08-29T12:46:18Z</time>
      </trkpt>
      <trkpt lat="47.53775" lon="-2.85486">
        <ele>4.5</ele>
        <time>2026-08-29T12:46:19Z</time>
      </trkpt>
      <trkpt lat="47.53779" lon="-2.85488">
        <ele>4.6</ele>
        <time>2026-08-29T12:46:20Z</time>
      </trkpt>
      <trkpt lat="47.53783" lon="-2.85491">
        <ele>4.7</ele>
        <time>2026-08-29T12:46:21Z</time>
      </trkpt>
      <trkpt lat="47.53786" lon="-2.85493">
        <ele>4.7</ele>
        <time>2026-08-29T12:46:22Z</time>
      </trkpt>
      <trkpt lat="47.53791" lon="-2.85496">
        <ele>4.9</ele>
        <time>2026-08-29T12:46:23Z</time>
      </trkpt>
      <trkpt lat="47.53795" lon="-2.855">
        <ele>5</ele>
        <time>2026-08-29T12:46:24Z</time>
      </trkpt>
      <trkpt lat="47.538" lon="-2.85503">
        <ele>5.1</ele>
        <time>2026-08-29T12:46:25Z</time>
      </trkpt>
      <trkpt lat="47.53804" lon="-2.85507">
        <ele>5.3</ele>
        <time>2026-08-29T12:46:26Z</time>
      </trkpt>
      <trkpt lat="47.53809" lon="-2.85511">
        <ele>5.4</ele>
        <time>2026-08-29T12:46:27Z</time>
      </trkpt>
      <trkpt lat="47.53813" lon="-2.85514">
        <ele>5.5</ele>
        <time>2026-08-29T12:46:28Z</time>
      </trkpt>
      <trkpt lat="47.53817" lon="-2.85518">
        <ele>5.6</ele>
        <time>2026-08-29T12:46:29Z</time>
      </trkpt>
      <trkpt lat="47.53822" lon="-2.85522">
        <ele>5.8</ele>
        <time>2026-08-29T12:46:30Z</time>
      </trkpt>
      <trkpt lat="47.53826" lon="-2.85526">
        <ele>5.9</ele>
        <time>2026-08-29T12:46:31Z</time>
      </trkpt>
      <trkpt lat="47.53831" lon="-2.8553">
        <ele>6.1</ele>
        <time>2026-08-29T12:46:32Z</time>
      </trkpt>
      <trkpt lat="47.53835" lon="-2.85534">
        <ele>6.2</ele>
        <time>2026-08-29T12:46:33Z</time>
      </trkpt>
      <trkpt lat="47.53839" lon="-2.85538">
        <ele>6.2</ele>
        <time>2026-08-29T12:46:34Z</time>
      </trkpt>
      <trkpt lat="47.53842" lon="-2.85543">
        <ele>6.4</ele>
        <time>2026-08-29T12:46:35Z</time>
      </trkpt>
      <trkpt lat="47.53846" lon="-2.85547">
        <ele>6.6</ele>
        <time>2026-08-29T12:46:36Z</time>
      </trkpt>
      <trkpt lat="47.5385" lon="-2.85552">
        <ele>6.8</ele>
        <time>2026-08-29T12:46:37Z</time>
      </trkpt>
      <trkpt lat="47.53853" lon="-2.85557">
        <ele>7</ele>
        <time>2026-08-29T12:46:38Z</time>
      </trkpt>
      <trkpt lat="47.53856" lon="-2.85562">
        <ele>7</ele>
        <time>2026-08-29T12:46:39Z</time>
      </trkpt>
      <trkpt lat="47.5386" lon="-2.85568">
        <ele>7</ele>
        <time>2026-08-29T12:46:40Z</time>
      </trkpt>
      <trkpt lat="47.53864" lon="-2.85572">
        <ele>7</ele>
        <time>2026-08-29T12:46:41Z</time>
      </trkpt>
      <trkpt lat="47.53867" lon="-2.85578">
        <ele>7</ele>
        <time>2026-08-29T12:46:42Z</time>
      </trkpt>
      <trkpt lat="47.53869" lon="-2.85583">
        <ele>7</ele>
        <time>2026-08-29T12:46:43Z</time>
      </trkpt>
      <trkpt lat="47.53872" lon="-2.85589">
        <ele>7.3</ele>
        <time>2026-08-29T12:46:44Z</time>
      </trkpt>
      <trkpt lat="47.53875" lon="-2.85595">
        <ele>7.6</ele>
        <time>2026-08-29T12:46:45Z</time>
      </trkpt>
      <trkpt lat="47.53878" lon="-2.85601">
        <ele>7.9</ele>
        <time>2026-08-29T12:46:46Z</time>
      </trkpt>
      <trkpt lat="47.5388" lon="-2.85606">
        <ele>8.1</ele>
        <time>2026-08-29T12:46:47Z</time>
      </trkpt>
      <trkpt lat="47.53883" lon="-2.85611">
        <ele>8.2</ele>
        <time>2026-08-29T12:46:48Z</time>
      </trkpt>
      <trkpt lat="47.53885" lon="-2.85616">
        <ele>8</ele>
        <time>2026-08-29T12:46:49Z</time>
      </trkpt>
      <trkpt lat="47.53887" lon="-2.85621">
        <ele>7.7</ele>
        <time>2026-08-29T12:46:50Z</time>
      </trkpt>
      <trkpt lat="47.53889" lon="-2.85627">
        <ele>7.4</ele>
        <time>2026-08-29T12:46:51Z</time>
      </trkpt>
      <trkpt lat="47.53892" lon="-2.85633">
        <ele>7.2</ele>
        <time>2026-08-29T12:46:52Z</time>
      </trkpt>
      <trkpt lat="47.53894" lon="-2.85638">
        <ele>7</ele>
        <time>2026-08-29T12:46:53Z</time>
      </trkpt>
      <trkpt lat="47.53896" lon="-2.85645">
        <ele>7.1</ele>
        <time>2026-08-29T12:46:54Z</time>
      </trkpt>
      <trkpt lat="47.53898" lon="-2.85651">
        <ele>7.1</ele>
        <time>2026-08-29T12:46:55Z</time>
      </trkpt>
      <trkpt lat="47.539" lon="-2.85658">
        <ele>7.1</ele>
        <time>2026-08-29T12:46:56Z</time>
      </trkpt>
      <trkpt lat="47.53901" lon="-2.85664">
        <ele>7.1</ele>
        <time>2026-08-29T12:46:57Z</time>
      </trkpt>
      <trkpt lat="47.53903" lon="-2.85671">
        <ele>6.9</ele>
        <time>2026-08-29T12:46:58Z</time>
      </trkpt>
      <trkpt lat="47.53904" lon="-2.85678">
        <ele>6.7</ele>
        <time>2026-08-29T12:46:59Z</time>
      </trkpt>
      <trkpt lat="47.53904" lon="-2.85685">
        <ele>6.6</ele>
        <time>2026-08-29T12:47:00Z</time>
      </trkpt>
      <trkpt lat="47.53905" lon="-2.85693">
        <ele>6.3</ele>
        <time>2026-08-29T12:47:01Z</time>
      </trkpt>
      <trkpt lat="47.53905" lon="-2.85701">
        <ele>6.2</ele>
        <time>2026-08-29T12:47:02Z</time>
      </trkpt>
      <trkpt lat="47.53906" lon="-2.85709">
        <ele>6</ele>
        <time>2026-08-29T12:47:03Z</time>
      </trkpt>
      <trkpt lat="47.53906" lon="-2.85717">
        <ele>5.8</ele>
        <time>2026-08-29T12:47:04Z</time>
      </trkpt>
      <trkpt lat="47.53907" lon="-2.85725">
        <ele>5.6</ele>
        <time>2026-08-29T12:47:05Z</time>
      </trkpt>
      <trkpt lat="47.53907" lon="-2.85733">
        <ele>5.3</ele>
        <time>2026-08-29T12:47:06Z</time>
      </trkpt>
      <trkpt lat="47.53907" lon="-2.85741">
        <ele>5</ele>
        <time>2026-08-29T12:47:07Z</time>
      </trkpt>
      <trkpt lat="47.53907" lon="-2.85749">
        <ele>4.7</ele>
        <time>2026-08-29T12:47:08Z</time>
      </trkpt>
      <trkpt lat="47.53907" lon="-2.85757">
        <ele>4.4</ele>
        <time>2026-08-29T12:47:09Z</time>
      </trkpt>
      <trkpt lat="47.53907" lon="-2.85765">
        <ele>4.2</ele>
        <time>2026-08-29T12:47:10Z</time>
      </trkpt>
      <trkpt lat="47.53907" lon="-2.85773">
        <ele>3.9</ele>
        <time>2026-08-29T12:47:11Z</time>
      </trkpt>
      <trkpt lat="47.53907" lon="-2.85781">
        <ele>3.7</ele>
        <time>2026-08-29T12:47:12Z</time>
      </trkpt>
      <trkpt lat="47.53907" lon="-2.85789">
        <ele>3.8</ele>
        <time>2026-08-29T12:47:13Z</time>
      </trkpt>
      <trkpt lat="47.53907" lon="-2.85797">
        <ele>3.9</ele>
        <time>2026-08-29T12:47:14Z</time>
      </trkpt>
      <trkpt lat="47.53907" lon="-2.85805">
        <ele>4</ele>
        <time>2026-08-29T12:47:15Z</time>
      </trkpt>
      <trkpt lat="47.53907" lon="-2.85812">
        <ele>4</ele>
        <time>2026-08-29T12:47:16Z</time>
      </trkpt>
      <trkpt lat="47.53907" lon="-2.85819">
        <ele>4</ele>
        <time>2026-08-29T12:47:17Z</time>
      </trkpt>
      <trkpt lat="47.53907" lon="-2.85826">
        <ele>4</ele>
        <time>2026-08-29T12:47:18Z</time>
      </trkpt>
      <trkpt lat="47.53906" lon="-2.85834">
        <ele>4</ele>
        <time>2026-08-29T12:47:19Z</time>
      </trkpt>
      <trkpt lat="47.53906" lon="-2.85841">
        <ele>4.1</ele>
        <time>2026-08-29T12:47:20Z</time>
      </trkpt>
      <trkpt lat="47.53906" lon="-2.85848">
        <ele>4.2</ele>
        <time>2026-08-29T12:47:21Z</time>
      </trkpt>
      <trkpt lat="47.53906" lon="-2.85856">
        <ele>4.3</ele>
        <time>2026-08-29T12:47:22Z</time>
      </trkpt>
      <trkpt lat="47.53906" lon="-2.85863">
        <ele>4.4</ele>
        <time>2026-08-29T12:47:23Z</time>
      </trkpt>
      <trkpt lat="47.53906" lon="-2.8587">
        <ele>4.6</ele>
        <time>2026-08-29T12:47:24Z</time>
      </trkpt>
      <trkpt lat="47.53906" lon="-2.85877">
        <ele>4.7</ele>
        <time>2026-08-29T12:47:25Z</time>
      </trkpt>
      <trkpt lat="47.53906" lon="-2.85884">
        <ele>4.9</ele>
        <time>2026-08-29T12:47:26Z</time>
      </trkpt>
      <trkpt lat="47.53906" lon="-2.85892">
        <ele>5</ele>
        <time>2026-08-29T12:47:27Z</time>
      </trkpt>
      <trkpt lat="47.53906" lon="-2.85899">
        <ele>5</ele>
        <time>2026-08-29T12:47:28Z</time>
      </trkpt>
      <trkpt lat="47.53907" lon="-2.85906">
        <ele>5</ele>
        <time>2026-08-29T12:47:29Z</time>
      </trkpt>
      <trkpt lat="47.53907" lon="-2.85912">
        <ele>5</ele>
        <time>2026-08-29T12:47:30Z</time>
      </trkpt>
      <trkpt lat="47.53907" lon="-2.8592">
        <ele>5</ele>
        <time>2026-08-29T12:47:31Z</time>
      </trkpt>
      <trkpt lat="47.53907" lon="-2.85927">
        <ele>5</ele>
        <time>2026-08-29T12:47:32Z</time>
      </trkpt>
      <trkpt lat="47.53907" lon="-2.85935">
        <ele>5</ele>
        <time>2026-08-29T12:47:33Z</time>
      </trkpt>
      <trkpt lat="47.53907" lon="-2.85942">
        <ele>5</ele>
        <time>2026-08-29T12:47:34Z</time>
      </trkpt>
      <trkpt lat="47.53907" lon="-2.8595">
        <ele>4.9</ele>
        <time>2026-08-29T12:47:35Z</time>
      </trkpt>
      <trkpt lat="47.53907" lon="-2.85957">
        <ele>4.7</ele>
        <time>2026-08-29T12:47:36Z</time>
      </trkpt>
      <trkpt lat="47.53906" lon="-2.85964">
        <ele>4.6</ele>
        <time>2026-08-29T12:47:37Z</time>
      </trkpt>
      <trkpt lat="47.53906" lon="-2.85972">
        <ele>4.4</ele>
        <time>2026-08-29T12:47:38Z</time>
      </trkpt>
      <trkpt lat="47.53906" lon="-2.85979">
        <ele>4.4</ele>
        <time>2026-08-29T12:47:39Z</time>
      </trkpt>
      <trkpt lat="47.53906" lon="-2.85987">
        <ele>4.4</ele>
        <time>2026-08-29T12:47:40Z</time>
      </trkpt>
      <trkpt lat="47.53906" lon="-2.85994">
        <ele>4.4</ele>
        <time>2026-08-29T12:47:41Z</time>
      </trkpt>
      <trkpt lat="47.53906" lon="-2.86002">
        <ele>4.4</ele>
        <time>2026-08-29T12:47:42Z</time>
      </trkpt>
      <trkpt lat="47.53906" lon="-2.86009">
        <ele>4.3</ele>
        <time>2026-08-29T12:47:43Z</time>
      </trkpt>
      <trkpt lat="47.53906" lon="-2.86017">
        <ele>4.1</ele>
        <time>2026-08-29T12:47:44Z</time>
      </trkpt>
      <trkpt lat="47.53905" lon="-2.86024">
        <ele>4.1</ele>
        <time>2026-08-29T12:47:45Z</time>
      </trkpt>
      <trkpt lat="47.53906" lon="-2.86032">
        <ele>4</ele>
        <time>2026-08-29T12:47:46Z</time>
      </trkpt>
      <trkpt lat="47.53906" lon="-2.86039">
        <ele>4</ele>
        <time>2026-08-29T12:47:47Z</time>
      </trkpt>
      <trkpt lat="47.53906" lon="-2.86045">
        <ele>4</ele>
        <time>2026-08-29T12:47:48Z</time>
      </trkpt>
      <trkpt lat="47.53907" lon="-2.86052">
        <ele>4</ele>
        <time>2026-08-29T12:47:49Z</time>
      </trkpt>
      <trkpt lat="47.53907" lon="-2.8606">
        <ele>4</ele>
        <time>2026-08-29T12:47:50Z</time>
      </trkpt>
      <trkpt lat="47.53907" lon="-2.86067">
        <ele>4</ele>
        <time>2026-08-29T12:47:51Z</time>
      </trkpt>
      <trkpt lat="47.53907" lon="-2.86075">
        <ele>4</ele>
        <time>2026-08-29T12:47:52Z</time>
      </trkpt>
      <trkpt lat="47.53908" lon="-2.86083">
        <ele>4</ele>
        <time>2026-08-29T12:47:53Z</time>
      </trkpt>
      <trkpt lat="47.53909" lon="-2.8609">
        <ele>3.8</ele>
        <time>2026-08-29T12:47:54Z</time>
      </trkpt>
      <trkpt lat="47.53909" lon="-2.86098">
        <ele>3.6</ele>
        <time>2026-08-29T12:47:55Z</time>
      </trkpt>
      <trkpt lat="47.5391" lon="-2.86105">
        <ele>3.4</ele>
        <time>2026-08-29T12:47:56Z</time>
      </trkpt>
      <trkpt lat="47.5391" lon="-2.86113">
        <ele>3.3</ele>
        <time>2026-08-29T12:47:57Z</time>
      </trkpt>
      <trkpt lat="47.53911" lon="-2.8612">
        <ele>3.5</ele>
        <time>2026-08-29T12:47:58Z</time>
      </trkpt>
      <trkpt lat="47.53913" lon="-2.86127">
        <ele>3.6</ele>
        <time>2026-08-29T12:47:59Z</time>
      </trkpt>
      <trkpt lat="47.53914" lon="-2.86133">
        <ele>3.8</ele>
        <time>2026-08-29T12:48:00Z</time>
      </trkpt>
      <trkpt lat="47.53915" lon="-2.8614">
        <ele>4</ele>
        <time>2026-08-29T12:48:01Z</time>
      </trkpt>
      <trkpt lat="47.53916" lon="-2.86147">
        <ele>4</ele>
        <time>2026-08-29T12:48:02Z</time>
      </trkpt>
      <trkpt lat="47.53917" lon="-2.86154">
        <ele>4</ele>
        <time>2026-08-29T12:48:03Z</time>
      </trkpt>
      <trkpt lat="47.53919" lon="-2.86161">
        <ele>3.9</ele>
        <time>2026-08-29T12:48:04Z</time>
      </trkpt>
      <trkpt lat="47.5392" lon="-2.86168">
        <ele>3.9</ele>
        <time>2026-08-29T12:48:05Z</time>
      </trkpt>
      <trkpt lat="47.53921" lon="-2.86174">
        <ele>3.8</ele>
        <time>2026-08-29T12:48:06Z</time>
      </trkpt>
      <trkpt lat="47.53922" lon="-2.86181">
        <ele>3.8</ele>
        <time>2026-08-29T12:48:07Z</time>
      </trkpt>
      <trkpt lat="47.53924" lon="-2.86188">
        <ele>3.7</ele>
        <time>2026-08-29T12:48:08Z</time>
      </trkpt>
      <trkpt lat="47.53926" lon="-2.86195">
        <ele>3.7</ele>
        <time>2026-08-29T12:48:09Z</time>
      </trkpt>
      <trkpt lat="47.53927" lon="-2.86201">
        <ele>3.7</ele>
        <time>2026-08-29T12:48:10Z</time>
      </trkpt>
      <trkpt lat="47.53929" lon="-2.86208">
        <ele>3.8</ele>
        <time>2026-08-29T12:48:11Z</time>
      </trkpt>
      <trkpt lat="47.53932" lon="-2.86214">
        <ele>3.8</ele>
        <time>2026-08-29T12:48:12Z</time>
      </trkpt>
      <trkpt lat="47.53934" lon="-2.8622">
        <ele>4</ele>
        <time>2026-08-29T12:48:13Z</time>
      </trkpt>
      <trkpt lat="47.53936" lon="-2.86225">
        <ele>4.1</ele>
        <time>2026-08-29T12:48:14Z</time>
      </trkpt>
      <trkpt lat="47.53938" lon="-2.86231">
        <ele>4.2</ele>
        <time>2026-08-29T12:48:15Z</time>
      </trkpt>
      <trkpt lat="47.5394" lon="-2.86237">
        <ele>4.4</ele>
        <time>2026-08-29T12:48:16Z</time>
      </trkpt>
      <trkpt lat="47.53942" lon="-2.86242">
        <ele>4.6</ele>
        <time>2026-08-29T12:48:17Z</time>
      </trkpt>
      <trkpt lat="47.53944" lon="-2.86247">
        <ele>4.9</ele>
        <time>2026-08-29T12:48:18Z</time>
      </trkpt>
      <trkpt lat="47.53946" lon="-2.86253">
        <ele>5</ele>
        <time>2026-08-29T12:48:19Z</time>
      </trkpt>
      <trkpt lat="47.53948" lon="-2.86258">
        <ele>4.9</ele>
        <time>2026-08-29T12:48:20Z</time>
      </trkpt>
      <trkpt lat="47.5395" lon="-2.86263">
        <ele>4.9</ele>
        <time>2026-08-29T12:48:21Z</time>
      </trkpt>
      <trkpt lat="47.53952" lon="-2.86269">
        <ele>4.9</ele>
        <time>2026-08-29T12:48:22Z</time>
      </trkpt>
      <trkpt lat="47.53954" lon="-2.86274">
        <ele>5</ele>
        <time>2026-08-29T12:48:23Z</time>
      </trkpt>
      <trkpt lat="47.53956" lon="-2.86279">
        <ele>5</ele>
        <time>2026-08-29T12:48:24Z</time>
      </trkpt>
      <trkpt lat="47.53958" lon="-2.86284">
        <ele>5.2</ele>
        <time>2026-08-29T12:48:25Z</time>
      </trkpt>
      <trkpt lat="47.5396" lon="-2.86289">
        <ele>5.4</ele>
        <time>2026-08-29T12:48:26Z</time>
      </trkpt>
      <trkpt lat="47.53963" lon="-2.86294">
        <ele>5.6</ele>
        <time>2026-08-29T12:48:27Z</time>
      </trkpt>
      <trkpt lat="47.53965" lon="-2.86299">
        <ele>5.8</ele>
        <time>2026-08-29T12:48:28Z</time>
      </trkpt>
      <trkpt lat="47.53967" lon="-2.86303">
        <ele>5.9</ele>
        <time>2026-08-29T12:48:29Z</time>
      </trkpt>
      <trkpt lat="47.53969" lon="-2.86307">
        <ele>6.1</ele>
        <time>2026-08-29T12:48:30Z</time>
      </trkpt>
      <trkpt lat="47.53971" lon="-2.86311">
        <ele>6.2</ele>
        <time>2026-08-29T12:48:31Z</time>
      </trkpt>
      <trkpt lat="47.53974" lon="-2.86315">
        <ele>6.3</ele>
        <time>2026-08-29T12:48:32Z</time>
      </trkpt>
      <trkpt lat="47.53976" lon="-2.86319">
        <ele>6.5</ele>
        <time>2026-08-29T12:48:33Z</time>
      </trkpt>
      <trkpt lat="47.53979" lon="-2.86322">
        <ele>6.6</ele>
        <time>2026-08-29T12:48:34Z</time>
      </trkpt>
      <trkpt lat="47.53982" lon="-2.86326">
        <ele>6.7</ele>
        <time>2026-08-29T12:48:35Z</time>
      </trkpt>
      <trkpt lat="47.53985" lon="-2.8633">
        <ele>6.9</ele>
        <time>2026-08-29T12:48:36Z</time>
      </trkpt>
      <trkpt lat="47.53988" lon="-2.86334">
        <ele>7</ele>
        <time>2026-08-29T12:48:37Z</time>
      </trkpt>
      <trkpt lat="47.53991" lon="-2.86337">
        <ele>7.1</ele>
        <time>2026-08-29T12:48:38Z</time>
      </trkpt>
      <trkpt lat="47.53993" lon="-2.86341">
        <ele>7.3</ele>
        <time>2026-08-29T12:48:39Z</time>
      </trkpt>
      <trkpt lat="47.53996" lon="-2.86344">
        <ele>7.4</ele>
        <time>2026-08-29T12:48:40Z</time>
      </trkpt>
      <trkpt lat="47.53998" lon="-2.86348">
        <ele>7.5</ele>
        <time>2026-08-29T12:48:41Z</time>
      </trkpt>
      <trkpt lat="47.54001" lon="-2.86351">
        <ele>7.6</ele>
        <time>2026-08-29T12:48:42Z</time>
      </trkpt>
      <trkpt lat="47.54004" lon="-2.86354">
        <ele>7.7</ele>
        <time>2026-08-29T12:48:43Z</time>
      </trkpt>
      <trkpt lat="47.54007" lon="-2.86358">
        <ele>7.9</ele>
        <time>2026-08-29T12:48:44Z</time>
      </trkpt>
      <trkpt lat="47.5401" lon="-2.86361">
        <ele>8</ele>
        <time>2026-08-29T12:48:45Z</time>
      </trkpt>
      <trkpt lat="47.54013" lon="-2.86364">
        <ele>8.1</ele>
        <time>2026-08-29T12:48:46Z</time>
      </trkpt>
      <trkpt lat="47.54015" lon="-2.86368">
        <ele>8.2</ele>
        <time>2026-08-29T12:48:47Z</time>
      </trkpt>
      <trkpt lat="47.54018" lon="-2.8637">
        <ele>8.3</ele>
        <time>2026-08-29T12:48:48Z</time>
      </trkpt>
      <trkpt lat="47.54021" lon="-2.86373">
        <ele>8.4</ele>
        <time>2026-08-29T12:48:49Z</time>
      </trkpt>
      <trkpt lat="47.54024" lon="-2.86376">
        <ele>8.5</ele>
        <time>2026-08-29T12:48:50Z</time>
      </trkpt>
      <trkpt lat="47.54027" lon="-2.86379">
        <ele>8.6</ele>
        <time>2026-08-29T12:48:51Z</time>
      </trkpt>
      <trkpt lat="47.5403" lon="-2.86382">
        <ele>8.8</ele>
        <time>2026-08-29T12:48:52Z</time>
      </trkpt>
      <trkpt lat="47.54034" lon="-2.86385">
        <ele>8.9</ele>
        <time>2026-08-29T12:48:53Z</time>
      </trkpt>
      <trkpt lat="47.54036" lon="-2.86389">
        <ele>9</ele>
        <time>2026-08-29T12:48:54Z</time>
      </trkpt>
      <trkpt lat="47.5404" lon="-2.86392">
        <ele>9.1</ele>
        <time>2026-08-29T12:48:55Z</time>
      </trkpt>
      <trkpt lat="47.54043" lon="-2.86394">
        <ele>9.2</ele>
        <time>2026-08-29T12:48:56Z</time>
      </trkpt>
      <trkpt lat="47.54046" lon="-2.86396">
        <ele>9.3</ele>
        <time>2026-08-29T12:48:57Z</time>
      </trkpt>
      <trkpt lat="47.54048" lon="-2.86398">
        <ele>9.3</ele>
        <time>2026-08-29T12:48:58Z</time>
      </trkpt>
      <trkpt lat="47.54052" lon="-2.86401">
        <ele>9.4</ele>
        <time>2026-08-29T12:48:59Z</time>
      </trkpt>
      <trkpt lat="47.54055" lon="-2.86403">
        <ele>9.5</ele>
        <time>2026-08-29T12:49:00Z</time>
      </trkpt>
      <trkpt lat="47.54057" lon="-2.86405">
        <ele>9.6</ele>
        <time>2026-08-29T12:49:01Z</time>
      </trkpt>
      <trkpt lat="47.5406" lon="-2.86407">
        <ele>9.7</ele>
        <time>2026-08-29T12:49:02Z</time>
      </trkpt>
      <trkpt lat="47.54064" lon="-2.8641">
        <ele>9.8</ele>
        <time>2026-08-29T12:49:03Z</time>
      </trkpt>
      <trkpt lat="47.54068" lon="-2.86412">
        <ele>9.8</ele>
        <time>2026-08-29T12:49:04Z</time>
      </trkpt>
      <trkpt lat="47.54071" lon="-2.86415">
        <ele>9.9</ele>
        <time>2026-08-29T12:49:05Z</time>
      </trkpt>
      <trkpt lat="47.54074" lon="-2.86418">
        <ele>10</ele>
        <time>2026-08-29T12:49:06Z</time>
      </trkpt>
      <trkpt lat="47.54077" lon="-2.8642">
        <ele>10</ele>
        <time>2026-08-29T12:49:07Z</time>
      </trkpt>
      <trkpt lat="47.5408" lon="-2.86423">
        <ele>10</ele>
        <time>2026-08-29T12:49:08Z</time>
      </trkpt>
      <trkpt lat="47.54083" lon="-2.86425">
        <ele>10</ele>
        <time>2026-08-29T12:49:09Z</time>
      </trkpt>
      <trkpt lat="47.54086" lon="-2.86427">
        <ele>9.9</ele>
        <time>2026-08-29T12:49:10Z</time>
      </trkpt>
      <trkpt lat="47.54089" lon="-2.8643">
        <ele>9.8</ele>
        <time>2026-08-29T12:49:11Z</time>
      </trkpt>
      <trkpt lat="47.54093" lon="-2.86433">
        <ele>9.7</ele>
        <time>2026-08-29T12:49:12Z</time>
      </trkpt>
      <trkpt lat="47.54097" lon="-2.86436">
        <ele>9.5</ele>
        <time>2026-08-29T12:49:13Z</time>
      </trkpt>
      <trkpt lat="47.54101" lon="-2.86439">
        <ele>9.4</ele>
        <time>2026-08-29T12:49:14Z</time>
      </trkpt>
      <trkpt lat="47.54105" lon="-2.86442">
        <ele>9.2</ele>
        <time>2026-08-29T12:49:15Z</time>
      </trkpt>
      <trkpt lat="47.54108" lon="-2.86444">
        <ele>9.1</ele>
        <time>2026-08-29T12:49:16Z</time>
      </trkpt>
      <trkpt lat="47.54112" lon="-2.86447">
        <ele>9.1</ele>
        <time>2026-08-29T12:49:17Z</time>
      </trkpt>
      <trkpt lat="47.54116" lon="-2.86451">
        <ele>9.1</ele>
        <time>2026-08-29T12:49:18Z</time>
      </trkpt>
      <trkpt lat="47.54121" lon="-2.86455">
        <ele>9</ele>
        <time>2026-08-29T12:49:19Z</time>
      </trkpt>
      <trkpt lat="47.54125" lon="-2.86458">
        <ele>9</ele>
        <time>2026-08-29T12:49:20Z</time>
      </trkpt>
      <trkpt lat="47.54129" lon="-2.86462">
        <ele>9</ele>
        <time>2026-08-29T12:49:21Z</time>
      </trkpt>
      <trkpt lat="47.54133" lon="-2.86466">
        <ele>9</ele>
        <time>2026-08-29T12:49:22Z</time>
      </trkpt>
      <trkpt lat="47.54137" lon="-2.86469">
        <ele>9</ele>
        <time>2026-08-29T12:49:23Z</time>
      </trkpt>
      <trkpt lat="47.54141" lon="-2.86473">
        <ele>8.9</ele>
        <time>2026-08-29T12:49:24Z</time>
      </trkpt>
      <trkpt lat="47.54145" lon="-2.86477">
        <ele>8.8</ele>
        <time>2026-08-29T12:49:25Z</time>
      </trkpt>
      <trkpt lat="47.5415" lon="-2.86481">
        <ele>8.6</ele>
        <time>2026-08-29T12:49:26Z</time>
      </trkpt>
      <trkpt lat="47.54154" lon="-2.86485">
        <ele>8.6</ele>
        <time>2026-08-29T12:49:27Z</time>
      </trkpt>
      <trkpt lat="47.54158" lon="-2.86489">
        <ele>8.6</ele>
        <time>2026-08-29T12:49:28Z</time>
      </trkpt>
      <trkpt lat="47.54163" lon="-2.86493">
        <ele>8.7</ele>
        <time>2026-08-29T12:49:29Z</time>
      </trkpt>
      <trkpt lat="47.54167" lon="-2.86496">
        <ele>8.7</ele>
        <time>2026-08-29T12:49:30Z</time>
      </trkpt>
      <trkpt lat="47.5417" lon="-2.865">
        <ele>8.8</ele>
        <time>2026-08-29T12:49:31Z</time>
      </trkpt>
      <trkpt lat="47.54173" lon="-2.86504">
        <ele>8.7</ele>
        <time>2026-08-29T12:49:32Z</time>
      </trkpt>
      <trkpt lat="47.54175" lon="-2.86508">
        <ele>8.8</ele>
        <time>2026-08-29T12:49:33Z</time>
      </trkpt>
      <trkpt lat="47.54179" lon="-2.86512">
        <ele>8.7</ele>
        <time>2026-08-29T12:49:34Z</time>
      </trkpt>
      <trkpt lat="47.54182" lon="-2.86515">
        <ele>8.7</ele>
        <time>2026-08-29T12:49:35Z</time>
      </trkpt>
      <trkpt lat="47.54186" lon="-2.86518">
        <ele>8.7</ele>
        <time>2026-08-29T12:49:36Z</time>
      </trkpt>
      <trkpt lat="47.5419" lon="-2.86524">
        <ele>8.9</ele>
        <time>2026-08-29T12:49:37Z</time>
      </trkpt>
      <trkpt lat="47.54194" lon="-2.86528">
        <ele>9</ele>
        <time>2026-08-29T12:49:38Z</time>
      </trkpt>
      <trkpt lat="47.54197" lon="-2.86532">
        <ele>9.3</ele>
        <time>2026-08-29T12:49:39Z</time>
      </trkpt>
      <trkpt lat="47.542" lon="-2.86537">
        <ele>9.7</ele>
        <time>2026-08-29T12:49:40Z</time>
      </trkpt>
      <trkpt lat="47.54204" lon="-2.86544">
        <ele>10</ele>
        <time>2026-08-29T12:49:41Z</time>
      </trkpt>
      <trkpt lat="47.54206" lon="-2.86547">
        <ele>10.1</ele>
        <time>2026-08-29T12:49:42Z</time>
      </trkpt>
      <trkpt lat="47.54209" lon="-2.86552">
        <ele>10.2</ele>
        <time>2026-08-29T12:49:43Z</time>
      </trkpt>
      <trkpt lat="47.54211" lon="-2.86555">
        <ele>10.2</ele>
        <time>2026-08-29T12:49:44Z</time>
      </trkpt>
      <trkpt lat="47.54215" lon="-2.8656">
        <ele>10.3</ele>
        <time>2026-08-29T12:49:45Z</time>
      </trkpt>
      <trkpt lat="47.54219" lon="-2.86564">
        <ele>10.3</ele>
        <time>2026-08-29T12:49:46Z</time>
      </trkpt>
      <trkpt lat="47.54221" lon="-2.86568">
        <ele>10.5</ele>
        <time>2026-08-29T12:49:47Z</time>
      </trkpt>
      <trkpt lat="47.54224" lon="-2.86573">
        <ele>10.8</ele>
        <time>2026-08-29T12:49:48Z</time>
      </trkpt>
      <trkpt lat="47.54227" lon="-2.86579">
        <ele>11.1</ele>
        <time>2026-08-29T12:49:49Z</time>
      </trkpt>
      <trkpt lat="47.5423" lon="-2.86584">
        <ele>11.2</ele>
        <time>2026-08-29T12:49:50Z</time>
      </trkpt>
      <trkpt lat="47.54233" lon="-2.86589">
        <ele>11</ele>
        <time>2026-08-29T12:49:51Z</time>
      </trkpt>
      <trkpt lat="47.54235" lon="-2.86594">
        <ele>11</ele>
        <time>2026-08-29T12:49:52Z</time>
      </trkpt>
      <trkpt lat="47.54237" lon="-2.86599">
        <ele>11</ele>
        <time>2026-08-29T12:49:53Z</time>
      </trkpt>
      <trkpt lat="47.54239" lon="-2.86604">
        <ele>10.9</ele>
        <time>2026-08-29T12:49:54Z</time>
      </trkpt>
      <trkpt lat="47.54242" lon="-2.86609">
        <ele>10.8</ele>
        <time>2026-08-29T12:49:55Z</time>
      </trkpt>
      <trkpt lat="47.54244" lon="-2.86614">
        <ele>10.7</ele>
        <time>2026-08-29T12:49:56Z</time>
      </trkpt>
      <trkpt lat="47.54246" lon="-2.86619">
        <ele>10.7</ele>
        <time>2026-08-29T12:49:57Z</time>
      </trkpt>
      <trkpt lat="47.54249" lon="-2.86625">
        <ele>10.6</ele>
        <time>2026-08-29T12:49:58Z</time>
      </trkpt>
      <trkpt lat="47.54251" lon="-2.8663">
        <ele>10.7</ele>
        <time>2026-08-29T12:49:59Z</time>
      </trkpt>
      <trkpt lat="47.54253" lon="-2.86636">
        <ele>11</ele>
        <time>2026-08-29T12:50:00Z</time>
      </trkpt>
      <trkpt lat="47.54255" lon="-2.86641">
        <ele>11.2</ele>
        <time>2026-08-29T12:50:01Z</time>
      </trkpt>
      <trkpt lat="47.54256" lon="-2.86646">
        <ele>11.4</ele>
        <time>2026-08-29T12:50:02Z</time>
      </trkpt>
      <trkpt lat="47.54258" lon="-2.86651">
        <ele>11.6</ele>
        <time>2026-08-29T12:50:03Z</time>
      </trkpt>
      <trkpt lat="47.5426" lon="-2.86657">
        <ele>11.8</ele>
        <time>2026-08-29T12:50:04Z</time>
      </trkpt>
      <trkpt lat="47.54262" lon="-2.86662">
        <ele>11.9</ele>
        <time>2026-08-29T12:50:05Z</time>
      </trkpt>
      <trkpt lat="47.54263" lon="-2.86668">
        <ele>12</ele>
        <time>2026-08-29T12:50:06Z</time>
      </trkpt>
      <trkpt lat="47.54264" lon="-2.86674">
        <ele>12</ele>
        <time>2026-08-29T12:50:07Z</time>
      </trkpt>
      <trkpt lat="47.54265" lon="-2.86679">
        <ele>12</ele>
        <time>2026-08-29T12:50:08Z</time>
      </trkpt>
      <trkpt lat="47.54266" lon="-2.86685">
        <ele>12</ele>
        <time>2026-08-29T12:50:09Z</time>
      </trkpt>
      <trkpt lat="47.54268" lon="-2.8669">
        <ele>12</ele>
        <time>2026-08-29T12:50:10Z</time>
      </trkpt>
      <trkpt lat="47.54269" lon="-2.86695">
        <ele>12</ele>
        <time>2026-08-29T12:50:11Z</time>
      </trkpt>
      <trkpt lat="47.5427" lon="-2.86701">
        <ele>12</ele>
        <time>2026-08-29T12:50:12Z</time>
      </trkpt>
      <trkpt lat="47.54271" lon="-2.86707">
        <ele>12</ele>
        <time>2026-08-29T12:50:13Z</time>
      </trkpt>
      <trkpt lat="47.54272" lon="-2.86713">
        <ele>12</ele>
        <time>2026-08-29T12:50:14Z</time>
      </trkpt>
      <trkpt lat="47.54273" lon="-2.86719">
        <ele>12</ele>
        <time>2026-08-29T12:50:15Z</time>
      </trkpt>
      <trkpt lat="47.54274" lon="-2.86725">
        <ele>12</ele>
        <time>2026-08-29T12:50:16Z</time>
      </trkpt>
      <trkpt lat="47.54275" lon="-2.8673">
        <ele>12</ele>
        <time>2026-08-29T12:50:17Z</time>
      </trkpt>
      <trkpt lat="47.54276" lon="-2.86735">
        <ele>12</ele>
        <time>2026-08-29T12:50:18Z</time>
      </trkpt>
      <trkpt lat="47.54277" lon="-2.86741">
        <ele>12</ele>
        <time>2026-08-29T12:50:19Z</time>
      </trkpt>
      <trkpt lat="47.54278" lon="-2.86746">
        <ele>12</ele>
        <time>2026-08-29T12:50:20Z</time>
      </trkpt>
      <trkpt lat="47.54279" lon="-2.86752">
        <ele>12.2</ele>
        <time>2026-08-29T12:50:21Z</time>
      </trkpt>
      <trkpt lat="47.5428" lon="-2.86758">
        <ele>12.4</ele>
        <time>2026-08-29T12:50:22Z</time>
      </trkpt>
      <trkpt lat="47.5428" lon="-2.86763">
        <ele>12.6</ele>
        <time>2026-08-29T12:50:23Z</time>
      </trkpt>
      <trkpt lat="47.54281" lon="-2.86768">
        <ele>12.8</ele>
        <time>2026-08-29T12:50:24Z</time>
      </trkpt>
      <trkpt lat="47.54281" lon="-2.86773">
        <ele>13</ele>
        <time>2026-08-29T12:50:25Z</time>
      </trkpt>
      <trkpt lat="47.54282" lon="-2.86778">
        <ele>13.2</ele>
        <time>2026-08-29T12:50:26Z</time>
      </trkpt>
      <trkpt lat="47.54283" lon="-2.86783">
        <ele>13.2</ele>
        <time>2026-08-29T12:50:27Z</time>
      </trkpt>
      <trkpt lat="47.54283" lon="-2.86789">
        <ele>13.2</ele>
        <time>2026-08-29T12:50:28Z</time>
      </trkpt>
      <trkpt lat="47.54282" lon="-2.86794">
        <ele>13.2</ele>
        <time>2026-08-29T12:50:29Z</time>
      </trkpt>
      <trkpt lat="47.54282" lon="-2.86799">
        <ele>13.2</ele>
        <time>2026-08-29T12:50:30Z</time>
      </trkpt>
      <trkpt lat="47.54282" lon="-2.86803">
        <ele>13.2</ele>
        <time>2026-08-29T12:50:31Z</time>
      </trkpt>
      <trkpt lat="47.54282" lon="-2.86807">
        <ele>13.2</ele>
        <time>2026-08-29T12:50:32Z</time>
      </trkpt>
      <trkpt lat="47.54282" lon="-2.8681">
        <ele>13.2</ele>
        <time>2026-08-29T12:50:33Z</time>
      </trkpt>
      <trkpt lat="47.54281" lon="-2.86813">
        <ele>13.1</ele>
        <time>2026-08-29T12:50:34Z</time>
      </trkpt>
      <trkpt lat="47.5428" lon="-2.86816">
        <ele>13.1</ele>
        <time>2026-08-29T12:50:35Z</time>
      </trkpt>
      <trkpt lat="47.5428" lon="-2.86819">
        <ele>13.1</ele>
        <time>2026-08-29T12:50:36Z</time>
      </trkpt>
      <trkpt lat="47.54281" lon="-2.86823">
        <ele>13.1</ele>
        <time>2026-08-29T12:50:37Z</time>
      </trkpt>
      <trkpt lat="47.54281" lon="-2.86827">
        <ele>13.1</ele>
        <time>2026-08-29T12:50:38Z</time>
      </trkpt>
      <trkpt lat="47.54281" lon="-2.86832">
        <ele>13.1</ele>
        <time>2026-08-29T12:50:39Z</time>
      </trkpt>
      <trkpt lat="47.54281" lon="-2.86836">
        <ele>13.2</ele>
        <time>2026-08-29T12:50:40Z</time>
      </trkpt>
      <trkpt lat="47.54281" lon="-2.86841">
        <ele>13.4</ele>
        <time>2026-08-29T12:50:41Z</time>
      </trkpt>
      <trkpt lat="47.54281" lon="-2.86846">
        <ele>13.6</ele>
        <time>2026-08-29T12:50:42Z</time>
      </trkpt>
      <trkpt lat="47.54281" lon="-2.86851">
        <ele>13.8</ele>
        <time>2026-08-29T12:50:43Z</time>
      </trkpt>
      <trkpt lat="47.54281" lon="-2.86857">
        <ele>14</ele>
        <time>2026-08-29T12:50:44Z</time>
      </trkpt>
      <trkpt lat="47.54281" lon="-2.86862">
        <ele>14.1</ele>
        <time>2026-08-29T12:50:45Z</time>
      </trkpt>
      <trkpt lat="47.54281" lon="-2.86867">
        <ele>14.1</ele>
        <time>2026-08-29T12:50:46Z</time>
      </trkpt>
      <trkpt lat="47.54281" lon="-2.86873">
        <ele>14.1</ele>
        <time>2026-08-29T12:50:47Z</time>
      </trkpt>
      <trkpt lat="47.54281" lon="-2.86878">
        <ele>14.1</ele>
        <time>2026-08-29T12:50:48Z</time>
      </trkpt>
      <trkpt lat="47.54281" lon="-2.86884">
        <ele>14.1</ele>
        <time>2026-08-29T12:50:49Z</time>
      </trkpt>
      <trkpt lat="47.54281" lon="-2.86889">
        <ele>14.1</ele>
        <time>2026-08-29T12:50:50Z</time>
      </trkpt>
      <trkpt lat="47.54281" lon="-2.86895">
        <ele>14.3</ele>
        <time>2026-08-29T12:50:51Z</time>
      </trkpt>
      <trkpt lat="47.54281" lon="-2.869">
        <ele>14.5</ele>
        <time>2026-08-29T12:50:52Z</time>
      </trkpt>
      <trkpt lat="47.54281" lon="-2.86906">
        <ele>14.7</ele>
        <time>2026-08-29T12:50:53Z</time>
      </trkpt>
      <trkpt lat="47.54281" lon="-2.86912">
        <ele>14.9</ele>
        <time>2026-08-29T12:50:54Z</time>
      </trkpt>
      <trkpt lat="47.54281" lon="-2.86917">
        <ele>15</ele>
        <time>2026-08-29T12:50:55Z</time>
      </trkpt>
      <trkpt lat="47.54281" lon="-2.86923">
        <ele>15</ele>
        <time>2026-08-29T12:50:56Z</time>
      </trkpt>
      <trkpt lat="47.54281" lon="-2.86929">
        <ele>15</ele>
        <time>2026-08-29T12:50:57Z</time>
      </trkpt>
      <trkpt lat="47.54281" lon="-2.86935">
        <ele>15</ele>
        <time>2026-08-29T12:50:58Z</time>
      </trkpt>
      <trkpt lat="47.54281" lon="-2.86941">
        <ele>15</ele>
        <time>2026-08-29T12:50:59Z</time>
      </trkpt>
      <trkpt lat="47.54281" lon="-2.86947">
        <ele>15</ele>
        <time>2026-08-29T12:51:00Z</time>
      </trkpt>
      <trkpt lat="47.54281" lon="-2.86952">
        <ele>15</ele>
        <time>2026-08-29T12:51:01Z</time>
      </trkpt>
      <trkpt lat="47.54281" lon="-2.86958">
        <ele>15</ele>
        <time>2026-08-29T12:51:02Z</time>
      </trkpt>
      <trkpt lat="47.54281" lon="-2.86964">
        <ele>15</ele>
        <time>2026-08-29T12:51:03Z</time>
      </trkpt>
      <trkpt lat="47.54281" lon="-2.8697">
        <ele>15</ele>
        <time>2026-08-29T12:51:04Z</time>
      </trkpt>
      <trkpt lat="47.54281" lon="-2.86975">
        <ele>15</ele>
        <time>2026-08-29T12:51:05Z</time>
      </trkpt>
      <trkpt lat="47.54281" lon="-2.86981">
        <ele>15</ele>
        <time>2026-08-29T12:51:06Z</time>
      </trkpt>
      <trkpt lat="47.54281" lon="-2.86987">
        <ele>15</ele>
        <time>2026-08-29T12:51:07Z</time>
      </trkpt>
      <trkpt lat="47.54281" lon="-2.86992">
        <ele>15</ele>
        <time>2026-08-29T12:51:08Z</time>
      </trkpt>
      <trkpt lat="47.54281" lon="-2.86997">
        <ele>15</ele>
        <time>2026-08-29T12:51:09Z</time>
      </trkpt>
      <trkpt lat="47.54281" lon="-2.87003">
        <ele>15</ele>
        <time>2026-08-29T12:51:10Z</time>
      </trkpt>
      <trkpt lat="47.54282" lon="-2.87009">
        <ele>15</ele>
        <time>2026-08-29T12:51:11Z</time>
      </trkpt>
      <trkpt lat="47.54281" lon="-2.87015">
        <ele>15</ele>
        <time>2026-08-29T12:51:12Z</time>
      </trkpt>
      <trkpt lat="47.54281" lon="-2.87021">
        <ele>15</ele>
        <time>2026-08-29T12:51:13Z</time>
      </trkpt>
      <trkpt lat="47.54281" lon="-2.87027">
        <ele>15</ele>
        <time>2026-08-29T12:51:14Z</time>
      </trkpt>
      <trkpt lat="47.54281" lon="-2.87033">
        <ele>15</ele>
        <time>2026-08-29T12:51:15Z</time>
      </trkpt>
      <trkpt lat="47.54281" lon="-2.87039">
        <ele>15</ele>
        <time>2026-08-29T12:51:16Z</time>
      </trkpt>
      <trkpt lat="47.54281" lon="-2.87044">
        <ele>15</ele>
        <time>2026-08-29T12:51:17Z</time>
      </trkpt>
      <trkpt lat="47.54282" lon="-2.8705">
        <ele>15</ele>
        <time>2026-08-29T12:51:18Z</time>
      </trkpt>
      <trkpt lat="47.54282" lon="-2.87056">
        <ele>15</ele>
        <time>2026-08-29T12:51:19Z</time>
      </trkpt>
      <trkpt lat="47.54282" lon="-2.87063">
        <ele>15</ele>
        <time>2026-08-29T12:51:20Z</time>
      </trkpt>
      <trkpt lat="47.54282" lon="-2.87069">
        <ele>15</ele>
        <time>2026-08-29T12:51:21Z</time>
      </trkpt>
      <trkpt lat="47.54282" lon="-2.87075">
        <ele>15</ele>
        <time>2026-08-29T12:51:22Z</time>
      </trkpt>
      <trkpt lat="47.54283" lon="-2.87081">
        <ele>15</ele>
        <time>2026-08-29T12:51:23Z</time>
      </trkpt>
      <trkpt lat="47.54283" lon="-2.87087">
        <ele>15</ele>
        <time>2026-08-29T12:51:24Z</time>
      </trkpt>
      <trkpt lat="47.54283" lon="-2.87092">
        <ele>15</ele>
        <time>2026-08-29T12:51:25Z</time>
      </trkpt>
      <trkpt lat="47.54283" lon="-2.87098">
        <ele>15</ele>
        <time>2026-08-29T12:51:26Z</time>
      </trkpt>
      <trkpt lat="47.54283" lon="-2.87104">
        <ele>15</ele>
        <time>2026-08-29T12:51:27Z</time>
      </trkpt>
      <trkpt lat="47.54283" lon="-2.8711">
        <ele>15</ele>
        <time>2026-08-29T12:51:28Z</time>
      </trkpt>
      <trkpt lat="47.54283" lon="-2.87116">
        <ele>15</ele>
        <time>2026-08-29T12:51:29Z</time>
      </trkpt>
      <trkpt lat="47.54283" lon="-2.87122">
        <ele>15</ele>
        <time>2026-08-29T12:51:30Z</time>
      </trkpt>
      <trkpt lat="47.54283" lon="-2.87128">
        <ele>15</ele>
        <time>2026-08-29T12:51:31Z</time>
      </trkpt>
      <trkpt lat="47.54283" lon="-2.87134">
        <ele>15</ele>
        <time>2026-08-29T12:51:32Z</time>
      </trkpt>
      <trkpt lat="47.54283" lon="-2.8714">
        <ele>15</ele>
        <time>2026-08-29T12:51:33Z</time>
      </trkpt>
      <trkpt lat="47.54282" lon="-2.87146">
        <ele>15</ele>
        <time>2026-08-29T12:51:34Z</time>
      </trkpt>
      <trkpt lat="47.54282" lon="-2.87153">
        <ele>15</ele>
        <time>2026-08-29T12:51:35Z</time>
      </trkpt>
      <trkpt lat="47.54282" lon="-2.87159">
        <ele>15</ele>
        <time>2026-08-29T12:51:36Z</time>
      </trkpt>
      <trkpt lat="47.54282" lon="-2.87165">
        <ele>15</ele>
        <time>2026-08-29T12:51:37Z</time>
      </trkpt>
      <trkpt lat="47.54283" lon="-2.87171">
        <ele>15</ele>
        <time>2026-08-29T12:51:38Z</time>
      </trkpt>
      <trkpt lat="47.54282" lon="-2.87177">
        <ele>15</ele>
        <time>2026-08-29T12:51:39Z</time>
      </trkpt>
      <trkpt lat="47.54283" lon="-2.87183">
        <ele>15</ele>
        <time>2026-08-29T12:51:40Z</time>
      </trkpt>
      <trkpt lat="47.54282" lon="-2.8719">
        <ele>15</ele>
        <time>2026-08-29T12:51:41Z</time>
      </trkpt>
      <trkpt lat="47.54282" lon="-2.87196">
        <ele>14.9</ele>
        <time>2026-08-29T12:51:42Z</time>
      </trkpt>
      <trkpt lat="47.54282" lon="-2.87203">
        <ele>14.7</ele>
        <time>2026-08-29T12:51:43Z</time>
      </trkpt>
      <trkpt lat="47.54282" lon="-2.87209">
        <ele>14.5</ele>
        <time>2026-08-29T12:51:44Z</time>
      </trkpt>
      <trkpt lat="47.54282" lon="-2.87215">
        <ele>14.3</ele>
        <time>2026-08-29T12:51:45Z</time>
      </trkpt>
      <trkpt lat="47.54282" lon="-2.87222">
        <ele>14</ele>
        <time>2026-08-29T12:51:46Z</time>
      </trkpt>
      <trkpt lat="47.54283" lon="-2.87229">
        <ele>14</ele>
        <time>2026-08-29T12:51:47Z</time>
      </trkpt>
      <trkpt lat="47.54283" lon="-2.87236">
        <ele>13.9</ele>
        <time>2026-08-29T12:51:48Z</time>
      </trkpt>
      <trkpt lat="47.54283" lon="-2.87243">
        <ele>13.9</ele>
        <time>2026-08-29T12:51:49Z</time>
      </trkpt>
      <trkpt lat="47.54282" lon="-2.87251">
        <ele>13.8</ele>
        <time>2026-08-29T12:51:50Z</time>
      </trkpt>
      <trkpt lat="47.54282" lon="-2.87259">
        <ele>13.6</ele>
        <time>2026-08-29T12:51:51Z</time>
      </trkpt>
      <trkpt lat="47.54282" lon="-2.87267">
        <ele>13.3</ele>
        <time>2026-08-29T12:51:52Z</time>
      </trkpt>
      <trkpt lat="47.54282" lon="-2.87275">
        <ele>13.1</ele>
        <time>2026-08-29T12:51:53Z</time>
      </trkpt>
      <trkpt lat="47.54283" lon="-2.87284">
        <ele>13</ele>
        <time>2026-08-29T12:51:54Z</time>
      </trkpt>
      <trkpt lat="47.54283" lon="-2.87292">
        <ele>12.9</ele>
        <time>2026-08-29T12:51:55Z</time>
      </trkpt>
      <trkpt lat="47.54284" lon="-2.87301">
        <ele>12.8</ele>
        <time>2026-08-29T12:51:56Z</time>
      </trkpt>
      <trkpt lat="47.54285" lon="-2.8731">
        <ele>12.6</ele>
        <time>2026-08-29T12:51:57Z</time>
      </trkpt>
      <trkpt lat="47.54286" lon="-2.87319">
        <ele>12.2</ele>
        <time>2026-08-29T12:51:58Z</time>
      </trkpt>
      <trkpt lat="47.54288" lon="-2.87328">
        <ele>11.8</ele>
        <time>2026-08-29T12:51:59Z</time>
      </trkpt>
      <trkpt lat="47.54289" lon="-2.87336">
        <ele>11.5</ele>
        <time>2026-08-29T12:52:00Z</time>
      </trkpt>
      <trkpt lat="47.5429" lon="-2.87345">
        <ele>11.3</ele>
        <time>2026-08-29T12:52:01Z</time>
      </trkpt>
      <trkpt lat="47.54292" lon="-2.87353">
        <ele>11.1</ele>
        <time>2026-08-29T12:52:02Z</time>
      </trkpt>
      <trkpt lat="47.54293" lon="-2.87361">
        <ele>11</ele>
        <time>2026-08-29T12:52:03Z</time>
      </trkpt>
      <trkpt lat="47.54295" lon="-2.87369">
        <ele>11</ele>
        <time>2026-08-29T12:52:04Z</time>
      </trkpt>
      <trkpt lat="47.54297" lon="-2.87377">
        <ele>11</ele>
        <time>2026-08-29T12:52:05Z</time>
      </trkpt>
      <trkpt lat="47.54299" lon="-2.87385">
        <ele>11</ele>
        <time>2026-08-29T12:52:06Z</time>
      </trkpt>
      <trkpt lat="47.54301" lon="-2.87392">
        <ele>11</ele>
        <time>2026-08-29T12:52:07Z</time>
      </trkpt>
      <trkpt lat="47.54303" lon="-2.874">
        <ele>11</ele>
        <time>2026-08-29T12:52:08Z</time>
      </trkpt>
      <trkpt lat="47.54306" lon="-2.87408">
        <ele>11</ele>
        <time>2026-08-29T12:52:09Z</time>
      </trkpt>
      <trkpt lat="47.54307" lon="-2.87415">
        <ele>11</ele>
        <time>2026-08-29T12:52:10Z</time>
      </trkpt>
      <trkpt lat="47.54309" lon="-2.87422">
        <ele>11.2</ele>
        <time>2026-08-29T12:52:11Z</time>
      </trkpt>
      <trkpt lat="47.54311" lon="-2.87429">
        <ele>11.4</ele>
        <time>2026-08-29T12:52:12Z</time>
      </trkpt>
      <trkpt lat="47.54313" lon="-2.87435">
        <ele>11.5</ele>
        <time>2026-08-29T12:52:13Z</time>
      </trkpt>
      <trkpt lat="47.54316" lon="-2.87441">
        <ele>11.5</ele>
        <time>2026-08-29T12:52:14Z</time>
      </trkpt>
      <trkpt lat="47.54318" lon="-2.87447">
        <ele>11.6</ele>
        <time>2026-08-29T12:52:15Z</time>
      </trkpt>
      <trkpt lat="47.5432" lon="-2.87454">
        <ele>11.5</ele>
        <time>2026-08-29T12:52:16Z</time>
      </trkpt>
      <trkpt lat="47.54322" lon="-2.8746">
        <ele>11.4</ele>
        <time>2026-08-29T12:52:17Z</time>
      </trkpt>
      <trkpt lat="47.54324" lon="-2.87465">
        <ele>11.3</ele>
        <time>2026-08-29T12:52:18Z</time>
      </trkpt>
      <trkpt lat="47.54326" lon="-2.87471">
        <ele>11.3</ele>
        <time>2026-08-29T12:52:19Z</time>
      </trkpt>
      <trkpt lat="47.54329" lon="-2.87476">
        <ele>11.3</ele>
        <time>2026-08-29T12:52:20Z</time>
      </trkpt>
      <trkpt lat="47.54331" lon="-2.87482">
        <ele>11.4</ele>
        <time>2026-08-29T12:52:21Z</time>
      </trkpt>
      <trkpt lat="47.54333" lon="-2.87487">
        <ele>11.5</ele>
        <time>2026-08-29T12:52:22Z</time>
      </trkpt>
      <trkpt lat="47.54335" lon="-2.87492">
        <ele>11.8</ele>
        <time>2026-08-29T12:52:23Z</time>
      </trkpt>
      <trkpt lat="47.54338" lon="-2.87498">
        <ele>12.1</ele>
        <time>2026-08-29T12:52:24Z</time>
      </trkpt>
      <trkpt lat="47.54341" lon="-2.87503">
        <ele>12.4</ele>
        <time>2026-08-29T12:52:25Z</time>
      </trkpt>
      <trkpt lat="47.54344" lon="-2.87509">
        <ele>12.6</ele>
        <time>2026-08-29T12:52:26Z</time>
      </trkpt>
      <trkpt lat="47.54347" lon="-2.87514">
        <ele>12.7</ele>
        <time>2026-08-29T12:52:27Z</time>
      </trkpt>
      <trkpt lat="47.5435" lon="-2.87519">
        <ele>12.9</ele>
        <time>2026-08-29T12:52:28Z</time>
      </trkpt>
      <trkpt lat="47.54353" lon="-2.87524">
        <ele>13</ele>
        <time>2026-08-29T12:52:29Z</time>
      </trkpt>
      <trkpt lat="47.54356" lon="-2.87529">
        <ele>13</ele>
        <time>2026-08-29T12:52:30Z</time>
      </trkpt>
      <trkpt lat="47.54359" lon="-2.87534">
        <ele>13</ele>
        <time>2026-08-29T12:52:31Z</time>
      </trkpt>
      <trkpt lat="47.54362" lon="-2.87538">
        <ele>13</ele>
        <time>2026-08-29T12:52:32Z</time>
      </trkpt>
      <trkpt lat="47.54365" lon="-2.87542">
        <ele>13.1</ele>
        <time>2026-08-29T12:52:33Z</time>
      </trkpt>
      <trkpt lat="47.54367" lon="-2.87545">
        <ele>13.2</ele>
        <time>2026-08-29T12:52:34Z</time>
      </trkpt>
      <trkpt lat="47.5437" lon="-2.87549">
        <ele>13.3</ele>
        <time>2026-08-29T12:52:35Z</time>
      </trkpt>
      <trkpt lat="47.54373" lon="-2.87552">
        <ele>13.4</ele>
        <time>2026-08-29T12:52:36Z</time>
      </trkpt>
      <trkpt lat="47.54376" lon="-2.87556">
        <ele>13.5</ele>
        <time>2026-08-29T12:52:37Z</time>
      </trkpt>
      <trkpt lat="47.5438" lon="-2.87559">
        <ele>13.7</ele>
        <time>2026-08-29T12:52:38Z</time>
      </trkpt>
      <trkpt lat="47.54384" lon="-2.87563">
        <ele>13.9</ele>
        <time>2026-08-29T12:52:39Z</time>
      </trkpt>
      <trkpt lat="47.54387" lon="-2.87567">
        <ele>14</ele>
        <time>2026-08-29T12:52:40Z</time>
      </trkpt>
      <trkpt lat="47.54391" lon="-2.87572">
        <ele>14</ele>
        <time>2026-08-29T12:52:41Z</time>
      </trkpt>
      <trkpt lat="47.54395" lon="-2.87576">
        <ele>14</ele>
        <time>2026-08-29T12:52:42Z</time>
      </trkpt>
      <trkpt lat="47.544" lon="-2.8758">
        <ele>14</ele>
        <time>2026-08-29T12:52:43Z</time>
      </trkpt>
      <trkpt lat="47.54404" lon="-2.87584">
        <ele>14</ele>
        <time>2026-08-29T12:52:44Z</time>
      </trkpt>
      <trkpt lat="47.54407" lon="-2.87588">
        <ele>14</ele>
        <time>2026-08-29T12:52:45Z</time>
      </trkpt>
      <trkpt lat="47.54411" lon="-2.87592">
        <ele>14</ele>
        <time>2026-08-29T12:52:46Z</time>
      </trkpt>
      <trkpt lat="47.54415" lon="-2.87595">
        <ele>14</ele>
        <time>2026-08-29T12:52:47Z</time>
      </trkpt>
      <trkpt lat="47.54419" lon="-2.87599">
        <ele>14</ele>
        <time>2026-08-29T12:52:48Z</time>
      </trkpt>
      <trkpt lat="47.54423" lon="-2.87603">
        <ele>14</ele>
        <time>2026-08-29T12:52:49Z</time>
      </trkpt>
      <trkpt lat="47.54427" lon="-2.87606">
        <ele>14</ele>
        <time>2026-08-29T12:52:50Z</time>
      </trkpt>
      <trkpt lat="47.54432" lon="-2.87609">
        <ele>14</ele>
        <time>2026-08-29T12:52:51Z</time>
      </trkpt>
      <trkpt lat="47.54436" lon="-2.87612">
        <ele>14</ele>
        <time>2026-08-29T12:52:52Z</time>
      </trkpt>
      <trkpt lat="47.5444" lon="-2.87615">
        <ele>14</ele>
        <time>2026-08-29T12:52:53Z</time>
      </trkpt>
      <trkpt lat="47.54445" lon="-2.87618">
        <ele>14</ele>
        <time>2026-08-29T12:52:54Z</time>
      </trkpt>
      <trkpt lat="47.54449" lon="-2.87621">
        <ele>14</ele>
        <time>2026-08-29T12:52:55Z</time>
      </trkpt>
      <trkpt lat="47.54454" lon="-2.87623">
        <ele>14</ele>
        <time>2026-08-29T12:52:56Z</time>
      </trkpt>
      <trkpt lat="47.54458" lon="-2.87626">
        <ele>14</ele>
        <time>2026-08-29T12:52:57Z</time>
      </trkpt>
      <trkpt lat="47.54463" lon="-2.87628">
        <ele>14</ele>
        <time>2026-08-29T12:52:58Z</time>
      </trkpt>
      <trkpt lat="47.54467" lon="-2.87631">
        <ele>14</ele>
        <time>2026-08-29T12:52:59Z</time>
      </trkpt>
      <trkpt lat="47.54472" lon="-2.87633">
        <ele>14</ele>
        <time>2026-08-29T12:53:00Z</time>
      </trkpt>
      <trkpt lat="47.54476" lon="-2.87635">
        <ele>14.1</ele>
        <time>2026-08-29T12:53:01Z</time>
      </trkpt>
      <trkpt lat="47.54481" lon="-2.87637">
        <ele>14.3</ele>
        <time>2026-08-29T12:53:02Z</time>
      </trkpt>
      <trkpt lat="47.54486" lon="-2.87639">
        <ele>14.5</ele>
        <time>2026-08-29T12:53:03Z</time>
      </trkpt>
      <trkpt lat="47.54491" lon="-2.87641">
        <ele>14.7</ele>
        <time>2026-08-29T12:53:04Z</time>
      </trkpt>
      <trkpt lat="47.54496" lon="-2.87643">
        <ele>14.9</ele>
        <time>2026-08-29T12:53:05Z</time>
      </trkpt>
      <trkpt lat="47.545" lon="-2.87644">
        <ele>15</ele>
        <time>2026-08-29T12:53:06Z</time>
      </trkpt>
      <trkpt lat="47.54505" lon="-2.87646">
        <ele>15</ele>
        <time>2026-08-29T12:53:07Z</time>
      </trkpt>
      <trkpt lat="47.5451" lon="-2.87648">
        <ele>15</ele>
        <time>2026-08-29T12:53:08Z</time>
      </trkpt>
      <trkpt lat="47.54514" lon="-2.87649">
        <ele>15</ele>
        <time>2026-08-29T12:53:09Z</time>
      </trkpt>
      <trkpt lat="47.54519" lon="-2.87651">
        <ele>15</ele>
        <time>2026-08-29T12:53:10Z</time>
      </trkpt>
      <trkpt lat="47.54523" lon="-2.87652">
        <ele>15</ele>
        <time>2026-08-29T12:53:11Z</time>
      </trkpt>
      <trkpt lat="47.54528" lon="-2.87654">
        <ele>15</ele>
        <time>2026-08-29T12:53:12Z</time>
      </trkpt>
      <trkpt lat="47.54532" lon="-2.87655">
        <ele>15</ele>
        <time>2026-08-29T12:53:13Z</time>
      </trkpt>
      <trkpt lat="47.54537" lon="-2.87657">
        <ele>15</ele>
        <time>2026-08-29T12:53:14Z</time>
      </trkpt>
      <trkpt lat="47.54542" lon="-2.87659">
        <ele>15</ele>
        <time>2026-08-29T12:53:15Z</time>
      </trkpt>
      <trkpt lat="47.54547" lon="-2.8766">
        <ele>15</ele>
        <time>2026-08-29T12:53:16Z</time>
      </trkpt>
      <trkpt lat="47.54551" lon="-2.87662">
        <ele>15</ele>
        <time>2026-08-29T12:53:17Z</time>
      </trkpt>
      <trkpt lat="47.54556" lon="-2.87663">
        <ele>15</ele>
        <time>2026-08-29T12:53:18Z</time>
      </trkpt>
      <trkpt lat="47.5456" lon="-2.87665">
        <ele>15</ele>
        <time>2026-08-29T12:53:19Z</time>
      </trkpt>
      <trkpt lat="47.54564" lon="-2.87666">
        <ele>15</ele>
        <time>2026-08-29T12:53:20Z</time>
      </trkpt>
      <trkpt lat="47.54568" lon="-2.87668">
        <ele>15</ele>
        <time>2026-08-29T12:53:21Z</time>
      </trkpt>
      <trkpt lat="47.54572" lon="-2.87669">
        <ele>15</ele>
        <time>2026-08-29T12:53:22Z</time>
      </trkpt>
      <trkpt lat="47.54575" lon="-2.8767">
        <ele>15</ele>
        <time>2026-08-29T12:53:23Z</time>
      </trkpt>
      <trkpt lat="47.54578" lon="-2.87671">
        <ele>15</ele>
        <time>2026-08-29T12:53:24Z</time>
      </trkpt>
      <trkpt lat="47.54582" lon="-2.87671">
        <ele>15</ele>
        <time>2026-08-29T12:53:25Z</time>
      </trkpt>
      <trkpt lat="47.54585" lon="-2.87671">
        <ele>14.9</ele>
        <time>2026-08-29T12:53:26Z</time>
      </trkpt>
      <trkpt lat="47.54588" lon="-2.87672">
        <ele>14.8</ele>
        <time>2026-08-29T12:53:27Z</time>
      </trkpt>
      <trkpt lat="47.5459" lon="-2.87673">
        <ele>14.8</ele>
        <time>2026-08-29T12:53:28Z</time>
      </trkpt>
      <trkpt lat="47.54593" lon="-2.87673">
        <ele>14.7</ele>
        <time>2026-08-29T12:53:29Z</time>
      </trkpt>
      <trkpt lat="47.54597" lon="-2.87674">
        <ele>14.5</ele>
        <time>2026-08-29T12:53:30Z</time>
      </trkpt>
      <trkpt lat="47.54601" lon="-2.87676">
        <ele>14.4</ele>
        <time>2026-08-29T12:53:31Z</time>
      </trkpt>
      <trkpt lat="47.54605" lon="-2.87677">
        <ele>14.2</ele>
        <time>2026-08-29T12:53:32Z</time>
      </trkpt>
      <trkpt lat="47.54609" lon="-2.87679">
        <ele>14.1</ele>
        <time>2026-08-29T12:53:33Z</time>
      </trkpt>
      <trkpt lat="47.54613" lon="-2.87681">
        <ele>14</ele>
        <time>2026-08-29T12:53:34Z</time>
      </trkpt>
      <trkpt lat="47.54617" lon="-2.87682">
        <ele>14</ele>
        <time>2026-08-29T12:53:35Z</time>
      </trkpt>
      <trkpt lat="47.54622" lon="-2.87684">
        <ele>14</ele>
        <time>2026-08-29T12:53:36Z</time>
      </trkpt>
      <trkpt lat="47.54627" lon="-2.87685">
        <ele>14</ele>
        <time>2026-08-29T12:53:37Z</time>
      </trkpt>
      <trkpt lat="47.54631" lon="-2.87686">
        <ele>14</ele>
        <time>2026-08-29T12:53:38Z</time>
      </trkpt>
      <trkpt lat="47.54636" lon="-2.87688">
        <ele>14</ele>
        <time>2026-08-29T12:53:39Z</time>
      </trkpt>
      <trkpt lat="47.54641" lon="-2.87689">
        <ele>14</ele>
        <time>2026-08-29T12:53:40Z</time>
      </trkpt>
      <trkpt lat="47.54646" lon="-2.87691">
        <ele>14</ele>
        <time>2026-08-29T12:53:41Z</time>
      </trkpt>
      <trkpt lat="47.54651" lon="-2.87693">
        <ele>14</ele>
        <time>2026-08-29T12:53:42Z</time>
      </trkpt>
      <trkpt lat="47.54656" lon="-2.87695">
        <ele>14</ele>
        <time>2026-08-29T12:53:43Z</time>
      </trkpt>
      <trkpt lat="47.54661" lon="-2.87697">
        <ele>14</ele>
        <time>2026-08-29T12:53:44Z</time>
      </trkpt>
      <trkpt lat="47.54666" lon="-2.877">
        <ele>14</ele>
        <time>2026-08-29T12:53:45Z</time>
      </trkpt>
      <trkpt lat="47.54671" lon="-2.87702">
        <ele>13.8</ele>
        <time>2026-08-29T12:53:46Z</time>
      </trkpt>
      <trkpt lat="47.54675" lon="-2.87705">
        <ele>13.7</ele>
        <time>2026-08-29T12:53:47Z</time>
      </trkpt>
      <trkpt lat="47.5468" lon="-2.87708">
        <ele>13.5</ele>
        <time>2026-08-29T12:53:48Z</time>
      </trkpt>
      <trkpt lat="47.54684" lon="-2.87712">
        <ele>13.4</ele>
        <time>2026-08-29T12:53:49Z</time>
      </trkpt>
      <trkpt lat="47.54687" lon="-2.87715">
        <ele>13.3</ele>
        <time>2026-08-29T12:53:50Z</time>
      </trkpt>
      <trkpt lat="47.54691" lon="-2.87718">
        <ele>13.1</ele>
        <time>2026-08-29T12:53:51Z</time>
      </trkpt>
      <trkpt lat="47.54695" lon="-2.87721">
        <ele>13</ele>
        <time>2026-08-29T12:53:52Z</time>
      </trkpt>
      <trkpt lat="47.54699" lon="-2.87724">
        <ele>13</ele>
        <time>2026-08-29T12:53:53Z</time>
      </trkpt>
      <trkpt lat="47.54703" lon="-2.87727">
        <ele>13</ele>
        <time>2026-08-29T12:53:54Z</time>
      </trkpt>
      <trkpt lat="47.54707" lon="-2.8773">
        <ele>13</ele>
        <time>2026-08-29T12:53:55Z</time>
      </trkpt>
      <trkpt lat="47.54711" lon="-2.87733">
        <ele>13</ele>
        <time>2026-08-29T12:53:56Z</time>
      </trkpt>
      <trkpt lat="47.54715" lon="-2.87736">
        <ele>13</ele>
        <time>2026-08-29T12:53:57Z</time>
      </trkpt>
      <trkpt lat="47.54719" lon="-2.8774">
        <ele>13</ele>
        <time>2026-08-29T12:53:58Z</time>
      </trkpt>
      <trkpt lat="47.54723" lon="-2.87744">
        <ele>13</ele>
        <time>2026-08-29T12:53:59Z</time>
      </trkpt>
      <trkpt lat="47.54727" lon="-2.87747">
        <ele>12.8</ele>
        <time>2026-08-29T12:54:00Z</time>
      </trkpt>
      <trkpt lat="47.54731" lon="-2.87752">
        <ele>12.6</ele>
        <time>2026-08-29T12:54:01Z</time>
      </trkpt>
      <trkpt lat="47.54736" lon="-2.87757">
        <ele>12.4</ele>
        <time>2026-08-29T12:54:02Z</time>
      </trkpt>
      <trkpt lat="47.5474" lon="-2.87761">
        <ele>12.2</ele>
        <time>2026-08-29T12:54:03Z</time>
      </trkpt>
      <trkpt lat="47.54744" lon="-2.87766">
        <ele>12.1</ele>
        <time>2026-08-29T12:54:04Z</time>
      </trkpt>
      <trkpt lat="47.54749" lon="-2.87772">
        <ele>12</ele>
        <time>2026-08-29T12:54:05Z</time>
      </trkpt>
      <trkpt lat="47.54753" lon="-2.87777">
        <ele>12</ele>
        <time>2026-08-29T12:54:06Z</time>
      </trkpt>
      <trkpt lat="47.54756" lon="-2.87781">
        <ele>12</ele>
        <time>2026-08-29T12:54:07Z</time>
      </trkpt>
      <trkpt lat="47.5476" lon="-2.87786">
        <ele>12</ele>
        <time>2026-08-29T12:54:08Z</time>
      </trkpt>
      <trkpt lat="47.54763" lon="-2.87791">
        <ele>12</ele>
        <time>2026-08-29T12:54:09Z</time>
      </trkpt>
      <trkpt lat="47.54766" lon="-2.87796">
        <ele>12</ele>
        <time>2026-08-29T12:54:10Z</time>
      </trkpt>
      <trkpt lat="47.54769" lon="-2.878">
        <ele>12</ele>
        <time>2026-08-29T12:54:11Z</time>
      </trkpt>
      <trkpt lat="47.54772" lon="-2.87803">
        <ele>12</ele>
        <time>2026-08-29T12:54:12Z</time>
      </trkpt>
      <trkpt lat="47.54774" lon="-2.87805">
        <ele>12</ele>
        <time>2026-08-29T12:54:13Z</time>
      </trkpt>
      <trkpt lat="47.54776" lon="-2.87807">
        <ele>12</ele>
        <time>2026-08-29T12:54:14Z</time>
      </trkpt>
      <trkpt lat="47.54776" lon="-2.87808">
        <ele>12</ele>
        <time>2026-08-29T12:54:15Z</time>
      </trkpt>
      <trkpt lat="47.54777" lon="-2.87808">
        <ele>12</ele>
        <time>2026-08-29T12:54:16Z</time>
      </trkpt>
      <trkpt lat="47.54777" lon="-2.87808">
        <ele>12</ele>
        <time>2026-08-29T12:54:17Z</time>
      </trkpt>
      <trkpt lat="47.54777" lon="-2.87808">
        <ele>12</ele>
        <time>2026-08-29T12:54:18Z</time>
      </trkpt>
      <trkpt lat="47.5478" lon="-2.87814">
        <ele>12.1</ele>
        <time>2026-08-29T12:55:26Z</time>
      </trkpt>
      <trkpt lat="47.54781" lon="-2.87816">
        <ele>12.1</ele>
        <time>2026-08-29T12:55:27Z</time>
      </trkpt>
      <trkpt lat="47.54782" lon="-2.87818">
        <ele>12.1</ele>
        <time>2026-08-29T12:55:28Z</time>
      </trkpt>
      <trkpt lat="47.54782" lon="-2.87821">
        <ele>12.1</ele>
        <time>2026-08-29T12:55:29Z</time>
      </trkpt>
      <trkpt lat="47.54784" lon="-2.87822">
        <ele>12.1</ele>
        <time>2026-08-29T12:55:30Z</time>
      </trkpt>
      <trkpt lat="47.54785" lon="-2.87825">
        <ele>12.1</ele>
        <time>2026-08-29T12:55:31Z</time>
      </trkpt>
      <trkpt lat="47.54787" lon="-2.87828">
        <ele>12.1</ele>
        <time>2026-08-29T12:55:32Z</time>
      </trkpt>
      <trkpt lat="47.54789" lon="-2.87833">
        <ele>12</ele>
        <time>2026-08-29T12:55:33Z</time>
      </trkpt>
      <trkpt lat="47.54791" lon="-2.87837">
        <ele>12</ele>
        <time>2026-08-29T12:55:34Z</time>
      </trkpt>
      <trkpt lat="47.54794" lon="-2.87841">
        <ele>12</ele>
        <time>2026-08-29T12:55:35Z</time>
      </trkpt>
      <trkpt lat="47.54797" lon="-2.87846">
        <ele>12</ele>
        <time>2026-08-29T12:55:36Z</time>
      </trkpt>
      <trkpt lat="47.54799" lon="-2.8785">
        <ele>12</ele>
        <time>2026-08-29T12:55:37Z</time>
      </trkpt>
      <trkpt lat="47.54802" lon="-2.87855">
        <ele>12</ele>
        <time>2026-08-29T12:55:38Z</time>
      </trkpt>
      <trkpt lat="47.54804" lon="-2.87859">
        <ele>12</ele>
        <time>2026-08-29T12:55:39Z</time>
      </trkpt>
      <trkpt lat="47.54805" lon="-2.87864">
        <ele>12</ele>
        <time>2026-08-29T12:55:40Z</time>
      </trkpt>
      <trkpt lat="47.54806" lon="-2.87868">
        <ele>12</ele>
        <time>2026-08-29T12:55:41Z</time>
      </trkpt>
      <trkpt lat="47.54808" lon="-2.87872">
        <ele>12.1</ele>
        <time>2026-08-29T12:55:42Z</time>
      </trkpt>
      <trkpt lat="47.54809" lon="-2.87876">
        <ele>12.1</ele>
        <time>2026-08-29T12:55:43Z</time>
      </trkpt>
      <trkpt lat="47.5481" lon="-2.8788">
        <ele>12.2</ele>
        <time>2026-08-29T12:55:44Z</time>
      </trkpt>
      <trkpt lat="47.54812" lon="-2.87884">
        <ele>12.2</ele>
        <time>2026-08-29T12:55:45Z</time>
      </trkpt>
      <trkpt lat="47.54813" lon="-2.87889">
        <ele>12.3</ele>
        <time>2026-08-29T12:55:46Z</time>
      </trkpt>
      <trkpt lat="47.54815" lon="-2.87893">
        <ele>12.3</ele>
        <time>2026-08-29T12:55:47Z</time>
      </trkpt>
      <trkpt lat="47.54817" lon="-2.87898">
        <ele>12.3</ele>
        <time>2026-08-29T12:55:48Z</time>
      </trkpt>
      <trkpt lat="47.54818" lon="-2.87903">
        <ele>12.2</ele>
        <time>2026-08-29T12:55:49Z</time>
      </trkpt>
      <trkpt lat="47.5482" lon="-2.87907">
        <ele>12.2</ele>
        <time>2026-08-29T12:55:50Z</time>
      </trkpt>
      <trkpt lat="47.54821" lon="-2.87911">
        <ele>12.1</ele>
        <time>2026-08-29T12:55:51Z</time>
      </trkpt>
      <trkpt lat="47.54822" lon="-2.87916">
        <ele>12</ele>
        <time>2026-08-29T12:55:52Z</time>
      </trkpt>
      <trkpt lat="47.54823" lon="-2.8792">
        <ele>12</ele>
        <time>2026-08-29T12:55:53Z</time>
      </trkpt>
      <trkpt lat="47.54825" lon="-2.87925">
        <ele>12</ele>
        <time>2026-08-29T12:55:54Z</time>
      </trkpt>
      <trkpt lat="47.54826" lon="-2.8793">
        <ele>12</ele>
        <time>2026-08-29T12:55:55Z</time>
      </trkpt>
      <trkpt lat="47.54827" lon="-2.87936">
        <ele>12</ele>
        <time>2026-08-29T12:55:56Z</time>
      </trkpt>
      <trkpt lat="47.54828" lon="-2.87942">
        <ele>12</ele>
        <time>2026-08-29T12:55:57Z</time>
      </trkpt>
      <trkpt lat="47.5483" lon="-2.87948">
        <ele>12</ele>
        <time>2026-08-29T12:55:58Z</time>
      </trkpt>
      <trkpt lat="47.54831" lon="-2.87954">
        <ele>12</ele>
        <time>2026-08-29T12:55:59Z</time>
      </trkpt>
      <trkpt lat="47.54832" lon="-2.8796">
        <ele>12</ele>
        <time>2026-08-29T12:56:00Z</time>
      </trkpt>
      <trkpt lat="47.54833" lon="-2.87965">
        <ele>12</ele>
        <time>2026-08-29T12:56:01Z</time>
      </trkpt>
      <trkpt lat="47.54835" lon="-2.87971">
        <ele>12.1</ele>
        <time>2026-08-29T12:56:02Z</time>
      </trkpt>
      <trkpt lat="47.54837" lon="-2.87976">
        <ele>12.1</ele>
        <time>2026-08-29T12:56:03Z</time>
      </trkpt>
      <trkpt lat="47.54838" lon="-2.87981">
        <ele>12.2</ele>
        <time>2026-08-29T12:56:04Z</time>
      </trkpt>
      <trkpt lat="47.54839" lon="-2.87987">
        <ele>12.2</ele>
        <time>2026-08-29T12:56:05Z</time>
      </trkpt>
      <trkpt lat="47.5484" lon="-2.87993">
        <ele>12.2</ele>
        <time>2026-08-29T12:56:06Z</time>
      </trkpt>
      <trkpt lat="47.54842" lon="-2.87999">
        <ele>12.3</ele>
        <time>2026-08-29T12:56:07Z</time>
      </trkpt>
      <trkpt lat="47.54844" lon="-2.88006">
        <ele>12.2</ele>
        <time>2026-08-29T12:56:08Z</time>
      </trkpt>
      <trkpt lat="47.54845" lon="-2.88012">
        <ele>12</ele>
        <time>2026-08-29T12:56:09Z</time>
      </trkpt>
      <trkpt lat="47.54847" lon="-2.88018">
        <ele>11.8</ele>
        <time>2026-08-29T12:56:10Z</time>
      </trkpt>
      <trkpt lat="47.54848" lon="-2.88024">
        <ele>11.7</ele>
        <time>2026-08-29T12:56:11Z</time>
      </trkpt>
      <trkpt lat="47.54849" lon="-2.8803">
        <ele>11.6</ele>
        <time>2026-08-29T12:56:12Z</time>
      </trkpt>
      <trkpt lat="47.5485" lon="-2.88037">
        <ele>11.6</ele>
        <time>2026-08-29T12:56:13Z</time>
      </trkpt>
      <trkpt lat="47.54852" lon="-2.88043">
        <ele>11.7</ele>
        <time>2026-08-29T12:56:14Z</time>
      </trkpt>
      <trkpt lat="47.54853" lon="-2.88049">
        <ele>11.7</ele>
        <time>2026-08-29T12:56:15Z</time>
      </trkpt>
      <trkpt lat="47.54854" lon="-2.88055">
        <ele>11.7</ele>
        <time>2026-08-29T12:56:16Z</time>
      </trkpt>
      <trkpt lat="47.54855" lon="-2.88061">
        <ele>11.8</ele>
        <time>2026-08-29T12:56:17Z</time>
      </trkpt>
      <trkpt lat="47.54856" lon="-2.88066">
        <ele>11.8</ele>
        <time>2026-08-29T12:56:18Z</time>
      </trkpt>
      <trkpt lat="47.54857" lon="-2.88072">
        <ele>11.9</ele>
        <time>2026-08-29T12:56:19Z</time>
      </trkpt>
      <trkpt lat="47.54858" lon="-2.88078">
        <ele>11.9</ele>
        <time>2026-08-29T12:56:20Z</time>
      </trkpt>
      <trkpt lat="47.54859" lon="-2.88083">
        <ele>11.9</ele>
        <time>2026-08-29T12:56:21Z</time>
      </trkpt>
      <trkpt lat="47.5486" lon="-2.88089">
        <ele>12</ele>
        <time>2026-08-29T12:56:22Z</time>
      </trkpt>
      <trkpt lat="47.54861" lon="-2.88095">
        <ele>12</ele>
        <time>2026-08-29T12:56:23Z</time>
      </trkpt>
      <trkpt lat="47.54862" lon="-2.88101">
        <ele>12</ele>
        <time>2026-08-29T12:56:24Z</time>
      </trkpt>
      <trkpt lat="47.54863" lon="-2.88106">
        <ele>12.1</ele>
        <time>2026-08-29T12:56:25Z</time>
      </trkpt>
      <trkpt lat="47.54864" lon="-2.88112">
        <ele>12.1</ele>
        <time>2026-08-29T12:56:26Z</time>
      </trkpt>
      <trkpt lat="47.54865" lon="-2.88117">
        <ele>12.4</ele>
        <time>2026-08-29T12:56:27Z</time>
      </trkpt>
      <trkpt lat="47.54867" lon="-2.88122">
        <ele>12.6</ele>
        <time>2026-08-29T12:56:28Z</time>
      </trkpt>
      <trkpt lat="47.54868" lon="-2.88127">
        <ele>12.8</ele>
        <time>2026-08-29T12:56:29Z</time>
      </trkpt>
      <trkpt lat="47.54869" lon="-2.88133">
        <ele>13.1</ele>
        <time>2026-08-29T12:56:30Z</time>
      </trkpt>
      <trkpt lat="47.54869" lon="-2.88138">
        <ele>13.3</ele>
        <time>2026-08-29T12:56:31Z</time>
      </trkpt>
      <trkpt lat="47.54871" lon="-2.88144">
        <ele>13.4</ele>
        <time>2026-08-29T12:56:32Z</time>
      </trkpt>
      <trkpt lat="47.54872" lon="-2.8815">
        <ele>13.4</ele>
        <time>2026-08-29T12:56:33Z</time>
      </trkpt>
      <trkpt lat="47.54873" lon="-2.88155">
        <ele>13.4</ele>
        <time>2026-08-29T12:56:34Z</time>
      </trkpt>
      <trkpt lat="47.54874" lon="-2.88161">
        <ele>13.5</ele>
        <time>2026-08-29T12:56:35Z</time>
      </trkpt>
      <trkpt lat="47.54876" lon="-2.88166">
        <ele>13.5</ele>
        <time>2026-08-29T12:56:36Z</time>
      </trkpt>
      <trkpt lat="47.54877" lon="-2.88172">
        <ele>13.6</ele>
        <time>2026-08-29T12:56:37Z</time>
      </trkpt>
      <trkpt lat="47.54878" lon="-2.88177">
        <ele>13.6</ele>
        <time>2026-08-29T12:56:38Z</time>
      </trkpt>
      <trkpt lat="47.54879" lon="-2.88183">
        <ele>13.6</ele>
        <time>2026-08-29T12:56:39Z</time>
      </trkpt>
      <trkpt lat="47.54881" lon="-2.88189">
        <ele>13.7</ele>
        <time>2026-08-29T12:56:40Z</time>
      </trkpt>
      <trkpt lat="47.54882" lon="-2.88195">
        <ele>13.7</ele>
        <time>2026-08-29T12:56:41Z</time>
      </trkpt>
      <trkpt lat="47.54883" lon="-2.882">
        <ele>13.7</ele>
        <time>2026-08-29T12:56:42Z</time>
      </trkpt>
      <trkpt lat="47.54884" lon="-2.88206">
        <ele>13.8</ele>
        <time>2026-08-29T12:56:43Z</time>
      </trkpt>
      <trkpt lat="47.54885" lon="-2.88212">
        <ele>13.8</ele>
        <time>2026-08-29T12:56:44Z</time>
      </trkpt>
      <trkpt lat="47.54886" lon="-2.88218">
        <ele>13.8</ele>
        <time>2026-08-29T12:56:45Z</time>
      </trkpt>
      <trkpt lat="47.54887" lon="-2.88224">
        <ele>13.8</ele>
        <time>2026-08-29T12:56:46Z</time>
      </trkpt>
      <trkpt lat="47.54888" lon="-2.8823">
        <ele>13.7</ele>
        <time>2026-08-29T12:56:47Z</time>
      </trkpt>
      <trkpt lat="47.5489" lon="-2.88236">
        <ele>13.6</ele>
        <time>2026-08-29T12:56:48Z</time>
      </trkpt>
      <trkpt lat="47.54891" lon="-2.88241">
        <ele>13.5</ele>
        <time>2026-08-29T12:56:49Z</time>
      </trkpt>
      <trkpt lat="47.54892" lon="-2.88247">
        <ele>13.3</ele>
        <time>2026-08-29T12:56:50Z</time>
      </trkpt>
      <trkpt lat="47.54893" lon="-2.88253">
        <ele>13.3</ele>
        <time>2026-08-29T12:56:51Z</time>
      </trkpt>
      <trkpt lat="47.54894" lon="-2.88258">
        <ele>13.3</ele>
        <time>2026-08-29T12:56:52Z</time>
      </trkpt>
      <trkpt lat="47.54896" lon="-2.88264">
        <ele>13.4</ele>
        <time>2026-08-29T12:56:53Z</time>
      </trkpt>
      <trkpt lat="47.54897" lon="-2.8827">
        <ele>13.4</ele>
        <time>2026-08-29T12:56:54Z</time>
      </trkpt>
      <trkpt lat="47.54898" lon="-2.88275">
        <ele>13.4</ele>
        <time>2026-08-29T12:56:55Z</time>
      </trkpt>
      <trkpt lat="47.54899" lon="-2.88281">
        <ele>13.2</ele>
        <time>2026-08-29T12:56:56Z</time>
      </trkpt>
      <trkpt lat="47.549" lon="-2.88287">
        <ele>13.1</ele>
        <time>2026-08-29T12:56:57Z</time>
      </trkpt>
      <trkpt lat="47.54902" lon="-2.88293">
        <ele>12.9</ele>
        <time>2026-08-29T12:56:58Z</time>
      </trkpt>
      <trkpt lat="47.54903" lon="-2.88299">
        <ele>12.7</ele>
        <time>2026-08-29T12:56:59Z</time>
      </trkpt>
      <trkpt lat="47.54905" lon="-2.88305">
        <ele>12.6</ele>
        <time>2026-08-29T12:57:00Z</time>
      </trkpt>
      <trkpt lat="47.54906" lon="-2.88311">
        <ele>12.4</ele>
        <time>2026-08-29T12:57:01Z</time>
      </trkpt>
      <trkpt lat="47.54907" lon="-2.88317">
        <ele>12.2</ele>
        <time>2026-08-29T12:57:02Z</time>
      </trkpt>
      <trkpt lat="47.54908" lon="-2.88324">
        <ele>12</ele>
        <time>2026-08-29T12:57:03Z</time>
      </trkpt>
      <trkpt lat="47.54909" lon="-2.88331">
        <ele>11.8</ele>
        <time>2026-08-29T12:57:04Z</time>
      </trkpt>
      <trkpt lat="47.54911" lon="-2.88337">
        <ele>11.8</ele>
        <time>2026-08-29T12:57:05Z</time>
      </trkpt>
      <trkpt lat="47.54912" lon="-2.88344">
        <ele>11.8</ele>
        <time>2026-08-29T12:57:06Z</time>
      </trkpt>
      <trkpt lat="47.54914" lon="-2.88351">
        <ele>11.9</ele>
        <time>2026-08-29T12:57:07Z</time>
      </trkpt>
      <trkpt lat="47.54915" lon="-2.88359">
        <ele>11.9</ele>
        <time>2026-08-29T12:57:08Z</time>
      </trkpt>
      <trkpt lat="47.54917" lon="-2.88365">
        <ele>11.9</ele>
        <time>2026-08-29T12:57:09Z</time>
      </trkpt>
      <trkpt lat="47.54919" lon="-2.88373">
        <ele>11.6</ele>
        <time>2026-08-29T12:57:10Z</time>
      </trkpt>
      <trkpt lat="47.5492" lon="-2.88379">
        <ele>11.4</ele>
        <time>2026-08-29T12:57:11Z</time>
      </trkpt>
      <trkpt lat="47.54921" lon="-2.88386">
        <ele>11.2</ele>
        <time>2026-08-29T12:57:12Z</time>
      </trkpt>
      <trkpt lat="47.54922" lon="-2.88393">
        <ele>11.2</ele>
        <time>2026-08-29T12:57:13Z</time>
      </trkpt>
      <trkpt lat="47.54924" lon="-2.884">
        <ele>11.2</ele>
        <time>2026-08-29T12:57:14Z</time>
      </trkpt>
      <trkpt lat="47.54926" lon="-2.88407">
        <ele>11.1</ele>
        <time>2026-08-29T12:57:15Z</time>
      </trkpt>
      <trkpt lat="47.54928" lon="-2.88414">
        <ele>11</ele>
        <time>2026-08-29T12:57:16Z</time>
      </trkpt>
      <trkpt lat="47.5493" lon="-2.8842">
        <ele>11</ele>
        <time>2026-08-29T12:57:17Z</time>
      </trkpt>
      <trkpt lat="47.54932" lon="-2.88426">
        <ele>11</ele>
        <time>2026-08-29T12:57:18Z</time>
      </trkpt>
      <trkpt lat="47.54934" lon="-2.88432">
        <ele>11</ele>
        <time>2026-08-29T12:57:19Z</time>
      </trkpt>
      <trkpt lat="47.54935" lon="-2.88439">
        <ele>11</ele>
        <time>2026-08-29T12:57:20Z</time>
      </trkpt>
      <trkpt lat="47.54936" lon="-2.88445">
        <ele>11</ele>
        <time>2026-08-29T12:57:21Z</time>
      </trkpt>
      <trkpt lat="47.54938" lon="-2.8845">
        <ele>11</ele>
        <time>2026-08-29T12:57:22Z</time>
      </trkpt>
      <trkpt lat="47.54939" lon="-2.88456">
        <ele>11</ele>
        <time>2026-08-29T12:57:23Z</time>
      </trkpt>
      <trkpt lat="47.5494" lon="-2.88462">
        <ele>11</ele>
        <time>2026-08-29T12:57:24Z</time>
      </trkpt>
      <trkpt lat="47.54941" lon="-2.88468">
        <ele>11</ele>
        <time>2026-08-29T12:57:25Z</time>
      </trkpt>
      <trkpt lat="47.54942" lon="-2.88474">
        <ele>11.1</ele>
        <time>2026-08-29T12:57:26Z</time>
      </trkpt>
      <trkpt lat="47.54943" lon="-2.8848">
        <ele>11.3</ele>
        <time>2026-08-29T12:57:27Z</time>
      </trkpt>
      <trkpt lat="47.54944" lon="-2.88486">
        <ele>11.5</ele>
        <time>2026-08-29T12:57:28Z</time>
      </trkpt>
      <trkpt lat="47.54945" lon="-2.88492">
        <ele>11.7</ele>
        <time>2026-08-29T12:57:29Z</time>
      </trkpt>
      <trkpt lat="47.54946" lon="-2.88498">
        <ele>11.9</ele>
        <time>2026-08-29T12:57:30Z</time>
      </trkpt>
      <trkpt lat="47.54948" lon="-2.88504">
        <ele>12</ele>
        <time>2026-08-29T12:57:31Z</time>
      </trkpt>
      <trkpt lat="47.54948" lon="-2.88509">
        <ele>12</ele>
        <time>2026-08-29T12:57:32Z</time>
      </trkpt>
      <trkpt lat="47.54949" lon="-2.88515">
        <ele>12</ele>
        <time>2026-08-29T12:57:33Z</time>
      </trkpt>
      <trkpt lat="47.5495" lon="-2.88521">
        <ele>12</ele>
        <time>2026-08-29T12:57:34Z</time>
      </trkpt>
      <trkpt lat="47.54951" lon="-2.88527">
        <ele>12</ele>
        <time>2026-08-29T12:57:35Z</time>
      </trkpt>
      <trkpt lat="47.54952" lon="-2.88532">
        <ele>12</ele>
        <time>2026-08-29T12:57:36Z</time>
      </trkpt>
      <trkpt lat="47.54953" lon="-2.88537">
        <ele>12.1</ele>
        <time>2026-08-29T12:57:37Z</time>
      </trkpt>
      <trkpt lat="47.54954" lon="-2.88542">
        <ele>12.2</ele>
        <time>2026-08-29T12:57:38Z</time>
      </trkpt>
      <trkpt lat="47.54955" lon="-2.88547">
        <ele>12.3</ele>
        <time>2026-08-29T12:57:39Z</time>
      </trkpt>
      <trkpt lat="47.54956" lon="-2.88552">
        <ele>12.4</ele>
        <time>2026-08-29T12:57:40Z</time>
      </trkpt>
      <trkpt lat="47.54957" lon="-2.88557">
        <ele>12.5</ele>
        <time>2026-08-29T12:57:41Z</time>
      </trkpt>
      <trkpt lat="47.54958" lon="-2.88562">
        <ele>12.7</ele>
        <time>2026-08-29T12:57:42Z</time>
      </trkpt>
      <trkpt lat="47.54959" lon="-2.88567">
        <ele>12.9</ele>
        <time>2026-08-29T12:57:43Z</time>
      </trkpt>
      <trkpt lat="47.5496" lon="-2.88572">
        <ele>13.2</ele>
        <time>2026-08-29T12:57:44Z</time>
      </trkpt>
      <trkpt lat="47.54961" lon="-2.88576">
        <ele>13.3</ele>
        <time>2026-08-29T12:57:45Z</time>
      </trkpt>
      <trkpt lat="47.54962" lon="-2.88581">
        <ele>13.5</ele>
        <time>2026-08-29T12:57:46Z</time>
      </trkpt>
      <trkpt lat="47.54963" lon="-2.88585">
        <ele>13.7</ele>
        <time>2026-08-29T12:57:47Z</time>
      </trkpt>
      <trkpt lat="47.54963" lon="-2.88589">
        <ele>13.7</ele>
        <time>2026-08-29T12:57:48Z</time>
      </trkpt>
      <trkpt lat="47.54964" lon="-2.88591">
        <ele>13.7</ele>
        <time>2026-08-29T12:57:49Z</time>
      </trkpt>
      <trkpt lat="47.54966" lon="-2.88593">
        <ele>13.8</ele>
        <time>2026-08-29T12:57:50Z</time>
      </trkpt>
      <trkpt lat="47.54967" lon="-2.88595">
        <ele>13.8</ele>
        <time>2026-08-29T12:57:51Z</time>
      </trkpt>
      <trkpt lat="47.54968" lon="-2.88596">
        <ele>13.8</ele>
        <time>2026-08-29T12:57:52Z</time>
      </trkpt>
      <trkpt lat="47.54969" lon="-2.88599">
        <ele>13.9</ele>
        <time>2026-08-29T12:57:53Z</time>
      </trkpt>
      <trkpt lat="47.54969" lon="-2.88601">
        <ele>13.9</ele>
        <time>2026-08-29T12:57:54Z</time>
      </trkpt>
      <trkpt lat="47.54969" lon="-2.88605">
        <ele>13.9</ele>
        <time>2026-08-29T12:57:55Z</time>
      </trkpt>
      <trkpt lat="47.54969" lon="-2.88609">
        <ele>13.9</ele>
        <time>2026-08-29T12:57:56Z</time>
      </trkpt>
      <trkpt lat="47.5497" lon="-2.88613">
        <ele>13.9</ele>
        <time>2026-08-29T12:57:57Z</time>
      </trkpt>
      <trkpt lat="47.54971" lon="-2.88618">
        <ele>14</ele>
        <time>2026-08-29T12:57:58Z</time>
      </trkpt>
      <trkpt lat="47.54972" lon="-2.88623">
        <ele>14</ele>
        <time>2026-08-29T12:57:59Z</time>
      </trkpt>
      <trkpt lat="47.54973" lon="-2.88628">
        <ele>14</ele>
        <time>2026-08-29T12:58:00Z</time>
      </trkpt>
      <trkpt lat="47.54974" lon="-2.88633">
        <ele>14</ele>
        <time>2026-08-29T12:58:01Z</time>
      </trkpt>
      <trkpt lat="47.54975" lon="-2.88639">
        <ele>14</ele>
        <time>2026-08-29T12:58:02Z</time>
      </trkpt>
      <trkpt lat="47.54976" lon="-2.88644">
        <ele>13.8</ele>
        <time>2026-08-29T12:58:03Z</time>
      </trkpt>
      <trkpt lat="47.54977" lon="-2.88649">
        <ele>13.7</ele>
        <time>2026-08-29T12:58:04Z</time>
      </trkpt>
      <trkpt lat="47.54978" lon="-2.88655">
        <ele>13.5</ele>
        <time>2026-08-29T12:58:05Z</time>
      </trkpt>
      <trkpt lat="47.54979" lon="-2.8866">
        <ele>13.4</ele>
        <time>2026-08-29T12:58:06Z</time>
      </trkpt>
      <trkpt lat="47.5498" lon="-2.88665">
        <ele>13.3</ele>
        <time>2026-08-29T12:58:07Z</time>
      </trkpt>
      <trkpt lat="47.54981" lon="-2.88671">
        <ele>13.3</ele>
        <time>2026-08-29T12:58:08Z</time>
      </trkpt>
      <trkpt lat="47.54983" lon="-2.88676">
        <ele>13.4</ele>
        <time>2026-08-29T12:58:09Z</time>
      </trkpt>
      <trkpt lat="47.54984" lon="-2.88682">
        <ele>13.4</ele>
        <time>2026-08-29T12:58:10Z</time>
      </trkpt>
      <trkpt lat="47.54985" lon="-2.88688">
        <ele>13.5</ele>
        <time>2026-08-29T12:58:11Z</time>
      </trkpt>
      <trkpt lat="47.54986" lon="-2.88693">
        <ele>13.5</ele>
        <time>2026-08-29T12:58:12Z</time>
      </trkpt>
      <trkpt lat="47.54987" lon="-2.88698">
        <ele>13.5</ele>
        <time>2026-08-29T12:58:13Z</time>
      </trkpt>
      <trkpt lat="47.54988" lon="-2.88704">
        <ele>13.6</ele>
        <time>2026-08-29T12:58:14Z</time>
      </trkpt>
      <trkpt lat="47.5499" lon="-2.88709">
        <ele>13.6</ele>
        <time>2026-08-29T12:58:15Z</time>
      </trkpt>
      <trkpt lat="47.54991" lon="-2.88714">
        <ele>13.7</ele>
        <time>2026-08-29T12:58:16Z</time>
      </trkpt>
      <trkpt lat="47.54992" lon="-2.88719">
        <ele>13.7</ele>
        <time>2026-08-29T12:58:17Z</time>
      </trkpt>
      <trkpt lat="47.54993" lon="-2.88725">
        <ele>13.6</ele>
        <time>2026-08-29T12:58:18Z</time>
      </trkpt>
      <trkpt lat="47.54994" lon="-2.8873">
        <ele>13.5</ele>
        <time>2026-08-29T12:58:19Z</time>
      </trkpt>
      <trkpt lat="47.54995" lon="-2.88735">
        <ele>13.4</ele>
        <time>2026-08-29T12:58:20Z</time>
      </trkpt>
      <trkpt lat="47.54996" lon="-2.8874">
        <ele>13.2</ele>
        <time>2026-08-29T12:58:21Z</time>
      </trkpt>
      <trkpt lat="47.54997" lon="-2.88745">
        <ele>13.1</ele>
        <time>2026-08-29T12:58:22Z</time>
      </trkpt>
      <trkpt lat="47.54997" lon="-2.88749">
        <ele>12.9</ele>
        <time>2026-08-29T12:58:23Z</time>
      </trkpt>
      <trkpt lat="47.54998" lon="-2.88752">
        <ele>13</ele>
        <time>2026-08-29T12:58:24Z</time>
      </trkpt>
      <trkpt lat="47.54999" lon="-2.88756">
        <ele>13.2</ele>
        <time>2026-08-29T12:58:25Z</time>
      </trkpt>
      <trkpt lat="47.55" lon="-2.88759">
        <ele>13.3</ele>
        <time>2026-08-29T12:58:26Z</time>
      </trkpt>
      <trkpt lat="47.55" lon="-2.88763">
        <ele>13.5</ele>
        <time>2026-08-29T12:58:27Z</time>
      </trkpt>
      <trkpt lat="47.55001" lon="-2.88766">
        <ele>13.6</ele>
        <time>2026-08-29T12:58:28Z</time>
      </trkpt>
      <trkpt lat="47.55001" lon="-2.88768">
        <ele>13.7</ele>
        <time>2026-08-29T12:58:29Z</time>
      </trkpt>
      <trkpt lat="47.55001" lon="-2.8877">
        <ele>13.7</ele>
        <time>2026-08-29T12:58:30Z</time>
      </trkpt>
      <trkpt lat="47.55002" lon="-2.88772">
        <ele>13.8</ele>
        <time>2026-08-29T12:58:31Z</time>
      </trkpt>
      <trkpt lat="47.55002" lon="-2.88772">
        <ele>13.8</ele>
        <time>2026-08-29T12:58:32Z</time>
      </trkpt>
      <trkpt lat="47.55002" lon="-2.88772">
        <ele>13.8</ele>
        <time>2026-08-29T12:58:33Z</time>
      </trkpt>
      <trkpt lat="47.55003" lon="-2.8878">
        <ele>14</ele>
        <time>2026-08-29T12:58:38Z</time>
      </trkpt>
      <trkpt lat="47.55004" lon="-2.88783">
        <ele>14</ele>
        <time>2026-08-29T12:58:39Z</time>
      </trkpt>
      <trkpt lat="47.55005" lon="-2.88787">
        <ele>14.1</ele>
        <time>2026-08-29T12:58:40Z</time>
      </trkpt>
      <trkpt lat="47.55005" lon="-2.88791">
        <ele>14.1</ele>
        <time>2026-08-29T12:58:41Z</time>
      </trkpt>
      <trkpt lat="47.55006" lon="-2.88796">
        <ele>14.1</ele>
        <time>2026-08-29T12:58:42Z</time>
      </trkpt>
      <trkpt lat="47.55007" lon="-2.88801">
        <ele>14.2</ele>
        <time>2026-08-29T12:58:43Z</time>
      </trkpt>
      <trkpt lat="47.55008" lon="-2.88805">
        <ele>14.3</ele>
        <time>2026-08-29T12:58:44Z</time>
      </trkpt>
      <trkpt lat="47.55009" lon="-2.88811">
        <ele>14.3</ele>
        <time>2026-08-29T12:58:45Z</time>
      </trkpt>
      <trkpt lat="47.5501" lon="-2.88816">
        <ele>14.4</ele>
        <time>2026-08-29T12:58:46Z</time>
      </trkpt>
      <trkpt lat="47.55011" lon="-2.88821">
        <ele>14.4</ele>
        <time>2026-08-29T12:58:47Z</time>
      </trkpt>
      <trkpt lat="47.55012" lon="-2.88826">
        <ele>14.4</ele>
        <time>2026-08-29T12:58:48Z</time>
      </trkpt>
      <trkpt lat="47.55013" lon="-2.88831">
        <ele>14.5</ele>
        <time>2026-08-29T12:58:49Z</time>
      </trkpt>
      <trkpt lat="47.55014" lon="-2.88836">
        <ele>14.5</ele>
        <time>2026-08-29T12:58:50Z</time>
      </trkpt>
      <trkpt lat="47.55016" lon="-2.88841">
        <ele>14.6</ele>
        <time>2026-08-29T12:58:51Z</time>
      </trkpt>
      <trkpt lat="47.55017" lon="-2.88847">
        <ele>14.6</ele>
        <time>2026-08-29T12:58:52Z</time>
      </trkpt>
      <trkpt lat="47.55018" lon="-2.88852">
        <ele>14.6</ele>
        <time>2026-08-29T12:58:53Z</time>
      </trkpt>
      <trkpt lat="47.55019" lon="-2.88857">
        <ele>14.7</ele>
        <time>2026-08-29T12:58:54Z</time>
      </trkpt>
      <trkpt lat="47.5502" lon="-2.88862">
        <ele>14.7</ele>
        <time>2026-08-29T12:58:55Z</time>
      </trkpt>
      <trkpt lat="47.55021" lon="-2.88867">
        <ele>14.6</ele>
        <time>2026-08-29T12:58:56Z</time>
      </trkpt>
      <trkpt lat="47.55022" lon="-2.88872">
        <ele>14.5</ele>
        <time>2026-08-29T12:58:57Z</time>
      </trkpt>
      <trkpt lat="47.55023" lon="-2.88877">
        <ele>14.4</ele>
        <time>2026-08-29T12:58:58Z</time>
      </trkpt>
      <trkpt lat="47.55024" lon="-2.88882">
        <ele>14.2</ele>
        <time>2026-08-29T12:58:59Z</time>
      </trkpt>
      <trkpt lat="47.55025" lon="-2.88886">
        <ele>14.1</ele>
        <time>2026-08-29T12:59:00Z</time>
      </trkpt>
      <trkpt lat="47.55026" lon="-2.88891">
        <ele>14</ele>
        <time>2026-08-29T12:59:01Z</time>
      </trkpt>
      <trkpt lat="47.55027" lon="-2.88896">
        <ele>14</ele>
        <time>2026-08-29T12:59:02Z</time>
      </trkpt>
      <trkpt lat="47.55028" lon="-2.88899">
        <ele>14</ele>
        <time>2026-08-29T12:59:03Z</time>
      </trkpt>
      <trkpt lat="47.55028" lon="-2.88903">
        <ele>14</ele>
        <time>2026-08-29T12:59:04Z</time>
      </trkpt>
      <trkpt lat="47.5503" lon="-2.88906">
        <ele>14.2</ele>
        <time>2026-08-29T12:59:05Z</time>
      </trkpt>
      <trkpt lat="47.55031" lon="-2.8891">
        <ele>14.2</ele>
        <time>2026-08-29T12:59:06Z</time>
      </trkpt>
      <trkpt lat="47.55031" lon="-2.88914">
        <ele>14.2</ele>
        <time>2026-08-29T12:59:07Z</time>
      </trkpt>
      <trkpt lat="47.55032" lon="-2.88919">
        <ele>14.3</ele>
        <time>2026-08-29T12:59:08Z</time>
      </trkpt>
      <trkpt lat="47.55033" lon="-2.88924">
        <ele>14.3</ele>
        <time>2026-08-29T12:59:09Z</time>
      </trkpt>
      <trkpt lat="47.55034" lon="-2.88929">
        <ele>14.3</ele>
        <time>2026-08-29T12:59:10Z</time>
      </trkpt>
      <trkpt lat="47.55035" lon="-2.88935">
        <ele>14.3</ele>
        <time>2026-08-29T12:59:11Z</time>
      </trkpt>
      <trkpt lat="47.55036" lon="-2.8894">
        <ele>14.3</ele>
        <time>2026-08-29T12:59:12Z</time>
      </trkpt>
      <trkpt lat="47.55038" lon="-2.88945">
        <ele>14.4</ele>
        <time>2026-08-29T12:59:13Z</time>
      </trkpt>
      <trkpt lat="47.55039" lon="-2.8895">
        <ele>14.4</ele>
        <time>2026-08-29T12:59:14Z</time>
      </trkpt>
      <trkpt lat="47.55041" lon="-2.88955">
        <ele>14.5</ele>
        <time>2026-08-29T12:59:15Z</time>
      </trkpt>
      <trkpt lat="47.55042" lon="-2.8896">
        <ele>14.5</ele>
        <time>2026-08-29T12:59:16Z</time>
      </trkpt>
      <trkpt lat="47.55044" lon="-2.88966">
        <ele>14.6</ele>
        <time>2026-08-29T12:59:17Z</time>
      </trkpt>
      <trkpt lat="47.55045" lon="-2.88971">
        <ele>14.6</ele>
        <time>2026-08-29T12:59:18Z</time>
      </trkpt>
      <trkpt lat="47.55046" lon="-2.88976">
        <ele>14.7</ele>
        <time>2026-08-29T12:59:19Z</time>
      </trkpt>
      <trkpt lat="47.55047" lon="-2.88982">
        <ele>14.7</ele>
        <time>2026-08-29T12:59:20Z</time>
      </trkpt>
      <trkpt lat="47.55048" lon="-2.88987">
        <ele>14.7</ele>
        <time>2026-08-29T12:59:21Z</time>
      </trkpt>
      <trkpt lat="47.55049" lon="-2.88993">
        <ele>14.8</ele>
        <time>2026-08-29T12:59:22Z</time>
      </trkpt>
      <trkpt lat="47.5505" lon="-2.88998">
        <ele>14.8</ele>
        <time>2026-08-29T12:59:23Z</time>
      </trkpt>
      <trkpt lat="47.55051" lon="-2.89003">
        <ele>14.8</ele>
        <time>2026-08-29T12:59:24Z</time>
      </trkpt>
      <trkpt lat="47.55052" lon="-2.89008">
        <ele>14.9</ele>
        <time>2026-08-29T12:59:25Z</time>
      </trkpt>
      <trkpt lat="47.55054" lon="-2.89014">
        <ele>14.9</ele>
        <time>2026-08-29T12:59:26Z</time>
      </trkpt>
      <trkpt lat="47.55055" lon="-2.89019">
        <ele>15</ele>
        <time>2026-08-29T12:59:27Z</time>
      </trkpt>
      <trkpt lat="47.55056" lon="-2.89024">
        <ele>15</ele>
        <time>2026-08-29T12:59:28Z</time>
      </trkpt>
      <trkpt lat="47.55057" lon="-2.89029">
        <ele>15.1</ele>
        <time>2026-08-29T12:59:29Z</time>
      </trkpt>
      <trkpt lat="47.55058" lon="-2.89035">
        <ele>15.1</ele>
        <time>2026-08-29T12:59:30Z</time>
      </trkpt>
      <trkpt lat="47.5506" lon="-2.8904">
        <ele>15.2</ele>
        <time>2026-08-29T12:59:31Z</time>
      </trkpt>
      <trkpt lat="47.55061" lon="-2.89045">
        <ele>15.2</ele>
        <time>2026-08-29T12:59:32Z</time>
      </trkpt>
      <trkpt lat="47.55062" lon="-2.8905">
        <ele>15.2</ele>
        <time>2026-08-29T12:59:33Z</time>
      </trkpt>
      <trkpt lat="47.55064" lon="-2.89055">
        <ele>15.3</ele>
        <time>2026-08-29T12:59:34Z</time>
      </trkpt>
      <trkpt lat="47.55065" lon="-2.8906">
        <ele>15.3</ele>
        <time>2026-08-29T12:59:35Z</time>
      </trkpt>
      <trkpt lat="47.55067" lon="-2.89065">
        <ele>15.4</ele>
        <time>2026-08-29T12:59:36Z</time>
      </trkpt>
      <trkpt lat="47.55068" lon="-2.8907">
        <ele>15.4</ele>
        <time>2026-08-29T12:59:37Z</time>
      </trkpt>
      <trkpt lat="47.5507" lon="-2.89075">
        <ele>15.5</ele>
        <time>2026-08-29T12:59:38Z</time>
      </trkpt>
      <trkpt lat="47.55071" lon="-2.8908">
        <ele>15.6</ele>
        <time>2026-08-29T12:59:39Z</time>
      </trkpt>
      <trkpt lat="47.55073" lon="-2.89085">
        <ele>15.6</ele>
        <time>2026-08-29T12:59:40Z</time>
      </trkpt>
      <trkpt lat="47.55075" lon="-2.8909">
        <ele>15.7</ele>
        <time>2026-08-29T12:59:41Z</time>
      </trkpt>
      <trkpt lat="47.55076" lon="-2.89095">
        <ele>15.7</ele>
        <time>2026-08-29T12:59:42Z</time>
      </trkpt>
      <trkpt lat="47.55078" lon="-2.891">
        <ele>15.8</ele>
        <time>2026-08-29T12:59:43Z</time>
      </trkpt>
      <trkpt lat="47.5508" lon="-2.89105">
        <ele>15.9</ele>
        <time>2026-08-29T12:59:44Z</time>
      </trkpt>
      <trkpt lat="47.55082" lon="-2.8911">
        <ele>16</ele>
        <time>2026-08-29T12:59:45Z</time>
      </trkpt>
      <trkpt lat="47.55084" lon="-2.89115">
        <ele>16</ele>
        <time>2026-08-29T12:59:46Z</time>
      </trkpt>
      <trkpt lat="47.55086" lon="-2.8912">
        <ele>16</ele>
        <time>2026-08-29T12:59:47Z</time>
      </trkpt>
      <trkpt lat="47.55088" lon="-2.89125">
        <ele>16</ele>
        <time>2026-08-29T12:59:48Z</time>
      </trkpt>
      <trkpt lat="47.5509" lon="-2.89129">
        <ele>16</ele>
        <time>2026-08-29T12:59:49Z</time>
      </trkpt>
      <trkpt lat="47.55092" lon="-2.89134">
        <ele>16</ele>
        <time>2026-08-29T12:59:50Z</time>
      </trkpt>
      <trkpt lat="47.55094" lon="-2.89138">
        <ele>16</ele>
        <time>2026-08-29T12:59:51Z</time>
      </trkpt>
      <trkpt lat="47.55097" lon="-2.89143">
        <ele>15.9</ele>
        <time>2026-08-29T12:59:52Z</time>
      </trkpt>
      <trkpt lat="47.55099" lon="-2.89147">
        <ele>15.9</ele>
        <time>2026-08-29T12:59:53Z</time>
      </trkpt>
      <trkpt lat="47.55102" lon="-2.8915">
        <ele>15.9</ele>
        <time>2026-08-29T12:59:54Z</time>
      </trkpt>
      <trkpt lat="47.55104" lon="-2.89154">
        <ele>15.9</ele>
        <time>2026-08-29T12:59:55Z</time>
      </trkpt>
      <trkpt lat="47.55107" lon="-2.89158">
        <ele>15.9</ele>
        <time>2026-08-29T12:59:56Z</time>
      </trkpt>
      <trkpt lat="47.55109" lon="-2.89162">
        <ele>15.9</ele>
        <time>2026-08-29T12:59:57Z</time>
      </trkpt>
      <trkpt lat="47.55112" lon="-2.89166">
        <ele>16</ele>
        <time>2026-08-29T12:59:58Z</time>
      </trkpt>
      <trkpt lat="47.55115" lon="-2.8917">
        <ele>16</ele>
        <time>2026-08-29T12:59:59Z</time>
      </trkpt>
      <trkpt lat="47.55117" lon="-2.89174">
        <ele>16</ele>
        <time>2026-08-29T13:00:00Z</time>
      </trkpt>
      <trkpt lat="47.5512" lon="-2.89179">
        <ele>16</ele>
        <time>2026-08-29T13:00:01Z</time>
      </trkpt>
      <trkpt lat="47.55123" lon="-2.89183">
        <ele>16</ele>
        <time>2026-08-29T13:00:02Z</time>
      </trkpt>
      <trkpt lat="47.55126" lon="-2.89187">
        <ele>16</ele>
        <time>2026-08-29T13:00:03Z</time>
      </trkpt>
      <trkpt lat="47.55129" lon="-2.89192">
        <ele>16</ele>
        <time>2026-08-29T13:00:04Z</time>
      </trkpt>
      <trkpt lat="47.55132" lon="-2.89196">
        <ele>15.9</ele>
        <time>2026-08-29T13:00:05Z</time>
      </trkpt>
      <trkpt lat="47.55135" lon="-2.89201">
        <ele>15.8</ele>
        <time>2026-08-29T13:00:06Z</time>
      </trkpt>
      <trkpt lat="47.55138" lon="-2.89206">
        <ele>15.6</ele>
        <time>2026-08-29T13:00:07Z</time>
      </trkpt>
      <trkpt lat="47.55141" lon="-2.8921">
        <ele>15.4</ele>
        <time>2026-08-29T13:00:08Z</time>
      </trkpt>
      <trkpt lat="47.55144" lon="-2.89214">
        <ele>15.3</ele>
        <time>2026-08-29T13:00:09Z</time>
      </trkpt>
      <trkpt lat="47.55147" lon="-2.89218">
        <ele>15.2</ele>
        <time>2026-08-29T13:00:10Z</time>
      </trkpt>
      <trkpt lat="47.55151" lon="-2.89222">
        <ele>15</ele>
        <time>2026-08-29T13:00:11Z</time>
      </trkpt>
      <trkpt lat="47.55154" lon="-2.89227">
        <ele>15</ele>
        <time>2026-08-29T13:00:12Z</time>
      </trkpt>
      <trkpt lat="47.55157" lon="-2.89231">
        <ele>15</ele>
        <time>2026-08-29T13:00:13Z</time>
      </trkpt>
      <trkpt lat="47.5516" lon="-2.89236">
        <ele>15</ele>
        <time>2026-08-29T13:00:14Z</time>
      </trkpt>
      <trkpt lat="47.55164" lon="-2.89241">
        <ele>15</ele>
        <time>2026-08-29T13:00:15Z</time>
      </trkpt>
      <trkpt lat="47.55167" lon="-2.89245">
        <ele>15</ele>
        <time>2026-08-29T13:00:16Z</time>
      </trkpt>
      <trkpt lat="47.5517" lon="-2.8925">
        <ele>14.9</ele>
        <time>2026-08-29T13:00:17Z</time>
      </trkpt>
      <trkpt lat="47.55174" lon="-2.89255">
        <ele>14.5</ele>
        <time>2026-08-29T13:00:18Z</time>
      </trkpt>
      <trkpt lat="47.55177" lon="-2.89261">
        <ele>14.1</ele>
        <time>2026-08-29T13:00:19Z</time>
      </trkpt>
      <trkpt lat="47.5518" lon="-2.89267">
        <ele>13.9</ele>
        <time>2026-08-29T13:00:20Z</time>
      </trkpt>
      <trkpt lat="47.55184" lon="-2.89273">
        <ele>13.8</ele>
        <time>2026-08-29T13:00:21Z</time>
      </trkpt>
      <trkpt lat="47.55187" lon="-2.89278">
        <ele>13.7</ele>
        <time>2026-08-29T13:00:22Z</time>
      </trkpt>
      <trkpt lat="47.5519" lon="-2.89284">
        <ele>13.7</ele>
        <time>2026-08-29T13:00:23Z</time>
      </trkpt>
      <trkpt lat="47.55193" lon="-2.8929">
        <ele>13.5</ele>
        <time>2026-08-29T13:00:24Z</time>
      </trkpt>
      <trkpt lat="47.55196" lon="-2.89295">
        <ele>13.4</ele>
        <time>2026-08-29T13:00:25Z</time>
      </trkpt>
      <trkpt lat="47.55199" lon="-2.89301">
        <ele>13.2</ele>
        <time>2026-08-29T13:00:26Z</time>
      </trkpt>
      <trkpt lat="47.55201" lon="-2.89307">
        <ele>13</ele>
        <time>2026-08-29T13:00:27Z</time>
      </trkpt>
      <trkpt lat="47.55204" lon="-2.89313">
        <ele>13</ele>
        <time>2026-08-29T13:00:28Z</time>
      </trkpt>
      <trkpt lat="47.55207" lon="-2.89318">
        <ele>13</ele>
        <time>2026-08-29T13:00:29Z</time>
      </trkpt>
      <trkpt lat="47.55209" lon="-2.89324">
        <ele>13</ele>
        <time>2026-08-29T13:00:30Z</time>
      </trkpt>
      <trkpt lat="47.55212" lon="-2.89329">
        <ele>13</ele>
        <time>2026-08-29T13:00:31Z</time>
      </trkpt>
      <trkpt lat="47.55214" lon="-2.89334">
        <ele>13</ele>
        <time>2026-08-29T13:00:32Z</time>
      </trkpt>
      <trkpt lat="47.55216" lon="-2.8934">
        <ele>12.8</ele>
        <time>2026-08-29T13:00:33Z</time>
      </trkpt>
      <trkpt lat="47.55218" lon="-2.89345">
        <ele>12.6</ele>
        <time>2026-08-29T13:00:34Z</time>
      </trkpt>
      <trkpt lat="47.5522" lon="-2.8935">
        <ele>12.4</ele>
        <time>2026-08-29T13:00:35Z</time>
      </trkpt>
      <trkpt lat="47.55222" lon="-2.89355">
        <ele>12.2</ele>
        <time>2026-08-29T13:00:36Z</time>
      </trkpt>
      <trkpt lat="47.55225" lon="-2.89361">
        <ele>12.1</ele>
        <time>2026-08-29T13:00:37Z</time>
      </trkpt>
      <trkpt lat="47.55227" lon="-2.89366">
        <ele>12.2</ele>
        <time>2026-08-29T13:00:38Z</time>
      </trkpt>
      <trkpt lat="47.55228" lon="-2.89372">
        <ele>12.2</ele>
        <time>2026-08-29T13:00:39Z</time>
      </trkpt>
      <trkpt lat="47.5523" lon="-2.89378">
        <ele>12.3</ele>
        <time>2026-08-29T13:00:40Z</time>
      </trkpt>
      <trkpt lat="47.55231" lon="-2.89384">
        <ele>12.3</ele>
        <time>2026-08-29T13:00:41Z</time>
      </trkpt>
      <trkpt lat="47.55232" lon="-2.8939">
        <ele>12.4</ele>
        <time>2026-08-29T13:00:42Z</time>
      </trkpt>
      <trkpt lat="47.55233" lon="-2.89396">
        <ele>12.4</ele>
        <time>2026-08-29T13:00:43Z</time>
      </trkpt>
      <trkpt lat="47.55234" lon="-2.89403">
        <ele>12.4</ele>
        <time>2026-08-29T13:00:44Z</time>
      </trkpt>
      <trkpt lat="47.55235" lon="-2.89409">
        <ele>12.5</ele>
        <time>2026-08-29T13:00:45Z</time>
      </trkpt>
      <trkpt lat="47.55236" lon="-2.89416">
        <ele>12.5</ele>
        <time>2026-08-29T13:00:46Z</time>
      </trkpt>
      <trkpt lat="47.55236" lon="-2.89422">
        <ele>12.4</ele>
        <time>2026-08-29T13:00:47Z</time>
      </trkpt>
      <trkpt lat="47.55237" lon="-2.89428">
        <ele>12.3</ele>
        <time>2026-08-29T13:00:48Z</time>
      </trkpt>
      <trkpt lat="47.55238" lon="-2.89435">
        <ele>12.3</ele>
        <time>2026-08-29T13:00:49Z</time>
      </trkpt>
      <trkpt lat="47.55239" lon="-2.89441">
        <ele>12.3</ele>
        <time>2026-08-29T13:00:50Z</time>
      </trkpt>
      <trkpt lat="47.5524" lon="-2.89448">
        <ele>12.2</ele>
        <time>2026-08-29T13:00:51Z</time>
      </trkpt>
      <trkpt lat="47.5524" lon="-2.89454">
        <ele>12.2</ele>
        <time>2026-08-29T13:00:52Z</time>
      </trkpt>
      <trkpt lat="47.5524" lon="-2.89461">
        <ele>12.1</ele>
        <time>2026-08-29T13:00:53Z</time>
      </trkpt>
      <trkpt lat="47.5524" lon="-2.89468">
        <ele>12</ele>
        <time>2026-08-29T13:00:54Z</time>
      </trkpt>
      <trkpt lat="47.5524" lon="-2.89474">
        <ele>12</ele>
        <time>2026-08-29T13:00:55Z</time>
      </trkpt>
      <trkpt lat="47.5524" lon="-2.89481">
        <ele>12</ele>
        <time>2026-08-29T13:00:56Z</time>
      </trkpt>
      <trkpt lat="47.5524" lon="-2.89487">
        <ele>12</ele>
        <time>2026-08-29T13:00:57Z</time>
      </trkpt>
      <trkpt lat="47.5524" lon="-2.89493">
        <ele>12</ele>
        <time>2026-08-29T13:00:58Z</time>
      </trkpt>
      <trkpt lat="47.55241" lon="-2.89499">
        <ele>12</ele>
        <time>2026-08-29T13:00:59Z</time>
      </trkpt>
      <trkpt lat="47.55241" lon="-2.89505">
        <ele>12</ele>
        <time>2026-08-29T13:01:00Z</time>
      </trkpt>
      <trkpt lat="47.55241" lon="-2.89511">
        <ele>12</ele>
        <time>2026-08-29T13:01:01Z</time>
      </trkpt>
      <trkpt lat="47.55241" lon="-2.89516">
        <ele>12</ele>
        <time>2026-08-29T13:01:02Z</time>
      </trkpt>
      <trkpt lat="47.5524" lon="-2.89521">
        <ele>12</ele>
        <time>2026-08-29T13:01:03Z</time>
      </trkpt>
      <trkpt lat="47.5524" lon="-2.89527">
        <ele>12</ele>
        <time>2026-08-29T13:01:04Z</time>
      </trkpt>
      <trkpt lat="47.5524" lon="-2.89533">
        <ele>11.9</ele>
        <time>2026-08-29T13:01:05Z</time>
      </trkpt>
      <trkpt lat="47.55239" lon="-2.89539">
        <ele>11.8</ele>
        <time>2026-08-29T13:01:06Z</time>
      </trkpt>
      <trkpt lat="47.55239" lon="-2.89545">
        <ele>11.6</ele>
        <time>2026-08-29T13:01:07Z</time>
      </trkpt>
      <trkpt lat="47.55238" lon="-2.89551">
        <ele>11.5</ele>
        <time>2026-08-29T13:01:08Z</time>
      </trkpt>
      <trkpt lat="47.55237" lon="-2.89558">
        <ele>11.4</ele>
        <time>2026-08-29T13:01:09Z</time>
      </trkpt>
      <trkpt lat="47.55236" lon="-2.89564">
        <ele>11.4</ele>
        <time>2026-08-29T13:01:10Z</time>
      </trkpt>
      <trkpt lat="47.55235" lon="-2.89571">
        <ele>11.2</ele>
        <time>2026-08-29T13:01:11Z</time>
      </trkpt>
      <trkpt lat="47.55234" lon="-2.89578">
        <ele>11.1</ele>
        <time>2026-08-29T13:01:12Z</time>
      </trkpt>
      <trkpt lat="47.55233" lon="-2.89585">
        <ele>11</ele>
        <time>2026-08-29T13:01:13Z</time>
      </trkpt>
      <trkpt lat="47.55231" lon="-2.89591">
        <ele>11</ele>
        <time>2026-08-29T13:01:14Z</time>
      </trkpt>
      <trkpt lat="47.5523" lon="-2.89598">
        <ele>11</ele>
        <time>2026-08-29T13:01:15Z</time>
      </trkpt>
      <trkpt lat="47.55228" lon="-2.89604">
        <ele>11</ele>
        <time>2026-08-29T13:01:16Z</time>
      </trkpt>
      <trkpt lat="47.55227" lon="-2.8961">
        <ele>11</ele>
        <time>2026-08-29T13:01:17Z</time>
      </trkpt>
      <trkpt lat="47.55225" lon="-2.89617">
        <ele>10.8</ele>
        <time>2026-08-29T13:01:18Z</time>
      </trkpt>
      <trkpt lat="47.55223" lon="-2.89623">
        <ele>10.6</ele>
        <time>2026-08-29T13:01:19Z</time>
      </trkpt>
      <trkpt lat="47.55222" lon="-2.89629">
        <ele>10.4</ele>
        <time>2026-08-29T13:01:20Z</time>
      </trkpt>
      <trkpt lat="47.5522" lon="-2.89634">
        <ele>10.2</ele>
        <time>2026-08-29T13:01:21Z</time>
      </trkpt>
      <trkpt lat="47.55218" lon="-2.8964">
        <ele>10.1</ele>
        <time>2026-08-29T13:01:22Z</time>
      </trkpt>
      <trkpt lat="47.55216" lon="-2.89646">
        <ele>10.2</ele>
        <time>2026-08-29T13:01:23Z</time>
      </trkpt>
      <trkpt lat="47.55214" lon="-2.89652">
        <ele>10.2</ele>
        <time>2026-08-29T13:01:24Z</time>
      </trkpt>
      <trkpt lat="47.55211" lon="-2.89658">
        <ele>10.1</ele>
        <time>2026-08-29T13:01:25Z</time>
      </trkpt>
      <trkpt lat="47.55209" lon="-2.89664">
        <ele>10</ele>
        <time>2026-08-29T13:01:26Z</time>
      </trkpt>
      <trkpt lat="47.55206" lon="-2.8967">
        <ele>10</ele>
        <time>2026-08-29T13:01:27Z</time>
      </trkpt>
      <trkpt lat="47.55204" lon="-2.89676">
        <ele>9.9</ele>
        <time>2026-08-29T13:01:28Z</time>
      </trkpt>
      <trkpt lat="47.55201" lon="-2.89681">
        <ele>9.9</ele>
        <time>2026-08-29T13:01:29Z</time>
      </trkpt>
      <trkpt lat="47.55198" lon="-2.89687">
        <ele>9.9</ele>
        <time>2026-08-29T13:01:30Z</time>
      </trkpt>
      <trkpt lat="47.55195" lon="-2.89692">
        <ele>10</ele>
        <time>2026-08-29T13:01:31Z</time>
      </trkpt>
      <trkpt lat="47.55192" lon="-2.89698">
        <ele>10</ele>
        <time>2026-08-29T13:01:32Z</time>
      </trkpt>
      <trkpt lat="47.55189" lon="-2.89704">
        <ele>10</ele>
        <time>2026-08-29T13:01:33Z</time>
      </trkpt>
      <trkpt lat="47.55186" lon="-2.89709">
        <ele>10</ele>
        <time>2026-08-29T13:01:34Z</time>
      </trkpt>
      <trkpt lat="47.55183" lon="-2.89714">
        <ele>10</ele>
        <time>2026-08-29T13:01:35Z</time>
      </trkpt>
      <trkpt lat="47.5518" lon="-2.8972">
        <ele>10</ele>
        <time>2026-08-29T13:01:36Z</time>
      </trkpt>
      <trkpt lat="47.55177" lon="-2.89725">
        <ele>10</ele>
        <time>2026-08-29T13:01:37Z</time>
      </trkpt>
      <trkpt lat="47.55174" lon="-2.89729">
        <ele>9.9</ele>
        <time>2026-08-29T13:01:38Z</time>
      </trkpt>
      <trkpt lat="47.55171" lon="-2.89734">
        <ele>9.9</ele>
        <time>2026-08-29T13:01:39Z</time>
      </trkpt>
      <trkpt lat="47.55168" lon="-2.89738">
        <ele>10</ele>
        <time>2026-08-29T13:01:40Z</time>
      </trkpt>
      <trkpt lat="47.55165" lon="-2.89742">
        <ele>10</ele>
        <time>2026-08-29T13:01:41Z</time>
      </trkpt>
      <trkpt lat="47.55161" lon="-2.89747">
        <ele>10</ele>
        <time>2026-08-29T13:01:42Z</time>
      </trkpt>
      <trkpt lat="47.55158" lon="-2.89751">
        <ele>10</ele>
        <time>2026-08-29T13:01:43Z</time>
      </trkpt>
      <trkpt lat="47.55154" lon="-2.89755">
        <ele>10</ele>
        <time>2026-08-29T13:01:44Z</time>
      </trkpt>
      <trkpt lat="47.55151" lon="-2.89759">
        <ele>10</ele>
        <time>2026-08-29T13:01:45Z</time>
      </trkpt>
      <trkpt lat="47.55148" lon="-2.89763">
        <ele>10</ele>
        <time>2026-08-29T13:01:46Z</time>
      </trkpt>
      <trkpt lat="47.55145" lon="-2.89766">
        <ele>10</ele>
        <time>2026-08-29T13:01:47Z</time>
      </trkpt>
      <trkpt lat="47.55141" lon="-2.8977">
        <ele>10</ele>
        <time>2026-08-29T13:01:48Z</time>
      </trkpt>
      <trkpt lat="47.55138" lon="-2.89774">
        <ele>10</ele>
        <time>2026-08-29T13:01:49Z</time>
      </trkpt>
      <trkpt lat="47.55135" lon="-2.89778">
        <ele>10</ele>
        <time>2026-08-29T13:01:50Z</time>
      </trkpt>
      <trkpt lat="47.55132" lon="-2.89782">
        <ele>10</ele>
        <time>2026-08-29T13:01:51Z</time>
      </trkpt>
      <trkpt lat="47.55129" lon="-2.89786">
        <ele>10.1</ele>
        <time>2026-08-29T13:01:52Z</time>
      </trkpt>
      <trkpt lat="47.55126" lon="-2.8979">
        <ele>10.2</ele>
        <time>2026-08-29T13:01:53Z</time>
      </trkpt>
      <trkpt lat="47.55122" lon="-2.89794">
        <ele>10.4</ele>
        <time>2026-08-29T13:01:54Z</time>
      </trkpt>
      <trkpt lat="47.55119" lon="-2.89797">
        <ele>10.5</ele>
        <time>2026-08-29T13:01:55Z</time>
      </trkpt>
      <trkpt lat="47.55116" lon="-2.89801">
        <ele>10.7</ele>
        <time>2026-08-29T13:01:56Z</time>
      </trkpt>
      <trkpt lat="47.55113" lon="-2.89805">
        <ele>10.9</ele>
        <time>2026-08-29T13:01:57Z</time>
      </trkpt>
      <trkpt lat="47.5511" lon="-2.89808">
        <ele>11</ele>
        <time>2026-08-29T13:01:58Z</time>
      </trkpt>
      <trkpt lat="47.55107" lon="-2.89812">
        <ele>10.9</ele>
        <time>2026-08-29T13:01:59Z</time>
      </trkpt>
      <trkpt lat="47.55104" lon="-2.89816">
        <ele>10.8</ele>
        <time>2026-08-29T13:02:00Z</time>
      </trkpt>
      <trkpt lat="47.55101" lon="-2.8982">
        <ele>10.8</ele>
        <time>2026-08-29T13:02:01Z</time>
      </trkpt>
      <trkpt lat="47.55098" lon="-2.89823">
        <ele>10.8</ele>
        <time>2026-08-29T13:02:02Z</time>
      </trkpt>
      <trkpt lat="47.55094" lon="-2.89827">
        <ele>10.9</ele>
        <time>2026-08-29T13:02:03Z</time>
      </trkpt>
      <trkpt lat="47.55091" lon="-2.8983">
        <ele>10.9</ele>
        <time>2026-08-29T13:02:04Z</time>
      </trkpt>
      <trkpt lat="47.55089" lon="-2.89834">
        <ele>11</ele>
        <time>2026-08-29T13:02:05Z</time>
      </trkpt>
      <trkpt lat="47.55086" lon="-2.89838">
        <ele>11.2</ele>
        <time>2026-08-29T13:02:06Z</time>
      </trkpt>
      <trkpt lat="47.55083" lon="-2.89841">
        <ele>11.3</ele>
        <time>2026-08-29T13:02:07Z</time>
      </trkpt>
      <trkpt lat="47.5508" lon="-2.89845">
        <ele>11.4</ele>
        <time>2026-08-29T13:02:08Z</time>
      </trkpt>
      <trkpt lat="47.55077" lon="-2.89848">
        <ele>11.5</ele>
        <time>2026-08-29T13:02:09Z</time>
      </trkpt>
      <trkpt lat="47.55074" lon="-2.89851">
        <ele>11.6</ele>
        <time>2026-08-29T13:02:10Z</time>
      </trkpt>
      <trkpt lat="47.55072" lon="-2.89855">
        <ele>11.8</ele>
        <time>2026-08-29T13:02:11Z</time>
      </trkpt>
      <trkpt lat="47.5507" lon="-2.89858">
        <ele>11.9</ele>
        <time>2026-08-29T13:02:12Z</time>
      </trkpt>
      <trkpt lat="47.55067" lon="-2.89862">
        <ele>12</ele>
        <time>2026-08-29T13:02:13Z</time>
      </trkpt>
      <trkpt lat="47.55064" lon="-2.89865">
        <ele>12.1</ele>
        <time>2026-08-29T13:02:14Z</time>
      </trkpt>
      <trkpt lat="47.55061" lon="-2.89869">
        <ele>12.2</ele>
        <time>2026-08-29T13:02:15Z</time>
      </trkpt>
      <trkpt lat="47.55059" lon="-2.89872">
        <ele>12.3</ele>
        <time>2026-08-29T13:02:16Z</time>
      </trkpt>
      <trkpt lat="47.55056" lon="-2.89875">
        <ele>12.5</ele>
        <time>2026-08-29T13:02:17Z</time>
      </trkpt>
      <trkpt lat="47.55053" lon="-2.89879">
        <ele>12.6</ele>
        <time>2026-08-29T13:02:18Z</time>
      </trkpt>
      <trkpt lat="47.5505" lon="-2.89882">
        <ele>12.8</ele>
        <time>2026-08-29T13:02:19Z</time>
      </trkpt>
      <trkpt lat="47.55047" lon="-2.89886">
        <ele>12.9</ele>
        <time>2026-08-29T13:02:20Z</time>
      </trkpt>
      <trkpt lat="47.55045" lon="-2.89889">
        <ele>13</ele>
        <time>2026-08-29T13:02:21Z</time>
      </trkpt>
      <trkpt lat="47.55042" lon="-2.89893">
        <ele>13</ele>
        <time>2026-08-29T13:02:22Z</time>
      </trkpt>
      <trkpt lat="47.55039" lon="-2.89896">
        <ele>13</ele>
        <time>2026-08-29T13:02:23Z</time>
      </trkpt>
      <trkpt lat="47.55036" lon="-2.89899">
        <ele>13</ele>
        <time>2026-08-29T13:02:24Z</time>
      </trkpt>
      <trkpt lat="47.55034" lon="-2.89902">
        <ele>13</ele>
        <time>2026-08-29T13:02:25Z</time>
      </trkpt>
      <trkpt lat="47.55031" lon="-2.89906">
        <ele>13</ele>
        <time>2026-08-29T13:02:26Z</time>
      </trkpt>
      <trkpt lat="47.55028" lon="-2.89909">
        <ele>13</ele>
        <time>2026-08-29T13:02:27Z</time>
      </trkpt>
      <trkpt lat="47.55025" lon="-2.89912">
        <ele>13</ele>
        <time>2026-08-29T13:02:28Z</time>
      </trkpt>
      <trkpt lat="47.55022" lon="-2.89915">
        <ele>13</ele>
        <time>2026-08-29T13:02:29Z</time>
      </trkpt>
      <trkpt lat="47.55019" lon="-2.89919">
        <ele>13</ele>
        <time>2026-08-29T13:02:30Z</time>
      </trkpt>
      <trkpt lat="47.55016" lon="-2.89922">
        <ele>13.1</ele>
        <time>2026-08-29T13:02:31Z</time>
      </trkpt>
      <trkpt lat="47.55013" lon="-2.89925">
        <ele>13.2</ele>
        <time>2026-08-29T13:02:32Z</time>
      </trkpt>
      <trkpt lat="47.5501" lon="-2.89928">
        <ele>13.3</ele>
        <time>2026-08-29T13:02:33Z</time>
      </trkpt>
      <trkpt lat="47.55007" lon="-2.89931">
        <ele>13.4</ele>
        <time>2026-08-29T13:02:34Z</time>
      </trkpt>
      <trkpt lat="47.55005" lon="-2.89934">
        <ele>13.5</ele>
        <time>2026-08-29T13:02:35Z</time>
      </trkpt>
      <trkpt lat="47.55003" lon="-2.89938">
        <ele>13.7</ele>
        <time>2026-08-29T13:02:36Z</time>
      </trkpt>
      <trkpt lat="47.55001" lon="-2.89942">
        <ele>13.9</ele>
        <time>2026-08-29T13:02:37Z</time>
      </trkpt>
      <trkpt lat="47.55001" lon="-2.89945">
        <ele>14</ele>
        <time>2026-08-29T13:02:38Z</time>
      </trkpt>
      <trkpt lat="47.55002" lon="-2.8995">
        <ele>13.9</ele>
        <time>2026-08-29T13:02:39Z</time>
      </trkpt>
      <trkpt lat="47.55004" lon="-2.89953">
        <ele>13.9</ele>
        <time>2026-08-29T13:02:40Z</time>
      </trkpt>
      <trkpt lat="47.55005" lon="-2.89957">
        <ele>13.9</ele>
        <time>2026-08-29T13:02:41Z</time>
      </trkpt>
      <trkpt lat="47.55007" lon="-2.89961">
        <ele>13.9</ele>
        <time>2026-08-29T13:02:42Z</time>
      </trkpt>
      <trkpt lat="47.55009" lon="-2.89966">
        <ele>13.9</ele>
        <time>2026-08-29T13:02:43Z</time>
      </trkpt>
      <trkpt lat="47.55011" lon="-2.89971">
        <ele>14</ele>
        <time>2026-08-29T13:02:44Z</time>
      </trkpt>
      <trkpt lat="47.55013" lon="-2.89976">
        <ele>14</ele>
        <time>2026-08-29T13:02:45Z</time>
      </trkpt>
      <trkpt lat="47.55014" lon="-2.89981">
        <ele>14</ele>
        <time>2026-08-29T13:02:46Z</time>
      </trkpt>
      <trkpt lat="47.55015" lon="-2.89986">
        <ele>14</ele>
        <time>2026-08-29T13:02:47Z</time>
      </trkpt>
      <trkpt lat="47.55016" lon="-2.89992">
        <ele>14</ele>
        <time>2026-08-29T13:02:48Z</time>
      </trkpt>
      <trkpt lat="47.55017" lon="-2.89997">
        <ele>14</ele>
        <time>2026-08-29T13:02:49Z</time>
      </trkpt>
      <trkpt lat="47.55018" lon="-2.90003">
        <ele>13.9</ele>
        <time>2026-08-29T13:02:50Z</time>
      </trkpt>
      <trkpt lat="47.55019" lon="-2.90008">
        <ele>13.8</ele>
        <time>2026-08-29T13:02:51Z</time>
      </trkpt>
      <trkpt lat="47.5502" lon="-2.90014">
        <ele>13.6</ele>
        <time>2026-08-29T13:02:52Z</time>
      </trkpt>
      <trkpt lat="47.5502" lon="-2.9002">
        <ele>13.5</ele>
        <time>2026-08-29T13:02:53Z</time>
      </trkpt>
      <trkpt lat="47.5502" lon="-2.90026">
        <ele>13.3</ele>
        <time>2026-08-29T13:02:54Z</time>
      </trkpt>
      <trkpt lat="47.5502" lon="-2.90033">
        <ele>13.2</ele>
        <time>2026-08-29T13:02:55Z</time>
      </trkpt>
      <trkpt lat="47.5502" lon="-2.90039">
        <ele>13.2</ele>
        <time>2026-08-29T13:02:56Z</time>
      </trkpt>
      <trkpt lat="47.55019" lon="-2.90046">
        <ele>13.1</ele>
        <time>2026-08-29T13:02:57Z</time>
      </trkpt>
      <trkpt lat="47.55019" lon="-2.90054">
        <ele>13</ele>
        <time>2026-08-29T13:02:58Z</time>
      </trkpt>
      <trkpt lat="47.55019" lon="-2.9006">
        <ele>12.9</ele>
        <time>2026-08-29T13:02:59Z</time>
      </trkpt>
      <trkpt lat="47.55018" lon="-2.90067">
        <ele>12.7</ele>
        <time>2026-08-29T13:03:00Z</time>
      </trkpt>
      <trkpt lat="47.55018" lon="-2.90073">
        <ele>12.6</ele>
        <time>2026-08-29T13:03:01Z</time>
      </trkpt>
      <trkpt lat="47.55018" lon="-2.9008">
        <ele>12.4</ele>
        <time>2026-08-29T13:03:02Z</time>
      </trkpt>
      <trkpt lat="47.55017" lon="-2.90087">
        <ele>12.4</ele>
        <time>2026-08-29T13:03:03Z</time>
      </trkpt>
      <trkpt lat="47.55017" lon="-2.90094">
        <ele>12.4</ele>
        <time>2026-08-29T13:03:04Z</time>
      </trkpt>
      <trkpt lat="47.55016" lon="-2.90101">
        <ele>12.4</ele>
        <time>2026-08-29T13:03:05Z</time>
      </trkpt>
      <trkpt lat="47.55016" lon="-2.90109">
        <ele>12.4</ele>
        <time>2026-08-29T13:03:06Z</time>
      </trkpt>
      <trkpt lat="47.55016" lon="-2.90116">
        <ele>12.3</ele>
        <time>2026-08-29T13:03:07Z</time>
      </trkpt>
      <trkpt lat="47.55017" lon="-2.90123">
        <ele>12.2</ele>
        <time>2026-08-29T13:03:08Z</time>
      </trkpt>
      <trkpt lat="47.55017" lon="-2.9013">
        <ele>12.1</ele>
        <time>2026-08-29T13:03:09Z</time>
      </trkpt>
      <trkpt lat="47.55018" lon="-2.90137">
        <ele>12</ele>
        <time>2026-08-29T13:03:10Z</time>
      </trkpt>
      <trkpt lat="47.55019" lon="-2.90144">
        <ele>11.9</ele>
        <time>2026-08-29T13:03:11Z</time>
      </trkpt>
      <trkpt lat="47.5502" lon="-2.90152">
        <ele>11.7</ele>
        <time>2026-08-29T13:03:12Z</time>
      </trkpt>
      <trkpt lat="47.5502" lon="-2.9016">
        <ele>11.5</ele>
        <time>2026-08-29T13:03:13Z</time>
      </trkpt>
      <trkpt lat="47.55021" lon="-2.90168">
        <ele>11.2</ele>
        <time>2026-08-29T13:03:14Z</time>
      </trkpt>
      <trkpt lat="47.55021" lon="-2.90177">
        <ele>11.2</ele>
        <time>2026-08-29T13:03:15Z</time>
      </trkpt>
      <trkpt lat="47.55022" lon="-2.90185">
        <ele>11.1</ele>
        <time>2026-08-29T13:03:16Z</time>
      </trkpt>
      <trkpt lat="47.55023" lon="-2.90193">
        <ele>11</ele>
        <time>2026-08-29T13:03:17Z</time>
      </trkpt>
      <trkpt lat="47.55025" lon="-2.90201">
        <ele>10.8</ele>
        <time>2026-08-29T13:03:18Z</time>
      </trkpt>
      <trkpt lat="47.55027" lon="-2.90208">
        <ele>10.5</ele>
        <time>2026-08-29T13:03:19Z</time>
      </trkpt>
      <trkpt lat="47.55028" lon="-2.90216">
        <ele>10.2</ele>
        <time>2026-08-29T13:03:20Z</time>
      </trkpt>
      <trkpt lat="47.5503" lon="-2.90224">
        <ele>10</ele>
        <time>2026-08-29T13:03:21Z</time>
      </trkpt>
      <trkpt lat="47.55032" lon="-2.90232">
        <ele>10</ele>
        <time>2026-08-29T13:03:22Z</time>
      </trkpt>
      <trkpt lat="47.55033" lon="-2.90239">
        <ele>10</ele>
        <time>2026-08-29T13:03:23Z</time>
      </trkpt>
      <trkpt lat="47.55034" lon="-2.90247">
        <ele>10</ele>
        <time>2026-08-29T13:03:24Z</time>
      </trkpt>
      <trkpt lat="47.55035" lon="-2.90255">
        <ele>10</ele>
        <time>2026-08-29T13:03:25Z</time>
      </trkpt>
      <trkpt lat="47.55036" lon="-2.90263">
        <ele>9.9</ele>
        <time>2026-08-29T13:03:26Z</time>
      </trkpt>
      <trkpt lat="47.55037" lon="-2.90271">
        <ele>9.7</ele>
        <time>2026-08-29T13:03:27Z</time>
      </trkpt>
      <trkpt lat="47.55037" lon="-2.9028">
        <ele>9.6</ele>
        <time>2026-08-29T13:03:28Z</time>
      </trkpt>
      <trkpt lat="47.55038" lon="-2.90288">
        <ele>9.4</ele>
        <time>2026-08-29T13:03:29Z</time>
      </trkpt>
      <trkpt lat="47.55038" lon="-2.90297">
        <ele>9.2</ele>
        <time>2026-08-29T13:03:30Z</time>
      </trkpt>
      <trkpt lat="47.55039" lon="-2.90305">
        <ele>9</ele>
        <time>2026-08-29T13:03:31Z</time>
      </trkpt>
      <trkpt lat="47.55039" lon="-2.90314">
        <ele>8.7</ele>
        <time>2026-08-29T13:03:32Z</time>
      </trkpt>
      <trkpt lat="47.55039" lon="-2.90322">
        <ele>8.4</ele>
        <time>2026-08-29T13:03:33Z</time>
      </trkpt>
      <trkpt lat="47.55038" lon="-2.9033">
        <ele>8.1</ele>
        <time>2026-08-29T13:03:34Z</time>
      </trkpt>
      <trkpt lat="47.55037" lon="-2.90338">
        <ele>8</ele>
        <time>2026-08-29T13:03:35Z</time>
      </trkpt>
      <trkpt lat="47.55037" lon="-2.90345">
        <ele>8</ele>
        <time>2026-08-29T13:03:36Z</time>
      </trkpt>
      <trkpt lat="47.55035" lon="-2.90352">
        <ele>8</ele>
        <time>2026-08-29T13:03:37Z</time>
      </trkpt>
      <trkpt lat="47.55035" lon="-2.90358">
        <ele>8</ele>
        <time>2026-08-29T13:03:38Z</time>
      </trkpt>
      <trkpt lat="47.55033" lon="-2.90365">
        <ele>8</ele>
        <time>2026-08-29T13:03:39Z</time>
      </trkpt>
      <trkpt lat="47.5503" lon="-2.90372">
        <ele>8</ele>
        <time>2026-08-29T13:03:40Z</time>
      </trkpt>
      <trkpt lat="47.55028" lon="-2.90378">
        <ele>8</ele>
        <time>2026-08-29T13:03:41Z</time>
      </trkpt>
      <trkpt lat="47.55025" lon="-2.90385">
        <ele>8</ele>
        <time>2026-08-29T13:03:42Z</time>
      </trkpt>
      <trkpt lat="47.55022" lon="-2.90392">
        <ele>8</ele>
        <time>2026-08-29T13:03:43Z</time>
      </trkpt>
      <trkpt lat="47.55019" lon="-2.90398">
        <ele>8</ele>
        <time>2026-08-29T13:03:44Z</time>
      </trkpt>
      <trkpt lat="47.55017" lon="-2.90405">
        <ele>8</ele>
        <time>2026-08-29T13:03:45Z</time>
      </trkpt>
      <trkpt lat="47.55014" lon="-2.90411">
        <ele>8</ele>
        <time>2026-08-29T13:03:46Z</time>
      </trkpt>
      <trkpt lat="47.5501" lon="-2.90417">
        <ele>8</ele>
        <time>2026-08-29T13:03:47Z</time>
      </trkpt>
      <trkpt lat="47.55007" lon="-2.90421">
        <ele>8</ele>
        <time>2026-08-29T13:03:48Z</time>
      </trkpt>
      <trkpt lat="47.55003" lon="-2.90426">
        <ele>8</ele>
        <time>2026-08-29T13:03:49Z</time>
      </trkpt>
      <trkpt lat="47.54999" lon="-2.9043">
        <ele>8</ele>
        <time>2026-08-29T13:03:50Z</time>
      </trkpt>
      <trkpt lat="47.54995" lon="-2.90434">
        <ele>8</ele>
        <time>2026-08-29T13:03:51Z</time>
      </trkpt>
      <trkpt lat="47.54991" lon="-2.90438">
        <ele>8</ele>
        <time>2026-08-29T13:03:52Z</time>
      </trkpt>
      <trkpt lat="47.54989" lon="-2.90442">
        <ele>8</ele>
        <time>2026-08-29T13:03:53Z</time>
      </trkpt>
      <trkpt lat="47.54986" lon="-2.90447">
        <ele>8</ele>
        <time>2026-08-29T13:03:54Z</time>
      </trkpt>
      <trkpt lat="47.54985" lon="-2.90452">
        <ele>8</ele>
        <time>2026-08-29T13:03:55Z</time>
      </trkpt>
      <trkpt lat="47.54984" lon="-2.90459">
        <ele>8</ele>
        <time>2026-08-29T13:03:56Z</time>
      </trkpt>
      <trkpt lat="47.54984" lon="-2.90465">
        <ele>8</ele>
        <time>2026-08-29T13:03:57Z</time>
      </trkpt>
      <trkpt lat="47.54984" lon="-2.90471">
        <ele>8</ele>
        <time>2026-08-29T13:03:58Z</time>
      </trkpt>
      <trkpt lat="47.54984" lon="-2.90477">
        <ele>8.2</ele>
        <time>2026-08-29T13:03:59Z</time>
      </trkpt>
      <trkpt lat="47.54984" lon="-2.90484">
        <ele>8.4</ele>
        <time>2026-08-29T13:04:00Z</time>
      </trkpt>
      <trkpt lat="47.54984" lon="-2.9049">
        <ele>8.6</ele>
        <time>2026-08-29T13:04:01Z</time>
      </trkpt>
      <trkpt lat="47.54983" lon="-2.90496">
        <ele>8.9</ele>
        <time>2026-08-29T13:04:02Z</time>
      </trkpt>
      <trkpt lat="47.54984" lon="-2.90502">
        <ele>9</ele>
        <time>2026-08-29T13:04:03Z</time>
      </trkpt>
      <trkpt lat="47.54985" lon="-2.90509">
        <ele>9</ele>
        <time>2026-08-29T13:04:04Z</time>
      </trkpt>
      <trkpt lat="47.54986" lon="-2.90515">
        <ele>9</ele>
        <time>2026-08-29T13:04:05Z</time>
      </trkpt>
      <trkpt lat="47.54986" lon="-2.90521">
        <ele>9</ele>
        <time>2026-08-29T13:04:06Z</time>
      </trkpt>
      <trkpt lat="47.54987" lon="-2.90527">
        <ele>9</ele>
        <time>2026-08-29T13:04:07Z</time>
      </trkpt>
      <trkpt lat="47.54988" lon="-2.90533">
        <ele>9</ele>
        <time>2026-08-29T13:04:08Z</time>
      </trkpt>
      <trkpt lat="47.5499" lon="-2.90539">
        <ele>9</ele>
        <time>2026-08-29T13:04:09Z</time>
      </trkpt>
      <trkpt lat="47.54991" lon="-2.90545">
        <ele>9</ele>
        <time>2026-08-29T13:04:10Z</time>
      </trkpt>
      <trkpt lat="47.54992" lon="-2.90551">
        <ele>9</ele>
        <time>2026-08-29T13:04:11Z</time>
      </trkpt>
      <trkpt lat="47.54993" lon="-2.90557">
        <ele>9</ele>
        <time>2026-08-29T13:04:12Z</time>
      </trkpt>
      <trkpt lat="47.54993" lon="-2.90564">
        <ele>9</ele>
        <time>2026-08-29T13:04:13Z</time>
      </trkpt>
      <trkpt lat="47.54994" lon="-2.9057">
        <ele>9</ele>
        <time>2026-08-29T13:04:14Z</time>
      </trkpt>
      <trkpt lat="47.54995" lon="-2.90576">
        <ele>9</ele>
        <time>2026-08-29T13:04:15Z</time>
      </trkpt>
      <trkpt lat="47.54996" lon="-2.90582">
        <ele>9</ele>
        <time>2026-08-29T13:04:16Z</time>
      </trkpt>
      <trkpt lat="47.54997" lon="-2.90588">
        <ele>9.1</ele>
        <time>2026-08-29T13:04:17Z</time>
      </trkpt>
      <trkpt lat="47.54998" lon="-2.90594">
        <ele>9.4</ele>
        <time>2026-08-29T13:04:18Z</time>
      </trkpt>
      <trkpt lat="47.54999" lon="-2.90599">
        <ele>9.5</ele>
        <time>2026-08-29T13:04:19Z</time>
      </trkpt>
      <trkpt lat="47.55" lon="-2.90604">
        <ele>9.7</ele>
        <time>2026-08-29T13:04:20Z</time>
      </trkpt>
      <trkpt lat="47.55001" lon="-2.90609">
        <ele>9.9</ele>
        <time>2026-08-29T13:04:21Z</time>
      </trkpt>
      <trkpt lat="47.55001" lon="-2.90614">
        <ele>9.9</ele>
        <time>2026-08-29T13:04:22Z</time>
      </trkpt>
      <trkpt lat="47.55001" lon="-2.90619">
        <ele>9.7</ele>
        <time>2026-08-29T13:04:23Z</time>
      </trkpt>
      <trkpt lat="47.55001" lon="-2.90624">
        <ele>9.5</ele>
        <time>2026-08-29T13:04:24Z</time>
      </trkpt>
      <trkpt lat="47.55001" lon="-2.9063">
        <ele>9.3</ele>
        <time>2026-08-29T13:04:25Z</time>
      </trkpt>
      <trkpt lat="47.55" lon="-2.90636">
        <ele>9.1</ele>
        <time>2026-08-29T13:04:26Z</time>
      </trkpt>
      <trkpt lat="47.55" lon="-2.90643">
        <ele>8.7</ele>
        <time>2026-08-29T13:04:27Z</time>
      </trkpt>
      <trkpt lat="47.55" lon="-2.9065">
        <ele>8.2</ele>
        <time>2026-08-29T13:04:28Z</time>
      </trkpt>
      <trkpt lat="47.55" lon="-2.90657">
        <ele>7.7</ele>
        <time>2026-08-29T13:04:29Z</time>
      </trkpt>
      <trkpt lat="47.55001" lon="-2.90665">
        <ele>7.2</ele>
        <time>2026-08-29T13:04:30Z</time>
      </trkpt>
      <trkpt lat="47.55003" lon="-2.90672">
        <ele>7</ele>
        <time>2026-08-29T13:04:31Z</time>
      </trkpt>
      <trkpt lat="47.55005" lon="-2.90678">
        <ele>7</ele>
        <time>2026-08-29T13:04:32Z</time>
      </trkpt>
      <trkpt lat="47.55007" lon="-2.90685">
        <ele>7</ele>
        <time>2026-08-29T13:04:33Z</time>
      </trkpt>
      <trkpt lat="47.5501" lon="-2.90691">
        <ele>7.2</ele>
        <time>2026-08-29T13:04:34Z</time>
      </trkpt>
      <trkpt lat="47.55012" lon="-2.90697">
        <ele>7.3</ele>
        <time>2026-08-29T13:04:35Z</time>
      </trkpt>
      <trkpt lat="47.55014" lon="-2.90701">
        <ele>7.4</ele>
        <time>2026-08-29T13:04:36Z</time>
      </trkpt>
      <trkpt lat="47.55016" lon="-2.90706">
        <ele>7.5</ele>
        <time>2026-08-29T13:04:37Z</time>
      </trkpt>
      <trkpt lat="47.55017" lon="-2.90711">
        <ele>7.5</ele>
        <time>2026-08-29T13:04:38Z</time>
      </trkpt>
      <trkpt lat="47.55019" lon="-2.90715">
        <ele>7.5</ele>
        <time>2026-08-29T13:04:39Z</time>
      </trkpt>
      <trkpt lat="47.5502" lon="-2.90719">
        <ele>7.5</ele>
        <time>2026-08-29T13:04:40Z</time>
      </trkpt>
      <trkpt lat="47.55021" lon="-2.90723">
        <ele>7.5</ele>
        <time>2026-08-29T13:04:41Z</time>
      </trkpt>
      <trkpt lat="47.55022" lon="-2.90726">
        <ele>7.3</ele>
        <time>2026-08-29T13:04:42Z</time>
      </trkpt>
      <trkpt lat="47.55023" lon="-2.9073">
        <ele>7.1</ele>
        <time>2026-08-29T13:04:43Z</time>
      </trkpt>
      <trkpt lat="47.55025" lon="-2.90734">
        <ele>7</ele>
        <time>2026-08-29T13:04:44Z</time>
      </trkpt>
      <trkpt lat="47.55025" lon="-2.90737">
        <ele>6.8</ele>
        <time>2026-08-29T13:04:45Z</time>
      </trkpt>
      <trkpt lat="47.55025" lon="-2.90741">
        <ele>6.5</ele>
        <time>2026-08-29T13:04:46Z</time>
      </trkpt>
      <trkpt lat="47.55024" lon="-2.90744">
        <ele>6.3</ele>
        <time>2026-08-29T13:04:47Z</time>
      </trkpt>
      <trkpt lat="47.55021" lon="-2.90746">
        <ele>6</ele>
        <time>2026-08-29T13:04:48Z</time>
      </trkpt>
      <trkpt lat="47.55017" lon="-2.90746">
        <ele>5.8</ele>
        <time>2026-08-29T13:04:49Z</time>
      </trkpt>
      <trkpt lat="47.55013" lon="-2.90746">
        <ele>5.7</ele>
        <time>2026-08-29T13:04:50Z</time>
      </trkpt>
      <trkpt lat="47.55008" lon="-2.90746">
        <ele>5.5</ele>
        <time>2026-08-29T13:04:51Z</time>
      </trkpt>
      <trkpt lat="47.55003" lon="-2.90744">
        <ele>5.3</ele>
        <time>2026-08-29T13:04:52Z</time>
      </trkpt>
      <trkpt lat="47.54998" lon="-2.90743">
        <ele>5.2</ele>
        <time>2026-08-29T13:04:53Z</time>
      </trkpt>
      <trkpt lat="47.54993" lon="-2.90741">
        <ele>5.1</ele>
        <time>2026-08-29T13:04:54Z</time>
      </trkpt>
      <trkpt lat="47.54988" lon="-2.9074">
        <ele>4.9</ele>
        <time>2026-08-29T13:04:55Z</time>
      </trkpt>
      <trkpt lat="47.54982" lon="-2.9074">
        <ele>4.7</ele>
        <time>2026-08-29T13:04:56Z</time>
      </trkpt>
      <trkpt lat="47.54976" lon="-2.90741">
        <ele>4.5</ele>
        <time>2026-08-29T13:04:57Z</time>
      </trkpt>
      <trkpt lat="47.54971" lon="-2.90744">
        <ele>4.2</ele>
        <time>2026-08-29T13:04:58Z</time>
      </trkpt>
      <trkpt lat="47.54966" lon="-2.90749">
        <ele>4</ele>
        <time>2026-08-29T13:04:59Z</time>
      </trkpt>
      <trkpt lat="47.54963" lon="-2.90755">
        <ele>4.1</ele>
        <time>2026-08-29T13:05:00Z</time>
      </trkpt>
      <trkpt lat="47.54961" lon="-2.90762">
        <ele>4.2</ele>
        <time>2026-08-29T13:05:01Z</time>
      </trkpt>
      <trkpt lat="47.5496" lon="-2.90769">
        <ele>4.3</ele>
        <time>2026-08-29T13:05:02Z</time>
      </trkpt>
      <trkpt lat="47.54959" lon="-2.90776">
        <ele>4.4</ele>
        <time>2026-08-29T13:05:03Z</time>
      </trkpt>
      <trkpt lat="47.54959" lon="-2.90783">
        <ele>4.5</ele>
        <time>2026-08-29T13:05:04Z</time>
      </trkpt>
      <trkpt lat="47.54959" lon="-2.90789">
        <ele>4.5</ele>
        <time>2026-08-29T13:05:05Z</time>
      </trkpt>
      <trkpt lat="47.54959" lon="-2.90795">
        <ele>4.4</ele>
        <time>2026-08-29T13:05:06Z</time>
      </trkpt>
      <trkpt lat="47.54958" lon="-2.90801">
        <ele>4.5</ele>
        <time>2026-08-29T13:05:07Z</time>
      </trkpt>
      <trkpt lat="47.54957" lon="-2.90807">
        <ele>4.6</ele>
        <time>2026-08-29T13:05:08Z</time>
      </trkpt>
      <trkpt lat="47.54956" lon="-2.90812">
        <ele>4.7</ele>
        <time>2026-08-29T13:05:09Z</time>
      </trkpt>
      <trkpt lat="47.54955" lon="-2.90818">
        <ele>4.7</ele>
        <time>2026-08-29T13:05:10Z</time>
      </trkpt>
      <trkpt lat="47.54954" lon="-2.90823">
        <ele>4.8</ele>
        <time>2026-08-29T13:05:11Z</time>
      </trkpt>
      <trkpt lat="47.54953" lon="-2.90829">
        <ele>4.8</ele>
        <time>2026-08-29T13:05:12Z</time>
      </trkpt>
      <trkpt lat="47.54952" lon="-2.90835">
        <ele>4.9</ele>
        <time>2026-08-29T13:05:13Z</time>
      </trkpt>
      <trkpt lat="47.5495" lon="-2.9084">
        <ele>5.2</ele>
        <time>2026-08-29T13:05:14Z</time>
      </trkpt>
      <trkpt lat="47.54949" lon="-2.90844">
        <ele>5.3</ele>
        <time>2026-08-29T13:05:15Z</time>
      </trkpt>
      <trkpt lat="47.54947" lon="-2.90849">
        <ele>5.6</ele>
        <time>2026-08-29T13:05:16Z</time>
      </trkpt>
      <trkpt lat="47.54946" lon="-2.90852">
        <ele>5.7</ele>
        <time>2026-08-29T13:05:17Z</time>
      </trkpt>
      <trkpt lat="47.54946" lon="-2.90856">
        <ele>5.7</ele>
        <time>2026-08-29T13:05:18Z</time>
      </trkpt>
      <trkpt lat="47.54947" lon="-2.90859">
        <ele>5.5</ele>
        <time>2026-08-29T13:05:19Z</time>
      </trkpt>
      <trkpt lat="47.54947" lon="-2.90862">
        <ele>5.54</ele>
        <time>2026-08-29T13:05:20Z</time>
      </trkpt>
      <trkpt lat="47.54947" lon="-2.90865">
        <ele>5.54</ele>
        <time>2026-08-29T13:05:21Z</time>
      </trkpt>
      <trkpt lat="47.54946" lon="-2.90866">
        <ele>5.72</ele>
        <time>2026-08-29T13:05:22Z</time>
      </trkpt>
      <trkpt lat="47.54946" lon="-2.90866">
        <ele>5.72</ele>
        <time>2026-08-29T13:05:23Z</time>
      </trkpt>
      <trkpt lat="47.54946" lon="-2.90866">
        <ele>5.72</ele>
        <time>2026-08-29T13:05:24Z</time>
      </trkpt>
      <trkpt lat="47.54943" lon="-2.90863">
        <ele>5.8</ele>
        <time>2026-08-29T13:05:57Z</time>
      </trkpt>
      <trkpt lat="47.54941" lon="-2.90863">
        <ele>5.8</ele>
        <time>2026-08-29T13:05:58Z</time>
      </trkpt>
      <trkpt lat="47.54938" lon="-2.90865">
        <ele>5.6</ele>
        <time>2026-08-29T13:05:59Z</time>
      </trkpt>
      <trkpt lat="47.54935" lon="-2.90867">
        <ele>5.4</ele>
        <time>2026-08-29T13:06:00Z</time>
      </trkpt>
      <trkpt lat="47.54932" lon="-2.90869">
        <ele>5.1</ele>
        <time>2026-08-29T13:06:01Z</time>
      </trkpt>
      <trkpt lat="47.54929" lon="-2.90871">
        <ele>4.9</ele>
        <time>2026-08-29T13:06:02Z</time>
      </trkpt>
      <trkpt lat="47.54926" lon="-2.90873">
        <ele>4.7</ele>
        <time>2026-08-29T13:06:03Z</time>
      </trkpt>
      <trkpt lat="47.54922" lon="-2.90875">
        <ele>4.5</ele>
        <time>2026-08-29T13:06:04Z</time>
      </trkpt>
      <trkpt lat="47.54919" lon="-2.90878">
        <ele>4.2</ele>
        <time>2026-08-29T13:06:05Z</time>
      </trkpt>
      <trkpt lat="47.54915" lon="-2.90881">
        <ele>4</ele>
        <time>2026-08-29T13:06:06Z</time>
      </trkpt>
      <trkpt lat="47.54911" lon="-2.90884">
        <ele>4.1</ele>
        <time>2026-08-29T13:06:07Z</time>
      </trkpt>
      <trkpt lat="47.54907" lon="-2.90887">
        <ele>4.2</ele>
        <time>2026-08-29T13:06:08Z</time>
      </trkpt>
      <trkpt lat="47.54903" lon="-2.9089">
        <ele>4.4</ele>
        <time>2026-08-29T13:06:09Z</time>
      </trkpt>
      <trkpt lat="47.54899" lon="-2.90892">
        <ele>4.6</ele>
        <time>2026-08-29T13:06:10Z</time>
      </trkpt>
      <trkpt lat="47.54895" lon="-2.90895">
        <ele>4.6</ele>
        <time>2026-08-29T13:06:11Z</time>
      </trkpt>
      <trkpt lat="47.54891" lon="-2.90898">
        <ele>4.5</ele>
        <time>2026-08-29T13:06:12Z</time>
      </trkpt>
      <trkpt lat="47.54887" lon="-2.90902">
        <ele>4.3</ele>
        <time>2026-08-29T13:06:13Z</time>
      </trkpt>
      <trkpt lat="47.54883" lon="-2.90905">
        <ele>4.4</ele>
        <time>2026-08-29T13:06:14Z</time>
      </trkpt>
      <trkpt lat="47.54879" lon="-2.90909">
        <ele>4.5</ele>
        <time>2026-08-29T13:06:15Z</time>
      </trkpt>
      <trkpt lat="47.54876" lon="-2.90912">
        <ele>4.7</ele>
        <time>2026-08-29T13:06:16Z</time>
      </trkpt>
      <trkpt lat="47.54872" lon="-2.90915">
        <ele>5.1</ele>
        <time>2026-08-29T13:06:17Z</time>
      </trkpt>
      <trkpt lat="47.54868" lon="-2.90919">
        <ele>5.5</ele>
        <time>2026-08-29T13:06:18Z</time>
      </trkpt>
      <trkpt lat="47.54865" lon="-2.90923">
        <ele>5.5</ele>
        <time>2026-08-29T13:06:19Z</time>
      </trkpt>
      <trkpt lat="47.54861" lon="-2.90927">
        <ele>5.5</ele>
        <time>2026-08-29T13:06:20Z</time>
      </trkpt>
      <trkpt lat="47.54859" lon="-2.90931">
        <ele>5.1</ele>
        <time>2026-08-29T13:06:21Z</time>
      </trkpt>
      <trkpt lat="47.54856" lon="-2.90935">
        <ele>4.9</ele>
        <time>2026-08-29T13:06:22Z</time>
      </trkpt>
      <trkpt lat="47.54852" lon="-2.9094">
        <ele>4.8</ele>
        <time>2026-08-29T13:06:23Z</time>
      </trkpt>
      <trkpt lat="47.54849" lon="-2.90944">
        <ele>4.8</ele>
        <time>2026-08-29T13:06:24Z</time>
      </trkpt>
      <trkpt lat="47.54847" lon="-2.90949">
        <ele>5</ele>
        <time>2026-08-29T13:06:25Z</time>
      </trkpt>
      <trkpt lat="47.54844" lon="-2.90954">
        <ele>5.3</ele>
        <time>2026-08-29T13:06:26Z</time>
      </trkpt>
      <trkpt lat="47.54841" lon="-2.90959">
        <ele>5.4</ele>
        <time>2026-08-29T13:06:27Z</time>
      </trkpt>
      <trkpt lat="47.54838" lon="-2.90964">
        <ele>5.4</ele>
        <time>2026-08-29T13:06:28Z</time>
      </trkpt>
      <trkpt lat="47.54836" lon="-2.9097">
        <ele>5.1</ele>
        <time>2026-08-29T13:06:29Z</time>
      </trkpt>
      <trkpt lat="47.54833" lon="-2.90976">
        <ele>4.8</ele>
        <time>2026-08-29T13:06:30Z</time>
      </trkpt>
      <trkpt lat="47.54831" lon="-2.90981">
        <ele>4.6</ele>
        <time>2026-08-29T13:06:31Z</time>
      </trkpt>
      <trkpt lat="47.54829" lon="-2.90987">
        <ele>4.4</ele>
        <time>2026-08-29T13:06:32Z</time>
      </trkpt>
      <trkpt lat="47.54828" lon="-2.90993">
        <ele>4.2</ele>
        <time>2026-08-29T13:06:33Z</time>
      </trkpt>
      <trkpt lat="47.54827" lon="-2.90999">
        <ele>4</ele>
        <time>2026-08-29T13:06:34Z</time>
      </trkpt>
      <trkpt lat="47.54825" lon="-2.91006">
        <ele>4</ele>
        <time>2026-08-29T13:06:35Z</time>
      </trkpt>
      <trkpt lat="47.54825" lon="-2.91012">
        <ele>3.9</ele>
        <time>2026-08-29T13:06:36Z</time>
      </trkpt>
      <trkpt lat="47.54824" lon="-2.91019">
        <ele>3.9</ele>
        <time>2026-08-29T13:06:37Z</time>
      </trkpt>
      <trkpt lat="47.54824" lon="-2.91025">
        <ele>3.7</ele>
        <time>2026-08-29T13:06:38Z</time>
      </trkpt>
      <trkpt lat="47.54825" lon="-2.91032">
        <ele>3.7</ele>
        <time>2026-08-29T13:06:39Z</time>
      </trkpt>
      <trkpt lat="47.54825" lon="-2.91038">
        <ele>3.9</ele>
        <time>2026-08-29T13:06:40Z</time>
      </trkpt>
      <trkpt lat="47.54826" lon="-2.91044">
        <ele>3.9</ele>
        <time>2026-08-29T13:06:41Z</time>
      </trkpt>
      <trkpt lat="47.54826" lon="-2.91049">
        <ele>4.1</ele>
        <time>2026-08-29T13:06:42Z</time>
      </trkpt>
      <trkpt lat="47.54827" lon="-2.91055">
        <ele>4.1</ele>
        <time>2026-08-29T13:06:43Z</time>
      </trkpt>
      <trkpt lat="47.54827" lon="-2.9106">
        <ele>4.5</ele>
        <time>2026-08-29T13:06:44Z</time>
      </trkpt>
      <trkpt lat="47.54827" lon="-2.91066">
        <ele>5</ele>
        <time>2026-08-29T13:06:45Z</time>
      </trkpt>
      <trkpt lat="47.54827" lon="-2.91072">
        <ele>5.5</ele>
        <time>2026-08-29T13:06:46Z</time>
      </trkpt>
      <trkpt lat="47.54827" lon="-2.91077">
        <ele>5.9</ele>
        <time>2026-08-29T13:06:47Z</time>
      </trkpt>
      <trkpt lat="47.54827" lon="-2.91083">
        <ele>6.4</ele>
        <time>2026-08-29T13:06:48Z</time>
      </trkpt>
      <trkpt lat="47.54828" lon="-2.91088">
        <ele>6.7</ele>
        <time>2026-08-29T13:06:49Z</time>
      </trkpt>
      <trkpt lat="47.54828" lon="-2.91093">
        <ele>7</ele>
        <time>2026-08-29T13:06:50Z</time>
      </trkpt>
      <trkpt lat="47.54828" lon="-2.91099">
        <ele>7.4</ele>
        <time>2026-08-29T13:06:51Z</time>
      </trkpt>
      <trkpt lat="47.54827" lon="-2.91104">
        <ele>7.8</ele>
        <time>2026-08-29T13:06:52Z</time>
      </trkpt>
      <trkpt lat="47.54827" lon="-2.91109">
        <ele>8.1</ele>
        <time>2026-08-29T13:06:53Z</time>
      </trkpt>
      <trkpt lat="47.54826" lon="-2.91113">
        <ele>8.3</ele>
        <time>2026-08-29T13:06:54Z</time>
      </trkpt>
      <trkpt lat="47.54824" lon="-2.91118">
        <ele>8.3</ele>
        <time>2026-08-29T13:06:55Z</time>
      </trkpt>
      <trkpt lat="47.54823" lon="-2.91122">
        <ele>8.4</ele>
        <time>2026-08-29T13:06:56Z</time>
      </trkpt>
      <trkpt lat="47.54822" lon="-2.91127">
        <ele>8.4</ele>
        <time>2026-08-29T13:06:57Z</time>
      </trkpt>
      <trkpt lat="47.54821" lon="-2.91131">
        <ele>8.4</ele>
        <time>2026-08-29T13:06:58Z</time>
      </trkpt>
      <trkpt lat="47.54819" lon="-2.91135">
        <ele>8.5</ele>
        <time>2026-08-29T13:06:59Z</time>
      </trkpt>
      <trkpt lat="47.54818" lon="-2.91139">
        <ele>8.6</ele>
        <time>2026-08-29T13:07:00Z</time>
      </trkpt>
      <trkpt lat="47.54816" lon="-2.91143">
        <ele>8.8</ele>
        <time>2026-08-29T13:07:01Z</time>
      </trkpt>
      <trkpt lat="47.54815" lon="-2.91147">
        <ele>9</ele>
        <time>2026-08-29T13:07:02Z</time>
      </trkpt>
      <trkpt lat="47.54814" lon="-2.91151">
        <ele>9.3</ele>
        <time>2026-08-29T13:07:03Z</time>
      </trkpt>
      <trkpt lat="47.54812" lon="-2.91155">
        <ele>9.7</ele>
        <time>2026-08-29T13:07:04Z</time>
      </trkpt>
      <trkpt lat="47.54811" lon="-2.91158">
        <ele>9.9</ele>
        <time>2026-08-29T13:07:05Z</time>
      </trkpt>
      <trkpt lat="47.54809" lon="-2.91162">
        <ele>10.3</ele>
        <time>2026-08-29T13:07:06Z</time>
      </trkpt>
      <trkpt lat="47.54808" lon="-2.91166">
        <ele>10.7</ele>
        <time>2026-08-29T13:07:07Z</time>
      </trkpt>
      <trkpt lat="47.54806" lon="-2.91169">
        <ele>11</ele>
        <time>2026-08-29T13:07:08Z</time>
      </trkpt>
      <trkpt lat="47.54805" lon="-2.91172">
        <ele>11.2</ele>
        <time>2026-08-29T13:07:09Z</time>
      </trkpt>
      <trkpt lat="47.54803" lon="-2.91176">
        <ele>11.4</ele>
        <time>2026-08-29T13:07:10Z</time>
      </trkpt>
      <trkpt lat="47.54802" lon="-2.9118">
        <ele>11.6</ele>
        <time>2026-08-29T13:07:11Z</time>
      </trkpt>
      <trkpt lat="47.548" lon="-2.91183">
        <ele>11.8</ele>
        <time>2026-08-29T13:07:12Z</time>
      </trkpt>
      <trkpt lat="47.54799" lon="-2.91187">
        <ele>12</ele>
        <time>2026-08-29T13:07:13Z</time>
      </trkpt>
      <trkpt lat="47.54797" lon="-2.91191">
        <ele>12.2</ele>
        <time>2026-08-29T13:07:14Z</time>
      </trkpt>
      <trkpt lat="47.54795" lon="-2.91194">
        <ele>12.4</ele>
        <time>2026-08-29T13:07:15Z</time>
      </trkpt>
      <trkpt lat="47.54793" lon="-2.91196">
        <ele>12.3</ele>
        <time>2026-08-29T13:07:16Z</time>
      </trkpt>
      <trkpt lat="47.5479" lon="-2.91198">
        <ele>12.3</ele>
        <time>2026-08-29T13:07:17Z</time>
      </trkpt>
      <trkpt lat="47.54788" lon="-2.912">
        <ele>12.3</ele>
        <time>2026-08-29T13:07:18Z</time>
      </trkpt>
      <trkpt lat="47.54785" lon="-2.91202">
        <ele>12.3</ele>
        <time>2026-08-29T13:07:19Z</time>
      </trkpt>
      <trkpt lat="47.54782" lon="-2.91203">
        <ele>12.4</ele>
        <time>2026-08-29T13:07:20Z</time>
      </trkpt>
      <trkpt lat="47.5478" lon="-2.91205">
        <ele>12.5</ele>
        <time>2026-08-29T13:07:21Z</time>
      </trkpt>
      <trkpt lat="47.54777" lon="-2.91207">
        <ele>12.6</ele>
        <time>2026-08-29T13:07:22Z</time>
      </trkpt>
      <trkpt lat="47.54774" lon="-2.91208">
        <ele>12.6</ele>
        <time>2026-08-29T13:07:23Z</time>
      </trkpt>
      <trkpt lat="47.54771" lon="-2.9121">
        <ele>12.7</ele>
        <time>2026-08-29T13:07:24Z</time>
      </trkpt>
      <trkpt lat="47.54768" lon="-2.91212">
        <ele>12.7</ele>
        <time>2026-08-29T13:07:25Z</time>
      </trkpt>
      <trkpt lat="47.54765" lon="-2.91214">
        <ele>12.8</ele>
        <time>2026-08-29T13:07:26Z</time>
      </trkpt>
      <trkpt lat="47.54761" lon="-2.91217">
        <ele>12.8</ele>
        <time>2026-08-29T13:07:27Z</time>
      </trkpt>
      <trkpt lat="47.54758" lon="-2.9122">
        <ele>12.8</ele>
        <time>2026-08-29T13:07:28Z</time>
      </trkpt>
      <trkpt lat="47.54755" lon="-2.91224">
        <ele>12.7</ele>
        <time>2026-08-29T13:07:29Z</time>
      </trkpt>
      <trkpt lat="47.54752" lon="-2.91228">
        <ele>12.5</ele>
        <time>2026-08-29T13:07:30Z</time>
      </trkpt>
      <trkpt lat="47.54748" lon="-2.91233">
        <ele>12.3</ele>
        <time>2026-08-29T13:07:31Z</time>
      </trkpt>
      <trkpt lat="47.54746" lon="-2.91238">
        <ele>12</ele>
        <time>2026-08-29T13:07:32Z</time>
      </trkpt>
      <trkpt lat="47.54743" lon="-2.91243">
        <ele>11.8</ele>
        <time>2026-08-29T13:07:33Z</time>
      </trkpt>
      <trkpt lat="47.54741" lon="-2.91249">
        <ele>11.4</ele>
        <time>2026-08-29T13:07:34Z</time>
      </trkpt>
      <trkpt lat="47.54739" lon="-2.91255">
        <ele>11.1</ele>
        <time>2026-08-29T13:07:35Z</time>
      </trkpt>
      <trkpt lat="47.54737" lon="-2.91261">
        <ele>10.9</ele>
        <time>2026-08-29T13:07:36Z</time>
      </trkpt>
      <trkpt lat="47.54735" lon="-2.91268">
        <ele>10.6</ele>
        <time>2026-08-29T13:07:37Z</time>
      </trkpt>
      <trkpt lat="47.54733" lon="-2.91275">
        <ele>10.4</ele>
        <time>2026-08-29T13:07:38Z</time>
      </trkpt>
      <trkpt lat="47.54732" lon="-2.91282">
        <ele>10.2</ele>
        <time>2026-08-29T13:07:39Z</time>
      </trkpt>
      <trkpt lat="47.5473" lon="-2.91289">
        <ele>10.1</ele>
        <time>2026-08-29T13:07:40Z</time>
      </trkpt>
      <trkpt lat="47.54728" lon="-2.91296">
        <ele>10.1</ele>
        <time>2026-08-29T13:07:41Z</time>
      </trkpt>
      <trkpt lat="47.54727" lon="-2.91303">
        <ele>9.9</ele>
        <time>2026-08-29T13:07:42Z</time>
      </trkpt>
      <trkpt lat="47.54725" lon="-2.9131">
        <ele>9.7</ele>
        <time>2026-08-29T13:07:43Z</time>
      </trkpt>
      <trkpt lat="47.54724" lon="-2.91318">
        <ele>9.5</ele>
        <time>2026-08-29T13:07:44Z</time>
      </trkpt>
      <trkpt lat="47.54722" lon="-2.91325">
        <ele>9.3</ele>
        <time>2026-08-29T13:07:45Z</time>
      </trkpt>
      <trkpt lat="47.54721" lon="-2.91332">
        <ele>9</ele>
        <time>2026-08-29T13:07:46Z</time>
      </trkpt>
      <trkpt lat="47.54719" lon="-2.91339">
        <ele>9</ele>
        <time>2026-08-29T13:07:47Z</time>
      </trkpt>
      <trkpt lat="47.54718" lon="-2.91345">
        <ele>9</ele>
        <time>2026-08-29T13:07:48Z</time>
      </trkpt>
      <trkpt lat="47.54716" lon="-2.91352">
        <ele>9</ele>
        <time>2026-08-29T13:07:49Z</time>
      </trkpt>
      <trkpt lat="47.54715" lon="-2.91358">
        <ele>9</ele>
        <time>2026-08-29T13:07:50Z</time>
      </trkpt>
      <trkpt lat="47.54713" lon="-2.91364">
        <ele>8.9</ele>
        <time>2026-08-29T13:07:51Z</time>
      </trkpt>
      <trkpt lat="47.54712" lon="-2.9137">
        <ele>8.8</ele>
        <time>2026-08-29T13:07:52Z</time>
      </trkpt>
      <trkpt lat="47.5471" lon="-2.91377">
        <ele>8.7</ele>
        <time>2026-08-29T13:07:53Z</time>
      </trkpt>
      <trkpt lat="47.54709" lon="-2.91383">
        <ele>8.6</ele>
        <time>2026-08-29T13:07:54Z</time>
      </trkpt>
      <trkpt lat="47.54708" lon="-2.91389">
        <ele>8.5</ele>
        <time>2026-08-29T13:07:55Z</time>
      </trkpt>
      <trkpt lat="47.54707" lon="-2.91394">
        <ele>8.6</ele>
        <time>2026-08-29T13:07:56Z</time>
      </trkpt>
      <trkpt lat="47.54706" lon="-2.914">
        <ele>8.8</ele>
        <time>2026-08-29T13:07:57Z</time>
      </trkpt>
      <trkpt lat="47.54705" lon="-2.91406">
        <ele>8.9</ele>
        <time>2026-08-29T13:07:58Z</time>
      </trkpt>
      <trkpt lat="47.54704" lon="-2.91411">
        <ele>8.9</ele>
        <time>2026-08-29T13:07:59Z</time>
      </trkpt>
      <trkpt lat="47.54703" lon="-2.91417">
        <ele>9</ele>
        <time>2026-08-29T13:08:00Z</time>
      </trkpt>
      <trkpt lat="47.54701" lon="-2.91423">
        <ele>9</ele>
        <time>2026-08-29T13:08:01Z</time>
      </trkpt>
      <trkpt lat="47.547" lon="-2.91428">
        <ele>9</ele>
        <time>2026-08-29T13:08:02Z</time>
      </trkpt>
      <trkpt lat="47.54699" lon="-2.91434">
        <ele>9</ele>
        <time>2026-08-29T13:08:03Z</time>
      </trkpt>
      <trkpt lat="47.54698" lon="-2.91439">
        <ele>9</ele>
        <time>2026-08-29T13:08:04Z</time>
      </trkpt>
      <trkpt lat="47.54697" lon="-2.91445">
        <ele>9</ele>
        <time>2026-08-29T13:08:05Z</time>
      </trkpt>
      <trkpt lat="47.54696" lon="-2.91451">
        <ele>9</ele>
        <time>2026-08-29T13:08:06Z</time>
      </trkpt>
      <trkpt lat="47.54695" lon="-2.91457">
        <ele>9</ele>
        <time>2026-08-29T13:08:07Z</time>
      </trkpt>
      <trkpt lat="47.54694" lon="-2.91462">
        <ele>9</ele>
        <time>2026-08-29T13:08:08Z</time>
      </trkpt>
      <trkpt lat="47.54694" lon="-2.91467">
        <ele>9</ele>
        <time>2026-08-29T13:08:09Z</time>
      </trkpt>
      <trkpt lat="47.54693" lon="-2.91471">
        <ele>9</ele>
        <time>2026-08-29T13:08:10Z</time>
      </trkpt>
      <trkpt lat="47.54694" lon="-2.91476">
        <ele>9</ele>
        <time>2026-08-29T13:08:11Z</time>
      </trkpt>
      <trkpt lat="47.54695" lon="-2.9148">
        <ele>9</ele>
        <time>2026-08-29T13:08:12Z</time>
      </trkpt>
      <trkpt lat="47.54697" lon="-2.91485">
        <ele>8.9</ele>
        <time>2026-08-29T13:08:13Z</time>
      </trkpt>
      <trkpt lat="47.54699" lon="-2.91489">
        <ele>8.8</ele>
        <time>2026-08-29T13:08:14Z</time>
      </trkpt>
      <trkpt lat="47.54702" lon="-2.91493">
        <ele>8.7</ele>
        <time>2026-08-29T13:08:15Z</time>
      </trkpt>
      <trkpt lat="47.54706" lon="-2.91497">
        <ele>8.6</ele>
        <time>2026-08-29T13:08:16Z</time>
      </trkpt>
      <trkpt lat="47.54709" lon="-2.91502">
        <ele>8.5</ele>
        <time>2026-08-29T13:08:17Z</time>
      </trkpt>
      <trkpt lat="47.54712" lon="-2.91506">
        <ele>8.4</ele>
        <time>2026-08-29T13:08:18Z</time>
      </trkpt>
      <trkpt lat="47.54716" lon="-2.9151">
        <ele>8.2</ele>
        <time>2026-08-29T13:08:19Z</time>
      </trkpt>
      <trkpt lat="47.5472" lon="-2.91515">
        <ele>8.1</ele>
        <time>2026-08-29T13:08:20Z</time>
      </trkpt>
      <trkpt lat="47.54724" lon="-2.9152">
        <ele>7.9</ele>
        <time>2026-08-29T13:08:21Z</time>
      </trkpt>
      <trkpt lat="47.54728" lon="-2.91525">
        <ele>7.8</ele>
        <time>2026-08-29T13:08:22Z</time>
      </trkpt>
      <trkpt lat="47.54732" lon="-2.9153">
        <ele>7.6</ele>
        <time>2026-08-29T13:08:23Z</time>
      </trkpt>
      <trkpt lat="47.54736" lon="-2.91535">
        <ele>7.4</ele>
        <time>2026-08-29T13:08:24Z</time>
      </trkpt>
      <trkpt lat="47.54741" lon="-2.91539">
        <ele>7.1</ele>
        <time>2026-08-29T13:08:25Z</time>
      </trkpt>
      <trkpt lat="47.54746" lon="-2.91544">
        <ele>6.6</ele>
        <time>2026-08-29T13:08:26Z</time>
      </trkpt>
      <trkpt lat="47.54751" lon="-2.91549">
        <ele>6.2</ele>
        <time>2026-08-29T13:08:27Z</time>
      </trkpt>
      <trkpt lat="47.54756" lon="-2.91554">
        <ele>5.8</ele>
        <time>2026-08-29T13:08:28Z</time>
      </trkpt>
      <trkpt lat="47.54761" lon="-2.9156">
        <ele>5.8</ele>
        <time>2026-08-29T13:08:29Z</time>
      </trkpt>
      <trkpt lat="47.54766" lon="-2.91565">
        <ele>5.7</ele>
        <time>2026-08-29T13:08:30Z</time>
      </trkpt>
      <trkpt lat="47.54771" lon="-2.91571">
        <ele>5.5</ele>
        <time>2026-08-29T13:08:31Z</time>
      </trkpt>
      <trkpt lat="47.54777" lon="-2.91577">
        <ele>5.1</ele>
        <time>2026-08-29T13:08:32Z</time>
      </trkpt>
      <trkpt lat="47.54782" lon="-2.91583">
        <ele>4.8</ele>
        <time>2026-08-29T13:08:33Z</time>
      </trkpt>
      <trkpt lat="47.54788" lon="-2.91588">
        <ele>4.9</ele>
        <time>2026-08-29T13:08:34Z</time>
      </trkpt>
      <trkpt lat="47.54793" lon="-2.91594">
        <ele>5</ele>
        <time>2026-08-29T13:08:35Z</time>
      </trkpt>
      <trkpt lat="47.54799" lon="-2.91599">
        <ele>4.9</ele>
        <time>2026-08-29T13:08:36Z</time>
      </trkpt>
      <trkpt lat="47.54804" lon="-2.91604">
        <ele>4.8</ele>
        <time>2026-08-29T13:08:37Z</time>
      </trkpt>
      <trkpt lat="47.54809" lon="-2.9161">
        <ele>4.8</ele>
        <time>2026-08-29T13:08:38Z</time>
      </trkpt>
      <trkpt lat="47.54814" lon="-2.91615">
        <ele>4.9</ele>
        <time>2026-08-29T13:08:39Z</time>
      </trkpt>
      <trkpt lat="47.54818" lon="-2.91621">
        <ele>4.9</ele>
        <time>2026-08-29T13:08:40Z</time>
      </trkpt>
      <trkpt lat="47.54823" lon="-2.91626">
        <ele>4.8</ele>
        <time>2026-08-29T13:08:41Z</time>
      </trkpt>
      <trkpt lat="47.54828" lon="-2.91631">
        <ele>4.5</ele>
        <time>2026-08-29T13:08:42Z</time>
      </trkpt>
      <trkpt lat="47.54832" lon="-2.91636">
        <ele>4.1</ele>
        <time>2026-08-29T13:08:43Z</time>
      </trkpt>
      <trkpt lat="47.54836" lon="-2.91641">
        <ele>4</ele>
        <time>2026-08-29T13:08:44Z</time>
      </trkpt>
      <trkpt lat="47.5484" lon="-2.91646">
        <ele>4.1</ele>
        <time>2026-08-29T13:08:45Z</time>
      </trkpt>
      <trkpt lat="47.54845" lon="-2.91651">
        <ele>3.9</ele>
        <time>2026-08-29T13:08:46Z</time>
      </trkpt>
      <trkpt lat="47.54849" lon="-2.91655">
        <ele>3.6</ele>
        <time>2026-08-29T13:08:47Z</time>
      </trkpt>
      <trkpt lat="47.54853" lon="-2.9166">
        <ele>3.2</ele>
        <time>2026-08-29T13:08:48Z</time>
      </trkpt>
      <trkpt lat="47.54857" lon="-2.91664">
        <ele>2.6</ele>
        <time>2026-08-29T13:08:49Z</time>
      </trkpt>
      <trkpt lat="47.54861" lon="-2.91668">
        <ele>2.2</ele>
        <time>2026-08-29T13:08:50Z</time>
      </trkpt>
      <trkpt lat="47.54864" lon="-2.91673">
        <ele>2.6</ele>
        <time>2026-08-29T13:08:51Z</time>
      </trkpt>
      <trkpt lat="47.54868" lon="-2.91677">
        <ele>2.8</ele>
        <time>2026-08-29T13:08:52Z</time>
      </trkpt>
      <trkpt lat="47.54871" lon="-2.91681">
        <ele>3</ele>
        <time>2026-08-29T13:08:53Z</time>
      </trkpt>
      <trkpt lat="47.54874" lon="-2.91684">
        <ele>3</ele>
        <time>2026-08-29T13:08:54Z</time>
      </trkpt>
      <trkpt lat="47.54878" lon="-2.91687">
        <ele>2.9</ele>
        <time>2026-08-29T13:08:55Z</time>
      </trkpt>
      <trkpt lat="47.54881" lon="-2.9169">
        <ele>2.7</ele>
        <time>2026-08-29T13:08:56Z</time>
      </trkpt>
      <trkpt lat="47.54883" lon="-2.91692">
        <ele>2.6</ele>
        <time>2026-08-29T13:08:57Z</time>
      </trkpt>
      <trkpt lat="47.54886" lon="-2.91693">
        <ele>2.3</ele>
        <time>2026-08-29T13:08:58Z</time>
      </trkpt>
      <trkpt lat="47.54887" lon="-2.91695">
        <ele>2.2</ele>
        <time>2026-08-29T13:08:59Z</time>
      </trkpt>
      <trkpt lat="47.54888" lon="-2.91697">
        <ele>2.1</ele>
        <time>2026-08-29T13:09:00Z</time>
      </trkpt>
      <trkpt lat="47.54889" lon="-2.91699">
        <ele>2</ele>
        <time>2026-08-29T13:09:01Z</time>
      </trkpt>
      <trkpt lat="47.54889" lon="-2.917">
        <ele>2</ele>
        <time>2026-08-29T13:09:02Z</time>
      </trkpt>
      <trkpt lat="47.54889" lon="-2.91701">
        <ele>2</ele>
        <time>2026-08-29T13:09:03Z</time>
      </trkpt>
      <trkpt lat="47.54883" lon="-2.91697">
        <ele>2.7</ele>
        <time>2026-08-29T13:10:29Z</time>
      </trkpt>
      <trkpt lat="47.54881" lon="-2.91697">
        <ele>2.9</ele>
        <time>2026-08-29T13:10:30Z</time>
      </trkpt>
      <trkpt lat="47.54879" lon="-2.91698">
        <ele>3.2</ele>
        <time>2026-08-29T13:10:31Z</time>
      </trkpt>
      <trkpt lat="47.54877" lon="-2.91699">
        <ele>3.5</ele>
        <time>2026-08-29T13:10:32Z</time>
      </trkpt>
      <trkpt lat="47.54876" lon="-2.91701">
        <ele>3.7</ele>
        <time>2026-08-29T13:10:33Z</time>
      </trkpt>
      <trkpt lat="47.54874" lon="-2.91702">
        <ele>4</ele>
        <time>2026-08-29T13:10:34Z</time>
      </trkpt>
      <trkpt lat="47.54872" lon="-2.91704">
        <ele>4.5</ele>
        <time>2026-08-29T13:10:35Z</time>
      </trkpt>
      <trkpt lat="47.5487" lon="-2.91705">
        <ele>4.8</ele>
        <time>2026-08-29T13:10:36Z</time>
      </trkpt>
      <trkpt lat="47.54869" lon="-2.91706">
        <ele>5</ele>
        <time>2026-08-29T13:10:37Z</time>
      </trkpt>
      <trkpt lat="47.54867" lon="-2.91707">
        <ele>5.4</ele>
        <time>2026-08-29T13:10:38Z</time>
      </trkpt>
      <trkpt lat="47.54865" lon="-2.91708">
        <ele>5.8</ele>
        <time>2026-08-29T13:10:39Z</time>
      </trkpt>
      <trkpt lat="47.54862" lon="-2.9171">
        <ele>6.5</ele>
        <time>2026-08-29T13:10:40Z</time>
      </trkpt>
      <trkpt lat="47.5486" lon="-2.91711">
        <ele>6.8</ele>
        <time>2026-08-29T13:10:41Z</time>
      </trkpt>
      <trkpt lat="47.54858" lon="-2.91712">
        <ele>7</ele>
        <time>2026-08-29T13:10:42Z</time>
      </trkpt>
      <trkpt lat="47.54856" lon="-2.91713">
        <ele>7.1</ele>
        <time>2026-08-29T13:10:43Z</time>
      </trkpt>
      <trkpt lat="47.54853" lon="-2.91714">
        <ele>7.3</ele>
        <time>2026-08-29T13:10:44Z</time>
      </trkpt>
      <trkpt lat="47.54851" lon="-2.91715">
        <ele>7.4</ele>
        <time>2026-08-29T13:10:45Z</time>
      </trkpt>
      <trkpt lat="47.54848" lon="-2.91717">
        <ele>7.6</ele>
        <time>2026-08-29T13:10:46Z</time>
      </trkpt>
      <trkpt lat="47.54846" lon="-2.91718">
        <ele>7.7</ele>
        <time>2026-08-29T13:10:47Z</time>
      </trkpt>
      <trkpt lat="47.54844" lon="-2.91719">
        <ele>7.8</ele>
        <time>2026-08-29T13:10:48Z</time>
      </trkpt>
      <trkpt lat="47.54842" lon="-2.91721">
        <ele>7.9</ele>
        <time>2026-08-29T13:10:49Z</time>
      </trkpt>
      <trkpt lat="47.54839" lon="-2.91722">
        <ele>8</ele>
        <time>2026-08-29T13:10:50Z</time>
      </trkpt>
      <trkpt lat="47.54837" lon="-2.91724">
        <ele>8.1</ele>
        <time>2026-08-29T13:10:51Z</time>
      </trkpt>
      <trkpt lat="47.54834" lon="-2.91725">
        <ele>8.2</ele>
        <time>2026-08-29T13:10:52Z</time>
      </trkpt>
      <trkpt lat="47.54832" lon="-2.91727">
        <ele>8.4</ele>
        <time>2026-08-29T13:10:53Z</time>
      </trkpt>
      <trkpt lat="47.54829" lon="-2.91728">
        <ele>8.6</ele>
        <time>2026-08-29T13:10:54Z</time>
      </trkpt>
      <trkpt lat="47.54827" lon="-2.9173">
        <ele>8.8</ele>
        <time>2026-08-29T13:10:55Z</time>
      </trkpt>
      <trkpt lat="47.54824" lon="-2.91732">
        <ele>9</ele>
        <time>2026-08-29T13:10:56Z</time>
      </trkpt>
      <trkpt lat="47.54821" lon="-2.91734">
        <ele>9.3</ele>
        <time>2026-08-29T13:10:57Z</time>
      </trkpt>
      <trkpt lat="47.54819" lon="-2.91735">
        <ele>9.4</ele>
        <time>2026-08-29T13:10:58Z</time>
      </trkpt>
      <trkpt lat="47.54816" lon="-2.91737">
        <ele>9.7</ele>
        <time>2026-08-29T13:10:59Z</time>
      </trkpt>
      <trkpt lat="47.54814" lon="-2.91739">
        <ele>9.9</ele>
        <time>2026-08-29T13:11:00Z</time>
      </trkpt>
      <trkpt lat="47.54811" lon="-2.9174">
        <ele>10.1</ele>
        <time>2026-08-29T13:11:01Z</time>
      </trkpt>
      <trkpt lat="47.54809" lon="-2.91741">
        <ele>10.2</ele>
        <time>2026-08-29T13:11:02Z</time>
      </trkpt>
      <trkpt lat="47.54806" lon="-2.91743">
        <ele>10.5</ele>
        <time>2026-08-29T13:11:03Z</time>
      </trkpt>
      <trkpt lat="47.54803" lon="-2.91745">
        <ele>10.7</ele>
        <time>2026-08-29T13:11:04Z</time>
      </trkpt>
      <trkpt lat="47.54801" lon="-2.91746">
        <ele>10.7</ele>
        <time>2026-08-29T13:11:05Z</time>
      </trkpt>
      <trkpt lat="47.54798" lon="-2.91748">
        <ele>10.9</ele>
        <time>2026-08-29T13:11:06Z</time>
      </trkpt>
      <trkpt lat="47.54795" lon="-2.91749">
        <ele>10.9</ele>
        <time>2026-08-29T13:11:07Z</time>
      </trkpt>
      <trkpt lat="47.54793" lon="-2.91751">
        <ele>11.1</ele>
        <time>2026-08-29T13:11:08Z</time>
      </trkpt>
      <trkpt lat="47.5479" lon="-2.91753">
        <ele>11.2</ele>
        <time>2026-08-29T13:11:09Z</time>
      </trkpt>
      <trkpt lat="47.54788" lon="-2.91755">
        <ele>11.3</ele>
        <time>2026-08-29T13:11:10Z</time>
      </trkpt>
      <trkpt lat="47.54785" lon="-2.91756">
        <ele>11.4</ele>
        <time>2026-08-29T13:11:11Z</time>
      </trkpt>
      <trkpt lat="47.54783" lon="-2.91758">
        <ele>11.5</ele>
        <time>2026-08-29T13:11:12Z</time>
      </trkpt>
      <trkpt lat="47.5478" lon="-2.9176">
        <ele>11.7</ele>
        <time>2026-08-29T13:11:13Z</time>
      </trkpt>
      <trkpt lat="47.54778" lon="-2.91762">
        <ele>11.9</ele>
        <time>2026-08-29T13:11:14Z</time>
      </trkpt>
      <trkpt lat="47.54775" lon="-2.91763">
        <ele>11.9</ele>
        <time>2026-08-29T13:11:15Z</time>
      </trkpt>
      <trkpt lat="47.54773" lon="-2.91765">
        <ele>12.1</ele>
        <time>2026-08-29T13:11:16Z</time>
      </trkpt>
      <trkpt lat="47.5477" lon="-2.91767">
        <ele>12.2</ele>
        <time>2026-08-29T13:11:17Z</time>
      </trkpt>
      <trkpt lat="47.54767" lon="-2.91768">
        <ele>12.2</ele>
        <time>2026-08-29T13:11:18Z</time>
      </trkpt>
      <trkpt lat="47.54765" lon="-2.9177">
        <ele>12.2</ele>
        <time>2026-08-29T13:11:19Z</time>
      </trkpt>
      <trkpt lat="47.54762" lon="-2.91771">
        <ele>12.2</ele>
        <time>2026-08-29T13:11:20Z</time>
      </trkpt>
      <trkpt lat="47.5476" lon="-2.91772">
        <ele>12.2</ele>
        <time>2026-08-29T13:11:21Z</time>
      </trkpt>
      <trkpt lat="47.54757" lon="-2.91774">
        <ele>12.2</ele>
        <time>2026-08-29T13:11:22Z</time>
      </trkpt>
      <trkpt lat="47.54754" lon="-2.91775">
        <ele>12.1</ele>
        <time>2026-08-29T13:11:23Z</time>
      </trkpt>
      <trkpt lat="47.54751" lon="-2.91775">
        <ele>12</ele>
        <time>2026-08-29T13:11:24Z</time>
      </trkpt>
      <trkpt lat="47.54748" lon="-2.91775">
        <ele>12</ele>
        <time>2026-08-29T13:11:25Z</time>
      </trkpt>
      <trkpt lat="47.54745" lon="-2.91775">
        <ele>12</ele>
        <time>2026-08-29T13:11:26Z</time>
      </trkpt>
      <trkpt lat="47.54742" lon="-2.91775">
        <ele>12</ele>
        <time>2026-08-29T13:11:27Z</time>
      </trkpt>
      <trkpt lat="47.54739" lon="-2.91774">
        <ele>12.1</ele>
        <time>2026-08-29T13:11:28Z</time>
      </trkpt>
      <trkpt lat="47.54737" lon="-2.91772">
        <ele>12.1</ele>
        <time>2026-08-29T13:11:29Z</time>
      </trkpt>
      <trkpt lat="47.54734" lon="-2.91771">
        <ele>12.1</ele>
        <time>2026-08-29T13:11:30Z</time>
      </trkpt>
      <trkpt lat="47.54732" lon="-2.91769">
        <ele>12.2</ele>
        <time>2026-08-29T13:11:31Z</time>
      </trkpt>
      <trkpt lat="47.54729" lon="-2.91767">
        <ele>12.3</ele>
        <time>2026-08-29T13:11:32Z</time>
      </trkpt>
      <trkpt lat="47.54727" lon="-2.91765">
        <ele>12.4</ele>
        <time>2026-08-29T13:11:33Z</time>
      </trkpt>
      <trkpt lat="47.54725" lon="-2.91762">
        <ele>12.5</ele>
        <time>2026-08-29T13:11:34Z</time>
      </trkpt>
      <trkpt lat="47.54722" lon="-2.91759">
        <ele>12.7</ele>
        <time>2026-08-29T13:11:35Z</time>
      </trkpt>
      <trkpt lat="47.5472" lon="-2.91756">
        <ele>12.9</ele>
        <time>2026-08-29T13:11:36Z</time>
      </trkpt>
      <trkpt lat="47.54718" lon="-2.91753">
        <ele>13.2</ele>
        <time>2026-08-29T13:11:37Z</time>
      </trkpt>
      <trkpt lat="47.54716" lon="-2.91749">
        <ele>13.4</ele>
        <time>2026-08-29T13:11:38Z</time>
      </trkpt>
      <trkpt lat="47.54714" lon="-2.91746">
        <ele>13.5</ele>
        <time>2026-08-29T13:11:39Z</time>
      </trkpt>
      <trkpt lat="47.54713" lon="-2.91742">
        <ele>13.6</ele>
        <time>2026-08-29T13:11:40Z</time>
      </trkpt>
      <trkpt lat="47.54711" lon="-2.91739">
        <ele>13.6</ele>
        <time>2026-08-29T13:11:41Z</time>
      </trkpt>
      <trkpt lat="47.54709" lon="-2.91735">
        <ele>13.7</ele>
        <time>2026-08-29T13:11:42Z</time>
      </trkpt>
      <trkpt lat="47.54707" lon="-2.91732">
        <ele>13.7</ele>
        <time>2026-08-29T13:11:43Z</time>
      </trkpt>
      <trkpt lat="47.54705" lon="-2.91729">
        <ele>13.8</ele>
        <time>2026-08-29T13:11:44Z</time>
      </trkpt>
      <trkpt lat="47.54703" lon="-2.91727">
        <ele>13.8</ele>
        <time>2026-08-29T13:11:45Z</time>
      </trkpt>
      <trkpt lat="47.547" lon="-2.91724">
        <ele>13.9</ele>
        <time>2026-08-29T13:11:46Z</time>
      </trkpt>
      <trkpt lat="47.54698" lon="-2.91721">
        <ele>13.8</ele>
        <time>2026-08-29T13:11:47Z</time>
      </trkpt>
      <trkpt lat="47.54695" lon="-2.91718">
        <ele>13.8</ele>
        <time>2026-08-29T13:11:48Z</time>
      </trkpt>
      <trkpt lat="47.54693" lon="-2.91715">
        <ele>13.8</ele>
        <time>2026-08-29T13:11:49Z</time>
      </trkpt>
      <trkpt lat="47.5469" lon="-2.91712">
        <ele>14</ele>
        <time>2026-08-29T13:11:50Z</time>
      </trkpt>
      <trkpt lat="47.54688" lon="-2.91709">
        <ele>14</ele>
        <time>2026-08-29T13:11:51Z</time>
      </trkpt>
      <trkpt lat="47.54686" lon="-2.91706">
        <ele>14</ele>
        <time>2026-08-29T13:11:52Z</time>
      </trkpt>
      <trkpt lat="47.54684" lon="-2.91703">
        <ele>14.1</ele>
        <time>2026-08-29T13:11:53Z</time>
      </trkpt>
      <trkpt lat="47.54682" lon="-2.91699">
        <ele>14.1</ele>
        <time>2026-08-29T13:11:54Z</time>
      </trkpt>
      <trkpt lat="47.5468" lon="-2.91694">
        <ele>14</ele>
        <time>2026-08-29T13:11:55Z</time>
      </trkpt>
      <trkpt lat="47.54678" lon="-2.9169">
        <ele>14.1</ele>
        <time>2026-08-29T13:11:56Z</time>
      </trkpt>
      <trkpt lat="47.54677" lon="-2.91685">
        <ele>14</ele>
        <time>2026-08-29T13:11:57Z</time>
      </trkpt>
      <trkpt lat="47.54675" lon="-2.91679">
        <ele>14</ele>
        <time>2026-08-29T13:11:58Z</time>
      </trkpt>
      <trkpt lat="47.54675" lon="-2.91674">
        <ele>13.9</ele>
        <time>2026-08-29T13:11:59Z</time>
      </trkpt>
      <trkpt lat="47.54674" lon="-2.91668">
        <ele>13.8</ele>
        <time>2026-08-29T13:12:00Z</time>
      </trkpt>
      <trkpt lat="47.54674" lon="-2.91662">
        <ele>13.6</ele>
        <time>2026-08-29T13:12:01Z</time>
      </trkpt>
      <trkpt lat="47.54674" lon="-2.91656">
        <ele>13.4</ele>
        <time>2026-08-29T13:12:02Z</time>
      </trkpt>
      <trkpt lat="47.54674" lon="-2.91649">
        <ele>13.1</ele>
        <time>2026-08-29T13:12:03Z</time>
      </trkpt>
      <trkpt lat="47.54675" lon="-2.91643">
        <ele>12.8</ele>
        <time>2026-08-29T13:12:04Z</time>
      </trkpt>
      <trkpt lat="47.54676" lon="-2.91636">
        <ele>12.6</ele>
        <time>2026-08-29T13:12:05Z</time>
      </trkpt>
      <trkpt lat="47.54677" lon="-2.91629">
        <ele>12.4</ele>
        <time>2026-08-29T13:12:06Z</time>
      </trkpt>
      <trkpt lat="47.54677" lon="-2.91621">
        <ele>12.2</ele>
        <time>2026-08-29T13:12:07Z</time>
      </trkpt>
      <trkpt lat="47.54678" lon="-2.91614">
        <ele>12.1</ele>
        <time>2026-08-29T13:12:08Z</time>
      </trkpt>
      <trkpt lat="47.54678" lon="-2.91606">
        <ele>11.9</ele>
        <time>2026-08-29T13:12:09Z</time>
      </trkpt>
      <trkpt lat="47.54679" lon="-2.91598">
        <ele>11.8</ele>
        <time>2026-08-29T13:12:10Z</time>
      </trkpt>
      <trkpt lat="47.5468" lon="-2.9159">
        <ele>11.6</ele>
        <time>2026-08-29T13:12:11Z</time>
      </trkpt>
      <trkpt lat="47.54681" lon="-2.91581">
        <ele>11.4</ele>
        <time>2026-08-29T13:12:12Z</time>
      </trkpt>
      <trkpt lat="47.54682" lon="-2.91573">
        <ele>10.9</ele>
        <time>2026-08-29T13:12:13Z</time>
      </trkpt>
      <trkpt lat="47.54683" lon="-2.91563">
        <ele>10.2</ele>
        <time>2026-08-29T13:12:14Z</time>
      </trkpt>
      <trkpt lat="47.54684" lon="-2.91554">
        <ele>9.7</ele>
        <time>2026-08-29T13:12:15Z</time>
      </trkpt>
      <trkpt lat="47.54685" lon="-2.91545">
        <ele>9.6</ele>
        <time>2026-08-29T13:12:16Z</time>
      </trkpt>
      <trkpt lat="47.54686" lon="-2.91536">
        <ele>9.4</ele>
        <time>2026-08-29T13:12:17Z</time>
      </trkpt>
      <trkpt lat="47.54686" lon="-2.91527">
        <ele>9.3</ele>
        <time>2026-08-29T13:12:18Z</time>
      </trkpt>
      <trkpt lat="47.54687" lon="-2.91518">
        <ele>9.3</ele>
        <time>2026-08-29T13:12:19Z</time>
      </trkpt>
      <trkpt lat="47.54688" lon="-2.91509">
        <ele>9.2</ele>
        <time>2026-08-29T13:12:20Z</time>
      </trkpt>
      <trkpt lat="47.54689" lon="-2.915">
        <ele>9.2</ele>
        <time>2026-08-29T13:12:21Z</time>
      </trkpt>
      <trkpt lat="47.5469" lon="-2.91493">
        <ele>9.2</ele>
        <time>2026-08-29T13:12:22Z</time>
      </trkpt>
      <trkpt lat="47.5469" lon="-2.91486">
        <ele>9.2</ele>
        <time>2026-08-29T13:12:23Z</time>
      </trkpt>
      <trkpt lat="47.54689" lon="-2.91479">
        <ele>9.2</ele>
        <time>2026-08-29T13:12:24Z</time>
      </trkpt>
      <trkpt lat="47.54686" lon="-2.91473">
        <ele>9.3</ele>
        <time>2026-08-29T13:12:25Z</time>
      </trkpt>
      <trkpt lat="47.54683" lon="-2.91467">
        <ele>9.3</ele>
        <time>2026-08-29T13:12:26Z</time>
      </trkpt>
      <trkpt lat="47.5468" lon="-2.91463">
        <ele>9.3</ele>
        <time>2026-08-29T13:12:27Z</time>
      </trkpt>
      <trkpt lat="47.54676" lon="-2.91459">
        <ele>9.3</ele>
        <time>2026-08-29T13:12:28Z</time>
      </trkpt>
      <trkpt lat="47.54673" lon="-2.91455">
        <ele>9.3</ele>
        <time>2026-08-29T13:12:29Z</time>
      </trkpt>
      <trkpt lat="47.54669" lon="-2.91451">
        <ele>9.2</ele>
        <time>2026-08-29T13:12:30Z</time>
      </trkpt>
      <trkpt lat="47.54665" lon="-2.91447">
        <ele>9</ele>
        <time>2026-08-29T13:12:31Z</time>
      </trkpt>
      <trkpt lat="47.54661" lon="-2.91443">
        <ele>8.8</ele>
        <time>2026-08-29T13:12:32Z</time>
      </trkpt>
      <trkpt lat="47.54658" lon="-2.91439">
        <ele>8.7</ele>
        <time>2026-08-29T13:12:33Z</time>
      </trkpt>
      <trkpt lat="47.54654" lon="-2.91435">
        <ele>8.7</ele>
        <time>2026-08-29T13:12:34Z</time>
      </trkpt>
      <trkpt lat="47.5465" lon="-2.91431">
        <ele>8.7</ele>
        <time>2026-08-29T13:12:35Z</time>
      </trkpt>
      <trkpt lat="47.54647" lon="-2.91427">
        <ele>8.7</ele>
        <time>2026-08-29T13:12:36Z</time>
      </trkpt>
      <trkpt lat="47.54643" lon="-2.91423">
        <ele>8.8</ele>
        <time>2026-08-29T13:12:37Z</time>
      </trkpt>
      <trkpt lat="47.5464" lon="-2.91419">
        <ele>8.9</ele>
        <time>2026-08-29T13:12:38Z</time>
      </trkpt>
      <trkpt lat="47.54636" lon="-2.91415">
        <ele>8.9</ele>
        <time>2026-08-29T13:12:39Z</time>
      </trkpt>
      <trkpt lat="47.54633" lon="-2.91411">
        <ele>8.8</ele>
        <time>2026-08-29T13:12:40Z</time>
      </trkpt>
      <trkpt lat="47.54629" lon="-2.91408">
        <ele>8.8</ele>
        <time>2026-08-29T13:12:41Z</time>
      </trkpt>
      <trkpt lat="47.54626" lon="-2.91404">
        <ele>8.7</ele>
        <time>2026-08-29T13:12:42Z</time>
      </trkpt>
      <trkpt lat="47.54622" lon="-2.91401">
        <ele>8.7</ele>
        <time>2026-08-29T13:12:43Z</time>
      </trkpt>
      <trkpt lat="47.54618" lon="-2.91399">
        <ele>8.7</ele>
        <time>2026-08-29T13:12:44Z</time>
      </trkpt>
      <trkpt lat="47.54615" lon="-2.91396">
        <ele>8.8</ele>
        <time>2026-08-29T13:12:45Z</time>
      </trkpt>
      <trkpt lat="47.54612" lon="-2.91394">
        <ele>8.8</ele>
        <time>2026-08-29T13:12:46Z</time>
      </trkpt>
      <trkpt lat="47.54609" lon="-2.91392">
        <ele>8.5</ele>
        <time>2026-08-29T13:12:47Z</time>
      </trkpt>
      <trkpt lat="47.54606" lon="-2.91389">
        <ele>8.1</ele>
        <time>2026-08-29T13:12:48Z</time>
      </trkpt>
      <trkpt lat="47.54604" lon="-2.91389">
        <ele>7.7</ele>
        <time>2026-08-29T13:12:49Z</time>
      </trkpt>
      <trkpt lat="47.54601" lon="-2.9139">
        <ele>7.1</ele>
        <time>2026-08-29T13:12:50Z</time>
      </trkpt>
      <trkpt lat="47.546" lon="-2.91393">
        <ele>6.9</ele>
        <time>2026-08-29T13:12:51Z</time>
      </trkpt>
      <trkpt lat="47.54599" lon="-2.91396">
        <ele>6.6</ele>
        <time>2026-08-29T13:12:52Z</time>
      </trkpt>
      <trkpt lat="47.54597" lon="-2.91398">
        <ele>6.1</ele>
        <time>2026-08-29T13:12:53Z</time>
      </trkpt>
      <trkpt lat="47.54595" lon="-2.91397">
        <ele>5.8</ele>
        <time>2026-08-29T13:12:54Z</time>
      </trkpt>
      <trkpt lat="47.54595" lon="-2.91395">
        <ele>5.9</ele>
        <time>2026-08-29T13:12:55Z</time>
      </trkpt>
      <trkpt lat="47.54594" lon="-2.91395">
        <ele>5.7</ele>
        <time>2026-08-29T13:12:56Z</time>
      </trkpt>
      <trkpt lat="47.54594" lon="-2.91394">
        <ele>5.7</ele>
        <time>2026-08-29T13:12:57Z</time>
      </trkpt>
      <trkpt lat="47.54597" lon="-2.91384">
        <ele>6.5</ele>
        <time>2026-08-29T13:14:08Z</time>
      </trkpt>
      <trkpt lat="47.54598" lon="-2.91382">
        <ele>6.8</ele>
        <time>2026-08-29T13:14:09Z</time>
      </trkpt>
      <trkpt lat="47.54599" lon="-2.9138">
        <ele>7</ele>
        <time>2026-08-29T13:14:10Z</time>
      </trkpt>
      <trkpt lat="47.54601" lon="-2.91377">
        <ele>7.3</ele>
        <time>2026-08-29T13:14:11Z</time>
      </trkpt>
      <trkpt lat="47.54601" lon="-2.91374">
        <ele>7.4</ele>
        <time>2026-08-29T13:14:12Z</time>
      </trkpt>
      <trkpt lat="47.54601" lon="-2.9137">
        <ele>7.4</ele>
        <time>2026-08-29T13:14:13Z</time>
      </trkpt>
      <trkpt lat="47.54601" lon="-2.91367">
        <ele>7.5</ele>
        <time>2026-08-29T13:14:14Z</time>
      </trkpt>
      <trkpt lat="47.546" lon="-2.91363">
        <ele>7.4</ele>
        <time>2026-08-29T13:14:15Z</time>
      </trkpt>
      <trkpt lat="47.546" lon="-2.9136">
        <ele>7.4</ele>
        <time>2026-08-29T13:14:16Z</time>
      </trkpt>
      <trkpt lat="47.54599" lon="-2.91357">
        <ele>7.4</ele>
        <time>2026-08-29T13:14:17Z</time>
      </trkpt>
      <trkpt lat="47.54598" lon="-2.91353">
        <ele>7.5</ele>
        <time>2026-08-29T13:14:18Z</time>
      </trkpt>
      <trkpt lat="47.54598" lon="-2.9135">
        <ele>7.7</ele>
        <time>2026-08-29T13:14:19Z</time>
      </trkpt>
      <trkpt lat="47.54597" lon="-2.91346">
        <ele>7.8</ele>
        <time>2026-08-29T13:14:20Z</time>
      </trkpt>
      <trkpt lat="47.54595" lon="-2.91342">
        <ele>7.9</ele>
        <time>2026-08-29T13:14:21Z</time>
      </trkpt>
      <trkpt lat="47.54593" lon="-2.91338">
        <ele>8</ele>
        <time>2026-08-29T13:14:22Z</time>
      </trkpt>
      <trkpt lat="47.54591" lon="-2.91335">
        <ele>8.1</ele>
        <time>2026-08-29T13:14:23Z</time>
      </trkpt>
      <trkpt lat="47.54589" lon="-2.91332">
        <ele>8.2</ele>
        <time>2026-08-29T13:14:24Z</time>
      </trkpt>
      <trkpt lat="47.54588" lon="-2.91328">
        <ele>8.3</ele>
        <time>2026-08-29T13:14:25Z</time>
      </trkpt>
      <trkpt lat="47.54588" lon="-2.91325">
        <ele>8.4</ele>
        <time>2026-08-29T13:14:26Z</time>
      </trkpt>
      <trkpt lat="47.54588" lon="-2.91321">
        <ele>8.5</ele>
        <time>2026-08-29T13:14:27Z</time>
      </trkpt>
      <trkpt lat="47.54589" lon="-2.91318">
        <ele>8.6</ele>
        <time>2026-08-29T13:14:28Z</time>
      </trkpt>
      <trkpt lat="47.54589" lon="-2.91314">
        <ele>8.8</ele>
        <time>2026-08-29T13:14:29Z</time>
      </trkpt>
      <trkpt lat="47.54589" lon="-2.91311">
        <ele>8.8</ele>
        <time>2026-08-29T13:14:30Z</time>
      </trkpt>
      <trkpt lat="47.54589" lon="-2.91307">
        <ele>9</ele>
        <time>2026-08-29T13:14:31Z</time>
      </trkpt>
      <trkpt lat="47.54589" lon="-2.91302">
        <ele>9.3</ele>
        <time>2026-08-29T13:14:32Z</time>
      </trkpt>
      <trkpt lat="47.54589" lon="-2.91298">
        <ele>9.5</ele>
        <time>2026-08-29T13:14:33Z</time>
      </trkpt>
      <trkpt lat="47.5459" lon="-2.91294">
        <ele>9.8</ele>
        <time>2026-08-29T13:14:34Z</time>
      </trkpt>
      <trkpt lat="47.54591" lon="-2.9129">
        <ele>10.1</ele>
        <time>2026-08-29T13:14:35Z</time>
      </trkpt>
      <trkpt lat="47.54592" lon="-2.91286">
        <ele>10.4</ele>
        <time>2026-08-29T13:14:36Z</time>
      </trkpt>
      <trkpt lat="47.54593" lon="-2.91281">
        <ele>10.8</ele>
        <time>2026-08-29T13:14:37Z</time>
      </trkpt>
      <trkpt lat="47.54594" lon="-2.91277">
        <ele>11.1</ele>
        <time>2026-08-29T13:14:38Z</time>
      </trkpt>
      <trkpt lat="47.54595" lon="-2.91272">
        <ele>11.5</ele>
        <time>2026-08-29T13:14:39Z</time>
      </trkpt>
      <trkpt lat="47.54596" lon="-2.91267">
        <ele>12</ele>
        <time>2026-08-29T13:14:40Z</time>
      </trkpt>
      <trkpt lat="47.54597" lon="-2.91262">
        <ele>12.4</ele>
        <time>2026-08-29T13:14:41Z</time>
      </trkpt>
      <trkpt lat="47.54598" lon="-2.91258">
        <ele>12.8</ele>
        <time>2026-08-29T13:14:42Z</time>
      </trkpt>
      <trkpt lat="47.54599" lon="-2.91254">
        <ele>13.1</ele>
        <time>2026-08-29T13:14:43Z</time>
      </trkpt>
      <trkpt lat="47.546" lon="-2.9125">
        <ele>13.4</ele>
        <time>2026-08-29T13:14:44Z</time>
      </trkpt>
      <trkpt lat="47.54601" lon="-2.91246">
        <ele>13.7</ele>
        <time>2026-08-29T13:14:45Z</time>
      </trkpt>
      <trkpt lat="47.54602" lon="-2.91243">
        <ele>14</ele>
        <time>2026-08-29T13:14:46Z</time>
      </trkpt>
      <trkpt lat="47.54604" lon="-2.91239">
        <ele>14.3</ele>
        <time>2026-08-29T13:14:47Z</time>
      </trkpt>
      <trkpt lat="47.54604" lon="-2.91235">
        <ele>14.7</ele>
        <time>2026-08-29T13:14:48Z</time>
      </trkpt>
      <trkpt lat="47.54605" lon="-2.91231">
        <ele>15.1</ele>
        <time>2026-08-29T13:14:49Z</time>
      </trkpt>
      <trkpt lat="47.54606" lon="-2.91227">
        <ele>15.5</ele>
        <time>2026-08-29T13:14:50Z</time>
      </trkpt>
      <trkpt lat="47.54607" lon="-2.91223">
        <ele>15.9</ele>
        <time>2026-08-29T13:14:51Z</time>
      </trkpt>
      <trkpt lat="47.54609" lon="-2.91219">
        <ele>16.1</ele>
        <time>2026-08-29T13:14:52Z</time>
      </trkpt>
      <trkpt lat="47.5461" lon="-2.91215">
        <ele>16.3</ele>
        <time>2026-08-29T13:14:53Z</time>
      </trkpt>
      <trkpt lat="47.54611" lon="-2.91212">
        <ele>16.4</ele>
        <time>2026-08-29T13:14:54Z</time>
      </trkpt>
      <trkpt lat="47.54611" lon="-2.91209">
        <ele>16.5</ele>
        <time>2026-08-29T13:14:55Z</time>
      </trkpt>
      <trkpt lat="47.54612" lon="-2.91206">
        <ele>16.6</ele>
        <time>2026-08-29T13:14:56Z</time>
      </trkpt>
      <trkpt lat="47.54613" lon="-2.91202">
        <ele>16.7</ele>
        <time>2026-08-29T13:14:57Z</time>
      </trkpt>
      <trkpt lat="47.54614" lon="-2.91198">
        <ele>16.8</ele>
        <time>2026-08-29T13:14:58Z</time>
      </trkpt>
      <trkpt lat="47.54616" lon="-2.91194">
        <ele>16.8</ele>
        <time>2026-08-29T13:14:59Z</time>
      </trkpt>
      <trkpt lat="47.54618" lon="-2.9119">
        <ele>16.9</ele>
        <time>2026-08-29T13:15:00Z</time>
      </trkpt>
      <trkpt lat="47.54619" lon="-2.91186">
        <ele>16.9</ele>
        <time>2026-08-29T13:15:01Z</time>
      </trkpt>
      <trkpt lat="47.5462" lon="-2.91181">
        <ele>17</ele>
        <time>2026-08-29T13:15:02Z</time>
      </trkpt>
      <trkpt lat="47.54621" lon="-2.91177">
        <ele>17</ele>
        <time>2026-08-29T13:15:03Z</time>
      </trkpt>
      <trkpt lat="47.54622" lon="-2.91172">
        <ele>17.1</ele>
        <time>2026-08-29T13:15:04Z</time>
      </trkpt>
      <trkpt lat="47.54622" lon="-2.91168">
        <ele>17.2</ele>
        <time>2026-08-29T13:15:05Z</time>
      </trkpt>
      <trkpt lat="47.54623" lon="-2.91163">
        <ele>17.2</ele>
        <time>2026-08-29T13:15:06Z</time>
      </trkpt>
      <trkpt lat="47.54624" lon="-2.91158">
        <ele>17.2</ele>
        <time>2026-08-29T13:15:07Z</time>
      </trkpt>
      <trkpt lat="47.54624" lon="-2.91153">
        <ele>17.3</ele>
        <time>2026-08-29T13:15:08Z</time>
      </trkpt>
      <trkpt lat="47.54624" lon="-2.91148">
        <ele>17.4</ele>
        <time>2026-08-29T13:15:09Z</time>
      </trkpt>
      <trkpt lat="47.54624" lon="-2.91143">
        <ele>17.5</ele>
        <time>2026-08-29T13:15:10Z</time>
      </trkpt>
      <trkpt lat="47.54624" lon="-2.91138">
        <ele>17.6</ele>
        <time>2026-08-29T13:15:11Z</time>
      </trkpt>
      <trkpt lat="47.54625" lon="-2.91133">
        <ele>17.4</ele>
        <time>2026-08-29T13:15:12Z</time>
      </trkpt>
      <trkpt lat="47.54625" lon="-2.91128">
        <ele>17.3</ele>
        <time>2026-08-29T13:15:13Z</time>
      </trkpt>
      <trkpt lat="47.54626" lon="-2.91124">
        <ele>17.1</ele>
        <time>2026-08-29T13:15:14Z</time>
      </trkpt>
      <trkpt lat="47.54626" lon="-2.9112">
        <ele>17.1</ele>
        <time>2026-08-29T13:15:15Z</time>
      </trkpt>
      <trkpt lat="47.54626" lon="-2.91116">
        <ele>17</ele>
        <time>2026-08-29T13:15:16Z</time>
      </trkpt>
      <trkpt lat="47.54627" lon="-2.91112">
        <ele>16.9</ele>
        <time>2026-08-29T13:15:17Z</time>
      </trkpt>
      <trkpt lat="47.54627" lon="-2.91107">
        <ele>16.8</ele>
        <time>2026-08-29T13:15:18Z</time>
      </trkpt>
      <trkpt lat="47.54628" lon="-2.91103">
        <ele>16.7</ele>
        <time>2026-08-29T13:15:19Z</time>
      </trkpt>
      <trkpt lat="47.5463" lon="-2.91098">
        <ele>16.5</ele>
        <time>2026-08-29T13:15:20Z</time>
      </trkpt>
      <trkpt lat="47.5463" lon="-2.91093">
        <ele>16.4</ele>
        <time>2026-08-29T13:15:21Z</time>
      </trkpt>
      <trkpt lat="47.54629" lon="-2.91089">
        <ele>16.4</ele>
        <time>2026-08-29T13:15:22Z</time>
      </trkpt>
      <trkpt lat="47.54626" lon="-2.91084">
        <ele>16.5</ele>
        <time>2026-08-29T13:15:23Z</time>
      </trkpt>
      <trkpt lat="47.54623" lon="-2.91082">
        <ele>16.5</ele>
        <time>2026-08-29T13:15:24Z</time>
      </trkpt>
      <trkpt lat="47.54619" lon="-2.9108">
        <ele>16.6</ele>
        <time>2026-08-29T13:15:25Z</time>
      </trkpt>
      <trkpt lat="47.54616" lon="-2.91077">
        <ele>16.6</ele>
        <time>2026-08-29T13:15:26Z</time>
      </trkpt>
      <trkpt lat="47.54615" lon="-2.91073">
        <ele>16.5</ele>
        <time>2026-08-29T13:15:27Z</time>
      </trkpt>
      <trkpt lat="47.54615" lon="-2.91068">
        <ele>16.3</ele>
        <time>2026-08-29T13:15:28Z</time>
      </trkpt>
      <trkpt lat="47.54615" lon="-2.91062">
        <ele>16.1</ele>
        <time>2026-08-29T13:15:29Z</time>
      </trkpt>
      <trkpt lat="47.54615" lon="-2.91056">
        <ele>15.9</ele>
        <time>2026-08-29T13:15:30Z</time>
      </trkpt>
      <trkpt lat="47.54615" lon="-2.91049">
        <ele>15.9</ele>
        <time>2026-08-29T13:15:31Z</time>
      </trkpt>
      <trkpt lat="47.54614" lon="-2.91042">
        <ele>15.9</ele>
        <time>2026-08-29T13:15:32Z</time>
      </trkpt>
      <trkpt lat="47.54612" lon="-2.91035">
        <ele>16</ele>
        <time>2026-08-29T13:15:33Z</time>
      </trkpt>
      <trkpt lat="47.5461" lon="-2.91029">
        <ele>16</ele>
        <time>2026-08-29T13:15:34Z</time>
      </trkpt>
      <trkpt lat="47.54608" lon="-2.91022">
        <ele>15.8</ele>
        <time>2026-08-29T13:15:35Z</time>
      </trkpt>
      <trkpt lat="47.54606" lon="-2.91015">
        <ele>15.6</ele>
        <time>2026-08-29T13:15:36Z</time>
      </trkpt>
      <trkpt lat="47.54604" lon="-2.91008">
        <ele>15.5</ele>
        <time>2026-08-29T13:15:37Z</time>
      </trkpt>
      <trkpt lat="47.54602" lon="-2.91001">
        <ele>15.4</ele>
        <time>2026-08-29T13:15:38Z</time>
      </trkpt>
      <trkpt lat="47.546" lon="-2.90993">
        <ele>15.1</ele>
        <time>2026-08-29T13:15:39Z</time>
      </trkpt>
      <trkpt lat="47.54598" lon="-2.90986">
        <ele>15</ele>
        <time>2026-08-29T13:15:40Z</time>
      </trkpt>
      <trkpt lat="47.54596" lon="-2.90978">
        <ele>14.8</ele>
        <time>2026-08-29T13:15:41Z</time>
      </trkpt>
      <trkpt lat="47.54594" lon="-2.90971">
        <ele>14.6</ele>
        <time>2026-08-29T13:15:42Z</time>
      </trkpt>
      <trkpt lat="47.54592" lon="-2.90963">
        <ele>14.5</ele>
        <time>2026-08-29T13:15:43Z</time>
      </trkpt>
      <trkpt lat="47.5459" lon="-2.90955">
        <ele>14.3</ele>
        <time>2026-08-29T13:15:44Z</time>
      </trkpt>
      <trkpt lat="47.54588" lon="-2.90948">
        <ele>14.1</ele>
        <time>2026-08-29T13:15:45Z</time>
      </trkpt>
      <trkpt lat="47.54586" lon="-2.9094">
        <ele>14</ele>
        <time>2026-08-29T13:15:46Z</time>
      </trkpt>
      <trkpt lat="47.54584" lon="-2.90931">
        <ele>14</ele>
        <time>2026-08-29T13:15:47Z</time>
      </trkpt>
      <trkpt lat="47.54582" lon="-2.90923">
        <ele>14</ele>
        <time>2026-08-29T13:15:48Z</time>
      </trkpt>
      <trkpt lat="47.54579" lon="-2.90915">
        <ele>13.9</ele>
        <time>2026-08-29T13:15:49Z</time>
      </trkpt>
      <trkpt lat="47.54577" lon="-2.90906">
        <ele>13.6</ele>
        <time>2026-08-29T13:15:50Z</time>
      </trkpt>
      <trkpt lat="47.54575" lon="-2.90897">
        <ele>13.3</ele>
        <time>2026-08-29T13:15:51Z</time>
      </trkpt>
      <trkpt lat="47.54573" lon="-2.90888">
        <ele>13</ele>
        <time>2026-08-29T13:15:52Z</time>
      </trkpt>
      <trkpt lat="47.54571" lon="-2.90879">
        <ele>12.8</ele>
        <time>2026-08-29T13:15:53Z</time>
      </trkpt>
      <trkpt lat="47.54569" lon="-2.9087">
        <ele>12.7</ele>
        <time>2026-08-29T13:15:54Z</time>
      </trkpt>
      <trkpt lat="47.54567" lon="-2.9086">
        <ele>12.6</ele>
        <time>2026-08-29T13:15:55Z</time>
      </trkpt>
      <trkpt lat="47.54566" lon="-2.9085">
        <ele>12.6</ele>
        <time>2026-08-29T13:15:56Z</time>
      </trkpt>
      <trkpt lat="47.54564" lon="-2.9084">
        <ele>12.7</ele>
        <time>2026-08-29T13:15:57Z</time>
      </trkpt>
      <trkpt lat="47.54564" lon="-2.90829">
        <ele>12.5</ele>
        <time>2026-08-29T13:15:58Z</time>
      </trkpt>
      <trkpt lat="47.54563" lon="-2.90819">
        <ele>12.2</ele>
        <time>2026-08-29T13:15:59Z</time>
      </trkpt>
      <trkpt lat="47.54562" lon="-2.90808">
        <ele>11.9</ele>
        <time>2026-08-29T13:16:00Z</time>
      </trkpt>
      <trkpt lat="47.54562" lon="-2.90797">
        <ele>11.8</ele>
        <time>2026-08-29T13:16:01Z</time>
      </trkpt>
      <trkpt lat="47.54562" lon="-2.90786">
        <ele>11.8</ele>
        <time>2026-08-29T13:16:02Z</time>
      </trkpt>
      <trkpt lat="47.54563" lon="-2.90775">
        <ele>11.7</ele>
        <time>2026-08-29T13:16:03Z</time>
      </trkpt>
      <trkpt lat="47.54563" lon="-2.90764">
        <ele>11.4</ele>
        <time>2026-08-29T13:16:04Z</time>
      </trkpt>
      <trkpt lat="47.54564" lon="-2.90753">
        <ele>11.1</ele>
        <time>2026-08-29T13:16:05Z</time>
      </trkpt>
      <trkpt lat="47.54564" lon="-2.90742">
        <ele>10.9</ele>
        <time>2026-08-29T13:16:06Z</time>
      </trkpt>
      <trkpt lat="47.54565" lon="-2.90731">
        <ele>10.8</ele>
        <time>2026-08-29T13:16:07Z</time>
      </trkpt>
      <trkpt lat="47.54566" lon="-2.90721">
        <ele>10.6</ele>
        <time>2026-08-29T13:16:08Z</time>
      </trkpt>
      <trkpt lat="47.54568" lon="-2.90711">
        <ele>10.6</ele>
        <time>2026-08-29T13:16:09Z</time>
      </trkpt>
      <trkpt lat="47.5457" lon="-2.90702">
        <ele>10.5</ele>
        <time>2026-08-29T13:16:10Z</time>
      </trkpt>
      <trkpt lat="47.54573" lon="-2.90693">
        <ele>10.4</ele>
        <time>2026-08-29T13:16:11Z</time>
      </trkpt>
      <trkpt lat="47.54577" lon="-2.90686">
        <ele>10.2</ele>
        <time>2026-08-29T13:16:12Z</time>
      </trkpt>
      <trkpt lat="47.54581" lon="-2.90679">
        <ele>10.1</ele>
        <time>2026-08-29T13:16:13Z</time>
      </trkpt>
      <trkpt lat="47.54584" lon="-2.90672">
        <ele>10</ele>
        <time>2026-08-29T13:16:14Z</time>
      </trkpt>
      <trkpt lat="47.54586" lon="-2.90663">
        <ele>9.9</ele>
        <time>2026-08-29T13:16:15Z</time>
      </trkpt>
      <trkpt lat="47.54586" lon="-2.90654">
        <ele>9.9</ele>
        <time>2026-08-29T13:16:16Z</time>
      </trkpt>
      <trkpt lat="47.54586" lon="-2.90645">
        <ele>9.9</ele>
        <time>2026-08-29T13:16:17Z</time>
      </trkpt>
      <trkpt lat="47.54587" lon="-2.90636">
        <ele>9.9</ele>
        <time>2026-08-29T13:16:18Z</time>
      </trkpt>
      <trkpt lat="47.54588" lon="-2.90627">
        <ele>9.9</ele>
        <time>2026-08-29T13:16:19Z</time>
      </trkpt>
      <trkpt lat="47.54591" lon="-2.90618">
        <ele>9.9</ele>
        <time>2026-08-29T13:16:20Z</time>
      </trkpt>
      <trkpt lat="47.54593" lon="-2.9061">
        <ele>10</ele>
        <time>2026-08-29T13:16:21Z</time>
      </trkpt>
      <trkpt lat="47.54595" lon="-2.90602">
        <ele>9.9</ele>
        <time>2026-08-29T13:16:22Z</time>
      </trkpt>
      <trkpt lat="47.54598" lon="-2.90593">
        <ele>9.7</ele>
        <time>2026-08-29T13:16:23Z</time>
      </trkpt>
      <trkpt lat="47.54601" lon="-2.90585">
        <ele>9.4</ele>
        <time>2026-08-29T13:16:24Z</time>
      </trkpt>
      <trkpt lat="47.54604" lon="-2.90577">
        <ele>9.5</ele>
        <time>2026-08-29T13:16:25Z</time>
      </trkpt>
      <trkpt lat="47.54607" lon="-2.90568">
        <ele>9.7</ele>
        <time>2026-08-29T13:16:26Z</time>
      </trkpt>
      <trkpt lat="47.54608" lon="-2.9056">
        <ele>10</ele>
        <time>2026-08-29T13:16:27Z</time>
      </trkpt>
      <trkpt lat="47.54609" lon="-2.90551">
        <ele>10.1</ele>
        <time>2026-08-29T13:16:28Z</time>
      </trkpt>
      <trkpt lat="47.54609" lon="-2.90543">
        <ele>10.1</ele>
        <time>2026-08-29T13:16:29Z</time>
      </trkpt>
      <trkpt lat="47.5461" lon="-2.90535">
        <ele>10</ele>
        <time>2026-08-29T13:16:30Z</time>
      </trkpt>
      <trkpt lat="47.54612" lon="-2.90527">
        <ele>10</ele>
        <time>2026-08-29T13:16:31Z</time>
      </trkpt>
      <trkpt lat="47.54614" lon="-2.90519">
        <ele>9.9</ele>
        <time>2026-08-29T13:16:32Z</time>
      </trkpt>
      <trkpt lat="47.54616" lon="-2.90511">
        <ele>9.9</ele>
        <time>2026-08-29T13:16:33Z</time>
      </trkpt>
      <trkpt lat="47.54618" lon="-2.90503">
        <ele>10</ele>
        <time>2026-08-29T13:16:34Z</time>
      </trkpt>
      <trkpt lat="47.54619" lon="-2.90494">
        <ele>10</ele>
        <time>2026-08-29T13:16:35Z</time>
      </trkpt>
      <trkpt lat="47.54621" lon="-2.90486">
        <ele>10</ele>
        <time>2026-08-29T13:16:36Z</time>
      </trkpt>
      <trkpt lat="47.54623" lon="-2.90478">
        <ele>10</ele>
        <time>2026-08-29T13:16:37Z</time>
      </trkpt>
      <trkpt lat="47.54625" lon="-2.90469">
        <ele>10</ele>
        <time>2026-08-29T13:16:38Z</time>
      </trkpt>
      <trkpt lat="47.54627" lon="-2.90461">
        <ele>10</ele>
        <time>2026-08-29T13:16:39Z</time>
      </trkpt>
      <trkpt lat="47.54629" lon="-2.90453">
        <ele>10</ele>
        <time>2026-08-29T13:16:40Z</time>
      </trkpt>
      <trkpt lat="47.54631" lon="-2.90444">
        <ele>10</ele>
        <time>2026-08-29T13:16:41Z</time>
      </trkpt>
      <trkpt lat="47.54633" lon="-2.90436">
        <ele>10</ele>
        <time>2026-08-29T13:16:42Z</time>
      </trkpt>
      <trkpt lat="47.54635" lon="-2.90427">
        <ele>10</ele>
        <time>2026-08-29T13:16:43Z</time>
      </trkpt>
      <trkpt lat="47.54637" lon="-2.90418">
        <ele>10</ele>
        <time>2026-08-29T13:16:44Z</time>
      </trkpt>
      <trkpt lat="47.54639" lon="-2.9041">
        <ele>10</ele>
        <time>2026-08-29T13:16:45Z</time>
      </trkpt>
      <trkpt lat="47.54641" lon="-2.90402">
        <ele>10</ele>
        <time>2026-08-29T13:16:46Z</time>
      </trkpt>
      <trkpt lat="47.54645" lon="-2.90395">
        <ele>10</ele>
        <time>2026-08-29T13:16:47Z</time>
      </trkpt>
      <trkpt lat="47.54648" lon="-2.90388">
        <ele>10</ele>
        <time>2026-08-29T13:16:48Z</time>
      </trkpt>
      <trkpt lat="47.54652" lon="-2.90382">
        <ele>9.9</ele>
        <time>2026-08-29T13:16:49Z</time>
      </trkpt>
      <trkpt lat="47.54656" lon="-2.90376">
        <ele>9.8</ele>
        <time>2026-08-29T13:16:50Z</time>
      </trkpt>
      <trkpt lat="47.5466" lon="-2.90371">
        <ele>9.8</ele>
        <time>2026-08-29T13:16:51Z</time>
      </trkpt>
      <trkpt lat="47.54663" lon="-2.90365">
        <ele>9.9</ele>
        <time>2026-08-29T13:16:52Z</time>
      </trkpt>
      <trkpt lat="47.54667" lon="-2.9036">
        <ele>10</ele>
        <time>2026-08-29T13:16:53Z</time>
      </trkpt>
      <trkpt lat="47.5467" lon="-2.90355">
        <ele>10</ele>
        <time>2026-08-29T13:16:54Z</time>
      </trkpt>
      <trkpt lat="47.54672" lon="-2.90352">
        <ele>10</ele>
        <time>2026-08-29T13:16:55Z</time>
      </trkpt>
      <trkpt lat="47.54673" lon="-2.9035">
        <ele>10</ele>
        <time>2026-08-29T13:16:56Z</time>
      </trkpt>
      <trkpt lat="47.54674" lon="-2.90349">
        <ele>10</ele>
        <time>2026-08-29T13:16:57Z</time>
      </trkpt>
      <trkpt lat="47.54675" lon="-2.90348">
        <ele>10</ele>
        <time>2026-08-29T13:16:58Z</time>
      </trkpt>
      <trkpt lat="47.54675" lon="-2.90346">
        <ele>10</ele>
        <time>2026-08-29T13:16:59Z</time>
      </trkpt>
      <trkpt lat="47.54674" lon="-2.90345">
        <ele>10</ele>
        <time>2026-08-29T13:17:00Z</time>
      </trkpt>
      <trkpt lat="47.54674" lon="-2.90344">
        <ele>10</ele>
        <time>2026-08-29T13:17:01Z</time>
      </trkpt>
      <trkpt lat="47.54673" lon="-2.90337">
        <ele>10</ele>
        <time>2026-08-29T13:17:03Z</time>
      </trkpt>
      <trkpt lat="47.54672" lon="-2.90333">
        <ele>10</ele>
        <time>2026-08-29T13:17:04Z</time>
      </trkpt>
      <trkpt lat="47.5467" lon="-2.90329">
        <ele>9.9</ele>
        <time>2026-08-29T13:17:05Z</time>
      </trkpt>
      <trkpt lat="47.54667" lon="-2.90326">
        <ele>9.7</ele>
        <time>2026-08-29T13:17:06Z</time>
      </trkpt>
      <trkpt lat="47.54666" lon="-2.90323">
        <ele>9.6</ele>
        <time>2026-08-29T13:17:07Z</time>
      </trkpt>
      <trkpt lat="47.54664" lon="-2.9032">
        <ele>9.5</ele>
        <time>2026-08-29T13:17:08Z</time>
      </trkpt>
      <trkpt lat="47.54663" lon="-2.90318">
        <ele>9.4</ele>
        <time>2026-08-29T13:17:09Z</time>
      </trkpt>
      <trkpt lat="47.54661" lon="-2.90316">
        <ele>9.3</ele>
        <time>2026-08-29T13:17:10Z</time>
      </trkpt>
      <trkpt lat="47.54658" lon="-2.90315">
        <ele>9.2</ele>
        <time>2026-08-29T13:17:11Z</time>
      </trkpt>
      <trkpt lat="47.54655" lon="-2.90312">
        <ele>9.1</ele>
        <time>2026-08-29T13:17:12Z</time>
      </trkpt>
      <trkpt lat="47.54653" lon="-2.90308">
        <ele>9</ele>
        <time>2026-08-29T13:17:13Z</time>
      </trkpt>
      <trkpt lat="47.54653" lon="-2.90303">
        <ele>9</ele>
        <time>2026-08-29T13:17:14Z</time>
      </trkpt>
      <trkpt lat="47.54653" lon="-2.90297">
        <ele>8.8</ele>
        <time>2026-08-29T13:17:15Z</time>
      </trkpt>
      <trkpt lat="47.54655" lon="-2.90291">
        <ele>8.8</ele>
        <time>2026-08-29T13:17:16Z</time>
      </trkpt>
      <trkpt lat="47.54657" lon="-2.90284">
        <ele>8.7</ele>
        <time>2026-08-29T13:17:17Z</time>
      </trkpt>
      <trkpt lat="47.54658" lon="-2.90276">
        <ele>8.6</ele>
        <time>2026-08-29T13:17:18Z</time>
      </trkpt>
      <trkpt lat="47.54659" lon="-2.90268">
        <ele>8.5</ele>
        <time>2026-08-29T13:17:19Z</time>
      </trkpt>
      <trkpt lat="47.5466" lon="-2.90261">
        <ele>8.3</ele>
        <time>2026-08-29T13:17:20Z</time>
      </trkpt>
      <trkpt lat="47.54662" lon="-2.90253">
        <ele>8.1</ele>
        <time>2026-08-29T13:17:21Z</time>
      </trkpt>
      <trkpt lat="47.54663" lon="-2.90244">
        <ele>8</ele>
        <time>2026-08-29T13:17:22Z</time>
      </trkpt>
      <trkpt lat="47.54665" lon="-2.90236">
        <ele>8</ele>
        <time>2026-08-29T13:17:23Z</time>
      </trkpt>
      <trkpt lat="47.54666" lon="-2.90227">
        <ele>8</ele>
        <time>2026-08-29T13:17:24Z</time>
      </trkpt>
      <trkpt lat="47.54668" lon="-2.90218">
        <ele>7.9</ele>
        <time>2026-08-29T13:17:25Z</time>
      </trkpt>
      <trkpt lat="47.54669" lon="-2.90209">
        <ele>7.6</ele>
        <time>2026-08-29T13:17:26Z</time>
      </trkpt>
      <trkpt lat="47.5467" lon="-2.902">
        <ele>7.3</ele>
        <time>2026-08-29T13:17:27Z</time>
      </trkpt>
      <trkpt lat="47.54671" lon="-2.90191">
        <ele>7.2</ele>
        <time>2026-08-29T13:17:28Z</time>
      </trkpt>
      <trkpt lat="47.54672" lon="-2.90182">
        <ele>7.2</ele>
        <time>2026-08-29T13:17:29Z</time>
      </trkpt>
      <trkpt lat="47.54673" lon="-2.90172">
        <ele>7.2</ele>
        <time>2026-08-29T13:17:30Z</time>
      </trkpt>
      <trkpt lat="47.54674" lon="-2.90163">
        <ele>7.2</ele>
        <time>2026-08-29T13:17:31Z</time>
      </trkpt>
      <trkpt lat="47.54675" lon="-2.90153">
        <ele>7.2</ele>
        <time>2026-08-29T13:17:32Z</time>
      </trkpt>
      <trkpt lat="47.54675" lon="-2.90144">
        <ele>7.1</ele>
        <time>2026-08-29T13:17:33Z</time>
      </trkpt>
      <trkpt lat="47.54675" lon="-2.90134">
        <ele>6.9</ele>
        <time>2026-08-29T13:17:34Z</time>
      </trkpt>
      <trkpt lat="47.54676" lon="-2.90125">
        <ele>6.7</ele>
        <time>2026-08-29T13:17:35Z</time>
      </trkpt>
      <trkpt lat="47.54676" lon="-2.90115">
        <ele>6.4</ele>
        <time>2026-08-29T13:17:36Z</time>
      </trkpt>
      <trkpt lat="47.54676" lon="-2.90105">
        <ele>6.3</ele>
        <time>2026-08-29T13:17:37Z</time>
      </trkpt>
      <trkpt lat="47.54676" lon="-2.90096">
        <ele>6.3</ele>
        <time>2026-08-29T13:17:38Z</time>
      </trkpt>
      <trkpt lat="47.54676" lon="-2.90085">
        <ele>6.3</ele>
        <time>2026-08-29T13:17:39Z</time>
      </trkpt>
      <trkpt lat="47.54676" lon="-2.90075">
        <ele>6.3</ele>
        <time>2026-08-29T13:17:40Z</time>
      </trkpt>
      <trkpt lat="47.54675" lon="-2.90065">
        <ele>6.3</ele>
        <time>2026-08-29T13:17:41Z</time>
      </trkpt>
      <trkpt lat="47.54675" lon="-2.90054">
        <ele>6.2</ele>
        <time>2026-08-29T13:17:42Z</time>
      </trkpt>
      <trkpt lat="47.54674" lon="-2.90044">
        <ele>5.8</ele>
        <time>2026-08-29T13:17:43Z</time>
      </trkpt>
      <trkpt lat="47.54673" lon="-2.90034">
        <ele>5.5</ele>
        <time>2026-08-29T13:17:44Z</time>
      </trkpt>
      <trkpt lat="47.54673" lon="-2.90023">
        <ele>5.2</ele>
        <time>2026-08-29T13:17:45Z</time>
      </trkpt>
      <trkpt lat="47.54672" lon="-2.90013">
        <ele>5.2</ele>
        <time>2026-08-29T13:17:46Z</time>
      </trkpt>
      <trkpt lat="47.54672" lon="-2.90002">
        <ele>5.2</ele>
        <time>2026-08-29T13:17:47Z</time>
      </trkpt>
      <trkpt lat="47.54671" lon="-2.89992">
        <ele>5.1</ele>
        <time>2026-08-29T13:17:48Z</time>
      </trkpt>
      <trkpt lat="47.5467" lon="-2.89982">
        <ele>5</ele>
        <time>2026-08-29T13:17:49Z</time>
      </trkpt>
      <trkpt lat="47.5467" lon="-2.89972">
        <ele>5</ele>
        <time>2026-08-29T13:17:50Z</time>
      </trkpt>
      <trkpt lat="47.54669" lon="-2.89962">
        <ele>5</ele>
        <time>2026-08-29T13:17:51Z</time>
      </trkpt>
      <trkpt lat="47.54668" lon="-2.89952">
        <ele>5</ele>
        <time>2026-08-29T13:17:52Z</time>
      </trkpt>
      <trkpt lat="47.54667" lon="-2.89942">
        <ele>5</ele>
        <time>2026-08-29T13:17:53Z</time>
      </trkpt>
      <trkpt lat="47.54666" lon="-2.89932">
        <ele>5</ele>
        <time>2026-08-29T13:17:54Z</time>
      </trkpt>
      <trkpt lat="47.54666" lon="-2.89922">
        <ele>5</ele>
        <time>2026-08-29T13:17:55Z</time>
      </trkpt>
      <trkpt lat="47.54665" lon="-2.89912">
        <ele>4.8</ele>
        <time>2026-08-29T13:17:56Z</time>
      </trkpt>
      <trkpt lat="47.54664" lon="-2.89902">
        <ele>4.5</ele>
        <time>2026-08-29T13:17:57Z</time>
      </trkpt>
      <trkpt lat="47.54663" lon="-2.89892">
        <ele>4.2</ele>
        <time>2026-08-29T13:17:58Z</time>
      </trkpt>
      <trkpt lat="47.54663" lon="-2.89882">
        <ele>4.1</ele>
        <time>2026-08-29T13:17:59Z</time>
      </trkpt>
      <trkpt lat="47.54662" lon="-2.89872">
        <ele>4.2</ele>
        <time>2026-08-29T13:18:00Z</time>
      </trkpt>
      <trkpt lat="47.54661" lon="-2.89862">
        <ele>4.2</ele>
        <time>2026-08-29T13:18:01Z</time>
      </trkpt>
      <trkpt lat="47.54661" lon="-2.89852">
        <ele>4.1</ele>
        <time>2026-08-29T13:18:02Z</time>
      </trkpt>
      <trkpt lat="47.5466" lon="-2.89842">
        <ele>4.1</ele>
        <time>2026-08-29T13:18:03Z</time>
      </trkpt>
      <trkpt lat="47.54659" lon="-2.89832">
        <ele>4</ele>
        <time>2026-08-29T13:18:04Z</time>
      </trkpt>
      <trkpt lat="47.54659" lon="-2.89822">
        <ele>4</ele>
        <time>2026-08-29T13:18:05Z</time>
      </trkpt>
      <trkpt lat="47.54659" lon="-2.89812">
        <ele>4</ele>
        <time>2026-08-29T13:18:06Z</time>
      </trkpt>
      <trkpt lat="47.54658" lon="-2.89803">
        <ele>4</ele>
        <time>2026-08-29T13:18:07Z</time>
      </trkpt>
      <trkpt lat="47.54657" lon="-2.89793">
        <ele>4</ele>
        <time>2026-08-29T13:18:08Z</time>
      </trkpt>
      <trkpt lat="47.54656" lon="-2.89783">
        <ele>4</ele>
        <time>2026-08-29T13:18:09Z</time>
      </trkpt>
      <trkpt lat="47.54656" lon="-2.89774">
        <ele>4</ele>
        <time>2026-08-29T13:18:10Z</time>
      </trkpt>
      <trkpt lat="47.54655" lon="-2.89764">
        <ele>4</ele>
        <time>2026-08-29T13:18:11Z</time>
      </trkpt>
      <trkpt lat="47.54655" lon="-2.89755">
        <ele>4</ele>
        <time>2026-08-29T13:18:12Z</time>
      </trkpt>
      <trkpt lat="47.54654" lon="-2.89745">
        <ele>4</ele>
        <time>2026-08-29T13:18:13Z</time>
      </trkpt>
      <trkpt lat="47.54653" lon="-2.89736">
        <ele>4</ele>
        <time>2026-08-29T13:18:14Z</time>
      </trkpt>
      <trkpt lat="47.54653" lon="-2.89727">
        <ele>4</ele>
        <time>2026-08-29T13:18:15Z</time>
      </trkpt>
      <trkpt lat="47.54652" lon="-2.89718">
        <ele>4</ele>
        <time>2026-08-29T13:18:16Z</time>
      </trkpt>
      <trkpt lat="47.54652" lon="-2.89709">
        <ele>4</ele>
        <time>2026-08-29T13:18:17Z</time>
      </trkpt>
      <trkpt lat="47.54651" lon="-2.89701">
        <ele>4</ele>
        <time>2026-08-29T13:18:18Z</time>
      </trkpt>
      <trkpt lat="47.5465" lon="-2.89692">
        <ele>4</ele>
        <time>2026-08-29T13:18:19Z</time>
      </trkpt>
      <trkpt lat="47.54649" lon="-2.89684">
        <ele>4</ele>
        <time>2026-08-29T13:18:20Z</time>
      </trkpt>
      <trkpt lat="47.54647" lon="-2.89677">
        <ele>4</ele>
        <time>2026-08-29T13:18:21Z</time>
      </trkpt>
      <trkpt lat="47.54644" lon="-2.89671">
        <ele>4</ele>
        <time>2026-08-29T13:18:22Z</time>
      </trkpt>
      <trkpt lat="47.54641" lon="-2.89666">
        <ele>4</ele>
        <time>2026-08-29T13:18:23Z</time>
      </trkpt>
      <trkpt lat="47.54639" lon="-2.8966">
        <ele>4</ele>
        <time>2026-08-29T13:18:24Z</time>
      </trkpt>
      <trkpt lat="47.5464" lon="-2.89655">
        <ele>4</ele>
        <time>2026-08-29T13:18:25Z</time>
      </trkpt>
      <trkpt lat="47.54642" lon="-2.8965">
        <ele>4</ele>
        <time>2026-08-29T13:18:26Z</time>
      </trkpt>
      <trkpt lat="47.54643" lon="-2.89646">
        <ele>4</ele>
        <time>2026-08-29T13:18:27Z</time>
      </trkpt>
      <trkpt lat="47.54643" lon="-2.89643">
        <ele>4</ele>
        <time>2026-08-29T13:18:28Z</time>
      </trkpt>
      <trkpt lat="47.54642" lon="-2.89639">
        <ele>4</ele>
        <time>2026-08-29T13:18:29Z</time>
      </trkpt>
      <trkpt lat="47.5464" lon="-2.89636">
        <ele>4</ele>
        <time>2026-08-29T13:18:30Z</time>
      </trkpt>
      <trkpt lat="47.54638" lon="-2.89631">
        <ele>4</ele>
        <time>2026-08-29T13:18:31Z</time>
      </trkpt>
      <trkpt lat="47.54639" lon="-2.89627">
        <ele>4</ele>
        <time>2026-08-29T13:18:32Z</time>
      </trkpt>
      <trkpt lat="47.54641" lon="-2.89623">
        <ele>4</ele>
        <time>2026-08-29T13:18:33Z</time>
      </trkpt>
      <trkpt lat="47.54642" lon="-2.89619">
        <ele>4</ele>
        <time>2026-08-29T13:18:34Z</time>
      </trkpt>
      <trkpt lat="47.54643" lon="-2.89613">
        <ele>4</ele>
        <time>2026-08-29T13:18:35Z</time>
      </trkpt>
      <trkpt lat="47.54642" lon="-2.89607">
        <ele>4</ele>
        <time>2026-08-29T13:18:36Z</time>
      </trkpt>
      <trkpt lat="47.54642" lon="-2.89601">
        <ele>4</ele>
        <time>2026-08-29T13:18:37Z</time>
      </trkpt>
      <trkpt lat="47.54642" lon="-2.89595">
        <ele>4</ele>
        <time>2026-08-29T13:18:38Z</time>
      </trkpt>
      <trkpt lat="47.54641" lon="-2.89588">
        <ele>4</ele>
        <time>2026-08-29T13:18:39Z</time>
      </trkpt>
      <trkpt lat="47.54641" lon="-2.89581">
        <ele>4</ele>
        <time>2026-08-29T13:18:40Z</time>
      </trkpt>
      <trkpt lat="47.5464" lon="-2.89573">
        <ele>4</ele>
        <time>2026-08-29T13:18:41Z</time>
      </trkpt>
      <trkpt lat="47.5464" lon="-2.89566">
        <ele>4</ele>
        <time>2026-08-29T13:18:42Z</time>
      </trkpt>
      <trkpt lat="47.54639" lon="-2.89559">
        <ele>4</ele>
        <time>2026-08-29T13:18:43Z</time>
      </trkpt>
      <trkpt lat="47.54638" lon="-2.89551">
        <ele>4</ele>
        <time>2026-08-29T13:18:44Z</time>
      </trkpt>
      <trkpt lat="47.54638" lon="-2.89544">
        <ele>4</ele>
        <time>2026-08-29T13:18:45Z</time>
      </trkpt>
      <trkpt lat="47.54637" lon="-2.89537">
        <ele>4</ele>
        <time>2026-08-29T13:18:46Z</time>
      </trkpt>
      <trkpt lat="47.54637" lon="-2.8953">
        <ele>4</ele>
        <time>2026-08-29T13:18:47Z</time>
      </trkpt>
      <trkpt lat="47.54637" lon="-2.89522">
        <ele>4</ele>
        <time>2026-08-29T13:18:48Z</time>
      </trkpt>
      <trkpt lat="47.54637" lon="-2.89514">
        <ele>4</ele>
        <time>2026-08-29T13:18:49Z</time>
      </trkpt>
      <trkpt lat="47.54637" lon="-2.89506">
        <ele>4</ele>
        <time>2026-08-29T13:18:50Z</time>
      </trkpt>
      <trkpt lat="47.54637" lon="-2.89498">
        <ele>4</ele>
        <time>2026-08-29T13:18:51Z</time>
      </trkpt>
      <trkpt lat="47.54636" lon="-2.8949">
        <ele>4</ele>
        <time>2026-08-29T13:18:52Z</time>
      </trkpt>
      <trkpt lat="47.54636" lon="-2.89482">
        <ele>4</ele>
        <time>2026-08-29T13:18:53Z</time>
      </trkpt>
      <trkpt lat="47.54635" lon="-2.89475">
        <ele>4</ele>
        <time>2026-08-29T13:18:54Z</time>
      </trkpt>
      <trkpt lat="47.54635" lon="-2.89467">
        <ele>4</ele>
        <time>2026-08-29T13:18:55Z</time>
      </trkpt>
      <trkpt lat="47.54634" lon="-2.89459">
        <ele>4.1</ele>
        <time>2026-08-29T13:18:56Z</time>
      </trkpt>
      <trkpt lat="47.54634" lon="-2.89452">
        <ele>4.1</ele>
        <time>2026-08-29T13:18:57Z</time>
      </trkpt>
      <trkpt lat="47.54634" lon="-2.89444">
        <ele>4.2</ele>
        <time>2026-08-29T13:18:58Z</time>
      </trkpt>
      <trkpt lat="47.54633" lon="-2.89436">
        <ele>4.1</ele>
        <time>2026-08-29T13:18:59Z</time>
      </trkpt>
      <trkpt lat="47.54633" lon="-2.89429">
        <ele>4.1</ele>
        <time>2026-08-29T13:19:00Z</time>
      </trkpt>
      <trkpt lat="47.54632" lon="-2.89421">
        <ele>4</ele>
        <time>2026-08-29T13:19:01Z</time>
      </trkpt>
      <trkpt lat="47.54632" lon="-2.89414">
        <ele>4</ele>
        <time>2026-08-29T13:19:02Z</time>
      </trkpt>
      <trkpt lat="47.54631" lon="-2.89407">
        <ele>4</ele>
        <time>2026-08-29T13:19:03Z</time>
      </trkpt>
      <trkpt lat="47.54631" lon="-2.894">
        <ele>4</ele>
        <time>2026-08-29T13:19:04Z</time>
      </trkpt>
      <trkpt lat="47.5463" lon="-2.89393">
        <ele>4</ele>
        <time>2026-08-29T13:19:05Z</time>
      </trkpt>
      <trkpt lat="47.54628" lon="-2.89386">
        <ele>4</ele>
        <time>2026-08-29T13:19:06Z</time>
      </trkpt>
      <trkpt lat="47.54627" lon="-2.8938">
        <ele>4</ele>
        <time>2026-08-29T13:19:07Z</time>
      </trkpt>
      <trkpt lat="47.54624" lon="-2.89374">
        <ele>4</ele>
        <time>2026-08-29T13:19:08Z</time>
      </trkpt>
      <trkpt lat="47.54622" lon="-2.89368">
        <ele>4</ele>
        <time>2026-08-29T13:19:09Z</time>
      </trkpt>
      <trkpt lat="47.5462" lon="-2.89362">
        <ele>4</ele>
        <time>2026-08-29T13:19:10Z</time>
      </trkpt>
      <trkpt lat="47.54618" lon="-2.89355">
        <ele>4</ele>
        <time>2026-08-29T13:19:11Z</time>
      </trkpt>
      <trkpt lat="47.54615" lon="-2.89349">
        <ele>4</ele>
        <time>2026-08-29T13:19:12Z</time>
      </trkpt>
      <trkpt lat="47.54612" lon="-2.89344">
        <ele>4</ele>
        <time>2026-08-29T13:19:13Z</time>
      </trkpt>
      <trkpt lat="47.54608" lon="-2.8934">
        <ele>3.8</ele>
        <time>2026-08-29T13:19:14Z</time>
      </trkpt>
      <trkpt lat="47.54604" lon="-2.89336">
        <ele>3.5</ele>
        <time>2026-08-29T13:19:15Z</time>
      </trkpt>
      <trkpt lat="47.54599" lon="-2.89333">
        <ele>3.1</ele>
        <time>2026-08-29T13:19:16Z</time>
      </trkpt>
      <trkpt lat="47.54594" lon="-2.89331">
        <ele>2.9</ele>
        <time>2026-08-29T13:19:17Z</time>
      </trkpt>
      <trkpt lat="47.5459" lon="-2.89328">
        <ele>2.8</ele>
        <time>2026-08-29T13:19:18Z</time>
      </trkpt>
      <trkpt lat="47.54585" lon="-2.89325">
        <ele>2.7</ele>
        <time>2026-08-29T13:19:19Z</time>
      </trkpt>
      <trkpt lat="47.5458" lon="-2.89322">
        <ele>2.8</ele>
        <time>2026-08-29T13:19:20Z</time>
      </trkpt>
      <trkpt lat="47.54576" lon="-2.89319">
        <ele>3</ele>
        <time>2026-08-29T13:19:21Z</time>
      </trkpt>
      <trkpt lat="47.54571" lon="-2.89316">
        <ele>3.2</ele>
        <time>2026-08-29T13:19:22Z</time>
      </trkpt>
      <trkpt lat="47.54566" lon="-2.89312">
        <ele>3.5</ele>
        <time>2026-08-29T13:19:23Z</time>
      </trkpt>
      <trkpt lat="47.54562" lon="-2.89308">
        <ele>3.8</ele>
        <time>2026-08-29T13:19:24Z</time>
      </trkpt>
      <trkpt lat="47.54558" lon="-2.89305">
        <ele>4</ele>
        <time>2026-08-29T13:19:25Z</time>
      </trkpt>
      <trkpt lat="47.54553" lon="-2.89302">
        <ele>4</ele>
        <time>2026-08-29T13:19:26Z</time>
      </trkpt>
      <trkpt lat="47.54549" lon="-2.893">
        <ele>4</ele>
        <time>2026-08-29T13:19:27Z</time>
      </trkpt>
      <trkpt lat="47.54544" lon="-2.89297">
        <ele>4.1</ele>
        <time>2026-08-29T13:19:28Z</time>
      </trkpt>
      <trkpt lat="47.5454" lon="-2.89294">
        <ele>4.2</ele>
        <time>2026-08-29T13:19:29Z</time>
      </trkpt>
      <trkpt lat="47.54536" lon="-2.89291">
        <ele>4.4</ele>
        <time>2026-08-29T13:19:30Z</time>
      </trkpt>
      <trkpt lat="47.54532" lon="-2.89289">
        <ele>4.5</ele>
        <time>2026-08-29T13:19:31Z</time>
      </trkpt>
      <trkpt lat="47.54528" lon="-2.89287">
        <ele>4.7</ele>
        <time>2026-08-29T13:19:32Z</time>
      </trkpt>
      <trkpt lat="47.54524" lon="-2.89285">
        <ele>4.73</ele>
        <time>2026-08-29T13:19:33Z</time>
      </trkpt>
      <trkpt lat="47.5452" lon="-2.89282">
        <ele>4.44</ele>
        <time>2026-08-29T13:19:34Z</time>
      </trkpt>
      <trkpt lat="47.54516" lon="-2.8928">
        <ele>4.15</ele>
        <time>2026-08-29T13:19:35Z</time>
      </trkpt>
      <trkpt lat="47.54511" lon="-2.89278">
        <ele>3.79</ele>
        <time>2026-08-29T13:19:36Z</time>
      </trkpt>
      <trkpt lat="47.54507" lon="-2.89275">
        <ele>3.7</ele>
        <time>2026-08-29T13:19:37Z</time>
      </trkpt>
      <trkpt lat="47.54503" lon="-2.89272">
        <ele>3.6</ele>
        <time>2026-08-29T13:19:38Z</time>
      </trkpt>
      <trkpt lat="47.54499" lon="-2.89269">
        <ele>3.6</ele>
        <time>2026-08-29T13:19:39Z</time>
      </trkpt>
      <trkpt lat="47.54495" lon="-2.89267">
        <ele>3.7</ele>
        <time>2026-08-29T13:19:40Z</time>
      </trkpt>
      <trkpt lat="47.54491" lon="-2.89265">
        <ele>3.8</ele>
        <time>2026-08-29T13:19:41Z</time>
      </trkpt>
      <trkpt lat="47.54487" lon="-2.89264">
        <ele>3.8</ele>
        <time>2026-08-29T13:19:42Z</time>
      </trkpt>
      <trkpt lat="47.54484" lon="-2.89263">
        <ele>3.8</ele>
        <time>2026-08-29T13:19:43Z</time>
      </trkpt>
      <trkpt lat="47.5448" lon="-2.89261">
        <ele>3.8</ele>
        <time>2026-08-29T13:19:44Z</time>
      </trkpt>
      <trkpt lat="47.54477" lon="-2.89259">
        <ele>3.8</ele>
        <time>2026-08-29T13:19:45Z</time>
      </trkpt>
      <trkpt lat="47.54475" lon="-2.89255">
        <ele>3.9</ele>
        <time>2026-08-29T13:19:46Z</time>
      </trkpt>
      <trkpt lat="47.54475" lon="-2.8925">
        <ele>4.1</ele>
        <time>2026-08-29T13:19:47Z</time>
      </trkpt>
      <trkpt lat="47.54476" lon="-2.89245">
        <ele>3.7</ele>
        <time>2026-08-29T13:19:48Z</time>
      </trkpt>
      <trkpt lat="47.54477" lon="-2.8924">
        <ele>3.3</ele>
        <time>2026-08-29T13:19:49Z</time>
      </trkpt>
      <trkpt lat="47.5448" lon="-2.89235">
        <ele>3.1</ele>
        <time>2026-08-29T13:19:50Z</time>
      </trkpt>
      <trkpt lat="47.54483" lon="-2.89231">
        <ele>3.1</ele>
        <time>2026-08-29T13:19:51Z</time>
      </trkpt>
      <trkpt lat="47.54487" lon="-2.89227">
        <ele>3.4</ele>
        <time>2026-08-29T13:19:52Z</time>
      </trkpt>
      <trkpt lat="47.5449" lon="-2.89222">
        <ele>3.6</ele>
        <time>2026-08-29T13:19:53Z</time>
      </trkpt>
      <trkpt lat="47.54493" lon="-2.89217">
        <ele>4</ele>
        <time>2026-08-29T13:19:54Z</time>
      </trkpt>
      <trkpt lat="47.54495" lon="-2.89211">
        <ele>4.2</ele>
        <time>2026-08-29T13:19:55Z</time>
      </trkpt>
      <trkpt lat="47.54498" lon="-2.89205">
        <ele>4.3</ele>
        <time>2026-08-29T13:19:56Z</time>
      </trkpt>
      <trkpt lat="47.54501" lon="-2.892">
        <ele>4.2</ele>
        <time>2026-08-29T13:19:57Z</time>
      </trkpt>
      <trkpt lat="47.54504" lon="-2.89195">
        <ele>4.2</ele>
        <time>2026-08-29T13:19:58Z</time>
      </trkpt>
      <trkpt lat="47.54507" lon="-2.89189">
        <ele>4.4</ele>
        <time>2026-08-29T13:19:59Z</time>
      </trkpt>
      <trkpt lat="47.5451" lon="-2.89184">
        <ele>4.6</ele>
        <time>2026-08-29T13:20:00Z</time>
      </trkpt>
      <trkpt lat="47.54514" lon="-2.89178">
        <ele>4.8</ele>
        <time>2026-08-29T13:20:01Z</time>
      </trkpt>
      <trkpt lat="47.54517" lon="-2.89173">
        <ele>4.9</ele>
        <time>2026-08-29T13:20:02Z</time>
      </trkpt>
      <trkpt lat="47.5452" lon="-2.89167">
        <ele>5</ele>
        <time>2026-08-29T13:20:03Z</time>
      </trkpt>
      <trkpt lat="47.54524" lon="-2.89161">
        <ele>4.6</ele>
        <time>2026-08-29T13:20:04Z</time>
      </trkpt>
      <trkpt lat="47.54527" lon="-2.89156">
        <ele>4.2</ele>
        <time>2026-08-29T13:20:05Z</time>
      </trkpt>
      <trkpt lat="47.5453" lon="-2.8915">
        <ele>3.8</ele>
        <time>2026-08-29T13:20:06Z</time>
      </trkpt>
      <trkpt lat="47.54533" lon="-2.89145">
        <ele>3.6</ele>
        <time>2026-08-29T13:20:07Z</time>
      </trkpt>
      <trkpt lat="47.54536" lon="-2.89139">
        <ele>3.3</ele>
        <time>2026-08-29T13:20:08Z</time>
      </trkpt>
      <trkpt lat="47.54539" lon="-2.89134">
        <ele>3.5</ele>
        <time>2026-08-29T13:20:09Z</time>
      </trkpt>
      <trkpt lat="47.54542" lon="-2.89129">
        <ele>3.7</ele>
        <time>2026-08-29T13:20:10Z</time>
      </trkpt>
      <trkpt lat="47.54546" lon="-2.89124">
        <ele>3.8</ele>
        <time>2026-08-29T13:20:11Z</time>
      </trkpt>
      <trkpt lat="47.54548" lon="-2.89119">
        <ele>3.9</ele>
        <time>2026-08-29T13:20:12Z</time>
      </trkpt>
      <trkpt lat="47.5455" lon="-2.89113">
        <ele>4</ele>
        <time>2026-08-29T13:20:13Z</time>
      </trkpt>
      <trkpt lat="47.54551" lon="-2.89106">
        <ele>4</ele>
        <time>2026-08-29T13:20:14Z</time>
      </trkpt>
      <trkpt lat="47.5455" lon="-2.891">
        <ele>3.9</ele>
        <time>2026-08-29T13:20:15Z</time>
      </trkpt>
      <trkpt lat="47.54548" lon="-2.89093">
        <ele>3.8</ele>
        <time>2026-08-29T13:20:16Z</time>
      </trkpt>
      <trkpt lat="47.54545" lon="-2.89088">
        <ele>3.7</ele>
        <time>2026-08-29T13:20:17Z</time>
      </trkpt>
      <trkpt lat="47.54542" lon="-2.89083">
        <ele>3.5</ele>
        <time>2026-08-29T13:20:18Z</time>
      </trkpt>
      <trkpt lat="47.54539" lon="-2.89078">
        <ele>3.5</ele>
        <time>2026-08-29T13:20:19Z</time>
      </trkpt>
      <trkpt lat="47.54535" lon="-2.89073">
        <ele>3.5</ele>
        <time>2026-08-29T13:20:20Z</time>
      </trkpt>
      <trkpt lat="47.54532" lon="-2.89068">
        <ele>3.6</ele>
        <time>2026-08-29T13:20:21Z</time>
      </trkpt>
      <trkpt lat="47.54528" lon="-2.89063">
        <ele>3.7</ele>
        <time>2026-08-29T13:20:22Z</time>
      </trkpt>
      <trkpt lat="47.54524" lon="-2.89059">
        <ele>3.6</ele>
        <time>2026-08-29T13:20:23Z</time>
      </trkpt>
      <trkpt lat="47.5452" lon="-2.89056">
        <ele>3.4</ele>
        <time>2026-08-29T13:20:24Z</time>
      </trkpt>
      <trkpt lat="47.54516" lon="-2.89052">
        <ele>3.3</ele>
        <time>2026-08-29T13:20:25Z</time>
      </trkpt>
      <trkpt lat="47.54512" lon="-2.89049">
        <ele>3.1</ele>
        <time>2026-08-29T13:20:26Z</time>
      </trkpt>
      <trkpt lat="47.54508" lon="-2.89046">
        <ele>3.1</ele>
        <time>2026-08-29T13:20:27Z</time>
      </trkpt>
      <trkpt lat="47.54504" lon="-2.89042">
        <ele>3.1</ele>
        <time>2026-08-29T13:20:28Z</time>
      </trkpt>
      <trkpt lat="47.545" lon="-2.89038">
        <ele>3.3</ele>
        <time>2026-08-29T13:20:29Z</time>
      </trkpt>
      <trkpt lat="47.54497" lon="-2.89034">
        <ele>3.4</ele>
        <time>2026-08-29T13:20:30Z</time>
      </trkpt>
      <trkpt lat="47.54493" lon="-2.8903">
        <ele>3.4</ele>
        <time>2026-08-29T13:20:31Z</time>
      </trkpt>
      <trkpt lat="47.5449" lon="-2.89026">
        <ele>3.3</ele>
        <time>2026-08-29T13:20:32Z</time>
      </trkpt>
      <trkpt lat="47.54487" lon="-2.89021">
        <ele>3.4</ele>
        <time>2026-08-29T13:20:33Z</time>
      </trkpt>
      <trkpt lat="47.54484" lon="-2.89017">
        <ele>3.5</ele>
        <time>2026-08-29T13:20:34Z</time>
      </trkpt>
      <trkpt lat="47.5448" lon="-2.89014">
        <ele>3.6</ele>
        <time>2026-08-29T13:20:35Z</time>
      </trkpt>
      <trkpt lat="47.54476" lon="-2.89013">
        <ele>3.7</ele>
        <time>2026-08-29T13:20:36Z</time>
      </trkpt>
      <trkpt lat="47.54472" lon="-2.89013">
        <ele>3.6</ele>
        <time>2026-08-29T13:20:37Z</time>
      </trkpt>
      <trkpt lat="47.54468" lon="-2.89016">
        <ele>3.5</ele>
        <time>2026-08-29T13:20:38Z</time>
      </trkpt>
      <trkpt lat="47.54465" lon="-2.8902">
        <ele>3.3</ele>
        <time>2026-08-29T13:20:39Z</time>
      </trkpt>
      <trkpt lat="47.54462" lon="-2.89025">
        <ele>3</ele>
        <time>2026-08-29T13:20:40Z</time>
      </trkpt>
      <trkpt lat="47.54459" lon="-2.8903">
        <ele>3</ele>
        <time>2026-08-29T13:20:41Z</time>
      </trkpt>
      <trkpt lat="47.54456" lon="-2.89034">
        <ele>3.1</ele>
        <time>2026-08-29T13:20:42Z</time>
      </trkpt>
      <trkpt lat="47.54452" lon="-2.89039">
        <ele>3.3</ele>
        <time>2026-08-29T13:20:43Z</time>
      </trkpt>
      <trkpt lat="47.54449" lon="-2.89043">
        <ele>3.3</ele>
        <time>2026-08-29T13:20:44Z</time>
      </trkpt>
      <trkpt lat="47.54445" lon="-2.89046">
        <ele>3.3</ele>
        <time>2026-08-29T13:20:45Z</time>
      </trkpt>
      <trkpt lat="47.54441" lon="-2.89048">
        <ele>3.4</ele>
        <time>2026-08-29T13:20:46Z</time>
      </trkpt>
      <trkpt lat="47.54437" lon="-2.8905">
        <ele>3.5</ele>
        <time>2026-08-29T13:20:47Z</time>
      </trkpt>
      <trkpt lat="47.54433" lon="-2.89051">
        <ele>3.6</ele>
        <time>2026-08-29T13:20:48Z</time>
      </trkpt>
      <trkpt lat="47.54429" lon="-2.89052">
        <ele>3.7</ele>
        <time>2026-08-29T13:20:49Z</time>
      </trkpt>
      <trkpt lat="47.54426" lon="-2.89055">
        <ele>3.7</ele>
        <time>2026-08-29T13:20:50Z</time>
      </trkpt>
      <trkpt lat="47.54422" lon="-2.89058">
        <ele>3.8</ele>
        <time>2026-08-29T13:20:51Z</time>
      </trkpt>
      <trkpt lat="47.5442" lon="-2.89062">
        <ele>3.9</ele>
        <time>2026-08-29T13:20:52Z</time>
      </trkpt>
      <trkpt lat="47.54417" lon="-2.89067">
        <ele>4</ele>
        <time>2026-08-29T13:20:53Z</time>
      </trkpt>
      <trkpt lat="47.54416" lon="-2.89072">
        <ele>4</ele>
        <time>2026-08-29T13:20:54Z</time>
      </trkpt>
      <trkpt lat="47.54415" lon="-2.89077">
        <ele>4.1</ele>
        <time>2026-08-29T13:20:55Z</time>
      </trkpt>
      <trkpt lat="47.54415" lon="-2.89082">
        <ele>4.1</ele>
        <time>2026-08-29T13:20:56Z</time>
      </trkpt>
      <trkpt lat="47.54413" lon="-2.89087">
        <ele>4.1</ele>
        <time>2026-08-29T13:20:57Z</time>
      </trkpt>
      <trkpt lat="47.54411" lon="-2.89091">
        <ele>4.1</ele>
        <time>2026-08-29T13:20:58Z</time>
      </trkpt>
      <trkpt lat="47.54409" lon="-2.89095">
        <ele>4.2</ele>
        <time>2026-08-29T13:20:59Z</time>
      </trkpt>
      <trkpt lat="47.54408" lon="-2.89097">
        <ele>4.2</ele>
        <time>2026-08-29T13:21:00Z</time>
      </trkpt>
      <trkpt lat="47.54407" lon="-2.89098">
        <ele>4.2</ele>
        <time>2026-08-29T13:21:01Z</time>
      </trkpt>
      <trkpt lat="47.54407" lon="-2.89098">
        <ele>4.2</ele>
        <time>2026-08-29T13:21:02Z</time>
      </trkpt>
      <trkpt lat="47.54408" lon="-2.89099">
        <ele>4.1</ele>
        <time>2026-08-29T13:21:03Z</time>
      </trkpt>
      <trkpt lat="47.54404" lon="-2.89102">
        <ele>4.1</ele>
        <time>2026-08-29T13:30:08Z</time>
      </trkpt>
      <trkpt lat="47.54403" lon="-2.89104">
        <ele>4.1</ele>
        <time>2026-08-29T13:30:09Z</time>
      </trkpt>
      <trkpt lat="47.54401" lon="-2.89105">
        <ele>4.1</ele>
        <time>2026-08-29T13:30:10Z</time>
      </trkpt>
      <trkpt lat="47.544" lon="-2.89106">
        <ele>4.1</ele>
        <time>2026-08-29T13:30:11Z</time>
      </trkpt>
      <trkpt lat="47.54398" lon="-2.89108">
        <ele>4.1</ele>
        <time>2026-08-29T13:30:12Z</time>
      </trkpt>
      <trkpt lat="47.54395" lon="-2.8911">
        <ele>4</ele>
        <time>2026-08-29T13:30:13Z</time>
      </trkpt>
      <trkpt lat="47.54393" lon="-2.89112">
        <ele>3.9</ele>
        <time>2026-08-29T13:30:14Z</time>
      </trkpt>
      <trkpt lat="47.54391" lon="-2.89115">
        <ele>3.6</ele>
        <time>2026-08-29T13:30:15Z</time>
      </trkpt>
      <trkpt lat="47.54388" lon="-2.89119">
        <ele>3.2</ele>
        <time>2026-08-29T13:30:16Z</time>
      </trkpt>
      <trkpt lat="47.54386" lon="-2.89122">
        <ele>3.1</ele>
        <time>2026-08-29T13:30:17Z</time>
      </trkpt>
      <trkpt lat="47.54384" lon="-2.89126">
        <ele>2.8</ele>
        <time>2026-08-29T13:30:18Z</time>
      </trkpt>
      <trkpt lat="47.54381" lon="-2.8913">
        <ele>2.7</ele>
        <time>2026-08-29T13:30:19Z</time>
      </trkpt>
      <trkpt lat="47.54379" lon="-2.89133">
        <ele>2.6</ele>
        <time>2026-08-29T13:30:20Z</time>
      </trkpt>
      <trkpt lat="47.54376" lon="-2.89137">
        <ele>2.6</ele>
        <time>2026-08-29T13:30:21Z</time>
      </trkpt>
      <trkpt lat="47.54373" lon="-2.89141">
        <ele>2.7</ele>
        <time>2026-08-29T13:30:22Z</time>
      </trkpt>
      <trkpt lat="47.5437" lon="-2.89144">
        <ele>2.8</ele>
        <time>2026-08-29T13:30:23Z</time>
      </trkpt>
      <trkpt lat="47.54368" lon="-2.89148">
        <ele>2.8</ele>
        <time>2026-08-29T13:30:24Z</time>
      </trkpt>
      <trkpt lat="47.54365" lon="-2.89151">
        <ele>2.9</ele>
        <time>2026-08-29T13:30:25Z</time>
      </trkpt>
      <trkpt lat="47.54363" lon="-2.89154">
        <ele>2.8</ele>
        <time>2026-08-29T13:30:26Z</time>
      </trkpt>
      <trkpt lat="47.5436" lon="-2.89158">
        <ele>2.8</ele>
        <time>2026-08-29T13:30:27Z</time>
      </trkpt>
      <trkpt lat="47.54358" lon="-2.89161">
        <ele>2.8</ele>
        <time>2026-08-29T13:30:28Z</time>
      </trkpt>
      <trkpt lat="47.54356" lon="-2.89164">
        <ele>2.9</ele>
        <time>2026-08-29T13:30:29Z</time>
      </trkpt>
      <trkpt lat="47.54354" lon="-2.89167">
        <ele>3</ele>
        <time>2026-08-29T13:30:30Z</time>
      </trkpt>
      <trkpt lat="47.54351" lon="-2.89171">
        <ele>3.5</ele>
        <time>2026-08-29T13:30:31Z</time>
      </trkpt>
      <trkpt lat="47.54348" lon="-2.89174">
        <ele>3.9</ele>
        <time>2026-08-29T13:30:32Z</time>
      </trkpt>
      <trkpt lat="47.54345" lon="-2.89177">
        <ele>4.2</ele>
        <time>2026-08-29T13:30:33Z</time>
      </trkpt>
      <trkpt lat="47.54343" lon="-2.8918">
        <ele>4.3</ele>
        <time>2026-08-29T13:30:34Z</time>
      </trkpt>
      <trkpt lat="47.5434" lon="-2.89184">
        <ele>4.4</ele>
        <time>2026-08-29T13:30:35Z</time>
      </trkpt>
      <trkpt lat="47.54338" lon="-2.89187">
        <ele>4.4</ele>
        <time>2026-08-29T13:30:36Z</time>
      </trkpt>
      <trkpt lat="47.54335" lon="-2.89191">
        <ele>4.2</ele>
        <time>2026-08-29T13:30:37Z</time>
      </trkpt>
      <trkpt lat="47.54332" lon="-2.89194">
        <ele>4.1</ele>
        <time>2026-08-29T13:30:38Z</time>
      </trkpt>
      <trkpt lat="47.54329" lon="-2.89197">
        <ele>4.1</ele>
        <time>2026-08-29T13:30:39Z</time>
      </trkpt>
      <trkpt lat="47.54327" lon="-2.89199">
        <ele>4.2</ele>
        <time>2026-08-29T13:30:40Z</time>
      </trkpt>
      <trkpt lat="47.54324" lon="-2.89202">
        <ele>4.2</ele>
        <time>2026-08-29T13:30:41Z</time>
      </trkpt>
      <trkpt lat="47.54321" lon="-2.89206">
        <ele>4.3</ele>
        <time>2026-08-29T13:30:42Z</time>
      </trkpt>
      <trkpt lat="47.54318" lon="-2.89209">
        <ele>4.3</ele>
        <time>2026-08-29T13:30:43Z</time>
      </trkpt>
      <trkpt lat="47.54315" lon="-2.89212">
        <ele>4.2</ele>
        <time>2026-08-29T13:30:44Z</time>
      </trkpt>
      <trkpt lat="47.54312" lon="-2.89216">
        <ele>4.2</ele>
        <time>2026-08-29T13:30:45Z</time>
      </trkpt>
      <trkpt lat="47.54309" lon="-2.89219">
        <ele>4.1</ele>
        <time>2026-08-29T13:30:46Z</time>
      </trkpt>
      <trkpt lat="47.54306" lon="-2.89223">
        <ele>4</ele>
        <time>2026-08-29T13:30:47Z</time>
      </trkpt>
      <trkpt lat="47.54303" lon="-2.89226">
        <ele>4</ele>
        <time>2026-08-29T13:30:48Z</time>
      </trkpt>
      <trkpt lat="47.543" lon="-2.89229">
        <ele>4</ele>
        <time>2026-08-29T13:30:49Z</time>
      </trkpt>
      <trkpt lat="47.54297" lon="-2.89232">
        <ele>4</ele>
        <time>2026-08-29T13:30:50Z</time>
      </trkpt>
      <trkpt lat="47.54293" lon="-2.89233">
        <ele>4</ele>
        <time>2026-08-29T13:30:51Z</time>
      </trkpt>
      <trkpt lat="47.54289" lon="-2.89233">
        <ele>4</ele>
        <time>2026-08-29T13:30:52Z</time>
      </trkpt>
      <trkpt lat="47.54285" lon="-2.89232">
        <ele>4</ele>
        <time>2026-08-29T13:30:53Z</time>
      </trkpt>
      <trkpt lat="47.54281" lon="-2.89229">
        <ele>4</ele>
        <time>2026-08-29T13:30:54Z</time>
      </trkpt>
      <trkpt lat="47.54277" lon="-2.89228">
        <ele>4</ele>
        <time>2026-08-29T13:30:55Z</time>
      </trkpt>
      <trkpt lat="47.54273" lon="-2.89227">
        <ele>4</ele>
        <time>2026-08-29T13:30:56Z</time>
      </trkpt>
      <trkpt lat="47.54269" lon="-2.89229">
        <ele>4</ele>
        <time>2026-08-29T13:30:57Z</time>
      </trkpt>
      <trkpt lat="47.54266" lon="-2.89232">
        <ele>4</ele>
        <time>2026-08-29T13:30:58Z</time>
      </trkpt>
      <trkpt lat="47.54262" lon="-2.89236">
        <ele>4</ele>
        <time>2026-08-29T13:30:59Z</time>
      </trkpt>
      <trkpt lat="47.5426" lon="-2.8924">
        <ele>4</ele>
        <time>2026-08-29T13:31:00Z</time>
      </trkpt>
      <trkpt lat="47.54258" lon="-2.89246">
        <ele>4</ele>
        <time>2026-08-29T13:31:01Z</time>
      </trkpt>
      <trkpt lat="47.54256" lon="-2.89251">
        <ele>4</ele>
        <time>2026-08-29T13:31:02Z</time>
      </trkpt>
      <trkpt lat="47.54255" lon="-2.89257">
        <ele>4</ele>
        <time>2026-08-29T13:31:03Z</time>
      </trkpt>
      <trkpt lat="47.54254" lon="-2.89263">
        <ele>4</ele>
        <time>2026-08-29T13:31:04Z</time>
      </trkpt>
      <trkpt lat="47.54253" lon="-2.89268">
        <ele>4</ele>
        <time>2026-08-29T13:31:05Z</time>
      </trkpt>
      <trkpt lat="47.54252" lon="-2.89275">
        <ele>4</ele>
        <time>2026-08-29T13:31:06Z</time>
      </trkpt>
      <trkpt lat="47.54251" lon="-2.89281">
        <ele>4</ele>
        <time>2026-08-29T13:31:07Z</time>
      </trkpt>
      <trkpt lat="47.54252" lon="-2.89287">
        <ele>4</ele>
        <time>2026-08-29T13:31:08Z</time>
      </trkpt>
      <trkpt lat="47.54252" lon="-2.89293">
        <ele>4</ele>
        <time>2026-08-29T13:31:09Z</time>
      </trkpt>
      <trkpt lat="47.54253" lon="-2.89299">
        <ele>4</ele>
        <time>2026-08-29T13:31:10Z</time>
      </trkpt>
      <trkpt lat="47.54253" lon="-2.89306">
        <ele>4</ele>
        <time>2026-08-29T13:31:11Z</time>
      </trkpt>
      <trkpt lat="47.54252" lon="-2.89312">
        <ele>4</ele>
        <time>2026-08-29T13:31:12Z</time>
      </trkpt>
      <trkpt lat="47.54251" lon="-2.89319">
        <ele>4</ele>
        <time>2026-08-29T13:31:13Z</time>
      </trkpt>
      <trkpt lat="47.54251" lon="-2.89325">
        <ele>4</ele>
        <time>2026-08-29T13:31:14Z</time>
      </trkpt>
      <trkpt lat="47.54249" lon="-2.89331">
        <ele>4.1</ele>
        <time>2026-08-29T13:31:15Z</time>
      </trkpt>
      <trkpt lat="47.54247" lon="-2.89337">
        <ele>4.1</ele>
        <time>2026-08-29T13:31:16Z</time>
      </trkpt>
      <trkpt lat="47.54245" lon="-2.89343">
        <ele>3.9</ele>
        <time>2026-08-29T13:31:17Z</time>
      </trkpt>
      <trkpt lat="47.54243" lon="-2.89348">
        <ele>3.8</ele>
        <time>2026-08-29T13:31:18Z</time>
      </trkpt>
      <trkpt lat="47.54241" lon="-2.89355">
        <ele>3.6</ele>
        <time>2026-08-29T13:31:19Z</time>
      </trkpt>
      <trkpt lat="47.54241" lon="-2.89361">
        <ele>3.3</ele>
        <time>2026-08-29T13:31:20Z</time>
      </trkpt>
      <trkpt lat="47.5424" lon="-2.89368">
        <ele>3.2</ele>
        <time>2026-08-29T13:31:21Z</time>
      </trkpt>
      <trkpt lat="47.5424" lon="-2.89375">
        <ele>3</ele>
        <time>2026-08-29T13:31:22Z</time>
      </trkpt>
      <trkpt lat="47.54239" lon="-2.89381">
        <ele>3</ele>
        <time>2026-08-29T13:31:23Z</time>
      </trkpt>
      <trkpt lat="47.54238" lon="-2.89388">
        <ele>2.9</ele>
        <time>2026-08-29T13:31:24Z</time>
      </trkpt>
      <trkpt lat="47.54237" lon="-2.89394">
        <ele>3.1</ele>
        <time>2026-08-29T13:31:25Z</time>
      </trkpt>
      <trkpt lat="47.54236" lon="-2.894">
        <ele>3.4</ele>
        <time>2026-08-29T13:31:26Z</time>
      </trkpt>
      <trkpt lat="47.54235" lon="-2.89406">
        <ele>3.6</ele>
        <time>2026-08-29T13:31:27Z</time>
      </trkpt>
      <trkpt lat="47.54234" lon="-2.89412">
        <ele>3.9</ele>
        <time>2026-08-29T13:31:28Z</time>
      </trkpt>
      <trkpt lat="47.54232" lon="-2.89418">
        <ele>4</ele>
        <time>2026-08-29T13:31:29Z</time>
      </trkpt>
      <trkpt lat="47.5423" lon="-2.89424">
        <ele>4</ele>
        <time>2026-08-29T13:31:30Z</time>
      </trkpt>
      <trkpt lat="47.54228" lon="-2.8943">
        <ele>4</ele>
        <time>2026-08-29T13:31:31Z</time>
      </trkpt>
      <trkpt lat="47.54226" lon="-2.89435">
        <ele>4</ele>
        <time>2026-08-29T13:31:32Z</time>
      </trkpt>
      <trkpt lat="47.54224" lon="-2.89441">
        <ele>4</ele>
        <time>2026-08-29T13:31:33Z</time>
      </trkpt>
      <trkpt lat="47.54222" lon="-2.89446">
        <ele>3.8</ele>
        <time>2026-08-29T13:31:34Z</time>
      </trkpt>
      <trkpt lat="47.5422" lon="-2.89451">
        <ele>3.3</ele>
        <time>2026-08-29T13:31:35Z</time>
      </trkpt>
      <trkpt lat="47.54218" lon="-2.89455">
        <ele>3</ele>
        <time>2026-08-29T13:31:36Z</time>
      </trkpt>
      <trkpt lat="47.54215" lon="-2.8946">
        <ele>2.8</ele>
        <time>2026-08-29T13:31:37Z</time>
      </trkpt>
      <trkpt lat="47.54212" lon="-2.89464">
        <ele>2.7</ele>
        <time>2026-08-29T13:31:38Z</time>
      </trkpt>
      <trkpt lat="47.54209" lon="-2.89468">
        <ele>2.7</ele>
        <time>2026-08-29T13:31:39Z</time>
      </trkpt>
      <trkpt lat="47.54207" lon="-2.89472">
        <ele>2.7</ele>
        <time>2026-08-29T13:31:40Z</time>
      </trkpt>
      <trkpt lat="47.54204" lon="-2.89476">
        <ele>3</ele>
        <time>2026-08-29T13:31:41Z</time>
      </trkpt>
      <trkpt lat="47.54201" lon="-2.89481">
        <ele>3.2</ele>
        <time>2026-08-29T13:31:42Z</time>
      </trkpt>
      <trkpt lat="47.54199" lon="-2.89485">
        <ele>3.3</ele>
        <time>2026-08-29T13:31:43Z</time>
      </trkpt>
      <trkpt lat="47.54196" lon="-2.89489">
        <ele>3.3</ele>
        <time>2026-08-29T13:31:44Z</time>
      </trkpt>
      <trkpt lat="47.54193" lon="-2.89493">
        <ele>3.3</ele>
        <time>2026-08-29T13:31:45Z</time>
      </trkpt>
      <trkpt lat="47.5419" lon="-2.89497">
        <ele>3.3</ele>
        <time>2026-08-29T13:31:46Z</time>
      </trkpt>
      <trkpt lat="47.54187" lon="-2.89502">
        <ele>3.3</ele>
        <time>2026-08-29T13:31:47Z</time>
      </trkpt>
      <trkpt lat="47.54184" lon="-2.89506">
        <ele>3.5</ele>
        <time>2026-08-29T13:31:48Z</time>
      </trkpt>
      <trkpt lat="47.54181" lon="-2.8951">
        <ele>3.7</ele>
        <time>2026-08-29T13:31:49Z</time>
      </trkpt>
      <trkpt lat="47.54179" lon="-2.89515">
        <ele>3.8</ele>
        <time>2026-08-29T13:31:50Z</time>
      </trkpt>
      <trkpt lat="47.54176" lon="-2.89519">
        <ele>3.9</ele>
        <time>2026-08-29T13:31:51Z</time>
      </trkpt>
      <trkpt lat="47.54173" lon="-2.89524">
        <ele>4</ele>
        <time>2026-08-29T13:31:52Z</time>
      </trkpt>
      <trkpt lat="47.54171" lon="-2.89528">
        <ele>4</ele>
        <time>2026-08-29T13:31:53Z</time>
      </trkpt>
      <trkpt lat="47.54168" lon="-2.89532">
        <ele>4</ele>
        <time>2026-08-29T13:31:54Z</time>
      </trkpt>
      <trkpt lat="47.54166" lon="-2.89536">
        <ele>4</ele>
        <time>2026-08-29T13:31:55Z</time>
      </trkpt>
      <trkpt lat="47.54163" lon="-2.8954">
        <ele>4</ele>
        <time>2026-08-29T13:31:56Z</time>
      </trkpt>
      <trkpt lat="47.54161" lon="-2.89545">
        <ele>4</ele>
        <time>2026-08-29T13:31:57Z</time>
      </trkpt>
      <trkpt lat="47.54158" lon="-2.89549">
        <ele>4</ele>
        <time>2026-08-29T13:31:58Z</time>
      </trkpt>
      <trkpt lat="47.54155" lon="-2.89553">
        <ele>4</ele>
        <time>2026-08-29T13:31:59Z</time>
      </trkpt>
      <trkpt lat="47.54152" lon="-2.89556">
        <ele>4</ele>
        <time>2026-08-29T13:32:00Z</time>
      </trkpt>
      <trkpt lat="47.54149" lon="-2.89559">
        <ele>4</ele>
        <time>2026-08-29T13:32:01Z</time>
      </trkpt>
      <trkpt lat="47.54146" lon="-2.89562">
        <ele>4</ele>
        <time>2026-08-29T13:32:02Z</time>
      </trkpt>
      <trkpt lat="47.54143" lon="-2.89566">
        <ele>4</ele>
        <time>2026-08-29T13:32:03Z</time>
      </trkpt>
      <trkpt lat="47.5414" lon="-2.8957">
        <ele>4</ele>
        <time>2026-08-29T13:32:04Z</time>
      </trkpt>
      <trkpt lat="47.54137" lon="-2.89573">
        <ele>4</ele>
        <time>2026-08-29T13:32:05Z</time>
      </trkpt>
      <trkpt lat="47.54134" lon="-2.89577">
        <ele>4</ele>
        <time>2026-08-29T13:32:06Z</time>
      </trkpt>
      <trkpt lat="47.54132" lon="-2.89581">
        <ele>4</ele>
        <time>2026-08-29T13:32:07Z</time>
      </trkpt>
      <trkpt lat="47.54129" lon="-2.89585">
        <ele>4</ele>
        <time>2026-08-29T13:32:08Z</time>
      </trkpt>
      <trkpt lat="47.54127" lon="-2.89589">
        <ele>3.9</ele>
        <time>2026-08-29T13:32:09Z</time>
      </trkpt>
      <trkpt lat="47.54124" lon="-2.89592">
        <ele>3.8</ele>
        <time>2026-08-29T13:32:10Z</time>
      </trkpt>
      <trkpt lat="47.54121" lon="-2.89596">
        <ele>3.7</ele>
        <time>2026-08-29T13:32:11Z</time>
      </trkpt>
      <trkpt lat="47.54118" lon="-2.89599">
        <ele>3.6</ele>
        <time>2026-08-29T13:32:12Z</time>
      </trkpt>
      <trkpt lat="47.54115" lon="-2.89603">
        <ele>3.4</ele>
        <time>2026-08-29T13:32:13Z</time>
      </trkpt>
      <trkpt lat="47.54113" lon="-2.89607">
        <ele>3.2</ele>
        <time>2026-08-29T13:32:14Z</time>
      </trkpt>
      <trkpt lat="47.54111" lon="-2.89611">
        <ele>3</ele>
        <time>2026-08-29T13:32:15Z</time>
      </trkpt>
      <trkpt lat="47.54108" lon="-2.89615">
        <ele>3.6</ele>
        <time>2026-08-29T13:32:16Z</time>
      </trkpt>
      <trkpt lat="47.54105" lon="-2.89616">
        <ele>3.9</ele>
        <time>2026-08-29T13:32:17Z</time>
      </trkpt>
      <trkpt lat="47.54103" lon="-2.89616">
        <ele>4.1</ele>
        <time>2026-08-29T13:32:18Z</time>
      </trkpt>
      <trkpt lat="47.54101" lon="-2.89614">
        <ele>4.2</ele>
        <time>2026-08-29T13:32:19Z</time>
      </trkpt>
      <trkpt lat="47.54099" lon="-2.89611">
        <ele>4.3</ele>
        <time>2026-08-29T13:32:20Z</time>
      </trkpt>
      <trkpt lat="47.54098" lon="-2.89608">
        <ele>4.5</ele>
        <time>2026-08-29T13:32:21Z</time>
      </trkpt>
      <trkpt lat="47.54097" lon="-2.89604">
        <ele>4.6</ele>
        <time>2026-08-29T13:32:22Z</time>
      </trkpt>
      <trkpt lat="47.54097" lon="-2.89601">
        <ele>4.7</ele>
        <time>2026-08-29T13:32:23Z</time>
      </trkpt>
      <trkpt lat="47.54097" lon="-2.89597">
        <ele>4.8</ele>
        <time>2026-08-29T13:32:24Z</time>
      </trkpt>
      <trkpt lat="47.54096" lon="-2.89593">
        <ele>4.9</ele>
        <time>2026-08-29T13:32:25Z</time>
      </trkpt>
      <trkpt lat="47.54096" lon="-2.89589">
        <ele>5</ele>
        <time>2026-08-29T13:32:26Z</time>
      </trkpt>
      <trkpt lat="47.54095" lon="-2.89585">
        <ele>5.1</ele>
        <time>2026-08-29T13:32:27Z</time>
      </trkpt>
      <trkpt lat="47.54094" lon="-2.89581">
        <ele>5.3</ele>
        <time>2026-08-29T13:32:28Z</time>
      </trkpt>
      <trkpt lat="47.54092" lon="-2.89577">
        <ele>5.6</ele>
        <time>2026-08-29T13:32:29Z</time>
      </trkpt>
      <trkpt lat="47.54091" lon="-2.89573">
        <ele>5.8</ele>
        <time>2026-08-29T13:32:30Z</time>
      </trkpt>
      <trkpt lat="47.5409" lon="-2.89568">
        <ele>6.1</ele>
        <time>2026-08-29T13:32:31Z</time>
      </trkpt>
      <trkpt lat="47.54089" lon="-2.89564">
        <ele>6.3</ele>
        <time>2026-08-29T13:32:32Z</time>
      </trkpt>
      <trkpt lat="47.54088" lon="-2.89559">
        <ele>6.5</ele>
        <time>2026-08-29T13:32:33Z</time>
      </trkpt>
      <trkpt lat="47.54086" lon="-2.89555">
        <ele>6.8</ele>
        <time>2026-08-29T13:32:34Z</time>
      </trkpt>
      <trkpt lat="47.54085" lon="-2.89551">
        <ele>7.1</ele>
        <time>2026-08-29T13:32:35Z</time>
      </trkpt>
      <trkpt lat="47.54084" lon="-2.89546">
        <ele>7.3</ele>
        <time>2026-08-29T13:32:36Z</time>
      </trkpt>
      <trkpt lat="47.54083" lon="-2.89542">
        <ele>7.5</ele>
        <time>2026-08-29T13:32:37Z</time>
      </trkpt>
      <trkpt lat="47.54082" lon="-2.89538">
        <ele>7.6</ele>
        <time>2026-08-29T13:32:38Z</time>
      </trkpt>
      <trkpt lat="47.54081" lon="-2.89533">
        <ele>7.8</ele>
        <time>2026-08-29T13:32:39Z</time>
      </trkpt>
      <trkpt lat="47.5408" lon="-2.89529">
        <ele>8</ele>
        <time>2026-08-29T13:32:40Z</time>
      </trkpt>
      <trkpt lat="47.54079" lon="-2.89525">
        <ele>8</ele>
        <time>2026-08-29T13:32:41Z</time>
      </trkpt>
      <trkpt lat="47.54078" lon="-2.8952">
        <ele>8.1</ele>
        <time>2026-08-29T13:32:42Z</time>
      </trkpt>
      <trkpt lat="47.54077" lon="-2.89516">
        <ele>8.1</ele>
        <time>2026-08-29T13:32:43Z</time>
      </trkpt>
      <trkpt lat="47.54076" lon="-2.89512">
        <ele>8.1</ele>
        <time>2026-08-29T13:32:44Z</time>
      </trkpt>
      <trkpt lat="47.54075" lon="-2.89508">
        <ele>8.2</ele>
        <time>2026-08-29T13:32:45Z</time>
      </trkpt>
      <trkpt lat="47.54074" lon="-2.89504">
        <ele>8.3</ele>
        <time>2026-08-29T13:32:46Z</time>
      </trkpt>
      <trkpt lat="47.54073" lon="-2.89499">
        <ele>8.4</ele>
        <time>2026-08-29T13:32:47Z</time>
      </trkpt>
      <trkpt lat="47.54071" lon="-2.89495">
        <ele>8.6</ele>
        <time>2026-08-29T13:32:48Z</time>
      </trkpt>
      <trkpt lat="47.5407" lon="-2.89491">
        <ele>8.8</ele>
        <time>2026-08-29T13:32:49Z</time>
      </trkpt>
      <trkpt lat="47.54069" lon="-2.89487">
        <ele>9</ele>
        <time>2026-08-29T13:32:50Z</time>
      </trkpt>
      <trkpt lat="47.54068" lon="-2.89483">
        <ele>9.2</ele>
        <time>2026-08-29T13:32:51Z</time>
      </trkpt>
      <trkpt lat="47.54067" lon="-2.89479">
        <ele>9.3</ele>
        <time>2026-08-29T13:32:52Z</time>
      </trkpt>
      <trkpt lat="47.54066" lon="-2.89476">
        <ele>9.5</ele>
        <time>2026-08-29T13:32:53Z</time>
      </trkpt>
      <trkpt lat="47.54065" lon="-2.89472">
        <ele>9.7</ele>
        <time>2026-08-29T13:32:54Z</time>
      </trkpt>
      <trkpt lat="47.54064" lon="-2.8947">
        <ele>9.8</ele>
        <time>2026-08-29T13:32:55Z</time>
      </trkpt>
      <trkpt lat="47.54063" lon="-2.89467">
        <ele>9.9</ele>
        <time>2026-08-29T13:32:56Z</time>
      </trkpt>
      <trkpt lat="47.54062" lon="-2.89465">
        <ele>10</ele>
        <time>2026-08-29T13:32:57Z</time>
      </trkpt>
      <trkpt lat="47.5406" lon="-2.89462">
        <ele>10.2</ele>
        <time>2026-08-29T13:32:58Z</time>
      </trkpt>
      <trkpt lat="47.5406" lon="-2.89458">
        <ele>10.4</ele>
        <time>2026-08-29T13:32:59Z</time>
      </trkpt>
      <trkpt lat="47.54059" lon="-2.89454">
        <ele>10.5</ele>
        <time>2026-08-29T13:33:00Z</time>
      </trkpt>
      <trkpt lat="47.54058" lon="-2.8945">
        <ele>10.7</ele>
        <time>2026-08-29T13:33:01Z</time>
      </trkpt>
      <trkpt lat="47.54057" lon="-2.89446">
        <ele>10.9</ele>
        <time>2026-08-29T13:33:02Z</time>
      </trkpt>
      <trkpt lat="47.54056" lon="-2.89442">
        <ele>11</ele>
        <time>2026-08-29T13:33:03Z</time>
      </trkpt>
      <trkpt lat="47.54055" lon="-2.89438">
        <ele>11</ele>
        <time>2026-08-29T13:33:04Z</time>
      </trkpt>
      <trkpt lat="47.54053" lon="-2.89434">
        <ele>11</ele>
        <time>2026-08-29T13:33:05Z</time>
      </trkpt>
      <trkpt lat="47.54052" lon="-2.8943">
        <ele>11</ele>
        <time>2026-08-29T13:33:06Z</time>
      </trkpt>
      <trkpt lat="47.54051" lon="-2.89425">
        <ele>11</ele>
        <time>2026-08-29T13:33:07Z</time>
      </trkpt>
      <trkpt lat="47.5405" lon="-2.89421">
        <ele>11</ele>
        <time>2026-08-29T13:33:08Z</time>
      </trkpt>
      <trkpt lat="47.54049" lon="-2.89416">
        <ele>11</ele>
        <time>2026-08-29T13:33:09Z</time>
      </trkpt>
      <trkpt lat="47.54048" lon="-2.89412">
        <ele>11</ele>
        <time>2026-08-29T13:33:10Z</time>
      </trkpt>
      <trkpt lat="47.54047" lon="-2.89408">
        <ele>11</ele>
        <time>2026-08-29T13:33:11Z</time>
      </trkpt>
      <trkpt lat="47.54046" lon="-2.89404">
        <ele>11</ele>
        <time>2026-08-29T13:33:12Z</time>
      </trkpt>
      <trkpt lat="47.54046" lon="-2.894">
        <ele>11</ele>
        <time>2026-08-29T13:33:13Z</time>
      </trkpt>
      <trkpt lat="47.54045" lon="-2.89395">
        <ele>11</ele>
        <time>2026-08-29T13:33:14Z</time>
      </trkpt>
      <trkpt lat="47.54044" lon="-2.89391">
        <ele>11</ele>
        <time>2026-08-29T13:33:15Z</time>
      </trkpt>
      <trkpt lat="47.54043" lon="-2.89387">
        <ele>11</ele>
        <time>2026-08-29T13:33:16Z</time>
      </trkpt>
      <trkpt lat="47.54042" lon="-2.89383">
        <ele>11</ele>
        <time>2026-08-29T13:33:17Z</time>
      </trkpt>
      <trkpt lat="47.54041" lon="-2.89379">
        <ele>11</ele>
        <time>2026-08-29T13:33:18Z</time>
      </trkpt>
      <trkpt lat="47.54039" lon="-2.89376">
        <ele>11</ele>
        <time>2026-08-29T13:33:19Z</time>
      </trkpt>
      <trkpt lat="47.54038" lon="-2.89374">
        <ele>11</ele>
        <time>2026-08-29T13:33:20Z</time>
      </trkpt>
      <trkpt lat="47.54035" lon="-2.89372">
        <ele>11</ele>
        <time>2026-08-29T13:33:21Z</time>
      </trkpt>
      <trkpt lat="47.54033" lon="-2.8937">
        <ele>11</ele>
        <time>2026-08-29T13:33:22Z</time>
      </trkpt>
      <trkpt lat="47.5403" lon="-2.89368">
        <ele>11</ele>
        <time>2026-08-29T13:33:23Z</time>
      </trkpt>
      <trkpt lat="47.54026" lon="-2.89365">
        <ele>10.9</ele>
        <time>2026-08-29T13:33:24Z</time>
      </trkpt>
      <trkpt lat="47.54022" lon="-2.89362">
        <ele>10.6</ele>
        <time>2026-08-29T13:33:25Z</time>
      </trkpt>
      <trkpt lat="47.54017" lon="-2.89358">
        <ele>10.2</ele>
        <time>2026-08-29T13:33:26Z</time>
      </trkpt>
      <trkpt lat="47.54013" lon="-2.89353">
        <ele>9.9</ele>
        <time>2026-08-29T13:33:27Z</time>
      </trkpt>
      <trkpt lat="47.54009" lon="-2.89346">
        <ele>9.6</ele>
        <time>2026-08-29T13:33:28Z</time>
      </trkpt>
      <trkpt lat="47.54006" lon="-2.89338">
        <ele>9.4</ele>
        <time>2026-08-29T13:33:29Z</time>
      </trkpt>
      <trkpt lat="47.54002" lon="-2.89329">
        <ele>9</ele>
        <time>2026-08-29T13:33:30Z</time>
      </trkpt>
      <trkpt lat="47.54" lon="-2.8932">
        <ele>8.5</ele>
        <time>2026-08-29T13:33:31Z</time>
      </trkpt>
      <trkpt lat="47.53998" lon="-2.8931">
        <ele>8</ele>
        <time>2026-08-29T13:33:32Z</time>
      </trkpt>
      <trkpt lat="47.53997" lon="-2.89301">
        <ele>7.8</ele>
        <time>2026-08-29T13:33:33Z</time>
      </trkpt>
      <trkpt lat="47.53995" lon="-2.89292">
        <ele>7.6</ele>
        <time>2026-08-29T13:33:34Z</time>
      </trkpt>
      <trkpt lat="47.53993" lon="-2.89285">
        <ele>7.3</ele>
        <time>2026-08-29T13:33:35Z</time>
      </trkpt>
      <trkpt lat="47.5399" lon="-2.89278">
        <ele>6.9</ele>
        <time>2026-08-29T13:33:36Z</time>
      </trkpt>
      <trkpt lat="47.53987" lon="-2.89271">
        <ele>6.6</ele>
        <time>2026-08-29T13:33:37Z</time>
      </trkpt>
      <trkpt lat="47.53983" lon="-2.89265">
        <ele>6.2</ele>
        <time>2026-08-29T13:33:38Z</time>
      </trkpt>
      <trkpt lat="47.53979" lon="-2.89258">
        <ele>5.7</ele>
        <time>2026-08-29T13:33:39Z</time>
      </trkpt>
      <trkpt lat="47.53975" lon="-2.8925">
        <ele>5.3</ele>
        <time>2026-08-29T13:33:40Z</time>
      </trkpt>
      <trkpt lat="47.53971" lon="-2.89243">
        <ele>5.2</ele>
        <time>2026-08-29T13:33:41Z</time>
      </trkpt>
      <trkpt lat="47.53968" lon="-2.89234">
        <ele>5.3</ele>
        <time>2026-08-29T13:33:42Z</time>
      </trkpt>
      <trkpt lat="47.53966" lon="-2.89226">
        <ele>5.4</ele>
        <time>2026-08-29T13:33:43Z</time>
      </trkpt>
      <trkpt lat="47.53963" lon="-2.89219">
        <ele>5.3</ele>
        <time>2026-08-29T13:33:44Z</time>
      </trkpt>
      <trkpt lat="47.5396" lon="-2.89211">
        <ele>4.9</ele>
        <time>2026-08-29T13:33:45Z</time>
      </trkpt>
      <trkpt lat="47.53957" lon="-2.89204">
        <ele>4.6</ele>
        <time>2026-08-29T13:33:46Z</time>
      </trkpt>
      <trkpt lat="47.53953" lon="-2.89197">
        <ele>4.3</ele>
        <time>2026-08-29T13:33:47Z</time>
      </trkpt>
      <trkpt lat="47.53948" lon="-2.8919">
        <ele>4.1</ele>
        <time>2026-08-29T13:33:48Z</time>
      </trkpt>
      <trkpt lat="47.53944" lon="-2.89182">
        <ele>4</ele>
        <time>2026-08-29T13:33:49Z</time>
      </trkpt>
      <trkpt lat="47.5394" lon="-2.89174">
        <ele>3.8</ele>
        <time>2026-08-29T13:33:50Z</time>
      </trkpt>
      <trkpt lat="47.53937" lon="-2.89167">
        <ele>3.7</ele>
        <time>2026-08-29T13:33:51Z</time>
      </trkpt>
      <trkpt lat="47.53933" lon="-2.89159">
        <ele>3.6</ele>
        <time>2026-08-29T13:33:52Z</time>
      </trkpt>
      <trkpt lat="47.53928" lon="-2.89154">
        <ele>3.4</ele>
        <time>2026-08-29T13:33:53Z</time>
      </trkpt>
      <trkpt lat="47.53923" lon="-2.8915">
        <ele>3.2</ele>
        <time>2026-08-29T13:33:54Z</time>
      </trkpt>
      <trkpt lat="47.53918" lon="-2.89148">
        <ele>3</ele>
        <time>2026-08-29T13:33:55Z</time>
      </trkpt>
      <trkpt lat="47.53913" lon="-2.89147">
        <ele>3.1</ele>
        <time>2026-08-29T13:33:56Z</time>
      </trkpt>
      <trkpt lat="47.53908" lon="-2.89145">
        <ele>3.2</ele>
        <time>2026-08-29T13:33:57Z</time>
      </trkpt>
      <trkpt lat="47.53904" lon="-2.89141">
        <ele>3.4</ele>
        <time>2026-08-29T13:33:58Z</time>
      </trkpt>
      <trkpt lat="47.53903" lon="-2.89135">
        <ele>3.5</ele>
        <time>2026-08-29T13:33:59Z</time>
      </trkpt>
      <trkpt lat="47.53903" lon="-2.89129">
        <ele>3.5</ele>
        <time>2026-08-29T13:34:00Z</time>
      </trkpt>
      <trkpt lat="47.53904" lon="-2.89123">
        <ele>3.5</ele>
        <time>2026-08-29T13:34:01Z</time>
      </trkpt>
      <trkpt lat="47.53905" lon="-2.89117">
        <ele>3.4</ele>
        <time>2026-08-29T13:34:02Z</time>
      </trkpt>
      <trkpt lat="47.53906" lon="-2.8911">
        <ele>3.4</ele>
        <time>2026-08-29T13:34:03Z</time>
      </trkpt>
      <trkpt lat="47.53907" lon="-2.89103">
        <ele>3.3</ele>
        <time>2026-08-29T13:34:04Z</time>
      </trkpt>
      <trkpt lat="47.53908" lon="-2.89096">
        <ele>3.3</ele>
        <time>2026-08-29T13:34:05Z</time>
      </trkpt>
      <trkpt lat="47.53908" lon="-2.89089">
        <ele>3.3</ele>
        <time>2026-08-29T13:34:06Z</time>
      </trkpt>
      <trkpt lat="47.53908" lon="-2.89082">
        <ele>3.3</ele>
        <time>2026-08-29T13:34:07Z</time>
      </trkpt>
      <trkpt lat="47.53908" lon="-2.89074">
        <ele>3.3</ele>
        <time>2026-08-29T13:34:08Z</time>
      </trkpt>
      <trkpt lat="47.53908" lon="-2.89067">
        <ele>3.3</ele>
        <time>2026-08-29T13:34:09Z</time>
      </trkpt>
      <trkpt lat="47.53908" lon="-2.89059">
        <ele>3.3</ele>
        <time>2026-08-29T13:34:10Z</time>
      </trkpt>
      <trkpt lat="47.53908" lon="-2.89052">
        <ele>3.3</ele>
        <time>2026-08-29T13:34:11Z</time>
      </trkpt>
      <trkpt lat="47.53908" lon="-2.89045">
        <ele>3.2</ele>
        <time>2026-08-29T13:34:12Z</time>
      </trkpt>
      <trkpt lat="47.53907" lon="-2.89037">
        <ele>3.1</ele>
        <time>2026-08-29T13:34:13Z</time>
      </trkpt>
      <trkpt lat="47.53907" lon="-2.8903">
        <ele>3</ele>
        <time>2026-08-29T13:34:14Z</time>
      </trkpt>
      <trkpt lat="47.53906" lon="-2.89022">
        <ele>2.9</ele>
        <time>2026-08-29T13:34:15Z</time>
      </trkpt>
      <trkpt lat="47.53905" lon="-2.89015">
        <ele>2.7</ele>
        <time>2026-08-29T13:34:16Z</time>
      </trkpt>
      <trkpt lat="47.53904" lon="-2.89008">
        <ele>2.6</ele>
        <time>2026-08-29T13:34:17Z</time>
      </trkpt>
      <trkpt lat="47.53904" lon="-2.89001">
        <ele>2.5</ele>
        <time>2026-08-29T13:34:18Z</time>
      </trkpt>
      <trkpt lat="47.53903" lon="-2.88994">
        <ele>2.6</ele>
        <time>2026-08-29T13:34:19Z</time>
      </trkpt>
      <trkpt lat="47.53902" lon="-2.88987">
        <ele>2.7</ele>
        <time>2026-08-29T13:34:20Z</time>
      </trkpt>
      <trkpt lat="47.53901" lon="-2.8898">
        <ele>2.9</ele>
        <time>2026-08-29T13:34:21Z</time>
      </trkpt>
      <trkpt lat="47.539" lon="-2.88973">
        <ele>3</ele>
        <time>2026-08-29T13:34:22Z</time>
      </trkpt>
      <trkpt lat="47.539" lon="-2.88967">
        <ele>3</ele>
        <time>2026-08-29T13:34:23Z</time>
      </trkpt>
      <trkpt lat="47.539" lon="-2.8896">
        <ele>3</ele>
        <time>2026-08-29T13:34:24Z</time>
      </trkpt>
      <trkpt lat="47.539" lon="-2.88953">
        <ele>3</ele>
        <time>2026-08-29T13:34:25Z</time>
      </trkpt>
      <trkpt lat="47.539" lon="-2.88947">
        <ele>3</ele>
        <time>2026-08-29T13:34:26Z</time>
      </trkpt>
      <trkpt lat="47.539" lon="-2.8894">
        <ele>3</ele>
        <time>2026-08-29T13:34:27Z</time>
      </trkpt>
      <trkpt lat="47.53901" lon="-2.88933">
        <ele>3</ele>
        <time>2026-08-29T13:34:28Z</time>
      </trkpt>
      <trkpt lat="47.53902" lon="-2.88927">
        <ele>3</ele>
        <time>2026-08-29T13:34:29Z</time>
      </trkpt>
      <trkpt lat="47.53903" lon="-2.8892">
        <ele>3</ele>
        <time>2026-08-29T13:34:30Z</time>
      </trkpt>
      <trkpt lat="47.53904" lon="-2.88914">
        <ele>3</ele>
        <time>2026-08-29T13:34:31Z</time>
      </trkpt>
      <trkpt lat="47.53906" lon="-2.88908">
        <ele>3</ele>
        <time>2026-08-29T13:34:32Z</time>
      </trkpt>
      <trkpt lat="47.53907" lon="-2.88901">
        <ele>3</ele>
        <time>2026-08-29T13:34:33Z</time>
      </trkpt>
      <trkpt lat="47.53909" lon="-2.88894">
        <ele>2.9</ele>
        <time>2026-08-29T13:34:34Z</time>
      </trkpt>
      <trkpt lat="47.5391" lon="-2.88888">
        <ele>2.7</ele>
        <time>2026-08-29T13:34:35Z</time>
      </trkpt>
      <trkpt lat="47.5391" lon="-2.88881">
        <ele>2.6</ele>
        <time>2026-08-29T13:34:36Z</time>
      </trkpt>
      <trkpt lat="47.53911" lon="-2.88874">
        <ele>2.4</ele>
        <time>2026-08-29T13:34:37Z</time>
      </trkpt>
      <trkpt lat="47.53911" lon="-2.88868">
        <ele>2.3</ele>
        <time>2026-08-29T13:34:38Z</time>
      </trkpt>
      <trkpt lat="47.53911" lon="-2.88861">
        <ele>2.2</ele>
        <time>2026-08-29T13:34:39Z</time>
      </trkpt>
      <trkpt lat="47.53911" lon="-2.88854">
        <ele>2.2</ele>
        <time>2026-08-29T13:34:40Z</time>
      </trkpt>
      <trkpt lat="47.53911" lon="-2.88847">
        <ele>2.2</ele>
        <time>2026-08-29T13:34:41Z</time>
      </trkpt>
      <trkpt lat="47.53911" lon="-2.88841">
        <ele>2.2</ele>
        <time>2026-08-29T13:34:42Z</time>
      </trkpt>
      <trkpt lat="47.53911" lon="-2.88834">
        <ele>2.2</ele>
        <time>2026-08-29T13:34:43Z</time>
      </trkpt>
      <trkpt lat="47.53911" lon="-2.88828">
        <ele>2.2</ele>
        <time>2026-08-29T13:34:44Z</time>
      </trkpt>
      <trkpt lat="47.5391" lon="-2.88821">
        <ele>2.2</ele>
        <time>2026-08-29T13:34:45Z</time>
      </trkpt>
      <trkpt lat="47.5391" lon="-2.88815">
        <ele>2.2</ele>
        <time>2026-08-29T13:34:46Z</time>
      </trkpt>
      <trkpt lat="47.5391" lon="-2.88809">
        <ele>2.2</ele>
        <time>2026-08-29T13:34:47Z</time>
      </trkpt>
      <trkpt lat="47.53909" lon="-2.88802">
        <ele>2.3</ele>
        <time>2026-08-29T13:34:48Z</time>
      </trkpt>
      <trkpt lat="47.53909" lon="-2.88795">
        <ele>2.4</ele>
        <time>2026-08-29T13:34:49Z</time>
      </trkpt>
      <trkpt lat="47.53908" lon="-2.88789">
        <ele>2.5</ele>
        <time>2026-08-29T13:34:50Z</time>
      </trkpt>
      <trkpt lat="47.53907" lon="-2.88782">
        <ele>2.6</ele>
        <time>2026-08-29T13:34:51Z</time>
      </trkpt>
      <trkpt lat="47.53905" lon="-2.88776">
        <ele>2.8</ele>
        <time>2026-08-29T13:34:52Z</time>
      </trkpt>
      <trkpt lat="47.53904" lon="-2.88769">
        <ele>2.8</ele>
        <time>2026-08-29T13:34:53Z</time>
      </trkpt>
      <trkpt lat="47.53902" lon="-2.88763">
        <ele>2.8</ele>
        <time>2026-08-29T13:34:54Z</time>
      </trkpt>
      <trkpt lat="47.539" lon="-2.88756">
        <ele>2.7</ele>
        <time>2026-08-29T13:34:55Z</time>
      </trkpt>
      <trkpt lat="47.53898" lon="-2.8875">
        <ele>2.7</ele>
        <time>2026-08-29T13:34:56Z</time>
      </trkpt>
      <trkpt lat="47.53896" lon="-2.88745">
        <ele>2.7</ele>
        <time>2026-08-29T13:34:57Z</time>
      </trkpt>
      <trkpt lat="47.53894" lon="-2.88739">
        <ele>2.8</ele>
        <time>2026-08-29T13:34:58Z</time>
      </trkpt>
      <trkpt lat="47.53892" lon="-2.88733">
        <ele>2.9</ele>
        <time>2026-08-29T13:34:59Z</time>
      </trkpt>
      <trkpt lat="47.53889" lon="-2.88728">
        <ele>3</ele>
        <time>2026-08-29T13:35:00Z</time>
      </trkpt>
      <trkpt lat="47.53887" lon="-2.88722">
        <ele>3.1</ele>
        <time>2026-08-29T13:35:01Z</time>
      </trkpt>
      <trkpt lat="47.53885" lon="-2.88717">
        <ele>3.1</ele>
        <time>2026-08-29T13:35:02Z</time>
      </trkpt>
      <trkpt lat="47.53884" lon="-2.88711">
        <ele>3.2</ele>
        <time>2026-08-29T13:35:03Z</time>
      </trkpt>
      <trkpt lat="47.53883" lon="-2.88704">
        <ele>3.2</ele>
        <time>2026-08-29T13:35:04Z</time>
      </trkpt>
      <trkpt lat="47.53883" lon="-2.88697">
        <ele>3.2</ele>
        <time>2026-08-29T13:35:05Z</time>
      </trkpt>
      <trkpt lat="47.53883" lon="-2.88691">
        <ele>3.2</ele>
        <time>2026-08-29T13:35:06Z</time>
      </trkpt>
      <trkpt lat="47.53884" lon="-2.88684">
        <ele>3.2</ele>
        <time>2026-08-29T13:35:07Z</time>
      </trkpt>
      <trkpt lat="47.53884" lon="-2.88677">
        <ele>3.2</ele>
        <time>2026-08-29T13:35:08Z</time>
      </trkpt>
      <trkpt lat="47.53884" lon="-2.88671">
        <ele>3.2</ele>
        <time>2026-08-29T13:35:09Z</time>
      </trkpt>
      <trkpt lat="47.53884" lon="-2.88665">
        <ele>3.1</ele>
        <time>2026-08-29T13:35:10Z</time>
      </trkpt>
      <trkpt lat="47.53883" lon="-2.88659">
        <ele>3</ele>
        <time>2026-08-29T13:35:11Z</time>
      </trkpt>
      <trkpt lat="47.53882" lon="-2.88653">
        <ele>2.9</ele>
        <time>2026-08-29T13:35:12Z</time>
      </trkpt>
      <trkpt lat="47.53882" lon="-2.88647">
        <ele>2.7</ele>
        <time>2026-08-29T13:35:13Z</time>
      </trkpt>
      <trkpt lat="47.53881" lon="-2.88641">
        <ele>2.6</ele>
        <time>2026-08-29T13:35:14Z</time>
      </trkpt>
      <trkpt lat="47.53881" lon="-2.88635">
        <ele>2.7</ele>
        <time>2026-08-29T13:35:15Z</time>
      </trkpt>
      <trkpt lat="47.5388" lon="-2.88629">
        <ele>2.9</ele>
        <time>2026-08-29T13:35:16Z</time>
      </trkpt>
      <trkpt lat="47.53879" lon="-2.88623">
        <ele>3.1</ele>
        <time>2026-08-29T13:35:17Z</time>
      </trkpt>
      <trkpt lat="47.53878" lon="-2.88617">
        <ele>3.3</ele>
        <time>2026-08-29T13:35:18Z</time>
      </trkpt>
      <trkpt lat="47.53877" lon="-2.88611">
        <ele>3.4</ele>
        <time>2026-08-29T13:35:19Z</time>
      </trkpt>
      <trkpt lat="47.53876" lon="-2.88605">
        <ele>3.5</ele>
        <time>2026-08-29T13:35:20Z</time>
      </trkpt>
      <trkpt lat="47.53875" lon="-2.88598">
        <ele>3.5</ele>
        <time>2026-08-29T13:35:21Z</time>
      </trkpt>
      <trkpt lat="47.53874" lon="-2.88592">
        <ele>3.5</ele>
        <time>2026-08-29T13:35:22Z</time>
      </trkpt>
      <trkpt lat="47.53872" lon="-2.88586">
        <ele>3.6</ele>
        <time>2026-08-29T13:35:23Z</time>
      </trkpt>
      <trkpt lat="47.53871" lon="-2.88579">
        <ele>3.6</ele>
        <time>2026-08-29T13:35:24Z</time>
      </trkpt>
      <trkpt lat="47.5387" lon="-2.88573">
        <ele>3.7</ele>
        <time>2026-08-29T13:35:25Z</time>
      </trkpt>
      <trkpt lat="47.53868" lon="-2.88567">
        <ele>3.8</ele>
        <time>2026-08-29T13:35:26Z</time>
      </trkpt>
      <trkpt lat="47.53866" lon="-2.88561">
        <ele>3.8</ele>
        <time>2026-08-29T13:35:27Z</time>
      </trkpt>
      <trkpt lat="47.53864" lon="-2.88555">
        <ele>3.9</ele>
        <time>2026-08-29T13:35:28Z</time>
      </trkpt>
      <trkpt lat="47.53862" lon="-2.8855">
        <ele>3.8</ele>
        <time>2026-08-29T13:35:29Z</time>
      </trkpt>
      <trkpt lat="47.5386" lon="-2.88544">
        <ele>3.6</ele>
        <time>2026-08-29T13:35:30Z</time>
      </trkpt>
      <trkpt lat="47.53858" lon="-2.88539">
        <ele>3.5</ele>
        <time>2026-08-29T13:35:31Z</time>
      </trkpt>
      <trkpt lat="47.53856" lon="-2.88533">
        <ele>3.3</ele>
        <time>2026-08-29T13:35:32Z</time>
      </trkpt>
      <trkpt lat="47.53854" lon="-2.88527">
        <ele>3.3</ele>
        <time>2026-08-29T13:35:33Z</time>
      </trkpt>
      <trkpt lat="47.53852" lon="-2.88522">
        <ele>3.3</ele>
        <time>2026-08-29T13:35:34Z</time>
      </trkpt>
      <trkpt lat="47.5385" lon="-2.88515">
        <ele>3.4</ele>
        <time>2026-08-29T13:35:35Z</time>
      </trkpt>
      <trkpt lat="47.53848" lon="-2.88509">
        <ele>3.5</ele>
        <time>2026-08-29T13:35:36Z</time>
      </trkpt>
      <trkpt lat="47.53847" lon="-2.88503">
        <ele>3.5</ele>
        <time>2026-08-29T13:35:37Z</time>
      </trkpt>
      <trkpt lat="47.53846" lon="-2.88497">
        <ele>3.5</ele>
        <time>2026-08-29T13:35:38Z</time>
      </trkpt>
      <trkpt lat="47.53844" lon="-2.8849">
        <ele>3.6</ele>
        <time>2026-08-29T13:35:39Z</time>
      </trkpt>
      <trkpt lat="47.53842" lon="-2.88484">
        <ele>3.7</ele>
        <time>2026-08-29T13:35:40Z</time>
      </trkpt>
      <trkpt lat="47.5384" lon="-2.88479">
        <ele>3.8</ele>
        <time>2026-08-29T13:35:41Z</time>
      </trkpt>
      <trkpt lat="47.53839" lon="-2.88473">
        <ele>3.8</ele>
        <time>2026-08-29T13:35:42Z</time>
      </trkpt>
      <trkpt lat="47.53837" lon="-2.88467">
        <ele>3.9</ele>
        <time>2026-08-29T13:35:43Z</time>
      </trkpt>
      <trkpt lat="47.53835" lon="-2.88462">
        <ele>4</ele>
        <time>2026-08-29T13:35:44Z</time>
      </trkpt>
      <trkpt lat="47.53833" lon="-2.88456">
        <ele>4</ele>
        <time>2026-08-29T13:35:45Z</time>
      </trkpt>
      <trkpt lat="47.53831" lon="-2.88451">
        <ele>4.2</ele>
        <time>2026-08-29T13:35:46Z</time>
      </trkpt>
      <trkpt lat="47.53829" lon="-2.88446">
        <ele>4.3</ele>
        <time>2026-08-29T13:35:47Z</time>
      </trkpt>
      <trkpt lat="47.53827" lon="-2.88441">
        <ele>4.5</ele>
        <time>2026-08-29T13:35:48Z</time>
      </trkpt>
      <trkpt lat="47.53825" lon="-2.88437">
        <ele>4.6</ele>
        <time>2026-08-29T13:35:49Z</time>
      </trkpt>
      <trkpt lat="47.53823" lon="-2.88432">
        <ele>4.7</ele>
        <time>2026-08-29T13:35:50Z</time>
      </trkpt>
      <trkpt lat="47.53821" lon="-2.88427">
        <ele>4.9</ele>
        <time>2026-08-29T13:35:51Z</time>
      </trkpt>
      <trkpt lat="47.53819" lon="-2.88423">
        <ele>5</ele>
        <time>2026-08-29T13:35:52Z</time>
      </trkpt>
      <trkpt lat="47.53817" lon="-2.88418">
        <ele>5.2</ele>
        <time>2026-08-29T13:35:53Z</time>
      </trkpt>
      <trkpt lat="47.53815" lon="-2.88413">
        <ele>5.4</ele>
        <time>2026-08-29T13:35:54Z</time>
      </trkpt>
      <trkpt lat="47.53814" lon="-2.88408">
        <ele>5.5</ele>
        <time>2026-08-29T13:35:55Z</time>
      </trkpt>
      <trkpt lat="47.53813" lon="-2.88403">
        <ele>5.6</ele>
        <time>2026-08-29T13:35:56Z</time>
      </trkpt>
      <trkpt lat="47.53813" lon="-2.88398">
        <ele>5.6</ele>
        <time>2026-08-29T13:35:57Z</time>
      </trkpt>
      <trkpt lat="47.53813" lon="-2.88392">
        <ele>5.7</ele>
        <time>2026-08-29T13:35:58Z</time>
      </trkpt>
      <trkpt lat="47.53813" lon="-2.88387">
        <ele>5.7</ele>
        <time>2026-08-29T13:35:59Z</time>
      </trkpt>
      <trkpt lat="47.53813" lon="-2.88381">
        <ele>5.7</ele>
        <time>2026-08-29T13:36:00Z</time>
      </trkpt>
      <trkpt lat="47.53813" lon="-2.88376">
        <ele>5.7</ele>
        <time>2026-08-29T13:36:01Z</time>
      </trkpt>
      <trkpt lat="47.53815" lon="-2.88371">
        <ele>5.7</ele>
        <time>2026-08-29T13:36:02Z</time>
      </trkpt>
      <trkpt lat="47.53816" lon="-2.88366">
        <ele>5.6</ele>
        <time>2026-08-29T13:36:03Z</time>
      </trkpt>
      <trkpt lat="47.53818" lon="-2.88361">
        <ele>5.6</ele>
        <time>2026-08-29T13:36:04Z</time>
      </trkpt>
      <trkpt lat="47.5382" lon="-2.88356">
        <ele>5.7</ele>
        <time>2026-08-29T13:36:05Z</time>
      </trkpt>
      <trkpt lat="47.53822" lon="-2.88352">
        <ele>5.7</ele>
        <time>2026-08-29T13:36:06Z</time>
      </trkpt>
      <trkpt lat="47.53824" lon="-2.88348">
        <ele>5.8</ele>
        <time>2026-08-29T13:36:07Z</time>
      </trkpt>
      <trkpt lat="47.53826" lon="-2.88343">
        <ele>5.9</ele>
        <time>2026-08-29T13:36:08Z</time>
      </trkpt>
      <trkpt lat="47.53828" lon="-2.88339">
        <ele>6</ele>
        <time>2026-08-29T13:36:09Z</time>
      </trkpt>
      <trkpt lat="47.53829" lon="-2.88335">
        <ele>6.1</ele>
        <time>2026-08-29T13:36:10Z</time>
      </trkpt>
      <trkpt lat="47.53831" lon="-2.88331">
        <ele>6.2</ele>
        <time>2026-08-29T13:36:11Z</time>
      </trkpt>
      <trkpt lat="47.53832" lon="-2.88328">
        <ele>6.4</ele>
        <time>2026-08-29T13:36:12Z</time>
      </trkpt>
      <trkpt lat="47.53834" lon="-2.88324">
        <ele>6.6</ele>
        <time>2026-08-29T13:36:13Z</time>
      </trkpt>
      <trkpt lat="47.53835" lon="-2.88321">
        <ele>6.7</ele>
        <time>2026-08-29T13:36:14Z</time>
      </trkpt>
      <trkpt lat="47.53837" lon="-2.88318">
        <ele>6.8</ele>
        <time>2026-08-29T13:36:15Z</time>
      </trkpt>
      <trkpt lat="47.53838" lon="-2.88314">
        <ele>6.9</ele>
        <time>2026-08-29T13:36:16Z</time>
      </trkpt>
      <trkpt lat="47.5384" lon="-2.8831">
        <ele>7</ele>
        <time>2026-08-29T13:36:17Z</time>
      </trkpt>
      <trkpt lat="47.53841" lon="-2.88307">
        <ele>7.1</ele>
        <time>2026-08-29T13:36:18Z</time>
      </trkpt>
      <trkpt lat="47.53842" lon="-2.88303">
        <ele>7.5</ele>
        <time>2026-08-29T13:36:19Z</time>
      </trkpt>
      <trkpt lat="47.53844" lon="-2.883">
        <ele>7.8</ele>
        <time>2026-08-29T13:36:20Z</time>
      </trkpt>
      <trkpt lat="47.53845" lon="-2.88296">
        <ele>8.3</ele>
        <time>2026-08-29T13:36:21Z</time>
      </trkpt>
      <trkpt lat="47.53846" lon="-2.88293">
        <ele>8.8</ele>
        <time>2026-08-29T13:36:22Z</time>
      </trkpt>
      <trkpt lat="47.53846" lon="-2.8829">
        <ele>9.3</ele>
        <time>2026-08-29T13:36:23Z</time>
      </trkpt>
      <trkpt lat="47.53846" lon="-2.88287">
        <ele>9.9</ele>
        <time>2026-08-29T13:36:24Z</time>
      </trkpt>
      <trkpt lat="47.53847" lon="-2.88284">
        <ele>10.4</ele>
        <time>2026-08-29T13:36:25Z</time>
      </trkpt>
      <trkpt lat="47.53848" lon="-2.88281">
        <ele>10.9</ele>
        <time>2026-08-29T13:36:26Z</time>
      </trkpt>
      <trkpt lat="47.5385" lon="-2.88278">
        <ele>11.6</ele>
        <time>2026-08-29T13:36:27Z</time>
      </trkpt>
      <trkpt lat="47.53851" lon="-2.88276">
        <ele>11.7</ele>
        <time>2026-08-29T13:36:28Z</time>
      </trkpt>
      <trkpt lat="47.53853" lon="-2.88274">
        <ele>11.9</ele>
        <time>2026-08-29T13:36:29Z</time>
      </trkpt>
      <trkpt lat="47.53854" lon="-2.88271">
        <ele>12.1</ele>
        <time>2026-08-29T13:36:30Z</time>
      </trkpt>
      <trkpt lat="47.53856" lon="-2.88269">
        <ele>12.2</ele>
        <time>2026-08-29T13:36:31Z</time>
      </trkpt>
      <trkpt lat="47.53857" lon="-2.88266">
        <ele>12.4</ele>
        <time>2026-08-29T13:36:32Z</time>
      </trkpt>
      <trkpt lat="47.53858" lon="-2.88264">
        <ele>12.5</ele>
        <time>2026-08-29T13:36:33Z</time>
      </trkpt>
      <trkpt lat="47.53859" lon="-2.88261">
        <ele>12.6</ele>
        <time>2026-08-29T13:36:34Z</time>
      </trkpt>
      <trkpt lat="47.5386" lon="-2.88259">
        <ele>12.7</ele>
        <time>2026-08-29T13:36:35Z</time>
      </trkpt>
      <trkpt lat="47.53862" lon="-2.88256">
        <ele>12.8</ele>
        <time>2026-08-29T13:36:36Z</time>
      </trkpt>
      <trkpt lat="47.53863" lon="-2.88253">
        <ele>12.9</ele>
        <time>2026-08-29T13:36:37Z</time>
      </trkpt>
      <trkpt lat="47.53864" lon="-2.8825">
        <ele>13.1</ele>
        <time>2026-08-29T13:36:38Z</time>
      </trkpt>
      <trkpt lat="47.53865" lon="-2.88247">
        <ele>13.2</ele>
        <time>2026-08-29T13:36:39Z</time>
      </trkpt>
      <trkpt lat="47.53867" lon="-2.88244">
        <ele>13.4</ele>
        <time>2026-08-29T13:36:40Z</time>
      </trkpt>
      <trkpt lat="47.53868" lon="-2.88241">
        <ele>13.6</ele>
        <time>2026-08-29T13:36:41Z</time>
      </trkpt>
      <trkpt lat="47.5387" lon="-2.88238">
        <ele>13.8</ele>
        <time>2026-08-29T13:36:42Z</time>
      </trkpt>
      <trkpt lat="47.53871" lon="-2.88235">
        <ele>13.9</ele>
        <time>2026-08-29T13:36:43Z</time>
      </trkpt>
      <trkpt lat="47.53873" lon="-2.88233">
        <ele>14</ele>
        <time>2026-08-29T13:36:44Z</time>
      </trkpt>
      <trkpt lat="47.53874" lon="-2.8823">
        <ele>14.2</ele>
        <time>2026-08-29T13:36:45Z</time>
      </trkpt>
      <trkpt lat="47.53876" lon="-2.88228">
        <ele>14.3</ele>
        <time>2026-08-29T13:36:46Z</time>
      </trkpt>
      <trkpt lat="47.53878" lon="-2.88226">
        <ele>14.5</ele>
        <time>2026-08-29T13:36:47Z</time>
      </trkpt>
      <trkpt lat="47.53879" lon="-2.88223">
        <ele>14.6</ele>
        <time>2026-08-29T13:36:48Z</time>
      </trkpt>
      <trkpt lat="47.53882" lon="-2.88221">
        <ele>14.8</ele>
        <time>2026-08-29T13:36:49Z</time>
      </trkpt>
      <trkpt lat="47.53883" lon="-2.88219">
        <ele>14.9</ele>
        <time>2026-08-29T13:36:50Z</time>
      </trkpt>
      <trkpt lat="47.53885" lon="-2.88217">
        <ele>15</ele>
        <time>2026-08-29T13:36:51Z</time>
      </trkpt>
      <trkpt lat="47.53887" lon="-2.88214">
        <ele>15.2</ele>
        <time>2026-08-29T13:36:52Z</time>
      </trkpt>
      <trkpt lat="47.53889" lon="-2.88212">
        <ele>15.4</ele>
        <time>2026-08-29T13:36:53Z</time>
      </trkpt>
      <trkpt lat="47.53891" lon="-2.88209">
        <ele>15.5</ele>
        <time>2026-08-29T13:36:54Z</time>
      </trkpt>
      <trkpt lat="47.53893" lon="-2.88207">
        <ele>15.6</ele>
        <time>2026-08-29T13:36:55Z</time>
      </trkpt>
      <trkpt lat="47.53895" lon="-2.88205">
        <ele>15.8</ele>
        <time>2026-08-29T13:36:56Z</time>
      </trkpt>
      <trkpt lat="47.53897" lon="-2.88203">
        <ele>15.9</ele>
        <time>2026-08-29T13:36:57Z</time>
      </trkpt>
      <trkpt lat="47.53899" lon="-2.88201">
        <ele>16</ele>
        <time>2026-08-29T13:36:58Z</time>
      </trkpt>
      <trkpt lat="47.53901" lon="-2.88198">
        <ele>16.3</ele>
        <time>2026-08-29T13:36:59Z</time>
      </trkpt>
      <trkpt lat="47.53902" lon="-2.88195">
        <ele>16.4</ele>
        <time>2026-08-29T13:37:00Z</time>
      </trkpt>
      <trkpt lat="47.53903" lon="-2.88192">
        <ele>16.6</ele>
        <time>2026-08-29T13:37:01Z</time>
      </trkpt>
      <trkpt lat="47.53904" lon="-2.88189">
        <ele>16.6</ele>
        <time>2026-08-29T13:37:02Z</time>
      </trkpt>
      <trkpt lat="47.53904" lon="-2.88185">
        <ele>16.7</ele>
        <time>2026-08-29T13:37:03Z</time>
      </trkpt>
      <trkpt lat="47.53904" lon="-2.88182">
        <ele>16.7</ele>
        <time>2026-08-29T13:37:04Z</time>
      </trkpt>
      <trkpt lat="47.53903" lon="-2.88179">
        <ele>16.8</ele>
        <time>2026-08-29T13:37:05Z</time>
      </trkpt>
      <trkpt lat="47.53902" lon="-2.88176">
        <ele>16.8</ele>
        <time>2026-08-29T13:37:06Z</time>
      </trkpt>
      <trkpt lat="47.53902" lon="-2.88172">
        <ele>16.9</ele>
        <time>2026-08-29T13:37:07Z</time>
      </trkpt>
      <trkpt lat="47.53901" lon="-2.88167">
        <ele>17</ele>
        <time>2026-08-29T13:37:08Z</time>
      </trkpt>
      <trkpt lat="47.53901" lon="-2.88162">
        <ele>16.8</ele>
        <time>2026-08-29T13:37:09Z</time>
      </trkpt>
      <trkpt lat="47.539" lon="-2.88157">
        <ele>16.7</ele>
        <time>2026-08-29T13:37:10Z</time>
      </trkpt>
      <trkpt lat="47.539" lon="-2.88153">
        <ele>16.5</ele>
        <time>2026-08-29T13:37:11Z</time>
      </trkpt>
      <trkpt lat="47.539" lon="-2.88148">
        <ele>16.3</ele>
        <time>2026-08-29T13:37:12Z</time>
      </trkpt>
      <trkpt lat="47.53899" lon="-2.88143">
        <ele>16.1</ele>
        <time>2026-08-29T13:37:13Z</time>
      </trkpt>
      <trkpt lat="47.53899" lon="-2.88139">
        <ele>16</ele>
        <time>2026-08-29T13:37:14Z</time>
      </trkpt>
      <trkpt lat="47.53899" lon="-2.88134">
        <ele>16</ele>
        <time>2026-08-29T13:37:15Z</time>
      </trkpt>
      <trkpt lat="47.53898" lon="-2.8813">
        <ele>16</ele>
        <time>2026-08-29T13:37:16Z</time>
      </trkpt>
      <trkpt lat="47.53898" lon="-2.88125">
        <ele>16</ele>
        <time>2026-08-29T13:37:17Z</time>
      </trkpt>
      <trkpt lat="47.53897" lon="-2.8812">
        <ele>16</ele>
        <time>2026-08-29T13:37:18Z</time>
      </trkpt>
      <trkpt lat="47.53897" lon="-2.88116">
        <ele>16</ele>
        <time>2026-08-29T13:37:19Z</time>
      </trkpt>
      <trkpt lat="47.53896" lon="-2.88111">
        <ele>16</ele>
        <time>2026-08-29T13:37:20Z</time>
      </trkpt>
      <trkpt lat="47.53895" lon="-2.88106">
        <ele>16.1</ele>
        <time>2026-08-29T13:37:21Z</time>
      </trkpt>
      <trkpt lat="47.53895" lon="-2.88102">
        <ele>16.3</ele>
        <time>2026-08-29T13:37:22Z</time>
      </trkpt>
      <trkpt lat="47.53895" lon="-2.88097">
        <ele>16.4</ele>
        <time>2026-08-29T13:37:23Z</time>
      </trkpt>
      <trkpt lat="47.53895" lon="-2.88092">
        <ele>16.5</ele>
        <time>2026-08-29T13:37:24Z</time>
      </trkpt>
      <trkpt lat="47.53894" lon="-2.88088">
        <ele>16.7</ele>
        <time>2026-08-29T13:37:25Z</time>
      </trkpt>
      <trkpt lat="47.53895" lon="-2.88083">
        <ele>16.8</ele>
        <time>2026-08-29T13:37:26Z</time>
      </trkpt>
      <trkpt lat="47.53894" lon="-2.88078">
        <ele>16.9</ele>
        <time>2026-08-29T13:37:27Z</time>
      </trkpt>
      <trkpt lat="47.53894" lon="-2.88074">
        <ele>16.9</ele>
        <time>2026-08-29T13:37:28Z</time>
      </trkpt>
      <trkpt lat="47.53893" lon="-2.88069">
        <ele>16.9</ele>
        <time>2026-08-29T13:37:29Z</time>
      </trkpt>
      <trkpt lat="47.53893" lon="-2.88064">
        <ele>17</ele>
        <time>2026-08-29T13:37:30Z</time>
      </trkpt>
      <trkpt lat="47.53893" lon="-2.88059">
        <ele>17</ele>
        <time>2026-08-29T13:37:31Z</time>
      </trkpt>
      <trkpt lat="47.53893" lon="-2.88054">
        <ele>17.1</ele>
        <time>2026-08-29T13:37:32Z</time>
      </trkpt>
      <trkpt lat="47.53893" lon="-2.88049">
        <ele>17.2</ele>
        <time>2026-08-29T13:37:33Z</time>
      </trkpt>
      <trkpt lat="47.53892" lon="-2.88045">
        <ele>17.4</ele>
        <time>2026-08-29T13:37:34Z</time>
      </trkpt>
      <trkpt lat="47.5389" lon="-2.88042">
        <ele>17.5</ele>
        <time>2026-08-29T13:37:35Z</time>
      </trkpt>
      <trkpt lat="47.53887" lon="-2.88041">
        <ele>17.6</ele>
        <time>2026-08-29T13:37:36Z</time>
      </trkpt>
      <trkpt lat="47.53885" lon="-2.88041">
        <ele>17.6</ele>
        <time>2026-08-29T13:37:37Z</time>
      </trkpt>
      <trkpt lat="47.53882" lon="-2.8804">
        <ele>17.7</ele>
        <time>2026-08-29T13:37:38Z</time>
      </trkpt>
      <trkpt lat="47.53878" lon="-2.8804">
        <ele>17.7</ele>
        <time>2026-08-29T13:37:39Z</time>
      </trkpt>
      <trkpt lat="47.53875" lon="-2.88039">
        <ele>17.8</ele>
        <time>2026-08-29T13:37:40Z</time>
      </trkpt>
      <trkpt lat="47.53872" lon="-2.88039">
        <ele>17.8</ele>
        <time>2026-08-29T13:37:41Z</time>
      </trkpt>
      <trkpt lat="47.53868" lon="-2.88039">
        <ele>17.9</ele>
        <time>2026-08-29T13:37:42Z</time>
      </trkpt>
      <trkpt lat="47.53865" lon="-2.88039">
        <ele>17.9</ele>
        <time>2026-08-29T13:37:43Z</time>
      </trkpt>
      <trkpt lat="47.53861" lon="-2.88038">
        <ele>18</ele>
        <time>2026-08-29T13:37:44Z</time>
      </trkpt>
      <trkpt lat="47.53857" lon="-2.88038">
        <ele>17.9</ele>
        <time>2026-08-29T13:37:45Z</time>
      </trkpt>
      <trkpt lat="47.53854" lon="-2.88037">
        <ele>17.7</ele>
        <time>2026-08-29T13:37:46Z</time>
      </trkpt>
      <trkpt lat="47.5385" lon="-2.88037">
        <ele>17.6</ele>
        <time>2026-08-29T13:37:47Z</time>
      </trkpt>
      <trkpt lat="47.53847" lon="-2.88036">
        <ele>17.5</ele>
        <time>2026-08-29T13:37:48Z</time>
      </trkpt>
      <trkpt lat="47.53843" lon="-2.88036">
        <ele>17.3</ele>
        <time>2026-08-29T13:37:49Z</time>
      </trkpt>
      <trkpt lat="47.53839" lon="-2.88036">
        <ele>17.2</ele>
        <time>2026-08-29T13:37:50Z</time>
      </trkpt>
      <trkpt lat="47.53835" lon="-2.88035">
        <ele>17.1</ele>
        <time>2026-08-29T13:37:51Z</time>
      </trkpt>
      <trkpt lat="47.53831" lon="-2.88035">
        <ele>17</ele>
        <time>2026-08-29T13:37:52Z</time>
      </trkpt>
      <trkpt lat="47.53828" lon="-2.88035">
        <ele>17</ele>
        <time>2026-08-29T13:37:53Z</time>
      </trkpt>
      <trkpt lat="47.53824" lon="-2.88035">
        <ele>17</ele>
        <time>2026-08-29T13:37:54Z</time>
      </trkpt>
      <trkpt lat="47.5382" lon="-2.88034">
        <ele>17</ele>
        <time>2026-08-29T13:37:55Z</time>
      </trkpt>
      <trkpt lat="47.53816" lon="-2.88034">
        <ele>17</ele>
        <time>2026-08-29T13:37:56Z</time>
      </trkpt>
      <trkpt lat="47.53812" lon="-2.88033">
        <ele>17</ele>
        <time>2026-08-29T13:37:57Z</time>
      </trkpt>
      <trkpt lat="47.53808" lon="-2.88033">
        <ele>17</ele>
        <time>2026-08-29T13:37:58Z</time>
      </trkpt>
      <trkpt lat="47.53804" lon="-2.88033">
        <ele>17</ele>
        <time>2026-08-29T13:37:59Z</time>
      </trkpt>
      <trkpt lat="47.538" lon="-2.88032">
        <ele>17</ele>
        <time>2026-08-29T13:38:00Z</time>
      </trkpt>
      <trkpt lat="47.53796" lon="-2.88032">
        <ele>17</ele>
        <time>2026-08-29T13:38:01Z</time>
      </trkpt>
      <trkpt lat="47.53792" lon="-2.88032">
        <ele>17</ele>
        <time>2026-08-29T13:38:02Z</time>
      </trkpt>
      <trkpt lat="47.53788" lon="-2.88031">
        <ele>17</ele>
        <time>2026-08-29T13:38:03Z</time>
      </trkpt>
      <trkpt lat="47.53784" lon="-2.88031">
        <ele>17</ele>
        <time>2026-08-29T13:38:04Z</time>
      </trkpt>
      <trkpt lat="47.5378" lon="-2.8803">
        <ele>17</ele>
        <time>2026-08-29T13:38:05Z</time>
      </trkpt>
      <trkpt lat="47.53776" lon="-2.8803">
        <ele>17</ele>
        <time>2026-08-29T13:38:06Z</time>
      </trkpt>
      <trkpt lat="47.53772" lon="-2.88029">
        <ele>17</ele>
        <time>2026-08-29T13:38:07Z</time>
      </trkpt>
      <trkpt lat="47.53768" lon="-2.88029">
        <ele>17</ele>
        <time>2026-08-29T13:38:08Z</time>
      </trkpt>
      <trkpt lat="47.53764" lon="-2.88028">
        <ele>17</ele>
        <time>2026-08-29T13:38:09Z</time>
      </trkpt>
      <trkpt lat="47.5376" lon="-2.88028">
        <ele>17</ele>
        <time>2026-08-29T13:38:10Z</time>
      </trkpt>
      <trkpt lat="47.53756" lon="-2.88027">
        <ele>17</ele>
        <time>2026-08-29T13:38:11Z</time>
      </trkpt>
      <trkpt lat="47.53752" lon="-2.88027">
        <ele>17</ele>
        <time>2026-08-29T13:38:12Z</time>
      </trkpt>
      <trkpt lat="47.53748" lon="-2.88026">
        <ele>16.9</ele>
        <time>2026-08-29T13:38:13Z</time>
      </trkpt>
      <trkpt lat="47.53744" lon="-2.88026">
        <ele>16.7</ele>
        <time>2026-08-29T13:38:14Z</time>
      </trkpt>
      <trkpt lat="47.5374" lon="-2.88025">
        <ele>16.6</ele>
        <time>2026-08-29T13:38:15Z</time>
      </trkpt>
      <trkpt lat="47.53736" lon="-2.88024">
        <ele>16.4</ele>
        <time>2026-08-29T13:38:16Z</time>
      </trkpt>
      <trkpt lat="47.53732" lon="-2.88023">
        <ele>16.3</ele>
        <time>2026-08-29T13:38:17Z</time>
      </trkpt>
      <trkpt lat="47.53728" lon="-2.88021">
        <ele>16.2</ele>
        <time>2026-08-29T13:38:18Z</time>
      </trkpt>
      <trkpt lat="47.53724" lon="-2.8802">
        <ele>16</ele>
        <time>2026-08-29T13:38:19Z</time>
      </trkpt>
      <trkpt lat="47.5372" lon="-2.88017">
        <ele>15.9</ele>
        <time>2026-08-29T13:38:20Z</time>
      </trkpt>
      <trkpt lat="47.53717" lon="-2.88015">
        <ele>15.8</ele>
        <time>2026-08-29T13:38:21Z</time>
      </trkpt>
      <trkpt lat="47.53713" lon="-2.88012">
        <ele>15.7</ele>
        <time>2026-08-29T13:38:22Z</time>
      </trkpt>
      <trkpt lat="47.5371" lon="-2.8801">
        <ele>15.6</ele>
        <time>2026-08-29T13:38:23Z</time>
      </trkpt>
      <trkpt lat="47.53707" lon="-2.88006">
        <ele>15.5</ele>
        <time>2026-08-29T13:38:24Z</time>
      </trkpt>
      <trkpt lat="47.53704" lon="-2.88002">
        <ele>15.3</ele>
        <time>2026-08-29T13:38:25Z</time>
      </trkpt>
      <trkpt lat="47.53701" lon="-2.87998">
        <ele>15.2</ele>
        <time>2026-08-29T13:38:26Z</time>
      </trkpt>
      <trkpt lat="47.53698" lon="-2.87994">
        <ele>15.1</ele>
        <time>2026-08-29T13:38:27Z</time>
      </trkpt>
      <trkpt lat="47.53694" lon="-2.8799">
        <ele>15</ele>
        <time>2026-08-29T13:38:28Z</time>
      </trkpt>
      <trkpt lat="47.5369" lon="-2.87986">
        <ele>14.8</ele>
        <time>2026-08-29T13:38:29Z</time>
      </trkpt>
      <trkpt lat="47.53686" lon="-2.87981">
        <ele>14.6</ele>
        <time>2026-08-29T13:38:30Z</time>
      </trkpt>
      <trkpt lat="47.53683" lon="-2.87975">
        <ele>14.5</ele>
        <time>2026-08-29T13:38:31Z</time>
      </trkpt>
      <trkpt lat="47.5368" lon="-2.87969">
        <ele>14.5</ele>
        <time>2026-08-29T13:38:32Z</time>
      </trkpt>
      <trkpt lat="47.53676" lon="-2.87963">
        <ele>14.3</ele>
        <time>2026-08-29T13:38:33Z</time>
      </trkpt>
      <trkpt lat="47.53673" lon="-2.87957">
        <ele>14.2</ele>
        <time>2026-08-29T13:38:34Z</time>
      </trkpt>
      <trkpt lat="47.5367" lon="-2.87951">
        <ele>14.1</ele>
        <time>2026-08-29T13:38:35Z</time>
      </trkpt>
      <trkpt lat="47.53667" lon="-2.87944">
        <ele>14</ele>
        <time>2026-08-29T13:38:36Z</time>
      </trkpt>
      <trkpt lat="47.53665" lon="-2.87937">
        <ele>13.9</ele>
        <time>2026-08-29T13:38:37Z</time>
      </trkpt>
      <trkpt lat="47.53662" lon="-2.8793">
        <ele>13.8</ele>
        <time>2026-08-29T13:38:38Z</time>
      </trkpt>
      <trkpt lat="47.5366" lon="-2.87923">
        <ele>13.8</ele>
        <time>2026-08-29T13:38:39Z</time>
      </trkpt>
      <trkpt lat="47.53658" lon="-2.87916">
        <ele>13.7</ele>
        <time>2026-08-29T13:38:40Z</time>
      </trkpt>
      <trkpt lat="47.53656" lon="-2.87909">
        <ele>13.6</ele>
        <time>2026-08-29T13:38:41Z</time>
      </trkpt>
      <trkpt lat="47.53654" lon="-2.87902">
        <ele>13.5</ele>
        <time>2026-08-29T13:38:42Z</time>
      </trkpt>
      <trkpt lat="47.53653" lon="-2.87895">
        <ele>13.5</ele>
        <time>2026-08-29T13:38:43Z</time>
      </trkpt>
      <trkpt lat="47.53653" lon="-2.87887">
        <ele>13.5</ele>
        <time>2026-08-29T13:38:44Z</time>
      </trkpt>
      <trkpt lat="47.53654" lon="-2.8788">
        <ele>13.5</ele>
        <time>2026-08-29T13:38:45Z</time>
      </trkpt>
      <trkpt lat="47.53656" lon="-2.87873">
        <ele>13.6</ele>
        <time>2026-08-29T13:38:46Z</time>
      </trkpt>
      <trkpt lat="47.53657" lon="-2.87867">
        <ele>13.7</ele>
        <time>2026-08-29T13:38:47Z</time>
      </trkpt>
      <trkpt lat="47.53658" lon="-2.87861">
        <ele>13.7</ele>
        <time>2026-08-29T13:38:48Z</time>
      </trkpt>
      <trkpt lat="47.53658" lon="-2.87855">
        <ele>13.8</ele>
        <time>2026-08-29T13:38:49Z</time>
      </trkpt>
      <trkpt lat="47.53658" lon="-2.87849">
        <ele>14</ele>
        <time>2026-08-29T13:38:50Z</time>
      </trkpt>
      <trkpt lat="47.53658" lon="-2.87842">
        <ele>14.2</ele>
        <time>2026-08-29T13:38:51Z</time>
      </trkpt>
      <trkpt lat="47.53659" lon="-2.87836">
        <ele>14.4</ele>
        <time>2026-08-29T13:38:52Z</time>
      </trkpt>
      <trkpt lat="47.53659" lon="-2.87829">
        <ele>14.4</ele>
        <time>2026-08-29T13:38:53Z</time>
      </trkpt>
      <trkpt lat="47.5366" lon="-2.87823">
        <ele>14.3</ele>
        <time>2026-08-29T13:38:54Z</time>
      </trkpt>
      <trkpt lat="47.53661" lon="-2.87816">
        <ele>14.3</ele>
        <time>2026-08-29T13:38:55Z</time>
      </trkpt>
      <trkpt lat="47.53662" lon="-2.8781">
        <ele>14.4</ele>
        <time>2026-08-29T13:38:56Z</time>
      </trkpt>
      <trkpt lat="47.53663" lon="-2.87804">
        <ele>14.5</ele>
        <time>2026-08-29T13:38:57Z</time>
      </trkpt>
      <trkpt lat="47.53664" lon="-2.87798">
        <ele>14.6</ele>
        <time>2026-08-29T13:38:58Z</time>
      </trkpt>
      <trkpt lat="47.53665" lon="-2.87792">
        <ele>14.8</ele>
        <time>2026-08-29T13:38:59Z</time>
      </trkpt>
      <trkpt lat="47.53667" lon="-2.87786">
        <ele>15</ele>
        <time>2026-08-29T13:39:00Z</time>
      </trkpt>
      <trkpt lat="47.53668" lon="-2.8778">
        <ele>15</ele>
        <time>2026-08-29T13:39:01Z</time>
      </trkpt>
      <trkpt lat="47.5367" lon="-2.87774">
        <ele>14.8</ele>
        <time>2026-08-29T13:39:02Z</time>
      </trkpt>
      <trkpt lat="47.53671" lon="-2.87768">
        <ele>14.5</ele>
        <time>2026-08-29T13:39:03Z</time>
      </trkpt>
      <trkpt lat="47.53672" lon="-2.87762">
        <ele>14.3</ele>
        <time>2026-08-29T13:39:04Z</time>
      </trkpt>
      <trkpt lat="47.53673" lon="-2.87756">
        <ele>14.2</ele>
        <time>2026-08-29T13:39:05Z</time>
      </trkpt>
      <trkpt lat="47.53676" lon="-2.87751">
        <ele>14</ele>
        <time>2026-08-29T13:39:06Z</time>
      </trkpt>
      <trkpt lat="47.5368" lon="-2.87748">
        <ele>14</ele>
        <time>2026-08-29T13:39:07Z</time>
      </trkpt>
      <trkpt lat="47.53684" lon="-2.87746">
        <ele>14</ele>
        <time>2026-08-29T13:39:08Z</time>
      </trkpt>
      <trkpt lat="47.53688" lon="-2.87746">
        <ele>14</ele>
        <time>2026-08-29T13:39:09Z</time>
      </trkpt>
      <trkpt lat="47.53693" lon="-2.87746">
        <ele>14</ele>
        <time>2026-08-29T13:39:10Z</time>
      </trkpt>
      <trkpt lat="47.53697" lon="-2.87746">
        <ele>14</ele>
        <time>2026-08-29T13:39:11Z</time>
      </trkpt>
      <trkpt lat="47.53702" lon="-2.87747">
        <ele>14</ele>
        <time>2026-08-29T13:39:12Z</time>
      </trkpt>
      <trkpt lat="47.53707" lon="-2.87747">
        <ele>14</ele>
        <time>2026-08-29T13:39:13Z</time>
      </trkpt>
      <trkpt lat="47.53711" lon="-2.87749">
        <ele>14</ele>
        <time>2026-08-29T13:39:14Z</time>
      </trkpt>
      <trkpt lat="47.53715" lon="-2.87751">
        <ele>14</ele>
        <time>2026-08-29T13:39:15Z</time>
      </trkpt>
      <trkpt lat="47.5372" lon="-2.87753">
        <ele>14</ele>
        <time>2026-08-29T13:39:16Z</time>
      </trkpt>
      <trkpt lat="47.53724" lon="-2.87754">
        <ele>14</ele>
        <time>2026-08-29T13:39:17Z</time>
      </trkpt>
      <trkpt lat="47.53729" lon="-2.87756">
        <ele>14</ele>
        <time>2026-08-29T13:39:18Z</time>
      </trkpt>
      <trkpt lat="47.53733" lon="-2.87757">
        <ele>14</ele>
        <time>2026-08-29T13:39:19Z</time>
      </trkpt>
      <trkpt lat="47.53738" lon="-2.87759">
        <ele>14</ele>
        <time>2026-08-29T13:39:20Z</time>
      </trkpt>
      <trkpt lat="47.53742" lon="-2.8776">
        <ele>14</ele>
        <time>2026-08-29T13:39:21Z</time>
      </trkpt>
      <trkpt lat="47.53747" lon="-2.87761">
        <ele>14</ele>
        <time>2026-08-29T13:39:22Z</time>
      </trkpt>
      <trkpt lat="47.53752" lon="-2.87763">
        <ele>14</ele>
        <time>2026-08-29T13:39:23Z</time>
      </trkpt>
      <trkpt lat="47.53756" lon="-2.87765">
        <ele>14</ele>
        <time>2026-08-29T13:39:24Z</time>
      </trkpt>
      <trkpt lat="47.53761" lon="-2.87767">
        <ele>14</ele>
        <time>2026-08-29T13:39:25Z</time>
      </trkpt>
      <trkpt lat="47.53766" lon="-2.87769">
        <ele>14</ele>
        <time>2026-08-29T13:39:26Z</time>
      </trkpt>
      <trkpt lat="47.5377" lon="-2.87772">
        <ele>14</ele>
        <time>2026-08-29T13:39:27Z</time>
      </trkpt>
      <trkpt lat="47.53775" lon="-2.87774">
        <ele>14</ele>
        <time>2026-08-29T13:39:28Z</time>
      </trkpt>
      <trkpt lat="47.53779" lon="-2.87775">
        <ele>14</ele>
        <time>2026-08-29T13:39:29Z</time>
      </trkpt>
      <trkpt lat="47.53784" lon="-2.87777">
        <ele>14</ele>
        <time>2026-08-29T13:39:30Z</time>
      </trkpt>
      <trkpt lat="47.53788" lon="-2.87779">
        <ele>14</ele>
        <time>2026-08-29T13:39:31Z</time>
      </trkpt>
      <trkpt lat="47.53792" lon="-2.87781">
        <ele>14</ele>
        <time>2026-08-29T13:39:32Z</time>
      </trkpt>
      <trkpt lat="47.53797" lon="-2.87783">
        <ele>14</ele>
        <time>2026-08-29T13:39:33Z</time>
      </trkpt>
      <trkpt lat="47.538" lon="-2.87785">
        <ele>14</ele>
        <time>2026-08-29T13:39:34Z</time>
      </trkpt>
      <trkpt lat="47.53804" lon="-2.87788">
        <ele>14</ele>
        <time>2026-08-29T13:39:35Z</time>
      </trkpt>
      <trkpt lat="47.53808" lon="-2.87791">
        <ele>14</ele>
        <time>2026-08-29T13:39:36Z</time>
      </trkpt>
      <trkpt lat="47.53811" lon="-2.87794">
        <ele>14</ele>
        <time>2026-08-29T13:39:37Z</time>
      </trkpt>
      <trkpt lat="47.53814" lon="-2.87796">
        <ele>14</ele>
        <time>2026-08-29T13:39:38Z</time>
      </trkpt>
      <trkpt lat="47.53818" lon="-2.87798">
        <ele>14</ele>
        <time>2026-08-29T13:39:39Z</time>
      </trkpt>
      <trkpt lat="47.5382" lon="-2.878">
        <ele>14</ele>
        <time>2026-08-29T13:39:40Z</time>
      </trkpt>
      <trkpt lat="47.53823" lon="-2.87802">
        <ele>14</ele>
        <time>2026-08-29T13:39:41Z</time>
      </trkpt>
      <trkpt lat="47.53826" lon="-2.87805">
        <ele>14</ele>
        <time>2026-08-29T13:39:42Z</time>
      </trkpt>
      <trkpt lat="47.53829" lon="-2.87807">
        <ele>14</ele>
        <time>2026-08-29T13:39:43Z</time>
      </trkpt>
      <trkpt lat="47.53831" lon="-2.8781">
        <ele>14</ele>
        <time>2026-08-29T13:39:44Z</time>
      </trkpt>
      <trkpt lat="47.53835" lon="-2.87812">
        <ele>14</ele>
        <time>2026-08-29T13:39:45Z</time>
      </trkpt>
      <trkpt lat="47.53838" lon="-2.87814">
        <ele>13.9</ele>
        <time>2026-08-29T13:39:46Z</time>
      </trkpt>
      <trkpt lat="47.53841" lon="-2.87817">
        <ele>13.8</ele>
        <time>2026-08-29T13:39:47Z</time>
      </trkpt>
      <trkpt lat="47.53843" lon="-2.87819">
        <ele>13.8</ele>
        <time>2026-08-29T13:39:48Z</time>
      </trkpt>
      <trkpt lat="47.53847" lon="-2.8782">
        <ele>13.8</ele>
        <time>2026-08-29T13:39:49Z</time>
      </trkpt>
      <trkpt lat="47.5385" lon="-2.87821">
        <ele>13.7</ele>
        <time>2026-08-29T13:39:50Z</time>
      </trkpt>
      <trkpt lat="47.53854" lon="-2.87822">
        <ele>13.7</ele>
        <time>2026-08-29T13:39:51Z</time>
      </trkpt>
      <trkpt lat="47.53858" lon="-2.87823">
        <ele>13.7</ele>
        <time>2026-08-29T13:39:52Z</time>
      </trkpt>
      <trkpt lat="47.53862" lon="-2.87824">
        <ele>13.7</ele>
        <time>2026-08-29T13:39:53Z</time>
      </trkpt>
      <trkpt lat="47.53866" lon="-2.87825">
        <ele>13.8</ele>
        <time>2026-08-29T13:39:54Z</time>
      </trkpt>
      <trkpt lat="47.53871" lon="-2.87826">
        <ele>13.8</ele>
        <time>2026-08-29T13:39:55Z</time>
      </trkpt>
      <trkpt lat="47.53875" lon="-2.87827">
        <ele>13.9</ele>
        <time>2026-08-29T13:39:56Z</time>
      </trkpt>
      <trkpt lat="47.53879" lon="-2.87828">
        <ele>13.9</ele>
        <time>2026-08-29T13:39:57Z</time>
      </trkpt>
      <trkpt lat="47.53884" lon="-2.8783">
        <ele>14</ele>
        <time>2026-08-29T13:39:58Z</time>
      </trkpt>
      <trkpt lat="47.53888" lon="-2.87831">
        <ele>14</ele>
        <time>2026-08-29T13:39:59Z</time>
      </trkpt>
      <trkpt lat="47.53892" lon="-2.87832">
        <ele>14</ele>
        <time>2026-08-29T13:40:00Z</time>
      </trkpt>
      <trkpt lat="47.53896" lon="-2.87833">
        <ele>14</ele>
        <time>2026-08-29T13:40:01Z</time>
      </trkpt>
      <trkpt lat="47.53901" lon="-2.87834">
        <ele>14</ele>
        <time>2026-08-29T13:40:02Z</time>
      </trkpt>
      <trkpt lat="47.53905" lon="-2.87836">
        <ele>14</ele>
        <time>2026-08-29T13:40:03Z</time>
      </trkpt>
      <trkpt lat="47.53909" lon="-2.87838">
        <ele>14</ele>
        <time>2026-08-29T13:40:04Z</time>
      </trkpt>
      <trkpt lat="47.53913" lon="-2.87839">
        <ele>14</ele>
        <time>2026-08-29T13:40:05Z</time>
      </trkpt>
      <trkpt lat="47.53918" lon="-2.87841">
        <ele>14</ele>
        <time>2026-08-29T13:40:06Z</time>
      </trkpt>
      <trkpt lat="47.53922" lon="-2.87843">
        <ele>14</ele>
        <time>2026-08-29T13:40:07Z</time>
      </trkpt>
      <trkpt lat="47.53926" lon="-2.87845">
        <ele>14</ele>
        <time>2026-08-29T13:40:08Z</time>
      </trkpt>
      <trkpt lat="47.5393" lon="-2.87847">
        <ele>14</ele>
        <time>2026-08-29T13:40:09Z</time>
      </trkpt>
      <trkpt lat="47.53934" lon="-2.87849">
        <ele>14</ele>
        <time>2026-08-29T13:40:10Z</time>
      </trkpt>
      <trkpt lat="47.53938" lon="-2.87852">
        <ele>14</ele>
        <time>2026-08-29T13:40:11Z</time>
      </trkpt>
      <trkpt lat="47.53942" lon="-2.87854">
        <ele>14</ele>
        <time>2026-08-29T13:40:12Z</time>
      </trkpt>
      <trkpt lat="47.53946" lon="-2.87856">
        <ele>14</ele>
        <time>2026-08-29T13:40:13Z</time>
      </trkpt>
      <trkpt lat="47.5395" lon="-2.87859">
        <ele>14.2</ele>
        <time>2026-08-29T13:40:14Z</time>
      </trkpt>
      <trkpt lat="47.53954" lon="-2.87861">
        <ele>14.3</ele>
        <time>2026-08-29T13:40:15Z</time>
      </trkpt>
      <trkpt lat="47.53959" lon="-2.87864">
        <ele>14.6</ele>
        <time>2026-08-29T13:40:16Z</time>
      </trkpt>
      <trkpt lat="47.53963" lon="-2.87866">
        <ele>14.7</ele>
        <time>2026-08-29T13:40:17Z</time>
      </trkpt>
      <trkpt lat="47.53967" lon="-2.87868">
        <ele>14.9</ele>
        <time>2026-08-29T13:40:18Z</time>
      </trkpt>
      <trkpt lat="47.53971" lon="-2.8787">
        <ele>15</ele>
        <time>2026-08-29T13:40:19Z</time>
      </trkpt>
      <trkpt lat="47.53975" lon="-2.87872">
        <ele>15</ele>
        <time>2026-08-29T13:40:20Z</time>
      </trkpt>
      <trkpt lat="47.53979" lon="-2.87873">
        <ele>15</ele>
        <time>2026-08-29T13:40:21Z</time>
      </trkpt>
      <trkpt lat="47.53983" lon="-2.87876">
        <ele>15</ele>
        <time>2026-08-29T13:40:22Z</time>
      </trkpt>
      <trkpt lat="47.53987" lon="-2.87878">
        <ele>15</ele>
        <time>2026-08-29T13:40:23Z</time>
      </trkpt>
      <trkpt lat="47.5399" lon="-2.8788">
        <ele>15</ele>
        <time>2026-08-29T13:40:24Z</time>
      </trkpt>
      <trkpt lat="47.53994" lon="-2.87882">
        <ele>15</ele>
        <time>2026-08-29T13:40:25Z</time>
      </trkpt>
      <trkpt lat="47.53998" lon="-2.87884">
        <ele>15</ele>
        <time>2026-08-29T13:40:26Z</time>
      </trkpt>
      <trkpt lat="47.54002" lon="-2.87886">
        <ele>15.1</ele>
        <time>2026-08-29T13:40:27Z</time>
      </trkpt>
      <trkpt lat="47.54006" lon="-2.87888">
        <ele>15.2</ele>
        <time>2026-08-29T13:40:28Z</time>
      </trkpt>
      <trkpt lat="47.5401" lon="-2.87889">
        <ele>15.4</ele>
        <time>2026-08-29T13:40:29Z</time>
      </trkpt>
      <trkpt lat="47.54014" lon="-2.8789">
        <ele>15.5</ele>
        <time>2026-08-29T13:40:30Z</time>
      </trkpt>
      <trkpt lat="47.54018" lon="-2.8789">
        <ele>15.7</ele>
        <time>2026-08-29T13:40:31Z</time>
      </trkpt>
      <trkpt lat="47.54022" lon="-2.87888">
        <ele>15.8</ele>
        <time>2026-08-29T13:40:32Z</time>
      </trkpt>
      <trkpt lat="47.54025" lon="-2.87886">
        <ele>15.8</ele>
        <time>2026-08-29T13:40:33Z</time>
      </trkpt>
      <trkpt lat="47.54027" lon="-2.87882">
        <ele>15.7</ele>
        <time>2026-08-29T13:40:34Z</time>
      </trkpt>
      <trkpt lat="47.54029" lon="-2.87877">
        <ele>15.6</ele>
        <time>2026-08-29T13:40:35Z</time>
      </trkpt>
      <trkpt lat="47.5403" lon="-2.87872">
        <ele>15.5</ele>
        <time>2026-08-29T13:40:36Z</time>
      </trkpt>
      <trkpt lat="47.54031" lon="-2.87866">
        <ele>15.4</ele>
        <time>2026-08-29T13:40:37Z</time>
      </trkpt>
      <trkpt lat="47.54033" lon="-2.87861">
        <ele>15.4</ele>
        <time>2026-08-29T13:40:38Z</time>
      </trkpt>
      <trkpt lat="47.54036" lon="-2.87857">
        <ele>15.5</ele>
        <time>2026-08-29T13:40:39Z</time>
      </trkpt>
      <trkpt lat="47.54039" lon="-2.87854">
        <ele>15.7</ele>
        <time>2026-08-29T13:40:40Z</time>
      </trkpt>
      <trkpt lat="47.54041" lon="-2.8785">
        <ele>15.8</ele>
        <time>2026-08-29T13:40:41Z</time>
      </trkpt>
      <trkpt lat="47.54042" lon="-2.87845">
        <ele>15.7</ele>
        <time>2026-08-29T13:40:42Z</time>
      </trkpt>
      <trkpt lat="47.54043" lon="-2.87841">
        <ele>15.7</ele>
        <time>2026-08-29T13:40:43Z</time>
      </trkpt>
      <trkpt lat="47.54043" lon="-2.87836">
        <ele>15.6</ele>
        <time>2026-08-29T13:40:44Z</time>
      </trkpt>
      <trkpt lat="47.54043" lon="-2.8783">
        <ele>15.6</ele>
        <time>2026-08-29T13:40:45Z</time>
      </trkpt>
      <trkpt lat="47.54043" lon="-2.87825">
        <ele>15.7</ele>
        <time>2026-08-29T13:40:46Z</time>
      </trkpt>
      <trkpt lat="47.54043" lon="-2.87821">
        <ele>15.7</ele>
        <time>2026-08-29T13:40:47Z</time>
      </trkpt>
      <trkpt lat="47.54042" lon="-2.87816">
        <ele>15.8</ele>
        <time>2026-08-29T13:40:48Z</time>
      </trkpt>
      <trkpt lat="47.5404" lon="-2.87811">
        <ele>15.9</ele>
        <time>2026-08-29T13:40:49Z</time>
      </trkpt>
      <trkpt lat="47.54039" lon="-2.87807">
        <ele>16</ele>
        <time>2026-08-29T13:40:50Z</time>
      </trkpt>
      <trkpt lat="47.54038" lon="-2.87802">
        <ele>16</ele>
        <time>2026-08-29T13:40:51Z</time>
      </trkpt>
      <trkpt lat="47.54036" lon="-2.87797">
        <ele>15.9</ele>
        <time>2026-08-29T13:40:52Z</time>
      </trkpt>
      <trkpt lat="47.54034" lon="-2.87791">
        <ele>15.9</ele>
        <time>2026-08-29T13:40:53Z</time>
      </trkpt>
      <trkpt lat="47.54032" lon="-2.87785">
        <ele>15.9</ele>
        <time>2026-08-29T13:40:54Z</time>
      </trkpt>
      <trkpt lat="47.5403" lon="-2.87779">
        <ele>15.9</ele>
        <time>2026-08-29T13:40:55Z</time>
      </trkpt>
      <trkpt lat="47.54028" lon="-2.87773">
        <ele>15.8</ele>
        <time>2026-08-29T13:40:56Z</time>
      </trkpt>
      <trkpt lat="47.54025" lon="-2.87768">
        <ele>15.6</ele>
        <time>2026-08-29T13:40:57Z</time>
      </trkpt>
      <trkpt lat="47.54024" lon="-2.87763">
        <ele>15.4</ele>
        <time>2026-08-29T13:40:58Z</time>
      </trkpt>
      <trkpt lat="47.54022" lon="-2.87757">
        <ele>15.2</ele>
        <time>2026-08-29T13:40:59Z</time>
      </trkpt>
      <trkpt lat="47.5402" lon="-2.87751">
        <ele>15</ele>
        <time>2026-08-29T13:41:00Z</time>
      </trkpt>
      <trkpt lat="47.54018" lon="-2.87744">
        <ele>15</ele>
        <time>2026-08-29T13:41:01Z</time>
      </trkpt>
      <trkpt lat="47.54017" lon="-2.87738">
        <ele>15</ele>
        <time>2026-08-29T13:41:02Z</time>
      </trkpt>
      <trkpt lat="47.54014" lon="-2.87732">
        <ele>15</ele>
        <time>2026-08-29T13:41:03Z</time>
      </trkpt>
      <trkpt lat="47.54012" lon="-2.87726">
        <ele>15</ele>
        <time>2026-08-29T13:41:04Z</time>
      </trkpt>
      <trkpt lat="47.5401" lon="-2.8772">
        <ele>15</ele>
        <time>2026-08-29T13:41:05Z</time>
      </trkpt>
      <trkpt lat="47.54008" lon="-2.87713">
        <ele>15</ele>
        <time>2026-08-29T13:41:06Z</time>
      </trkpt>
      <trkpt lat="47.54005" lon="-2.87707">
        <ele>15</ele>
        <time>2026-08-29T13:41:07Z</time>
      </trkpt>
      <trkpt lat="47.54002" lon="-2.877">
        <ele>15</ele>
        <time>2026-08-29T13:41:08Z</time>
      </trkpt>
      <trkpt lat="47.54" lon="-2.87693">
        <ele>15</ele>
        <time>2026-08-29T13:41:09Z</time>
      </trkpt>
      <trkpt lat="47.53997" lon="-2.87687">
        <ele>15</ele>
        <time>2026-08-29T13:41:10Z</time>
      </trkpt>
      <trkpt lat="47.53995" lon="-2.8768">
        <ele>15</ele>
        <time>2026-08-29T13:41:11Z</time>
      </trkpt>
      <trkpt lat="47.53992" lon="-2.87673">
        <ele>15</ele>
        <time>2026-08-29T13:41:12Z</time>
      </trkpt>
      <trkpt lat="47.53989" lon="-2.87666">
        <ele>15</ele>
        <time>2026-08-29T13:41:13Z</time>
      </trkpt>
      <trkpt lat="47.53986" lon="-2.8766">
        <ele>15</ele>
        <time>2026-08-29T13:41:14Z</time>
      </trkpt>
      <trkpt lat="47.53984" lon="-2.87653">
        <ele>15</ele>
        <time>2026-08-29T13:41:15Z</time>
      </trkpt>
      <trkpt lat="47.53983" lon="-2.87645">
        <ele>15</ele>
        <time>2026-08-29T13:41:16Z</time>
      </trkpt>
      <trkpt lat="47.53981" lon="-2.87636">
        <ele>15</ele>
        <time>2026-08-29T13:41:17Z</time>
      </trkpt>
      <trkpt lat="47.53979" lon="-2.87629">
        <ele>15</ele>
        <time>2026-08-29T13:41:18Z</time>
      </trkpt>
      <trkpt lat="47.53977" lon="-2.87622">
        <ele>15</ele>
        <time>2026-08-29T13:41:19Z</time>
      </trkpt>
      <trkpt lat="47.53976" lon="-2.87614">
        <ele>15</ele>
        <time>2026-08-29T13:41:20Z</time>
      </trkpt>
      <trkpt lat="47.53974" lon="-2.87607">
        <ele>15</ele>
        <time>2026-08-29T13:41:21Z</time>
      </trkpt>
      <trkpt lat="47.53972" lon="-2.87599">
        <ele>15</ele>
        <time>2026-08-29T13:41:22Z</time>
      </trkpt>
      <trkpt lat="47.5397" lon="-2.87592">
        <ele>14.9</ele>
        <time>2026-08-29T13:41:23Z</time>
      </trkpt>
      <trkpt lat="47.53968" lon="-2.87586">
        <ele>14.8</ele>
        <time>2026-08-29T13:41:24Z</time>
      </trkpt>
      <trkpt lat="47.53966" lon="-2.87579">
        <ele>14.7</ele>
        <time>2026-08-29T13:41:25Z</time>
      </trkpt>
      <trkpt lat="47.53964" lon="-2.87573">
        <ele>14.4</ele>
        <time>2026-08-29T13:41:26Z</time>
      </trkpt>
      <trkpt lat="47.53963" lon="-2.87567">
        <ele>14.3</ele>
        <time>2026-08-29T13:41:27Z</time>
      </trkpt>
      <trkpt lat="47.53961" lon="-2.8756">
        <ele>14.1</ele>
        <time>2026-08-29T13:41:28Z</time>
      </trkpt>
      <trkpt lat="47.53959" lon="-2.87553">
        <ele>14</ele>
        <time>2026-08-29T13:41:29Z</time>
      </trkpt>
      <trkpt lat="47.53957" lon="-2.87546">
        <ele>14</ele>
        <time>2026-08-29T13:41:30Z</time>
      </trkpt>
      <trkpt lat="47.53956" lon="-2.87539">
        <ele>14</ele>
        <time>2026-08-29T13:41:31Z</time>
      </trkpt>
      <trkpt lat="47.53954" lon="-2.87531">
        <ele>14</ele>
        <time>2026-08-29T13:41:32Z</time>
      </trkpt>
      <trkpt lat="47.53952" lon="-2.87524">
        <ele>13.9</ele>
        <time>2026-08-29T13:41:33Z</time>
      </trkpt>
      <trkpt lat="47.5395" lon="-2.87517">
        <ele>13.8</ele>
        <time>2026-08-29T13:41:34Z</time>
      </trkpt>
      <trkpt lat="47.53948" lon="-2.8751">
        <ele>13.5</ele>
        <time>2026-08-29T13:41:35Z</time>
      </trkpt>
      <trkpt lat="47.53947" lon="-2.87503">
        <ele>13.3</ele>
        <time>2026-08-29T13:41:36Z</time>
      </trkpt>
      <trkpt lat="47.53945" lon="-2.87496">
        <ele>13.2</ele>
        <time>2026-08-29T13:41:37Z</time>
      </trkpt>
      <trkpt lat="47.53944" lon="-2.8749">
        <ele>13.4</ele>
        <time>2026-08-29T13:41:38Z</time>
      </trkpt>
      <trkpt lat="47.53942" lon="-2.87483">
        <ele>13.6</ele>
        <time>2026-08-29T13:41:39Z</time>
      </trkpt>
      <trkpt lat="47.5394" lon="-2.87477">
        <ele>13.7</ele>
        <time>2026-08-29T13:41:40Z</time>
      </trkpt>
      <trkpt lat="47.53938" lon="-2.87471">
        <ele>13.8</ele>
        <time>2026-08-29T13:41:41Z</time>
      </trkpt>
      <trkpt lat="47.53935" lon="-2.87466">
        <ele>13.7</ele>
        <time>2026-08-29T13:41:42Z</time>
      </trkpt>
      <trkpt lat="47.53933" lon="-2.8746">
        <ele>13.6</ele>
        <time>2026-08-29T13:41:43Z</time>
      </trkpt>
      <trkpt lat="47.5393" lon="-2.87453">
        <ele>13.5</ele>
        <time>2026-08-29T13:41:44Z</time>
      </trkpt>
      <trkpt lat="47.53929" lon="-2.87446">
        <ele>13.4</ele>
        <time>2026-08-29T13:41:45Z</time>
      </trkpt>
      <trkpt lat="47.53928" lon="-2.8744">
        <ele>13.4</ele>
        <time>2026-08-29T13:41:46Z</time>
      </trkpt>
      <trkpt lat="47.53928" lon="-2.87434">
        <ele>13.4</ele>
        <time>2026-08-29T13:41:47Z</time>
      </trkpt>
      <trkpt lat="47.53928" lon="-2.87428">
        <ele>13.4</ele>
        <time>2026-08-29T13:41:48Z</time>
      </trkpt>
      <trkpt lat="47.53928" lon="-2.87422">
        <ele>13.4</ele>
        <time>2026-08-29T13:41:49Z</time>
      </trkpt>
      <trkpt lat="47.53927" lon="-2.87417">
        <ele>13.4</ele>
        <time>2026-08-29T13:41:50Z</time>
      </trkpt>
      <trkpt lat="47.53925" lon="-2.87414">
        <ele>13.2</ele>
        <time>2026-08-29T13:41:51Z</time>
      </trkpt>
      <trkpt lat="47.53923" lon="-2.87411">
        <ele>13.1</ele>
        <time>2026-08-29T13:41:52Z</time>
      </trkpt>
      <trkpt lat="47.5392" lon="-2.87408">
        <ele>12.8</ele>
        <time>2026-08-29T13:41:53Z</time>
      </trkpt>
      <trkpt lat="47.53916" lon="-2.87406">
        <ele>12.6</ele>
        <time>2026-08-29T13:41:54Z</time>
      </trkpt>
      <trkpt lat="47.53913" lon="-2.87407">
        <ele>12.6</ele>
        <time>2026-08-29T13:41:55Z</time>
      </trkpt>
      <trkpt lat="47.53909" lon="-2.87409">
        <ele>12.6</ele>
        <time>2026-08-29T13:41:56Z</time>
      </trkpt>
      <trkpt lat="47.53906" lon="-2.87411">
        <ele>12.6</ele>
        <time>2026-08-29T13:41:57Z</time>
      </trkpt>
      <trkpt lat="47.53903" lon="-2.8741">
        <ele>12.5</ele>
        <time>2026-08-29T13:41:58Z</time>
      </trkpt>
      <trkpt lat="47.53899" lon="-2.87408">
        <ele>12.4</ele>
        <time>2026-08-29T13:41:59Z</time>
      </trkpt>
      <trkpt lat="47.53896" lon="-2.87405">
        <ele>12.5</ele>
        <time>2026-08-29T13:42:00Z</time>
      </trkpt>
      <trkpt lat="47.53893" lon="-2.87401">
        <ele>12.5</ele>
        <time>2026-08-29T13:42:01Z</time>
      </trkpt>
      <trkpt lat="47.5389" lon="-2.87397">
        <ele>12.7</ele>
        <time>2026-08-29T13:42:02Z</time>
      </trkpt>
      <trkpt lat="47.53887" lon="-2.87393">
        <ele>12.7</ele>
        <time>2026-08-29T13:42:03Z</time>
      </trkpt>
      <trkpt lat="47.53884" lon="-2.87388">
        <ele>12.7</ele>
        <time>2026-08-29T13:42:04Z</time>
      </trkpt>
      <trkpt lat="47.53881" lon="-2.87384">
        <ele>12.7</ele>
        <time>2026-08-29T13:42:05Z</time>
      </trkpt>
      <trkpt lat="47.53877" lon="-2.87379">
        <ele>12.7</ele>
        <time>2026-08-29T13:42:06Z</time>
      </trkpt>
      <trkpt lat="47.53874" lon="-2.87375">
        <ele>12.7</ele>
        <time>2026-08-29T13:42:07Z</time>
      </trkpt>
      <trkpt lat="47.5387" lon="-2.8737">
        <ele>12.8</ele>
        <time>2026-08-29T13:42:08Z</time>
      </trkpt>
      <trkpt lat="47.53867" lon="-2.87365">
        <ele>13</ele>
        <time>2026-08-29T13:42:09Z</time>
      </trkpt>
      <trkpt lat="47.53864" lon="-2.87361">
        <ele>13.1</ele>
        <time>2026-08-29T13:42:10Z</time>
      </trkpt>
      <trkpt lat="47.53861" lon="-2.87356">
        <ele>13.2</ele>
        <time>2026-08-29T13:42:11Z</time>
      </trkpt>
      <trkpt lat="47.53857" lon="-2.87351">
        <ele>13.2</ele>
        <time>2026-08-29T13:42:12Z</time>
      </trkpt>
      <trkpt lat="47.53854" lon="-2.87347">
        <ele>13.3</ele>
        <time>2026-08-29T13:42:13Z</time>
      </trkpt>
      <trkpt lat="47.53851" lon="-2.87342">
        <ele>13.3</ele>
        <time>2026-08-29T13:42:14Z</time>
      </trkpt>
      <trkpt lat="47.53848" lon="-2.87338">
        <ele>13.4</ele>
        <time>2026-08-29T13:42:15Z</time>
      </trkpt>
      <trkpt lat="47.53844" lon="-2.87334">
        <ele>13.4</ele>
        <time>2026-08-29T13:42:16Z</time>
      </trkpt>
      <trkpt lat="47.53841" lon="-2.87329">
        <ele>13.4</ele>
        <time>2026-08-29T13:42:17Z</time>
      </trkpt>
      <trkpt lat="47.53838" lon="-2.87325">
        <ele>13.4</ele>
        <time>2026-08-29T13:42:18Z</time>
      </trkpt>
      <trkpt lat="47.53835" lon="-2.8732">
        <ele>13.5</ele>
        <time>2026-08-29T13:42:19Z</time>
      </trkpt>
      <trkpt lat="47.53832" lon="-2.87315">
        <ele>13.7</ele>
        <time>2026-08-29T13:42:20Z</time>
      </trkpt>
      <trkpt lat="47.53829" lon="-2.87311">
        <ele>13.8</ele>
        <time>2026-08-29T13:42:21Z</time>
      </trkpt>
      <trkpt lat="47.53827" lon="-2.87306">
        <ele>14</ele>
        <time>2026-08-29T13:42:22Z</time>
      </trkpt>
      <trkpt lat="47.53824" lon="-2.87302">
        <ele>14.1</ele>
        <time>2026-08-29T13:42:23Z</time>
      </trkpt>
      <trkpt lat="47.53821" lon="-2.87297">
        <ele>14.3</ele>
        <time>2026-08-29T13:42:24Z</time>
      </trkpt>
      <trkpt lat="47.5382" lon="-2.87293">
        <ele>14.5</ele>
        <time>2026-08-29T13:42:25Z</time>
      </trkpt>
      <trkpt lat="47.53819" lon="-2.87288">
        <ele>14.6</ele>
        <time>2026-08-29T13:42:26Z</time>
      </trkpt>
      <trkpt lat="47.53817" lon="-2.87283">
        <ele>14.8</ele>
        <time>2026-08-29T13:42:27Z</time>
      </trkpt>
      <trkpt lat="47.53815" lon="-2.87279">
        <ele>15</ele>
        <time>2026-08-29T13:42:28Z</time>
      </trkpt>
      <trkpt lat="47.53813" lon="-2.87275">
        <ele>15.1</ele>
        <time>2026-08-29T13:42:29Z</time>
      </trkpt>
      <trkpt lat="47.53811" lon="-2.8727">
        <ele>15.2</ele>
        <time>2026-08-29T13:42:30Z</time>
      </trkpt>
      <trkpt lat="47.53809" lon="-2.87265">
        <ele>15.4</ele>
        <time>2026-08-29T13:42:31Z</time>
      </trkpt>
      <trkpt lat="47.53807" lon="-2.8726">
        <ele>15.6</ele>
        <time>2026-08-29T13:42:32Z</time>
      </trkpt>
      <trkpt lat="47.53805" lon="-2.87255">
        <ele>15.8</ele>
        <time>2026-08-29T13:42:33Z</time>
      </trkpt>
      <trkpt lat="47.53803" lon="-2.8725">
        <ele>16</ele>
        <time>2026-08-29T13:42:34Z</time>
      </trkpt>
      <trkpt lat="47.53801" lon="-2.87245">
        <ele>15.8</ele>
        <time>2026-08-29T13:42:35Z</time>
      </trkpt>
      <trkpt lat="47.53799" lon="-2.87241">
        <ele>15.8</ele>
        <time>2026-08-29T13:42:36Z</time>
      </trkpt>
      <trkpt lat="47.53797" lon="-2.87236">
        <ele>15.7</ele>
        <time>2026-08-29T13:42:37Z</time>
      </trkpt>
      <trkpt lat="47.53794" lon="-2.87232">
        <ele>15.6</ele>
        <time>2026-08-29T13:42:38Z</time>
      </trkpt>
      <trkpt lat="47.53791" lon="-2.87228">
        <ele>15.6</ele>
        <time>2026-08-29T13:42:39Z</time>
      </trkpt>
      <trkpt lat="47.53789" lon="-2.87223">
        <ele>15.6</ele>
        <time>2026-08-29T13:42:40Z</time>
      </trkpt>
      <trkpt lat="47.53786" lon="-2.87219">
        <ele>15.7</ele>
        <time>2026-08-29T13:42:41Z</time>
      </trkpt>
      <trkpt lat="47.53783" lon="-2.87216">
        <ele>15.8</ele>
        <time>2026-08-29T13:42:42Z</time>
      </trkpt>
      <trkpt lat="47.5378" lon="-2.87214">
        <ele>15.9</ele>
        <time>2026-08-29T13:42:43Z</time>
      </trkpt>
      <trkpt lat="47.53776" lon="-2.87214">
        <ele>16</ele>
        <time>2026-08-29T13:42:44Z</time>
      </trkpt>
      <trkpt lat="47.53772" lon="-2.87214">
        <ele>16</ele>
        <time>2026-08-29T13:42:45Z</time>
      </trkpt>
      <trkpt lat="47.53769" lon="-2.87215">
        <ele>16</ele>
        <time>2026-08-29T13:42:46Z</time>
      </trkpt>
      <trkpt lat="47.53765" lon="-2.87216">
        <ele>16</ele>
        <time>2026-08-29T13:42:47Z</time>
      </trkpt>
      <trkpt lat="47.53762" lon="-2.87216">
        <ele>16</ele>
        <time>2026-08-29T13:42:48Z</time>
      </trkpt>
      <trkpt lat="47.53759" lon="-2.87217">
        <ele>16</ele>
        <time>2026-08-29T13:42:49Z</time>
      </trkpt>
      <trkpt lat="47.53756" lon="-2.87218">
        <ele>16</ele>
        <time>2026-08-29T13:42:50Z</time>
      </trkpt>
      <trkpt lat="47.53752" lon="-2.87218">
        <ele>16</ele>
        <time>2026-08-29T13:42:51Z</time>
      </trkpt>
      <trkpt lat="47.5375" lon="-2.87219">
        <ele>16</ele>
        <time>2026-08-29T13:42:52Z</time>
      </trkpt>
      <trkpt lat="47.53748" lon="-2.8722">
        <ele>16.1</ele>
        <time>2026-08-29T13:42:53Z</time>
      </trkpt>
      <trkpt lat="47.53746" lon="-2.87221">
        <ele>16.1</ele>
        <time>2026-08-29T13:42:54Z</time>
      </trkpt>
      <trkpt lat="47.53745" lon="-2.87223">
        <ele>16.2</ele>
        <time>2026-08-29T13:42:55Z</time>
      </trkpt>
      <trkpt lat="47.53745" lon="-2.87224">
        <ele>16.2</ele>
        <time>2026-08-29T13:42:56Z</time>
      </trkpt>
      <trkpt lat="47.53744" lon="-2.87226">
        <ele>16.2</ele>
        <time>2026-08-29T13:42:57Z</time>
      </trkpt>
      <trkpt lat="47.53744" lon="-2.87229">
        <ele>16.1</ele>
        <time>2026-08-29T13:42:58Z</time>
      </trkpt>
      <trkpt lat="47.53744" lon="-2.87232">
        <ele>16.1</ele>
        <time>2026-08-29T13:42:59Z</time>
      </trkpt>
      <trkpt lat="47.53744" lon="-2.87236">
        <ele>16</ele>
        <time>2026-08-29T13:43:00Z</time>
      </trkpt>
      <trkpt lat="47.53744" lon="-2.87241">
        <ele>15.9</ele>
        <time>2026-08-29T13:43:01Z</time>
      </trkpt>
      <trkpt lat="47.53744" lon="-2.87246">
        <ele>15.8</ele>
        <time>2026-08-29T13:43:02Z</time>
      </trkpt>
      <trkpt lat="47.53744" lon="-2.87251">
        <ele>15.8</ele>
        <time>2026-08-29T13:43:03Z</time>
      </trkpt>
      <trkpt lat="47.53743" lon="-2.87256">
        <ele>15.6</ele>
        <time>2026-08-29T13:43:04Z</time>
      </trkpt>
      <trkpt lat="47.53743" lon="-2.87262">
        <ele>15.4</ele>
        <time>2026-08-29T13:43:05Z</time>
      </trkpt>
      <trkpt lat="47.53742" lon="-2.87268">
        <ele>15.3</ele>
        <time>2026-08-29T13:43:06Z</time>
      </trkpt>
      <trkpt lat="47.53742" lon="-2.87275">
        <ele>15.1</ele>
        <time>2026-08-29T13:43:07Z</time>
      </trkpt>
      <trkpt lat="47.53743" lon="-2.87281">
        <ele>14.9</ele>
        <time>2026-08-29T13:43:08Z</time>
      </trkpt>
      <trkpt lat="47.53743" lon="-2.87289">
        <ele>14.5</ele>
        <time>2026-08-29T13:43:09Z</time>
      </trkpt>
      <trkpt lat="47.53743" lon="-2.87296">
        <ele>14.2</ele>
        <time>2026-08-29T13:43:10Z</time>
      </trkpt>
      <trkpt lat="47.53742" lon="-2.87303">
        <ele>13.8</ele>
        <time>2026-08-29T13:43:11Z</time>
      </trkpt>
      <trkpt lat="47.5374" lon="-2.8731">
        <ele>13.5</ele>
        <time>2026-08-29T13:43:12Z</time>
      </trkpt>
      <trkpt lat="47.53736" lon="-2.87314">
        <ele>13.2</ele>
        <time>2026-08-29T13:43:13Z</time>
      </trkpt>
      <trkpt lat="47.53732" lon="-2.87315">
        <ele>13</ele>
        <time>2026-08-29T13:43:14Z</time>
      </trkpt>
      <trkpt lat="47.53728" lon="-2.87314">
        <ele>12.9</ele>
        <time>2026-08-29T13:43:15Z</time>
      </trkpt>
      <trkpt lat="47.53724" lon="-2.87312">
        <ele>12.8</ele>
        <time>2026-08-29T13:43:16Z</time>
      </trkpt>
      <trkpt lat="47.5372" lon="-2.87311">
        <ele>12.8</ele>
        <time>2026-08-29T13:43:17Z</time>
      </trkpt>
      <trkpt lat="47.53717" lon="-2.87309">
        <ele>12.9</ele>
        <time>2026-08-29T13:43:18Z</time>
      </trkpt>
      <trkpt lat="47.53713" lon="-2.87308">
        <ele>12.9</ele>
        <time>2026-08-29T13:43:19Z</time>
      </trkpt>
      <trkpt lat="47.53709" lon="-2.87308">
        <ele>12.9</ele>
        <time>2026-08-29T13:43:20Z</time>
      </trkpt>
      <trkpt lat="47.53705" lon="-2.87309">
        <ele>12.9</ele>
        <time>2026-08-29T13:43:21Z</time>
      </trkpt>
      <trkpt lat="47.53701" lon="-2.87309">
        <ele>12.9</ele>
        <time>2026-08-29T13:43:22Z</time>
      </trkpt>
      <trkpt lat="47.53697" lon="-2.87309">
        <ele>12.9</ele>
        <time>2026-08-29T13:43:23Z</time>
      </trkpt>
      <trkpt lat="47.53693" lon="-2.8731">
        <ele>12.8</ele>
        <time>2026-08-29T13:43:24Z</time>
      </trkpt>
      <trkpt lat="47.53689" lon="-2.87311">
        <ele>12.6</ele>
        <time>2026-08-29T13:43:25Z</time>
      </trkpt>
      <trkpt lat="47.53685" lon="-2.87311">
        <ele>12.5</ele>
        <time>2026-08-29T13:43:26Z</time>
      </trkpt>
      <trkpt lat="47.5368" lon="-2.87312">
        <ele>12.2</ele>
        <time>2026-08-29T13:43:27Z</time>
      </trkpt>
      <trkpt lat="47.53675" lon="-2.87314">
        <ele>12</ele>
        <time>2026-08-29T13:43:28Z</time>
      </trkpt>
      <trkpt lat="47.53671" lon="-2.87315">
        <ele>11.8</ele>
        <time>2026-08-29T13:43:29Z</time>
      </trkpt>
      <trkpt lat="47.53666" lon="-2.87317">
        <ele>11.5</ele>
        <time>2026-08-29T13:43:30Z</time>
      </trkpt>
      <trkpt lat="47.53662" lon="-2.87319">
        <ele>11.3</ele>
        <time>2026-08-29T13:43:31Z</time>
      </trkpt>
      <trkpt lat="47.53658" lon="-2.87322">
        <ele>11</ele>
        <time>2026-08-29T13:43:32Z</time>
      </trkpt>
      <trkpt lat="47.53653" lon="-2.87324">
        <ele>10.7</ele>
        <time>2026-08-29T13:43:33Z</time>
      </trkpt>
      <trkpt lat="47.53649" lon="-2.87326">
        <ele>10.5</ele>
        <time>2026-08-29T13:43:34Z</time>
      </trkpt>
      <trkpt lat="47.53643" lon="-2.87328">
        <ele>10.2</ele>
        <time>2026-08-29T13:43:35Z</time>
      </trkpt>
      <trkpt lat="47.53638" lon="-2.87331">
        <ele>10</ele>
        <time>2026-08-29T13:43:36Z</time>
      </trkpt>
      <trkpt lat="47.53633" lon="-2.87334">
        <ele>9.8</ele>
        <time>2026-08-29T13:43:37Z</time>
      </trkpt>
      <trkpt lat="47.5363" lon="-2.87337">
        <ele>9.8</ele>
        <time>2026-08-29T13:43:38Z</time>
      </trkpt>
      <trkpt lat="47.53627" lon="-2.8734">
        <ele>9.7</ele>
        <time>2026-08-29T13:43:39Z</time>
      </trkpt>
      <trkpt lat="47.53624" lon="-2.87345">
        <ele>9.7</ele>
        <time>2026-08-29T13:43:40Z</time>
      </trkpt>
      <trkpt lat="47.53622" lon="-2.8735">
        <ele>9.6</ele>
        <time>2026-08-29T13:43:41Z</time>
      </trkpt>
      <trkpt lat="47.53621" lon="-2.87355">
        <ele>9.6</ele>
        <time>2026-08-29T13:43:42Z</time>
      </trkpt>
      <trkpt lat="47.5362" lon="-2.8736">
        <ele>9.6</ele>
        <time>2026-08-29T13:43:43Z</time>
      </trkpt>
      <trkpt lat="47.53619" lon="-2.87365">
        <ele>9.5</ele>
        <time>2026-08-29T13:43:44Z</time>
      </trkpt>
      <trkpt lat="47.53618" lon="-2.87371">
        <ele>9.4</ele>
        <time>2026-08-29T13:43:45Z</time>
      </trkpt>
      <trkpt lat="47.53618" lon="-2.87375">
        <ele>9.4</ele>
        <time>2026-08-29T13:43:46Z</time>
      </trkpt>
      <trkpt lat="47.53617" lon="-2.87379">
        <ele>9.3</ele>
        <time>2026-08-29T13:43:47Z</time>
      </trkpt>
      <trkpt lat="47.53617" lon="-2.87383">
        <ele>9.3</ele>
        <time>2026-08-29T13:43:48Z</time>
      </trkpt>
      <trkpt lat="47.53616" lon="-2.87388">
        <ele>9.2</ele>
        <time>2026-08-29T13:43:49Z</time>
      </trkpt>
      <trkpt lat="47.53614" lon="-2.87393">
        <ele>9.1</ele>
        <time>2026-08-29T13:43:50Z</time>
      </trkpt>
      <trkpt lat="47.53613" lon="-2.87398">
        <ele>9.1</ele>
        <time>2026-08-29T13:43:51Z</time>
      </trkpt>
      <trkpt lat="47.53611" lon="-2.87403">
        <ele>9</ele>
        <time>2026-08-29T13:43:52Z</time>
      </trkpt>
      <trkpt lat="47.53608" lon="-2.87408">
        <ele>8.8</ele>
        <time>2026-08-29T13:43:53Z</time>
      </trkpt>
      <trkpt lat="47.53604" lon="-2.87411">
        <ele>8.5</ele>
        <time>2026-08-29T13:43:54Z</time>
      </trkpt>
      <trkpt lat="47.536" lon="-2.87413">
        <ele>8.2</ele>
        <time>2026-08-29T13:43:55Z</time>
      </trkpt>
      <trkpt lat="47.53596" lon="-2.87415">
        <ele>7.9</ele>
        <time>2026-08-29T13:43:56Z</time>
      </trkpt>
      <trkpt lat="47.53591" lon="-2.87418">
        <ele>7.5</ele>
        <time>2026-08-29T13:43:57Z</time>
      </trkpt>
      <trkpt lat="47.53585" lon="-2.8742">
        <ele>6.9</ele>
        <time>2026-08-29T13:43:58Z</time>
      </trkpt>
      <trkpt lat="47.53579" lon="-2.87423">
        <ele>6.2</ele>
        <time>2026-08-29T13:43:59Z</time>
      </trkpt>
      <trkpt lat="47.53574" lon="-2.87425">
        <ele>5.7</ele>
        <time>2026-08-29T13:44:00Z</time>
      </trkpt>
      <trkpt lat="47.53569" lon="-2.87427">
        <ele>5.2</ele>
        <time>2026-08-29T13:44:01Z</time>
      </trkpt>
      <trkpt lat="47.53566" lon="-2.87429">
        <ele>4.9</ele>
        <time>2026-08-29T13:44:02Z</time>
      </trkpt>
      <trkpt lat="47.53563" lon="-2.87432">
        <ele>4.4</ele>
        <time>2026-08-29T13:44:03Z</time>
      </trkpt>
      <trkpt lat="47.53561" lon="-2.87433">
        <ele>4.2</ele>
        <time>2026-08-29T13:44:04Z</time>
      </trkpt>
      <trkpt lat="47.53559" lon="-2.87433">
        <ele>4.1</ele>
        <time>2026-08-29T13:44:05Z</time>
      </trkpt>
      <trkpt lat="47.53557" lon="-2.87432">
        <ele>4</ele>
        <time>2026-08-29T13:44:06Z</time>
      </trkpt>
      <trkpt lat="47.53555" lon="-2.8743">
        <ele>4</ele>
        <time>2026-08-29T13:44:07Z</time>
      </trkpt>
      <trkpt lat="47.53554" lon="-2.87427">
        <ele>4.1</ele>
        <time>2026-08-29T13:44:08Z</time>
      </trkpt>
      <trkpt lat="47.53552" lon="-2.87424">
        <ele>4</ele>
        <time>2026-08-29T13:44:09Z</time>
      </trkpt>
      <trkpt lat="47.53551" lon="-2.87421">
        <ele>4.1</ele>
        <time>2026-08-29T13:44:10Z</time>
      </trkpt>
      <trkpt lat="47.5355" lon="-2.87418">
        <ele>4.1</ele>
        <time>2026-08-29T13:44:11Z</time>
      </trkpt>
      <trkpt lat="47.5355" lon="-2.87415">
        <ele>4.2</ele>
        <time>2026-08-29T13:44:12Z</time>
      </trkpt>
      <trkpt lat="47.5355" lon="-2.87412">
        <ele>4.2</ele>
        <time>2026-08-29T13:44:13Z</time>
      </trkpt>
      <trkpt lat="47.53549" lon="-2.87409">
        <ele>4.1</ele>
        <time>2026-08-29T13:44:14Z</time>
      </trkpt>
      <trkpt lat="47.53549" lon="-2.87407">
        <ele>4.1</ele>
        <time>2026-08-29T13:44:15Z</time>
      </trkpt>
      <trkpt lat="47.53548" lon="-2.87403">
        <ele>3.9</ele>
        <time>2026-08-29T13:44:16Z</time>
      </trkpt>
      <trkpt lat="47.53547" lon="-2.87399">
        <ele>3.8</ele>
        <time>2026-08-29T13:44:17Z</time>
      </trkpt>
      <trkpt lat="47.53546" lon="-2.87394">
        <ele>3.6</ele>
        <time>2026-08-29T13:44:18Z</time>
      </trkpt>
      <trkpt lat="47.53544" lon="-2.8739">
        <ele>3.3</ele>
        <time>2026-08-29T13:44:19Z</time>
      </trkpt>
      <trkpt lat="47.53542" lon="-2.87386">
        <ele>3</ele>
        <time>2026-08-29T13:44:20Z</time>
      </trkpt>
      <trkpt lat="47.53542" lon="-2.8738">
        <ele>3</ele>
        <time>2026-08-29T13:44:21Z</time>
      </trkpt>
      <trkpt lat="47.53541" lon="-2.87373">
        <ele>2.9</ele>
        <time>2026-08-29T13:44:22Z</time>
      </trkpt>
      <trkpt lat="47.5354" lon="-2.87366">
        <ele>2.8</ele>
        <time>2026-08-29T13:44:23Z</time>
      </trkpt>
      <trkpt lat="47.53541" lon="-2.87358">
        <ele>2.9</ele>
        <time>2026-08-29T13:44:24Z</time>
      </trkpt>
      <trkpt lat="47.5354" lon="-2.87352">
        <ele>2.8</ele>
        <time>2026-08-29T13:44:25Z</time>
      </trkpt>
      <trkpt lat="47.5354" lon="-2.87346">
        <ele>2.8</ele>
        <time>2026-08-29T13:44:26Z</time>
      </trkpt>
      <trkpt lat="47.5354" lon="-2.8734">
        <ele>2.8</ele>
        <time>2026-08-29T13:44:27Z</time>
      </trkpt>
      <trkpt lat="47.5354" lon="-2.87335">
        <ele>2.8</ele>
        <time>2026-08-29T13:44:28Z</time>
      </trkpt>
      <trkpt lat="47.5354" lon="-2.8733">
        <ele>2.8</ele>
        <time>2026-08-29T13:44:29Z</time>
      </trkpt>
      <trkpt lat="47.53539" lon="-2.87325">
        <ele>2.8</ele>
        <time>2026-08-29T13:44:30Z</time>
      </trkpt>
      <trkpt lat="47.53538" lon="-2.87321">
        <ele>2.8</ele>
        <time>2026-08-29T13:44:31Z</time>
      </trkpt>
      <trkpt lat="47.53537" lon="-2.87316">
        <ele>2.7</ele>
        <time>2026-08-29T13:44:32Z</time>
      </trkpt>
      <trkpt lat="47.53536" lon="-2.87312">
        <ele>2.7</ele>
        <time>2026-08-29T13:44:33Z</time>
      </trkpt>
      <trkpt lat="47.53535" lon="-2.87307">
        <ele>2.7</ele>
        <time>2026-08-29T13:44:34Z</time>
      </trkpt>
      <trkpt lat="47.53534" lon="-2.87302">
        <ele>2.8</ele>
        <time>2026-08-29T13:44:35Z</time>
      </trkpt>
      <trkpt lat="47.53533" lon="-2.87296">
        <ele>2.8</ele>
        <time>2026-08-29T13:44:36Z</time>
      </trkpt>
      <trkpt lat="47.53532" lon="-2.87291">
        <ele>2.9</ele>
        <time>2026-08-29T13:44:37Z</time>
      </trkpt>
      <trkpt lat="47.53531" lon="-2.87287">
        <ele>2.9</ele>
        <time>2026-08-29T13:44:38Z</time>
      </trkpt>
      <trkpt lat="47.53531" lon="-2.87282">
        <ele>3.1</ele>
        <time>2026-08-29T13:44:39Z</time>
      </trkpt>
      <trkpt lat="47.5353" lon="-2.87277">
        <ele>3.2</ele>
        <time>2026-08-29T13:44:40Z</time>
      </trkpt>
      <trkpt lat="47.53529" lon="-2.87273">
        <ele>3.1</ele>
        <time>2026-08-29T13:44:41Z</time>
      </trkpt>
      <trkpt lat="47.53528" lon="-2.87269">
        <ele>3</ele>
        <time>2026-08-29T13:44:42Z</time>
      </trkpt>
      <trkpt lat="47.53527" lon="-2.87265">
        <ele>2.9</ele>
        <time>2026-08-29T13:44:43Z</time>
      </trkpt>
      <trkpt lat="47.53526" lon="-2.87262">
        <ele>2.9</ele>
        <time>2026-08-29T13:44:44Z</time>
      </trkpt>
      <trkpt lat="47.53525" lon="-2.87255">
        <ele>2.8</ele>
        <time>2026-08-29T13:44:45Z</time>
      </trkpt>
      <trkpt lat="47.53523" lon="-2.87247">
        <ele>2.7</ele>
        <time>2026-08-29T13:44:46Z</time>
      </trkpt>
      <trkpt lat="47.5352" lon="-2.87243">
        <ele>2.5</ele>
        <time>2026-08-29T13:44:47Z</time>
      </trkpt>
      <trkpt lat="47.53517" lon="-2.87238">
        <ele>2.4</ele>
        <time>2026-08-29T13:44:48Z</time>
      </trkpt>
      <trkpt lat="47.53514" lon="-2.87235">
        <ele>2.3</ele>
        <time>2026-08-29T13:44:49Z</time>
      </trkpt>
      <trkpt lat="47.53512" lon="-2.8723">
        <ele>2.3</ele>
        <time>2026-08-29T13:44:50Z</time>
      </trkpt>
      <trkpt lat="47.53511" lon="-2.87224">
        <ele>2.4</ele>
        <time>2026-08-29T13:44:51Z</time>
      </trkpt>
      <trkpt lat="47.53509" lon="-2.87219">
        <ele>2.4</ele>
        <time>2026-08-29T13:44:52Z</time>
      </trkpt>
      <trkpt lat="47.53508" lon="-2.87213">
        <ele>2.5</ele>
        <time>2026-08-29T13:44:53Z</time>
      </trkpt>
      <trkpt lat="47.53506" lon="-2.87208">
        <ele>2.6</ele>
        <time>2026-08-29T13:44:54Z</time>
      </trkpt>
      <trkpt lat="47.53505" lon="-2.87203">
        <ele>2.7</ele>
        <time>2026-08-29T13:44:55Z</time>
      </trkpt>
      <trkpt lat="47.53504" lon="-2.87198">
        <ele>2.9</ele>
        <time>2026-08-29T13:44:56Z</time>
      </trkpt>
      <trkpt lat="47.53502" lon="-2.87192">
        <ele>3</ele>
        <time>2026-08-29T13:44:57Z</time>
      </trkpt>
      <trkpt lat="47.535" lon="-2.87187">
        <ele>3</ele>
        <time>2026-08-29T13:44:58Z</time>
      </trkpt>
      <trkpt lat="47.53499" lon="-2.87182">
        <ele>3</ele>
        <time>2026-08-29T13:44:59Z</time>
      </trkpt>
      <trkpt lat="47.53499" lon="-2.87177">
        <ele>3</ele>
        <time>2026-08-29T13:45:00Z</time>
      </trkpt>
      <trkpt lat="47.53499" lon="-2.87172">
        <ele>3</ele>
        <time>2026-08-29T13:45:01Z</time>
      </trkpt>
      <trkpt lat="47.53499" lon="-2.87168">
        <ele>3</ele>
        <time>2026-08-29T13:45:02Z</time>
      </trkpt>
      <trkpt lat="47.53498" lon="-2.87164">
        <ele>3.1</ele>
        <time>2026-08-29T13:45:03Z</time>
      </trkpt>
      <trkpt lat="47.53499" lon="-2.87159">
        <ele>3.3</ele>
        <time>2026-08-29T13:45:04Z</time>
      </trkpt>
      <trkpt lat="47.53499" lon="-2.87154">
        <ele>3.4</ele>
        <time>2026-08-29T13:45:05Z</time>
      </trkpt>
      <trkpt lat="47.53499" lon="-2.8715">
        <ele>3.6</ele>
        <time>2026-08-29T13:45:06Z</time>
      </trkpt>
      <trkpt lat="47.53498" lon="-2.87145">
        <ele>3.7</ele>
        <time>2026-08-29T13:45:07Z</time>
      </trkpt>
      <trkpt lat="47.53498" lon="-2.8714">
        <ele>3.9</ele>
        <time>2026-08-29T13:45:08Z</time>
      </trkpt>
      <trkpt lat="47.53497" lon="-2.87134">
        <ele>3.9</ele>
        <time>2026-08-29T13:45:09Z</time>
      </trkpt>
      <trkpt lat="47.53496" lon="-2.87129">
        <ele>3.9</ele>
        <time>2026-08-29T13:45:10Z</time>
      </trkpt>
      <trkpt lat="47.53495" lon="-2.87123">
        <ele>3.8</ele>
        <time>2026-08-29T13:45:11Z</time>
      </trkpt>
      <trkpt lat="47.53495" lon="-2.87117">
        <ele>3.8</ele>
        <time>2026-08-29T13:45:12Z</time>
      </trkpt>
      <trkpt lat="47.53495" lon="-2.87111">
        <ele>3.8</ele>
        <time>2026-08-29T13:45:13Z</time>
      </trkpt>
      <trkpt lat="47.53495" lon="-2.87106">
        <ele>3.8</ele>
        <time>2026-08-29T13:45:14Z</time>
      </trkpt>
      <trkpt lat="47.53494" lon="-2.871">
        <ele>3.8</ele>
        <time>2026-08-29T13:45:15Z</time>
      </trkpt>
      <trkpt lat="47.53494" lon="-2.87095">
        <ele>3.8</ele>
        <time>2026-08-29T13:45:16Z</time>
      </trkpt>
      <trkpt lat="47.53494" lon="-2.87088">
        <ele>3.8</ele>
        <time>2026-08-29T13:45:17Z</time>
      </trkpt>
      <trkpt lat="47.53495" lon="-2.87082">
        <ele>3.8</ele>
        <time>2026-08-29T13:45:18Z</time>
      </trkpt>
      <trkpt lat="47.53495" lon="-2.87075">
        <ele>3.8</ele>
        <time>2026-08-29T13:45:19Z</time>
      </trkpt>
      <trkpt lat="47.53494" lon="-2.8707">
        <ele>3.8</ele>
        <time>2026-08-29T13:45:20Z</time>
      </trkpt>
      <trkpt lat="47.53494" lon="-2.87063">
        <ele>3.8</ele>
        <time>2026-08-29T13:45:21Z</time>
      </trkpt>
      <trkpt lat="47.53495" lon="-2.87056">
        <ele>3.8</ele>
        <time>2026-08-29T13:45:22Z</time>
      </trkpt>
      <trkpt lat="47.53495" lon="-2.87049">
        <ele>3.8</ele>
        <time>2026-08-29T13:45:23Z</time>
      </trkpt>
      <trkpt lat="47.53496" lon="-2.87042">
        <ele>3.9</ele>
        <time>2026-08-29T13:45:24Z</time>
      </trkpt>
      <trkpt lat="47.53496" lon="-2.87035">
        <ele>3.9</ele>
        <time>2026-08-29T13:45:25Z</time>
      </trkpt>
      <trkpt lat="47.53497" lon="-2.8703">
        <ele>3.9</ele>
        <time>2026-08-29T13:45:26Z</time>
      </trkpt>
      <trkpt lat="47.53497" lon="-2.87024">
        <ele>3.9</ele>
        <time>2026-08-29T13:45:27Z</time>
      </trkpt>
      <trkpt lat="47.53498" lon="-2.87018">
        <ele>3.9</ele>
        <time>2026-08-29T13:45:28Z</time>
      </trkpt>
      <trkpt lat="47.53498" lon="-2.87012">
        <ele>3.9</ele>
        <time>2026-08-29T13:45:29Z</time>
      </trkpt>
      <trkpt lat="47.53498" lon="-2.87006">
        <ele>3.9</ele>
        <time>2026-08-29T13:45:30Z</time>
      </trkpt>
      <trkpt lat="47.53497" lon="-2.87">
        <ele>3.9</ele>
        <time>2026-08-29T13:45:31Z</time>
      </trkpt>
      <trkpt lat="47.53498" lon="-2.86996">
        <ele>3.8</ele>
        <time>2026-08-29T13:45:32Z</time>
      </trkpt>
      <trkpt lat="47.535" lon="-2.86992">
        <ele>3.7</ele>
        <time>2026-08-29T13:45:33Z</time>
      </trkpt>
      <trkpt lat="47.53502" lon="-2.86987">
        <ele>3.6</ele>
        <time>2026-08-29T13:45:34Z</time>
      </trkpt>
      <trkpt lat="47.53504" lon="-2.86982">
        <ele>3.4</ele>
        <time>2026-08-29T13:45:35Z</time>
      </trkpt>
      <trkpt lat="47.53506" lon="-2.86978">
        <ele>3.4</ele>
        <time>2026-08-29T13:45:36Z</time>
      </trkpt>
      <trkpt lat="47.53508" lon="-2.86972">
        <ele>3.3</ele>
        <time>2026-08-29T13:45:37Z</time>
      </trkpt>
      <trkpt lat="47.53509" lon="-2.86966">
        <ele>3.3</ele>
        <time>2026-08-29T13:45:38Z</time>
      </trkpt>
      <trkpt lat="47.5351" lon="-2.86961">
        <ele>3.4</ele>
        <time>2026-08-29T13:45:39Z</time>
      </trkpt>
      <trkpt lat="47.53512" lon="-2.86956">
        <ele>3.4</ele>
        <time>2026-08-29T13:45:40Z</time>
      </trkpt>
      <trkpt lat="47.53513" lon="-2.8695">
        <ele>3.5</ele>
        <time>2026-08-29T13:45:41Z</time>
      </trkpt>
      <trkpt lat="47.53514" lon="-2.86945">
        <ele>3.5</ele>
        <time>2026-08-29T13:45:42Z</time>
      </trkpt>
      <trkpt lat="47.53515" lon="-2.86939">
        <ele>3.5</ele>
        <time>2026-08-29T13:45:43Z</time>
      </trkpt>
      <trkpt lat="47.53514" lon="-2.86935">
        <ele>3.5</ele>
        <time>2026-08-29T13:45:44Z</time>
      </trkpt>
      <trkpt lat="47.53515" lon="-2.86931">
        <ele>3.5</ele>
        <time>2026-08-29T13:45:45Z</time>
      </trkpt>
      <trkpt lat="47.53515" lon="-2.86926">
        <ele>3.5</ele>
        <time>2026-08-29T13:45:46Z</time>
      </trkpt>
      <trkpt lat="47.53515" lon="-2.86921">
        <ele>3.5</ele>
        <time>2026-08-29T13:45:47Z</time>
      </trkpt>
      <trkpt lat="47.53516" lon="-2.86915">
        <ele>3.6</ele>
        <time>2026-08-29T13:45:48Z</time>
      </trkpt>
      <trkpt lat="47.53517" lon="-2.86908">
        <ele>3.6</ele>
        <time>2026-08-29T13:45:49Z</time>
      </trkpt>
      <trkpt lat="47.53517" lon="-2.86902">
        <ele>3.6</ele>
        <time>2026-08-29T13:45:50Z</time>
      </trkpt>
      <trkpt lat="47.53517" lon="-2.86896">
        <ele>3.6</ele>
        <time>2026-08-29T13:45:51Z</time>
      </trkpt>
      <trkpt lat="47.53517" lon="-2.8689">
        <ele>3.6</ele>
        <time>2026-08-29T13:45:52Z</time>
      </trkpt>
      <trkpt lat="47.53517" lon="-2.86883">
        <ele>3.7</ele>
        <time>2026-08-29T13:45:53Z</time>
      </trkpt>
      <trkpt lat="47.53517" lon="-2.86877">
        <ele>3.7</ele>
        <time>2026-08-29T13:45:54Z</time>
      </trkpt>
      <trkpt lat="47.53517" lon="-2.8687">
        <ele>3.8</ele>
        <time>2026-08-29T13:45:55Z</time>
      </trkpt>
      <trkpt lat="47.53517" lon="-2.86863">
        <ele>3.8</ele>
        <time>2026-08-29T13:45:56Z</time>
      </trkpt>
      <trkpt lat="47.53517" lon="-2.86856">
        <ele>3.7</ele>
        <time>2026-08-29T13:45:57Z</time>
      </trkpt>
      <trkpt lat="47.53516" lon="-2.86849">
        <ele>3.5</ele>
        <time>2026-08-29T13:45:58Z</time>
      </trkpt>
      <trkpt lat="47.53516" lon="-2.86842">
        <ele>3.3</ele>
        <time>2026-08-29T13:45:59Z</time>
      </trkpt>
      <trkpt lat="47.53515" lon="-2.86836">
        <ele>3.1</ele>
        <time>2026-08-29T13:46:00Z</time>
      </trkpt>
      <trkpt lat="47.53515" lon="-2.86828">
        <ele>3.1</ele>
        <time>2026-08-29T13:46:01Z</time>
      </trkpt>
      <trkpt lat="47.53515" lon="-2.86821">
        <ele>3.1</ele>
        <time>2026-08-29T13:46:02Z</time>
      </trkpt>
      <trkpt lat="47.53515" lon="-2.86814">
        <ele>3.1</ele>
        <time>2026-08-29T13:46:03Z</time>
      </trkpt>
      <trkpt lat="47.53514" lon="-2.86807">
        <ele>3</ele>
        <time>2026-08-29T13:46:04Z</time>
      </trkpt>
      <trkpt lat="47.53514" lon="-2.868">
        <ele>3.1</ele>
        <time>2026-08-29T13:46:05Z</time>
      </trkpt>
      <trkpt lat="47.53513" lon="-2.86793">
        <ele>3.2</ele>
        <time>2026-08-29T13:46:06Z</time>
      </trkpt>
      <trkpt lat="47.53512" lon="-2.86786">
        <ele>3.3</ele>
        <time>2026-08-29T13:46:07Z</time>
      </trkpt>
      <trkpt lat="47.53511" lon="-2.86779">
        <ele>3.4</ele>
        <time>2026-08-29T13:46:08Z</time>
      </trkpt>
      <trkpt lat="47.5351" lon="-2.86772">
        <ele>3.2</ele>
        <time>2026-08-29T13:46:09Z</time>
      </trkpt>
      <trkpt lat="47.5351" lon="-2.86764">
        <ele>3</ele>
        <time>2026-08-29T13:46:10Z</time>
      </trkpt>
      <trkpt lat="47.53509" lon="-2.86756">
        <ele>2.8</ele>
        <time>2026-08-29T13:46:11Z</time>
      </trkpt>
      <trkpt lat="47.53509" lon="-2.86749">
        <ele>2.7</ele>
        <time>2026-08-29T13:46:12Z</time>
      </trkpt>
      <trkpt lat="47.53509" lon="-2.86741">
        <ele>2.9</ele>
        <time>2026-08-29T13:46:13Z</time>
      </trkpt>
      <trkpt lat="47.53508" lon="-2.86734">
        <ele>3</ele>
        <time>2026-08-29T13:46:14Z</time>
      </trkpt>
      <trkpt lat="47.53507" lon="-2.86726">
        <ele>3.2</ele>
        <time>2026-08-29T13:46:15Z</time>
      </trkpt>
      <trkpt lat="47.53506" lon="-2.86719">
        <ele>3.2</ele>
        <time>2026-08-29T13:46:16Z</time>
      </trkpt>
      <trkpt lat="47.53505" lon="-2.86711">
        <ele>3.2</ele>
        <time>2026-08-29T13:46:17Z</time>
      </trkpt>
      <trkpt lat="47.53504" lon="-2.86704">
        <ele>3.1</ele>
        <time>2026-08-29T13:46:18Z</time>
      </trkpt>
      <trkpt lat="47.53504" lon="-2.86697">
        <ele>3.1</ele>
        <time>2026-08-29T13:46:19Z</time>
      </trkpt>
      <trkpt lat="47.53504" lon="-2.8669">
        <ele>3.1</ele>
        <time>2026-08-29T13:46:20Z</time>
      </trkpt>
      <trkpt lat="47.53505" lon="-2.86683">
        <ele>3.2</ele>
        <time>2026-08-29T13:46:21Z</time>
      </trkpt>
      <trkpt lat="47.53505" lon="-2.86676">
        <ele>3.2</ele>
        <time>2026-08-29T13:46:22Z</time>
      </trkpt>
      <trkpt lat="47.53506" lon="-2.86669">
        <ele>3.2</ele>
        <time>2026-08-29T13:46:23Z</time>
      </trkpt>
      <trkpt lat="47.53506" lon="-2.86662">
        <ele>3.3</ele>
        <time>2026-08-29T13:46:24Z</time>
      </trkpt>
      <trkpt lat="47.53507" lon="-2.86655">
        <ele>3.4</ele>
        <time>2026-08-29T13:46:25Z</time>
      </trkpt>
      <trkpt lat="47.53507" lon="-2.86648">
        <ele>3.4</ele>
        <time>2026-08-29T13:46:26Z</time>
      </trkpt>
      <trkpt lat="47.53508" lon="-2.86642">
        <ele>3.5</ele>
        <time>2026-08-29T13:46:27Z</time>
      </trkpt>
      <trkpt lat="47.53508" lon="-2.86635">
        <ele>3.5</ele>
        <time>2026-08-29T13:46:28Z</time>
      </trkpt>
      <trkpt lat="47.53508" lon="-2.86628">
        <ele>3.3</ele>
        <time>2026-08-29T13:46:29Z</time>
      </trkpt>
      <trkpt lat="47.53509" lon="-2.86621">
        <ele>3.2</ele>
        <time>2026-08-29T13:46:30Z</time>
      </trkpt>
      <trkpt lat="47.5351" lon="-2.86613">
        <ele>3.1</ele>
        <time>2026-08-29T13:46:31Z</time>
      </trkpt>
      <trkpt lat="47.53511" lon="-2.86606">
        <ele>3.2</ele>
        <time>2026-08-29T13:46:32Z</time>
      </trkpt>
      <trkpt lat="47.53511" lon="-2.86599">
        <ele>3.2</ele>
        <time>2026-08-29T13:46:33Z</time>
      </trkpt>
      <trkpt lat="47.53512" lon="-2.86592">
        <ele>3.3</ele>
        <time>2026-08-29T13:46:34Z</time>
      </trkpt>
      <trkpt lat="47.53512" lon="-2.86585">
        <ele>3.3</ele>
        <time>2026-08-29T13:46:35Z</time>
      </trkpt>
      <trkpt lat="47.53513" lon="-2.86578">
        <ele>3.4</ele>
        <time>2026-08-29T13:46:36Z</time>
      </trkpt>
      <trkpt lat="47.53514" lon="-2.86571">
        <ele>3.5</ele>
        <time>2026-08-29T13:46:37Z</time>
      </trkpt>
      <trkpt lat="47.53515" lon="-2.86564">
        <ele>3.6</ele>
        <time>2026-08-29T13:46:38Z</time>
      </trkpt>
      <trkpt lat="47.53516" lon="-2.86557">
        <ele>3.7</ele>
        <time>2026-08-29T13:46:39Z</time>
      </trkpt>
      <trkpt lat="47.53516" lon="-2.8655">
        <ele>3.6</ele>
        <time>2026-08-29T13:46:40Z</time>
      </trkpt>
      <trkpt lat="47.53517" lon="-2.86542">
        <ele>3.5</ele>
        <time>2026-08-29T13:46:41Z</time>
      </trkpt>
      <trkpt lat="47.53517" lon="-2.86535">
        <ele>3.4</ele>
        <time>2026-08-29T13:46:42Z</time>
      </trkpt>
      <trkpt lat="47.53518" lon="-2.86528">
        <ele>3.3</ele>
        <time>2026-08-29T13:46:43Z</time>
      </trkpt>
      <trkpt lat="47.53518" lon="-2.8652">
        <ele>3.3</ele>
        <time>2026-08-29T13:46:44Z</time>
      </trkpt>
      <trkpt lat="47.53518" lon="-2.86513">
        <ele>3.3</ele>
        <time>2026-08-29T13:46:45Z</time>
      </trkpt>
      <trkpt lat="47.53519" lon="-2.86506">
        <ele>3.4</ele>
        <time>2026-08-29T13:46:46Z</time>
      </trkpt>
      <trkpt lat="47.5352" lon="-2.865">
        <ele>3.4</ele>
        <time>2026-08-29T13:46:47Z</time>
      </trkpt>
      <trkpt lat="47.53522" lon="-2.86493">
        <ele>3.4</ele>
        <time>2026-08-29T13:46:48Z</time>
      </trkpt>
      <trkpt lat="47.53524" lon="-2.86487">
        <ele>3.3</ele>
        <time>2026-08-29T13:46:49Z</time>
      </trkpt>
      <trkpt lat="47.53526" lon="-2.8648">
        <ele>3.2</ele>
        <time>2026-08-29T13:46:50Z</time>
      </trkpt>
      <trkpt lat="47.53528" lon="-2.86474">
        <ele>3.1</ele>
        <time>2026-08-29T13:46:51Z</time>
      </trkpt>
      <trkpt lat="47.53531" lon="-2.86468">
        <ele>3.3</ele>
        <time>2026-08-29T13:46:52Z</time>
      </trkpt>
      <trkpt lat="47.53534" lon="-2.86462">
        <ele>3.6</ele>
        <time>2026-08-29T13:46:53Z</time>
      </trkpt>
      <trkpt lat="47.53536" lon="-2.86456">
        <ele>3.7</ele>
        <time>2026-08-29T13:46:54Z</time>
      </trkpt>
      <trkpt lat="47.53539" lon="-2.86451">
        <ele>3.9</ele>
        <time>2026-08-29T13:46:55Z</time>
      </trkpt>
      <trkpt lat="47.53541" lon="-2.86445">
        <ele>4</ele>
        <time>2026-08-29T13:46:56Z</time>
      </trkpt>
      <trkpt lat="47.53544" lon="-2.86439">
        <ele>4</ele>
        <time>2026-08-29T13:46:57Z</time>
      </trkpt>
      <trkpt lat="47.53545" lon="-2.86433">
        <ele>3.8</ele>
        <time>2026-08-29T13:46:58Z</time>
      </trkpt>
      <trkpt lat="47.53546" lon="-2.86426">
        <ele>3.6</ele>
        <time>2026-08-29T13:46:59Z</time>
      </trkpt>
      <trkpt lat="47.53546" lon="-2.86419">
        <ele>3.4</ele>
        <time>2026-08-29T13:47:00Z</time>
      </trkpt>
      <trkpt lat="47.53545" lon="-2.86412">
        <ele>3.3</ele>
        <time>2026-08-29T13:47:01Z</time>
      </trkpt>
      <trkpt lat="47.53544" lon="-2.86406">
        <ele>3.3</ele>
        <time>2026-08-29T13:47:02Z</time>
      </trkpt>
      <trkpt lat="47.53542" lon="-2.864">
        <ele>3.3</ele>
        <time>2026-08-29T13:47:03Z</time>
      </trkpt>
      <trkpt lat="47.5354" lon="-2.86393">
        <ele>3.4</ele>
        <time>2026-08-29T13:47:04Z</time>
      </trkpt>
      <trkpt lat="47.53539" lon="-2.86387">
        <ele>3.4</ele>
        <time>2026-08-29T13:47:05Z</time>
      </trkpt>
      <trkpt lat="47.53538" lon="-2.8638">
        <ele>3.4</ele>
        <time>2026-08-29T13:47:06Z</time>
      </trkpt>
      <trkpt lat="47.53536" lon="-2.86374">
        <ele>3.3</ele>
        <time>2026-08-29T13:47:07Z</time>
      </trkpt>
      <trkpt lat="47.53535" lon="-2.86368">
        <ele>3.3</ele>
        <time>2026-08-29T13:47:08Z</time>
      </trkpt>
      <trkpt lat="47.53534" lon="-2.86362">
        <ele>3.2</ele>
        <time>2026-08-29T13:47:09Z</time>
      </trkpt>
      <trkpt lat="47.53531" lon="-2.86357">
        <ele>3.1</ele>
        <time>2026-08-29T13:47:10Z</time>
      </trkpt>
      <trkpt lat="47.53529" lon="-2.86353">
        <ele>3</ele>
        <time>2026-08-29T13:47:11Z</time>
      </trkpt>
      <trkpt lat="47.53525" lon="-2.86349">
        <ele>3</ele>
        <time>2026-08-29T13:47:12Z</time>
      </trkpt>
      <trkpt lat="47.53521" lon="-2.86346">
        <ele>3</ele>
        <time>2026-08-29T13:47:13Z</time>
      </trkpt>
      <trkpt lat="47.53517" lon="-2.86343">
        <ele>3</ele>
        <time>2026-08-29T13:47:14Z</time>
      </trkpt>
      <trkpt lat="47.53514" lon="-2.86339">
        <ele>3</ele>
        <time>2026-08-29T13:47:15Z</time>
      </trkpt>
      <trkpt lat="47.5351" lon="-2.86336">
        <ele>3</ele>
        <time>2026-08-29T13:47:16Z</time>
      </trkpt>
      <trkpt lat="47.53506" lon="-2.86333">
        <ele>3</ele>
        <time>2026-08-29T13:47:17Z</time>
      </trkpt>
      <trkpt lat="47.53502" lon="-2.86329">
        <ele>3.2</ele>
        <time>2026-08-29T13:47:18Z</time>
      </trkpt>
      <trkpt lat="47.53498" lon="-2.86325">
        <ele>3.3</ele>
        <time>2026-08-29T13:47:19Z</time>
      </trkpt>
      <trkpt lat="47.53494" lon="-2.86321">
        <ele>3.3</ele>
        <time>2026-08-29T13:47:20Z</time>
      </trkpt>
      <trkpt lat="47.53491" lon="-2.86317">
        <ele>3.4</ele>
        <time>2026-08-29T13:47:21Z</time>
      </trkpt>
      <trkpt lat="47.53487" lon="-2.86312">
        <ele>3.4</ele>
        <time>2026-08-29T13:47:22Z</time>
      </trkpt>
      <trkpt lat="47.53484" lon="-2.86308">
        <ele>3.4</ele>
        <time>2026-08-29T13:47:23Z</time>
      </trkpt>
      <trkpt lat="47.5348" lon="-2.86303">
        <ele>3.3</ele>
        <time>2026-08-29T13:47:24Z</time>
      </trkpt>
      <trkpt lat="47.53477" lon="-2.86298">
        <ele>3.4</ele>
        <time>2026-08-29T13:47:25Z</time>
      </trkpt>
      <trkpt lat="47.53473" lon="-2.86294">
        <ele>3.4</ele>
        <time>2026-08-29T13:47:26Z</time>
      </trkpt>
      <trkpt lat="47.5347" lon="-2.8629">
        <ele>3.5</ele>
        <time>2026-08-29T13:47:27Z</time>
      </trkpt>
      <trkpt lat="47.53467" lon="-2.86286">
        <ele>3.5</ele>
        <time>2026-08-29T13:47:28Z</time>
      </trkpt>
      <trkpt lat="47.53463" lon="-2.86282">
        <ele>3.5</ele>
        <time>2026-08-29T13:47:29Z</time>
      </trkpt>
      <trkpt lat="47.53459" lon="-2.86278">
        <ele>3.5</ele>
        <time>2026-08-29T13:47:30Z</time>
      </trkpt>
      <trkpt lat="47.53456" lon="-2.86275">
        <ele>3.6</ele>
        <time>2026-08-29T13:47:31Z</time>
      </trkpt>
      <trkpt lat="47.53453" lon="-2.86271">
        <ele>3.8</ele>
        <time>2026-08-29T13:47:32Z</time>
      </trkpt>
      <trkpt lat="47.53449" lon="-2.86267">
        <ele>3.9</ele>
        <time>2026-08-29T13:47:33Z</time>
      </trkpt>
      <trkpt lat="47.53446" lon="-2.86263">
        <ele>4.1</ele>
        <time>2026-08-29T13:47:34Z</time>
      </trkpt>
      <trkpt lat="47.53443" lon="-2.86259">
        <ele>4.3</ele>
        <time>2026-08-29T13:47:35Z</time>
      </trkpt>
      <trkpt lat="47.53439" lon="-2.86255">
        <ele>4.3</ele>
        <time>2026-08-29T13:47:36Z</time>
      </trkpt>
      <trkpt lat="47.53435" lon="-2.86252">
        <ele>4.2</ele>
        <time>2026-08-29T13:47:37Z</time>
      </trkpt>
      <trkpt lat="47.53431" lon="-2.86249">
        <ele>4.1</ele>
        <time>2026-08-29T13:47:38Z</time>
      </trkpt>
      <trkpt lat="47.53427" lon="-2.86247">
        <ele>4</ele>
        <time>2026-08-29T13:47:39Z</time>
      </trkpt>
      <trkpt lat="47.53424" lon="-2.86244">
        <ele>4.1</ele>
        <time>2026-08-29T13:47:40Z</time>
      </trkpt>
      <trkpt lat="47.5342" lon="-2.86241">
        <ele>4.1</ele>
        <time>2026-08-29T13:47:41Z</time>
      </trkpt>
      <trkpt lat="47.53416" lon="-2.86238">
        <ele>4.3</ele>
        <time>2026-08-29T13:47:42Z</time>
      </trkpt>
      <trkpt lat="47.53412" lon="-2.86235">
        <ele>4.3</ele>
        <time>2026-08-29T13:47:43Z</time>
      </trkpt>
      <trkpt lat="47.53407" lon="-2.86231">
        <ele>4.2</ele>
        <time>2026-08-29T13:47:44Z</time>
      </trkpt>
      <trkpt lat="47.53403" lon="-2.86228">
        <ele>4.1</ele>
        <time>2026-08-29T13:47:45Z</time>
      </trkpt>
      <trkpt lat="47.53399" lon="-2.86225">
        <ele>3.9</ele>
        <time>2026-08-29T13:47:46Z</time>
      </trkpt>
      <trkpt lat="47.53394" lon="-2.86222">
        <ele>3.6</ele>
        <time>2026-08-29T13:47:47Z</time>
      </trkpt>
      <trkpt lat="47.5339" lon="-2.86218">
        <ele>3.6</ele>
        <time>2026-08-29T13:47:48Z</time>
      </trkpt>
      <trkpt lat="47.53386" lon="-2.86215">
        <ele>3.6</ele>
        <time>2026-08-29T13:47:49Z</time>
      </trkpt>
      <trkpt lat="47.53382" lon="-2.86212">
        <ele>3.8</ele>
        <time>2026-08-29T13:47:50Z</time>
      </trkpt>
      <trkpt lat="47.53377" lon="-2.8621">
        <ele>3.7</ele>
        <time>2026-08-29T13:47:51Z</time>
      </trkpt>
      <trkpt lat="47.53373" lon="-2.86207">
        <ele>3.8</ele>
        <time>2026-08-29T13:47:52Z</time>
      </trkpt>
      <trkpt lat="47.53369" lon="-2.86205">
        <ele>3.7</ele>
        <time>2026-08-29T13:47:53Z</time>
      </trkpt>
      <trkpt lat="47.53364" lon="-2.86202">
        <ele>3.6</ele>
        <time>2026-08-29T13:47:54Z</time>
      </trkpt>
      <trkpt lat="47.5336" lon="-2.862">
        <ele>3.5</ele>
        <time>2026-08-29T13:47:55Z</time>
      </trkpt>
      <trkpt lat="47.53356" lon="-2.86197">
        <ele>3.5</ele>
        <time>2026-08-29T13:47:56Z</time>
      </trkpt>
      <trkpt lat="47.53352" lon="-2.86195">
        <ele>3.3</ele>
        <time>2026-08-29T13:47:57Z</time>
      </trkpt>
      <trkpt lat="47.53347" lon="-2.86193">
        <ele>3.1</ele>
        <time>2026-08-29T13:47:58Z</time>
      </trkpt>
      <trkpt lat="47.53343" lon="-2.86191">
        <ele>2.9</ele>
        <time>2026-08-29T13:47:59Z</time>
      </trkpt>
      <trkpt lat="47.53339" lon="-2.86188">
        <ele>2.8</ele>
        <time>2026-08-29T13:48:00Z</time>
      </trkpt>
      <trkpt lat="47.53335" lon="-2.86185">
        <ele>2.8</ele>
        <time>2026-08-29T13:48:01Z</time>
      </trkpt>
      <trkpt lat="47.53331" lon="-2.86181">
        <ele>2.9</ele>
        <time>2026-08-29T13:48:02Z</time>
      </trkpt>
      <trkpt lat="47.53327" lon="-2.86178">
        <ele>3</ele>
        <time>2026-08-29T13:48:03Z</time>
      </trkpt>
      <trkpt lat="47.53323" lon="-2.86175">
        <ele>3.1</ele>
        <time>2026-08-29T13:48:04Z</time>
      </trkpt>
      <trkpt lat="47.53319" lon="-2.86172">
        <ele>3.2</ele>
        <time>2026-08-29T13:48:05Z</time>
      </trkpt>
      <trkpt lat="47.53315" lon="-2.8617">
        <ele>3.2</ele>
        <time>2026-08-29T13:48:06Z</time>
      </trkpt>
      <trkpt lat="47.53311" lon="-2.86168">
        <ele>3.1</ele>
        <time>2026-08-29T13:48:07Z</time>
      </trkpt>
      <trkpt lat="47.53307" lon="-2.86167">
        <ele>3</ele>
        <time>2026-08-29T13:48:08Z</time>
      </trkpt>
      <trkpt lat="47.53302" lon="-2.86165">
        <ele>3.1</ele>
        <time>2026-08-29T13:48:09Z</time>
      </trkpt>
      <trkpt lat="47.53297" lon="-2.86164">
        <ele>3.1</ele>
        <time>2026-08-29T13:48:10Z</time>
      </trkpt>
      <trkpt lat="47.53293" lon="-2.86161">
        <ele>3.2</ele>
        <time>2026-08-29T13:48:11Z</time>
      </trkpt>
      <trkpt lat="47.53289" lon="-2.86159">
        <ele>3.3</ele>
        <time>2026-08-29T13:48:12Z</time>
      </trkpt>
      <trkpt lat="47.53284" lon="-2.86156">
        <ele>3.4</ele>
        <time>2026-08-29T13:48:13Z</time>
      </trkpt>
      <trkpt lat="47.5328" lon="-2.86154">
        <ele>3.5</ele>
        <time>2026-08-29T13:48:14Z</time>
      </trkpt>
      <trkpt lat="47.53276" lon="-2.86151">
        <ele>3.5</ele>
        <time>2026-08-29T13:48:15Z</time>
      </trkpt>
      <trkpt lat="47.53272" lon="-2.86149">
        <ele>3.6</ele>
        <time>2026-08-29T13:48:16Z</time>
      </trkpt>
      <trkpt lat="47.53268" lon="-2.86147">
        <ele>3.6</ele>
        <time>2026-08-29T13:48:17Z</time>
      </trkpt>
      <trkpt lat="47.53263" lon="-2.86146">
        <ele>3.6</ele>
        <time>2026-08-29T13:48:18Z</time>
      </trkpt>
      <trkpt lat="47.53259" lon="-2.86146">
        <ele>3.6</ele>
        <time>2026-08-29T13:48:19Z</time>
      </trkpt>
      <trkpt lat="47.53255" lon="-2.86146">
        <ele>3.5</ele>
        <time>2026-08-29T13:48:20Z</time>
      </trkpt>
      <trkpt lat="47.53251" lon="-2.86146">
        <ele>3.5</ele>
        <time>2026-08-29T13:48:21Z</time>
      </trkpt>
      <trkpt lat="47.53247" lon="-2.86146">
        <ele>3.5</ele>
        <time>2026-08-29T13:48:22Z</time>
      </trkpt>
      <trkpt lat="47.53243" lon="-2.86147">
        <ele>3.5</ele>
        <time>2026-08-29T13:48:23Z</time>
      </trkpt>
      <trkpt lat="47.53238" lon="-2.86147">
        <ele>3.5</ele>
        <time>2026-08-29T13:48:24Z</time>
      </trkpt>
      <trkpt lat="47.53234" lon="-2.86147">
        <ele>3.6</ele>
        <time>2026-08-29T13:48:25Z</time>
      </trkpt>
      <trkpt lat="47.53229" lon="-2.86146">
        <ele>3.7</ele>
        <time>2026-08-29T13:48:26Z</time>
      </trkpt>
      <trkpt lat="47.53225" lon="-2.86145">
        <ele>3.8</ele>
        <time>2026-08-29T13:48:27Z</time>
      </trkpt>
      <trkpt lat="47.53221" lon="-2.86144">
        <ele>3.8</ele>
        <time>2026-08-29T13:48:28Z</time>
      </trkpt>
      <trkpt lat="47.53216" lon="-2.86142">
        <ele>3.7</ele>
        <time>2026-08-29T13:48:29Z</time>
      </trkpt>
      <trkpt lat="47.53212" lon="-2.86141">
        <ele>3.6</ele>
        <time>2026-08-29T13:48:30Z</time>
      </trkpt>
      <trkpt lat="47.53208" lon="-2.86139">
        <ele>3.5</ele>
        <time>2026-08-29T13:48:31Z</time>
      </trkpt>
      <trkpt lat="47.53203" lon="-2.86137">
        <ele>3.4</ele>
        <time>2026-08-29T13:48:32Z</time>
      </trkpt>
      <trkpt lat="47.53199" lon="-2.86136">
        <ele>3.3</ele>
        <time>2026-08-29T13:48:33Z</time>
      </trkpt>
      <trkpt lat="47.53195" lon="-2.86134">
        <ele>3.2</ele>
        <time>2026-08-29T13:48:34Z</time>
      </trkpt>
      <trkpt lat="47.53191" lon="-2.86133">
        <ele>3.2</ele>
        <time>2026-08-29T13:48:35Z</time>
      </trkpt>
      <trkpt lat="47.53187" lon="-2.86131">
        <ele>3.3</ele>
        <time>2026-08-29T13:48:36Z</time>
      </trkpt>
      <trkpt lat="47.53182" lon="-2.8613">
        <ele>3.3</ele>
        <time>2026-08-29T13:48:37Z</time>
      </trkpt>
      <trkpt lat="47.53178" lon="-2.86128">
        <ele>3.4</ele>
        <time>2026-08-29T13:48:38Z</time>
      </trkpt>
      <trkpt lat="47.53174" lon="-2.86126">
        <ele>3.5</ele>
        <time>2026-08-29T13:48:39Z</time>
      </trkpt>
      <trkpt lat="47.5317" lon="-2.86124">
        <ele>3.5</ele>
        <time>2026-08-29T13:48:40Z</time>
      </trkpt>
      <trkpt lat="47.53166" lon="-2.86122">
        <ele>3.6</ele>
        <time>2026-08-29T13:48:41Z</time>
      </trkpt>
      <trkpt lat="47.53162" lon="-2.8612">
        <ele>3.5</ele>
        <time>2026-08-29T13:48:42Z</time>
      </trkpt>
      <trkpt lat="47.53158" lon="-2.86118">
        <ele>3.4</ele>
        <time>2026-08-29T13:48:43Z</time>
      </trkpt>
      <trkpt lat="47.53154" lon="-2.86115">
        <ele>3.4</ele>
        <time>2026-08-29T13:48:44Z</time>
      </trkpt>
      <trkpt lat="47.5315" lon="-2.86111">
        <ele>3.4</ele>
        <time>2026-08-29T13:48:45Z</time>
      </trkpt>
      <trkpt lat="47.53146" lon="-2.86108">
        <ele>3.4</ele>
        <time>2026-08-29T13:48:46Z</time>
      </trkpt>
      <trkpt lat="47.53142" lon="-2.86104">
        <ele>3.4</ele>
        <time>2026-08-29T13:48:47Z</time>
      </trkpt>
      <trkpt lat="47.53138" lon="-2.861">
        <ele>3.4</ele>
        <time>2026-08-29T13:48:48Z</time>
      </trkpt>
      <trkpt lat="47.53134" lon="-2.86095">
        <ele>3.3</ele>
        <time>2026-08-29T13:48:49Z</time>
      </trkpt>
      <trkpt lat="47.53131" lon="-2.8609">
        <ele>3.3</ele>
        <time>2026-08-29T13:48:50Z</time>
      </trkpt>
      <trkpt lat="47.53127" lon="-2.86086">
        <ele>3.1</ele>
        <time>2026-08-29T13:48:51Z</time>
      </trkpt>
      <trkpt lat="47.53123" lon="-2.86081">
        <ele>2.9</ele>
        <time>2026-08-29T13:48:52Z</time>
      </trkpt>
      <trkpt lat="47.5312" lon="-2.86076">
        <ele>2.9</ele>
        <time>2026-08-29T13:48:53Z</time>
      </trkpt>
      <trkpt lat="47.53116" lon="-2.86071">
        <ele>2.8</ele>
        <time>2026-08-29T13:48:54Z</time>
      </trkpt>
      <trkpt lat="47.53113" lon="-2.86065">
        <ele>2.8</ele>
        <time>2026-08-29T13:48:55Z</time>
      </trkpt>
      <trkpt lat="47.5311" lon="-2.86059">
        <ele>2.8</ele>
        <time>2026-08-29T13:48:56Z</time>
      </trkpt>
      <trkpt lat="47.53107" lon="-2.86053">
        <ele>2.9</ele>
        <time>2026-08-29T13:48:57Z</time>
      </trkpt>
      <trkpt lat="47.53105" lon="-2.86047">
        <ele>3</ele>
        <time>2026-08-29T13:48:58Z</time>
      </trkpt>
      <trkpt lat="47.53102" lon="-2.86042">
        <ele>2.8</ele>
        <time>2026-08-29T13:48:59Z</time>
      </trkpt>
      <trkpt lat="47.53098" lon="-2.86036">
        <ele>2.6</ele>
        <time>2026-08-29T13:49:00Z</time>
      </trkpt>
      <trkpt lat="47.53095" lon="-2.8603">
        <ele>2.3</ele>
        <time>2026-08-29T13:49:01Z</time>
      </trkpt>
      <trkpt lat="47.53092" lon="-2.86024">
        <ele>2.1</ele>
        <time>2026-08-29T13:49:02Z</time>
      </trkpt>
      <trkpt lat="47.53089" lon="-2.86019">
        <ele>1.9</ele>
        <time>2026-08-29T13:49:03Z</time>
      </trkpt>
      <trkpt lat="47.53086" lon="-2.86012">
        <ele>1.9</ele>
        <time>2026-08-29T13:49:04Z</time>
      </trkpt>
      <trkpt lat="47.53084" lon="-2.86005">
        <ele>1.9</ele>
        <time>2026-08-29T13:49:05Z</time>
      </trkpt>
      <trkpt lat="47.53083" lon="-2.85998">
        <ele>2</ele>
        <time>2026-08-29T13:49:06Z</time>
      </trkpt>
      <trkpt lat="47.53083" lon="-2.85991">
        <ele>2</ele>
        <time>2026-08-29T13:49:07Z</time>
      </trkpt>
      <trkpt lat="47.53083" lon="-2.85983">
        <ele>2</ele>
        <time>2026-08-29T13:49:08Z</time>
      </trkpt>
      <trkpt lat="47.53084" lon="-2.85975">
        <ele>2.1</ele>
        <time>2026-08-29T13:49:09Z</time>
      </trkpt>
      <trkpt lat="47.53085" lon="-2.85968">
        <ele>2.2</ele>
        <time>2026-08-29T13:49:10Z</time>
      </trkpt>
      <trkpt lat="47.53085" lon="-2.85961">
        <ele>2.2</ele>
        <time>2026-08-29T13:49:11Z</time>
      </trkpt>
      <trkpt lat="47.53086" lon="-2.85954">
        <ele>2.3</ele>
        <time>2026-08-29T13:49:12Z</time>
      </trkpt>
      <trkpt lat="47.53087" lon="-2.85946">
        <ele>2.4</ele>
        <time>2026-08-29T13:49:13Z</time>
      </trkpt>
      <trkpt lat="47.53088" lon="-2.85939">
        <ele>2.5</ele>
        <time>2026-08-29T13:49:14Z</time>
      </trkpt>
      <trkpt lat="47.5309" lon="-2.85932">
        <ele>2.6</ele>
        <time>2026-08-29T13:49:15Z</time>
      </trkpt>
      <trkpt lat="47.53091" lon="-2.85925">
        <ele>2.6</ele>
        <time>2026-08-29T13:49:16Z</time>
      </trkpt>
      <trkpt lat="47.53092" lon="-2.85918">
        <ele>2.6</ele>
        <time>2026-08-29T13:49:17Z</time>
      </trkpt>
      <trkpt lat="47.53093" lon="-2.85911">
        <ele>2.7</ele>
        <time>2026-08-29T13:49:18Z</time>
      </trkpt>
      <trkpt lat="47.53093" lon="-2.85905">
        <ele>2.7</ele>
        <time>2026-08-29T13:49:19Z</time>
      </trkpt>
      <trkpt lat="47.53093" lon="-2.85898">
        <ele>2.7</ele>
        <time>2026-08-29T13:49:20Z</time>
      </trkpt>
      <trkpt lat="47.53092" lon="-2.85891">
        <ele>2.6</ele>
        <time>2026-08-29T13:49:21Z</time>
      </trkpt>
      <trkpt lat="47.53093" lon="-2.85884">
        <ele>2.5</ele>
        <time>2026-08-29T13:49:22Z</time>
      </trkpt>
      <trkpt lat="47.53094" lon="-2.85877">
        <ele>2.3</ele>
        <time>2026-08-29T13:49:23Z</time>
      </trkpt>
      <trkpt lat="47.53095" lon="-2.8587">
        <ele>2.2</ele>
        <time>2026-08-29T13:49:24Z</time>
      </trkpt>
      <trkpt lat="47.53097" lon="-2.85864">
        <ele>2.1</ele>
        <time>2026-08-29T13:49:25Z</time>
      </trkpt>
      <trkpt lat="47.531" lon="-2.85858">
        <ele>2.2</ele>
        <time>2026-08-29T13:49:26Z</time>
      </trkpt>
      <trkpt lat="47.53103" lon="-2.85852">
        <ele>2.4</ele>
        <time>2026-08-29T13:49:27Z</time>
      </trkpt>
      <trkpt lat="47.53106" lon="-2.85847">
        <ele>2.6</ele>
        <time>2026-08-29T13:49:28Z</time>
      </trkpt>
      <trkpt lat="47.53109" lon="-2.85842">
        <ele>2.8</ele>
        <time>2026-08-29T13:49:29Z</time>
      </trkpt>
      <trkpt lat="47.53112" lon="-2.85836">
        <ele>3</ele>
        <time>2026-08-29T13:49:30Z</time>
      </trkpt>
      <trkpt lat="47.53114" lon="-2.85831">
        <ele>3</ele>
        <time>2026-08-29T13:49:31Z</time>
      </trkpt>
      <trkpt lat="47.53116" lon="-2.85824">
        <ele>2.8</ele>
        <time>2026-08-29T13:49:32Z</time>
      </trkpt>
      <trkpt lat="47.53118" lon="-2.85818">
        <ele>2.7</ele>
        <time>2026-08-29T13:49:33Z</time>
      </trkpt>
      <trkpt lat="47.53121" lon="-2.85812">
        <ele>2.6</ele>
        <time>2026-08-29T13:49:34Z</time>
      </trkpt>
      <trkpt lat="47.53124" lon="-2.85805">
        <ele>2.5</ele>
        <time>2026-08-29T13:49:35Z</time>
      </trkpt>
      <trkpt lat="47.53127" lon="-2.85799">
        <ele>2.6</ele>
        <time>2026-08-29T13:49:36Z</time>
      </trkpt>
      <trkpt lat="47.5313" lon="-2.85793">
        <ele>2.7</ele>
        <time>2026-08-29T13:49:37Z</time>
      </trkpt>
      <trkpt lat="47.53133" lon="-2.85787">
        <ele>2.8</ele>
        <time>2026-08-29T13:49:38Z</time>
      </trkpt>
      <trkpt lat="47.53136" lon="-2.85782">
        <ele>2.9</ele>
        <time>2026-08-29T13:49:39Z</time>
      </trkpt>
      <trkpt lat="47.5314" lon="-2.85777">
        <ele>3</ele>
        <time>2026-08-29T13:49:40Z</time>
      </trkpt>
      <trkpt lat="47.53144" lon="-2.85773">
        <ele>2.8</ele>
        <time>2026-08-29T13:49:41Z</time>
      </trkpt>
      <trkpt lat="47.53148" lon="-2.8577">
        <ele>2.7</ele>
        <time>2026-08-29T13:49:42Z</time>
      </trkpt>
      <trkpt lat="47.53153" lon="-2.85766">
        <ele>2.6</ele>
        <time>2026-08-29T13:49:43Z</time>
      </trkpt>
      <trkpt lat="47.53157" lon="-2.85762">
        <ele>2.4</ele>
        <time>2026-08-29T13:49:44Z</time>
      </trkpt>
      <trkpt lat="47.53162" lon="-2.85758">
        <ele>2.3</ele>
        <time>2026-08-29T13:49:45Z</time>
      </trkpt>
      <trkpt lat="47.53166" lon="-2.85755">
        <ele>2.2</ele>
        <time>2026-08-29T13:49:46Z</time>
      </trkpt>
      <trkpt lat="47.53171" lon="-2.85752">
        <ele>2.2</ele>
        <time>2026-08-29T13:49:47Z</time>
      </trkpt>
      <trkpt lat="47.53176" lon="-2.8575">
        <ele>2.3</ele>
        <time>2026-08-29T13:49:48Z</time>
      </trkpt>
      <trkpt lat="47.5318" lon="-2.85747">
        <ele>2.4</ele>
        <time>2026-08-29T13:49:49Z</time>
      </trkpt>
      <trkpt lat="47.53185" lon="-2.85745">
        <ele>2.5</ele>
        <time>2026-08-29T13:49:50Z</time>
      </trkpt>
      <trkpt lat="47.53189" lon="-2.85742">
        <ele>2.6</ele>
        <time>2026-08-29T13:49:51Z</time>
      </trkpt>
      <trkpt lat="47.53194" lon="-2.85739">
        <ele>2.6</ele>
        <time>2026-08-29T13:49:52Z</time>
      </trkpt>
      <trkpt lat="47.53199" lon="-2.85736">
        <ele>2.7</ele>
        <time>2026-08-29T13:49:53Z</time>
      </trkpt>
      <trkpt lat="47.53203" lon="-2.85733">
        <ele>2.7</ele>
        <time>2026-08-29T13:49:54Z</time>
      </trkpt>
      <trkpt lat="47.53208" lon="-2.8573">
        <ele>2.8</ele>
        <time>2026-08-29T13:49:55Z</time>
      </trkpt>
      <trkpt lat="47.53212" lon="-2.85726">
        <ele>2.8</ele>
        <time>2026-08-29T13:49:56Z</time>
      </trkpt>
      <trkpt lat="47.53216" lon="-2.85721">
        <ele>2.8</ele>
        <time>2026-08-29T13:49:57Z</time>
      </trkpt>
      <trkpt lat="47.5322" lon="-2.85716">
        <ele>2.9</ele>
        <time>2026-08-29T13:49:58Z</time>
      </trkpt>
      <trkpt lat="47.53223" lon="-2.85711">
        <ele>3</ele>
        <time>2026-08-29T13:49:59Z</time>
      </trkpt>
      <trkpt lat="47.53226" lon="-2.85706">
        <ele>3.1</ele>
        <time>2026-08-29T13:50:00Z</time>
      </trkpt>
      <trkpt lat="47.53229" lon="-2.857">
        <ele>3.2</ele>
        <time>2026-08-29T13:50:01Z</time>
      </trkpt>
      <trkpt lat="47.53232" lon="-2.85695">
        <ele>3.4</ele>
        <time>2026-08-29T13:50:02Z</time>
      </trkpt>
      <trkpt lat="47.53234" lon="-2.85689">
        <ele>3.3</ele>
        <time>2026-08-29T13:50:03Z</time>
      </trkpt>
      <trkpt lat="47.53236" lon="-2.85682">
        <ele>3.3</ele>
        <time>2026-08-29T13:50:04Z</time>
      </trkpt>
      <trkpt lat="47.53238" lon="-2.85676">
        <ele>3.2</ele>
        <time>2026-08-29T13:50:05Z</time>
      </trkpt>
      <trkpt lat="47.5324" lon="-2.85669">
        <ele>3.1</ele>
        <time>2026-08-29T13:50:06Z</time>
      </trkpt>
      <trkpt lat="47.53242" lon="-2.85662">
        <ele>3</ele>
        <time>2026-08-29T13:50:07Z</time>
      </trkpt>
      <trkpt lat="47.53244" lon="-2.85656">
        <ele>3</ele>
        <time>2026-08-29T13:50:08Z</time>
      </trkpt>
      <trkpt lat="47.53247" lon="-2.85649">
        <ele>3</ele>
        <time>2026-08-29T13:50:09Z</time>
      </trkpt>
      <trkpt lat="47.5325" lon="-2.85643">
        <ele>3</ele>
        <time>2026-08-29T13:50:10Z</time>
      </trkpt>
      <trkpt lat="47.53253" lon="-2.85637">
        <ele>3.1</ele>
        <time>2026-08-29T13:50:11Z</time>
      </trkpt>
      <trkpt lat="47.53256" lon="-2.85631">
        <ele>3.2</ele>
        <time>2026-08-29T13:50:12Z</time>
      </trkpt>
      <trkpt lat="47.53259" lon="-2.85625">
        <ele>3.2</ele>
        <time>2026-08-29T13:50:13Z</time>
      </trkpt>
      <trkpt lat="47.53262" lon="-2.8562">
        <ele>3.1</ele>
        <time>2026-08-29T13:50:14Z</time>
      </trkpt>
      <trkpt lat="47.53265" lon="-2.85614">
        <ele>3.1</ele>
        <time>2026-08-29T13:50:15Z</time>
      </trkpt>
      <trkpt lat="47.53268" lon="-2.85607">
        <ele>3</ele>
        <time>2026-08-29T13:50:16Z</time>
      </trkpt>
      <trkpt lat="47.5327" lon="-2.85601">
        <ele>3</ele>
        <time>2026-08-29T13:50:17Z</time>
      </trkpt>
      <trkpt lat="47.53272" lon="-2.85594">
        <ele>3</ele>
        <time>2026-08-29T13:50:18Z</time>
      </trkpt>
      <trkpt lat="47.53274" lon="-2.85588">
        <ele>3</ele>
        <time>2026-08-29T13:50:19Z</time>
      </trkpt>
      <trkpt lat="47.53276" lon="-2.85582">
        <ele>3</ele>
        <time>2026-08-29T13:50:20Z</time>
      </trkpt>
      <trkpt lat="47.53278" lon="-2.85575">
        <ele>3</ele>
        <time>2026-08-29T13:50:21Z</time>
      </trkpt>
      <trkpt lat="47.53279" lon="-2.85569">
        <ele>3</ele>
        <time>2026-08-29T13:50:22Z</time>
      </trkpt>
      <trkpt lat="47.53281" lon="-2.85562">
        <ele>3</ele>
        <time>2026-08-29T13:50:23Z</time>
      </trkpt>
      <trkpt lat="47.53283" lon="-2.85556">
        <ele>3</ele>
        <time>2026-08-29T13:50:24Z</time>
      </trkpt>
      <trkpt lat="47.53285" lon="-2.85549">
        <ele>2.8</ele>
        <time>2026-08-29T13:50:25Z</time>
      </trkpt>
      <trkpt lat="47.53287" lon="-2.85543">
        <ele>2.7</ele>
        <time>2026-08-29T13:50:26Z</time>
      </trkpt>
      <trkpt lat="47.5329" lon="-2.85537">
        <ele>2.6</ele>
        <time>2026-08-29T13:50:27Z</time>
      </trkpt>
      <trkpt lat="47.53293" lon="-2.85531">
        <ele>2.6</ele>
        <time>2026-08-29T13:50:28Z</time>
      </trkpt>
      <trkpt lat="47.53296" lon="-2.85526">
        <ele>2.7</ele>
        <time>2026-08-29T13:50:29Z</time>
      </trkpt>
      <trkpt lat="47.53299" lon="-2.85521">
        <ele>2.8</ele>
        <time>2026-08-29T13:50:30Z</time>
      </trkpt>
      <trkpt lat="47.53303" lon="-2.85515">
        <ele>2.9</ele>
        <time>2026-08-29T13:50:31Z</time>
      </trkpt>
      <trkpt lat="47.53306" lon="-2.8551">
        <ele>3</ele>
        <time>2026-08-29T13:50:32Z</time>
      </trkpt>
      <trkpt lat="47.5331" lon="-2.85506">
        <ele>3</ele>
        <time>2026-08-29T13:50:33Z</time>
      </trkpt>
      <trkpt lat="47.53314" lon="-2.85501">
        <ele>3</ele>
        <time>2026-08-29T13:50:34Z</time>
      </trkpt>
      <trkpt lat="47.53318" lon="-2.85497">
        <ele>2.9</ele>
        <time>2026-08-29T13:50:35Z</time>
      </trkpt>
      <trkpt lat="47.53323" lon="-2.85493">
        <ele>2.9</ele>
        <time>2026-08-29T13:50:36Z</time>
      </trkpt>
      <trkpt lat="47.53327" lon="-2.85488">
        <ele>2.9</ele>
        <time>2026-08-29T13:50:37Z</time>
      </trkpt>
      <trkpt lat="47.53331" lon="-2.85485">
        <ele>3</ele>
        <time>2026-08-29T13:50:38Z</time>
      </trkpt>
      <trkpt lat="47.53335" lon="-2.85481">
        <ele>3</ele>
        <time>2026-08-29T13:50:39Z</time>
      </trkpt>
      <trkpt lat="47.53339" lon="-2.85476">
        <ele>3</ele>
        <time>2026-08-29T13:50:40Z</time>
      </trkpt>
      <trkpt lat="47.53343" lon="-2.85472">
        <ele>3</ele>
        <time>2026-08-29T13:50:41Z</time>
      </trkpt>
      <trkpt lat="47.53346" lon="-2.85468">
        <ele>2.9</ele>
        <time>2026-08-29T13:50:42Z</time>
      </trkpt>
      <trkpt lat="47.5335" lon="-2.85465">
        <ele>2.9</ele>
        <time>2026-08-29T13:50:43Z</time>
      </trkpt>
      <trkpt lat="47.53353" lon="-2.85461">
        <ele>2.9</ele>
        <time>2026-08-29T13:50:44Z</time>
      </trkpt>
      <trkpt lat="47.53357" lon="-2.85456">
        <ele>2.9</ele>
        <time>2026-08-29T13:50:45Z</time>
      </trkpt>
      <trkpt lat="47.5336" lon="-2.85452">
        <ele>3</ele>
        <time>2026-08-29T13:50:46Z</time>
      </trkpt>
      <trkpt lat="47.53363" lon="-2.85448">
        <ele>3.1</ele>
        <time>2026-08-29T13:50:47Z</time>
      </trkpt>
      <trkpt lat="47.53366" lon="-2.85444">
        <ele>3.2</ele>
        <time>2026-08-29T13:50:48Z</time>
      </trkpt>
      <trkpt lat="47.53369" lon="-2.8544">
        <ele>3.3</ele>
        <time>2026-08-29T13:50:49Z</time>
      </trkpt>
      <trkpt lat="47.53371" lon="-2.85435">
        <ele>3.4</ele>
        <time>2026-08-29T13:50:50Z</time>
      </trkpt>
      <trkpt lat="47.53371" lon="-2.85429">
        <ele>3.4</ele>
        <time>2026-08-29T13:50:51Z</time>
      </trkpt>
      <trkpt lat="47.5337" lon="-2.85423">
        <ele>3.3</ele>
        <time>2026-08-29T13:50:52Z</time>
      </trkpt>
      <trkpt lat="47.5337" lon="-2.85417">
        <ele>3.3</ele>
        <time>2026-08-29T13:50:53Z</time>
      </trkpt>
      <trkpt lat="47.53368" lon="-2.85411">
        <ele>3.2</ele>
        <time>2026-08-29T13:50:54Z</time>
      </trkpt>
      <trkpt lat="47.53366" lon="-2.85405">
        <ele>3.2</ele>
        <time>2026-08-29T13:50:55Z</time>
      </trkpt>
      <trkpt lat="47.53365" lon="-2.85399">
        <ele>3.1</ele>
        <time>2026-08-29T13:50:56Z</time>
      </trkpt>
      <trkpt lat="47.53363" lon="-2.85394">
        <ele>3.1</ele>
        <time>2026-08-29T13:50:57Z</time>
      </trkpt>
      <trkpt lat="47.53361" lon="-2.85389">
        <ele>3</ele>
        <time>2026-08-29T13:50:58Z</time>
      </trkpt>
      <trkpt lat="47.5336" lon="-2.85384">
        <ele>3.2</ele>
        <time>2026-08-29T13:50:59Z</time>
      </trkpt>
      <trkpt lat="47.53358" lon="-2.85379">
        <ele>3.4</ele>
        <time>2026-08-29T13:51:00Z</time>
      </trkpt>
      <trkpt lat="47.53355" lon="-2.85376">
        <ele>3.5</ele>
        <time>2026-08-29T13:51:01Z</time>
      </trkpt>
      <trkpt lat="47.53353" lon="-2.85372">
        <ele>3.5</ele>
        <time>2026-08-29T13:51:02Z</time>
      </trkpt>
      <trkpt lat="47.53351" lon="-2.85369">
        <ele>3.6</ele>
        <time>2026-08-29T13:51:03Z</time>
      </trkpt>
      <trkpt lat="47.53349" lon="-2.85365">
        <ele>3.5</ele>
        <time>2026-08-29T13:51:04Z</time>
      </trkpt>
      <trkpt lat="47.53347" lon="-2.85361">
        <ele>3.5</ele>
        <time>2026-08-29T13:51:05Z</time>
      </trkpt>
      <trkpt lat="47.53346" lon="-2.85357">
        <ele>3.5</ele>
        <time>2026-08-29T13:51:06Z</time>
      </trkpt>
      <trkpt lat="47.53343" lon="-2.85355">
        <ele>3.3</ele>
        <time>2026-08-29T13:51:07Z</time>
      </trkpt>
      <trkpt lat="47.5334" lon="-2.85355">
        <ele>3.2</ele>
        <time>2026-08-29T13:51:08Z</time>
      </trkpt>
      <trkpt lat="47.53336" lon="-2.85356">
        <ele>3.1</ele>
        <time>2026-08-29T13:51:09Z</time>
      </trkpt>
      <trkpt lat="47.53332" lon="-2.85358">
        <ele>3</ele>
        <time>2026-08-29T13:51:10Z</time>
      </trkpt>
      <trkpt lat="47.53328" lon="-2.85361">
        <ele>3</ele>
        <time>2026-08-29T13:51:11Z</time>
      </trkpt>
      <trkpt lat="47.53324" lon="-2.85363">
        <ele>3</ele>
        <time>2026-08-29T13:51:12Z</time>
      </trkpt>
      <trkpt lat="47.5332" lon="-2.85365">
        <ele>3</ele>
        <time>2026-08-29T13:51:13Z</time>
      </trkpt>
      <trkpt lat="47.53316" lon="-2.85368">
        <ele>2.9</ele>
        <time>2026-08-29T13:51:14Z</time>
      </trkpt>
      <trkpt lat="47.53311" lon="-2.8537">
        <ele>2.8</ele>
        <time>2026-08-29T13:51:15Z</time>
      </trkpt>
      <trkpt lat="47.53307" lon="-2.85373">
        <ele>2.6</ele>
        <time>2026-08-29T13:51:16Z</time>
      </trkpt>
      <trkpt lat="47.53303" lon="-2.85376">
        <ele>2.5</ele>
        <time>2026-08-29T13:51:17Z</time>
      </trkpt>
      <trkpt lat="47.53299" lon="-2.8538">
        <ele>2.5</ele>
        <time>2026-08-29T13:51:18Z</time>
      </trkpt>
      <trkpt lat="47.53295" lon="-2.85384">
        <ele>2.5</ele>
        <time>2026-08-29T13:51:19Z</time>
      </trkpt>
      <trkpt lat="47.53291" lon="-2.85387">
        <ele>2.6</ele>
        <time>2026-08-29T13:51:20Z</time>
      </trkpt>
      <trkpt lat="47.53287" lon="-2.85391">
        <ele>2.6</ele>
        <time>2026-08-29T13:51:21Z</time>
      </trkpt>
      <trkpt lat="47.53282" lon="-2.85394">
        <ele>2.7</ele>
        <time>2026-08-29T13:51:22Z</time>
      </trkpt>
      <trkpt lat="47.53278" lon="-2.85396">
        <ele>2.7</ele>
        <time>2026-08-29T13:51:23Z</time>
      </trkpt>
      <trkpt lat="47.53273" lon="-2.85399">
        <ele>2.5</ele>
        <time>2026-08-29T13:51:24Z</time>
      </trkpt>
      <trkpt lat="47.53269" lon="-2.85402">
        <ele>2.4</ele>
        <time>2026-08-29T13:51:25Z</time>
      </trkpt>
      <trkpt lat="47.53264" lon="-2.85405">
        <ele>2.2</ele>
        <time>2026-08-29T13:51:26Z</time>
      </trkpt>
      <trkpt lat="47.5326" lon="-2.85408">
        <ele>2.1</ele>
        <time>2026-08-29T13:51:27Z</time>
      </trkpt>
      <trkpt lat="47.53255" lon="-2.85411">
        <ele>2</ele>
        <time>2026-08-29T13:51:28Z</time>
      </trkpt>
      <trkpt lat="47.5325" lon="-2.85414">
        <ele>2</ele>
        <time>2026-08-29T13:51:29Z</time>
      </trkpt>
      <trkpt lat="47.53246" lon="-2.85417">
        <ele>2</ele>
        <time>2026-08-29T13:51:30Z</time>
      </trkpt>
      <trkpt lat="47.53241" lon="-2.8542">
        <ele>2</ele>
        <time>2026-08-29T13:51:31Z</time>
      </trkpt>
      <trkpt lat="47.53237" lon="-2.85423">
        <ele>2</ele>
        <time>2026-08-29T13:51:32Z</time>
      </trkpt>
      <trkpt lat="47.53232" lon="-2.85426">
        <ele>2</ele>
        <time>2026-08-29T13:51:33Z</time>
      </trkpt>
      <trkpt lat="47.53227" lon="-2.85429">
        <ele>2</ele>
        <time>2026-08-29T13:51:34Z</time>
      </trkpt>
      <trkpt lat="47.53223" lon="-2.85432">
        <ele>2</ele>
        <time>2026-08-29T13:51:35Z</time>
      </trkpt>
      <trkpt lat="47.53218" lon="-2.85435">
        <ele>2</ele>
        <time>2026-08-29T13:51:36Z</time>
      </trkpt>
      <trkpt lat="47.53214" lon="-2.85438">
        <ele>2</ele>
        <time>2026-08-29T13:51:37Z</time>
      </trkpt>
      <trkpt lat="47.53209" lon="-2.85441">
        <ele>2</ele>
        <time>2026-08-29T13:51:38Z</time>
      </trkpt>
      <trkpt lat="47.53205" lon="-2.85443">
        <ele>2</ele>
        <time>2026-08-29T13:51:39Z</time>
      </trkpt>
      <trkpt lat="47.53201" lon="-2.85446">
        <ele>2</ele>
        <time>2026-08-29T13:51:40Z</time>
      </trkpt>
      <trkpt lat="47.53196" lon="-2.85449">
        <ele>2</ele>
        <time>2026-08-29T13:51:41Z</time>
      </trkpt>
      <trkpt lat="47.53192" lon="-2.85451">
        <ele>2</ele>
        <time>2026-08-29T13:51:42Z</time>
      </trkpt>
      <trkpt lat="47.53188" lon="-2.85454">
        <ele>2</ele>
        <time>2026-08-29T13:51:43Z</time>
      </trkpt>
      <trkpt lat="47.53183" lon="-2.85457">
        <ele>2</ele>
        <time>2026-08-29T13:51:44Z</time>
      </trkpt>
      <trkpt lat="47.53178" lon="-2.8546">
        <ele>2</ele>
        <time>2026-08-29T13:51:45Z</time>
      </trkpt>
      <trkpt lat="47.53174" lon="-2.85462">
        <ele>2</ele>
        <time>2026-08-29T13:51:46Z</time>
      </trkpt>
      <trkpt lat="47.5317" lon="-2.85465">
        <ele>2</ele>
        <time>2026-08-29T13:51:47Z</time>
      </trkpt>
      <trkpt lat="47.53165" lon="-2.85468">
        <ele>2</ele>
        <time>2026-08-29T13:51:48Z</time>
      </trkpt>
      <trkpt lat="47.53161" lon="-2.85471">
        <ele>2</ele>
        <time>2026-08-29T13:51:49Z</time>
      </trkpt>
      <trkpt lat="47.53157" lon="-2.85474">
        <ele>2</ele>
        <time>2026-08-29T13:51:50Z</time>
      </trkpt>
      <trkpt lat="47.53152" lon="-2.85477">
        <ele>2</ele>
        <time>2026-08-29T13:51:51Z</time>
      </trkpt>
      <trkpt lat="47.53148" lon="-2.85479">
        <ele>2</ele>
        <time>2026-08-29T13:51:52Z</time>
      </trkpt>
      <trkpt lat="47.53144" lon="-2.85482">
        <ele>2</ele>
        <time>2026-08-29T13:51:53Z</time>
      </trkpt>
      <trkpt lat="47.5314" lon="-2.85485">
        <ele>2</ele>
        <time>2026-08-29T13:51:54Z</time>
      </trkpt>
      <trkpt lat="47.53135" lon="-2.85487">
        <ele>2</ele>
        <time>2026-08-29T13:51:55Z</time>
      </trkpt>
      <trkpt lat="47.53131" lon="-2.8549">
        <ele>2</ele>
        <time>2026-08-29T13:51:56Z</time>
      </trkpt>
      <trkpt lat="47.53127" lon="-2.85492">
        <ele>2</ele>
        <time>2026-08-29T13:51:57Z</time>
      </trkpt>
      <trkpt lat="47.53122" lon="-2.85495">
        <ele>2</ele>
        <time>2026-08-29T13:51:58Z</time>
      </trkpt>
      <trkpt lat="47.53118" lon="-2.85498">
        <ele>2</ele>
        <time>2026-08-29T13:51:59Z</time>
      </trkpt>
      <trkpt lat="47.53114" lon="-2.85501">
        <ele>2</ele>
        <time>2026-08-29T13:52:00Z</time>
      </trkpt>
      <trkpt lat="47.53109" lon="-2.85504">
        <ele>2</ele>
        <time>2026-08-29T13:52:01Z</time>
      </trkpt>
      <trkpt lat="47.53105" lon="-2.85506">
        <ele>2</ele>
        <time>2026-08-29T13:52:02Z</time>
      </trkpt>
      <trkpt lat="47.531" lon="-2.85509">
        <ele>2</ele>
        <time>2026-08-29T13:52:03Z</time>
      </trkpt>
      <trkpt lat="47.53096" lon="-2.85512">
        <ele>2</ele>
        <time>2026-08-29T13:52:04Z</time>
      </trkpt>
      <trkpt lat="47.53092" lon="-2.85514">
        <ele>2</ele>
        <time>2026-08-29T13:52:05Z</time>
      </trkpt>
      <trkpt lat="47.53087" lon="-2.85517">
        <ele>2</ele>
        <time>2026-08-29T13:52:06Z</time>
      </trkpt>
      <trkpt lat="47.53083" lon="-2.8552">
        <ele>2</ele>
        <time>2026-08-29T13:52:07Z</time>
      </trkpt>
      <trkpt lat="47.53078" lon="-2.85523">
        <ele>2</ele>
        <time>2026-08-29T13:52:08Z</time>
      </trkpt>
      <trkpt lat="47.53074" lon="-2.85526">
        <ele>2</ele>
        <time>2026-08-29T13:52:09Z</time>
      </trkpt>
      <trkpt lat="47.5307" lon="-2.85528">
        <ele>2</ele>
        <time>2026-08-29T13:52:10Z</time>
      </trkpt>
      <trkpt lat="47.53066" lon="-2.85531">
        <ele>1.9</ele>
        <time>2026-08-29T13:52:11Z</time>
      </trkpt>
      <trkpt lat="47.53061" lon="-2.85534">
        <ele>1.8</ele>
        <time>2026-08-29T13:52:12Z</time>
      </trkpt>
      <trkpt lat="47.53056" lon="-2.85536">
        <ele>1.7</ele>
        <time>2026-08-29T13:52:13Z</time>
      </trkpt>
      <trkpt lat="47.53052" lon="-2.85539">
        <ele>1.6</ele>
        <time>2026-08-29T13:52:14Z</time>
      </trkpt>
      <trkpt lat="47.53048" lon="-2.85542">
        <ele>1.6</ele>
        <time>2026-08-29T13:52:15Z</time>
      </trkpt>
      <trkpt lat="47.53044" lon="-2.85545">
        <ele>1.6</ele>
        <time>2026-08-29T13:52:16Z</time>
      </trkpt>
      <trkpt lat="47.53039" lon="-2.85547">
        <ele>1.7</ele>
        <time>2026-08-29T13:52:17Z</time>
      </trkpt>
      <trkpt lat="47.53035" lon="-2.8555">
        <ele>1.8</ele>
        <time>2026-08-29T13:52:18Z</time>
      </trkpt>
      <trkpt lat="47.5303" lon="-2.85553">
        <ele>1.9</ele>
        <time>2026-08-29T13:52:19Z</time>
      </trkpt>
      <trkpt lat="47.53026" lon="-2.85555">
        <ele>2</ele>
        <time>2026-08-29T13:52:20Z</time>
      </trkpt>
      <trkpt lat="47.53022" lon="-2.85558">
        <ele>2</ele>
        <time>2026-08-29T13:52:21Z</time>
      </trkpt>
      <trkpt lat="47.53018" lon="-2.85561">
        <ele>2</ele>
        <time>2026-08-29T13:52:22Z</time>
      </trkpt>
      <trkpt lat="47.53013" lon="-2.85564">
        <ele>2</ele>
        <time>2026-08-29T13:52:23Z</time>
      </trkpt>
      <trkpt lat="47.53009" lon="-2.85567">
        <ele>2</ele>
        <time>2026-08-29T13:52:24Z</time>
      </trkpt>
      <trkpt lat="47.53005" lon="-2.85569">
        <ele>2</ele>
        <time>2026-08-29T13:52:25Z</time>
      </trkpt>
      <trkpt lat="47.53001" lon="-2.85572">
        <ele>2</ele>
        <time>2026-08-29T13:52:26Z</time>
      </trkpt>
      <trkpt lat="47.52996" lon="-2.85575">
        <ele>2</ele>
        <time>2026-08-29T13:52:27Z</time>
      </trkpt>
      <trkpt lat="47.52992" lon="-2.85577">
        <ele>2</ele>
        <time>2026-08-29T13:52:28Z</time>
      </trkpt>
      <trkpt lat="47.52988" lon="-2.8558">
        <ele>2</ele>
        <time>2026-08-29T13:52:29Z</time>
      </trkpt>
      <trkpt lat="47.52983" lon="-2.85583">
        <ele>2</ele>
        <time>2026-08-29T13:52:30Z</time>
      </trkpt>
      <trkpt lat="47.52979" lon="-2.85586">
        <ele>2</ele>
        <time>2026-08-29T13:52:31Z</time>
      </trkpt>
      <trkpt lat="47.52974" lon="-2.85589">
        <ele>2</ele>
        <time>2026-08-29T13:52:32Z</time>
      </trkpt>
      <trkpt lat="47.5297" lon="-2.85592">
        <ele>1.9</ele>
        <time>2026-08-29T13:52:33Z</time>
      </trkpt>
      <trkpt lat="47.52965" lon="-2.85594">
        <ele>1.8</ele>
        <time>2026-08-29T13:52:34Z</time>
      </trkpt>
      <trkpt lat="47.5296" lon="-2.85598">
        <ele>1.8</ele>
        <time>2026-08-29T13:52:35Z</time>
      </trkpt>
      <trkpt lat="47.52956" lon="-2.85601">
        <ele>1.8</ele>
        <time>2026-08-29T13:52:36Z</time>
      </trkpt>
      <trkpt lat="47.52952" lon="-2.85603">
        <ele>1.8</ele>
        <time>2026-08-29T13:52:37Z</time>
      </trkpt>
      <trkpt lat="47.52947" lon="-2.85606">
        <ele>1.8</ele>
        <time>2026-08-29T13:52:38Z</time>
      </trkpt>
      <trkpt lat="47.52943" lon="-2.85609">
        <ele>1.9</ele>
        <time>2026-08-29T13:52:39Z</time>
      </trkpt>
      <trkpt lat="47.52939" lon="-2.85612">
        <ele>2</ele>
        <time>2026-08-29T13:52:40Z</time>
      </trkpt>
      <trkpt lat="47.52934" lon="-2.85615">
        <ele>2</ele>
        <time>2026-08-29T13:52:41Z</time>
      </trkpt>
      <trkpt lat="47.5293" lon="-2.85617">
        <ele>2</ele>
        <time>2026-08-29T13:52:42Z</time>
      </trkpt>
      <trkpt lat="47.52926" lon="-2.8562">
        <ele>2</ele>
        <time>2026-08-29T13:52:43Z</time>
      </trkpt>
      <trkpt lat="47.52921" lon="-2.85623">
        <ele>2</ele>
        <time>2026-08-29T13:52:44Z</time>
      </trkpt>
      <trkpt lat="47.52917" lon="-2.85626">
        <ele>2</ele>
        <time>2026-08-29T13:52:45Z</time>
      </trkpt>
      <trkpt lat="47.52913" lon="-2.85628">
        <ele>2</ele>
        <time>2026-08-29T13:52:46Z</time>
      </trkpt>
      <trkpt lat="47.52908" lon="-2.85631">
        <ele>2</ele>
        <time>2026-08-29T13:52:47Z</time>
      </trkpt>
      <trkpt lat="47.52904" lon="-2.85633">
        <ele>2</ele>
        <time>2026-08-29T13:52:48Z</time>
      </trkpt>
      <trkpt lat="47.52899" lon="-2.85636">
        <ele>2</ele>
        <time>2026-08-29T13:52:49Z</time>
      </trkpt>
      <trkpt lat="47.52895" lon="-2.85639">
        <ele>2</ele>
        <time>2026-08-29T13:52:50Z</time>
      </trkpt>
      <trkpt lat="47.5289" lon="-2.85642">
        <ele>2</ele>
        <time>2026-08-29T13:52:51Z</time>
      </trkpt>
      <trkpt lat="47.52886" lon="-2.85645">
        <ele>2</ele>
        <time>2026-08-29T13:52:52Z</time>
      </trkpt>
      <trkpt lat="47.52881" lon="-2.85648">
        <ele>2</ele>
        <time>2026-08-29T13:52:53Z</time>
      </trkpt>
      <trkpt lat="47.52877" lon="-2.8565">
        <ele>2</ele>
        <time>2026-08-29T13:52:54Z</time>
      </trkpt>
      <trkpt lat="47.52873" lon="-2.85653">
        <ele>2</ele>
        <time>2026-08-29T13:52:55Z</time>
      </trkpt>
      <trkpt lat="47.52868" lon="-2.85656">
        <ele>2</ele>
        <time>2026-08-29T13:52:56Z</time>
      </trkpt>
      <trkpt lat="47.52864" lon="-2.85659">
        <ele>2</ele>
        <time>2026-08-29T13:52:57Z</time>
      </trkpt>
      <trkpt lat="47.52859" lon="-2.85661">
        <ele>2</ele>
        <time>2026-08-29T13:52:58Z</time>
      </trkpt>
      <trkpt lat="47.52855" lon="-2.85664">
        <ele>2</ele>
        <time>2026-08-29T13:52:59Z</time>
      </trkpt>
      <trkpt lat="47.5285" lon="-2.85667">
        <ele>2</ele>
        <time>2026-08-29T13:53:00Z</time>
      </trkpt>
      <trkpt lat="47.52845" lon="-2.8567">
        <ele>2</ele>
        <time>2026-08-29T13:53:01Z</time>
      </trkpt>
      <trkpt lat="47.52841" lon="-2.85673">
        <ele>2</ele>
        <time>2026-08-29T13:53:02Z</time>
      </trkpt>
      <trkpt lat="47.52836" lon="-2.85676">
        <ele>2</ele>
        <time>2026-08-29T13:53:03Z</time>
      </trkpt>
      <trkpt lat="47.52832" lon="-2.85678">
        <ele>2</ele>
        <time>2026-08-29T13:53:04Z</time>
      </trkpt>
      <trkpt lat="47.52827" lon="-2.85681">
        <ele>2</ele>
        <time>2026-08-29T13:53:05Z</time>
      </trkpt>
      <trkpt lat="47.52823" lon="-2.85684">
        <ele>2</ele>
        <time>2026-08-29T13:53:06Z</time>
      </trkpt>
      <trkpt lat="47.52818" lon="-2.85687">
        <ele>2</ele>
        <time>2026-08-29T13:53:07Z</time>
      </trkpt>
      <trkpt lat="47.52814" lon="-2.8569">
        <ele>2</ele>
        <time>2026-08-29T13:53:08Z</time>
      </trkpt>
      <trkpt lat="47.52809" lon="-2.85693">
        <ele>2</ele>
        <time>2026-08-29T13:53:09Z</time>
      </trkpt>
      <trkpt lat="47.52805" lon="-2.85696">
        <ele>2</ele>
        <time>2026-08-29T13:53:10Z</time>
      </trkpt>
      <trkpt lat="47.52801" lon="-2.857">
        <ele>2</ele>
        <time>2026-08-29T13:53:11Z</time>
      </trkpt>
      <trkpt lat="47.52797" lon="-2.85704">
        <ele>2.1</ele>
        <time>2026-08-29T13:53:12Z</time>
      </trkpt>
      <trkpt lat="47.52793" lon="-2.85708">
        <ele>2.2</ele>
        <time>2026-08-29T13:53:13Z</time>
      </trkpt>
      <trkpt lat="47.5279" lon="-2.85713">
        <ele>2.4</ele>
        <time>2026-08-29T13:53:14Z</time>
      </trkpt>
      <trkpt lat="47.52787" lon="-2.85717">
        <ele>2.5</ele>
        <time>2026-08-29T13:53:15Z</time>
      </trkpt>
      <trkpt lat="47.52784" lon="-2.85722">
        <ele>2.8</ele>
        <time>2026-08-29T13:53:16Z</time>
      </trkpt>
      <trkpt lat="47.52782" lon="-2.85726">
        <ele>2.8</ele>
        <time>2026-08-29T13:53:17Z</time>
      </trkpt>
      <trkpt lat="47.52779" lon="-2.8573">
        <ele>3</ele>
        <time>2026-08-29T13:53:18Z</time>
      </trkpt>
      <trkpt lat="47.52777" lon="-2.85734">
        <ele>3</ele>
        <time>2026-08-29T13:53:19Z</time>
      </trkpt>
      <trkpt lat="47.52775" lon="-2.85738">
        <ele>3.1</ele>
        <time>2026-08-29T13:53:20Z</time>
      </trkpt>
      <trkpt lat="47.52773" lon="-2.85741">
        <ele>3.2</ele>
        <time>2026-08-29T13:53:21Z</time>
      </trkpt>
      <trkpt lat="47.5277" lon="-2.85744">
        <ele>3.3</ele>
        <time>2026-08-29T13:53:22Z</time>
      </trkpt>
      <trkpt lat="47.52768" lon="-2.85746">
        <ele>3.4</ele>
        <time>2026-08-29T13:53:23Z</time>
      </trkpt>
      <trkpt lat="47.52764" lon="-2.85747">
        <ele>3.5</ele>
        <time>2026-08-29T13:53:24Z</time>
      </trkpt>
      <trkpt lat="47.52762" lon="-2.85746">
        <ele>3.6</ele>
        <time>2026-08-29T13:53:25Z</time>
      </trkpt>
      <trkpt lat="47.52759" lon="-2.85743">
        <ele>3.7</ele>
        <time>2026-08-29T13:53:26Z</time>
      </trkpt>
      <trkpt lat="47.52757" lon="-2.85739">
        <ele>3.7</ele>
        <time>2026-08-29T13:53:27Z</time>
      </trkpt>
      <trkpt lat="47.52756" lon="-2.85734">
        <ele>3.8</ele>
        <time>2026-08-29T13:53:28Z</time>
      </trkpt>
      <trkpt lat="47.52754" lon="-2.8573">
        <ele>3.9</ele>
        <time>2026-08-29T13:53:29Z</time>
      </trkpt>
      <trkpt lat="47.52753" lon="-2.85726">
        <ele>3.9</ele>
        <time>2026-08-29T13:53:30Z</time>
      </trkpt>
      <trkpt lat="47.52751" lon="-2.85721">
        <ele>4</ele>
        <time>2026-08-29T13:53:31Z</time>
      </trkpt>
      <trkpt lat="47.52749" lon="-2.85716">
        <ele>4</ele>
        <time>2026-08-29T13:53:32Z</time>
      </trkpt>
      <trkpt lat="47.52748" lon="-2.85711">
        <ele>4.1</ele>
        <time>2026-08-29T13:53:33Z</time>
      </trkpt>
      <trkpt lat="47.52745" lon="-2.85706">
        <ele>4.2</ele>
        <time>2026-08-29T13:53:34Z</time>
      </trkpt>
      <trkpt lat="47.52743" lon="-2.85701">
        <ele>4.3</ele>
        <time>2026-08-29T13:53:35Z</time>
      </trkpt>
      <trkpt lat="47.52741" lon="-2.85696">
        <ele>4.3</ele>
        <time>2026-08-29T13:53:36Z</time>
      </trkpt>
      <trkpt lat="47.52738" lon="-2.85691">
        <ele>4.4</ele>
        <time>2026-08-29T13:53:37Z</time>
      </trkpt>
      <trkpt lat="47.52736" lon="-2.85686">
        <ele>4.5</ele>
        <time>2026-08-29T13:53:38Z</time>
      </trkpt>
      <trkpt lat="47.52733" lon="-2.85682">
        <ele>4.6</ele>
        <time>2026-08-29T13:53:39Z</time>
      </trkpt>
      <trkpt lat="47.5273" lon="-2.85678">
        <ele>4.7</ele>
        <time>2026-08-29T13:53:40Z</time>
      </trkpt>
      <trkpt lat="47.52727" lon="-2.85674">
        <ele>4.8</ele>
        <time>2026-08-29T13:53:41Z</time>
      </trkpt>
      <trkpt lat="47.52724" lon="-2.8567">
        <ele>4.9</ele>
        <time>2026-08-29T13:53:42Z</time>
      </trkpt>
      <trkpt lat="47.52721" lon="-2.85666">
        <ele>5</ele>
        <time>2026-08-29T13:53:43Z</time>
      </trkpt>
      <trkpt lat="47.52718" lon="-2.85662">
        <ele>5</ele>
        <time>2026-08-29T13:53:44Z</time>
      </trkpt>
      <trkpt lat="47.52715" lon="-2.85659">
        <ele>5.1</ele>
        <time>2026-08-29T13:53:45Z</time>
      </trkpt>
      <trkpt lat="47.52712" lon="-2.85655">
        <ele>5.1</ele>
        <time>2026-08-29T13:53:46Z</time>
      </trkpt>
      <trkpt lat="47.52708" lon="-2.85652">
        <ele>5.3</ele>
        <time>2026-08-29T13:53:47Z</time>
      </trkpt>
      <trkpt lat="47.52705" lon="-2.85649">
        <ele>5.4</ele>
        <time>2026-08-29T13:53:48Z</time>
      </trkpt>
      <trkpt lat="47.52702" lon="-2.85647">
        <ele>5.5</ele>
        <time>2026-08-29T13:53:49Z</time>
      </trkpt>
      <trkpt lat="47.52699" lon="-2.85644">
        <ele>5.7</ele>
        <time>2026-08-29T13:53:50Z</time>
      </trkpt>
      <trkpt lat="47.52695" lon="-2.85642">
        <ele>6</ele>
        <time>2026-08-29T13:53:51Z</time>
      </trkpt>
      <trkpt lat="47.52692" lon="-2.85639">
        <ele>6</ele>
        <time>2026-08-29T13:53:52Z</time>
      </trkpt>
      <trkpt lat="47.52688" lon="-2.85637">
        <ele>5.9</ele>
        <time>2026-08-29T13:53:53Z</time>
      </trkpt>
      <trkpt lat="47.52685" lon="-2.85635">
        <ele>5.9</ele>
        <time>2026-08-29T13:53:54Z</time>
      </trkpt>
      <trkpt lat="47.52682" lon="-2.85632">
        <ele>5.9</ele>
        <time>2026-08-29T13:53:55Z</time>
      </trkpt>
      <trkpt lat="47.52678" lon="-2.85629">
        <ele>5.9</ele>
        <time>2026-08-29T13:53:56Z</time>
      </trkpt>
      <trkpt lat="47.52675" lon="-2.85626">
        <ele>5.9</ele>
        <time>2026-08-29T13:53:57Z</time>
      </trkpt>
      <trkpt lat="47.52671" lon="-2.85623">
        <ele>5.9</ele>
        <time>2026-08-29T13:53:58Z</time>
      </trkpt>
      <trkpt lat="47.52668" lon="-2.85621">
        <ele>6</ele>
        <time>2026-08-29T13:53:59Z</time>
      </trkpt>
      <trkpt lat="47.52665" lon="-2.85618">
        <ele>6</ele>
        <time>2026-08-29T13:54:00Z</time>
      </trkpt>
      <trkpt lat="47.52661" lon="-2.85615">
        <ele>6.2</ele>
        <time>2026-08-29T13:54:01Z</time>
      </trkpt>
      <trkpt lat="47.52658" lon="-2.85613">
        <ele>6.3</ele>
        <time>2026-08-29T13:54:02Z</time>
      </trkpt>
      <trkpt lat="47.52654" lon="-2.8561">
        <ele>6.5</ele>
        <time>2026-08-29T13:54:03Z</time>
      </trkpt>
      <trkpt lat="47.52651" lon="-2.85606">
        <ele>6.6</ele>
        <time>2026-08-29T13:54:04Z</time>
      </trkpt>
      <trkpt lat="47.52648" lon="-2.85604">
        <ele>6.7</ele>
        <time>2026-08-29T13:54:05Z</time>
      </trkpt>
      <trkpt lat="47.52644" lon="-2.85601">
        <ele>6.8</ele>
        <time>2026-08-29T13:54:06Z</time>
      </trkpt>
      <trkpt lat="47.52641" lon="-2.85598">
        <ele>6.9</ele>
        <time>2026-08-29T13:54:07Z</time>
      </trkpt>
      <trkpt lat="47.52638" lon="-2.85595">
        <ele>7</ele>
        <time>2026-08-29T13:54:08Z</time>
      </trkpt>
      <trkpt lat="47.52635" lon="-2.85592">
        <ele>7</ele>
        <time>2026-08-29T13:54:09Z</time>
      </trkpt>
      <trkpt lat="47.52632" lon="-2.85589">
        <ele>6.9</ele>
        <time>2026-08-29T13:54:10Z</time>
      </trkpt>
      <trkpt lat="47.52629" lon="-2.85586">
        <ele>7</ele>
        <time>2026-08-29T13:54:11Z</time>
      </trkpt>
      <trkpt lat="47.52626" lon="-2.85583">
        <ele>7</ele>
        <time>2026-08-29T13:54:12Z</time>
      </trkpt>
      <trkpt lat="47.52624" lon="-2.8558">
        <ele>7</ele>
        <time>2026-08-29T13:54:13Z</time>
      </trkpt>
      <trkpt lat="47.52621" lon="-2.85577">
        <ele>7</ele>
        <time>2026-08-29T13:54:14Z</time>
      </trkpt>
      <trkpt lat="47.52618" lon="-2.85574">
        <ele>7</ele>
        <time>2026-08-29T13:54:15Z</time>
      </trkpt>
      <trkpt lat="47.52615" lon="-2.85572">
        <ele>7</ele>
        <time>2026-08-29T13:54:16Z</time>
      </trkpt>
      <trkpt lat="47.52612" lon="-2.85569">
        <ele>7</ele>
        <time>2026-08-29T13:54:17Z</time>
      </trkpt>
      <trkpt lat="47.5261" lon="-2.85566">
        <ele>7</ele>
        <time>2026-08-29T13:54:18Z</time>
      </trkpt>
      <trkpt lat="47.52607" lon="-2.85564">
        <ele>7.1</ele>
        <time>2026-08-29T13:54:19Z</time>
      </trkpt>
      <trkpt lat="47.52604" lon="-2.85562">
        <ele>7.2</ele>
        <time>2026-08-29T13:54:20Z</time>
      </trkpt>
      <trkpt lat="47.52601" lon="-2.8556">
        <ele>7.3</ele>
        <time>2026-08-29T13:54:21Z</time>
      </trkpt>
      <trkpt lat="47.52598" lon="-2.85558">
        <ele>7.4</ele>
        <time>2026-08-29T13:54:22Z</time>
      </trkpt>
      <trkpt lat="47.52595" lon="-2.85556">
        <ele>7.6</ele>
        <time>2026-08-29T13:54:23Z</time>
      </trkpt>
      <trkpt lat="47.52591" lon="-2.85554">
        <ele>7.8</ele>
        <time>2026-08-29T13:54:24Z</time>
      </trkpt>
      <trkpt lat="47.52588" lon="-2.85552">
        <ele>8</ele>
        <time>2026-08-29T13:54:25Z</time>
      </trkpt>
      <trkpt lat="47.52586" lon="-2.85549">
        <ele>8.1</ele>
        <time>2026-08-29T13:54:26Z</time>
      </trkpt>
      <trkpt lat="47.52583" lon="-2.85546">
        <ele>8.3</ele>
        <time>2026-08-29T13:54:27Z</time>
      </trkpt>
      <trkpt lat="47.5258" lon="-2.85543">
        <ele>8.5</ele>
        <time>2026-08-29T13:54:28Z</time>
      </trkpt>
      <trkpt lat="47.52578" lon="-2.85541">
        <ele>8.5</ele>
        <time>2026-08-29T13:54:29Z</time>
      </trkpt>
      <trkpt lat="47.52575" lon="-2.85538">
        <ele>8.6</ele>
        <time>2026-08-29T13:54:30Z</time>
      </trkpt>
      <trkpt lat="47.52573" lon="-2.85536">
        <ele>8.7</ele>
        <time>2026-08-29T13:54:31Z</time>
      </trkpt>
      <trkpt lat="47.5257" lon="-2.85534">
        <ele>8.8</ele>
        <time>2026-08-29T13:54:32Z</time>
      </trkpt>
      <trkpt lat="47.52568" lon="-2.85531">
        <ele>8.9</ele>
        <time>2026-08-29T13:54:33Z</time>
      </trkpt>
      <trkpt lat="47.52565" lon="-2.85529">
        <ele>9</ele>
        <time>2026-08-29T13:54:34Z</time>
      </trkpt>
      <trkpt lat="47.52563" lon="-2.85526">
        <ele>9</ele>
        <time>2026-08-29T13:54:35Z</time>
      </trkpt>
      <trkpt lat="47.5256" lon="-2.85524">
        <ele>9</ele>
        <time>2026-08-29T13:54:36Z</time>
      </trkpt>
      <trkpt lat="47.52557" lon="-2.85522">
        <ele>9</ele>
        <time>2026-08-29T13:54:37Z</time>
      </trkpt>
      <trkpt lat="47.52555" lon="-2.8552">
        <ele>9</ele>
        <time>2026-08-29T13:54:38Z</time>
      </trkpt>
      <trkpt lat="47.52552" lon="-2.85518">
        <ele>9</ele>
        <time>2026-08-29T13:54:39Z</time>
      </trkpt>
      <trkpt lat="47.52549" lon="-2.85516">
        <ele>9</ele>
        <time>2026-08-29T13:54:40Z</time>
      </trkpt>
      <trkpt lat="47.52547" lon="-2.85514">
        <ele>9</ele>
        <time>2026-08-29T13:54:41Z</time>
      </trkpt>
      <trkpt lat="47.52544" lon="-2.85512">
        <ele>9.1</ele>
        <time>2026-08-29T13:54:42Z</time>
      </trkpt>
      <trkpt lat="47.52541" lon="-2.8551">
        <ele>9.1</ele>
        <time>2026-08-29T13:54:43Z</time>
      </trkpt>
      <trkpt lat="47.52539" lon="-2.85508">
        <ele>9.3</ele>
        <time>2026-08-29T13:54:44Z</time>
      </trkpt>
      <trkpt lat="47.52536" lon="-2.85505">
        <ele>9.5</ele>
        <time>2026-08-29T13:54:45Z</time>
      </trkpt>
      <trkpt lat="47.52534" lon="-2.85503">
        <ele>9.6</ele>
        <time>2026-08-29T13:54:46Z</time>
      </trkpt>
      <trkpt lat="47.52531" lon="-2.85501">
        <ele>9.8</ele>
        <time>2026-08-29T13:54:47Z</time>
      </trkpt>
      <trkpt lat="47.52528" lon="-2.85499">
        <ele>10</ele>
        <time>2026-08-29T13:54:48Z</time>
      </trkpt>
      <trkpt lat="47.52525" lon="-2.85497">
        <ele>9.9</ele>
        <time>2026-08-29T13:54:49Z</time>
      </trkpt>
      <trkpt lat="47.52523" lon="-2.85494">
        <ele>9.9</ele>
        <time>2026-08-29T13:54:50Z</time>
      </trkpt>
      <trkpt lat="47.5252" lon="-2.8549">
        <ele>9.8</ele>
        <time>2026-08-29T13:54:51Z</time>
      </trkpt>
      <trkpt lat="47.52517" lon="-2.85488">
        <ele>9.8</ele>
        <time>2026-08-29T13:54:52Z</time>
      </trkpt>
      <trkpt lat="47.52514" lon="-2.85485">
        <ele>9.8</ele>
        <time>2026-08-29T13:54:53Z</time>
      </trkpt>
      <trkpt lat="47.52512" lon="-2.85482">
        <ele>9.8</ele>
        <time>2026-08-29T13:54:54Z</time>
      </trkpt>
      <trkpt lat="47.52509" lon="-2.85479">
        <ele>9.8</ele>
        <time>2026-08-29T13:54:55Z</time>
      </trkpt>
      <trkpt lat="47.52506" lon="-2.85476">
        <ele>9.9</ele>
        <time>2026-08-29T13:54:56Z</time>
      </trkpt>
      <trkpt lat="47.52504" lon="-2.85472">
        <ele>10</ele>
        <time>2026-08-29T13:54:57Z</time>
      </trkpt>
      <trkpt lat="47.52501" lon="-2.85468">
        <ele>10</ele>
        <time>2026-08-29T13:54:58Z</time>
      </trkpt>
      <trkpt lat="47.52499" lon="-2.85464">
        <ele>10</ele>
        <time>2026-08-29T13:54:59Z</time>
      </trkpt>
      <trkpt lat="47.52497" lon="-2.8546">
        <ele>9.9</ele>
        <time>2026-08-29T13:55:00Z</time>
      </trkpt>
      <trkpt lat="47.52494" lon="-2.85456">
        <ele>9.9</ele>
        <time>2026-08-29T13:55:01Z</time>
      </trkpt>
      <trkpt lat="47.52491" lon="-2.85452">
        <ele>9.9</ele>
        <time>2026-08-29T13:55:02Z</time>
      </trkpt>
      <trkpt lat="47.52489" lon="-2.85448">
        <ele>9.9</ele>
        <time>2026-08-29T13:55:03Z</time>
      </trkpt>
      <trkpt lat="47.52487" lon="-2.85444">
        <ele>10</ele>
        <time>2026-08-29T13:55:04Z</time>
      </trkpt>
      <trkpt lat="47.52485" lon="-2.85439">
        <ele>10.1</ele>
        <time>2026-08-29T13:55:05Z</time>
      </trkpt>
      <trkpt lat="47.52483" lon="-2.85434">
        <ele>10.1</ele>
        <time>2026-08-29T13:55:06Z</time>
      </trkpt>
      <trkpt lat="47.52481" lon="-2.8543">
        <ele>10.2</ele>
        <time>2026-08-29T13:55:07Z</time>
      </trkpt>
      <trkpt lat="47.52479" lon="-2.85426">
        <ele>10.2</ele>
        <time>2026-08-29T13:55:08Z</time>
      </trkpt>
      <trkpt lat="47.52476" lon="-2.85422">
        <ele>10.1</ele>
        <time>2026-08-29T13:55:09Z</time>
      </trkpt>
      <trkpt lat="47.52474" lon="-2.85418">
        <ele>10.1</ele>
        <time>2026-08-29T13:55:10Z</time>
      </trkpt>
      <trkpt lat="47.52472" lon="-2.85415">
        <ele>10.1</ele>
        <time>2026-08-29T13:55:11Z</time>
      </trkpt>
      <trkpt lat="47.5247" lon="-2.8541">
        <ele>10.2</ele>
        <time>2026-08-29T13:55:12Z</time>
      </trkpt>
      <trkpt lat="47.52468" lon="-2.85406">
        <ele>10.3</ele>
        <time>2026-08-29T13:55:13Z</time>
      </trkpt>
      <trkpt lat="47.52466" lon="-2.85402">
        <ele>10.4</ele>
        <time>2026-08-29T13:55:14Z</time>
      </trkpt>
      <trkpt lat="47.52463" lon="-2.85397">
        <ele>10.5</ele>
        <time>2026-08-29T13:55:15Z</time>
      </trkpt>
      <trkpt lat="47.52461" lon="-2.85393">
        <ele>10.5</ele>
        <time>2026-08-29T13:55:16Z</time>
      </trkpt>
      <trkpt lat="47.52459" lon="-2.85389">
        <ele>10.5</ele>
        <time>2026-08-29T13:55:17Z</time>
      </trkpt>
      <trkpt lat="47.52456" lon="-2.85385">
        <ele>10.5</ele>
        <time>2026-08-29T13:55:18Z</time>
      </trkpt>
      <trkpt lat="47.52454" lon="-2.85381">
        <ele>10.5</ele>
        <time>2026-08-29T13:55:19Z</time>
      </trkpt>
      <trkpt lat="47.52451" lon="-2.85377">
        <ele>10.6</ele>
        <time>2026-08-29T13:55:20Z</time>
      </trkpt>
      <trkpt lat="47.52449" lon="-2.85373">
        <ele>10.6</ele>
        <time>2026-08-29T13:55:21Z</time>
      </trkpt>
      <trkpt lat="47.52447" lon="-2.85369">
        <ele>10.7</ele>
        <time>2026-08-29T13:55:22Z</time>
      </trkpt>
      <trkpt lat="47.52444" lon="-2.85365">
        <ele>10.9</ele>
        <time>2026-08-29T13:55:23Z</time>
      </trkpt>
      <trkpt lat="47.52442" lon="-2.85361">
        <ele>11</ele>
        <time>2026-08-29T13:55:24Z</time>
      </trkpt>
      <trkpt lat="47.52439" lon="-2.85357">
        <ele>11</ele>
        <time>2026-08-29T13:55:25Z</time>
      </trkpt>
      <trkpt lat="47.52437" lon="-2.85353">
        <ele>11</ele>
        <time>2026-08-29T13:55:26Z</time>
      </trkpt>
      <trkpt lat="47.52434" lon="-2.85349">
        <ele>11</ele>
        <time>2026-08-29T13:55:27Z</time>
      </trkpt>
      <trkpt lat="47.52432" lon="-2.85346">
        <ele>11</ele>
        <time>2026-08-29T13:55:28Z</time>
      </trkpt>
      <trkpt lat="47.52429" lon="-2.85342">
        <ele>11</ele>
        <time>2026-08-29T13:55:29Z</time>
      </trkpt>
      <trkpt lat="47.52426" lon="-2.85337">
        <ele>11</ele>
        <time>2026-08-29T13:55:30Z</time>
      </trkpt>
      <trkpt lat="47.52423" lon="-2.85333">
        <ele>11</ele>
        <time>2026-08-29T13:55:31Z</time>
      </trkpt>
      <trkpt lat="47.5242" lon="-2.85329">
        <ele>11</ele>
        <time>2026-08-29T13:55:32Z</time>
      </trkpt>
      <trkpt lat="47.52417" lon="-2.85325">
        <ele>11</ele>
        <time>2026-08-29T13:55:33Z</time>
      </trkpt>
      <trkpt lat="47.52414" lon="-2.85322">
        <ele>11</ele>
        <time>2026-08-29T13:55:34Z</time>
      </trkpt>
      <trkpt lat="47.52412" lon="-2.85319">
        <ele>10.9</ele>
        <time>2026-08-29T13:55:35Z</time>
      </trkpt>
      <trkpt lat="47.52409" lon="-2.85316">
        <ele>10.8</ele>
        <time>2026-08-29T13:55:36Z</time>
      </trkpt>
      <trkpt lat="47.52408" lon="-2.85314">
        <ele>10.8</ele>
        <time>2026-08-29T13:55:37Z</time>
      </trkpt>
      <trkpt lat="47.52406" lon="-2.85312">
        <ele>10.7</ele>
        <time>2026-08-29T13:55:38Z</time>
      </trkpt>
      <trkpt lat="47.52403" lon="-2.85309">
        <ele>10.6</ele>
        <time>2026-08-29T13:55:39Z</time>
      </trkpt>
      <trkpt lat="47.52401" lon="-2.85306">
        <ele>10.4</ele>
        <time>2026-08-29T13:55:40Z</time>
      </trkpt>
      <trkpt lat="47.52399" lon="-2.85303">
        <ele>10.3</ele>
        <time>2026-08-29T13:55:41Z</time>
      </trkpt>
      <trkpt lat="47.52396" lon="-2.853">
        <ele>10.2</ele>
        <time>2026-08-29T13:55:42Z</time>
      </trkpt>
      <trkpt lat="47.52394" lon="-2.85297">
        <ele>10.1</ele>
        <time>2026-08-29T13:55:43Z</time>
      </trkpt>
      <trkpt lat="47.52391" lon="-2.85294">
        <ele>10</ele>
        <time>2026-08-29T13:55:44Z</time>
      </trkpt>
      <trkpt lat="47.52388" lon="-2.85291">
        <ele>10</ele>
        <time>2026-08-29T13:55:45Z</time>
      </trkpt>
      <trkpt lat="47.52385" lon="-2.85288">
        <ele>10.1</ele>
        <time>2026-08-29T13:55:46Z</time>
      </trkpt>
      <trkpt lat="47.52382" lon="-2.85284">
        <ele>10.1</ele>
        <time>2026-08-29T13:55:47Z</time>
      </trkpt>
      <trkpt lat="47.52379" lon="-2.85281">
        <ele>10</ele>
        <time>2026-08-29T13:55:48Z</time>
      </trkpt>
      <trkpt lat="47.52376" lon="-2.85278">
        <ele>10</ele>
        <time>2026-08-29T13:55:49Z</time>
      </trkpt>
      <trkpt lat="47.52372" lon="-2.85274">
        <ele>10</ele>
        <time>2026-08-29T13:55:50Z</time>
      </trkpt>
      <trkpt lat="47.52369" lon="-2.85271">
        <ele>10</ele>
        <time>2026-08-29T13:55:51Z</time>
      </trkpt>
      <trkpt lat="47.52365" lon="-2.85267">
        <ele>10</ele>
        <time>2026-08-29T13:55:52Z</time>
      </trkpt>
      <trkpt lat="47.52362" lon="-2.85264">
        <ele>10</ele>
        <time>2026-08-29T13:55:53Z</time>
      </trkpt>
      <trkpt lat="47.52358" lon="-2.8526">
        <ele>10</ele>
        <time>2026-08-29T13:55:54Z</time>
      </trkpt>
      <trkpt lat="47.52354" lon="-2.85256">
        <ele>10.1</ele>
        <time>2026-08-29T13:55:55Z</time>
      </trkpt>
      <trkpt lat="47.5235" lon="-2.85252">
        <ele>10</ele>
        <time>2026-08-29T13:55:56Z</time>
      </trkpt>
      <trkpt lat="47.52347" lon="-2.85248">
        <ele>10</ele>
        <time>2026-08-29T13:55:57Z</time>
      </trkpt>
      <trkpt lat="47.52343" lon="-2.85244">
        <ele>9.9</ele>
        <time>2026-08-29T13:55:58Z</time>
      </trkpt>
      <trkpt lat="47.5234" lon="-2.8524">
        <ele>9.9</ele>
        <time>2026-08-29T13:55:59Z</time>
      </trkpt>
      <trkpt lat="47.52336" lon="-2.85235">
        <ele>9.9</ele>
        <time>2026-08-29T13:56:00Z</time>
      </trkpt>
      <trkpt lat="47.52333" lon="-2.8523">
        <ele>10</ele>
        <time>2026-08-29T13:56:01Z</time>
      </trkpt>
      <trkpt lat="47.52329" lon="-2.85224">
        <ele>10</ele>
        <time>2026-08-29T13:56:02Z</time>
      </trkpt>
      <trkpt lat="47.52326" lon="-2.85219">
        <ele>9.9</ele>
        <time>2026-08-29T13:56:03Z</time>
      </trkpt>
      <trkpt lat="47.52322" lon="-2.85213">
        <ele>9.7</ele>
        <time>2026-08-29T13:56:04Z</time>
      </trkpt>
      <trkpt lat="47.5232" lon="-2.85207">
        <ele>9.5</ele>
        <time>2026-08-29T13:56:05Z</time>
      </trkpt>
      <trkpt lat="47.52317" lon="-2.85201">
        <ele>9.2</ele>
        <time>2026-08-29T13:56:06Z</time>
      </trkpt>
      <trkpt lat="47.52315" lon="-2.85195">
        <ele>9</ele>
        <time>2026-08-29T13:56:07Z</time>
      </trkpt>
      <trkpt lat="47.52313" lon="-2.85189">
        <ele>8.9</ele>
        <time>2026-08-29T13:56:08Z</time>
      </trkpt>
      <trkpt lat="47.52312" lon="-2.85183">
        <ele>8.9</ele>
        <time>2026-08-29T13:56:09Z</time>
      </trkpt>
      <trkpt lat="47.52311" lon="-2.85177">
        <ele>8.9</ele>
        <time>2026-08-29T13:56:10Z</time>
      </trkpt>
      <trkpt lat="47.5231" lon="-2.8517">
        <ele>8.9</ele>
        <time>2026-08-29T13:56:11Z</time>
      </trkpt>
      <trkpt lat="47.52309" lon="-2.85164">
        <ele>8.9</ele>
        <time>2026-08-29T13:56:12Z</time>
      </trkpt>
      <trkpt lat="47.52307" lon="-2.85157">
        <ele>8.9</ele>
        <time>2026-08-29T13:56:13Z</time>
      </trkpt>
      <trkpt lat="47.52306" lon="-2.85151">
        <ele>9</ele>
        <time>2026-08-29T13:56:14Z</time>
      </trkpt>
      <trkpt lat="47.52304" lon="-2.85144">
        <ele>9</ele>
        <time>2026-08-29T13:56:15Z</time>
      </trkpt>
      <trkpt lat="47.52303" lon="-2.85138">
        <ele>9.1</ele>
        <time>2026-08-29T13:56:16Z</time>
      </trkpt>
      <trkpt lat="47.52301" lon="-2.85131">
        <ele>9.2</ele>
        <time>2026-08-29T13:56:17Z</time>
      </trkpt>
      <trkpt lat="47.52299" lon="-2.85124">
        <ele>9.2</ele>
        <time>2026-08-29T13:56:18Z</time>
      </trkpt>
      <trkpt lat="47.52297" lon="-2.85118">
        <ele>9.3</ele>
        <time>2026-08-29T13:56:19Z</time>
      </trkpt>
      <trkpt lat="47.52296" lon="-2.85111">
        <ele>9.3</ele>
        <time>2026-08-29T13:56:20Z</time>
      </trkpt>
      <trkpt lat="47.52294" lon="-2.85105">
        <ele>9.3</ele>
        <time>2026-08-29T13:56:21Z</time>
      </trkpt>
      <trkpt lat="47.52292" lon="-2.85099">
        <ele>9.3</ele>
        <time>2026-08-29T13:56:22Z</time>
      </trkpt>
      <trkpt lat="47.5229" lon="-2.85092">
        <ele>9.3</ele>
        <time>2026-08-29T13:56:23Z</time>
      </trkpt>
      <trkpt lat="47.52288" lon="-2.85086">
        <ele>9.3</ele>
        <time>2026-08-29T13:56:24Z</time>
      </trkpt>
      <trkpt lat="47.52286" lon="-2.85079">
        <ele>9.3</ele>
        <time>2026-08-29T13:56:25Z</time>
      </trkpt>
      <trkpt lat="47.52284" lon="-2.85073">
        <ele>9.3</ele>
        <time>2026-08-29T13:56:26Z</time>
      </trkpt>
      <trkpt lat="47.52282" lon="-2.85066">
        <ele>9.2</ele>
        <time>2026-08-29T13:56:27Z</time>
      </trkpt>
      <trkpt lat="47.5228" lon="-2.8506">
        <ele>9.1</ele>
        <time>2026-08-29T13:56:28Z</time>
      </trkpt>
      <trkpt lat="47.52278" lon="-2.85054">
        <ele>9</ele>
        <time>2026-08-29T13:56:29Z</time>
      </trkpt>
      <trkpt lat="47.52276" lon="-2.85048">
        <ele>9.1</ele>
        <time>2026-08-29T13:56:30Z</time>
      </trkpt>
      <trkpt lat="47.52274" lon="-2.85041">
        <ele>9.1</ele>
        <time>2026-08-29T13:56:31Z</time>
      </trkpt>
      <trkpt lat="47.52271" lon="-2.85035">
        <ele>9.2</ele>
        <time>2026-08-29T13:56:32Z</time>
      </trkpt>
      <trkpt lat="47.52269" lon="-2.85029">
        <ele>9.3</ele>
        <time>2026-08-29T13:56:33Z</time>
      </trkpt>
      <trkpt lat="47.52267" lon="-2.85023">
        <ele>9.4</ele>
        <time>2026-08-29T13:56:34Z</time>
      </trkpt>
      <trkpt lat="47.52265" lon="-2.85017">
        <ele>9.5</ele>
        <time>2026-08-29T13:56:35Z</time>
      </trkpt>
      <trkpt lat="47.52263" lon="-2.85011">
        <ele>9.5</ele>
        <time>2026-08-29T13:56:36Z</time>
      </trkpt>
      <trkpt lat="47.5226" lon="-2.85005">
        <ele>9.6</ele>
        <time>2026-08-29T13:56:37Z</time>
      </trkpt>
      <trkpt lat="47.52257" lon="-2.85">
        <ele>9.7</ele>
        <time>2026-08-29T13:56:38Z</time>
      </trkpt>
      <trkpt lat="47.52254" lon="-2.84996">
        <ele>9.9</ele>
        <time>2026-08-29T13:56:39Z</time>
      </trkpt>
      <trkpt lat="47.5225" lon="-2.84992">
        <ele>10</ele>
        <time>2026-08-29T13:56:40Z</time>
      </trkpt>
      <trkpt lat="47.52247" lon="-2.84988">
        <ele>10</ele>
        <time>2026-08-29T13:56:41Z</time>
      </trkpt>
      <trkpt lat="47.52243" lon="-2.84984">
        <ele>10.1</ele>
        <time>2026-08-29T13:56:42Z</time>
      </trkpt>
      <trkpt lat="47.5224" lon="-2.8498">
        <ele>10.3</ele>
        <time>2026-08-29T13:56:43Z</time>
      </trkpt>
      <trkpt lat="47.52236" lon="-2.84976">
        <ele>10.4</ele>
        <time>2026-08-29T13:56:44Z</time>
      </trkpt>
      <trkpt lat="47.52233" lon="-2.84972">
        <ele>10.6</ele>
        <time>2026-08-29T13:56:45Z</time>
      </trkpt>
      <trkpt lat="47.52229" lon="-2.84968">
        <ele>10.8</ele>
        <time>2026-08-29T13:56:46Z</time>
      </trkpt>
      <trkpt lat="47.52226" lon="-2.84964">
        <ele>10.9</ele>
        <time>2026-08-29T13:56:47Z</time>
      </trkpt>
      <trkpt lat="47.52223" lon="-2.8496">
        <ele>11</ele>
        <time>2026-08-29T13:56:48Z</time>
      </trkpt>
      <trkpt lat="47.52219" lon="-2.84956">
        <ele>11</ele>
        <time>2026-08-29T13:56:49Z</time>
      </trkpt>
      <trkpt lat="47.52216" lon="-2.84952">
        <ele>11</ele>
        <time>2026-08-29T13:56:50Z</time>
      </trkpt>
      <trkpt lat="47.52212" lon="-2.84949">
        <ele>11</ele>
        <time>2026-08-29T13:56:51Z</time>
      </trkpt>
      <trkpt lat="47.52208" lon="-2.84945">
        <ele>11</ele>
        <time>2026-08-29T13:56:52Z</time>
      </trkpt>
      <trkpt lat="47.52204" lon="-2.84942">
        <ele>11</ele>
        <time>2026-08-29T13:56:53Z</time>
      </trkpt>
      <trkpt lat="47.522" lon="-2.84938">
        <ele>11</ele>
        <time>2026-08-29T13:56:54Z</time>
      </trkpt>
      <trkpt lat="47.52196" lon="-2.84935">
        <ele>11</ele>
        <time>2026-08-29T13:56:55Z</time>
      </trkpt>
      <trkpt lat="47.52192" lon="-2.84932">
        <ele>11</ele>
        <time>2026-08-29T13:56:56Z</time>
      </trkpt>
      <trkpt lat="47.52188" lon="-2.84929">
        <ele>11</ele>
        <time>2026-08-29T13:56:57Z</time>
      </trkpt>
      <trkpt lat="47.52184" lon="-2.84926">
        <ele>11</ele>
        <time>2026-08-29T13:56:58Z</time>
      </trkpt>
      <trkpt lat="47.5218" lon="-2.84923">
        <ele>11</ele>
        <time>2026-08-29T13:56:59Z</time>
      </trkpt>
      <trkpt lat="47.52176" lon="-2.8492">
        <ele>11</ele>
        <time>2026-08-29T13:57:00Z</time>
      </trkpt>
      <trkpt lat="47.52172" lon="-2.84918">
        <ele>11</ele>
        <time>2026-08-29T13:57:01Z</time>
      </trkpt>
      <trkpt lat="47.52168" lon="-2.84915">
        <ele>11</ele>
        <time>2026-08-29T13:57:02Z</time>
      </trkpt>
      <trkpt lat="47.52164" lon="-2.84913">
        <ele>11</ele>
        <time>2026-08-29T13:57:03Z</time>
      </trkpt>
      <trkpt lat="47.5216" lon="-2.84911">
        <ele>11</ele>
        <time>2026-08-29T13:57:04Z</time>
      </trkpt>
      <trkpt lat="47.52156" lon="-2.84909">
        <ele>11</ele>
        <time>2026-08-29T13:57:05Z</time>
      </trkpt>
      <trkpt lat="47.52153" lon="-2.84906">
        <ele>11</ele>
        <time>2026-08-29T13:57:06Z</time>
      </trkpt>
      <trkpt lat="47.52149" lon="-2.84904">
        <ele>11</ele>
        <time>2026-08-29T13:57:07Z</time>
      </trkpt>
      <trkpt lat="47.52145" lon="-2.84902">
        <ele>11</ele>
        <time>2026-08-29T13:57:08Z</time>
      </trkpt>
      <trkpt lat="47.52142" lon="-2.84899">
        <ele>11</ele>
        <time>2026-08-29T13:57:09Z</time>
      </trkpt>
      <trkpt lat="47.52138" lon="-2.84896">
        <ele>11</ele>
        <time>2026-08-29T13:57:10Z</time>
      </trkpt>
      <trkpt lat="47.52134" lon="-2.84893">
        <ele>10.8</ele>
        <time>2026-08-29T13:57:11Z</time>
      </trkpt>
      <trkpt lat="47.5213" lon="-2.8489">
        <ele>10.7</ele>
        <time>2026-08-29T13:57:12Z</time>
      </trkpt>
      <trkpt lat="47.52126" lon="-2.84887">
        <ele>10.5</ele>
        <time>2026-08-29T13:57:13Z</time>
      </trkpt>
      <trkpt lat="47.52122" lon="-2.84883">
        <ele>10.4</ele>
        <time>2026-08-29T13:57:14Z</time>
      </trkpt>
      <trkpt lat="47.52118" lon="-2.84879">
        <ele>10.2</ele>
        <time>2026-08-29T13:57:15Z</time>
      </trkpt>
      <trkpt lat="47.52114" lon="-2.84874">
        <ele>10.1</ele>
        <time>2026-08-29T13:57:16Z</time>
      </trkpt>
      <trkpt lat="47.5211" lon="-2.84869">
        <ele>10</ele>
        <time>2026-08-29T13:57:17Z</time>
      </trkpt>
      <trkpt lat="47.52106" lon="-2.84865">
        <ele>10</ele>
        <time>2026-08-29T13:57:18Z</time>
      </trkpt>
      <trkpt lat="47.52103" lon="-2.8486">
        <ele>10</ele>
        <time>2026-08-29T13:57:19Z</time>
      </trkpt>
      <trkpt lat="47.521" lon="-2.84856">
        <ele>10</ele>
        <time>2026-08-29T13:57:20Z</time>
      </trkpt>
      <trkpt lat="47.52096" lon="-2.84852">
        <ele>10</ele>
        <time>2026-08-29T13:57:21Z</time>
      </trkpt>
      <trkpt lat="47.52092" lon="-2.84849">
        <ele>10</ele>
        <time>2026-08-29T13:57:22Z</time>
      </trkpt>
      <trkpt lat="47.52089" lon="-2.84845">
        <ele>10</ele>
        <time>2026-08-29T13:57:23Z</time>
      </trkpt>
      <trkpt lat="47.52085" lon="-2.84841">
        <ele>10</ele>
        <time>2026-08-29T13:57:24Z</time>
      </trkpt>
      <trkpt lat="47.52081" lon="-2.84837">
        <ele>10</ele>
        <time>2026-08-29T13:57:25Z</time>
      </trkpt>
      <trkpt lat="47.52077" lon="-2.84833">
        <ele>10</ele>
        <time>2026-08-29T13:57:26Z</time>
      </trkpt>
      <trkpt lat="47.52073" lon="-2.84829">
        <ele>10.2</ele>
        <time>2026-08-29T13:57:27Z</time>
      </trkpt>
      <trkpt lat="47.52069" lon="-2.84824">
        <ele>10.3</ele>
        <time>2026-08-29T13:57:28Z</time>
      </trkpt>
      <trkpt lat="47.52065" lon="-2.84821">
        <ele>10.4</ele>
        <time>2026-08-29T13:57:29Z</time>
      </trkpt>
      <trkpt lat="47.52061" lon="-2.84817">
        <ele>10.6</ele>
        <time>2026-08-29T13:57:30Z</time>
      </trkpt>
      <trkpt lat="47.52057" lon="-2.84813">
        <ele>10.7</ele>
        <time>2026-08-29T13:57:31Z</time>
      </trkpt>
      <trkpt lat="47.52053" lon="-2.84809">
        <ele>10.8</ele>
        <time>2026-08-29T13:57:32Z</time>
      </trkpt>
      <trkpt lat="47.5205" lon="-2.84806">
        <ele>10.8</ele>
        <time>2026-08-29T13:57:33Z</time>
      </trkpt>
      <trkpt lat="47.52047" lon="-2.84802">
        <ele>10.7</ele>
        <time>2026-08-29T13:57:34Z</time>
      </trkpt>
      <trkpt lat="47.52043" lon="-2.84798">
        <ele>10.7</ele>
        <time>2026-08-29T13:57:35Z</time>
      </trkpt>
      <trkpt lat="47.5204" lon="-2.84794">
        <ele>10.7</ele>
        <time>2026-08-29T13:57:36Z</time>
      </trkpt>
      <trkpt lat="47.52036" lon="-2.84791">
        <ele>10.7</ele>
        <time>2026-08-29T13:57:37Z</time>
      </trkpt>
      <trkpt lat="47.52033" lon="-2.84787">
        <ele>10.7</ele>
        <time>2026-08-29T13:57:38Z</time>
      </trkpt>
      <trkpt lat="47.52029" lon="-2.84784">
        <ele>10.8</ele>
        <time>2026-08-29T13:57:39Z</time>
      </trkpt>
      <trkpt lat="47.52025" lon="-2.8478">
        <ele>10.7</ele>
        <time>2026-08-29T13:57:40Z</time>
      </trkpt>
      <trkpt lat="47.52021" lon="-2.84776">
        <ele>10.5</ele>
        <time>2026-08-29T13:57:41Z</time>
      </trkpt>
      <trkpt lat="47.52017" lon="-2.84773">
        <ele>10.1</ele>
        <time>2026-08-29T13:57:42Z</time>
      </trkpt>
      <trkpt lat="47.52013" lon="-2.84769">
        <ele>9.8</ele>
        <time>2026-08-29T13:57:43Z</time>
      </trkpt>
      <trkpt lat="47.52009" lon="-2.84765">
        <ele>9.5</ele>
        <time>2026-08-29T13:57:44Z</time>
      </trkpt>
      <trkpt lat="47.52005" lon="-2.8476">
        <ele>9.2</ele>
        <time>2026-08-29T13:57:45Z</time>
      </trkpt>
      <trkpt lat="47.52" lon="-2.84755">
        <ele>9</ele>
        <time>2026-08-29T13:57:46Z</time>
      </trkpt>
      <trkpt lat="47.51996" lon="-2.84751">
        <ele>8.7</ele>
        <time>2026-08-29T13:57:47Z</time>
      </trkpt>
      <trkpt lat="47.51991" lon="-2.84747">
        <ele>8.3</ele>
        <time>2026-08-29T13:57:48Z</time>
      </trkpt>
      <trkpt lat="47.51987" lon="-2.84744">
        <ele>8</ele>
        <time>2026-08-29T13:57:49Z</time>
      </trkpt>
      <trkpt lat="47.51982" lon="-2.84741">
        <ele>7.5</ele>
        <time>2026-08-29T13:57:50Z</time>
      </trkpt>
      <trkpt lat="47.51978" lon="-2.84737">
        <ele>7</ele>
        <time>2026-08-29T13:57:51Z</time>
      </trkpt>
      <trkpt lat="47.51973" lon="-2.84734">
        <ele>6.5</ele>
        <time>2026-08-29T13:57:52Z</time>
      </trkpt>
      <trkpt lat="47.51969" lon="-2.84731">
        <ele>6.1</ele>
        <time>2026-08-29T13:57:53Z</time>
      </trkpt>
      <trkpt lat="47.51964" lon="-2.84727">
        <ele>5.8</ele>
        <time>2026-08-29T13:57:54Z</time>
      </trkpt>
      <trkpt lat="47.5196" lon="-2.84722">
        <ele>5.6</ele>
        <time>2026-08-29T13:57:55Z</time>
      </trkpt>
      <trkpt lat="47.51955" lon="-2.84717">
        <ele>5.4</ele>
        <time>2026-08-29T13:57:56Z</time>
      </trkpt>
      <trkpt lat="47.5195" lon="-2.84714">
        <ele>5.2</ele>
        <time>2026-08-29T13:57:57Z</time>
      </trkpt>
      <trkpt lat="47.51944" lon="-2.84713">
        <ele>5</ele>
        <time>2026-08-29T13:57:58Z</time>
      </trkpt>
      <trkpt lat="47.51938" lon="-2.84713">
        <ele>4.8</ele>
        <time>2026-08-29T13:57:59Z</time>
      </trkpt>
      <trkpt lat="47.51933" lon="-2.84713">
        <ele>4.6</ele>
        <time>2026-08-29T13:58:00Z</time>
      </trkpt>
      <trkpt lat="47.51927" lon="-2.84713">
        <ele>4.4</ele>
        <time>2026-08-29T13:58:01Z</time>
      </trkpt>
      <trkpt lat="47.51922" lon="-2.84713">
        <ele>4.2</ele>
        <time>2026-08-29T13:58:02Z</time>
      </trkpt>
      <trkpt lat="47.51917" lon="-2.84713">
        <ele>4</ele>
        <time>2026-08-29T13:58:03Z</time>
      </trkpt>
      <trkpt lat="47.51912" lon="-2.84713">
        <ele>4.3</ele>
        <time>2026-08-29T13:58:04Z</time>
      </trkpt>
      <trkpt lat="47.51907" lon="-2.84712">
        <ele>4.7</ele>
        <time>2026-08-29T13:58:05Z</time>
      </trkpt>
      <trkpt lat="47.51903" lon="-2.84712">
        <ele>5</ele>
        <time>2026-08-29T13:58:06Z</time>
      </trkpt>
      <trkpt lat="47.51898" lon="-2.8471">
        <ele>5.3</ele>
        <time>2026-08-29T13:58:07Z</time>
      </trkpt>
      <trkpt lat="47.51894" lon="-2.84709">
        <ele>5.6</ele>
        <time>2026-08-29T13:58:08Z</time>
      </trkpt>
      <trkpt lat="47.51891" lon="-2.84706">
        <ele>5.8</ele>
        <time>2026-08-29T13:58:09Z</time>
      </trkpt>
      <trkpt lat="47.51887" lon="-2.84704">
        <ele>6.2</ele>
        <time>2026-08-29T13:58:10Z</time>
      </trkpt>
      <trkpt lat="47.51884" lon="-2.84702">
        <ele>6.4</ele>
        <time>2026-08-29T13:58:11Z</time>
      </trkpt>
      <trkpt lat="47.51881" lon="-2.847">
        <ele>6.7</ele>
        <time>2026-08-29T13:58:12Z</time>
      </trkpt>
      <trkpt lat="47.51878" lon="-2.84698">
        <ele>6.9</ele>
        <time>2026-08-29T13:58:13Z</time>
      </trkpt>
      <trkpt lat="47.51875" lon="-2.84696">
        <ele>7.1</ele>
        <time>2026-08-29T13:58:14Z</time>
      </trkpt>
      <trkpt lat="47.51872" lon="-2.84694">
        <ele>7.2</ele>
        <time>2026-08-29T13:58:15Z</time>
      </trkpt>
      <trkpt lat="47.51869" lon="-2.84693">
        <ele>7.4</ele>
        <time>2026-08-29T13:58:16Z</time>
      </trkpt>
      <trkpt lat="47.51866" lon="-2.84691">
        <ele>7.6</ele>
        <time>2026-08-29T13:58:17Z</time>
      </trkpt>
      <trkpt lat="47.51863" lon="-2.8469">
        <ele>7.9</ele>
        <time>2026-08-29T13:58:18Z</time>
      </trkpt>
      <trkpt lat="47.5186" lon="-2.84689">
        <ele>8.1</ele>
        <time>2026-08-29T13:58:19Z</time>
      </trkpt>
      <trkpt lat="47.51857" lon="-2.84689">
        <ele>8.3</ele>
        <time>2026-08-29T13:58:20Z</time>
      </trkpt>
      <trkpt lat="47.51854" lon="-2.84688">
        <ele>8.5</ele>
        <time>2026-08-29T13:58:21Z</time>
      </trkpt>
      <trkpt lat="47.51851" lon="-2.84688">
        <ele>8.7</ele>
        <time>2026-08-29T13:58:22Z</time>
      </trkpt>
      <trkpt lat="47.51848" lon="-2.84688">
        <ele>8.9</ele>
        <time>2026-08-29T13:58:23Z</time>
      </trkpt>
      <trkpt lat="47.51844" lon="-2.84688">
        <ele>9.2</ele>
        <time>2026-08-29T13:58:24Z</time>
      </trkpt>
      <trkpt lat="47.51842" lon="-2.84688">
        <ele>9.4</ele>
        <time>2026-08-29T13:58:25Z</time>
      </trkpt>
      <trkpt lat="47.51839" lon="-2.84689">
        <ele>9.6</ele>
        <time>2026-08-29T13:58:26Z</time>
      </trkpt>
      <trkpt lat="47.51836" lon="-2.84689">
        <ele>9.8</ele>
        <time>2026-08-29T13:58:27Z</time>
      </trkpt>
      <trkpt lat="47.51832" lon="-2.84689">
        <ele>10</ele>
        <time>2026-08-29T13:58:28Z</time>
      </trkpt>
      <trkpt lat="47.51829" lon="-2.84689">
        <ele>10</ele>
        <time>2026-08-29T13:58:29Z</time>
      </trkpt>
      <trkpt lat="47.51826" lon="-2.84689">
        <ele>10.1</ele>
        <time>2026-08-29T13:58:30Z</time>
      </trkpt>
      <trkpt lat="47.51823" lon="-2.84689">
        <ele>10.1</ele>
        <time>2026-08-29T13:58:31Z</time>
      </trkpt>
      <trkpt lat="47.5182" lon="-2.84689">
        <ele>10.1</ele>
        <time>2026-08-29T13:58:32Z</time>
      </trkpt>
      <trkpt lat="47.51816" lon="-2.84689">
        <ele>10.1</ele>
        <time>2026-08-29T13:58:33Z</time>
      </trkpt>
      <trkpt lat="47.51813" lon="-2.8469">
        <ele>10.1</ele>
        <time>2026-08-29T13:58:34Z</time>
      </trkpt>
      <trkpt lat="47.5181" lon="-2.84689">
        <ele>10.2</ele>
        <time>2026-08-29T13:58:35Z</time>
      </trkpt>
      <trkpt lat="47.51807" lon="-2.84689">
        <ele>10.2</ele>
        <time>2026-08-29T13:58:36Z</time>
      </trkpt>
      <trkpt lat="47.51804" lon="-2.84689">
        <ele>10.2</ele>
        <time>2026-08-29T13:58:37Z</time>
      </trkpt>
      <trkpt lat="47.51801" lon="-2.84688">
        <ele>10.2</ele>
        <time>2026-08-29T13:58:38Z</time>
      </trkpt>
      <trkpt lat="47.51797" lon="-2.84688">
        <ele>10.2</ele>
        <time>2026-08-29T13:58:39Z</time>
      </trkpt>
      <trkpt lat="47.51793" lon="-2.84688">
        <ele>10.1</ele>
        <time>2026-08-29T13:58:40Z</time>
      </trkpt>
      <trkpt lat="47.5179" lon="-2.84689">
        <ele>10.1</ele>
        <time>2026-08-29T13:58:41Z</time>
      </trkpt>
      <trkpt lat="47.51786" lon="-2.84688">
        <ele>10.1</ele>
        <time>2026-08-29T13:58:42Z</time>
      </trkpt>
      <trkpt lat="47.51783" lon="-2.84688">
        <ele>10</ele>
        <time>2026-08-29T13:58:43Z</time>
      </trkpt>
      <trkpt lat="47.51779" lon="-2.84687">
        <ele>10</ele>
        <time>2026-08-29T13:58:44Z</time>
      </trkpt>
      <trkpt lat="47.51775" lon="-2.84687">
        <ele>9.9</ele>
        <time>2026-08-29T13:58:45Z</time>
      </trkpt>
      <trkpt lat="47.51771" lon="-2.84687">
        <ele>9.8</ele>
        <time>2026-08-29T13:58:46Z</time>
      </trkpt>
      <trkpt lat="47.51766" lon="-2.84687">
        <ele>9.7</ele>
        <time>2026-08-29T13:58:47Z</time>
      </trkpt>
      <trkpt lat="47.51762" lon="-2.84687">
        <ele>9.6</ele>
        <time>2026-08-29T13:58:48Z</time>
      </trkpt>
      <trkpt lat="47.51757" lon="-2.84686">
        <ele>9.5</ele>
        <time>2026-08-29T13:58:49Z</time>
      </trkpt>
      <trkpt lat="47.51753" lon="-2.84686">
        <ele>9.4</ele>
        <time>2026-08-29T13:58:50Z</time>
      </trkpt>
      <trkpt lat="47.51748" lon="-2.84686">
        <ele>9.2</ele>
        <time>2026-08-29T13:58:51Z</time>
      </trkpt>
      <trkpt lat="47.51743" lon="-2.84685">
        <ele>9.1</ele>
        <time>2026-08-29T13:58:52Z</time>
      </trkpt>
      <trkpt lat="47.51738" lon="-2.84685">
        <ele>8.9</ele>
        <time>2026-08-29T13:58:53Z</time>
      </trkpt>
      <trkpt lat="47.51732" lon="-2.84685">
        <ele>8.7</ele>
        <time>2026-08-29T13:58:54Z</time>
      </trkpt>
      <trkpt lat="47.51727" lon="-2.84684">
        <ele>8.5</ele>
        <time>2026-08-29T13:58:55Z</time>
      </trkpt>
      <trkpt lat="47.51721" lon="-2.84684">
        <ele>8.3</ele>
        <time>2026-08-29T13:58:56Z</time>
      </trkpt>
      <trkpt lat="47.51715" lon="-2.84684">
        <ele>8</ele>
        <time>2026-08-29T13:58:57Z</time>
      </trkpt>
      <trkpt lat="47.51709" lon="-2.84683">
        <ele>7.7</ele>
        <time>2026-08-29T13:58:58Z</time>
      </trkpt>
      <trkpt lat="47.51703" lon="-2.84683">
        <ele>7.4</ele>
        <time>2026-08-29T13:58:59Z</time>
      </trkpt>
      <trkpt lat="47.51697" lon="-2.84682">
        <ele>7.1</ele>
        <time>2026-08-29T13:59:00Z</time>
      </trkpt>
      <trkpt lat="47.5169" lon="-2.84682">
        <ele>6.8</ele>
        <time>2026-08-29T13:59:01Z</time>
      </trkpt>
      <trkpt lat="47.51684" lon="-2.84681">
        <ele>6.4</ele>
        <time>2026-08-29T13:59:02Z</time>
      </trkpt>
      <trkpt lat="47.51677" lon="-2.84681">
        <ele>6</ele>
        <time>2026-08-29T13:59:03Z</time>
      </trkpt>
      <trkpt lat="47.51671" lon="-2.8468">
        <ele>5.8</ele>
        <time>2026-08-29T13:59:04Z</time>
      </trkpt>
      <trkpt lat="47.51664" lon="-2.8468">
        <ele>5.5</ele>
        <time>2026-08-29T13:59:05Z</time>
      </trkpt>
      <trkpt lat="47.51657" lon="-2.84679">
        <ele>5.4</ele>
        <time>2026-08-29T13:59:06Z</time>
      </trkpt>
      <trkpt lat="47.5165" lon="-2.84678">
        <ele>5.2</ele>
        <time>2026-08-29T13:59:07Z</time>
      </trkpt>
      <trkpt lat="47.51644" lon="-2.84678">
        <ele>5.1</ele>
        <time>2026-08-29T13:59:08Z</time>
      </trkpt>
      <trkpt lat="47.51637" lon="-2.84677">
        <ele>5</ele>
        <time>2026-08-29T13:59:09Z</time>
      </trkpt>
      <trkpt lat="47.51631" lon="-2.84677">
        <ele>5</ele>
        <time>2026-08-29T13:59:10Z</time>
      </trkpt>
      <trkpt lat="47.51625" lon="-2.84677">
        <ele>5</ele>
        <time>2026-08-29T13:59:11Z</time>
      </trkpt>
      <trkpt lat="47.5162" lon="-2.84677">
        <ele>5</ele>
        <time>2026-08-29T13:59:12Z</time>
      </trkpt>
      <trkpt lat="47.51615" lon="-2.84677">
        <ele>5</ele>
        <time>2026-08-29T13:59:13Z</time>
      </trkpt>
      <trkpt lat="47.51609" lon="-2.84677">
        <ele>5</ele>
        <time>2026-08-29T13:59:14Z</time>
      </trkpt>
      <trkpt lat="47.51605" lon="-2.84677">
        <ele>5.1</ele>
        <time>2026-08-29T13:59:15Z</time>
      </trkpt>
      <trkpt lat="47.516" lon="-2.84677">
        <ele>5.3</ele>
        <time>2026-08-29T13:59:16Z</time>
      </trkpt>
      <trkpt lat="47.51596" lon="-2.84677">
        <ele>5.3</ele>
        <time>2026-08-29T13:59:17Z</time>
      </trkpt>
      <trkpt lat="47.51592" lon="-2.84677">
        <ele>5.4</ele>
        <time>2026-08-29T13:59:18Z</time>
      </trkpt>
      <trkpt lat="47.51587" lon="-2.84677">
        <ele>5.5</ele>
        <time>2026-08-29T13:59:19Z</time>
      </trkpt>
      <trkpt lat="47.51583" lon="-2.84677">
        <ele>5.6</ele>
        <time>2026-08-29T13:59:20Z</time>
      </trkpt>
      <trkpt lat="47.51579" lon="-2.84677">
        <ele>5.7</ele>
        <time>2026-08-29T13:59:21Z</time>
      </trkpt>
      <trkpt lat="47.51574" lon="-2.84677">
        <ele>5.8</ele>
        <time>2026-08-29T13:59:22Z</time>
      </trkpt>
      <trkpt lat="47.5157" lon="-2.84677">
        <ele>5.8</ele>
        <time>2026-08-29T13:59:23Z</time>
      </trkpt>
      <trkpt lat="47.51566" lon="-2.84677">
        <ele>5.9</ele>
        <time>2026-08-29T13:59:24Z</time>
      </trkpt>
      <trkpt lat="47.51561" lon="-2.84677">
        <ele>5.9</ele>
        <time>2026-08-29T13:59:25Z</time>
      </trkpt>
      <trkpt lat="47.51557" lon="-2.84678">
        <ele>6</ele>
        <time>2026-08-29T13:59:26Z</time>
      </trkpt>
      <trkpt lat="47.51552" lon="-2.84678">
        <ele>5.9</ele>
        <time>2026-08-29T13:59:27Z</time>
      </trkpt>
      <trkpt lat="47.51548" lon="-2.84678">
        <ele>5.9</ele>
        <time>2026-08-29T13:59:28Z</time>
      </trkpt>
      <trkpt lat="47.51544" lon="-2.84679">
        <ele>5.8</ele>
        <time>2026-08-29T13:59:29Z</time>
      </trkpt>
      <trkpt lat="47.5154" lon="-2.84679">
        <ele>5.8</ele>
        <time>2026-08-29T13:59:30Z</time>
      </trkpt>
      <trkpt lat="47.51536" lon="-2.84679">
        <ele>5.7</ele>
        <time>2026-08-29T13:59:31Z</time>
      </trkpt>
      <trkpt lat="47.51532" lon="-2.84678">
        <ele>5.7</ele>
        <time>2026-08-29T13:59:32Z</time>
      </trkpt>
      <trkpt lat="47.51528" lon="-2.84678">
        <ele>5.6</ele>
        <time>2026-08-29T13:59:33Z</time>
      </trkpt>
      <trkpt lat="47.51524" lon="-2.84678">
        <ele>5.6</ele>
        <time>2026-08-29T13:59:34Z</time>
      </trkpt>
      <trkpt lat="47.5152" lon="-2.84678">
        <ele>5.6</ele>
        <time>2026-08-29T13:59:35Z</time>
      </trkpt>
      <trkpt lat="47.51516" lon="-2.84678">
        <ele>5.6</ele>
        <time>2026-08-29T13:59:36Z</time>
      </trkpt>
      <trkpt lat="47.51512" lon="-2.84677">
        <ele>5.6</ele>
        <time>2026-08-29T13:59:37Z</time>
      </trkpt>
      <trkpt lat="47.51508" lon="-2.84676">
        <ele>5.7</ele>
        <time>2026-08-29T13:59:38Z</time>
      </trkpt>
      <trkpt lat="47.51504" lon="-2.84676">
        <ele>5.7</ele>
        <time>2026-08-29T13:59:39Z</time>
      </trkpt>
      <trkpt lat="47.515" lon="-2.84675">
        <ele>5.7</ele>
        <time>2026-08-29T13:59:40Z</time>
      </trkpt>
      <trkpt lat="47.51496" lon="-2.84674">
        <ele>5.8</ele>
        <time>2026-08-29T13:59:41Z</time>
      </trkpt>
      <trkpt lat="47.51492" lon="-2.84673">
        <ele>5.8</ele>
        <time>2026-08-29T13:59:42Z</time>
      </trkpt>
      <trkpt lat="47.51488" lon="-2.84671">
        <ele>5.9</ele>
        <time>2026-08-29T13:59:43Z</time>
      </trkpt>
      <trkpt lat="47.51484" lon="-2.8467">
        <ele>5.9</ele>
        <time>2026-08-29T13:59:44Z</time>
      </trkpt>
      <trkpt lat="47.5148" lon="-2.84669">
        <ele>6</ele>
        <time>2026-08-29T13:59:45Z</time>
      </trkpt>
      <trkpt lat="47.51475" lon="-2.84668">
        <ele>6</ele>
        <time>2026-08-29T13:59:46Z</time>
      </trkpt>
      <trkpt lat="47.51471" lon="-2.84666">
        <ele>6</ele>
        <time>2026-08-29T13:59:47Z</time>
      </trkpt>
      <trkpt lat="47.51468" lon="-2.84664">
        <ele>6.1</ele>
        <time>2026-08-29T13:59:48Z</time>
      </trkpt>
      <trkpt lat="47.51464" lon="-2.84662">
        <ele>6.2</ele>
        <time>2026-08-29T13:59:49Z</time>
      </trkpt>
      <trkpt lat="47.5146" lon="-2.8466">
        <ele>6.2</ele>
        <time>2026-08-29T13:59:50Z</time>
      </trkpt>
      <trkpt lat="47.51456" lon="-2.84658">
        <ele>6.3</ele>
        <time>2026-08-29T13:59:51Z</time>
      </trkpt>
      <trkpt lat="47.51452" lon="-2.84656">
        <ele>6.4</ele>
        <time>2026-08-29T13:59:52Z</time>
      </trkpt>
      <trkpt lat="47.51448" lon="-2.84654">
        <ele>6.5</ele>
        <time>2026-08-29T13:59:53Z</time>
      </trkpt>
      <trkpt lat="47.51444" lon="-2.84652">
        <ele>6.5</ele>
        <time>2026-08-29T13:59:54Z</time>
      </trkpt>
      <trkpt lat="47.5144" lon="-2.8465">
        <ele>6.6</ele>
        <time>2026-08-29T13:59:55Z</time>
      </trkpt>
      <trkpt lat="47.51436" lon="-2.84648">
        <ele>6.7</ele>
        <time>2026-08-29T13:59:56Z</time>
      </trkpt>
      <trkpt lat="47.51433" lon="-2.84646">
        <ele>6.7</ele>
        <time>2026-08-29T13:59:57Z</time>
      </trkpt>
      <trkpt lat="47.51429" lon="-2.84644">
        <ele>6.8</ele>
        <time>2026-08-29T13:59:58Z</time>
      </trkpt>
      <trkpt lat="47.51426" lon="-2.84642">
        <ele>6.9</ele>
        <time>2026-08-29T13:59:59Z</time>
      </trkpt>
      <trkpt lat="47.51422" lon="-2.8464">
        <ele>7</ele>
        <time>2026-08-29T14:00:00Z</time>
      </trkpt>
      <trkpt lat="47.51419" lon="-2.84638">
        <ele>7.1</ele>
        <time>2026-08-29T14:00:01Z</time>
      </trkpt>
      <trkpt lat="47.51415" lon="-2.84636">
        <ele>7.2</ele>
        <time>2026-08-29T14:00:02Z</time>
      </trkpt>
      <trkpt lat="47.51411" lon="-2.84634">
        <ele>7.3</ele>
        <time>2026-08-29T14:00:03Z</time>
      </trkpt>
      <trkpt lat="47.51408" lon="-2.84632">
        <ele>7.4</ele>
        <time>2026-08-29T14:00:04Z</time>
      </trkpt>
      <trkpt lat="47.51404" lon="-2.8463">
        <ele>7.5</ele>
        <time>2026-08-29T14:00:05Z</time>
      </trkpt>
      <trkpt lat="47.514" lon="-2.84627">
        <ele>7.6</ele>
        <time>2026-08-29T14:00:06Z</time>
      </trkpt>
      <trkpt lat="47.51397" lon="-2.84625">
        <ele>7.6</ele>
        <time>2026-08-29T14:00:07Z</time>
      </trkpt>
      <trkpt lat="47.51393" lon="-2.84623">
        <ele>7.7</ele>
        <time>2026-08-29T14:00:08Z</time>
      </trkpt>
      <trkpt lat="47.51389" lon="-2.8462">
        <ele>7.7</ele>
        <time>2026-08-29T14:00:09Z</time>
      </trkpt>
      <trkpt lat="47.51385" lon="-2.84619">
        <ele>7.7</ele>
        <time>2026-08-29T14:00:10Z</time>
      </trkpt>
      <trkpt lat="47.51381" lon="-2.84617">
        <ele>7.8</ele>
        <time>2026-08-29T14:00:11Z</time>
      </trkpt>
      <trkpt lat="47.51377" lon="-2.84616">
        <ele>7.8</ele>
        <time>2026-08-29T14:00:12Z</time>
      </trkpt>
      <trkpt lat="47.51373" lon="-2.84615">
        <ele>7.9</ele>
        <time>2026-08-29T14:00:13Z</time>
      </trkpt>
      <trkpt lat="47.5137" lon="-2.84613">
        <ele>7.9</ele>
        <time>2026-08-29T14:00:14Z</time>
      </trkpt>
      <trkpt lat="47.51366" lon="-2.84611">
        <ele>8</ele>
        <time>2026-08-29T14:00:15Z</time>
      </trkpt>
      <trkpt lat="47.51362" lon="-2.84608">
        <ele>8.1</ele>
        <time>2026-08-29T14:00:16Z</time>
      </trkpt>
      <trkpt lat="47.51358" lon="-2.84606">
        <ele>8.2</ele>
        <time>2026-08-29T14:00:17Z</time>
      </trkpt>
      <trkpt lat="47.51355" lon="-2.84604">
        <ele>8.3</ele>
        <time>2026-08-29T14:00:18Z</time>
      </trkpt>
      <trkpt lat="47.51351" lon="-2.84602">
        <ele>8.3</ele>
        <time>2026-08-29T14:00:19Z</time>
      </trkpt>
      <trkpt lat="47.51348" lon="-2.84601">
        <ele>8.4</ele>
        <time>2026-08-29T14:00:20Z</time>
      </trkpt>
      <trkpt lat="47.51344" lon="-2.84599">
        <ele>8.4</ele>
        <time>2026-08-29T14:00:21Z</time>
      </trkpt>
      <trkpt lat="47.5134" lon="-2.84597">
        <ele>8.5</ele>
        <time>2026-08-29T14:00:22Z</time>
      </trkpt>
      <trkpt lat="47.51336" lon="-2.84595">
        <ele>8.6</ele>
        <time>2026-08-29T14:00:23Z</time>
      </trkpt>
      <trkpt lat="47.51333" lon="-2.84593">
        <ele>8.6</ele>
        <time>2026-08-29T14:00:24Z</time>
      </trkpt>
      <trkpt lat="47.51329" lon="-2.84592">
        <ele>8.5</ele>
        <time>2026-08-29T14:00:25Z</time>
      </trkpt>
      <trkpt lat="47.51325" lon="-2.8459">
        <ele>8.5</ele>
        <time>2026-08-29T14:00:26Z</time>
      </trkpt>
      <trkpt lat="47.51321" lon="-2.84588">
        <ele>8.4</ele>
        <time>2026-08-29T14:00:27Z</time>
      </trkpt>
      <trkpt lat="47.51318" lon="-2.84586">
        <ele>8.4</ele>
        <time>2026-08-29T14:00:28Z</time>
      </trkpt>
      <trkpt lat="47.51314" lon="-2.84584">
        <ele>8.3</ele>
        <time>2026-08-29T14:00:29Z</time>
      </trkpt>
      <trkpt lat="47.5131" lon="-2.84582">
        <ele>8.3</ele>
        <time>2026-08-29T14:00:30Z</time>
      </trkpt>
      <trkpt lat="47.51306" lon="-2.8458">
        <ele>8.3</ele>
        <time>2026-08-29T14:00:31Z</time>
      </trkpt>
      <trkpt lat="47.51302" lon="-2.84578">
        <ele>8.3</ele>
        <time>2026-08-29T14:00:32Z</time>
      </trkpt>
      <trkpt lat="47.51299" lon="-2.84576">
        <ele>8.4</ele>
        <time>2026-08-29T14:00:33Z</time>
      </trkpt>
      <trkpt lat="47.51295" lon="-2.84574">
        <ele>8.4</ele>
        <time>2026-08-29T14:00:34Z</time>
      </trkpt>
      <trkpt lat="47.51291" lon="-2.84572">
        <ele>8.5</ele>
        <time>2026-08-29T14:00:35Z</time>
      </trkpt>
      <trkpt lat="47.51288" lon="-2.8457">
        <ele>8.6</ele>
        <time>2026-08-29T14:00:36Z</time>
      </trkpt>
      <trkpt lat="47.51284" lon="-2.84568">
        <ele>8.8</ele>
        <time>2026-08-29T14:00:37Z</time>
      </trkpt>
      <trkpt lat="47.51281" lon="-2.84567">
        <ele>8.8</ele>
        <time>2026-08-29T14:00:38Z</time>
      </trkpt>
      <trkpt lat="47.51277" lon="-2.84566">
        <ele>8.8</ele>
        <time>2026-08-29T14:00:39Z</time>
      </trkpt>
      <trkpt lat="47.51273" lon="-2.84564">
        <ele>8.8</ele>
        <time>2026-08-29T14:00:40Z</time>
      </trkpt>
      <trkpt lat="47.5127" lon="-2.84562">
        <ele>8.9</ele>
        <time>2026-08-29T14:00:41Z</time>
      </trkpt>
      <trkpt lat="47.51266" lon="-2.84561">
        <ele>8.7</ele>
        <time>2026-08-29T14:00:42Z</time>
      </trkpt>
      <trkpt lat="47.51263" lon="-2.84559">
        <ele>8.7</ele>
        <time>2026-08-29T14:00:43Z</time>
      </trkpt>
      <trkpt lat="47.51259" lon="-2.84557">
        <ele>8.6</ele>
        <time>2026-08-29T14:00:44Z</time>
      </trkpt>
      <trkpt lat="47.51255" lon="-2.84556">
        <ele>8.3</ele>
        <time>2026-08-29T14:00:45Z</time>
      </trkpt>
      <trkpt lat="47.51251" lon="-2.84554">
        <ele>8.2</ele>
        <time>2026-08-29T14:00:46Z</time>
      </trkpt>
      <trkpt lat="47.51247" lon="-2.84553">
        <ele>8.3</ele>
        <time>2026-08-29T14:00:47Z</time>
      </trkpt>
      <trkpt lat="47.51243" lon="-2.84552">
        <ele>8.5</ele>
        <time>2026-08-29T14:00:48Z</time>
      </trkpt>
      <trkpt lat="47.51239" lon="-2.84551">
        <ele>8.7</ele>
        <time>2026-08-29T14:00:49Z</time>
      </trkpt>
      <trkpt lat="47.51235" lon="-2.8455">
        <ele>8.8</ele>
        <time>2026-08-29T14:00:50Z</time>
      </trkpt>
      <trkpt lat="47.51231" lon="-2.84549">
        <ele>9</ele>
        <time>2026-08-29T14:00:51Z</time>
      </trkpt>
      <trkpt lat="47.51227" lon="-2.84548">
        <ele>9.1</ele>
        <time>2026-08-29T14:00:52Z</time>
      </trkpt>
      <trkpt lat="47.51223" lon="-2.84547">
        <ele>9.3</ele>
        <time>2026-08-29T14:00:53Z</time>
      </trkpt>
      <trkpt lat="47.5122" lon="-2.84546">
        <ele>9.4</ele>
        <time>2026-08-29T14:00:54Z</time>
      </trkpt>
      <trkpt lat="47.51216" lon="-2.84545">
        <ele>9.6</ele>
        <time>2026-08-29T14:00:55Z</time>
      </trkpt>
      <trkpt lat="47.51212" lon="-2.84545">
        <ele>9.7</ele>
        <time>2026-08-29T14:00:56Z</time>
      </trkpt>
      <trkpt lat="47.51209" lon="-2.84544">
        <ele>9.9</ele>
        <time>2026-08-29T14:00:57Z</time>
      </trkpt>
      <trkpt lat="47.51206" lon="-2.84543">
        <ele>10</ele>
        <time>2026-08-29T14:00:58Z</time>
      </trkpt>
      <trkpt lat="47.51203" lon="-2.84542">
        <ele>10.2</ele>
        <time>2026-08-29T14:00:59Z</time>
      </trkpt>
      <trkpt lat="47.512" lon="-2.84541">
        <ele>10.3</ele>
        <time>2026-08-29T14:01:00Z</time>
      </trkpt>
      <trkpt lat="47.51196" lon="-2.84541">
        <ele>10.5</ele>
        <time>2026-08-29T14:01:01Z</time>
      </trkpt>
      <trkpt lat="47.51193" lon="-2.84542">
        <ele>10.6</ele>
        <time>2026-08-29T14:01:02Z</time>
      </trkpt>
      <trkpt lat="47.51191" lon="-2.84545">
        <ele>10.6</ele>
        <time>2026-08-29T14:01:03Z</time>
      </trkpt>
      <trkpt lat="47.51189" lon="-2.8455">
        <ele>10.6</ele>
        <time>2026-08-29T14:01:04Z</time>
      </trkpt>
      <trkpt lat="47.51188" lon="-2.84555">
        <ele>10.5</ele>
        <time>2026-08-29T14:01:05Z</time>
      </trkpt>
      <trkpt lat="47.51187" lon="-2.8456">
        <ele>10.8</ele>
        <time>2026-08-29T14:01:06Z</time>
      </trkpt>
      <trkpt lat="47.51185" lon="-2.84565">
        <ele>11.1</ele>
        <time>2026-08-29T14:01:07Z</time>
      </trkpt>
      <trkpt lat="47.51183" lon="-2.84569">
        <ele>11.4</ele>
        <time>2026-08-29T14:01:08Z</time>
      </trkpt>
      <trkpt lat="47.51181" lon="-2.84572">
        <ele>11.6</ele>
        <time>2026-08-29T14:01:09Z</time>
      </trkpt>
      <trkpt lat="47.51178" lon="-2.84574">
        <ele>11.7</ele>
        <time>2026-08-29T14:01:10Z</time>
      </trkpt>
      <trkpt lat="47.51175" lon="-2.84576">
        <ele>11.8</ele>
        <time>2026-08-29T14:01:11Z</time>
      </trkpt>
      <trkpt lat="47.51173" lon="-2.84578">
        <ele>11.9</ele>
        <time>2026-08-29T14:01:12Z</time>
      </trkpt>
      <trkpt lat="47.5117" lon="-2.8458">
        <ele>12</ele>
        <time>2026-08-29T14:01:13Z</time>
      </trkpt>
      <trkpt lat="47.51167" lon="-2.84581">
        <ele>12</ele>
        <time>2026-08-29T14:01:14Z</time>
      </trkpt>
      <trkpt lat="47.51165" lon="-2.84582">
        <ele>12.1</ele>
        <time>2026-08-29T14:01:15Z</time>
      </trkpt>
      <trkpt lat="47.51163" lon="-2.84583">
        <ele>12.3</ele>
        <time>2026-08-29T14:01:16Z</time>
      </trkpt>
      <trkpt lat="47.51161" lon="-2.84584">
        <ele>12.5</ele>
        <time>2026-08-29T14:01:17Z</time>
      </trkpt>
      <trkpt lat="47.51159" lon="-2.84586">
        <ele>12.7</ele>
        <time>2026-08-29T14:01:18Z</time>
      </trkpt>
      <trkpt lat="47.51157" lon="-2.84587">
        <ele>12.9</ele>
        <time>2026-08-29T14:01:19Z</time>
      </trkpt>
      <trkpt lat="47.51155" lon="-2.84588">
        <ele>13.1</ele>
        <time>2026-08-29T14:01:20Z</time>
      </trkpt>
      <trkpt lat="47.51154" lon="-2.84589">
        <ele>13.2</ele>
        <time>2026-08-29T14:01:21Z</time>
      </trkpt>
      <trkpt lat="47.51152" lon="-2.84591">
        <ele>13.5</ele>
        <time>2026-08-29T14:01:22Z</time>
      </trkpt>
      <trkpt lat="47.5115" lon="-2.84592">
        <ele>13.6</ele>
        <time>2026-08-29T14:01:23Z</time>
      </trkpt>
      <trkpt lat="47.51148" lon="-2.84594">
        <ele>13.9</ele>
        <time>2026-08-29T14:01:24Z</time>
      </trkpt>
      <trkpt lat="47.51146" lon="-2.84595">
        <ele>14</ele>
        <time>2026-08-29T14:01:25Z</time>
      </trkpt>
      <trkpt lat="47.51144" lon="-2.84597">
        <ele>14.2</ele>
        <time>2026-08-29T14:01:26Z</time>
      </trkpt>
      <trkpt lat="47.51142" lon="-2.84598">
        <ele>14.4</ele>
        <time>2026-08-29T14:01:27Z</time>
      </trkpt>
      <trkpt lat="47.5114" lon="-2.84599">
        <ele>14.5</ele>
        <time>2026-08-29T14:01:28Z</time>
      </trkpt>
      <trkpt lat="47.51138" lon="-2.84601">
        <ele>14.7</ele>
        <time>2026-08-29T14:01:29Z</time>
      </trkpt>
      <trkpt lat="47.51135" lon="-2.84602">
        <ele>14.8</ele>
        <time>2026-08-29T14:01:30Z</time>
      </trkpt>
      <trkpt lat="47.51133" lon="-2.84603">
        <ele>14.9</ele>
        <time>2026-08-29T14:01:31Z</time>
      </trkpt>
      <trkpt lat="47.51131" lon="-2.84604">
        <ele>15</ele>
        <time>2026-08-29T14:01:32Z</time>
      </trkpt>
      <trkpt lat="47.51129" lon="-2.84605">
        <ele>15.1</ele>
        <time>2026-08-29T14:01:33Z</time>
      </trkpt>
      <trkpt lat="47.51127" lon="-2.84606">
        <ele>15.2</ele>
        <time>2026-08-29T14:01:34Z</time>
      </trkpt>
      <trkpt lat="47.51125" lon="-2.84606">
        <ele>15.3</ele>
        <time>2026-08-29T14:01:35Z</time>
      </trkpt>
      <trkpt lat="47.51123" lon="-2.84607">
        <ele>15.4</ele>
        <time>2026-08-29T14:01:36Z</time>
      </trkpt>
      <trkpt lat="47.5112" lon="-2.84607">
        <ele>15.5</ele>
        <time>2026-08-29T14:01:37Z</time>
      </trkpt>
      <trkpt lat="47.51118" lon="-2.84608">
        <ele>15.6</ele>
        <time>2026-08-29T14:01:38Z</time>
      </trkpt>
      <trkpt lat="47.51115" lon="-2.84609">
        <ele>15.8</ele>
        <time>2026-08-29T14:01:39Z</time>
      </trkpt>
      <trkpt lat="47.51113" lon="-2.84609">
        <ele>15.9</ele>
        <time>2026-08-29T14:01:40Z</time>
      </trkpt>
      <trkpt lat="47.51111" lon="-2.8461">
        <ele>16</ele>
        <time>2026-08-29T14:01:41Z</time>
      </trkpt>
      <trkpt lat="47.51109" lon="-2.84611">
        <ele>16.1</ele>
        <time>2026-08-29T14:01:42Z</time>
      </trkpt>
      <trkpt lat="47.51106" lon="-2.84612">
        <ele>16.2</ele>
        <time>2026-08-29T14:01:43Z</time>
      </trkpt>
      <trkpt lat="47.51104" lon="-2.84612">
        <ele>16.3</ele>
        <time>2026-08-29T14:01:44Z</time>
      </trkpt>
      <trkpt lat="47.51102" lon="-2.84613">
        <ele>16.3</ele>
        <time>2026-08-29T14:01:45Z</time>
      </trkpt>
      <trkpt lat="47.511" lon="-2.84613">
        <ele>16.4</ele>
        <time>2026-08-29T14:01:46Z</time>
      </trkpt>
      <trkpt lat="47.51097" lon="-2.84613">
        <ele>16.5</ele>
        <time>2026-08-29T14:01:47Z</time>
      </trkpt>
      <trkpt lat="47.51095" lon="-2.84613">
        <ele>16.6</ele>
        <time>2026-08-29T14:01:48Z</time>
      </trkpt>
      <trkpt lat="47.51093" lon="-2.84613">
        <ele>16.7</ele>
        <time>2026-08-29T14:01:49Z</time>
      </trkpt>
      <trkpt lat="47.51091" lon="-2.84613">
        <ele>16.7</ele>
        <time>2026-08-29T14:01:50Z</time>
      </trkpt>
      <trkpt lat="47.51089" lon="-2.84613">
        <ele>16.8</ele>
        <time>2026-08-29T14:01:51Z</time>
      </trkpt>
      <trkpt lat="47.51086" lon="-2.84613">
        <ele>16.9</ele>
        <time>2026-08-29T14:01:52Z</time>
      </trkpt>
      <trkpt lat="47.51084" lon="-2.84613">
        <ele>17</ele>
        <time>2026-08-29T14:01:53Z</time>
      </trkpt>
      <trkpt lat="47.51082" lon="-2.84613">
        <ele>17</ele>
        <time>2026-08-29T14:01:54Z</time>
      </trkpt>
      <trkpt lat="47.51079" lon="-2.84612">
        <ele>17</ele>
        <time>2026-08-29T14:01:55Z</time>
      </trkpt>
      <trkpt lat="47.51077" lon="-2.84612">
        <ele>17</ele>
        <time>2026-08-29T14:01:56Z</time>
      </trkpt>
      <trkpt lat="47.51074" lon="-2.84612">
        <ele>17</ele>
        <time>2026-08-29T14:01:57Z</time>
      </trkpt>
      <trkpt lat="47.51072" lon="-2.84611">
        <ele>17</ele>
        <time>2026-08-29T14:01:58Z</time>
      </trkpt>
      <trkpt lat="47.5107" lon="-2.8461">
        <ele>17</ele>
        <time>2026-08-29T14:01:59Z</time>
      </trkpt>
      <trkpt lat="47.51068" lon="-2.84609">
        <ele>17</ele>
        <time>2026-08-29T14:02:00Z</time>
      </trkpt>
      <trkpt lat="47.51065" lon="-2.84609">
        <ele>17</ele>
        <time>2026-08-29T14:02:01Z</time>
      </trkpt>
      <trkpt lat="47.51062" lon="-2.84609">
        <ele>17</ele>
        <time>2026-08-29T14:02:02Z</time>
      </trkpt>
      <trkpt lat="47.5106" lon="-2.84608">
        <ele>17</ele>
        <time>2026-08-29T14:02:03Z</time>
      </trkpt>
      <trkpt lat="47.51057" lon="-2.84608">
        <ele>17</ele>
        <time>2026-08-29T14:02:04Z</time>
      </trkpt>
      <trkpt lat="47.51054" lon="-2.84608">
        <ele>17.1</ele>
        <time>2026-08-29T14:02:05Z</time>
      </trkpt>
      <trkpt lat="47.51052" lon="-2.84608">
        <ele>17.1</ele>
        <time>2026-08-29T14:02:06Z</time>
      </trkpt>
      <trkpt lat="47.51049" lon="-2.84608">
        <ele>17.2</ele>
        <time>2026-08-29T14:02:07Z</time>
      </trkpt>
      <trkpt lat="47.51047" lon="-2.84607">
        <ele>17.3</ele>
        <time>2026-08-29T14:02:08Z</time>
      </trkpt>
      <trkpt lat="47.51044" lon="-2.84607">
        <ele>17.4</ele>
        <time>2026-08-29T14:02:09Z</time>
      </trkpt>
      <trkpt lat="47.51041" lon="-2.84607">
        <ele>17.5</ele>
        <time>2026-08-29T14:02:10Z</time>
      </trkpt>
      <trkpt lat="47.51038" lon="-2.84607">
        <ele>17.6</ele>
        <time>2026-08-29T14:02:11Z</time>
      </trkpt>
      <trkpt lat="47.51036" lon="-2.84607">
        <ele>17.7</ele>
        <time>2026-08-29T14:02:12Z</time>
      </trkpt>
      <trkpt lat="47.51033" lon="-2.84607">
        <ele>17.8</ele>
        <time>2026-08-29T14:02:13Z</time>
      </trkpt>
      <trkpt lat="47.5103" lon="-2.84607">
        <ele>17.9</ele>
        <time>2026-08-29T14:02:14Z</time>
      </trkpt>
      <trkpt lat="47.51028" lon="-2.84606">
        <ele>18</ele>
        <time>2026-08-29T14:02:15Z</time>
      </trkpt>
      <trkpt lat="47.51025" lon="-2.84606">
        <ele>18.1</ele>
        <time>2026-08-29T14:02:16Z</time>
      </trkpt>
      <trkpt lat="47.51022" lon="-2.84606">
        <ele>18.2</ele>
        <time>2026-08-29T14:02:17Z</time>
      </trkpt>
      <trkpt lat="47.5102" lon="-2.84607">
        <ele>18.3</ele>
        <time>2026-08-29T14:02:18Z</time>
      </trkpt>
      <trkpt lat="47.51017" lon="-2.84607">
        <ele>18.4</ele>
        <time>2026-08-29T14:02:19Z</time>
      </trkpt>
      <trkpt lat="47.51015" lon="-2.84608">
        <ele>18.5</ele>
        <time>2026-08-29T14:02:20Z</time>
      </trkpt>
      <trkpt lat="47.51012" lon="-2.84608">
        <ele>18.6</ele>
        <time>2026-08-29T14:02:21Z</time>
      </trkpt>
      <trkpt lat="47.51009" lon="-2.84607">
        <ele>18.8</ele>
        <time>2026-08-29T14:02:22Z</time>
      </trkpt>
      <trkpt lat="47.51007" lon="-2.84607">
        <ele>18.9</ele>
        <time>2026-08-29T14:02:23Z</time>
      </trkpt>
      <trkpt lat="47.51004" lon="-2.84607">
        <ele>19</ele>
        <time>2026-08-29T14:02:24Z</time>
      </trkpt>
      <trkpt lat="47.51001" lon="-2.84606">
        <ele>19.1</ele>
        <time>2026-08-29T14:02:25Z</time>
      </trkpt>
      <trkpt lat="47.50999" lon="-2.84606">
        <ele>19.2</ele>
        <time>2026-08-29T14:02:26Z</time>
      </trkpt>
      <trkpt lat="47.50997" lon="-2.84606">
        <ele>19.3</ele>
        <time>2026-08-29T14:02:27Z</time>
      </trkpt>
      <trkpt lat="47.50995" lon="-2.84605">
        <ele>19.4</ele>
        <time>2026-08-29T14:02:28Z</time>
      </trkpt>
      <trkpt lat="47.50992" lon="-2.84605">
        <ele>19.5</ele>
        <time>2026-08-29T14:02:29Z</time>
      </trkpt>
      <trkpt lat="47.5099" lon="-2.84605">
        <ele>19.6</ele>
        <time>2026-08-29T14:02:30Z</time>
      </trkpt>
      <trkpt lat="47.50988" lon="-2.84604">
        <ele>19.7</ele>
        <time>2026-08-29T14:02:31Z</time>
      </trkpt>
      <trkpt lat="47.50986" lon="-2.84604">
        <ele>19.8</ele>
        <time>2026-08-29T14:02:32Z</time>
      </trkpt>
      <trkpt lat="47.50984" lon="-2.84603">
        <ele>19.9</ele>
        <time>2026-08-29T14:02:33Z</time>
      </trkpt>
      <trkpt lat="47.50982" lon="-2.84603">
        <ele>19.9</ele>
        <time>2026-08-29T14:02:34Z</time>
      </trkpt>
      <trkpt lat="47.50979" lon="-2.84602">
        <ele>20.1</ele>
        <time>2026-08-29T14:02:35Z</time>
      </trkpt>
      <trkpt lat="47.50977" lon="-2.84602">
        <ele>20.2</ele>
        <time>2026-08-29T14:02:36Z</time>
      </trkpt>
      <trkpt lat="47.50975" lon="-2.84603">
        <ele>20.2</ele>
        <time>2026-08-29T14:02:37Z</time>
      </trkpt>
      <trkpt lat="47.50972" lon="-2.84603">
        <ele>20.3</ele>
        <time>2026-08-29T14:02:38Z</time>
      </trkpt>
      <trkpt lat="47.5097" lon="-2.84603">
        <ele>20.5</ele>
        <time>2026-08-29T14:02:39Z</time>
      </trkpt>
      <trkpt lat="47.50968" lon="-2.84604">
        <ele>20.6</ele>
        <time>2026-08-29T14:02:40Z</time>
      </trkpt>
      <trkpt lat="47.50965" lon="-2.84605">
        <ele>20.7</ele>
        <time>2026-08-29T14:02:41Z</time>
      </trkpt>
      <trkpt lat="47.50963" lon="-2.84605">
        <ele>20.9</ele>
        <time>2026-08-29T14:02:42Z</time>
      </trkpt>
      <trkpt lat="47.50961" lon="-2.84606">
        <ele>21</ele>
        <time>2026-08-29T14:02:43Z</time>
      </trkpt>
      <trkpt lat="47.50959" lon="-2.84607">
        <ele>21.1</ele>
        <time>2026-08-29T14:02:44Z</time>
      </trkpt>
      <trkpt lat="47.50957" lon="-2.84607">
        <ele>21.2</ele>
        <time>2026-08-29T14:02:45Z</time>
      </trkpt>
      <trkpt lat="47.50954" lon="-2.84607">
        <ele>21.5</ele>
        <time>2026-08-29T14:02:46Z</time>
      </trkpt>
      <trkpt lat="47.50952" lon="-2.84607">
        <ele>21.6</ele>
        <time>2026-08-29T14:02:47Z</time>
      </trkpt>
      <trkpt lat="47.5095" lon="-2.84608">
        <ele>21.7</ele>
        <time>2026-08-29T14:02:48Z</time>
      </trkpt>
      <trkpt lat="47.50947" lon="-2.84608">
        <ele>21.9</ele>
        <time>2026-08-29T14:02:49Z</time>
      </trkpt>
      <trkpt lat="47.50945" lon="-2.84608">
        <ele>22.1</ele>
        <time>2026-08-29T14:02:50Z</time>
      </trkpt>
      <trkpt lat="47.50943" lon="-2.84609">
        <ele>22.2</ele>
        <time>2026-08-29T14:02:51Z</time>
      </trkpt>
      <trkpt lat="47.5094" lon="-2.84609">
        <ele>22.4</ele>
        <time>2026-08-29T14:02:52Z</time>
      </trkpt>
      <trkpt lat="47.50938" lon="-2.84609">
        <ele>22.5</ele>
        <time>2026-08-29T14:02:53Z</time>
      </trkpt>
      <trkpt lat="47.50935" lon="-2.8461">
        <ele>22.7</ele>
        <time>2026-08-29T14:02:54Z</time>
      </trkpt>
      <trkpt lat="47.50933" lon="-2.8461">
        <ele>22.9</ele>
        <time>2026-08-29T14:02:55Z</time>
      </trkpt>
      <trkpt lat="47.50931" lon="-2.84611">
        <ele>23</ele>
        <time>2026-08-29T14:02:56Z</time>
      </trkpt>
      <trkpt lat="47.50928" lon="-2.84612">
        <ele>23.2</ele>
        <time>2026-08-29T14:02:57Z</time>
      </trkpt>
      <trkpt lat="47.50926" lon="-2.84612">
        <ele>23.3</ele>
        <time>2026-08-29T14:02:58Z</time>
      </trkpt>
      <trkpt lat="47.50924" lon="-2.84612">
        <ele>23.4</ele>
        <time>2026-08-29T14:02:59Z</time>
      </trkpt>
      <trkpt lat="47.50921" lon="-2.84613">
        <ele>23.6</ele>
        <time>2026-08-29T14:03:00Z</time>
      </trkpt>
      <trkpt lat="47.50919" lon="-2.84613">
        <ele>23.8</ele>
        <time>2026-08-29T14:03:01Z</time>
      </trkpt>
      <trkpt lat="47.50917" lon="-2.84614">
        <ele>23.9</ele>
        <time>2026-08-29T14:03:02Z</time>
      </trkpt>
      <trkpt lat="47.50915" lon="-2.84615">
        <ele>24</ele>
        <time>2026-08-29T14:03:03Z</time>
      </trkpt>
      <trkpt lat="47.50912" lon="-2.84616">
        <ele>24.2</ele>
        <time>2026-08-29T14:03:04Z</time>
      </trkpt>
      <trkpt lat="47.5091" lon="-2.84616">
        <ele>24.3</ele>
        <time>2026-08-29T14:03:05Z</time>
      </trkpt>
      <trkpt lat="47.50908" lon="-2.84617">
        <ele>24.4</ele>
        <time>2026-08-29T14:03:06Z</time>
      </trkpt>
      <trkpt lat="47.50906" lon="-2.84617">
        <ele>24.6</ele>
        <time>2026-08-29T14:03:07Z</time>
      </trkpt>
      <trkpt lat="47.50904" lon="-2.84618">
        <ele>24.7</ele>
        <time>2026-08-29T14:03:08Z</time>
      </trkpt>
      <trkpt lat="47.50902" lon="-2.84619">
        <ele>24.8</ele>
        <time>2026-08-29T14:03:09Z</time>
      </trkpt>
      <trkpt lat="47.509" lon="-2.8462">
        <ele>24.9</ele>
        <time>2026-08-29T14:03:10Z</time>
      </trkpt>
      <trkpt lat="47.50898" lon="-2.8462">
        <ele>25</ele>
        <time>2026-08-29T14:03:11Z</time>
      </trkpt>
      <trkpt lat="47.50896" lon="-2.84621">
        <ele>25.1</ele>
        <time>2026-08-29T14:03:12Z</time>
      </trkpt>
      <trkpt lat="47.50893" lon="-2.84622">
        <ele>25.3</ele>
        <time>2026-08-29T14:03:13Z</time>
      </trkpt>
      <trkpt lat="47.50891" lon="-2.84622">
        <ele>25.5</ele>
        <time>2026-08-29T14:03:14Z</time>
      </trkpt>
      <trkpt lat="47.50889" lon="-2.84623">
        <ele>25.6</ele>
        <time>2026-08-29T14:03:15Z</time>
      </trkpt>
      <trkpt lat="47.50887" lon="-2.84624">
        <ele>25.6</ele>
        <time>2026-08-29T14:03:16Z</time>
      </trkpt>
      <trkpt lat="47.50885" lon="-2.84624">
        <ele>25.7</ele>
        <time>2026-08-29T14:03:17Z</time>
      </trkpt>
      <trkpt lat="47.50883" lon="-2.84625">
        <ele>25.8</ele>
        <time>2026-08-29T14:03:18Z</time>
      </trkpt>
      <trkpt lat="47.50881" lon="-2.84626">
        <ele>25.9</ele>
        <time>2026-08-29T14:03:19Z</time>
      </trkpt>
      <trkpt lat="47.50879" lon="-2.84626">
        <ele>26</ele>
        <time>2026-08-29T14:03:20Z</time>
      </trkpt>
      <trkpt lat="47.50876" lon="-2.84627">
        <ele>26.2</ele>
        <time>2026-08-29T14:03:21Z</time>
      </trkpt>
      <trkpt lat="47.50874" lon="-2.84628">
        <ele>26.3</ele>
        <time>2026-08-29T14:03:22Z</time>
      </trkpt>
      <trkpt lat="47.50872" lon="-2.84628">
        <ele>26.4</ele>
        <time>2026-08-29T14:03:23Z</time>
      </trkpt>
      <trkpt lat="47.5087" lon="-2.84628">
        <ele>26.5</ele>
        <time>2026-08-29T14:03:24Z</time>
      </trkpt>
      <trkpt lat="47.50867" lon="-2.84629">
        <ele>26.7</ele>
        <time>2026-08-29T14:03:25Z</time>
      </trkpt>
      <trkpt lat="47.50865" lon="-2.8463">
        <ele>26.8</ele>
        <time>2026-08-29T14:03:26Z</time>
      </trkpt>
      <trkpt lat="47.50863" lon="-2.84631">
        <ele>26.9</ele>
        <time>2026-08-29T14:03:27Z</time>
      </trkpt>
      <trkpt lat="47.5086" lon="-2.84631">
        <ele>27</ele>
        <time>2026-08-29T14:03:28Z</time>
      </trkpt>
      <trkpt lat="47.50858" lon="-2.84632">
        <ele>27</ele>
        <time>2026-08-29T14:03:29Z</time>
      </trkpt>
      <trkpt lat="47.50856" lon="-2.84633">
        <ele>27</ele>
        <time>2026-08-29T14:03:30Z</time>
      </trkpt>
      <trkpt lat="47.50854" lon="-2.84633">
        <ele>27.1</ele>
        <time>2026-08-29T14:03:31Z</time>
      </trkpt>
      <trkpt lat="47.50852" lon="-2.84634">
        <ele>27.1</ele>
        <time>2026-08-29T14:03:32Z</time>
      </trkpt>
      <trkpt lat="47.50849" lon="-2.84634">
        <ele>27.1</ele>
        <time>2026-08-29T14:03:33Z</time>
      </trkpt>
      <trkpt lat="47.50847" lon="-2.84635">
        <ele>27.1</ele>
        <time>2026-08-29T14:03:34Z</time>
      </trkpt>
      <trkpt lat="47.50845" lon="-2.84635">
        <ele>27.1</ele>
        <time>2026-08-29T14:03:35Z</time>
      </trkpt>
      <trkpt lat="47.50842" lon="-2.84635">
        <ele>27.1</ele>
        <time>2026-08-29T14:03:36Z</time>
      </trkpt>
      <trkpt lat="47.5084" lon="-2.84635">
        <ele>27.1</ele>
        <time>2026-08-29T14:03:37Z</time>
      </trkpt>
      <trkpt lat="47.50837" lon="-2.84635">
        <ele>27.1</ele>
        <time>2026-08-29T14:03:38Z</time>
      </trkpt>
      <trkpt lat="47.50835" lon="-2.84635">
        <ele>27.1</ele>
        <time>2026-08-29T14:03:39Z</time>
      </trkpt>
      <trkpt lat="47.50833" lon="-2.84635">
        <ele>27.2</ele>
        <time>2026-08-29T14:03:40Z</time>
      </trkpt>
      <trkpt lat="47.5083" lon="-2.84635">
        <ele>27.3</ele>
        <time>2026-08-29T14:03:41Z</time>
      </trkpt>
      <trkpt lat="47.50828" lon="-2.84634">
        <ele>27.4</ele>
        <time>2026-08-29T14:03:42Z</time>
      </trkpt>
      <trkpt lat="47.50825" lon="-2.84634">
        <ele>27.5</ele>
        <time>2026-08-29T14:03:43Z</time>
      </trkpt>
      <trkpt lat="47.50823" lon="-2.84634">
        <ele>27.5</ele>
        <time>2026-08-29T14:03:44Z</time>
      </trkpt>
      <trkpt lat="47.50821" lon="-2.84633">
        <ele>27.7</ele>
        <time>2026-08-29T14:03:45Z</time>
      </trkpt>
      <trkpt lat="47.50819" lon="-2.84632">
        <ele>27.8</ele>
        <time>2026-08-29T14:03:46Z</time>
      </trkpt>
      <trkpt lat="47.50816" lon="-2.84631">
        <ele>27.9</ele>
        <time>2026-08-29T14:03:47Z</time>
      </trkpt>
      <trkpt lat="47.50814" lon="-2.8463">
        <ele>28</ele>
        <time>2026-08-29T14:03:48Z</time>
      </trkpt>
      <trkpt lat="47.50812" lon="-2.8463">
        <ele>28.1</ele>
        <time>2026-08-29T14:03:49Z</time>
      </trkpt>
      <trkpt lat="47.50809" lon="-2.84628">
        <ele>28.3</ele>
        <time>2026-08-29T14:03:50Z</time>
      </trkpt>
      <trkpt lat="47.50807" lon="-2.84627">
        <ele>28.4</ele>
        <time>2026-08-29T14:03:51Z</time>
      </trkpt>
      <trkpt lat="47.50806" lon="-2.84627">
        <ele>28.4</ele>
        <time>2026-08-29T14:03:52Z</time>
      </trkpt>
      <trkpt lat="47.50805" lon="-2.84625">
        <ele>28.5</ele>
        <time>2026-08-29T14:03:53Z</time>
      </trkpt>
      <trkpt lat="47.50804" lon="-2.84624">
        <ele>28.5</ele>
        <time>2026-08-29T14:03:54Z</time>
      </trkpt>
      <trkpt lat="47.50802" lon="-2.84622">
        <ele>28.6</ele>
        <time>2026-08-29T14:03:55Z</time>
      </trkpt>
      <trkpt lat="47.508" lon="-2.8462">
        <ele>28.7</ele>
        <time>2026-08-29T14:03:56Z</time>
      </trkpt>
      <trkpt lat="47.50798" lon="-2.84619">
        <ele>28.7</ele>
        <time>2026-08-29T14:03:57Z</time>
      </trkpt>
      <trkpt lat="47.50796" lon="-2.84618">
        <ele>28.8</ele>
        <time>2026-08-29T14:03:58Z</time>
      </trkpt>
      <trkpt lat="47.50794" lon="-2.84617">
        <ele>28.8</ele>
        <time>2026-08-29T14:03:59Z</time>
      </trkpt>
      <trkpt lat="47.50792" lon="-2.84617">
        <ele>28.8</ele>
        <time>2026-08-29T14:04:00Z</time>
      </trkpt>
      <trkpt lat="47.50789" lon="-2.84617">
        <ele>28.8</ele>
        <time>2026-08-29T14:04:01Z</time>
      </trkpt>
      <trkpt lat="47.50786" lon="-2.84618">
        <ele>28.8</ele>
        <time>2026-08-29T14:04:02Z</time>
      </trkpt>
      <trkpt lat="47.50783" lon="-2.84619">
        <ele>28.7</ele>
        <time>2026-08-29T14:04:03Z</time>
      </trkpt>
      <trkpt lat="47.50781" lon="-2.8462">
        <ele>28.7</ele>
        <time>2026-08-29T14:04:04Z</time>
      </trkpt>
      <trkpt lat="47.50779" lon="-2.84622">
        <ele>28.6</ele>
        <time>2026-08-29T14:04:05Z</time>
      </trkpt>
      <trkpt lat="47.50776" lon="-2.84623">
        <ele>28.6</ele>
        <time>2026-08-29T14:04:06Z</time>
      </trkpt>
      <trkpt lat="47.50773" lon="-2.84624">
        <ele>28.5</ele>
        <time>2026-08-29T14:04:07Z</time>
      </trkpt>
      <trkpt lat="47.5077" lon="-2.84625">
        <ele>28.5</ele>
        <time>2026-08-29T14:04:08Z</time>
      </trkpt>
      <trkpt lat="47.50767" lon="-2.84626">
        <ele>28.5</ele>
        <time>2026-08-29T14:04:09Z</time>
      </trkpt>
      <trkpt lat="47.50764" lon="-2.84627">
        <ele>28.4</ele>
        <time>2026-08-29T14:04:10Z</time>
      </trkpt>
      <trkpt lat="47.50761" lon="-2.84628">
        <ele>28.4</ele>
        <time>2026-08-29T14:04:11Z</time>
      </trkpt>
      <trkpt lat="47.50758" lon="-2.84629">
        <ele>28.4</ele>
        <time>2026-08-29T14:04:12Z</time>
      </trkpt>
      <trkpt lat="47.50754" lon="-2.8463">
        <ele>28.3</ele>
        <time>2026-08-29T14:04:13Z</time>
      </trkpt>
      <trkpt lat="47.50751" lon="-2.84631">
        <ele>28.3</ele>
        <time>2026-08-29T14:04:14Z</time>
      </trkpt>
      <trkpt lat="47.50747" lon="-2.84633">
        <ele>28.2</ele>
        <time>2026-08-29T14:04:15Z</time>
      </trkpt>
      <trkpt lat="47.50743" lon="-2.84634">
        <ele>28.2</ele>
        <time>2026-08-29T14:04:16Z</time>
      </trkpt>
      <trkpt lat="47.50739" lon="-2.84636">
        <ele>28.1</ele>
        <time>2026-08-29T14:04:17Z</time>
      </trkpt>
      <trkpt lat="47.50735" lon="-2.84638">
        <ele>28</ele>
        <time>2026-08-29T14:04:18Z</time>
      </trkpt>
      <trkpt lat="47.50731" lon="-2.8464">
        <ele>27.9</ele>
        <time>2026-08-29T14:04:19Z</time>
      </trkpt>
      <trkpt lat="47.50727" lon="-2.84641">
        <ele>27.9</ele>
        <time>2026-08-29T14:04:20Z</time>
      </trkpt>
      <trkpt lat="47.50722" lon="-2.84642">
        <ele>27.8</ele>
        <time>2026-08-29T14:04:21Z</time>
      </trkpt>
      <trkpt lat="47.50718" lon="-2.84643">
        <ele>27.7</ele>
        <time>2026-08-29T14:04:22Z</time>
      </trkpt>
      <trkpt lat="47.50715" lon="-2.84644">
        <ele>27.6</ele>
        <time>2026-08-29T14:04:23Z</time>
      </trkpt>
      <trkpt lat="47.50711" lon="-2.84645">
        <ele>27.5</ele>
        <time>2026-08-29T14:04:24Z</time>
      </trkpt>
      <trkpt lat="47.50707" lon="-2.84647">
        <ele>27.3</ele>
        <time>2026-08-29T14:04:25Z</time>
      </trkpt>
      <trkpt lat="47.50702" lon="-2.84649">
        <ele>27</ele>
        <time>2026-08-29T14:04:26Z</time>
      </trkpt>
      <trkpt lat="47.50697" lon="-2.84651">
        <ele>26.7</ele>
        <time>2026-08-29T14:04:27Z</time>
      </trkpt>
      <trkpt lat="47.50692" lon="-2.84652">
        <ele>26.6</ele>
        <time>2026-08-29T14:04:28Z</time>
      </trkpt>
      <trkpt lat="47.50687" lon="-2.84654">
        <ele>26.4</ele>
        <time>2026-08-29T14:04:29Z</time>
      </trkpt>
      <trkpt lat="47.50681" lon="-2.84655">
        <ele>26.3</ele>
        <time>2026-08-29T14:04:30Z</time>
      </trkpt>
      <trkpt lat="47.50676" lon="-2.84656">
        <ele>26.2</ele>
        <time>2026-08-29T14:04:31Z</time>
      </trkpt>
      <trkpt lat="47.5067" lon="-2.84657">
        <ele>26</ele>
        <time>2026-08-29T14:04:32Z</time>
      </trkpt>
      <trkpt lat="47.50664" lon="-2.84657">
        <ele>25.9</ele>
        <time>2026-08-29T14:04:33Z</time>
      </trkpt>
      <trkpt lat="47.50659" lon="-2.84659">
        <ele>25.6</ele>
        <time>2026-08-29T14:04:34Z</time>
      </trkpt>
      <trkpt lat="47.50652" lon="-2.84662">
        <ele>25</ele>
        <time>2026-08-29T14:04:35Z</time>
      </trkpt>
      <trkpt lat="47.50646" lon="-2.84666">
        <ele>24.3</ele>
        <time>2026-08-29T14:04:36Z</time>
      </trkpt>
      <trkpt lat="47.50639" lon="-2.84669">
        <ele>23.8</ele>
        <time>2026-08-29T14:04:37Z</time>
      </trkpt>
      <trkpt lat="47.50632" lon="-2.84672">
        <ele>23.8</ele>
        <time>2026-08-29T14:04:38Z</time>
      </trkpt>
      <trkpt lat="47.50625" lon="-2.84675">
        <ele>23.8</ele>
        <time>2026-08-29T14:04:39Z</time>
      </trkpt>
      <trkpt lat="47.50619" lon="-2.84678">
        <ele>24.1</ele>
        <time>2026-08-29T14:04:40Z</time>
      </trkpt>
      <trkpt lat="47.50613" lon="-2.84681">
        <ele>24.4</ele>
        <time>2026-08-29T14:04:41Z</time>
      </trkpt>
      <trkpt lat="47.50607" lon="-2.84683">
        <ele>24.9</ele>
        <time>2026-08-29T14:04:42Z</time>
      </trkpt>
      <trkpt lat="47.50603" lon="-2.84687">
        <ele>25.3</ele>
        <time>2026-08-29T14:04:43Z</time>
      </trkpt>
      <trkpt lat="47.506" lon="-2.8469">
        <ele>25.6</ele>
        <time>2026-08-29T14:04:44Z</time>
      </trkpt>
      <trkpt lat="47.506" lon="-2.84694">
        <ele>25.8</ele>
        <time>2026-08-29T14:04:45Z</time>
      </trkpt>
      <trkpt lat="47.50601" lon="-2.84697">
        <ele>26</ele>
        <time>2026-08-29T14:04:46Z</time>
      </trkpt>
      <trkpt lat="47.50602" lon="-2.84699">
        <ele>26.1</ele>
        <time>2026-08-29T14:04:47Z</time>
      </trkpt>
      <trkpt lat="47.50604" lon="-2.84702">
        <ele>26.3</ele>
        <time>2026-08-29T14:04:48Z</time>
      </trkpt>
      <trkpt lat="47.50606" lon="-2.84704">
        <ele>26.3</ele>
        <time>2026-08-29T14:04:49Z</time>
      </trkpt>
      <trkpt lat="47.50607" lon="-2.84707">
        <ele>26.6</ele>
        <time>2026-08-29T14:04:50Z</time>
      </trkpt>
      <trkpt lat="47.50609" lon="-2.84709">
        <ele>26.7</ele>
        <time>2026-08-29T14:04:51Z</time>
      </trkpt>
      <trkpt lat="47.50611" lon="-2.84711">
        <ele>26.8</ele>
        <time>2026-08-29T14:04:52Z</time>
      </trkpt>
      <trkpt lat="47.50613" lon="-2.84713">
        <ele>26.8</ele>
        <time>2026-08-29T14:04:53Z</time>
      </trkpt>
      <trkpt lat="47.50615" lon="-2.84715">
        <ele>26.8</ele>
        <time>2026-08-29T14:04:54Z</time>
      </trkpt>
      <trkpt lat="47.50618" lon="-2.84717">
        <ele>26.7</ele>
        <time>2026-08-29T14:04:55Z</time>
      </trkpt>
      <trkpt lat="47.5062" lon="-2.84719">
        <ele>26.7</ele>
        <time>2026-08-29T14:04:56Z</time>
      </trkpt>
      <trkpt lat="47.50622" lon="-2.84721">
        <ele>26.7</ele>
        <time>2026-08-29T14:04:57Z</time>
      </trkpt>
      <trkpt lat="47.50625" lon="-2.84723">
        <ele>26.5</ele>
        <time>2026-08-29T14:04:58Z</time>
      </trkpt>
      <trkpt lat="47.50627" lon="-2.84725">
        <ele>26.4</ele>
        <time>2026-08-29T14:04:59Z</time>
      </trkpt>
      <trkpt lat="47.50629" lon="-2.84727">
        <ele>26.3</ele>
        <time>2026-08-29T14:05:00Z</time>
      </trkpt>
      <trkpt lat="47.50632" lon="-2.84729">
        <ele>26.1</ele>
        <time>2026-08-29T14:05:01Z</time>
      </trkpt>
      <trkpt lat="47.50635" lon="-2.84732">
        <ele>26</ele>
        <time>2026-08-29T14:05:02Z</time>
      </trkpt>
      <trkpt lat="47.50637" lon="-2.84733">
        <ele>25.9</ele>
        <time>2026-08-29T14:05:03Z</time>
      </trkpt>
      <trkpt lat="47.5064" lon="-2.84736">
        <ele>25.9</ele>
        <time>2026-08-29T14:05:04Z</time>
      </trkpt>
      <trkpt lat="47.50643" lon="-2.84739">
        <ele>25.8</ele>
        <time>2026-08-29T14:05:05Z</time>
      </trkpt>
      <trkpt lat="47.50645" lon="-2.84743">
        <ele>26.1</ele>
        <time>2026-08-29T14:05:06Z</time>
      </trkpt>
      <trkpt lat="47.50645" lon="-2.84747">
        <ele>26.5</ele>
        <time>2026-08-29T14:05:07Z</time>
      </trkpt>
      <trkpt lat="47.50644" lon="-2.84751">
        <ele>26.8</ele>
        <time>2026-08-29T14:05:08Z</time>
      </trkpt>
      <trkpt lat="47.50643" lon="-2.84755">
        <ele>27</ele>
        <time>2026-08-29T14:05:09Z</time>
      </trkpt>
      <trkpt lat="47.50641" lon="-2.84757">
        <ele>27.2</ele>
        <time>2026-08-29T14:05:10Z</time>
      </trkpt>
      <trkpt lat="47.50639" lon="-2.84758">
        <ele>27.3</ele>
        <time>2026-08-29T14:05:11Z</time>
      </trkpt>
      <trkpt lat="47.50637" lon="-2.8476">
        <ele>27.4</ele>
        <time>2026-08-29T14:05:12Z</time>
      </trkpt>
      <trkpt lat="47.50635" lon="-2.84762">
        <ele>27.6</ele>
        <time>2026-08-29T14:05:13Z</time>
      </trkpt>
      <trkpt lat="47.50632" lon="-2.84764">
        <ele>27.8</ele>
        <time>2026-08-29T14:05:14Z</time>
      </trkpt>
      <trkpt lat="47.50629" lon="-2.84765">
        <ele>27.9</ele>
        <time>2026-08-29T14:05:15Z</time>
      </trkpt>
      <trkpt lat="47.50626" lon="-2.84767">
        <ele>28.1</ele>
        <time>2026-08-29T14:05:16Z</time>
      </trkpt>
      <trkpt lat="47.50623" lon="-2.84768">
        <ele>28.2</ele>
        <time>2026-08-29T14:05:17Z</time>
      </trkpt>
      <trkpt lat="47.50621" lon="-2.8477">
        <ele>28.4</ele>
        <time>2026-08-29T14:05:18Z</time>
      </trkpt>
      <trkpt lat="47.50617" lon="-2.84772">
        <ele>28.6</ele>
        <time>2026-08-29T14:05:19Z</time>
      </trkpt>
      <trkpt lat="47.50615" lon="-2.84774">
        <ele>28.7</ele>
        <time>2026-08-29T14:05:20Z</time>
      </trkpt>
      <trkpt lat="47.50612" lon="-2.84776">
        <ele>28.9</ele>
        <time>2026-08-29T14:05:21Z</time>
      </trkpt>
      <trkpt lat="47.50608" lon="-2.84777">
        <ele>29</ele>
        <time>2026-08-29T14:05:22Z</time>
      </trkpt>
      <trkpt lat="47.50605" lon="-2.84779">
        <ele>29</ele>
        <time>2026-08-29T14:05:23Z</time>
      </trkpt>
      <trkpt lat="47.50602" lon="-2.8478">
        <ele>28.9</ele>
        <time>2026-08-29T14:05:24Z</time>
      </trkpt>
      <trkpt lat="47.50599" lon="-2.84781">
        <ele>28.9</ele>
        <time>2026-08-29T14:05:25Z</time>
      </trkpt>
      <trkpt lat="47.50597" lon="-2.84783">
        <ele>28.9</ele>
        <time>2026-08-29T14:05:26Z</time>
      </trkpt>
      <trkpt lat="47.50595" lon="-2.84784">
        <ele>28.9</ele>
        <time>2026-08-29T14:05:27Z</time>
      </trkpt>
      <trkpt lat="47.50592" lon="-2.84785">
        <ele>28.9</ele>
        <time>2026-08-29T14:05:28Z</time>
      </trkpt>
      <trkpt lat="47.5059" lon="-2.84786">
        <ele>28.9</ele>
        <time>2026-08-29T14:05:29Z</time>
      </trkpt>
      <trkpt lat="47.50587" lon="-2.84788">
        <ele>29</ele>
        <time>2026-08-29T14:05:30Z</time>
      </trkpt>
      <trkpt lat="47.50584" lon="-2.84789">
        <ele>29</ele>
        <time>2026-08-29T14:05:31Z</time>
      </trkpt>
      <trkpt lat="47.50582" lon="-2.84791">
        <ele>29</ele>
        <time>2026-08-29T14:05:32Z</time>
      </trkpt>
      <trkpt lat="47.50579" lon="-2.84792">
        <ele>29.1</ele>
        <time>2026-08-29T14:05:33Z</time>
      </trkpt>
      <trkpt lat="47.50576" lon="-2.84794">
        <ele>29.1</ele>
        <time>2026-08-29T14:05:34Z</time>
      </trkpt>
      <trkpt lat="47.50573" lon="-2.84796">
        <ele>29.1</ele>
        <time>2026-08-29T14:05:35Z</time>
      </trkpt>
      <trkpt lat="47.5057" lon="-2.84798">
        <ele>29.1</ele>
        <time>2026-08-29T14:05:36Z</time>
      </trkpt>
      <trkpt lat="47.50567" lon="-2.84799">
        <ele>29.1</ele>
        <time>2026-08-29T14:05:37Z</time>
      </trkpt>
      <trkpt lat="47.50564" lon="-2.84801">
        <ele>29.1</ele>
        <time>2026-08-29T14:05:38Z</time>
      </trkpt>
      <trkpt lat="47.50561" lon="-2.84803">
        <ele>29.1</ele>
        <time>2026-08-29T14:05:39Z</time>
      </trkpt>
      <trkpt lat="47.50558" lon="-2.84804">
        <ele>29.1</ele>
        <time>2026-08-29T14:05:40Z</time>
      </trkpt>
      <trkpt lat="47.50555" lon="-2.84806">
        <ele>29</ele>
        <time>2026-08-29T14:05:41Z</time>
      </trkpt>
      <trkpt lat="47.50552" lon="-2.84807">
        <ele>29.1</ele>
        <time>2026-08-29T14:05:42Z</time>
      </trkpt>
      <trkpt lat="47.50548" lon="-2.84809">
        <ele>29.1</ele>
        <time>2026-08-29T14:05:43Z</time>
      </trkpt>
      <trkpt lat="47.50545" lon="-2.8481">
        <ele>29.2</ele>
        <time>2026-08-29T14:05:44Z</time>
      </trkpt>
      <trkpt lat="47.50541" lon="-2.84812">
        <ele>29.2</ele>
        <time>2026-08-29T14:05:45Z</time>
      </trkpt>
      <trkpt lat="47.50537" lon="-2.84813">
        <ele>29.2</ele>
        <time>2026-08-29T14:05:46Z</time>
      </trkpt>
      <trkpt lat="47.50533" lon="-2.84814">
        <ele>29.3</ele>
        <time>2026-08-29T14:05:47Z</time>
      </trkpt>
      <trkpt lat="47.5053" lon="-2.84815">
        <ele>29.3</ele>
        <time>2026-08-29T14:05:48Z</time>
      </trkpt>
      <trkpt lat="47.50526" lon="-2.84817">
        <ele>29.1</ele>
        <time>2026-08-29T14:05:49Z</time>
      </trkpt>
      <trkpt lat="47.50522" lon="-2.84818">
        <ele>28.9</ele>
        <time>2026-08-29T14:05:50Z</time>
      </trkpt>
      <trkpt lat="47.50518" lon="-2.84818">
        <ele>28.8</ele>
        <time>2026-08-29T14:05:51Z</time>
      </trkpt>
      <trkpt lat="47.50514" lon="-2.84819">
        <ele>28.5</ele>
        <time>2026-08-29T14:05:52Z</time>
      </trkpt>
      <trkpt lat="47.50511" lon="-2.8482">
        <ele>28.4</ele>
        <time>2026-08-29T14:05:53Z</time>
      </trkpt>
      <trkpt lat="47.50507" lon="-2.8482">
        <ele>28.2</ele>
        <time>2026-08-29T14:05:54Z</time>
      </trkpt>
      <trkpt lat="47.50503" lon="-2.8482">
        <ele>28.1</ele>
        <time>2026-08-29T14:05:55Z</time>
      </trkpt>
      <trkpt lat="47.505" lon="-2.84821">
        <ele>27.9</ele>
        <time>2026-08-29T14:05:56Z</time>
      </trkpt>
      <trkpt lat="47.50496" lon="-2.84821">
        <ele>28</ele>
        <time>2026-08-29T14:05:57Z</time>
      </trkpt>
      <trkpt lat="47.50493" lon="-2.84822">
        <ele>27.9</ele>
        <time>2026-08-29T14:05:58Z</time>
      </trkpt>
      <trkpt lat="47.50489" lon="-2.84822">
        <ele>28</ele>
        <time>2026-08-29T14:05:59Z</time>
      </trkpt>
      <trkpt lat="47.50486" lon="-2.84822">
        <ele>28</ele>
        <time>2026-08-29T14:06:00Z</time>
      </trkpt>
      <trkpt lat="47.50482" lon="-2.84822">
        <ele>28.1</ele>
        <time>2026-08-29T14:06:01Z</time>
      </trkpt>
      <trkpt lat="47.50479" lon="-2.84822">
        <ele>28.1</ele>
        <time>2026-08-29T14:06:02Z</time>
      </trkpt>
      <trkpt lat="47.50476" lon="-2.84822">
        <ele>28.2</ele>
        <time>2026-08-29T14:06:03Z</time>
      </trkpt>
      <trkpt lat="47.50472" lon="-2.84822">
        <ele>28.2</ele>
        <time>2026-08-29T14:06:04Z</time>
      </trkpt>
      <trkpt lat="47.50469" lon="-2.84822">
        <ele>28.4</ele>
        <time>2026-08-29T14:06:05Z</time>
      </trkpt>
      <trkpt lat="47.50465" lon="-2.84822">
        <ele>28.6</ele>
        <time>2026-08-29T14:06:06Z</time>
      </trkpt>
      <trkpt lat="47.50462" lon="-2.84821">
        <ele>28.9</ele>
        <time>2026-08-29T14:06:07Z</time>
      </trkpt>
      <trkpt lat="47.50459" lon="-2.8482">
        <ele>29.2</ele>
        <time>2026-08-29T14:06:08Z</time>
      </trkpt>
      <trkpt lat="47.50456" lon="-2.84819">
        <ele>29.4</ele>
        <time>2026-08-29T14:06:09Z</time>
      </trkpt>
      <trkpt lat="47.50453" lon="-2.84818">
        <ele>29.7</ele>
        <time>2026-08-29T14:06:10Z</time>
      </trkpt>
      <trkpt lat="47.5045" lon="-2.84817">
        <ele>29.9</ele>
        <time>2026-08-29T14:06:11Z</time>
      </trkpt>
      <trkpt lat="47.50446" lon="-2.84816">
        <ele>30.2</ele>
        <time>2026-08-29T14:06:12Z</time>
      </trkpt>
      <trkpt lat="47.50443" lon="-2.84816">
        <ele>30.2</ele>
        <time>2026-08-29T14:06:13Z</time>
      </trkpt>
      <trkpt lat="47.5044" lon="-2.84816">
        <ele>30.2</ele>
        <time>2026-08-29T14:06:14Z</time>
      </trkpt>
      <trkpt lat="47.50437" lon="-2.84816">
        <ele>30.2</ele>
        <time>2026-08-29T14:06:15Z</time>
      </trkpt>
      <trkpt lat="47.50435" lon="-2.84816">
        <ele>30.2</ele>
        <time>2026-08-29T14:06:16Z</time>
      </trkpt>
      <trkpt lat="47.50432" lon="-2.84816">
        <ele>30.2</ele>
        <time>2026-08-29T14:06:17Z</time>
      </trkpt>
      <trkpt lat="47.50429" lon="-2.84815">
        <ele>30.3</ele>
        <time>2026-08-29T14:06:18Z</time>
      </trkpt>
      <trkpt lat="47.50426" lon="-2.84814">
        <ele>30.4</ele>
        <time>2026-08-29T14:06:19Z</time>
      </trkpt>
      <trkpt lat="47.50423" lon="-2.84813">
        <ele>30.5</ele>
        <time>2026-08-29T14:06:20Z</time>
      </trkpt>
      <trkpt lat="47.5042" lon="-2.84812">
        <ele>30.5</ele>
        <time>2026-08-29T14:06:21Z</time>
      </trkpt>
      <trkpt lat="47.50417" lon="-2.84811">
        <ele>30.6</ele>
        <time>2026-08-29T14:06:22Z</time>
      </trkpt>
      <trkpt lat="47.50414" lon="-2.84809">
        <ele>30.7</ele>
        <time>2026-08-29T14:06:23Z</time>
      </trkpt>
      <trkpt lat="47.50411" lon="-2.84807">
        <ele>30.9</ele>
        <time>2026-08-29T14:06:24Z</time>
      </trkpt>
      <trkpt lat="47.50408" lon="-2.84806">
        <ele>31</ele>
        <time>2026-08-29T14:06:25Z</time>
      </trkpt>
      <trkpt lat="47.50406" lon="-2.84804">
        <ele>31.1</ele>
        <time>2026-08-29T14:06:26Z</time>
      </trkpt>
      <trkpt lat="47.50403" lon="-2.84802">
        <ele>31.2</ele>
        <time>2026-08-29T14:06:27Z</time>
      </trkpt>
      <trkpt lat="47.504" lon="-2.848">
        <ele>31.3</ele>
        <time>2026-08-29T14:06:28Z</time>
      </trkpt>
      <trkpt lat="47.50397" lon="-2.84799">
        <ele>31.4</ele>
        <time>2026-08-29T14:06:29Z</time>
      </trkpt>
      <trkpt lat="47.50394" lon="-2.84797">
        <ele>31.6</ele>
        <time>2026-08-29T14:06:30Z</time>
      </trkpt>
      <trkpt lat="47.50392" lon="-2.84795">
        <ele>31.7</ele>
        <time>2026-08-29T14:06:31Z</time>
      </trkpt>
      <trkpt lat="47.50389" lon="-2.84792">
        <ele>32</ele>
        <time>2026-08-29T14:06:32Z</time>
      </trkpt>
      <trkpt lat="47.50386" lon="-2.8479">
        <ele>32.2</ele>
        <time>2026-08-29T14:06:33Z</time>
      </trkpt>
      <trkpt lat="47.50383" lon="-2.84788">
        <ele>32.3</ele>
        <time>2026-08-29T14:06:34Z</time>
      </trkpt>
      <trkpt lat="47.50381" lon="-2.84785">
        <ele>32.6</ele>
        <time>2026-08-29T14:06:35Z</time>
      </trkpt>
      <trkpt lat="47.50379" lon="-2.84783">
        <ele>32.7</ele>
        <time>2026-08-29T14:06:36Z</time>
      </trkpt>
      <trkpt lat="47.50377" lon="-2.8478">
        <ele>32.9</ele>
        <time>2026-08-29T14:06:37Z</time>
      </trkpt>
      <trkpt lat="47.50375" lon="-2.84778">
        <ele>33</ele>
        <time>2026-08-29T14:06:38Z</time>
      </trkpt>
      <trkpt lat="47.50374" lon="-2.84775">
        <ele>33.1</ele>
        <time>2026-08-29T14:06:39Z</time>
      </trkpt>
      <trkpt lat="47.50372" lon="-2.84773">
        <ele>33.2</ele>
        <time>2026-08-29T14:06:40Z</time>
      </trkpt>
      <trkpt lat="47.50371" lon="-2.8477">
        <ele>33.3</ele>
        <time>2026-08-29T14:06:41Z</time>
      </trkpt>
      <trkpt lat="47.5037" lon="-2.84767">
        <ele>33.4</ele>
        <time>2026-08-29T14:06:42Z</time>
      </trkpt>
      <trkpt lat="47.50369" lon="-2.84764">
        <ele>33.5</ele>
        <time>2026-08-29T14:06:43Z</time>
      </trkpt>
      <trkpt lat="47.50367" lon="-2.84761">
        <ele>33.6</ele>
        <time>2026-08-29T14:06:44Z</time>
      </trkpt>
      <trkpt lat="47.50367" lon="-2.84757">
        <ele>33.7</ele>
        <time>2026-08-29T14:06:45Z</time>
      </trkpt>
      <trkpt lat="47.50366" lon="-2.84754">
        <ele>33.9</ele>
        <time>2026-08-29T14:06:46Z</time>
      </trkpt>
      <trkpt lat="47.50365" lon="-2.8475">
        <ele>34</ele>
        <time>2026-08-29T14:06:47Z</time>
      </trkpt>
      <trkpt lat="47.50365" lon="-2.84747">
        <ele>34.1</ele>
        <time>2026-08-29T14:06:48Z</time>
      </trkpt>
      <trkpt lat="47.50364" lon="-2.84743">
        <ele>34.3</ele>
        <time>2026-08-29T14:06:49Z</time>
      </trkpt>
      <trkpt lat="47.50364" lon="-2.84739">
        <ele>34.4</ele>
        <time>2026-08-29T14:06:50Z</time>
      </trkpt>
      <trkpt lat="47.50364" lon="-2.84735">
        <ele>34.5</ele>
        <time>2026-08-29T14:06:51Z</time>
      </trkpt>
      <trkpt lat="47.50363" lon="-2.84732">
        <ele>34.6</ele>
        <time>2026-08-29T14:06:52Z</time>
      </trkpt>
      <trkpt lat="47.50363" lon="-2.84728">
        <ele>34.8</ele>
        <time>2026-08-29T14:06:53Z</time>
      </trkpt>
      <trkpt lat="47.50362" lon="-2.84724">
        <ele>34.9</ele>
        <time>2026-08-29T14:06:54Z</time>
      </trkpt>
      <trkpt lat="47.50362" lon="-2.8472">
        <ele>35</ele>
        <time>2026-08-29T14:06:55Z</time>
      </trkpt>
      <trkpt lat="47.50362" lon="-2.84715">
        <ele>35</ele>
        <time>2026-08-29T14:06:56Z</time>
      </trkpt>
      <trkpt lat="47.50361" lon="-2.84711">
        <ele>35</ele>
        <time>2026-08-29T14:06:57Z</time>
      </trkpt>
      <trkpt lat="47.5036" lon="-2.84707">
        <ele>35.1</ele>
        <time>2026-08-29T14:06:58Z</time>
      </trkpt>
      <trkpt lat="47.5036" lon="-2.84702">
        <ele>35.1</ele>
        <time>2026-08-29T14:06:59Z</time>
      </trkpt>
      <trkpt lat="47.50359" lon="-2.84698">
        <ele>35.1</ele>
        <time>2026-08-29T14:07:00Z</time>
      </trkpt>
      <trkpt lat="47.50358" lon="-2.84693">
        <ele>35.3</ele>
        <time>2026-08-29T14:07:01Z</time>
      </trkpt>
      <trkpt lat="47.50358" lon="-2.84689">
        <ele>35.4</ele>
        <time>2026-08-29T14:07:02Z</time>
      </trkpt>
      <trkpt lat="47.50357" lon="-2.84684">
        <ele>35.6</ele>
        <time>2026-08-29T14:07:03Z</time>
      </trkpt>
      <trkpt lat="47.50356" lon="-2.8468">
        <ele>35.8</ele>
        <time>2026-08-29T14:07:04Z</time>
      </trkpt>
      <trkpt lat="47.50356" lon="-2.84676">
        <ele>35.9</ele>
        <time>2026-08-29T14:07:05Z</time>
      </trkpt>
      <trkpt lat="47.50355" lon="-2.84671">
        <ele>36.1</ele>
        <time>2026-08-29T14:07:06Z</time>
      </trkpt>
      <trkpt lat="47.50354" lon="-2.84667">
        <ele>36.2</ele>
        <time>2026-08-29T14:07:07Z</time>
      </trkpt>
      <trkpt lat="47.50353" lon="-2.84663">
        <ele>36.3</ele>
        <time>2026-08-29T14:07:08Z</time>
      </trkpt>
      <trkpt lat="47.50352" lon="-2.84658">
        <ele>36.3</ele>
        <time>2026-08-29T14:07:09Z</time>
      </trkpt>
      <trkpt lat="47.5035" lon="-2.84654">
        <ele>36.4</ele>
        <time>2026-08-29T14:07:10Z</time>
      </trkpt>
      <trkpt lat="47.50348" lon="-2.8465">
        <ele>36.5</ele>
        <time>2026-08-29T14:07:11Z</time>
      </trkpt>
      <trkpt lat="47.50347" lon="-2.84646">
        <ele>36.5</ele>
        <time>2026-08-29T14:07:12Z</time>
      </trkpt>
      <trkpt lat="47.50345" lon="-2.84642">
        <ele>36.6</ele>
        <time>2026-08-29T14:07:13Z</time>
      </trkpt>
      <trkpt lat="47.50344" lon="-2.84638">
        <ele>36.6</ele>
        <time>2026-08-29T14:07:14Z</time>
      </trkpt>
      <trkpt lat="47.50342" lon="-2.84634">
        <ele>36.7</ele>
        <time>2026-08-29T14:07:15Z</time>
      </trkpt>
      <trkpt lat="47.5034" lon="-2.8463">
        <ele>36.8</ele>
        <time>2026-08-29T14:07:16Z</time>
      </trkpt>
      <trkpt lat="47.50338" lon="-2.84625">
        <ele>36.8</ele>
        <time>2026-08-29T14:07:17Z</time>
      </trkpt>
      <trkpt lat="47.50336" lon="-2.84621">
        <ele>36.9</ele>
        <time>2026-08-29T14:07:18Z</time>
      </trkpt>
      <trkpt lat="47.50334" lon="-2.84617">
        <ele>37</ele>
        <time>2026-08-29T14:07:19Z</time>
      </trkpt>
      <trkpt lat="47.50332" lon="-2.84613">
        <ele>37</ele>
        <time>2026-08-29T14:07:20Z</time>
      </trkpt>
      <trkpt lat="47.50329" lon="-2.84609">
        <ele>36.9</ele>
        <time>2026-08-29T14:07:21Z</time>
      </trkpt>
      <trkpt lat="47.50326" lon="-2.84605">
        <ele>36.8</ele>
        <time>2026-08-29T14:07:22Z</time>
      </trkpt>
      <trkpt lat="47.50324" lon="-2.84601">
        <ele>36.8</ele>
        <time>2026-08-29T14:07:23Z</time>
      </trkpt>
      <trkpt lat="47.50321" lon="-2.84598">
        <ele>36.7</ele>
        <time>2026-08-29T14:07:24Z</time>
      </trkpt>
      <trkpt lat="47.50318" lon="-2.84594">
        <ele>36.7</ele>
        <time>2026-08-29T14:07:25Z</time>
      </trkpt>
      <trkpt lat="47.50316" lon="-2.84591">
        <ele>36.7</ele>
        <time>2026-08-29T14:07:26Z</time>
      </trkpt>
      <trkpt lat="47.50313" lon="-2.84587">
        <ele>36.8</ele>
        <time>2026-08-29T14:07:27Z</time>
      </trkpt>
      <trkpt lat="47.50311" lon="-2.84583">
        <ele>36.8</ele>
        <time>2026-08-29T14:07:28Z</time>
      </trkpt>
      <trkpt lat="47.50308" lon="-2.84579">
        <ele>36.9</ele>
        <time>2026-08-29T14:07:29Z</time>
      </trkpt>
      <trkpt lat="47.50305" lon="-2.84576">
        <ele>37</ele>
        <time>2026-08-29T14:07:30Z</time>
      </trkpt>
      <trkpt lat="47.50302" lon="-2.84572">
        <ele>37</ele>
        <time>2026-08-29T14:07:31Z</time>
      </trkpt>
      <trkpt lat="47.50299" lon="-2.84569">
        <ele>37</ele>
        <time>2026-08-29T14:07:32Z</time>
      </trkpt>
      <trkpt lat="47.50296" lon="-2.84565">
        <ele>37</ele>
        <time>2026-08-29T14:07:33Z</time>
      </trkpt>
      <trkpt lat="47.50293" lon="-2.84561">
        <ele>37</ele>
        <time>2026-08-29T14:07:34Z</time>
      </trkpt>
      <trkpt lat="47.5029" lon="-2.84558">
        <ele>37</ele>
        <time>2026-08-29T14:07:35Z</time>
      </trkpt>
      <trkpt lat="47.50287" lon="-2.84554">
        <ele>37</ele>
        <time>2026-08-29T14:07:36Z</time>
      </trkpt>
      <trkpt lat="47.50284" lon="-2.8455">
        <ele>37</ele>
        <time>2026-08-29T14:07:37Z</time>
      </trkpt>
      <trkpt lat="47.5028" lon="-2.84547">
        <ele>37</ele>
        <time>2026-08-29T14:07:38Z</time>
      </trkpt>
      <trkpt lat="47.50277" lon="-2.84543">
        <ele>37</ele>
        <time>2026-08-29T14:07:39Z</time>
      </trkpt>
      <trkpt lat="47.50274" lon="-2.84539">
        <ele>37</ele>
        <time>2026-08-29T14:07:40Z</time>
      </trkpt>
      <trkpt lat="47.50271" lon="-2.84535">
        <ele>37</ele>
        <time>2026-08-29T14:07:41Z</time>
      </trkpt>
      <trkpt lat="47.50268" lon="-2.84531">
        <ele>37</ele>
        <time>2026-08-29T14:07:42Z</time>
      </trkpt>
      <trkpt lat="47.50265" lon="-2.84527">
        <ele>37</ele>
        <time>2026-08-29T14:07:43Z</time>
      </trkpt>
      <trkpt lat="47.50262" lon="-2.84523">
        <ele>37</ele>
        <time>2026-08-29T14:07:44Z</time>
      </trkpt>
      <trkpt lat="47.50259" lon="-2.84519">
        <ele>37</ele>
        <time>2026-08-29T14:07:45Z</time>
      </trkpt>
      <trkpt lat="47.50256" lon="-2.84514">
        <ele>37</ele>
        <time>2026-08-29T14:07:46Z</time>
      </trkpt>
      <trkpt lat="47.50253" lon="-2.8451">
        <ele>37</ele>
        <time>2026-08-29T14:07:47Z</time>
      </trkpt>
      <trkpt lat="47.5025" lon="-2.84505">
        <ele>37</ele>
        <time>2026-08-29T14:07:48Z</time>
      </trkpt>
      <trkpt lat="47.50247" lon="-2.845">
        <ele>37.1</ele>
        <time>2026-08-29T14:07:49Z</time>
      </trkpt>
      <trkpt lat="47.50244" lon="-2.84495">
        <ele>37.2</ele>
        <time>2026-08-29T14:07:50Z</time>
      </trkpt>
      <trkpt lat="47.50242" lon="-2.8449">
        <ele>37.2</ele>
        <time>2026-08-29T14:07:51Z</time>
      </trkpt>
      <trkpt lat="47.50239" lon="-2.84485">
        <ele>37.2</ele>
        <time>2026-08-29T14:07:52Z</time>
      </trkpt>
      <trkpt lat="47.50237" lon="-2.8448">
        <ele>37.1</ele>
        <time>2026-08-29T14:07:53Z</time>
      </trkpt>
      <trkpt lat="47.50234" lon="-2.84475">
        <ele>37.1</ele>
        <time>2026-08-29T14:07:54Z</time>
      </trkpt>
      <trkpt lat="47.50232" lon="-2.8447">
        <ele>37</ele>
        <time>2026-08-29T14:07:55Z</time>
      </trkpt>
      <trkpt lat="47.5023" lon="-2.84465">
        <ele>37</ele>
        <time>2026-08-29T14:07:56Z</time>
      </trkpt>
      <trkpt lat="47.50228" lon="-2.8446">
        <ele>37</ele>
        <time>2026-08-29T14:07:57Z</time>
      </trkpt>
      <trkpt lat="47.50226" lon="-2.84455">
        <ele>37</ele>
        <time>2026-08-29T14:07:58Z</time>
      </trkpt>
      <trkpt lat="47.50223" lon="-2.84451">
        <ele>37</ele>
        <time>2026-08-29T14:07:59Z</time>
      </trkpt>
      <trkpt lat="47.50221" lon="-2.84446">
        <ele>37</ele>
        <time>2026-08-29T14:08:00Z</time>
      </trkpt>
      <trkpt lat="47.50218" lon="-2.84441">
        <ele>37</ele>
        <time>2026-08-29T14:08:01Z</time>
      </trkpt>
      <trkpt lat="47.50215" lon="-2.84437">
        <ele>37</ele>
        <time>2026-08-29T14:08:02Z</time>
      </trkpt>
      <trkpt lat="47.50211" lon="-2.84434">
        <ele>37</ele>
        <time>2026-08-29T14:08:03Z</time>
      </trkpt>
      <trkpt lat="47.50207" lon="-2.84431">
        <ele>37</ele>
        <time>2026-08-29T14:08:04Z</time>
      </trkpt>
      <trkpt lat="47.50203" lon="-2.84429">
        <ele>37</ele>
        <time>2026-08-29T14:08:05Z</time>
      </trkpt>
      <trkpt lat="47.50199" lon="-2.84426">
        <ele>37</ele>
        <time>2026-08-29T14:08:06Z</time>
      </trkpt>
      <trkpt lat="47.50195" lon="-2.84424">
        <ele>37</ele>
        <time>2026-08-29T14:08:07Z</time>
      </trkpt>
      <trkpt lat="47.5019" lon="-2.84421">
        <ele>37</ele>
        <time>2026-08-29T14:08:08Z</time>
      </trkpt>
      <trkpt lat="47.50186" lon="-2.84418">
        <ele>37</ele>
        <time>2026-08-29T14:08:09Z</time>
      </trkpt>
      <trkpt lat="47.50182" lon="-2.84416">
        <ele>37</ele>
        <time>2026-08-29T14:08:10Z</time>
      </trkpt>
      <trkpt lat="47.50178" lon="-2.84413">
        <ele>37</ele>
        <time>2026-08-29T14:08:11Z</time>
      </trkpt>
      <trkpt lat="47.50174" lon="-2.84411">
        <ele>37</ele>
        <time>2026-08-29T14:08:12Z</time>
      </trkpt>
      <trkpt lat="47.50171" lon="-2.84408">
        <ele>37</ele>
        <time>2026-08-29T14:08:13Z</time>
      </trkpt>
      <trkpt lat="47.50167" lon="-2.84405">
        <ele>37</ele>
        <time>2026-08-29T14:08:14Z</time>
      </trkpt>
      <trkpt lat="47.50163" lon="-2.84403">
        <ele>37</ele>
        <time>2026-08-29T14:08:15Z</time>
      </trkpt>
      <trkpt lat="47.50159" lon="-2.84399">
        <ele>37</ele>
        <time>2026-08-29T14:08:16Z</time>
      </trkpt>
      <trkpt lat="47.50156" lon="-2.84396">
        <ele>37</ele>
        <time>2026-08-29T14:08:17Z</time>
      </trkpt>
      <trkpt lat="47.50153" lon="-2.84393">
        <ele>37</ele>
        <time>2026-08-29T14:08:18Z</time>
      </trkpt>
      <trkpt lat="47.5015" lon="-2.84389">
        <ele>37</ele>
        <time>2026-08-29T14:08:19Z</time>
      </trkpt>
      <trkpt lat="47.50148" lon="-2.84384">
        <ele>37</ele>
        <time>2026-08-29T14:08:20Z</time>
      </trkpt>
      <trkpt lat="47.50147" lon="-2.84379">
        <ele>37</ele>
        <time>2026-08-29T14:08:21Z</time>
      </trkpt>
      <trkpt lat="47.50147" lon="-2.84373">
        <ele>37</ele>
        <time>2026-08-29T14:08:22Z</time>
      </trkpt>
      <trkpt lat="47.50147" lon="-2.84366">
        <ele>37</ele>
        <time>2026-08-29T14:08:23Z</time>
      </trkpt>
      <trkpt lat="47.50148" lon="-2.84359">
        <ele>37</ele>
        <time>2026-08-29T14:08:24Z</time>
      </trkpt>
      <trkpt lat="47.50149" lon="-2.84352">
        <ele>37</ele>
        <time>2026-08-29T14:08:25Z</time>
      </trkpt>
      <trkpt lat="47.5015" lon="-2.84346">
        <ele>37</ele>
        <time>2026-08-29T14:08:26Z</time>
      </trkpt>
      <trkpt lat="47.50151" lon="-2.84339">
        <ele>37</ele>
        <time>2026-08-29T14:08:27Z</time>
      </trkpt>
      <trkpt lat="47.50152" lon="-2.84332">
        <ele>37</ele>
        <time>2026-08-29T14:08:28Z</time>
      </trkpt>
      <trkpt lat="47.50153" lon="-2.84325">
        <ele>37</ele>
        <time>2026-08-29T14:08:29Z</time>
      </trkpt>
      <trkpt lat="47.50154" lon="-2.84318">
        <ele>37</ele>
        <time>2026-08-29T14:08:30Z</time>
      </trkpt>
      <trkpt lat="47.50156" lon="-2.84311">
        <ele>37</ele>
        <time>2026-08-29T14:08:31Z</time>
      </trkpt>
      <trkpt lat="47.50158" lon="-2.84305">
        <ele>37</ele>
        <time>2026-08-29T14:08:32Z</time>
      </trkpt>
      <trkpt lat="47.50159" lon="-2.84298">
        <ele>37</ele>
        <time>2026-08-29T14:08:33Z</time>
      </trkpt>
      <trkpt lat="47.50161" lon="-2.84292">
        <ele>37</ele>
        <time>2026-08-29T14:08:34Z</time>
      </trkpt>
      <trkpt lat="47.50163" lon="-2.84285">
        <ele>37</ele>
        <time>2026-08-29T14:08:35Z</time>
      </trkpt>
      <trkpt lat="47.50164" lon="-2.84279">
        <ele>37</ele>
        <time>2026-08-29T14:08:36Z</time>
      </trkpt>
      <trkpt lat="47.50166" lon="-2.84273">
        <ele>37</ele>
        <time>2026-08-29T14:08:37Z</time>
      </trkpt>
      <trkpt lat="47.50168" lon="-2.84267">
        <ele>37</ele>
        <time>2026-08-29T14:08:38Z</time>
      </trkpt>
      <trkpt lat="47.5017" lon="-2.8426">
        <ele>37</ele>
        <time>2026-08-29T14:08:39Z</time>
      </trkpt>
      <trkpt lat="47.50172" lon="-2.84253">
        <ele>37</ele>
        <time>2026-08-29T14:08:40Z</time>
      </trkpt>
      <trkpt lat="47.50173" lon="-2.84247">
        <ele>37</ele>
        <time>2026-08-29T14:08:41Z</time>
      </trkpt>
      <trkpt lat="47.50175" lon="-2.84241">
        <ele>37</ele>
        <time>2026-08-29T14:08:42Z</time>
      </trkpt>
      <trkpt lat="47.50176" lon="-2.84235">
        <ele>37</ele>
        <time>2026-08-29T14:08:43Z</time>
      </trkpt>
      <trkpt lat="47.50178" lon="-2.84229">
        <ele>37</ele>
        <time>2026-08-29T14:08:44Z</time>
      </trkpt>
      <trkpt lat="47.50178" lon="-2.84222">
        <ele>37</ele>
        <time>2026-08-29T14:08:45Z</time>
      </trkpt>
      <trkpt lat="47.50179" lon="-2.84216">
        <ele>37</ele>
        <time>2026-08-29T14:08:46Z</time>
      </trkpt>
      <trkpt lat="47.50178" lon="-2.84209">
        <ele>37</ele>
        <time>2026-08-29T14:08:47Z</time>
      </trkpt>
      <trkpt lat="47.50178" lon="-2.84203">
        <ele>37</ele>
        <time>2026-08-29T14:08:48Z</time>
      </trkpt>
      <trkpt lat="47.50177" lon="-2.84196">
        <ele>37</ele>
        <time>2026-08-29T14:08:49Z</time>
      </trkpt>
      <trkpt lat="47.50177" lon="-2.84189">
        <ele>36.9</ele>
        <time>2026-08-29T14:08:50Z</time>
      </trkpt>
      <trkpt lat="47.50177" lon="-2.84182">
        <ele>36.7</ele>
        <time>2026-08-29T14:08:51Z</time>
      </trkpt>
      <trkpt lat="47.50176" lon="-2.84174">
        <ele>36.5</ele>
        <time>2026-08-29T14:08:52Z</time>
      </trkpt>
      <trkpt lat="47.50176" lon="-2.84167">
        <ele>36.3</ele>
        <time>2026-08-29T14:08:53Z</time>
      </trkpt>
      <trkpt lat="47.50175" lon="-2.84159">
        <ele>36.3</ele>
        <time>2026-08-29T14:08:54Z</time>
      </trkpt>
      <trkpt lat="47.50174" lon="-2.84152">
        <ele>36.3</ele>
        <time>2026-08-29T14:08:55Z</time>
      </trkpt>
      <trkpt lat="47.50173" lon="-2.84145">
        <ele>36.2</ele>
        <time>2026-08-29T14:08:56Z</time>
      </trkpt>
      <trkpt lat="47.50172" lon="-2.84138">
        <ele>36.2</ele>
        <time>2026-08-29T14:08:57Z</time>
      </trkpt>
      <trkpt lat="47.50171" lon="-2.84131">
        <ele>36.1</ele>
        <time>2026-08-29T14:08:58Z</time>
      </trkpt>
      <trkpt lat="47.5017" lon="-2.84123">
        <ele>36.1</ele>
        <time>2026-08-29T14:08:59Z</time>
      </trkpt>
      <trkpt lat="47.50169" lon="-2.84116">
        <ele>36</ele>
        <time>2026-08-29T14:09:00Z</time>
      </trkpt>
      <trkpt lat="47.50168" lon="-2.84108">
        <ele>36</ele>
        <time>2026-08-29T14:09:01Z</time>
      </trkpt>
      <trkpt lat="47.50167" lon="-2.84101">
        <ele>36</ele>
        <time>2026-08-29T14:09:02Z</time>
      </trkpt>
      <trkpt lat="47.50166" lon="-2.84094">
        <ele>36</ele>
        <time>2026-08-29T14:09:03Z</time>
      </trkpt>
      <trkpt lat="47.50165" lon="-2.84087">
        <ele>36</ele>
        <time>2026-08-29T14:09:04Z</time>
      </trkpt>
      <trkpt lat="47.50163" lon="-2.8408">
        <ele>36</ele>
        <time>2026-08-29T14:09:05Z</time>
      </trkpt>
      <trkpt lat="47.50163" lon="-2.84073">
        <ele>36</ele>
        <time>2026-08-29T14:09:06Z</time>
      </trkpt>
      <trkpt lat="47.50162" lon="-2.84066">
        <ele>36</ele>
        <time>2026-08-29T14:09:07Z</time>
      </trkpt>
      <trkpt lat="47.50161" lon="-2.84059">
        <ele>36</ele>
        <time>2026-08-29T14:09:08Z</time>
      </trkpt>
      <trkpt lat="47.5016" lon="-2.84053">
        <ele>36</ele>
        <time>2026-08-29T14:09:09Z</time>
      </trkpt>
      <trkpt lat="47.50159" lon="-2.84047">
        <ele>36</ele>
        <time>2026-08-29T14:09:10Z</time>
      </trkpt>
      <trkpt lat="47.50158" lon="-2.8404">
        <ele>36</ele>
        <time>2026-08-29T14:09:11Z</time>
      </trkpt>
      <trkpt lat="47.50156" lon="-2.84034">
        <ele>36</ele>
        <time>2026-08-29T14:09:12Z</time>
      </trkpt>
      <trkpt lat="47.50155" lon="-2.84028">
        <ele>36</ele>
        <time>2026-08-29T14:09:13Z</time>
      </trkpt>
      <trkpt lat="47.50153" lon="-2.84022">
        <ele>36</ele>
        <time>2026-08-29T14:09:14Z</time>
      </trkpt>
      <trkpt lat="47.5015" lon="-2.84016">
        <ele>36</ele>
        <time>2026-08-29T14:09:15Z</time>
      </trkpt>
      <trkpt lat="47.50147" lon="-2.84011">
        <ele>36</ele>
        <time>2026-08-29T14:09:16Z</time>
      </trkpt>
      <trkpt lat="47.50144" lon="-2.84006">
        <ele>36</ele>
        <time>2026-08-29T14:09:17Z</time>
      </trkpt>
      <trkpt lat="47.50141" lon="-2.84">
        <ele>36</ele>
        <time>2026-08-29T14:09:18Z</time>
      </trkpt>
      <trkpt lat="47.50138" lon="-2.83996">
        <ele>36</ele>
        <time>2026-08-29T14:09:19Z</time>
      </trkpt>
      <trkpt lat="47.50134" lon="-2.83992">
        <ele>36</ele>
        <time>2026-08-29T14:09:20Z</time>
      </trkpt>
      <trkpt lat="47.50131" lon="-2.83989">
        <ele>36</ele>
        <time>2026-08-29T14:09:21Z</time>
      </trkpt>
      <trkpt lat="47.50127" lon="-2.83987">
        <ele>36</ele>
        <time>2026-08-29T14:09:22Z</time>
      </trkpt>
      <trkpt lat="47.50123" lon="-2.83987">
        <ele>36</ele>
        <time>2026-08-29T14:09:23Z</time>
      </trkpt>
      <trkpt lat="47.5012" lon="-2.8399">
        <ele>36</ele>
        <time>2026-08-29T14:09:24Z</time>
      </trkpt>
      <trkpt lat="47.50116" lon="-2.83992">
        <ele>36</ele>
        <time>2026-08-29T14:09:25Z</time>
      </trkpt>
      <trkpt lat="47.50112" lon="-2.83994">
        <ele>36</ele>
        <time>2026-08-29T14:09:26Z</time>
      </trkpt>
      <trkpt lat="47.50108" lon="-2.83996">
        <ele>36</ele>
        <time>2026-08-29T14:09:27Z</time>
      </trkpt>
      <trkpt lat="47.50104" lon="-2.83997">
        <ele>36</ele>
        <time>2026-08-29T14:09:28Z</time>
      </trkpt>
      <trkpt lat="47.501" lon="-2.83997">
        <ele>36</ele>
        <time>2026-08-29T14:09:29Z</time>
      </trkpt>
      <trkpt lat="47.50096" lon="-2.83997">
        <ele>36.1</ele>
        <time>2026-08-29T14:09:30Z</time>
      </trkpt>
      <trkpt lat="47.50092" lon="-2.83997">
        <ele>36.1</ele>
        <time>2026-08-29T14:09:31Z</time>
      </trkpt>
      <trkpt lat="47.50088" lon="-2.83997">
        <ele>36.1</ele>
        <time>2026-08-29T14:09:32Z</time>
      </trkpt>
      <trkpt lat="47.50084" lon="-2.83997">
        <ele>36.1</ele>
        <time>2026-08-29T14:09:33Z</time>
      </trkpt>
      <trkpt lat="47.5008" lon="-2.83996">
        <ele>36.2</ele>
        <time>2026-08-29T14:09:34Z</time>
      </trkpt>
      <trkpt lat="47.50077" lon="-2.83996">
        <ele>36.3</ele>
        <time>2026-08-29T14:09:35Z</time>
      </trkpt>
      <trkpt lat="47.50073" lon="-2.83996">
        <ele>36.4</ele>
        <time>2026-08-29T14:09:36Z</time>
      </trkpt>
      <trkpt lat="47.50069" lon="-2.83996">
        <ele>36.5</ele>
        <time>2026-08-29T14:09:37Z</time>
      </trkpt>
      <trkpt lat="47.50065" lon="-2.83996">
        <ele>36.6</ele>
        <time>2026-08-29T14:09:38Z</time>
      </trkpt>
      <trkpt lat="47.50062" lon="-2.83995">
        <ele>36.7</ele>
        <time>2026-08-29T14:09:39Z</time>
      </trkpt>
      <trkpt lat="47.50058" lon="-2.83993">
        <ele>36.7</ele>
        <time>2026-08-29T14:09:40Z</time>
      </trkpt>
      <trkpt lat="47.50056" lon="-2.83989">
        <ele>36.6</ele>
        <time>2026-08-29T14:09:41Z</time>
      </trkpt>
      <trkpt lat="47.50054" lon="-2.83985">
        <ele>36.5</ele>
        <time>2026-08-29T14:09:42Z</time>
      </trkpt>
      <trkpt lat="47.50052" lon="-2.8398">
        <ele>36.3</ele>
        <time>2026-08-29T14:09:43Z</time>
      </trkpt>
      <trkpt lat="47.50049" lon="-2.83977">
        <ele>36.2</ele>
        <time>2026-08-29T14:09:44Z</time>
      </trkpt>
      <trkpt lat="47.50045" lon="-2.83974">
        <ele>36.1</ele>
        <time>2026-08-29T14:09:45Z</time>
      </trkpt>
      <trkpt lat="47.50042" lon="-2.83975">
        <ele>36.1</ele>
        <time>2026-08-29T14:09:46Z</time>
      </trkpt>
      <trkpt lat="47.50039" lon="-2.83977">
        <ele>36.2</ele>
        <time>2026-08-29T14:09:47Z</time>
      </trkpt>
      <trkpt lat="47.50036" lon="-2.83979">
        <ele>36.2</ele>
        <time>2026-08-29T14:09:48Z</time>
      </trkpt>
      <trkpt lat="47.50033" lon="-2.83982">
        <ele>36.4</ele>
        <time>2026-08-29T14:09:49Z</time>
      </trkpt>
      <trkpt lat="47.5003" lon="-2.83984">
        <ele>36.4</ele>
        <time>2026-08-29T14:09:50Z</time>
      </trkpt>
      <trkpt lat="47.50027" lon="-2.83986">
        <ele>36.5</ele>
        <time>2026-08-29T14:09:51Z</time>
      </trkpt>
      <trkpt lat="47.50025" lon="-2.83988">
        <ele>36.5</ele>
        <time>2026-08-29T14:09:52Z</time>
      </trkpt>
      <trkpt lat="47.50022" lon="-2.83989">
        <ele>36.5</ele>
        <time>2026-08-29T14:09:53Z</time>
      </trkpt>
      <trkpt lat="47.50019" lon="-2.8399">
        <ele>36.4</ele>
        <time>2026-08-29T14:09:54Z</time>
      </trkpt>
      <trkpt lat="47.50016" lon="-2.8399">
        <ele>36.4</ele>
        <time>2026-08-29T14:09:55Z</time>
      </trkpt>
      <trkpt lat="47.50013" lon="-2.83988">
        <ele>36.3</ele>
        <time>2026-08-29T14:09:56Z</time>
      </trkpt>
      <trkpt lat="47.5001" lon="-2.83985">
        <ele>36.2</ele>
        <time>2026-08-29T14:09:57Z</time>
      </trkpt>
      <trkpt lat="47.50008" lon="-2.83981">
        <ele>36.1</ele>
        <time>2026-08-29T14:09:58Z</time>
      </trkpt>
      <trkpt lat="47.50007" lon="-2.83976">
        <ele>36</ele>
        <time>2026-08-29T14:09:59Z</time>
      </trkpt>
      <trkpt lat="47.50006" lon="-2.83971">
        <ele>36</ele>
        <time>2026-08-29T14:10:00Z</time>
      </trkpt>
      <trkpt lat="47.50005" lon="-2.83966">
        <ele>36</ele>
        <time>2026-08-29T14:10:01Z</time>
      </trkpt>
      <trkpt lat="47.50005" lon="-2.8396">
        <ele>36</ele>
        <time>2026-08-29T14:10:02Z</time>
      </trkpt>
      <trkpt lat="47.50004" lon="-2.83954">
        <ele>36</ele>
        <time>2026-08-29T14:10:03Z</time>
      </trkpt>
      <trkpt lat="47.50003" lon="-2.83948">
        <ele>36</ele>
        <time>2026-08-29T14:10:04Z</time>
      </trkpt>
      <trkpt lat="47.50002" lon="-2.83943">
        <ele>36</ele>
        <time>2026-08-29T14:10:05Z</time>
      </trkpt>
      <trkpt lat="47.5" lon="-2.83937">
        <ele>36</ele>
        <time>2026-08-29T14:10:06Z</time>
      </trkpt>
      <trkpt lat="47.49999" lon="-2.83932">
        <ele>36</ele>
        <time>2026-08-29T14:10:07Z</time>
      </trkpt>
      <trkpt lat="47.49999" lon="-2.83927">
        <ele>36</ele>
        <time>2026-08-29T14:10:08Z</time>
      </trkpt>
      <trkpt lat="47.49998" lon="-2.83922">
        <ele>36</ele>
        <time>2026-08-29T14:10:09Z</time>
      </trkpt>
      <trkpt lat="47.49997" lon="-2.83917">
        <ele>36</ele>
        <time>2026-08-29T14:10:10Z</time>
      </trkpt>
      <trkpt lat="47.49996" lon="-2.83912">
        <ele>36</ele>
        <time>2026-08-29T14:10:11Z</time>
      </trkpt>
      <trkpt lat="47.49995" lon="-2.83906">
        <ele>36</ele>
        <time>2026-08-29T14:10:12Z</time>
      </trkpt>
      <trkpt lat="47.49994" lon="-2.83902">
        <ele>36</ele>
        <time>2026-08-29T14:10:13Z</time>
      </trkpt>
      <trkpt lat="47.49992" lon="-2.83899">
        <ele>36</ele>
        <time>2026-08-29T14:10:14Z</time>
      </trkpt>
      <trkpt lat="47.49988" lon="-2.83898">
        <ele>36</ele>
        <time>2026-08-29T14:10:15Z</time>
      </trkpt>
      <trkpt lat="47.49984" lon="-2.83897">
        <ele>36</ele>
        <time>2026-08-29T14:10:16Z</time>
      </trkpt>
      <trkpt lat="47.4998" lon="-2.83897">
        <ele>36</ele>
        <time>2026-08-29T14:10:17Z</time>
      </trkpt>
      <trkpt lat="47.49976" lon="-2.83897">
        <ele>36</ele>
        <time>2026-08-29T14:10:18Z</time>
      </trkpt>
      <trkpt lat="47.49973" lon="-2.83896">
        <ele>36</ele>
        <time>2026-08-29T14:10:19Z</time>
      </trkpt>
      <trkpt lat="47.4997" lon="-2.83892">
        <ele>35.9</ele>
        <time>2026-08-29T14:10:20Z</time>
      </trkpt>
      <trkpt lat="47.49967" lon="-2.83887">
        <ele>35.8</ele>
        <time>2026-08-29T14:10:21Z</time>
      </trkpt>
      <trkpt lat="47.49965" lon="-2.83882">
        <ele>35.7</ele>
        <time>2026-08-29T14:10:22Z</time>
      </trkpt>
      <trkpt lat="47.49963" lon="-2.83875">
        <ele>35.7</ele>
        <time>2026-08-29T14:10:23Z</time>
      </trkpt>
      <trkpt lat="47.49962" lon="-2.83868">
        <ele>35.6</ele>
        <time>2026-08-29T14:10:24Z</time>
      </trkpt>
      <trkpt lat="47.49961" lon="-2.83861">
        <ele>35.6</ele>
        <time>2026-08-29T14:10:25Z</time>
      </trkpt>
      <trkpt lat="47.49959" lon="-2.83854">
        <ele>35.5</ele>
        <time>2026-08-29T14:10:26Z</time>
      </trkpt>
      <trkpt lat="47.49958" lon="-2.83847">
        <ele>35.5</ele>
        <time>2026-08-29T14:10:27Z</time>
      </trkpt>
      <trkpt lat="47.49957" lon="-2.83839">
        <ele>35.5</ele>
        <time>2026-08-29T14:10:28Z</time>
      </trkpt>
      <trkpt lat="47.49956" lon="-2.83832">
        <ele>35.4</ele>
        <time>2026-08-29T14:10:29Z</time>
      </trkpt>
      <trkpt lat="47.49955" lon="-2.83824">
        <ele>35.3</ele>
        <time>2026-08-29T14:10:30Z</time>
      </trkpt>
      <trkpt lat="47.49954" lon="-2.83817">
        <ele>35.1</ele>
        <time>2026-08-29T14:10:31Z</time>
      </trkpt>
      <trkpt lat="47.49953" lon="-2.83809">
        <ele>35</ele>
        <time>2026-08-29T14:10:32Z</time>
      </trkpt>
      <trkpt lat="47.49952" lon="-2.83802">
        <ele>35</ele>
        <time>2026-08-29T14:10:33Z</time>
      </trkpt>
      <trkpt lat="47.49951" lon="-2.83795">
        <ele>35</ele>
        <time>2026-08-29T14:10:34Z</time>
      </trkpt>
      <trkpt lat="47.4995" lon="-2.83788">
        <ele>35</ele>
        <time>2026-08-29T14:10:35Z</time>
      </trkpt>
      <trkpt lat="47.49948" lon="-2.83781">
        <ele>35</ele>
        <time>2026-08-29T14:10:36Z</time>
      </trkpt>
      <trkpt lat="47.49946" lon="-2.83774">
        <ele>35</ele>
        <time>2026-08-29T14:10:37Z</time>
      </trkpt>
      <trkpt lat="47.49945" lon="-2.83767">
        <ele>35</ele>
        <time>2026-08-29T14:10:38Z</time>
      </trkpt>
      <trkpt lat="47.49943" lon="-2.8376">
        <ele>35</ele>
        <time>2026-08-29T14:10:39Z</time>
      </trkpt>
      <trkpt lat="47.4994" lon="-2.83754">
        <ele>35</ele>
        <time>2026-08-29T14:10:40Z</time>
      </trkpt>
      <trkpt lat="47.49938" lon="-2.83748">
        <ele>34.9</ele>
        <time>2026-08-29T14:10:41Z</time>
      </trkpt>
      <trkpt lat="47.49936" lon="-2.83742">
        <ele>34.7</ele>
        <time>2026-08-29T14:10:42Z</time>
      </trkpt>
      <trkpt lat="47.49935" lon="-2.83736">
        <ele>34.5</ele>
        <time>2026-08-29T14:10:43Z</time>
      </trkpt>
      <trkpt lat="47.49933" lon="-2.8373">
        <ele>34.3</ele>
        <time>2026-08-29T14:10:44Z</time>
      </trkpt>
      <trkpt lat="47.49932" lon="-2.83723">
        <ele>34</ele>
        <time>2026-08-29T14:10:45Z</time>
      </trkpt>
      <trkpt lat="47.49931" lon="-2.83717">
        <ele>34</ele>
        <time>2026-08-29T14:10:46Z</time>
      </trkpt>
      <trkpt lat="47.4993" lon="-2.8371">
        <ele>34</ele>
        <time>2026-08-29T14:10:47Z</time>
      </trkpt>
      <trkpt lat="47.4993" lon="-2.83703">
        <ele>34</ele>
        <time>2026-08-29T14:10:48Z</time>
      </trkpt>
      <trkpt lat="47.49929" lon="-2.83696">
        <ele>34</ele>
        <time>2026-08-29T14:10:49Z</time>
      </trkpt>
      <trkpt lat="47.49929" lon="-2.8369">
        <ele>34</ele>
        <time>2026-08-29T14:10:50Z</time>
      </trkpt>
      <trkpt lat="47.49928" lon="-2.83683">
        <ele>34</ele>
        <time>2026-08-29T14:10:51Z</time>
      </trkpt>
      <trkpt lat="47.49928" lon="-2.83676">
        <ele>34</ele>
        <time>2026-08-29T14:10:52Z</time>
      </trkpt>
      <trkpt lat="47.49927" lon="-2.83668">
        <ele>34</ele>
        <time>2026-08-29T14:10:53Z</time>
      </trkpt>
      <trkpt lat="47.49926" lon="-2.83661">
        <ele>33.8</ele>
        <time>2026-08-29T14:10:54Z</time>
      </trkpt>
      <trkpt lat="47.49925" lon="-2.83653">
        <ele>33.5</ele>
        <time>2026-08-29T14:10:55Z</time>
      </trkpt>
      <trkpt lat="47.49924" lon="-2.83645">
        <ele>33.2</ele>
        <time>2026-08-29T14:10:56Z</time>
      </trkpt>
      <trkpt lat="47.49923" lon="-2.83638">
        <ele>33</ele>
        <time>2026-08-29T14:10:57Z</time>
      </trkpt>
      <trkpt lat="47.49922" lon="-2.8363">
        <ele>32.7</ele>
        <time>2026-08-29T14:10:58Z</time>
      </trkpt>
      <trkpt lat="47.49922" lon="-2.83621">
        <ele>32.4</ele>
        <time>2026-08-29T14:10:59Z</time>
      </trkpt>
      <trkpt lat="47.49922" lon="-2.83612">
        <ele>32</ele>
        <time>2026-08-29T14:11:00Z</time>
      </trkpt>
      <trkpt lat="47.49923" lon="-2.83603">
        <ele>31.8</ele>
        <time>2026-08-29T14:11:01Z</time>
      </trkpt>
      <trkpt lat="47.49923" lon="-2.83593">
        <ele>31.5</ele>
        <time>2026-08-29T14:11:02Z</time>
      </trkpt>
      <trkpt lat="47.49924" lon="-2.83584">
        <ele>31.3</ele>
        <time>2026-08-29T14:11:03Z</time>
      </trkpt>
      <trkpt lat="47.49925" lon="-2.83576">
        <ele>31.1</ele>
        <time>2026-08-29T14:11:04Z</time>
      </trkpt>
      <trkpt lat="47.49925" lon="-2.83569">
        <ele>31</ele>
        <time>2026-08-29T14:11:05Z</time>
      </trkpt>
      <trkpt lat="47.49927" lon="-2.83562">
        <ele>30.8</ele>
        <time>2026-08-29T14:11:06Z</time>
      </trkpt>
      <trkpt lat="47.49929" lon="-2.83557">
        <ele>30.6</ele>
        <time>2026-08-29T14:11:07Z</time>
      </trkpt>
      <trkpt lat="47.49933" lon="-2.83552">
        <ele>30.3</ele>
        <time>2026-08-29T14:11:08Z</time>
      </trkpt>
      <trkpt lat="47.49937" lon="-2.83549">
        <ele>30</ele>
        <time>2026-08-29T14:11:09Z</time>
      </trkpt>
      <trkpt lat="47.49941" lon="-2.83547">
        <ele>29.8</ele>
        <time>2026-08-29T14:11:10Z</time>
      </trkpt>
      <trkpt lat="47.49946" lon="-2.83546">
        <ele>29.7</ele>
        <time>2026-08-29T14:11:11Z</time>
      </trkpt>
      <trkpt lat="47.49949" lon="-2.83544">
        <ele>29.6</ele>
        <time>2026-08-29T14:11:12Z</time>
      </trkpt>
      <trkpt lat="47.49953" lon="-2.83543">
        <ele>29.5</ele>
        <time>2026-08-29T14:11:13Z</time>
      </trkpt>
      <trkpt lat="47.49955" lon="-2.8354">
        <ele>29.4</ele>
        <time>2026-08-29T14:11:14Z</time>
      </trkpt>
      <trkpt lat="47.49956" lon="-2.83538">
        <ele>29.4</ele>
        <time>2026-08-29T14:11:15Z</time>
      </trkpt>
      <trkpt lat="47.49957" lon="-2.83535">
        <ele>29.3</ele>
        <time>2026-08-29T14:11:16Z</time>
      </trkpt>
      <trkpt lat="47.49958" lon="-2.83532">
        <ele>29.2</ele>
        <time>2026-08-29T14:11:17Z</time>
      </trkpt>
      <trkpt lat="47.49958" lon="-2.83528">
        <ele>29</ele>
        <time>2026-08-29T14:11:18Z</time>
      </trkpt>
      <trkpt lat="47.49959" lon="-2.83523">
        <ele>28.9</ele>
        <time>2026-08-29T14:11:19Z</time>
      </trkpt>
      <trkpt lat="47.49959" lon="-2.83517">
        <ele>28.8</ele>
        <time>2026-08-29T14:11:20Z</time>
      </trkpt>
      <trkpt lat="47.49959" lon="-2.83511">
        <ele>28.7</ele>
        <time>2026-08-29T14:11:21Z</time>
      </trkpt>
      <trkpt lat="47.49959" lon="-2.83504">
        <ele>28.6</ele>
        <time>2026-08-29T14:11:22Z</time>
      </trkpt>
      <trkpt lat="47.4996" lon="-2.83497">
        <ele>28.3</ele>
        <time>2026-08-29T14:11:23Z</time>
      </trkpt>
      <trkpt lat="47.4996" lon="-2.8349">
        <ele>27.9</ele>
        <time>2026-08-29T14:11:24Z</time>
      </trkpt>
      <trkpt lat="47.49961" lon="-2.83483">
        <ele>27.5</ele>
        <time>2026-08-29T14:11:25Z</time>
      </trkpt>
      <trkpt lat="47.49962" lon="-2.83476">
        <ele>27.2</ele>
        <time>2026-08-29T14:11:26Z</time>
      </trkpt>
      <trkpt lat="47.49963" lon="-2.83468">
        <ele>27</ele>
        <time>2026-08-29T14:11:27Z</time>
      </trkpt>
      <trkpt lat="47.49964" lon="-2.83461">
        <ele>27</ele>
        <time>2026-08-29T14:11:28Z</time>
      </trkpt>
      <trkpt lat="47.49965" lon="-2.83454">
        <ele>27</ele>
        <time>2026-08-29T14:11:29Z</time>
      </trkpt>
      <trkpt lat="47.49967" lon="-2.83447">
        <ele>27</ele>
        <time>2026-08-29T14:11:30Z</time>
      </trkpt>
      <trkpt lat="47.49968" lon="-2.83441">
        <ele>27</ele>
        <time>2026-08-29T14:11:31Z</time>
      </trkpt>
      <trkpt lat="47.49969" lon="-2.83434">
        <ele>26.9</ele>
        <time>2026-08-29T14:11:32Z</time>
      </trkpt>
      <trkpt lat="47.49971" lon="-2.83428">
        <ele>26.9</ele>
        <time>2026-08-29T14:11:33Z</time>
      </trkpt>
      <trkpt lat="47.49972" lon="-2.83422">
        <ele>27</ele>
        <time>2026-08-29T14:11:34Z</time>
      </trkpt>
      <trkpt lat="47.49973" lon="-2.83416">
        <ele>27</ele>
        <time>2026-08-29T14:11:35Z</time>
      </trkpt>
      <trkpt lat="47.49974" lon="-2.83411">
        <ele>27</ele>
        <time>2026-08-29T14:11:36Z</time>
      </trkpt>
      <trkpt lat="47.49975" lon="-2.83405">
        <ele>27</ele>
        <time>2026-08-29T14:11:37Z</time>
      </trkpt>
      <trkpt lat="47.49976" lon="-2.834">
        <ele>27</ele>
        <time>2026-08-29T14:11:38Z</time>
      </trkpt>
      <trkpt lat="47.49977" lon="-2.83395">
        <ele>27</ele>
        <time>2026-08-29T14:11:39Z</time>
      </trkpt>
      <trkpt lat="47.49978" lon="-2.83391">
        <ele>27</ele>
        <time>2026-08-29T14:11:40Z</time>
      </trkpt>
      <trkpt lat="47.49979" lon="-2.83386">
        <ele>27</ele>
        <time>2026-08-29T14:11:41Z</time>
      </trkpt>
      <trkpt lat="47.4998" lon="-2.83382">
        <ele>27.1</ele>
        <time>2026-08-29T14:11:42Z</time>
      </trkpt>
      <trkpt lat="47.49981" lon="-2.83378">
        <ele>27.1</ele>
        <time>2026-08-29T14:11:43Z</time>
      </trkpt>
      <trkpt lat="47.49982" lon="-2.83373">
        <ele>27.2</ele>
        <time>2026-08-29T14:11:44Z</time>
      </trkpt>
      <trkpt lat="47.49983" lon="-2.83369">
        <ele>27.3</ele>
        <time>2026-08-29T14:11:45Z</time>
      </trkpt>
      <trkpt lat="47.49984" lon="-2.83365">
        <ele>27.4</ele>
        <time>2026-08-29T14:11:46Z</time>
      </trkpt>
      <trkpt lat="47.49986" lon="-2.83361">
        <ele>27.5</ele>
        <time>2026-08-29T14:11:47Z</time>
      </trkpt>
      <trkpt lat="47.49987" lon="-2.83357">
        <ele>27.7</ele>
        <time>2026-08-29T14:11:48Z</time>
      </trkpt>
      <trkpt lat="47.4999" lon="-2.83353">
        <ele>27.9</ele>
        <time>2026-08-29T14:11:49Z</time>
      </trkpt>
      <trkpt lat="47.49992" lon="-2.83349">
        <ele>28.1</ele>
        <time>2026-08-29T14:11:50Z</time>
      </trkpt>
      <trkpt lat="47.49994" lon="-2.83344">
        <ele>28.4</ele>
        <time>2026-08-29T14:11:51Z</time>
      </trkpt>
      <trkpt lat="47.49996" lon="-2.83341">
        <ele>28.6</ele>
        <time>2026-08-29T14:11:52Z</time>
      </trkpt>
      <trkpt lat="47.49998" lon="-2.83336">
        <ele>28.8</ele>
        <time>2026-08-29T14:11:53Z</time>
      </trkpt>
      <trkpt lat="47.49999" lon="-2.83332">
        <ele>29.1</ele>
        <time>2026-08-29T14:11:54Z</time>
      </trkpt>
      <trkpt lat="47.50001" lon="-2.83327">
        <ele>29.5</ele>
        <time>2026-08-29T14:11:55Z</time>
      </trkpt>
      <trkpt lat="47.50002" lon="-2.83322">
        <ele>29.8</ele>
        <time>2026-08-29T14:11:56Z</time>
      </trkpt>
      <trkpt lat="47.50004" lon="-2.83317">
        <ele>30.2</ele>
        <time>2026-08-29T14:11:57Z</time>
      </trkpt>
      <trkpt lat="47.50005" lon="-2.83312">
        <ele>30.5</ele>
        <time>2026-08-29T14:11:58Z</time>
      </trkpt>
      <trkpt lat="47.50007" lon="-2.83307">
        <ele>30.9</ele>
        <time>2026-08-29T14:11:59Z</time>
      </trkpt>
      <trkpt lat="47.50008" lon="-2.83302">
        <ele>31.1</ele>
        <time>2026-08-29T14:12:00Z</time>
      </trkpt>
      <trkpt lat="47.50009" lon="-2.83297">
        <ele>31.2</ele>
        <time>2026-08-29T14:12:01Z</time>
      </trkpt>
      <trkpt lat="47.5001" lon="-2.83292">
        <ele>31.3</ele>
        <time>2026-08-29T14:12:02Z</time>
      </trkpt>
      <trkpt lat="47.50011" lon="-2.83287">
        <ele>31.4</ele>
        <time>2026-08-29T14:12:03Z</time>
      </trkpt>
      <trkpt lat="47.50012" lon="-2.83281">
        <ele>31.5</ele>
        <time>2026-08-29T14:12:04Z</time>
      </trkpt>
      <trkpt lat="47.50012" lon="-2.83276">
        <ele>31.6</ele>
        <time>2026-08-29T14:12:05Z</time>
      </trkpt>
      <trkpt lat="47.50013" lon="-2.8327">
        <ele>31.7</ele>
        <time>2026-08-29T14:12:06Z</time>
      </trkpt>
      <trkpt lat="47.50014" lon="-2.83265">
        <ele>31.7</ele>
        <time>2026-08-29T14:12:07Z</time>
      </trkpt>
      <trkpt lat="47.50014" lon="-2.8326">
        <ele>31.8</ele>
        <time>2026-08-29T14:12:08Z</time>
      </trkpt>
      <trkpt lat="47.50015" lon="-2.83255">
        <ele>31.9</ele>
        <time>2026-08-29T14:12:09Z</time>
      </trkpt>
      <trkpt lat="47.50016" lon="-2.83249">
        <ele>32</ele>
        <time>2026-08-29T14:12:10Z</time>
      </trkpt>
      <trkpt lat="47.50016" lon="-2.83244">
        <ele>32.2</ele>
        <time>2026-08-29T14:12:11Z</time>
      </trkpt>
      <trkpt lat="47.50017" lon="-2.83239">
        <ele>32.4</ele>
        <time>2026-08-29T14:12:12Z</time>
      </trkpt>
      <trkpt lat="47.50018" lon="-2.83234">
        <ele>32.6</ele>
        <time>2026-08-29T14:12:13Z</time>
      </trkpt>
      <trkpt lat="47.50019" lon="-2.83229">
        <ele>32.8</ele>
        <time>2026-08-29T14:12:14Z</time>
      </trkpt>
      <trkpt lat="47.50019" lon="-2.83224">
        <ele>32.9</ele>
        <time>2026-08-29T14:12:15Z</time>
      </trkpt>
      <trkpt lat="47.5002" lon="-2.83219">
        <ele>33</ele>
        <time>2026-08-29T14:12:16Z</time>
      </trkpt>
      <trkpt lat="47.50021" lon="-2.83214">
        <ele>33</ele>
        <time>2026-08-29T14:12:17Z</time>
      </trkpt>
      <trkpt lat="47.50022" lon="-2.83209">
        <ele>33</ele>
        <time>2026-08-29T14:12:18Z</time>
      </trkpt>
      <trkpt lat="47.50022" lon="-2.83205">
        <ele>33</ele>
        <time>2026-08-29T14:12:19Z</time>
      </trkpt>
      <trkpt lat="47.50023" lon="-2.832">
        <ele>33</ele>
        <time>2026-08-29T14:12:20Z</time>
      </trkpt>
      <trkpt lat="47.50024" lon="-2.83195">
        <ele>33</ele>
        <time>2026-08-29T14:12:21Z</time>
      </trkpt>
      <trkpt lat="47.50024" lon="-2.8319">
        <ele>33.2</ele>
        <time>2026-08-29T14:12:22Z</time>
      </trkpt>
      <trkpt lat="47.50025" lon="-2.83185">
        <ele>33.3</ele>
        <time>2026-08-29T14:12:23Z</time>
      </trkpt>
      <trkpt lat="47.50026" lon="-2.8318">
        <ele>33.5</ele>
        <time>2026-08-29T14:12:24Z</time>
      </trkpt>
      <trkpt lat="47.50027" lon="-2.83175">
        <ele>33.7</ele>
        <time>2026-08-29T14:12:25Z</time>
      </trkpt>
      <trkpt lat="47.50028" lon="-2.83171">
        <ele>33.8</ele>
        <time>2026-08-29T14:12:26Z</time>
      </trkpt>
      <trkpt lat="47.5003" lon="-2.83167">
        <ele>34</ele>
        <time>2026-08-29T14:12:27Z</time>
      </trkpt>
      <trkpt lat="47.50032" lon="-2.83162">
        <ele>34.1</ele>
        <time>2026-08-29T14:12:28Z</time>
      </trkpt>
      <trkpt lat="47.50033" lon="-2.83158">
        <ele>34.3</ele>
        <time>2026-08-29T14:12:29Z</time>
      </trkpt>
      <trkpt lat="47.50035" lon="-2.83154">
        <ele>34.3</ele>
        <time>2026-08-29T14:12:30Z</time>
      </trkpt>
      <trkpt lat="47.50037" lon="-2.83149">
        <ele>34.4</ele>
        <time>2026-08-29T14:12:31Z</time>
      </trkpt>
      <trkpt lat="47.50039" lon="-2.83144">
        <ele>34.5</ele>
        <time>2026-08-29T14:12:32Z</time>
      </trkpt>
      <trkpt lat="47.50041" lon="-2.83139">
        <ele>34.5</ele>
        <time>2026-08-29T14:12:33Z</time>
      </trkpt>
      <trkpt lat="47.50042" lon="-2.83134">
        <ele>34.6</ele>
        <time>2026-08-29T14:12:34Z</time>
      </trkpt>
      <trkpt lat="47.50043" lon="-2.83129">
        <ele>34.6</ele>
        <time>2026-08-29T14:12:35Z</time>
      </trkpt>
      <trkpt lat="47.50044" lon="-2.83124">
        <ele>34.7</ele>
        <time>2026-08-29T14:12:36Z</time>
      </trkpt>
      <trkpt lat="47.50045" lon="-2.83118">
        <ele>34.8</ele>
        <time>2026-08-29T14:12:37Z</time>
      </trkpt>
      <trkpt lat="47.50046" lon="-2.83113">
        <ele>35</ele>
        <time>2026-08-29T14:12:38Z</time>
      </trkpt>
      <trkpt lat="47.50047" lon="-2.83108">
        <ele>35</ele>
        <time>2026-08-29T14:12:39Z</time>
      </trkpt>
      <trkpt lat="47.50048" lon="-2.83103">
        <ele>35</ele>
        <time>2026-08-29T14:12:40Z</time>
      </trkpt>
      <trkpt lat="47.50049" lon="-2.83098">
        <ele>35</ele>
        <time>2026-08-29T14:12:41Z</time>
      </trkpt>
      <trkpt lat="47.5005" lon="-2.83093">
        <ele>35</ele>
        <time>2026-08-29T14:12:42Z</time>
      </trkpt>
      <trkpt lat="47.50051" lon="-2.83088">
        <ele>35</ele>
        <time>2026-08-29T14:12:43Z</time>
      </trkpt>
      <trkpt lat="47.50052" lon="-2.83083">
        <ele>35</ele>
        <time>2026-08-29T14:12:44Z</time>
      </trkpt>
      <trkpt lat="47.50053" lon="-2.83078">
        <ele>35.2</ele>
        <time>2026-08-29T14:12:45Z</time>
      </trkpt>
      <trkpt lat="47.50054" lon="-2.83073">
        <ele>35.4</ele>
        <time>2026-08-29T14:12:46Z</time>
      </trkpt>
      <trkpt lat="47.50055" lon="-2.83068">
        <ele>35.5</ele>
        <time>2026-08-29T14:12:47Z</time>
      </trkpt>
      <trkpt lat="47.50056" lon="-2.83063">
        <ele>35.7</ele>
        <time>2026-08-29T14:12:48Z</time>
      </trkpt>
      <trkpt lat="47.50056" lon="-2.83058">
        <ele>35.9</ele>
        <time>2026-08-29T14:12:49Z</time>
      </trkpt>
      <trkpt lat="47.50057" lon="-2.83053">
        <ele>36</ele>
        <time>2026-08-29T14:12:50Z</time>
      </trkpt>
      <trkpt lat="47.50057" lon="-2.83049">
        <ele>36</ele>
        <time>2026-08-29T14:12:51Z</time>
      </trkpt>
      <trkpt lat="47.50058" lon="-2.83044">
        <ele>35.9</ele>
        <time>2026-08-29T14:12:52Z</time>
      </trkpt>
      <trkpt lat="47.50059" lon="-2.83039">
        <ele>35.9</ele>
        <time>2026-08-29T14:12:53Z</time>
      </trkpt>
      <trkpt lat="47.50059" lon="-2.83034">
        <ele>36</ele>
        <time>2026-08-29T14:12:54Z</time>
      </trkpt>
      <trkpt lat="47.50059" lon="-2.83029">
        <ele>36</ele>
        <time>2026-08-29T14:12:55Z</time>
      </trkpt>
      <trkpt lat="47.5006" lon="-2.83024">
        <ele>36</ele>
        <time>2026-08-29T14:12:56Z</time>
      </trkpt>
      <trkpt lat="47.50061" lon="-2.83019">
        <ele>36</ele>
        <time>2026-08-29T14:12:57Z</time>
      </trkpt>
      <trkpt lat="47.50062" lon="-2.83014">
        <ele>36</ele>
        <time>2026-08-29T14:12:58Z</time>
      </trkpt>
      <trkpt lat="47.50062" lon="-2.83009">
        <ele>36</ele>
        <time>2026-08-29T14:12:59Z</time>
      </trkpt>
      <trkpt lat="47.50063" lon="-2.83004">
        <ele>36</ele>
        <time>2026-08-29T14:13:00Z</time>
      </trkpt>
      <trkpt lat="47.50063" lon="-2.82999">
        <ele>36</ele>
        <time>2026-08-29T14:13:01Z</time>
      </trkpt>
      <trkpt lat="47.50064" lon="-2.82994">
        <ele>36.2</ele>
        <time>2026-08-29T14:13:02Z</time>
      </trkpt>
      <trkpt lat="47.50064" lon="-2.82989">
        <ele>36.4</ele>
        <time>2026-08-29T14:13:03Z</time>
      </trkpt>
      <trkpt lat="47.50064" lon="-2.82984">
        <ele>36.6</ele>
        <time>2026-08-29T14:13:04Z</time>
      </trkpt>
      <trkpt lat="47.50064" lon="-2.82978">
        <ele>36.8</ele>
        <time>2026-08-29T14:13:05Z</time>
      </trkpt>
      <trkpt lat="47.50065" lon="-2.82973">
        <ele>37</ele>
        <time>2026-08-29T14:13:06Z</time>
      </trkpt>
      <trkpt lat="47.50065" lon="-2.82968">
        <ele>37</ele>
        <time>2026-08-29T14:13:07Z</time>
      </trkpt>
      <trkpt lat="47.50065" lon="-2.82963">
        <ele>37</ele>
        <time>2026-08-29T14:13:08Z</time>
      </trkpt>
      <trkpt lat="47.50065" lon="-2.82957">
        <ele>37</ele>
        <time>2026-08-29T14:13:09Z</time>
      </trkpt>
      <trkpt lat="47.50065" lon="-2.82951">
        <ele>37</ele>
        <time>2026-08-29T14:13:10Z</time>
      </trkpt>
      <trkpt lat="47.50065" lon="-2.82946">
        <ele>37</ele>
        <time>2026-08-29T14:13:11Z</time>
      </trkpt>
      <trkpt lat="47.50065" lon="-2.8294">
        <ele>37</ele>
        <time>2026-08-29T14:13:12Z</time>
      </trkpt>
      <trkpt lat="47.50065" lon="-2.82934">
        <ele>37</ele>
        <time>2026-08-29T14:13:13Z</time>
      </trkpt>
      <trkpt lat="47.50064" lon="-2.82928">
        <ele>37</ele>
        <time>2026-08-29T14:13:14Z</time>
      </trkpt>
      <trkpt lat="47.50063" lon="-2.82922">
        <ele>37</ele>
        <time>2026-08-29T14:13:15Z</time>
      </trkpt>
      <trkpt lat="47.50063" lon="-2.82916">
        <ele>37</ele>
        <time>2026-08-29T14:13:16Z</time>
      </trkpt>
      <trkpt lat="47.50062" lon="-2.8291">
        <ele>37</ele>
        <time>2026-08-29T14:13:17Z</time>
      </trkpt>
      <trkpt lat="47.50062" lon="-2.82904">
        <ele>37</ele>
        <time>2026-08-29T14:13:18Z</time>
      </trkpt>
      <trkpt lat="47.50062" lon="-2.82898">
        <ele>37</ele>
        <time>2026-08-29T14:13:19Z</time>
      </trkpt>
      <trkpt lat="47.50062" lon="-2.82892">
        <ele>37</ele>
        <time>2026-08-29T14:13:20Z</time>
      </trkpt>
      <trkpt lat="47.50061" lon="-2.82886">
        <ele>37</ele>
        <time>2026-08-29T14:13:21Z</time>
      </trkpt>
      <trkpt lat="47.50061" lon="-2.8288">
        <ele>37</ele>
        <time>2026-08-29T14:13:22Z</time>
      </trkpt>
      <trkpt lat="47.5006" lon="-2.82874">
        <ele>37</ele>
        <time>2026-08-29T14:13:23Z</time>
      </trkpt>
      <trkpt lat="47.5006" lon="-2.82868">
        <ele>37</ele>
        <time>2026-08-29T14:13:24Z</time>
      </trkpt>
      <trkpt lat="47.5006" lon="-2.82862">
        <ele>37</ele>
        <time>2026-08-29T14:13:25Z</time>
      </trkpt>
      <trkpt lat="47.50059" lon="-2.82856">
        <ele>37</ele>
        <time>2026-08-29T14:13:26Z</time>
      </trkpt>
      <trkpt lat="47.50059" lon="-2.8285">
        <ele>37</ele>
        <time>2026-08-29T14:13:27Z</time>
      </trkpt>
      <trkpt lat="47.50059" lon="-2.82843">
        <ele>37</ele>
        <time>2026-08-29T14:13:28Z</time>
      </trkpt>
      <trkpt lat="47.50059" lon="-2.82837">
        <ele>37</ele>
        <time>2026-08-29T14:13:29Z</time>
      </trkpt>
      <trkpt lat="47.5006" lon="-2.82831">
        <ele>37</ele>
        <time>2026-08-29T14:13:30Z</time>
      </trkpt>
      <trkpt lat="47.5006" lon="-2.82825">
        <ele>37</ele>
        <time>2026-08-29T14:13:31Z</time>
      </trkpt>
      <trkpt lat="47.5006" lon="-2.82819">
        <ele>37</ele>
        <time>2026-08-29T14:13:32Z</time>
      </trkpt>
      <trkpt lat="47.5006" lon="-2.82813">
        <ele>37</ele>
        <time>2026-08-29T14:13:33Z</time>
      </trkpt>
      <trkpt lat="47.5006" lon="-2.82807">
        <ele>37</ele>
        <time>2026-08-29T14:13:34Z</time>
      </trkpt>
      <trkpt lat="47.50059" lon="-2.82801">
        <ele>37</ele>
        <time>2026-08-29T14:13:35Z</time>
      </trkpt>
      <trkpt lat="47.50057" lon="-2.82795">
        <ele>37</ele>
        <time>2026-08-29T14:13:36Z</time>
      </trkpt>
      <trkpt lat="47.50056" lon="-2.82789">
        <ele>37</ele>
        <time>2026-08-29T14:13:37Z</time>
      </trkpt>
      <trkpt lat="47.50054" lon="-2.82783">
        <ele>37</ele>
        <time>2026-08-29T14:13:38Z</time>
      </trkpt>
      <trkpt lat="47.50052" lon="-2.82778">
        <ele>36.9</ele>
        <time>2026-08-29T14:13:39Z</time>
      </trkpt>
      <trkpt lat="47.5005" lon="-2.82773">
        <ele>36.8</ele>
        <time>2026-08-29T14:13:40Z</time>
      </trkpt>
      <trkpt lat="47.50048" lon="-2.82767">
        <ele>36.7</ele>
        <time>2026-08-29T14:13:41Z</time>
      </trkpt>
      <trkpt lat="47.50047" lon="-2.82762">
        <ele>36.7</ele>
        <time>2026-08-29T14:13:42Z</time>
      </trkpt>
      <trkpt lat="47.50046" lon="-2.82756">
        <ele>36.7</ele>
        <time>2026-08-29T14:13:43Z</time>
      </trkpt>
      <trkpt lat="47.50044" lon="-2.82749">
        <ele>36.6</ele>
        <time>2026-08-29T14:13:44Z</time>
      </trkpt>
      <trkpt lat="47.50042" lon="-2.82743">
        <ele>36.6</ele>
        <time>2026-08-29T14:13:45Z</time>
      </trkpt>
      <trkpt lat="47.50041" lon="-2.82736">
        <ele>36.7</ele>
        <time>2026-08-29T14:13:46Z</time>
      </trkpt>
      <trkpt lat="47.50039" lon="-2.82729">
        <ele>36.9</ele>
        <time>2026-08-29T14:13:47Z</time>
      </trkpt>
      <trkpt lat="47.50038" lon="-2.82721">
        <ele>37</ele>
        <time>2026-08-29T14:13:48Z</time>
      </trkpt>
      <trkpt lat="47.50037" lon="-2.82714">
        <ele>37</ele>
        <time>2026-08-29T14:13:49Z</time>
      </trkpt>
      <trkpt lat="47.50035" lon="-2.82707">
        <ele>37</ele>
        <time>2026-08-29T14:13:50Z</time>
      </trkpt>
      <trkpt lat="47.50033" lon="-2.82701">
        <ele>37</ele>
        <time>2026-08-29T14:13:51Z</time>
      </trkpt>
      <trkpt lat="47.50031" lon="-2.82695">
        <ele>37</ele>
        <time>2026-08-29T14:13:52Z</time>
      </trkpt>
      <trkpt lat="47.50029" lon="-2.82688">
        <ele>37</ele>
        <time>2026-08-29T14:13:53Z</time>
      </trkpt>
      <trkpt lat="47.50027" lon="-2.82682">
        <ele>37</ele>
        <time>2026-08-29T14:13:54Z</time>
      </trkpt>
      <trkpt lat="47.50026" lon="-2.82675">
        <ele>36.9</ele>
        <time>2026-08-29T14:13:55Z</time>
      </trkpt>
      <trkpt lat="47.50024" lon="-2.82669">
        <ele>36.9</ele>
        <time>2026-08-29T14:13:56Z</time>
      </trkpt>
      <trkpt lat="47.50021" lon="-2.82662">
        <ele>36.6</ele>
        <time>2026-08-29T14:13:57Z</time>
      </trkpt>
      <trkpt lat="47.50019" lon="-2.82654">
        <ele>36.4</ele>
        <time>2026-08-29T14:13:58Z</time>
      </trkpt>
      <trkpt lat="47.50017" lon="-2.82647">
        <ele>36.2</ele>
        <time>2026-08-29T14:13:59Z</time>
      </trkpt>
      <trkpt lat="47.50014" lon="-2.8264">
        <ele>36</ele>
        <time>2026-08-29T14:14:00Z</time>
      </trkpt>
      <trkpt lat="47.50012" lon="-2.82633">
        <ele>36</ele>
        <time>2026-08-29T14:14:01Z</time>
      </trkpt>
      <trkpt lat="47.5001" lon="-2.82625">
        <ele>36</ele>
        <time>2026-08-29T14:14:02Z</time>
      </trkpt>
      <trkpt lat="47.50008" lon="-2.82618">
        <ele>36</ele>
        <time>2026-08-29T14:14:03Z</time>
      </trkpt>
      <trkpt lat="47.50006" lon="-2.8261">
        <ele>36</ele>
        <time>2026-08-29T14:14:04Z</time>
      </trkpt>
      <trkpt lat="47.50004" lon="-2.82603">
        <ele>36</ele>
        <time>2026-08-29T14:14:05Z</time>
      </trkpt>
      <trkpt lat="47.50002" lon="-2.82595">
        <ele>36</ele>
        <time>2026-08-29T14:14:06Z</time>
      </trkpt>
      <trkpt lat="47.5" lon="-2.82587">
        <ele>36</ele>
        <time>2026-08-29T14:14:07Z</time>
      </trkpt>
      <trkpt lat="47.49998" lon="-2.82579">
        <ele>35.9</ele>
        <time>2026-08-29T14:14:08Z</time>
      </trkpt>
      <trkpt lat="47.49996" lon="-2.82571">
        <ele>35.9</ele>
        <time>2026-08-29T14:14:09Z</time>
      </trkpt>
      <trkpt lat="47.49995" lon="-2.82563">
        <ele>35.8</ele>
        <time>2026-08-29T14:14:10Z</time>
      </trkpt>
      <trkpt lat="47.49993" lon="-2.82555">
        <ele>35.7</ele>
        <time>2026-08-29T14:14:11Z</time>
      </trkpt>
      <trkpt lat="47.49991" lon="-2.82547">
        <ele>35.4</ele>
        <time>2026-08-29T14:14:12Z</time>
      </trkpt>
      <trkpt lat="47.49989" lon="-2.82539">
        <ele>35</ele>
        <time>2026-08-29T14:14:13Z</time>
      </trkpt>
      <trkpt lat="47.49987" lon="-2.82531">
        <ele>34.6</ele>
        <time>2026-08-29T14:14:14Z</time>
      </trkpt>
      <trkpt lat="47.49985" lon="-2.82522">
        <ele>34.5</ele>
        <time>2026-08-29T14:14:15Z</time>
      </trkpt>
      <trkpt lat="47.49984" lon="-2.82513">
        <ele>34.4</ele>
        <time>2026-08-29T14:14:16Z</time>
      </trkpt>
      <trkpt lat="47.49982" lon="-2.82505">
        <ele>34.4</ele>
        <time>2026-08-29T14:14:17Z</time>
      </trkpt>
      <trkpt lat="47.49981" lon="-2.82496">
        <ele>34.2</ele>
        <time>2026-08-29T14:14:18Z</time>
      </trkpt>
      <trkpt lat="47.4998" lon="-2.82486">
        <ele>33.8</ele>
        <time>2026-08-29T14:14:19Z</time>
      </trkpt>
      <trkpt lat="47.49979" lon="-2.82477">
        <ele>33.4</ele>
        <time>2026-08-29T14:14:20Z</time>
      </trkpt>
      <trkpt lat="47.49978" lon="-2.82467">
        <ele>33</ele>
        <time>2026-08-29T14:14:21Z</time>
      </trkpt>
      <trkpt lat="47.49977" lon="-2.82458">
        <ele>32.7</ele>
        <time>2026-08-29T14:14:22Z</time>
      </trkpt>
      <trkpt lat="47.49976" lon="-2.82448">
        <ele>32.3</ele>
        <time>2026-08-29T14:14:23Z</time>
      </trkpt>
      <trkpt lat="47.49975" lon="-2.82439">
        <ele>32.1</ele>
        <time>2026-08-29T14:14:24Z</time>
      </trkpt>
      <trkpt lat="47.49975" lon="-2.8243">
        <ele>32</ele>
        <time>2026-08-29T14:14:25Z</time>
      </trkpt>
      <trkpt lat="47.49975" lon="-2.8242">
        <ele>32</ele>
        <time>2026-08-29T14:14:26Z</time>
      </trkpt>
      <trkpt lat="47.49976" lon="-2.82411">
        <ele>32</ele>
        <time>2026-08-29T14:14:27Z</time>
      </trkpt>
      <trkpt lat="47.49976" lon="-2.82402">
        <ele>32</ele>
        <time>2026-08-29T14:14:28Z</time>
      </trkpt>
      <trkpt lat="47.49977" lon="-2.82393">
        <ele>32</ele>
        <time>2026-08-29T14:14:29Z</time>
      </trkpt>
      <trkpt lat="47.49978" lon="-2.82385">
        <ele>32</ele>
        <time>2026-08-29T14:14:30Z</time>
      </trkpt>
      <trkpt lat="47.49978" lon="-2.82375">
        <ele>32</ele>
        <time>2026-08-29T14:14:31Z</time>
      </trkpt>
      <trkpt lat="47.49978" lon="-2.82366">
        <ele>32</ele>
        <time>2026-08-29T14:14:32Z</time>
      </trkpt>
      <trkpt lat="47.49978" lon="-2.82357">
        <ele>32</ele>
        <time>2026-08-29T14:14:33Z</time>
      </trkpt>
      <trkpt lat="47.49978" lon="-2.82348">
        <ele>32</ele>
        <time>2026-08-29T14:14:34Z</time>
      </trkpt>
      <trkpt lat="47.49977" lon="-2.82339">
        <ele>32</ele>
        <time>2026-08-29T14:14:35Z</time>
      </trkpt>
      <trkpt lat="47.49975" lon="-2.82331">
        <ele>32</ele>
        <time>2026-08-29T14:14:36Z</time>
      </trkpt>
      <trkpt lat="47.49974" lon="-2.82322">
        <ele>32</ele>
        <time>2026-08-29T14:14:37Z</time>
      </trkpt>
      <trkpt lat="47.49971" lon="-2.82314">
        <ele>32</ele>
        <time>2026-08-29T14:14:38Z</time>
      </trkpt>
      <trkpt lat="47.49968" lon="-2.82308">
        <ele>32</ele>
        <time>2026-08-29T14:14:39Z</time>
      </trkpt>
      <trkpt lat="47.49963" lon="-2.82302">
        <ele>32.1</ele>
        <time>2026-08-29T14:14:40Z</time>
      </trkpt>
      <trkpt lat="47.49959" lon="-2.82296">
        <ele>32.3</ele>
        <time>2026-08-29T14:14:41Z</time>
      </trkpt>
      <trkpt lat="47.49954" lon="-2.82291">
        <ele>32.5</ele>
        <time>2026-08-29T14:14:42Z</time>
      </trkpt>
      <trkpt lat="47.4995" lon="-2.82286">
        <ele>32.7</ele>
        <time>2026-08-29T14:14:43Z</time>
      </trkpt>
      <trkpt lat="47.49946" lon="-2.82281">
        <ele>32.9</ele>
        <time>2026-08-29T14:14:44Z</time>
      </trkpt>
      <trkpt lat="47.49943" lon="-2.82276">
        <ele>33.1</ele>
        <time>2026-08-29T14:14:45Z</time>
      </trkpt>
      <trkpt lat="47.49939" lon="-2.82271">
        <ele>33.2</ele>
        <time>2026-08-29T14:14:46Z</time>
      </trkpt>
      <trkpt lat="47.49935" lon="-2.82266">
        <ele>33.4</ele>
        <time>2026-08-29T14:14:47Z</time>
      </trkpt>
      <trkpt lat="47.49932" lon="-2.82262">
        <ele>33.6</ele>
        <time>2026-08-29T14:14:48Z</time>
      </trkpt>
      <trkpt lat="47.49929" lon="-2.82257">
        <ele>33.7</ele>
        <time>2026-08-29T14:14:49Z</time>
      </trkpt>
      <trkpt lat="47.49926" lon="-2.82252">
        <ele>33.9</ele>
        <time>2026-08-29T14:14:50Z</time>
      </trkpt>
      <trkpt lat="47.49924" lon="-2.82247">
        <ele>34.1</ele>
        <time>2026-08-29T14:14:51Z</time>
      </trkpt>
      <trkpt lat="47.49921" lon="-2.82241">
        <ele>34.3</ele>
        <time>2026-08-29T14:14:52Z</time>
      </trkpt>
      <trkpt lat="47.49919" lon="-2.82235">
        <ele>34.5</ele>
        <time>2026-08-29T14:14:53Z</time>
      </trkpt>
      <trkpt lat="47.49917" lon="-2.82229">
        <ele>34.8</ele>
        <time>2026-08-29T14:14:54Z</time>
      </trkpt>
      <trkpt lat="47.49916" lon="-2.82224">
        <ele>34.9</ele>
        <time>2026-08-29T14:14:55Z</time>
      </trkpt>
      <trkpt lat="47.49914" lon="-2.82218">
        <ele>34.9</ele>
        <time>2026-08-29T14:14:56Z</time>
      </trkpt>
      <trkpt lat="47.49912" lon="-2.82212">
        <ele>34.8</ele>
        <time>2026-08-29T14:14:57Z</time>
      </trkpt>
      <trkpt lat="47.4991" lon="-2.82207">
        <ele>34.8</ele>
        <time>2026-08-29T14:14:58Z</time>
      </trkpt>
      <trkpt lat="47.49908" lon="-2.82202">
        <ele>34.7</ele>
        <time>2026-08-29T14:14:59Z</time>
      </trkpt>
      <trkpt lat="47.49905" lon="-2.82196">
        <ele>34.6</ele>
        <time>2026-08-29T14:15:00Z</time>
      </trkpt>
      <trkpt lat="47.49903" lon="-2.82191">
        <ele>34.6</ele>
        <time>2026-08-29T14:15:01Z</time>
      </trkpt>
      <trkpt lat="47.49901" lon="-2.82185">
        <ele>34.6</ele>
        <time>2026-08-29T14:15:02Z</time>
      </trkpt>
      <trkpt lat="47.49898" lon="-2.8218">
        <ele>34.7</ele>
        <time>2026-08-29T14:15:03Z</time>
      </trkpt>
      <trkpt lat="47.49895" lon="-2.82175">
        <ele>34.8</ele>
        <time>2026-08-29T14:15:04Z</time>
      </trkpt>
      <trkpt lat="47.49892" lon="-2.82169">
        <ele>34.9</ele>
        <time>2026-08-29T14:15:05Z</time>
      </trkpt>
      <trkpt lat="47.49889" lon="-2.82164">
        <ele>35</ele>
        <time>2026-08-29T14:15:06Z</time>
      </trkpt>
      <trkpt lat="47.49887" lon="-2.82158">
        <ele>34.9</ele>
        <time>2026-08-29T14:15:07Z</time>
      </trkpt>
      <trkpt lat="47.49884" lon="-2.82153">
        <ele>34.8</ele>
        <time>2026-08-29T14:15:08Z</time>
      </trkpt>
      <trkpt lat="47.49881" lon="-2.82147">
        <ele>34.7</ele>
        <time>2026-08-29T14:15:09Z</time>
      </trkpt>
      <trkpt lat="47.49878" lon="-2.82141">
        <ele>34.6</ele>
        <time>2026-08-29T14:15:10Z</time>
      </trkpt>
      <trkpt lat="47.49875" lon="-2.82135">
        <ele>34.6</ele>
        <time>2026-08-29T14:15:11Z</time>
      </trkpt>
      <trkpt lat="47.49872" lon="-2.82129">
        <ele>34.6</ele>
        <time>2026-08-29T14:15:12Z</time>
      </trkpt>
      <trkpt lat="47.49869" lon="-2.82124">
        <ele>34.7</ele>
        <time>2026-08-29T14:15:13Z</time>
      </trkpt>
      <trkpt lat="47.49865" lon="-2.82118">
        <ele>34.8</ele>
        <time>2026-08-29T14:15:14Z</time>
      </trkpt>
      <trkpt lat="47.49862" lon="-2.82113">
        <ele>34.9</ele>
        <time>2026-08-29T14:15:15Z</time>
      </trkpt>
      <trkpt lat="47.49859" lon="-2.82107">
        <ele>34.9</ele>
        <time>2026-08-29T14:15:16Z</time>
      </trkpt>
      <trkpt lat="47.49856" lon="-2.82102">
        <ele>34.8</ele>
        <time>2026-08-29T14:15:17Z</time>
      </trkpt>
      <trkpt lat="47.49853" lon="-2.82096">
        <ele>34.7</ele>
        <time>2026-08-29T14:15:18Z</time>
      </trkpt>
      <trkpt lat="47.4985" lon="-2.82091">
        <ele>34.6</ele>
        <time>2026-08-29T14:15:19Z</time>
      </trkpt>
      <trkpt lat="47.49847" lon="-2.82085">
        <ele>34.5</ele>
        <time>2026-08-29T14:15:20Z</time>
      </trkpt>
      <trkpt lat="47.49844" lon="-2.82079">
        <ele>34.5</ele>
        <time>2026-08-29T14:15:21Z</time>
      </trkpt>
      <trkpt lat="47.49841" lon="-2.82074">
        <ele>34.5</ele>
        <time>2026-08-29T14:15:22Z</time>
      </trkpt>
      <trkpt lat="47.49838" lon="-2.82068">
        <ele>34.6</ele>
        <time>2026-08-29T14:15:23Z</time>
      </trkpt>
      <trkpt lat="47.49836" lon="-2.82062">
        <ele>34.8</ele>
        <time>2026-08-29T14:15:24Z</time>
      </trkpt>
      <trkpt lat="47.49833" lon="-2.82055">
        <ele>35</ele>
        <time>2026-08-29T14:15:25Z</time>
      </trkpt>
      <trkpt lat="47.49831" lon="-2.82049">
        <ele>34.9</ele>
        <time>2026-08-29T14:15:26Z</time>
      </trkpt>
      <trkpt lat="47.49828" lon="-2.82043">
        <ele>34.8</ele>
        <time>2026-08-29T14:15:27Z</time>
      </trkpt>
      <trkpt lat="47.49826" lon="-2.82036">
        <ele>34.7</ele>
        <time>2026-08-29T14:15:28Z</time>
      </trkpt>
      <trkpt lat="47.49824" lon="-2.8203">
        <ele>34.7</ele>
        <time>2026-08-29T14:15:29Z</time>
      </trkpt>
      <trkpt lat="47.49821" lon="-2.82023">
        <ele>34.6</ele>
        <time>2026-08-29T14:15:30Z</time>
      </trkpt>
      <trkpt lat="47.49819" lon="-2.82017">
        <ele>34.5</ele>
        <time>2026-08-29T14:15:31Z</time>
      </trkpt>
      <trkpt lat="47.49817" lon="-2.8201">
        <ele>34.4</ele>
        <time>2026-08-29T14:15:32Z</time>
      </trkpt>
      <trkpt lat="47.49814" lon="-2.82003">
        <ele>34.3</ele>
        <time>2026-08-29T14:15:33Z</time>
      </trkpt>
      <trkpt lat="47.49812" lon="-2.81997">
        <ele>34.2</ele>
        <time>2026-08-29T14:15:34Z</time>
      </trkpt>
      <trkpt lat="47.49811" lon="-2.8199">
        <ele>34.2</ele>
        <time>2026-08-29T14:15:35Z</time>
      </trkpt>
      <trkpt lat="47.49809" lon="-2.81983">
        <ele>34.1</ele>
        <time>2026-08-29T14:15:36Z</time>
      </trkpt>
      <trkpt lat="47.49808" lon="-2.81976">
        <ele>34.1</ele>
        <time>2026-08-29T14:15:37Z</time>
      </trkpt>
      <trkpt lat="47.49806" lon="-2.81969">
        <ele>34</ele>
        <time>2026-08-29T14:15:38Z</time>
      </trkpt>
      <trkpt lat="47.49805" lon="-2.81962">
        <ele>34</ele>
        <time>2026-08-29T14:15:39Z</time>
      </trkpt>
      <trkpt lat="47.49805" lon="-2.81955">
        <ele>34</ele>
        <time>2026-08-29T14:15:40Z</time>
      </trkpt>
      <trkpt lat="47.49804" lon="-2.81948">
        <ele>34</ele>
        <time>2026-08-29T14:15:41Z</time>
      </trkpt>
      <trkpt lat="47.49803" lon="-2.81941">
        <ele>34</ele>
        <time>2026-08-29T14:15:42Z</time>
      </trkpt>
      <trkpt lat="47.49802" lon="-2.81934">
        <ele>34</ele>
        <time>2026-08-29T14:15:43Z</time>
      </trkpt>
      <trkpt lat="47.498" lon="-2.81928">
        <ele>34</ele>
        <time>2026-08-29T14:15:44Z</time>
      </trkpt>
      <trkpt lat="47.49798" lon="-2.81922">
        <ele>34</ele>
        <time>2026-08-29T14:15:45Z</time>
      </trkpt>
      <trkpt lat="47.49795" lon="-2.81916">
        <ele>34</ele>
        <time>2026-08-29T14:15:46Z</time>
      </trkpt>
      <trkpt lat="47.49792" lon="-2.8191">
        <ele>34.1</ele>
        <time>2026-08-29T14:15:47Z</time>
      </trkpt>
      <trkpt lat="47.4979" lon="-2.81904">
        <ele>34.2</ele>
        <time>2026-08-29T14:15:48Z</time>
      </trkpt>
      <trkpt lat="47.49787" lon="-2.81898">
        <ele>34.2</ele>
        <time>2026-08-29T14:15:49Z</time>
      </trkpt>
      <trkpt lat="47.49785" lon="-2.81892">
        <ele>34.2</ele>
        <time>2026-08-29T14:15:50Z</time>
      </trkpt>
      <trkpt lat="47.49782" lon="-2.81886">
        <ele>34.1</ele>
        <time>2026-08-29T14:15:51Z</time>
      </trkpt>
      <trkpt lat="47.4978" lon="-2.81879">
        <ele>34.1</ele>
        <time>2026-08-29T14:15:52Z</time>
      </trkpt>
      <trkpt lat="47.49777" lon="-2.81872">
        <ele>34</ele>
        <time>2026-08-29T14:15:53Z</time>
      </trkpt>
      <trkpt lat="47.49776" lon="-2.81865">
        <ele>33.9</ele>
        <time>2026-08-29T14:15:54Z</time>
      </trkpt>
      <trkpt lat="47.49774" lon="-2.81857">
        <ele>33.9</ele>
        <time>2026-08-29T14:15:55Z</time>
      </trkpt>
      <trkpt lat="47.49773" lon="-2.8185">
        <ele>33.8</ele>
        <time>2026-08-29T14:15:56Z</time>
      </trkpt>
      <trkpt lat="47.49772" lon="-2.81842">
        <ele>33.8</ele>
        <time>2026-08-29T14:15:57Z</time>
      </trkpt>
      <trkpt lat="47.49771" lon="-2.81834">
        <ele>33.8</ele>
        <time>2026-08-29T14:15:58Z</time>
      </trkpt>
      <trkpt lat="47.4977" lon="-2.81827">
        <ele>33.6</ele>
        <time>2026-08-29T14:15:59Z</time>
      </trkpt>
      <trkpt lat="47.49769" lon="-2.81819">
        <ele>33.3</ele>
        <time>2026-08-29T14:16:00Z</time>
      </trkpt>
      <trkpt lat="47.49768" lon="-2.81811">
        <ele>33.1</ele>
        <time>2026-08-29T14:16:01Z</time>
      </trkpt>
      <trkpt lat="47.49767" lon="-2.81803">
        <ele>33</ele>
        <time>2026-08-29T14:16:02Z</time>
      </trkpt>
      <trkpt lat="47.49766" lon="-2.81795">
        <ele>33.1</ele>
        <time>2026-08-29T14:16:03Z</time>
      </trkpt>
      <trkpt lat="47.49765" lon="-2.81788">
        <ele>33.1</ele>
        <time>2026-08-29T14:16:04Z</time>
      </trkpt>
      <trkpt lat="47.49764" lon="-2.81782">
        <ele>33</ele>
        <time>2026-08-29T14:16:05Z</time>
      </trkpt>
      <trkpt lat="47.49763" lon="-2.81778">
        <ele>32.9</ele>
        <time>2026-08-29T14:16:06Z</time>
      </trkpt>
      <trkpt lat="47.49762" lon="-2.81772">
        <ele>32.7</ele>
        <time>2026-08-29T14:16:07Z</time>
      </trkpt>
      <trkpt lat="47.4976" lon="-2.81767">
        <ele>32.4</ele>
        <time>2026-08-29T14:16:08Z</time>
      </trkpt>
      <trkpt lat="47.4976" lon="-2.81761">
        <ele>32.3</ele>
        <time>2026-08-29T14:16:09Z</time>
      </trkpt>
      <trkpt lat="47.49759" lon="-2.81755">
        <ele>32.1</ele>
        <time>2026-08-29T14:16:10Z</time>
      </trkpt>
      <trkpt lat="47.4976" lon="-2.81749">
        <ele>32</ele>
        <time>2026-08-29T14:16:11Z</time>
      </trkpt>
      <trkpt lat="47.49761" lon="-2.81743">
        <ele>32.1</ele>
        <time>2026-08-29T14:16:12Z</time>
      </trkpt>
      <trkpt lat="47.49762" lon="-2.81736">
        <ele>32.2</ele>
        <time>2026-08-29T14:16:13Z</time>
      </trkpt>
      <trkpt lat="47.49762" lon="-2.8173">
        <ele>32.3</ele>
        <time>2026-08-29T14:16:14Z</time>
      </trkpt>
      <trkpt lat="47.49763" lon="-2.81723">
        <ele>32.5</ele>
        <time>2026-08-29T14:16:15Z</time>
      </trkpt>
      <trkpt lat="47.49763" lon="-2.81716">
        <ele>32.6</ele>
        <time>2026-08-29T14:16:16Z</time>
      </trkpt>
      <trkpt lat="47.49763" lon="-2.81708">
        <ele>32.7</ele>
        <time>2026-08-29T14:16:17Z</time>
      </trkpt>
      <trkpt lat="47.49763" lon="-2.81701">
        <ele>32.9</ele>
        <time>2026-08-29T14:16:18Z</time>
      </trkpt>
      <trkpt lat="47.49763" lon="-2.81694">
        <ele>33</ele>
        <time>2026-08-29T14:16:19Z</time>
      </trkpt>
      <trkpt lat="47.49763" lon="-2.81686">
        <ele>33</ele>
        <time>2026-08-29T14:16:20Z</time>
      </trkpt>
      <trkpt lat="47.49763" lon="-2.81679">
        <ele>33</ele>
        <time>2026-08-29T14:16:21Z</time>
      </trkpt>
      <trkpt lat="47.49764" lon="-2.81672">
        <ele>33</ele>
        <time>2026-08-29T14:16:22Z</time>
      </trkpt>
      <trkpt lat="47.49764" lon="-2.81664">
        <ele>33</ele>
        <time>2026-08-29T14:16:23Z</time>
      </trkpt>
      <trkpt lat="47.49764" lon="-2.81656">
        <ele>33.2</ele>
        <time>2026-08-29T14:16:24Z</time>
      </trkpt>
      <trkpt lat="47.49763" lon="-2.81649">
        <ele>33.3</ele>
        <time>2026-08-29T14:16:25Z</time>
      </trkpt>
      <trkpt lat="47.49763" lon="-2.81641">
        <ele>33.4</ele>
        <time>2026-08-29T14:16:26Z</time>
      </trkpt>
      <trkpt lat="47.49763" lon="-2.81634">
        <ele>33.4</ele>
        <time>2026-08-29T14:16:27Z</time>
      </trkpt>
      <trkpt lat="47.49763" lon="-2.81626">
        <ele>33.3</ele>
        <time>2026-08-29T14:16:28Z</time>
      </trkpt>
      <trkpt lat="47.49764" lon="-2.81619">
        <ele>33.1</ele>
        <time>2026-08-29T14:16:29Z</time>
      </trkpt>
      <trkpt lat="47.49764" lon="-2.81611">
        <ele>33</ele>
        <time>2026-08-29T14:16:30Z</time>
      </trkpt>
      <trkpt lat="47.49764" lon="-2.81603">
        <ele>32.9</ele>
        <time>2026-08-29T14:16:31Z</time>
      </trkpt>
      <trkpt lat="47.49765" lon="-2.81595">
        <ele>32.7</ele>
        <time>2026-08-29T14:16:32Z</time>
      </trkpt>
      <trkpt lat="47.49766" lon="-2.81587">
        <ele>32.6</ele>
        <time>2026-08-29T14:16:33Z</time>
      </trkpt>
      <trkpt lat="47.49768" lon="-2.8158">
        <ele>32.6</ele>
        <time>2026-08-29T14:16:34Z</time>
      </trkpt>
      <trkpt lat="47.49769" lon="-2.81572">
        <ele>32.7</ele>
        <time>2026-08-29T14:16:35Z</time>
      </trkpt>
      <trkpt lat="47.49771" lon="-2.81564">
        <ele>32.8</ele>
        <time>2026-08-29T14:16:36Z</time>
      </trkpt>
      <trkpt lat="47.49772" lon="-2.81557">
        <ele>32.8</ele>
        <time>2026-08-29T14:16:37Z</time>
      </trkpt>
      <trkpt lat="47.49773" lon="-2.81549">
        <ele>32.8</ele>
        <time>2026-08-29T14:16:38Z</time>
      </trkpt>
      <trkpt lat="47.49774" lon="-2.81542">
        <ele>32.9</ele>
        <time>2026-08-29T14:16:39Z</time>
      </trkpt>
      <trkpt lat="47.49776" lon="-2.81535">
        <ele>32.9</ele>
        <time>2026-08-29T14:16:40Z</time>
      </trkpt>
      <trkpt lat="47.49776" lon="-2.81528">
        <ele>32.9</ele>
        <time>2026-08-29T14:16:41Z</time>
      </trkpt>
      <trkpt lat="47.49777" lon="-2.81521">
        <ele>33</ele>
        <time>2026-08-29T14:16:42Z</time>
      </trkpt>
      <trkpt lat="47.49777" lon="-2.81513">
        <ele>33</ele>
        <time>2026-08-29T14:16:43Z</time>
      </trkpt>
      <trkpt lat="47.49778" lon="-2.81506">
        <ele>33</ele>
        <time>2026-08-29T14:16:44Z</time>
      </trkpt>
      <trkpt lat="47.49778" lon="-2.81499">
        <ele>33</ele>
        <time>2026-08-29T14:16:45Z</time>
      </trkpt>
      <trkpt lat="47.49779" lon="-2.81491">
        <ele>32.7</ele>
        <time>2026-08-29T14:16:46Z</time>
      </trkpt>
      <trkpt lat="47.49779" lon="-2.81484">
        <ele>32.4</ele>
        <time>2026-08-29T14:16:47Z</time>
      </trkpt>
      <trkpt lat="47.4978" lon="-2.81477">
        <ele>32.2</ele>
        <time>2026-08-29T14:16:48Z</time>
      </trkpt>
      <trkpt lat="47.4978" lon="-2.8147">
        <ele>32.1</ele>
        <time>2026-08-29T14:16:49Z</time>
      </trkpt>
      <trkpt lat="47.4978" lon="-2.81463">
        <ele>32.1</ele>
        <time>2026-08-29T14:16:50Z</time>
      </trkpt>
      <trkpt lat="47.4978" lon="-2.81456">
        <ele>32.1</ele>
        <time>2026-08-29T14:16:51Z</time>
      </trkpt>
      <trkpt lat="47.4978" lon="-2.8145">
        <ele>32.1</ele>
        <time>2026-08-29T14:16:52Z</time>
      </trkpt>
      <trkpt lat="47.49781" lon="-2.81443">
        <ele>32.2</ele>
        <time>2026-08-29T14:16:53Z</time>
      </trkpt>
      <trkpt lat="47.49781" lon="-2.81437">
        <ele>32.4</ele>
        <time>2026-08-29T14:16:54Z</time>
      </trkpt>
      <trkpt lat="47.49782" lon="-2.81431">
        <ele>32.6</ele>
        <time>2026-08-29T14:16:55Z</time>
      </trkpt>
      <trkpt lat="47.49783" lon="-2.81424">
        <ele>32.8</ele>
        <time>2026-08-29T14:16:56Z</time>
      </trkpt>
      <trkpt lat="47.49784" lon="-2.81418">
        <ele>33</ele>
        <time>2026-08-29T14:16:57Z</time>
      </trkpt>
      <trkpt lat="47.49785" lon="-2.81411">
        <ele>33</ele>
        <time>2026-08-29T14:16:58Z</time>
      </trkpt>
      <trkpt lat="47.49787" lon="-2.81406">
        <ele>33</ele>
        <time>2026-08-29T14:16:59Z</time>
      </trkpt>
      <trkpt lat="47.49788" lon="-2.814">
        <ele>33</ele>
        <time>2026-08-29T14:17:00Z</time>
      </trkpt>
      <trkpt lat="47.4979" lon="-2.81395">
        <ele>33</ele>
        <time>2026-08-29T14:17:01Z</time>
      </trkpt>
      <trkpt lat="47.49791" lon="-2.81389">
        <ele>33</ele>
        <time>2026-08-29T14:17:02Z</time>
      </trkpt>
      <trkpt lat="47.49793" lon="-2.81383">
        <ele>33.1</ele>
        <time>2026-08-29T14:17:03Z</time>
      </trkpt>
      <trkpt lat="47.49795" lon="-2.81376">
        <ele>33.3</ele>
        <time>2026-08-29T14:17:04Z</time>
      </trkpt>
      <trkpt lat="47.49797" lon="-2.8137">
        <ele>33.5</ele>
        <time>2026-08-29T14:17:05Z</time>
      </trkpt>
      <trkpt lat="47.49798" lon="-2.81364">
        <ele>33.7</ele>
        <time>2026-08-29T14:17:06Z</time>
      </trkpt>
      <trkpt lat="47.498" lon="-2.81359">
        <ele>33.8</ele>
        <time>2026-08-29T14:17:07Z</time>
      </trkpt>
      <trkpt lat="47.49802" lon="-2.81354">
        <ele>33.9</ele>
        <time>2026-08-29T14:17:08Z</time>
      </trkpt>
      <trkpt lat="47.49803" lon="-2.81349">
        <ele>33.9</ele>
        <time>2026-08-29T14:17:09Z</time>
      </trkpt>
      <trkpt lat="47.49805" lon="-2.81344">
        <ele>34</ele>
        <time>2026-08-29T14:17:10Z</time>
      </trkpt>
      <trkpt lat="47.49806" lon="-2.81339">
        <ele>34</ele>
        <time>2026-08-29T14:17:11Z</time>
      </trkpt>
      <trkpt lat="47.49808" lon="-2.81333">
        <ele>34</ele>
        <time>2026-08-29T14:17:12Z</time>
      </trkpt>
      <trkpt lat="47.49809" lon="-2.81327">
        <ele>34.2</ele>
        <time>2026-08-29T14:17:13Z</time>
      </trkpt>
      <trkpt lat="47.4981" lon="-2.81321">
        <ele>34.4</ele>
        <time>2026-08-29T14:17:14Z</time>
      </trkpt>
      <trkpt lat="47.49811" lon="-2.81315">
        <ele>34.7</ele>
        <time>2026-08-29T14:17:15Z</time>
      </trkpt>
      <trkpt lat="47.49812" lon="-2.81309">
        <ele>34.9</ele>
        <time>2026-08-29T14:17:16Z</time>
      </trkpt>
      <trkpt lat="47.49813" lon="-2.81303">
        <ele>35</ele>
        <time>2026-08-29T14:17:17Z</time>
      </trkpt>
      <trkpt lat="47.49813" lon="-2.81296">
        <ele>35</ele>
        <time>2026-08-29T14:17:18Z</time>
      </trkpt>
      <trkpt lat="47.49814" lon="-2.8129">
        <ele>35</ele>
        <time>2026-08-29T14:17:19Z</time>
      </trkpt>
      <trkpt lat="47.49815" lon="-2.81284">
        <ele>35</ele>
        <time>2026-08-29T14:17:20Z</time>
      </trkpt>
      <trkpt lat="47.49815" lon="-2.81278">
        <ele>35</ele>
        <time>2026-08-29T14:17:21Z</time>
      </trkpt>
      <trkpt lat="47.49816" lon="-2.81272">
        <ele>35</ele>
        <time>2026-08-29T14:17:22Z</time>
      </trkpt>
      <trkpt lat="47.49817" lon="-2.81267">
        <ele>35</ele>
        <time>2026-08-29T14:17:23Z</time>
      </trkpt>
      <trkpt lat="47.49818" lon="-2.81261">
        <ele>35</ele>
        <time>2026-08-29T14:17:24Z</time>
      </trkpt>
      <trkpt lat="47.49819" lon="-2.81256">
        <ele>35</ele>
        <time>2026-08-29T14:17:25Z</time>
      </trkpt>
      <trkpt lat="47.4982" lon="-2.81251">
        <ele>35</ele>
        <time>2026-08-29T14:17:26Z</time>
      </trkpt>
      <trkpt lat="47.49821" lon="-2.81247">
        <ele>35</ele>
        <time>2026-08-29T14:17:27Z</time>
      </trkpt>
      <trkpt lat="47.49821" lon="-2.81242">
        <ele>35</ele>
        <time>2026-08-29T14:17:28Z</time>
      </trkpt>
      <trkpt lat="47.49821" lon="-2.81238">
        <ele>35</ele>
        <time>2026-08-29T14:17:29Z</time>
      </trkpt>
      <trkpt lat="47.49822" lon="-2.81233">
        <ele>35</ele>
        <time>2026-08-29T14:17:30Z</time>
      </trkpt>
      <trkpt lat="47.49822" lon="-2.8123">
        <ele>35</ele>
        <time>2026-08-29T14:17:31Z</time>
      </trkpt>
      <trkpt lat="47.49824" lon="-2.81228">
        <ele>35</ele>
        <time>2026-08-29T14:17:32Z</time>
      </trkpt>
      <trkpt lat="47.49825" lon="-2.81228">
        <ele>35</ele>
        <time>2026-08-29T14:17:33Z</time>
      </trkpt>
      <trkpt lat="47.49826" lon="-2.81228">
        <ele>35</ele>
        <time>2026-08-29T14:17:34Z</time>
      </trkpt>
      <trkpt lat="47.49827" lon="-2.81229">
        <ele>35</ele>
        <time>2026-08-29T14:17:35Z</time>
      </trkpt>
      <trkpt lat="47.49827" lon="-2.8123">
        <ele>35</ele>
        <time>2026-08-29T14:17:36Z</time>
      </trkpt>
      <trkpt lat="47.49827" lon="-2.8123">
        <ele>35</ele>
        <time>2026-08-29T14:17:37Z</time>
      </trkpt>
      <trkpt lat="47.49822" lon="-2.81229">
        <ele>35</ele>
        <time>2026-08-29T14:17:52Z</time>
      </trkpt>
      <trkpt lat="47.4982" lon="-2.81226">
        <ele>35</ele>
        <time>2026-08-29T14:17:53Z</time>
      </trkpt>
      <trkpt lat="47.49818" lon="-2.81223">
        <ele>35</ele>
        <time>2026-08-29T14:17:54Z</time>
      </trkpt>
      <trkpt lat="47.49815" lon="-2.8122">
        <ele>35</ele>
        <time>2026-08-29T14:17:55Z</time>
      </trkpt>
      <trkpt lat="47.49811" lon="-2.81218">
        <ele>35</ele>
        <time>2026-08-29T14:17:56Z</time>
      </trkpt>
      <trkpt lat="47.49807" lon="-2.81215">
        <ele>35</ele>
        <time>2026-08-29T14:17:57Z</time>
      </trkpt>
      <trkpt lat="47.49803" lon="-2.81213">
        <ele>35</ele>
        <time>2026-08-29T14:17:58Z</time>
      </trkpt>
      <trkpt lat="47.49798" lon="-2.81212">
        <ele>34.9</ele>
        <time>2026-08-29T14:17:59Z</time>
      </trkpt>
      <trkpt lat="47.49794" lon="-2.8121">
        <ele>34.8</ele>
        <time>2026-08-29T14:18:00Z</time>
      </trkpt>
      <trkpt lat="47.49789" lon="-2.81208">
        <ele>34.7</ele>
        <time>2026-08-29T14:18:01Z</time>
      </trkpt>
      <trkpt lat="47.49785" lon="-2.81207">
        <ele>34.6</ele>
        <time>2026-08-29T14:18:02Z</time>
      </trkpt>
      <trkpt lat="47.4978" lon="-2.81205">
        <ele>34.4</ele>
        <time>2026-08-29T14:18:03Z</time>
      </trkpt>
      <trkpt lat="47.49776" lon="-2.81203">
        <ele>34.3</ele>
        <time>2026-08-29T14:18:04Z</time>
      </trkpt>
      <trkpt lat="47.49771" lon="-2.81201">
        <ele>34.2</ele>
        <time>2026-08-29T14:18:05Z</time>
      </trkpt>
      <trkpt lat="47.49766" lon="-2.81199">
        <ele>34.2</ele>
        <time>2026-08-29T14:18:06Z</time>
      </trkpt>
      <trkpt lat="47.49761" lon="-2.81198">
        <ele>34.1</ele>
        <time>2026-08-29T14:18:07Z</time>
      </trkpt>
      <trkpt lat="47.49757" lon="-2.81195">
        <ele>34</ele>
        <time>2026-08-29T14:18:08Z</time>
      </trkpt>
      <trkpt lat="47.49752" lon="-2.81194">
        <ele>34</ele>
        <time>2026-08-29T14:18:09Z</time>
      </trkpt>
      <trkpt lat="47.49747" lon="-2.81191">
        <ele>34</ele>
        <time>2026-08-29T14:18:10Z</time>
      </trkpt>
      <trkpt lat="47.49743" lon="-2.8119">
        <ele>34</ele>
        <time>2026-08-29T14:18:11Z</time>
      </trkpt>
      <trkpt lat="47.49738" lon="-2.81188">
        <ele>34</ele>
        <time>2026-08-29T14:18:12Z</time>
      </trkpt>
      <trkpt lat="47.49734" lon="-2.81187">
        <ele>34</ele>
        <time>2026-08-29T14:18:13Z</time>
      </trkpt>
      <trkpt lat="47.49729" lon="-2.81186">
        <ele>34</ele>
        <time>2026-08-29T14:18:14Z</time>
      </trkpt>
      <trkpt lat="47.49725" lon="-2.81184">
        <ele>34</ele>
        <time>2026-08-29T14:18:15Z</time>
      </trkpt>
      <trkpt lat="47.49721" lon="-2.81182">
        <ele>34</ele>
        <time>2026-08-29T14:18:16Z</time>
      </trkpt>
      <trkpt lat="47.49717" lon="-2.8118">
        <ele>34</ele>
        <time>2026-08-29T14:18:17Z</time>
      </trkpt>
      <trkpt lat="47.49713" lon="-2.81177">
        <ele>34</ele>
        <time>2026-08-29T14:18:18Z</time>
      </trkpt>
      <trkpt lat="47.49709" lon="-2.81175">
        <ele>34</ele>
        <time>2026-08-29T14:18:19Z</time>
      </trkpt>
      <trkpt lat="47.49705" lon="-2.81172">
        <ele>34</ele>
        <time>2026-08-29T14:18:20Z</time>
      </trkpt>
      <trkpt lat="47.49701" lon="-2.8117">
        <ele>34</ele>
        <time>2026-08-29T14:18:21Z</time>
      </trkpt>
      <trkpt lat="47.49696" lon="-2.81168">
        <ele>34</ele>
        <time>2026-08-29T14:18:22Z</time>
      </trkpt>
      <trkpt lat="47.49692" lon="-2.81167">
        <ele>34</ele>
        <time>2026-08-29T14:18:23Z</time>
      </trkpt>
      <trkpt lat="47.49687" lon="-2.81168">
        <ele>34</ele>
        <time>2026-08-29T14:18:24Z</time>
      </trkpt>
      <trkpt lat="47.49683" lon="-2.81168">
        <ele>34</ele>
        <time>2026-08-29T14:18:25Z</time>
      </trkpt>
      <trkpt lat="47.49678" lon="-2.81169">
        <ele>34</ele>
        <time>2026-08-29T14:18:26Z</time>
      </trkpt>
      <trkpt lat="47.49673" lon="-2.8117">
        <ele>34</ele>
        <time>2026-08-29T14:18:27Z</time>
      </trkpt>
      <trkpt lat="47.49669" lon="-2.8117">
        <ele>34</ele>
        <time>2026-08-29T14:18:28Z</time>
      </trkpt>
      <trkpt lat="47.49664" lon="-2.81171">
        <ele>34</ele>
        <time>2026-08-29T14:18:29Z</time>
      </trkpt>
      <trkpt lat="47.49659" lon="-2.81172">
        <ele>34</ele>
        <time>2026-08-29T14:18:30Z</time>
      </trkpt>
      <trkpt lat="47.49654" lon="-2.81172">
        <ele>34</ele>
        <time>2026-08-29T14:18:31Z</time>
      </trkpt>
      <trkpt lat="47.4965" lon="-2.81173">
        <ele>34</ele>
        <time>2026-08-29T14:18:32Z</time>
      </trkpt>
      <trkpt lat="47.49645" lon="-2.81174">
        <ele>34</ele>
        <time>2026-08-29T14:18:33Z</time>
      </trkpt>
      <trkpt lat="47.4964" lon="-2.81175">
        <ele>34</ele>
        <time>2026-08-29T14:18:34Z</time>
      </trkpt>
      <trkpt lat="47.49635" lon="-2.81176">
        <ele>34</ele>
        <time>2026-08-29T14:18:35Z</time>
      </trkpt>
      <trkpt lat="47.4963" lon="-2.81177">
        <ele>34</ele>
        <time>2026-08-29T14:18:36Z</time>
      </trkpt>
      <trkpt lat="47.49625" lon="-2.81177">
        <ele>34</ele>
        <time>2026-08-29T14:18:37Z</time>
      </trkpt>
      <trkpt lat="47.4962" lon="-2.81178">
        <ele>34</ele>
        <time>2026-08-29T14:18:38Z</time>
      </trkpt>
      <trkpt lat="47.49615" lon="-2.81179">
        <ele>34</ele>
        <time>2026-08-29T14:18:39Z</time>
      </trkpt>
      <trkpt lat="47.4961" lon="-2.81179">
        <ele>34</ele>
        <time>2026-08-29T14:18:40Z</time>
      </trkpt>
      <trkpt lat="47.49605" lon="-2.8118">
        <ele>33.9</ele>
        <time>2026-08-29T14:18:41Z</time>
      </trkpt>
      <trkpt lat="47.496" lon="-2.81181">
        <ele>33.8</ele>
        <time>2026-08-29T14:18:42Z</time>
      </trkpt>
      <trkpt lat="47.49595" lon="-2.81182">
        <ele>33.7</ele>
        <time>2026-08-29T14:18:43Z</time>
      </trkpt>
      <trkpt lat="47.49589" lon="-2.81182">
        <ele>33.6</ele>
        <time>2026-08-29T14:18:44Z</time>
      </trkpt>
      <trkpt lat="47.49584" lon="-2.81182">
        <ele>33.5</ele>
        <time>2026-08-29T14:18:45Z</time>
      </trkpt>
      <trkpt lat="47.4958" lon="-2.81183">
        <ele>33.4</ele>
        <time>2026-08-29T14:18:46Z</time>
      </trkpt>
      <trkpt lat="47.49575" lon="-2.81183">
        <ele>33.3</ele>
        <time>2026-08-29T14:18:47Z</time>
      </trkpt>
      <trkpt lat="47.4957" lon="-2.81183">
        <ele>33.2</ele>
        <time>2026-08-29T14:18:48Z</time>
      </trkpt>
      <trkpt lat="47.49566" lon="-2.81183">
        <ele>33.2</ele>
        <time>2026-08-29T14:18:49Z</time>
      </trkpt>
      <trkpt lat="47.49561" lon="-2.81183">
        <ele>33.1</ele>
        <time>2026-08-29T14:18:50Z</time>
      </trkpt>
      <trkpt lat="47.49557" lon="-2.81183">
        <ele>33</ele>
        <time>2026-08-29T14:18:51Z</time>
      </trkpt>
      <trkpt lat="47.49552" lon="-2.81183">
        <ele>32.9</ele>
        <time>2026-08-29T14:18:52Z</time>
      </trkpt>
      <trkpt lat="47.49547" lon="-2.81183">
        <ele>32.7</ele>
        <time>2026-08-29T14:18:53Z</time>
      </trkpt>
      <trkpt lat="47.49542" lon="-2.81184">
        <ele>32.5</ele>
        <time>2026-08-29T14:18:54Z</time>
      </trkpt>
      <trkpt lat="47.49537" lon="-2.81185">
        <ele>32.3</ele>
        <time>2026-08-29T14:18:55Z</time>
      </trkpt>
      <trkpt lat="47.49532" lon="-2.81185">
        <ele>32.2</ele>
        <time>2026-08-29T14:18:56Z</time>
      </trkpt>
      <trkpt lat="47.49528" lon="-2.81187">
        <ele>32</ele>
        <time>2026-08-29T14:18:57Z</time>
      </trkpt>
      <trkpt lat="47.49523" lon="-2.81188">
        <ele>31.9</ele>
        <time>2026-08-29T14:18:58Z</time>
      </trkpt>
      <trkpt lat="47.49518" lon="-2.8119">
        <ele>31.7</ele>
        <time>2026-08-29T14:18:59Z</time>
      </trkpt>
      <trkpt lat="47.49513" lon="-2.81192">
        <ele>31.5</ele>
        <time>2026-08-29T14:19:00Z</time>
      </trkpt>
      <trkpt lat="47.49508" lon="-2.81194">
        <ele>31.3</ele>
        <time>2026-08-29T14:19:01Z</time>
      </trkpt>
      <trkpt lat="47.49503" lon="-2.81197">
        <ele>31.1</ele>
        <time>2026-08-29T14:19:02Z</time>
      </trkpt>
      <trkpt lat="47.49498" lon="-2.812">
        <ele>30.9</ele>
        <time>2026-08-29T14:19:03Z</time>
      </trkpt>
      <trkpt lat="47.49493" lon="-2.81203">
        <ele>30.7</ele>
        <time>2026-08-29T14:19:04Z</time>
      </trkpt>
      <trkpt lat="47.49489" lon="-2.81207">
        <ele>30.4</ele>
        <time>2026-08-29T14:19:05Z</time>
      </trkpt>
      <trkpt lat="47.49486" lon="-2.81211">
        <ele>30.2</ele>
        <time>2026-08-29T14:19:06Z</time>
      </trkpt>
      <trkpt lat="47.49483" lon="-2.81216">
        <ele>29.9</ele>
        <time>2026-08-29T14:19:07Z</time>
      </trkpt>
      <trkpt lat="47.4948" lon="-2.8122">
        <ele>29.6</ele>
        <time>2026-08-29T14:19:08Z</time>
      </trkpt>
      <trkpt lat="47.49478" lon="-2.81222">
        <ele>29.4</ele>
        <time>2026-08-29T14:19:09Z</time>
      </trkpt>
      <trkpt lat="47.49476" lon="-2.81223">
        <ele>29.3</ele>
        <time>2026-08-29T14:19:10Z</time>
      </trkpt>
      <trkpt lat="47.49473" lon="-2.81222">
        <ele>29.1</ele>
        <time>2026-08-29T14:19:11Z</time>
      </trkpt>
      <trkpt lat="47.4947" lon="-2.8122">
        <ele>29.1</ele>
        <time>2026-08-29T14:19:12Z</time>
      </trkpt>
      <trkpt lat="47.49467" lon="-2.81217">
        <ele>29.2</ele>
        <time>2026-08-29T14:19:13Z</time>
      </trkpt>
      <trkpt lat="47.49464" lon="-2.81213">
        <ele>29.3</ele>
        <time>2026-08-29T14:19:14Z</time>
      </trkpt>
      <trkpt lat="47.49461" lon="-2.81208">
        <ele>29.5</ele>
        <time>2026-08-29T14:19:15Z</time>
      </trkpt>
      <trkpt lat="47.49458" lon="-2.81203">
        <ele>29.7</ele>
        <time>2026-08-29T14:19:16Z</time>
      </trkpt>
      <trkpt lat="47.49456" lon="-2.81198">
        <ele>29.9</ele>
        <time>2026-08-29T14:19:17Z</time>
      </trkpt>
      <trkpt lat="47.49453" lon="-2.81192">
        <ele>30</ele>
        <time>2026-08-29T14:19:18Z</time>
      </trkpt>
      <trkpt lat="47.4945" lon="-2.81187">
        <ele>30.1</ele>
        <time>2026-08-29T14:19:19Z</time>
      </trkpt>
      <trkpt lat="47.49446" lon="-2.81182">
        <ele>30</ele>
        <time>2026-08-29T14:19:20Z</time>
      </trkpt>
      <trkpt lat="47.49443" lon="-2.81177">
        <ele>30</ele>
        <time>2026-08-29T14:19:21Z</time>
      </trkpt>
      <trkpt lat="47.4944" lon="-2.81172">
        <ele>30</ele>
        <time>2026-08-29T14:19:22Z</time>
      </trkpt>
      <trkpt lat="47.49437" lon="-2.81166">
        <ele>30</ele>
        <time>2026-08-29T14:19:23Z</time>
      </trkpt>
      <trkpt lat="47.49435" lon="-2.81161">
        <ele>30.2</ele>
        <time>2026-08-29T14:19:24Z</time>
      </trkpt>
      <trkpt lat="47.49432" lon="-2.81155">
        <ele>30.4</ele>
        <time>2026-08-29T14:19:25Z</time>
      </trkpt>
      <trkpt lat="47.49429" lon="-2.8115">
        <ele>30.6</ele>
        <time>2026-08-29T14:19:26Z</time>
      </trkpt>
      <trkpt lat="47.49427" lon="-2.81145">
        <ele>30.8</ele>
        <time>2026-08-29T14:19:27Z</time>
      </trkpt>
      <trkpt lat="47.49424" lon="-2.8114">
        <ele>31</ele>
        <time>2026-08-29T14:19:28Z</time>
      </trkpt>
      <trkpt lat="47.49421" lon="-2.81135">
        <ele>31</ele>
        <time>2026-08-29T14:19:29Z</time>
      </trkpt>
      <trkpt lat="47.49419" lon="-2.81129">
        <ele>31</ele>
        <time>2026-08-29T14:19:30Z</time>
      </trkpt>
      <trkpt lat="47.49416" lon="-2.81124">
        <ele>31</ele>
        <time>2026-08-29T14:19:31Z</time>
      </trkpt>
      <trkpt lat="47.49413" lon="-2.81118">
        <ele>30.9</ele>
        <time>2026-08-29T14:19:32Z</time>
      </trkpt>
      <trkpt lat="47.4941" lon="-2.81113">
        <ele>30.8</ele>
        <time>2026-08-29T14:19:33Z</time>
      </trkpt>
      <trkpt lat="47.49408" lon="-2.81108">
        <ele>30.7</ele>
        <time>2026-08-29T14:19:34Z</time>
      </trkpt>
      <trkpt lat="47.49405" lon="-2.81102">
        <ele>30.7</ele>
        <time>2026-08-29T14:19:35Z</time>
      </trkpt>
      <trkpt lat="47.49402" lon="-2.81096">
        <ele>30.8</ele>
        <time>2026-08-29T14:19:36Z</time>
      </trkpt>
      <trkpt lat="47.49399" lon="-2.81091">
        <ele>30.8</ele>
        <time>2026-08-29T14:19:37Z</time>
      </trkpt>
      <trkpt lat="47.49396" lon="-2.81085">
        <ele>31</ele>
        <time>2026-08-29T14:19:38Z</time>
      </trkpt>
      <trkpt lat="47.49393" lon="-2.81079">
        <ele>31</ele>
        <time>2026-08-29T14:19:39Z</time>
      </trkpt>
      <trkpt lat="47.4939" lon="-2.81074">
        <ele>31</ele>
        <time>2026-08-29T14:19:40Z</time>
      </trkpt>
      <trkpt lat="47.49387" lon="-2.81068">
        <ele>30.9</ele>
        <time>2026-08-29T14:19:41Z</time>
      </trkpt>
      <trkpt lat="47.49384" lon="-2.81062">
        <ele>30.8</ele>
        <time>2026-08-29T14:19:42Z</time>
      </trkpt>
      <trkpt lat="47.49381" lon="-2.81056">
        <ele>30.7</ele>
        <time>2026-08-29T14:19:43Z</time>
      </trkpt>
      <trkpt lat="47.49378" lon="-2.81049">
        <ele>30.5</ele>
        <time>2026-08-29T14:19:44Z</time>
      </trkpt>
      <trkpt lat="47.49375" lon="-2.81043">
        <ele>30.3</ele>
        <time>2026-08-29T14:19:45Z</time>
      </trkpt>
      <trkpt lat="47.49372" lon="-2.81037">
        <ele>30.1</ele>
        <time>2026-08-29T14:19:46Z</time>
      </trkpt>
      <trkpt lat="47.49369" lon="-2.8103">
        <ele>30</ele>
        <time>2026-08-29T14:19:47Z</time>
      </trkpt>
      <trkpt lat="47.49366" lon="-2.81024">
        <ele>30</ele>
        <time>2026-08-29T14:19:48Z</time>
      </trkpt>
      <trkpt lat="47.49362" lon="-2.81018">
        <ele>30</ele>
        <time>2026-08-29T14:19:49Z</time>
      </trkpt>
      <trkpt lat="47.49359" lon="-2.81012">
        <ele>29.9</ele>
        <time>2026-08-29T14:19:50Z</time>
      </trkpt>
      <trkpt lat="47.49356" lon="-2.81006">
        <ele>29.8</ele>
        <time>2026-08-29T14:19:51Z</time>
      </trkpt>
      <trkpt lat="47.49353" lon="-2.81">
        <ele>29.7</ele>
        <time>2026-08-29T14:19:52Z</time>
      </trkpt>
      <trkpt lat="47.4935" lon="-2.80994">
        <ele>29.6</ele>
        <time>2026-08-29T14:19:53Z</time>
      </trkpt>
      <trkpt lat="47.49346" lon="-2.80988">
        <ele>29.5</ele>
        <time>2026-08-29T14:19:54Z</time>
      </trkpt>
      <trkpt lat="47.49343" lon="-2.80982">
        <ele>29.3</ele>
        <time>2026-08-29T14:19:55Z</time>
      </trkpt>
      <trkpt lat="47.49339" lon="-2.80975">
        <ele>29.2</ele>
        <time>2026-08-29T14:19:56Z</time>
      </trkpt>
      <trkpt lat="47.49335" lon="-2.80969">
        <ele>29.1</ele>
        <time>2026-08-29T14:19:57Z</time>
      </trkpt>
      <trkpt lat="47.49331" lon="-2.80962">
        <ele>28.9</ele>
        <time>2026-08-29T14:19:58Z</time>
      </trkpt>
      <trkpt lat="47.49327" lon="-2.80955">
        <ele>28.8</ele>
        <time>2026-08-29T14:19:59Z</time>
      </trkpt>
      <trkpt lat="47.49322" lon="-2.80949">
        <ele>28.6</ele>
        <time>2026-08-29T14:20:00Z</time>
      </trkpt>
      <trkpt lat="47.49318" lon="-2.80942">
        <ele>28.4</ele>
        <time>2026-08-29T14:20:01Z</time>
      </trkpt>
      <trkpt lat="47.49313" lon="-2.80934">
        <ele>27.9</ele>
        <time>2026-08-29T14:20:02Z</time>
      </trkpt>
      <trkpt lat="47.49307" lon="-2.80927">
        <ele>27.4</ele>
        <time>2026-08-29T14:20:03Z</time>
      </trkpt>
      <trkpt lat="47.49302" lon="-2.80919">
        <ele>27</ele>
        <time>2026-08-29T14:20:04Z</time>
      </trkpt>
      <trkpt lat="47.49296" lon="-2.8091">
        <ele>26.5</ele>
        <time>2026-08-29T14:20:05Z</time>
      </trkpt>
      <trkpt lat="47.4929" lon="-2.80901">
        <ele>25.8</ele>
        <time>2026-08-29T14:20:06Z</time>
      </trkpt>
      <trkpt lat="47.49284" lon="-2.80892">
        <ele>24.8</ele>
        <time>2026-08-29T14:20:07Z</time>
      </trkpt>
      <trkpt lat="47.49278" lon="-2.80883">
        <ele>24</ele>
        <time>2026-08-29T14:20:08Z</time>
      </trkpt>
      <trkpt lat="47.49271" lon="-2.80873">
        <ele>23.9</ele>
        <time>2026-08-29T14:20:09Z</time>
      </trkpt>
      <trkpt lat="47.49264" lon="-2.80863">
        <ele>23.5</ele>
        <time>2026-08-29T14:20:10Z</time>
      </trkpt>
      <trkpt lat="47.49257" lon="-2.80852">
        <ele>22.7</ele>
        <time>2026-08-29T14:20:11Z</time>
      </trkpt>
      <trkpt lat="47.4925" lon="-2.80842">
        <ele>21.6</ele>
        <time>2026-08-29T14:20:12Z</time>
      </trkpt>
      <trkpt lat="47.49242" lon="-2.80831">
        <ele>20.7</ele>
        <time>2026-08-29T14:20:13Z</time>
      </trkpt>
      <trkpt lat="47.49234" lon="-2.8082">
        <ele>20.1</ele>
        <time>2026-08-29T14:20:14Z</time>
      </trkpt>
      <trkpt lat="47.49226" lon="-2.80809">
        <ele>19.4</ele>
        <time>2026-08-29T14:20:15Z</time>
      </trkpt>
      <trkpt lat="47.49218" lon="-2.80797">
        <ele>18.5</ele>
        <time>2026-08-29T14:20:16Z</time>
      </trkpt>
      <trkpt lat="47.4921" lon="-2.80785">
        <ele>17.5</ele>
        <time>2026-08-29T14:20:17Z</time>
      </trkpt>
      <trkpt lat="47.49202" lon="-2.80773">
        <ele>16.4</ele>
        <time>2026-08-29T14:20:18Z</time>
      </trkpt>
      <trkpt lat="47.49194" lon="-2.80761">
        <ele>15.3</ele>
        <time>2026-08-29T14:20:19Z</time>
      </trkpt>
      <trkpt lat="47.49186" lon="-2.80749">
        <ele>14</ele>
        <time>2026-08-29T14:20:20Z</time>
      </trkpt>
      <trkpt lat="47.49178" lon="-2.80737">
        <ele>12.8</ele>
        <time>2026-08-29T14:20:21Z</time>
      </trkpt>
      <trkpt lat="47.4917" lon="-2.80723">
        <ele>12.1</ele>
        <time>2026-08-29T14:20:22Z</time>
      </trkpt>
      <trkpt lat="47.49163" lon="-2.80709">
        <ele>11.3</ele>
        <time>2026-08-29T14:20:23Z</time>
      </trkpt>
      <trkpt lat="47.49158" lon="-2.80693">
        <ele>10.7</ele>
        <time>2026-08-29T14:20:24Z</time>
      </trkpt>
      <trkpt lat="47.49153" lon="-2.80676">
        <ele>10.2</ele>
        <time>2026-08-29T14:20:25Z</time>
      </trkpt>
      <trkpt lat="47.4915" lon="-2.80659">
        <ele>9.7</ele>
        <time>2026-08-29T14:20:26Z</time>
      </trkpt>
      <trkpt lat="47.49148" lon="-2.80642">
        <ele>9.4</ele>
        <time>2026-08-29T14:20:27Z</time>
      </trkpt>
      <trkpt lat="47.49145" lon="-2.80626">
        <ele>8.8</ele>
        <time>2026-08-29T14:20:28Z</time>
      </trkpt>
      <trkpt lat="47.49142" lon="-2.80609">
        <ele>8.1</ele>
        <time>2026-08-29T14:20:29Z</time>
      </trkpt>
      <trkpt lat="47.49139" lon="-2.80593">
        <ele>8</ele>
        <time>2026-08-29T14:20:30Z</time>
      </trkpt>
      <trkpt lat="47.49137" lon="-2.80577">
        <ele>7.9</ele>
        <time>2026-08-29T14:20:31Z</time>
      </trkpt>
      <trkpt lat="47.49134" lon="-2.80561">
        <ele>7.8</ele>
        <time>2026-08-29T14:20:32Z</time>
      </trkpt>
      <trkpt lat="47.49131" lon="-2.80546">
        <ele>7.4</ele>
        <time>2026-08-29T14:20:33Z</time>
      </trkpt>
      <trkpt lat="47.49128" lon="-2.8053">
        <ele>6.7</ele>
        <time>2026-08-29T14:20:34Z</time>
      </trkpt>
      <trkpt lat="47.49125" lon="-2.80515">
        <ele>6.5</ele>
        <time>2026-08-29T14:20:35Z</time>
      </trkpt>
      <trkpt lat="47.49123" lon="-2.805">
        <ele>6.4</ele>
        <time>2026-08-29T14:20:36Z</time>
      </trkpt>
      <trkpt lat="47.4912" lon="-2.80486">
        <ele>6.2</ele>
        <time>2026-08-29T14:20:37Z</time>
      </trkpt>
      <trkpt lat="47.49118" lon="-2.80472">
        <ele>6</ele>
        <time>2026-08-29T14:20:38Z</time>
      </trkpt>
      <trkpt lat="47.49116" lon="-2.8046">
        <ele>6</ele>
        <time>2026-08-29T14:20:39Z</time>
      </trkpt>
      <trkpt lat="47.49115" lon="-2.80449">
        <ele>6</ele>
        <time>2026-08-29T14:20:40Z</time>
      </trkpt>
      <trkpt lat="47.49114" lon="-2.80439">
        <ele>6</ele>
        <time>2026-08-29T14:20:41Z</time>
      </trkpt>
      <trkpt lat="47.49113" lon="-2.80431">
        <ele>6</ele>
        <time>2026-08-29T14:20:42Z</time>
      </trkpt>
      <trkpt lat="47.49113" lon="-2.80424">
        <ele>6</ele>
        <time>2026-08-29T14:20:43Z</time>
      </trkpt>
      <trkpt lat="47.49112" lon="-2.80417">
        <ele>6</ele>
        <time>2026-08-29T14:20:44Z</time>
      </trkpt>
      <trkpt lat="47.4911" lon="-2.8041">
        <ele>5.7</ele>
        <time>2026-08-29T14:20:45Z</time>
      </trkpt>
      <trkpt lat="47.49108" lon="-2.80403">
        <ele>5.5</ele>
        <time>2026-08-29T14:20:46Z</time>
      </trkpt>
      <trkpt lat="47.49107" lon="-2.80396">
        <ele>5.2</ele>
        <time>2026-08-29T14:20:47Z</time>
      </trkpt>
      <trkpt lat="47.49105" lon="-2.80388">
        <ele>5</ele>
        <time>2026-08-29T14:20:48Z</time>
      </trkpt>
      <trkpt lat="47.49103" lon="-2.8038">
        <ele>5</ele>
        <time>2026-08-29T14:20:49Z</time>
      </trkpt>
      <trkpt lat="47.49101" lon="-2.80372">
        <ele>5</ele>
        <time>2026-08-29T14:20:50Z</time>
      </trkpt>
      <trkpt lat="47.49098" lon="-2.80363">
        <ele>5</ele>
        <time>2026-08-29T14:20:51Z</time>
      </trkpt>
      <trkpt lat="47.49096" lon="-2.80355">
        <ele>5</ele>
        <time>2026-08-29T14:20:52Z</time>
      </trkpt>
      <trkpt lat="47.49093" lon="-2.80347">
        <ele>5</ele>
        <time>2026-08-29T14:20:53Z</time>
      </trkpt>
      <trkpt lat="47.49091" lon="-2.80339">
        <ele>5</ele>
        <time>2026-08-29T14:20:54Z</time>
      </trkpt>
      <trkpt lat="47.49089" lon="-2.8033">
        <ele>5</ele>
        <time>2026-08-29T14:20:55Z</time>
      </trkpt>
      <trkpt lat="47.49086" lon="-2.80322">
        <ele>5</ele>
        <time>2026-08-29T14:20:56Z</time>
      </trkpt>
      <trkpt lat="47.49085" lon="-2.80313">
        <ele>5</ele>
        <time>2026-08-29T14:20:57Z</time>
      </trkpt>
      <trkpt lat="47.49084" lon="-2.80305">
        <ele>5</ele>
        <time>2026-08-29T14:20:58Z</time>
      </trkpt>
      <trkpt lat="47.49082" lon="-2.80296">
        <ele>5</ele>
        <time>2026-08-29T14:20:59Z</time>
      </trkpt>
      <trkpt lat="47.49081" lon="-2.80288">
        <ele>4.9</ele>
        <time>2026-08-29T14:21:00Z</time>
      </trkpt>
      <trkpt lat="47.49079" lon="-2.8028">
        <ele>4.8</ele>
        <time>2026-08-29T14:21:01Z</time>
      </trkpt>
      <trkpt lat="47.49078" lon="-2.80272">
        <ele>4.8</ele>
        <time>2026-08-29T14:21:02Z</time>
      </trkpt>
      <trkpt lat="47.49076" lon="-2.80264">
        <ele>4.7</ele>
        <time>2026-08-29T14:21:03Z</time>
      </trkpt>
      <trkpt lat="47.49075" lon="-2.80257">
        <ele>4.7</ele>
        <time>2026-08-29T14:21:04Z</time>
      </trkpt>
      <trkpt lat="47.49075" lon="-2.8025">
        <ele>4.7</ele>
        <time>2026-08-29T14:21:05Z</time>
      </trkpt>
      <trkpt lat="47.49073" lon="-2.80243">
        <ele>4.7</ele>
        <time>2026-08-29T14:21:06Z</time>
      </trkpt>
      <trkpt lat="47.49071" lon="-2.80236">
        <ele>4.8</ele>
        <time>2026-08-29T14:21:07Z</time>
      </trkpt>
      <trkpt lat="47.49069" lon="-2.80231">
        <ele>4.8</ele>
        <time>2026-08-29T14:21:08Z</time>
      </trkpt>
      <trkpt lat="47.49066" lon="-2.80225">
        <ele>4.9</ele>
        <time>2026-08-29T14:21:09Z</time>
      </trkpt>
      <trkpt lat="47.49064" lon="-2.80219">
        <ele>5</ele>
        <time>2026-08-29T14:21:10Z</time>
      </trkpt>
      <trkpt lat="47.49063" lon="-2.80212">
        <ele>5</ele>
        <time>2026-08-29T14:21:11Z</time>
      </trkpt>
      <trkpt lat="47.49061" lon="-2.80206">
        <ele>5</ele>
        <time>2026-08-29T14:21:12Z</time>
      </trkpt>
      <trkpt lat="47.49059" lon="-2.802">
        <ele>5</ele>
        <time>2026-08-29T14:21:13Z</time>
      </trkpt>
      <trkpt lat="47.49058" lon="-2.80194">
        <ele>5</ele>
        <time>2026-08-29T14:21:14Z</time>
      </trkpt>
      <trkpt lat="47.49056" lon="-2.80188">
        <ele>5</ele>
        <time>2026-08-29T14:21:15Z</time>
      </trkpt>
      <trkpt lat="47.49054" lon="-2.80182">
        <ele>4.9</ele>
        <time>2026-08-29T14:21:16Z</time>
      </trkpt>
      <trkpt lat="47.49053" lon="-2.80175">
        <ele>4.9</ele>
        <time>2026-08-29T14:21:17Z</time>
      </trkpt>
      <trkpt lat="47.49051" lon="-2.80168">
        <ele>4.8</ele>
        <time>2026-08-29T14:21:18Z</time>
      </trkpt>
      <trkpt lat="47.49049" lon="-2.80162">
        <ele>4.8</ele>
        <time>2026-08-29T14:21:19Z</time>
      </trkpt>
      <trkpt lat="47.49048" lon="-2.80155">
        <ele>4.8</ele>
        <time>2026-08-29T14:21:20Z</time>
      </trkpt>
      <trkpt lat="47.49046" lon="-2.80148">
        <ele>4.9</ele>
        <time>2026-08-29T14:21:21Z</time>
      </trkpt>
      <trkpt lat="47.49045" lon="-2.80142">
        <ele>5</ele>
        <time>2026-08-29T14:21:22Z</time>
      </trkpt>
      <trkpt lat="47.49043" lon="-2.80136">
        <ele>5</ele>
        <time>2026-08-29T14:21:23Z</time>
      </trkpt>
      <trkpt lat="47.49042" lon="-2.8013">
        <ele>5</ele>
        <time>2026-08-29T14:21:24Z</time>
      </trkpt>
      <trkpt lat="47.4904" lon="-2.80124">
        <ele>5</ele>
        <time>2026-08-29T14:21:25Z</time>
      </trkpt>
      <trkpt lat="47.49039" lon="-2.80118">
        <ele>5</ele>
        <time>2026-08-29T14:21:26Z</time>
      </trkpt>
      <trkpt lat="47.49037" lon="-2.80111">
        <ele>5</ele>
        <time>2026-08-29T14:21:27Z</time>
      </trkpt>
      <trkpt lat="47.49036" lon="-2.80106">
        <ele>5.1</ele>
        <time>2026-08-29T14:21:28Z</time>
      </trkpt>
      <trkpt lat="47.49034" lon="-2.80101">
        <ele>5.1</ele>
        <time>2026-08-29T14:21:29Z</time>
      </trkpt>
      <trkpt lat="47.49031" lon="-2.80097">
        <ele>5.1</ele>
        <time>2026-08-29T14:21:30Z</time>
      </trkpt>
      <trkpt lat="47.49027" lon="-2.80095">
        <ele>5</ele>
        <time>2026-08-29T14:21:31Z</time>
      </trkpt>
      <trkpt lat="47.49024" lon="-2.80095">
        <ele>4.9</ele>
        <time>2026-08-29T14:21:32Z</time>
      </trkpt>
      <trkpt lat="47.4902" lon="-2.80095">
        <ele>4.9</ele>
        <time>2026-08-29T14:21:33Z</time>
      </trkpt>
      <trkpt lat="47.49015" lon="-2.80095">
        <ele>4.8</ele>
        <time>2026-08-29T14:21:34Z</time>
      </trkpt>
      <trkpt lat="47.49011" lon="-2.80094">
        <ele>4.8</ele>
        <time>2026-08-29T14:21:35Z</time>
      </trkpt>
      <trkpt lat="47.49007" lon="-2.80093">
        <ele>4.7</ele>
        <time>2026-08-29T14:21:36Z</time>
      </trkpt>
      <trkpt lat="47.49003" lon="-2.80092">
        <ele>4.7</ele>
        <time>2026-08-29T14:21:37Z</time>
      </trkpt>
      <trkpt lat="47.48999" lon="-2.80091">
        <ele>4.7</ele>
        <time>2026-08-29T14:21:38Z</time>
      </trkpt>
      <trkpt lat="47.48995" lon="-2.80089">
        <ele>4.7</ele>
        <time>2026-08-29T14:21:39Z</time>
      </trkpt>
      <trkpt lat="47.4899" lon="-2.80087">
        <ele>4.6</ele>
        <time>2026-08-29T14:21:40Z</time>
      </trkpt>
      <trkpt lat="47.48986" lon="-2.80085">
        <ele>4.5</ele>
        <time>2026-08-29T14:21:41Z</time>
      </trkpt>
      <trkpt lat="47.48981" lon="-2.80083">
        <ele>4.3</ele>
        <time>2026-08-29T14:21:42Z</time>
      </trkpt>
      <trkpt lat="47.48977" lon="-2.80081">
        <ele>4.2</ele>
        <time>2026-08-29T14:21:43Z</time>
      </trkpt>
      <trkpt lat="47.48972" lon="-2.80078">
        <ele>4</ele>
        <time>2026-08-29T14:21:44Z</time>
      </trkpt>
      <trkpt lat="47.48968" lon="-2.80075">
        <ele>4</ele>
        <time>2026-08-29T14:21:45Z</time>
      </trkpt>
      <trkpt lat="47.48963" lon="-2.80071">
        <ele>4</ele>
        <time>2026-08-29T14:21:46Z</time>
      </trkpt>
      <trkpt lat="47.48959" lon="-2.80066">
        <ele>4</ele>
        <time>2026-08-29T14:21:47Z</time>
      </trkpt>
      <trkpt lat="47.48955" lon="-2.80061">
        <ele>4</ele>
        <time>2026-08-29T14:21:48Z</time>
      </trkpt>
      <trkpt lat="47.48952" lon="-2.80055">
        <ele>4</ele>
        <time>2026-08-29T14:21:49Z</time>
      </trkpt>
      <trkpt lat="47.48949" lon="-2.80049">
        <ele>4</ele>
        <time>2026-08-29T14:21:50Z</time>
      </trkpt>
      <trkpt lat="47.48947" lon="-2.80042">
        <ele>4</ele>
        <time>2026-08-29T14:21:51Z</time>
      </trkpt>
      <trkpt lat="47.48945" lon="-2.80035">
        <ele>4</ele>
        <time>2026-08-29T14:21:52Z</time>
      </trkpt>
      <trkpt lat="47.48943" lon="-2.80028">
        <ele>4</ele>
        <time>2026-08-29T14:21:53Z</time>
      </trkpt>
      <trkpt lat="47.48941" lon="-2.8002">
        <ele>4</ele>
        <time>2026-08-29T14:21:54Z</time>
      </trkpt>
      <trkpt lat="47.48939" lon="-2.80013">
        <ele>4</ele>
        <time>2026-08-29T14:21:55Z</time>
      </trkpt>
      <trkpt lat="47.48936" lon="-2.80006">
        <ele>4</ele>
        <time>2026-08-29T14:21:56Z</time>
      </trkpt>
      <trkpt lat="47.48934" lon="-2.79998">
        <ele>4</ele>
        <time>2026-08-29T14:21:57Z</time>
      </trkpt>
      <trkpt lat="47.48932" lon="-2.79991">
        <ele>4.2</ele>
        <time>2026-08-29T14:21:58Z</time>
      </trkpt>
      <trkpt lat="47.48929" lon="-2.79984">
        <ele>4.3</ele>
        <time>2026-08-29T14:21:59Z</time>
      </trkpt>
      <trkpt lat="47.48926" lon="-2.79977">
        <ele>4.3</ele>
        <time>2026-08-29T14:22:00Z</time>
      </trkpt>
      <trkpt lat="47.48922" lon="-2.79971">
        <ele>4.2</ele>
        <time>2026-08-29T14:22:01Z</time>
      </trkpt>
      <trkpt lat="47.48918" lon="-2.79966">
        <ele>4</ele>
        <time>2026-08-29T14:22:02Z</time>
      </trkpt>
      <trkpt lat="47.48914" lon="-2.79961">
        <ele>4</ele>
        <time>2026-08-29T14:22:03Z</time>
      </trkpt>
      <trkpt lat="47.4891" lon="-2.79956">
        <ele>4</ele>
        <time>2026-08-29T14:22:04Z</time>
      </trkpt>
      <trkpt lat="47.48905" lon="-2.79952">
        <ele>4</ele>
        <time>2026-08-29T14:22:05Z</time>
      </trkpt>
      <trkpt lat="47.48901" lon="-2.79947">
        <ele>4</ele>
        <time>2026-08-29T14:22:06Z</time>
      </trkpt>
      <trkpt lat="47.48896" lon="-2.79943">
        <ele>4</ele>
        <time>2026-08-29T14:22:07Z</time>
      </trkpt>
      <trkpt lat="47.48891" lon="-2.79939">
        <ele>4</ele>
        <time>2026-08-29T14:22:08Z</time>
      </trkpt>
      <trkpt lat="47.48886" lon="-2.79936">
        <ele>4</ele>
        <time>2026-08-29T14:22:09Z</time>
      </trkpt>
      <trkpt lat="47.48881" lon="-2.79932">
        <ele>4</ele>
        <time>2026-08-29T14:22:10Z</time>
      </trkpt>
      <trkpt lat="47.48876" lon="-2.79929">
        <ele>4</ele>
        <time>2026-08-29T14:22:11Z</time>
      </trkpt>
      <trkpt lat="47.48871" lon="-2.79925">
        <ele>4</ele>
        <time>2026-08-29T14:22:12Z</time>
      </trkpt>
      <trkpt lat="47.48866" lon="-2.79922">
        <ele>4</ele>
        <time>2026-08-29T14:22:13Z</time>
      </trkpt>
      <trkpt lat="47.48861" lon="-2.79919">
        <ele>4</ele>
        <time>2026-08-29T14:22:14Z</time>
      </trkpt>
      <trkpt lat="47.48856" lon="-2.79915">
        <ele>4</ele>
        <time>2026-08-29T14:22:15Z</time>
      </trkpt>
      <trkpt lat="47.48851" lon="-2.79912">
        <ele>4</ele>
        <time>2026-08-29T14:22:16Z</time>
      </trkpt>
      <trkpt lat="47.48846" lon="-2.79909">
        <ele>4</ele>
        <time>2026-08-29T14:22:17Z</time>
      </trkpt>
      <trkpt lat="47.4884" lon="-2.79907">
        <ele>4</ele>
        <time>2026-08-29T14:22:18Z</time>
      </trkpt>
      <trkpt lat="47.48835" lon="-2.79905">
        <ele>4</ele>
        <time>2026-08-29T14:22:19Z</time>
      </trkpt>
      <trkpt lat="47.4883" lon="-2.79904">
        <ele>4</ele>
        <time>2026-08-29T14:22:20Z</time>
      </trkpt>
      <trkpt lat="47.48824" lon="-2.79903">
        <ele>4</ele>
        <time>2026-08-29T14:22:21Z</time>
      </trkpt>
      <trkpt lat="47.48819" lon="-2.79902">
        <ele>4</ele>
        <time>2026-08-29T14:22:22Z</time>
      </trkpt>
      <trkpt lat="47.48814" lon="-2.79901">
        <ele>4</ele>
        <time>2026-08-29T14:22:23Z</time>
      </trkpt>
      <trkpt lat="47.48809" lon="-2.79902">
        <ele>4</ele>
        <time>2026-08-29T14:22:24Z</time>
      </trkpt>
      <trkpt lat="47.48804" lon="-2.79903">
        <ele>4</ele>
        <time>2026-08-29T14:22:25Z</time>
      </trkpt>
      <trkpt lat="47.48799" lon="-2.79905">
        <ele>4.1</ele>
        <time>2026-08-29T14:22:26Z</time>
      </trkpt>
      <trkpt lat="47.48794" lon="-2.79906">
        <ele>4.2</ele>
        <time>2026-08-29T14:22:27Z</time>
      </trkpt>
      <trkpt lat="47.48789" lon="-2.79908">
        <ele>4.2</ele>
        <time>2026-08-29T14:22:28Z</time>
      </trkpt>
      <trkpt lat="47.48784" lon="-2.79909">
        <ele>4.2</ele>
        <time>2026-08-29T14:22:29Z</time>
      </trkpt>
      <trkpt lat="47.4878" lon="-2.79911">
        <ele>4.2</ele>
        <time>2026-08-29T14:22:30Z</time>
      </trkpt>
      <trkpt lat="47.48775" lon="-2.79912">
        <ele>4.3</ele>
        <time>2026-08-29T14:22:31Z</time>
      </trkpt>
      <trkpt lat="47.48771" lon="-2.79914">
        <ele>4.3</ele>
        <time>2026-08-29T14:22:32Z</time>
      </trkpt>
      <trkpt lat="47.48767" lon="-2.79915">
        <ele>4.4</ele>
        <time>2026-08-29T14:22:33Z</time>
      </trkpt>
      <trkpt lat="47.48762" lon="-2.79916">
        <ele>4.6</ele>
        <time>2026-08-29T14:22:34Z</time>
      </trkpt>
      <trkpt lat="47.48758" lon="-2.79918">
        <ele>4.7</ele>
        <time>2026-08-29T14:22:35Z</time>
      </trkpt>
      <trkpt lat="47.48754" lon="-2.79918">
        <ele>4.9</ele>
        <time>2026-08-29T14:22:36Z</time>
      </trkpt>
      <trkpt lat="47.4875" lon="-2.79918">
        <ele>5</ele>
        <time>2026-08-29T14:22:37Z</time>
      </trkpt>
      <trkpt lat="47.48746" lon="-2.79917">
        <ele>5.2</ele>
        <time>2026-08-29T14:22:38Z</time>
      </trkpt>
      <trkpt lat="47.48742" lon="-2.79916">
        <ele>5.3</ele>
        <time>2026-08-29T14:22:39Z</time>
      </trkpt>
      <trkpt lat="47.48738" lon="-2.79915">
        <ele>5.4</ele>
        <time>2026-08-29T14:22:40Z</time>
      </trkpt>
      <trkpt lat="47.48734" lon="-2.79913">
        <ele>5.5</ele>
        <time>2026-08-29T14:22:41Z</time>
      </trkpt>
      <trkpt lat="47.4873" lon="-2.79912">
        <ele>5.6</ele>
        <time>2026-08-29T14:22:42Z</time>
      </trkpt>
      <trkpt lat="47.48725" lon="-2.7991">
        <ele>5.7</ele>
        <time>2026-08-29T14:22:43Z</time>
      </trkpt>
      <trkpt lat="47.48721" lon="-2.79908">
        <ele>5.7</ele>
        <time>2026-08-29T14:22:44Z</time>
      </trkpt>
      <trkpt lat="47.48717" lon="-2.79905">
        <ele>5.8</ele>
        <time>2026-08-29T14:22:45Z</time>
      </trkpt>
      <trkpt lat="47.48714" lon="-2.79902">
        <ele>5.9</ele>
        <time>2026-08-29T14:22:46Z</time>
      </trkpt>
      <trkpt lat="47.4871" lon="-2.799">
        <ele>6.1</ele>
        <time>2026-08-29T14:22:47Z</time>
      </trkpt>
      <trkpt lat="47.48706" lon="-2.79897">
        <ele>6.3</ele>
        <time>2026-08-29T14:22:48Z</time>
      </trkpt>
      <trkpt lat="47.48702" lon="-2.79895">
        <ele>6.5</ele>
        <time>2026-08-29T14:22:49Z</time>
      </trkpt>
      <trkpt lat="47.48698" lon="-2.79892">
        <ele>6.8</ele>
        <time>2026-08-29T14:22:50Z</time>
      </trkpt>
      <trkpt lat="47.48695" lon="-2.79889">
        <ele>7</ele>
        <time>2026-08-29T14:22:51Z</time>
      </trkpt>
      <trkpt lat="47.48691" lon="-2.79886">
        <ele>6.8</ele>
        <time>2026-08-29T14:22:52Z</time>
      </trkpt>
      <trkpt lat="47.48688" lon="-2.79882">
        <ele>6.7</ele>
        <time>2026-08-29T14:22:53Z</time>
      </trkpt>
      <trkpt lat="47.48684" lon="-2.79878">
        <ele>6.5</ele>
        <time>2026-08-29T14:22:54Z</time>
      </trkpt>
      <trkpt lat="47.48681" lon="-2.79873">
        <ele>6.6</ele>
        <time>2026-08-29T14:22:55Z</time>
      </trkpt>
      <trkpt lat="47.48679" lon="-2.79869">
        <ele>6.7</ele>
        <time>2026-08-29T14:22:56Z</time>
      </trkpt>
      <trkpt lat="47.48676" lon="-2.79864">
        <ele>6.9</ele>
        <time>2026-08-29T14:22:57Z</time>
      </trkpt>
      <trkpt lat="47.48673" lon="-2.79859">
        <ele>7</ele>
        <time>2026-08-29T14:22:58Z</time>
      </trkpt>
      <trkpt lat="47.48671" lon="-2.79854">
        <ele>7</ele>
        <time>2026-08-29T14:22:59Z</time>
      </trkpt>
      <trkpt lat="47.4867" lon="-2.79849">
        <ele>7</ele>
        <time>2026-08-29T14:23:00Z</time>
      </trkpt>
      <trkpt lat="47.48668" lon="-2.79844">
        <ele>7</ele>
        <time>2026-08-29T14:23:01Z</time>
      </trkpt>
      <trkpt lat="47.48666" lon="-2.7984">
        <ele>6.9</ele>
        <time>2026-08-29T14:23:02Z</time>
      </trkpt>
      <trkpt lat="47.48664" lon="-2.79835">
        <ele>6.7</ele>
        <time>2026-08-29T14:23:03Z</time>
      </trkpt>
      <trkpt lat="47.48662" lon="-2.7983">
        <ele>6.6</ele>
        <time>2026-08-29T14:23:04Z</time>
      </trkpt>
      <trkpt lat="47.4866" lon="-2.79825">
        <ele>6.5</ele>
        <time>2026-08-29T14:23:05Z</time>
      </trkpt>
      <trkpt lat="47.48658" lon="-2.79819">
        <ele>6.5</ele>
        <time>2026-08-29T14:23:06Z</time>
      </trkpt>
      <trkpt lat="47.48656" lon="-2.79814">
        <ele>6.6</ele>
        <time>2026-08-29T14:23:07Z</time>
      </trkpt>
      <trkpt lat="47.48654" lon="-2.79808">
        <ele>6.9</ele>
        <time>2026-08-29T14:23:08Z</time>
      </trkpt>
      <trkpt lat="47.48652" lon="-2.79803">
        <ele>7</ele>
        <time>2026-08-29T14:23:09Z</time>
      </trkpt>
      <trkpt lat="47.48649" lon="-2.79798">
        <ele>7</ele>
        <time>2026-08-29T14:23:10Z</time>
      </trkpt>
      <trkpt lat="47.48645" lon="-2.79793">
        <ele>7</ele>
        <time>2026-08-29T14:23:11Z</time>
      </trkpt>
      <trkpt lat="47.48641" lon="-2.79789">
        <ele>7</ele>
        <time>2026-08-29T14:23:12Z</time>
      </trkpt>
      <trkpt lat="47.48638" lon="-2.79785">
        <ele>6.9</ele>
        <time>2026-08-29T14:23:13Z</time>
      </trkpt>
      <trkpt lat="47.48635" lon="-2.79781">
        <ele>6.7</ele>
        <time>2026-08-29T14:23:14Z</time>
      </trkpt>
      <trkpt lat="47.48631" lon="-2.79777">
        <ele>6.5</ele>
        <time>2026-08-29T14:23:15Z</time>
      </trkpt>
      <trkpt lat="47.48627" lon="-2.79774">
        <ele>6.3</ele>
        <time>2026-08-29T14:23:16Z</time>
      </trkpt>
      <trkpt lat="47.48624" lon="-2.79771">
        <ele>6.3</ele>
        <time>2026-08-29T14:23:17Z</time>
      </trkpt>
      <trkpt lat="47.4862" lon="-2.79767">
        <ele>6.4</ele>
        <time>2026-08-29T14:23:18Z</time>
      </trkpt>
      <trkpt lat="47.48616" lon="-2.79765">
        <ele>6.5</ele>
        <time>2026-08-29T14:23:19Z</time>
      </trkpt>
      <trkpt lat="47.48612" lon="-2.79763">
        <ele>6.6</ele>
        <time>2026-08-29T14:23:20Z</time>
      </trkpt>
      <trkpt lat="47.48608" lon="-2.79762">
        <ele>6.6</ele>
        <time>2026-08-29T14:23:21Z</time>
      </trkpt>
      <trkpt lat="47.48604" lon="-2.7976">
        <ele>6.7</ele>
        <time>2026-08-29T14:23:22Z</time>
      </trkpt>
      <trkpt lat="47.48599" lon="-2.79759">
        <ele>6.6</ele>
        <time>2026-08-29T14:23:23Z</time>
      </trkpt>
      <trkpt lat="47.48595" lon="-2.79758">
        <ele>6.6</ele>
        <time>2026-08-29T14:23:24Z</time>
      </trkpt>
      <trkpt lat="47.48591" lon="-2.79757">
        <ele>6.5</ele>
        <time>2026-08-29T14:23:25Z</time>
      </trkpt>
      <trkpt lat="47.48586" lon="-2.79756">
        <ele>6.4</ele>
        <time>2026-08-29T14:23:26Z</time>
      </trkpt>
      <trkpt lat="47.48582" lon="-2.79753">
        <ele>6.5</ele>
        <time>2026-08-29T14:23:27Z</time>
      </trkpt>
      <trkpt lat="47.48577" lon="-2.7975">
        <ele>6.3</ele>
        <time>2026-08-29T14:23:28Z</time>
      </trkpt>
      <trkpt lat="47.48573" lon="-2.79746">
        <ele>5.9</ele>
        <time>2026-08-29T14:23:29Z</time>
      </trkpt>
      <trkpt lat="47.48569" lon="-2.79741">
        <ele>5.6</ele>
        <time>2026-08-29T14:23:30Z</time>
      </trkpt>
      <trkpt lat="47.48566" lon="-2.79734">
        <ele>5.5</ele>
        <time>2026-08-29T14:23:31Z</time>
      </trkpt>
      <trkpt lat="47.48563" lon="-2.79727">
        <ele>5.4</ele>
        <time>2026-08-29T14:23:32Z</time>
      </trkpt>
      <trkpt lat="47.48561" lon="-2.7972">
        <ele>5.5</ele>
        <time>2026-08-29T14:23:33Z</time>
      </trkpt>
      <trkpt lat="47.48559" lon="-2.79713">
        <ele>5.5</ele>
        <time>2026-08-29T14:23:34Z</time>
      </trkpt>
      <trkpt lat="47.48558" lon="-2.79705">
        <ele>5.7</ele>
        <time>2026-08-29T14:23:35Z</time>
      </trkpt>
      <trkpt lat="47.48557" lon="-2.79698">
        <ele>5.9</ele>
        <time>2026-08-29T14:23:36Z</time>
      </trkpt>
      <trkpt lat="47.48557" lon="-2.7969">
        <ele>6</ele>
        <time>2026-08-29T14:23:37Z</time>
      </trkpt>
      <trkpt lat="47.48557" lon="-2.79682">
        <ele>6</ele>
        <time>2026-08-29T14:23:38Z</time>
      </trkpt>
      <trkpt lat="47.48557" lon="-2.79674">
        <ele>6</ele>
        <time>2026-08-29T14:23:39Z</time>
      </trkpt>
      <trkpt lat="47.48556" lon="-2.79666">
        <ele>6</ele>
        <time>2026-08-29T14:23:40Z</time>
      </trkpt>
      <trkpt lat="47.48556" lon="-2.79659">
        <ele>6</ele>
        <time>2026-08-29T14:23:41Z</time>
      </trkpt>
      <trkpt lat="47.48555" lon="-2.79651">
        <ele>5.9</ele>
        <time>2026-08-29T14:23:42Z</time>
      </trkpt>
      <trkpt lat="47.48554" lon="-2.79643">
        <ele>5.8</ele>
        <time>2026-08-29T14:23:43Z</time>
      </trkpt>
      <trkpt lat="47.48553" lon="-2.79636">
        <ele>5.6</ele>
        <time>2026-08-29T14:23:44Z</time>
      </trkpt>
      <trkpt lat="47.48551" lon="-2.79629">
        <ele>5.3</ele>
        <time>2026-08-29T14:23:45Z</time>
      </trkpt>
      <trkpt lat="47.4855" lon="-2.79622">
        <ele>5.2</ele>
        <time>2026-08-29T14:23:46Z</time>
      </trkpt>
      <trkpt lat="47.4855" lon="-2.79614">
        <ele>5.2</ele>
        <time>2026-08-29T14:23:47Z</time>
      </trkpt>
      <trkpt lat="47.48549" lon="-2.79607">
        <ele>5.1</ele>
        <time>2026-08-29T14:23:48Z</time>
      </trkpt>
      <trkpt lat="47.48548" lon="-2.796">
        <ele>5</ele>
        <time>2026-08-29T14:23:49Z</time>
      </trkpt>
      <trkpt lat="47.48548" lon="-2.79593">
        <ele>5.1</ele>
        <time>2026-08-29T14:23:50Z</time>
      </trkpt>
      <trkpt lat="47.48547" lon="-2.79586">
        <ele>5</ele>
        <time>2026-08-29T14:23:51Z</time>
      </trkpt>
      <trkpt lat="47.48547" lon="-2.79579">
        <ele>5.1</ele>
        <time>2026-08-29T14:23:52Z</time>
      </trkpt>
      <trkpt lat="47.48546" lon="-2.79571">
        <ele>5.1</ele>
        <time>2026-08-29T14:23:53Z</time>
      </trkpt>
      <trkpt lat="47.48545" lon="-2.79564">
        <ele>5.1</ele>
        <time>2026-08-29T14:23:54Z</time>
      </trkpt>
      <trkpt lat="47.48545" lon="-2.79557">
        <ele>5.2</ele>
        <time>2026-08-29T14:23:55Z</time>
      </trkpt>
      <trkpt lat="47.48544" lon="-2.7955">
        <ele>5.3</ele>
        <time>2026-08-29T14:23:56Z</time>
      </trkpt>
      <trkpt lat="47.48543" lon="-2.79543">
        <ele>5.3</ele>
        <time>2026-08-29T14:23:57Z</time>
      </trkpt>
      <trkpt lat="47.48542" lon="-2.79536">
        <ele>5.4</ele>
        <time>2026-08-29T14:23:58Z</time>
      </trkpt>
      <trkpt lat="47.4854" lon="-2.79528">
        <ele>5.4</ele>
        <time>2026-08-29T14:23:59Z</time>
      </trkpt>
      <trkpt lat="47.48539" lon="-2.79521">
        <ele>5.5</ele>
        <time>2026-08-29T14:24:00Z</time>
      </trkpt>
      <trkpt lat="47.48537" lon="-2.79514">
        <ele>5.5</ele>
        <time>2026-08-29T14:24:01Z</time>
      </trkpt>
      <trkpt lat="47.48536" lon="-2.79506">
        <ele>5.6</ele>
        <time>2026-08-29T14:24:02Z</time>
      </trkpt>
      <trkpt lat="47.48534" lon="-2.79499">
        <ele>5.8</ele>
        <time>2026-08-29T14:24:03Z</time>
      </trkpt>
      <trkpt lat="47.48532" lon="-2.79492">
        <ele>6</ele>
        <time>2026-08-29T14:24:04Z</time>
      </trkpt>
      <trkpt lat="47.4853" lon="-2.79484">
        <ele>6.4</ele>
        <time>2026-08-29T14:24:05Z</time>
      </trkpt>
      <trkpt lat="47.48528" lon="-2.79477">
        <ele>6.8</ele>
        <time>2026-08-29T14:24:06Z</time>
      </trkpt>
      <trkpt lat="47.48526" lon="-2.79469">
        <ele>6.7</ele>
        <time>2026-08-29T14:24:07Z</time>
      </trkpt>
      <trkpt lat="47.48524" lon="-2.79462">
        <ele>6.4</ele>
        <time>2026-08-29T14:24:08Z</time>
      </trkpt>
      <trkpt lat="47.48522" lon="-2.79454">
        <ele>6.1</ele>
        <time>2026-08-29T14:24:09Z</time>
      </trkpt>
      <trkpt lat="47.4852" lon="-2.79446">
        <ele>6</ele>
        <time>2026-08-29T14:24:10Z</time>
      </trkpt>
      <trkpt lat="47.48518" lon="-2.79438">
        <ele>6.2</ele>
        <time>2026-08-29T14:24:11Z</time>
      </trkpt>
      <trkpt lat="47.48516" lon="-2.7943">
        <ele>6.5</ele>
        <time>2026-08-29T14:24:12Z</time>
      </trkpt>
      <trkpt lat="47.48513" lon="-2.79422">
        <ele>6.8</ele>
        <time>2026-08-29T14:24:13Z</time>
      </trkpt>
      <trkpt lat="47.48511" lon="-2.79414">
        <ele>7</ele>
        <time>2026-08-29T14:24:14Z</time>
      </trkpt>
      <trkpt lat="47.48509" lon="-2.79407">
        <ele>6.9</ele>
        <time>2026-08-29T14:24:15Z</time>
      </trkpt>
      <trkpt lat="47.48507" lon="-2.79399">
        <ele>6.8</ele>
        <time>2026-08-29T14:24:16Z</time>
      </trkpt>
      <trkpt lat="47.48505" lon="-2.79392">
        <ele>6.8</ele>
        <time>2026-08-29T14:24:17Z</time>
      </trkpt>
      <trkpt lat="47.48503" lon="-2.79385">
        <ele>6.9</ele>
        <time>2026-08-29T14:24:18Z</time>
      </trkpt>
      <trkpt lat="47.48501" lon="-2.79378">
        <ele>7</ele>
        <time>2026-08-29T14:24:19Z</time>
      </trkpt>
      <trkpt lat="47.48499" lon="-2.79371">
        <ele>7</ele>
        <time>2026-08-29T14:24:20Z</time>
      </trkpt>
      <trkpt lat="47.48498" lon="-2.79364">
        <ele>7</ele>
        <time>2026-08-29T14:24:21Z</time>
      </trkpt>
      <trkpt lat="47.48496" lon="-2.79357">
        <ele>7</ele>
        <time>2026-08-29T14:24:22Z</time>
      </trkpt>
      <trkpt lat="47.48495" lon="-2.7935">
        <ele>7</ele>
        <time>2026-08-29T14:24:23Z</time>
      </trkpt>
      <trkpt lat="47.48495" lon="-2.79343">
        <ele>7</ele>
        <time>2026-08-29T14:24:24Z</time>
      </trkpt>
      <trkpt lat="47.48494" lon="-2.79336">
        <ele>7</ele>
        <time>2026-08-29T14:24:25Z</time>
      </trkpt>
      <trkpt lat="47.48494" lon="-2.79329">
        <ele>7</ele>
        <time>2026-08-29T14:24:26Z</time>
      </trkpt>
      <trkpt lat="47.48494" lon="-2.79322">
        <ele>7</ele>
        <time>2026-08-29T14:24:27Z</time>
      </trkpt>
      <trkpt lat="47.48494" lon="-2.79314">
        <ele>7</ele>
        <time>2026-08-29T14:24:28Z</time>
      </trkpt>
      <trkpt lat="47.48496" lon="-2.79307">
        <ele>7</ele>
        <time>2026-08-29T14:24:29Z</time>
      </trkpt>
      <trkpt lat="47.48497" lon="-2.793">
        <ele>7</ele>
        <time>2026-08-29T14:24:30Z</time>
      </trkpt>
      <trkpt lat="47.485" lon="-2.79293">
        <ele>7</ele>
        <time>2026-08-29T14:24:31Z</time>
      </trkpt>
      <trkpt lat="47.48504" lon="-2.79287">
        <ele>7</ele>
        <time>2026-08-29T14:24:32Z</time>
      </trkpt>
      <trkpt lat="47.48508" lon="-2.79281">
        <ele>7</ele>
        <time>2026-08-29T14:24:33Z</time>
      </trkpt>
      <trkpt lat="47.48512" lon="-2.79277">
        <ele>6.9</ele>
        <time>2026-08-29T14:24:34Z</time>
      </trkpt>
      <trkpt lat="47.48516" lon="-2.79272">
        <ele>6.5</ele>
        <time>2026-08-29T14:24:35Z</time>
      </trkpt>
      <trkpt lat="47.4852" lon="-2.79268">
        <ele>6.4</ele>
        <time>2026-08-29T14:24:36Z</time>
      </trkpt>
      <trkpt lat="47.48524" lon="-2.79263">
        <ele>6.3</ele>
        <time>2026-08-29T14:24:37Z</time>
      </trkpt>
      <trkpt lat="47.48528" lon="-2.79259">
        <ele>6.3</ele>
        <time>2026-08-29T14:24:38Z</time>
      </trkpt>
      <trkpt lat="47.48532" lon="-2.79255">
        <ele>6.2</ele>
        <time>2026-08-29T14:24:39Z</time>
      </trkpt>
      <trkpt lat="47.48536" lon="-2.79251">
        <ele>6</ele>
        <time>2026-08-29T14:24:40Z</time>
      </trkpt>
      <trkpt lat="47.4854" lon="-2.79247">
        <ele>5.8</ele>
        <time>2026-08-29T14:24:41Z</time>
      </trkpt>
      <trkpt lat="47.48544" lon="-2.79243">
        <ele>5.6</ele>
        <time>2026-08-29T14:24:42Z</time>
      </trkpt>
      <trkpt lat="47.48548" lon="-2.79239">
        <ele>5.6</ele>
        <time>2026-08-29T14:24:43Z</time>
      </trkpt>
      <trkpt lat="47.48551" lon="-2.79235">
        <ele>5.6</ele>
        <time>2026-08-29T14:24:44Z</time>
      </trkpt>
      <trkpt lat="47.48555" lon="-2.79232">
        <ele>5.9</ele>
        <time>2026-08-29T14:24:45Z</time>
      </trkpt>
      <trkpt lat="47.4856" lon="-2.79229">
        <ele>6</ele>
        <time>2026-08-29T14:24:46Z</time>
      </trkpt>
      <trkpt lat="47.48564" lon="-2.79227">
        <ele>6</ele>
        <time>2026-08-29T14:24:47Z</time>
      </trkpt>
      <trkpt lat="47.48569" lon="-2.79225">
        <ele>6</ele>
        <time>2026-08-29T14:24:48Z</time>
      </trkpt>
      <trkpt lat="47.48574" lon="-2.79225">
        <ele>6</ele>
        <time>2026-08-29T14:24:49Z</time>
      </trkpt>
      <trkpt lat="47.48579" lon="-2.79224">
        <ele>6</ele>
        <time>2026-08-29T14:24:50Z</time>
      </trkpt>
      <trkpt lat="47.48583" lon="-2.79224">
        <ele>6</ele>
        <time>2026-08-29T14:24:51Z</time>
      </trkpt>
      <trkpt lat="47.48588" lon="-2.79224">
        <ele>6</ele>
        <time>2026-08-29T14:24:52Z</time>
      </trkpt>
      <trkpt lat="47.48592" lon="-2.79226">
        <ele>6</ele>
        <time>2026-08-29T14:24:53Z</time>
      </trkpt>
      <trkpt lat="47.48596" lon="-2.79228">
        <ele>5.9</ele>
        <time>2026-08-29T14:24:54Z</time>
      </trkpt>
      <trkpt lat="47.486" lon="-2.7923">
        <ele>5.8</ele>
        <time>2026-08-29T14:24:55Z</time>
      </trkpt>
      <trkpt lat="47.48604" lon="-2.79233">
        <ele>5.7</ele>
        <time>2026-08-29T14:24:56Z</time>
      </trkpt>
      <trkpt lat="47.48607" lon="-2.79237">
        <ele>5.5</ele>
        <time>2026-08-29T14:24:57Z</time>
      </trkpt>
      <trkpt lat="47.48611" lon="-2.7924">
        <ele>5.4</ele>
        <time>2026-08-29T14:24:58Z</time>
      </trkpt>
      <trkpt lat="47.48613" lon="-2.79243">
        <ele>5</ele>
        <time>2026-08-29T14:24:59Z</time>
      </trkpt>
      <trkpt lat="47.48616" lon="-2.79244">
        <ele>4.5</ele>
        <time>2026-08-29T14:25:00Z</time>
      </trkpt>
      <trkpt lat="47.48618" lon="-2.79242">
        <ele>4.3</ele>
        <time>2026-08-29T14:25:01Z</time>
      </trkpt>
      <trkpt lat="47.4862" lon="-2.79239">
        <ele>4.1</ele>
        <time>2026-08-29T14:25:02Z</time>
      </trkpt>
      <trkpt lat="47.48621" lon="-2.79236">
        <ele>4.1</ele>
        <time>2026-08-29T14:25:03Z</time>
      </trkpt>
      <trkpt lat="47.48621" lon="-2.79232">
        <ele>4.2</ele>
        <time>2026-08-29T14:25:04Z</time>
      </trkpt>
      <trkpt lat="47.48621" lon="-2.79227">
        <ele>4.4</ele>
        <time>2026-08-29T14:25:05Z</time>
      </trkpt>
      <trkpt lat="47.48621" lon="-2.79223">
        <ele>4.5</ele>
        <time>2026-08-29T14:25:06Z</time>
      </trkpt>
      <trkpt lat="47.48622" lon="-2.79219">
        <ele>4.5</ele>
        <time>2026-08-29T14:25:07Z</time>
      </trkpt>
      <trkpt lat="47.48623" lon="-2.79215">
        <ele>4.4</ele>
        <time>2026-08-29T14:25:08Z</time>
      </trkpt>
      <trkpt lat="47.48623" lon="-2.79211">
        <ele>4.4</ele>
        <time>2026-08-29T14:25:09Z</time>
      </trkpt>
      <trkpt lat="47.48624" lon="-2.79207">
        <ele>4.4</ele>
        <time>2026-08-29T14:25:10Z</time>
      </trkpt>
      <trkpt lat="47.48624" lon="-2.79203">
        <ele>4.4</ele>
        <time>2026-08-29T14:25:11Z</time>
      </trkpt>
      <trkpt lat="47.48623" lon="-2.79198">
        <ele>4.5</ele>
        <time>2026-08-29T14:25:12Z</time>
      </trkpt>
      <trkpt lat="47.48623" lon="-2.79193">
        <ele>4.4</ele>
        <time>2026-08-29T14:25:13Z</time>
      </trkpt>
      <trkpt lat="47.48622" lon="-2.79189">
        <ele>4.1</ele>
        <time>2026-08-29T14:25:14Z</time>
      </trkpt>
      <trkpt lat="47.48622" lon="-2.79184">
        <ele>3.7</ele>
        <time>2026-08-29T14:25:15Z</time>
      </trkpt>
      <trkpt lat="47.48621" lon="-2.79181">
        <ele>3.5</ele>
        <time>2026-08-29T14:25:16Z</time>
      </trkpt>
      <trkpt lat="47.48622" lon="-2.79177">
        <ele>3.1</ele>
        <time>2026-08-29T14:25:17Z</time>
      </trkpt>
      <trkpt lat="47.48623" lon="-2.79174">
        <ele>2.8</ele>
        <time>2026-08-29T14:25:18Z</time>
      </trkpt>
      <trkpt lat="47.48623" lon="-2.79172">
        <ele>2.6</ele>
        <time>2026-08-29T14:25:19Z</time>
      </trkpt>
      <trkpt lat="47.48624" lon="-2.7917">
        <ele>2.4</ele>
        <time>2026-08-29T14:25:20Z</time>
      </trkpt>
      <trkpt lat="47.48625" lon="-2.79169">
        <ele>2.2</ele>
        <time>2026-08-29T14:25:21Z</time>
      </trkpt>
      <trkpt lat="47.48625" lon="-2.79168">
        <ele>2.1</ele>
        <time>2026-08-29T14:25:22Z</time>
      </trkpt>
      <trkpt lat="47.48626" lon="-2.79167">
        <ele>2</ele>
        <time>2026-08-29T14:25:23Z</time>
      </trkpt>
      <trkpt lat="47.48626" lon="-2.79167">
        <ele>2</ele>
        <time>2026-08-29T14:25:24Z</time>
      </trkpt>
      <trkpt lat="47.48629" lon="-2.79166">
        <ele>1.7</ele>
        <time>2026-08-29T14:25:44Z</time>
      </trkpt>
      <trkpt lat="47.48631" lon="-2.79168">
        <ele>1.7</ele>
        <time>2026-08-29T14:25:45Z</time>
      </trkpt>
      <trkpt lat="47.48632" lon="-2.7917">
        <ele>1.8</ele>
        <time>2026-08-29T14:25:46Z</time>
      </trkpt>
      <trkpt lat="47.48632" lon="-2.79174">
        <ele>2.2</ele>
        <time>2026-08-29T14:25:47Z</time>
      </trkpt>
      <trkpt lat="47.48632" lon="-2.79178">
        <ele>2.6</ele>
        <time>2026-08-29T14:25:48Z</time>
      </trkpt>
      <trkpt lat="47.48631" lon="-2.79182">
        <ele>3.1</ele>
        <time>2026-08-29T14:25:49Z</time>
      </trkpt>
      <trkpt lat="47.48631" lon="-2.79186">
        <ele>3.5</ele>
        <time>2026-08-29T14:25:50Z</time>
      </trkpt>
      <trkpt lat="47.4863" lon="-2.7919">
        <ele>3.9</ele>
        <time>2026-08-29T14:25:51Z</time>
      </trkpt>
      <trkpt lat="47.48629" lon="-2.79195">
        <ele>4.3</ele>
        <time>2026-08-29T14:25:52Z</time>
      </trkpt>
      <trkpt lat="47.48628" lon="-2.79199">
        <ele>4.3</ele>
        <time>2026-08-29T14:25:53Z</time>
      </trkpt>
      <trkpt lat="47.48627" lon="-2.79204">
        <ele>4.2</ele>
        <time>2026-08-29T14:25:54Z</time>
      </trkpt>
      <trkpt lat="47.48626" lon="-2.79208">
        <ele>4.2</ele>
        <time>2026-08-29T14:25:55Z</time>
      </trkpt>
      <trkpt lat="47.48625" lon="-2.79212">
        <ele>4.2</ele>
        <time>2026-08-29T14:25:56Z</time>
      </trkpt>
      <trkpt lat="47.48623" lon="-2.79216">
        <ele>4.4</ele>
        <time>2026-08-29T14:25:57Z</time>
      </trkpt>
      <trkpt lat="47.48622" lon="-2.7922">
        <ele>4.4</ele>
        <time>2026-08-29T14:25:58Z</time>
      </trkpt>
      <trkpt lat="47.48621" lon="-2.79224">
        <ele>4.5</ele>
        <time>2026-08-29T14:25:59Z</time>
      </trkpt>
      <trkpt lat="47.48621" lon="-2.79229">
        <ele>4.3</ele>
        <time>2026-08-29T14:26:00Z</time>
      </trkpt>
      <trkpt lat="47.48622" lon="-2.79234">
        <ele>4</ele>
        <time>2026-08-29T14:26:01Z</time>
      </trkpt>
      <trkpt lat="47.48622" lon="-2.7924">
        <ele>3.8</ele>
        <time>2026-08-29T14:26:02Z</time>
      </trkpt>
      <trkpt lat="47.48622" lon="-2.79245">
        <ele>3.6</ele>
        <time>2026-08-29T14:26:03Z</time>
      </trkpt>
      <trkpt lat="47.48622" lon="-2.79251">
        <ele>3.4</ele>
        <time>2026-08-29T14:26:04Z</time>
      </trkpt>
      <trkpt lat="47.48622" lon="-2.79257">
        <ele>3.5</ele>
        <time>2026-08-29T14:26:05Z</time>
      </trkpt>
      <trkpt lat="47.48623" lon="-2.79263">
        <ele>3.5</ele>
        <time>2026-08-29T14:26:06Z</time>
      </trkpt>
      <trkpt lat="47.48624" lon="-2.79269">
        <ele>3.5</ele>
        <time>2026-08-29T14:26:07Z</time>
      </trkpt>
      <trkpt lat="47.48625" lon="-2.79276">
        <ele>3.5</ele>
        <time>2026-08-29T14:26:08Z</time>
      </trkpt>
      <trkpt lat="47.48627" lon="-2.79282">
        <ele>3.5</ele>
        <time>2026-08-29T14:26:09Z</time>
      </trkpt>
      <trkpt lat="47.4863" lon="-2.79287">
        <ele>3.4</ele>
        <time>2026-08-29T14:26:10Z</time>
      </trkpt>
      <trkpt lat="47.48633" lon="-2.79292">
        <ele>3.4</ele>
        <time>2026-08-29T14:26:11Z</time>
      </trkpt>
      <trkpt lat="47.48636" lon="-2.79297">
        <ele>3.6</ele>
        <time>2026-08-29T14:26:12Z</time>
      </trkpt>
      <trkpt lat="47.4864" lon="-2.79301">
        <ele>3.7</ele>
        <time>2026-08-29T14:26:13Z</time>
      </trkpt>
      <trkpt lat="47.48643" lon="-2.79305">
        <ele>4</ele>
        <time>2026-08-29T14:26:14Z</time>
      </trkpt>
      <trkpt lat="47.48647" lon="-2.79308">
        <ele>4.1</ele>
        <time>2026-08-29T14:26:15Z</time>
      </trkpt>
      <trkpt lat="47.48651" lon="-2.79311">
        <ele>4.2</ele>
        <time>2026-08-29T14:26:16Z</time>
      </trkpt>
      <trkpt lat="47.48655" lon="-2.79313">
        <ele>4.3</ele>
        <time>2026-08-29T14:26:17Z</time>
      </trkpt>
      <trkpt lat="47.48659" lon="-2.79315">
        <ele>4.3</ele>
        <time>2026-08-29T14:26:18Z</time>
      </trkpt>
      <trkpt lat="47.48663" lon="-2.79317">
        <ele>4.4</ele>
        <time>2026-08-29T14:26:19Z</time>
      </trkpt>
      <trkpt lat="47.48667" lon="-2.79318">
        <ele>4.4</ele>
        <time>2026-08-29T14:26:20Z</time>
      </trkpt>
      <trkpt lat="47.48672" lon="-2.79318">
        <ele>4.3</ele>
        <time>2026-08-29T14:26:21Z</time>
      </trkpt>
      <trkpt lat="47.48676" lon="-2.79318">
        <ele>4.3</ele>
        <time>2026-08-29T14:26:22Z</time>
      </trkpt>
      <trkpt lat="47.48681" lon="-2.79318">
        <ele>4.2</ele>
        <time>2026-08-29T14:26:23Z</time>
      </trkpt>
      <trkpt lat="47.48686" lon="-2.79318">
        <ele>4.1</ele>
        <time>2026-08-29T14:26:24Z</time>
      </trkpt>
      <trkpt lat="47.4869" lon="-2.79318">
        <ele>4</ele>
        <time>2026-08-29T14:26:25Z</time>
      </trkpt>
      <trkpt lat="47.48695" lon="-2.79318">
        <ele>3.9</ele>
        <time>2026-08-29T14:26:26Z</time>
      </trkpt>
      <trkpt lat="47.48699" lon="-2.79319">
        <ele>4</ele>
        <time>2026-08-29T14:26:27Z</time>
      </trkpt>
      <trkpt lat="47.48704" lon="-2.79319">
        <ele>4</ele>
        <time>2026-08-29T14:26:28Z</time>
      </trkpt>
      <trkpt lat="47.48708" lon="-2.79319">
        <ele>4</ele>
        <time>2026-08-29T14:26:29Z</time>
      </trkpt>
      <trkpt lat="47.48713" lon="-2.79319">
        <ele>4</ele>
        <time>2026-08-29T14:26:30Z</time>
      </trkpt>
      <trkpt lat="47.48717" lon="-2.79319">
        <ele>4</ele>
        <time>2026-08-29T14:26:31Z</time>
      </trkpt>
      <trkpt lat="47.48721" lon="-2.79319">
        <ele>4</ele>
        <time>2026-08-29T14:26:32Z</time>
      </trkpt>
      <trkpt lat="47.48726" lon="-2.79319">
        <ele>4</ele>
        <time>2026-08-29T14:26:33Z</time>
      </trkpt>
      <trkpt lat="47.4873" lon="-2.79319">
        <ele>4.1</ele>
        <time>2026-08-29T14:26:34Z</time>
      </trkpt>
      <trkpt lat="47.48735" lon="-2.79319">
        <ele>4.2</ele>
        <time>2026-08-29T14:26:35Z</time>
      </trkpt>
      <trkpt lat="47.48739" lon="-2.79318">
        <ele>4.2</ele>
        <time>2026-08-29T14:26:36Z</time>
      </trkpt>
      <trkpt lat="47.48744" lon="-2.79318">
        <ele>4.3</ele>
        <time>2026-08-29T14:26:37Z</time>
      </trkpt>
      <trkpt lat="47.48748" lon="-2.79316">
        <ele>4.3</ele>
        <time>2026-08-29T14:26:38Z</time>
      </trkpt>
      <trkpt lat="47.48753" lon="-2.79315">
        <ele>4.3</ele>
        <time>2026-08-29T14:26:39Z</time>
      </trkpt>
      <trkpt lat="47.48758" lon="-2.79314">
        <ele>4.3</ele>
        <time>2026-08-29T14:26:40Z</time>
      </trkpt>
      <trkpt lat="47.48762" lon="-2.79313">
        <ele>4.3</ele>
        <time>2026-08-29T14:26:41Z</time>
      </trkpt>
      <trkpt lat="47.48767" lon="-2.79312">
        <ele>4.2</ele>
        <time>2026-08-29T14:26:42Z</time>
      </trkpt>
      <trkpt lat="47.48772" lon="-2.79311">
        <ele>4.2</ele>
        <time>2026-08-29T14:26:43Z</time>
      </trkpt>
      <trkpt lat="47.48776" lon="-2.7931">
        <ele>4.2</ele>
        <time>2026-08-29T14:26:44Z</time>
      </trkpt>
      <trkpt lat="47.48781" lon="-2.79309">
        <ele>4.2</ele>
        <time>2026-08-29T14:26:45Z</time>
      </trkpt>
      <trkpt lat="47.48785" lon="-2.79308">
        <ele>4.3</ele>
        <time>2026-08-29T14:26:46Z</time>
      </trkpt>
      <trkpt lat="47.4879" lon="-2.79307">
        <ele>4.5</ele>
        <time>2026-08-29T14:26:47Z</time>
      </trkpt>
      <trkpt lat="47.48794" lon="-2.79305">
        <ele>4.6</ele>
        <time>2026-08-29T14:26:48Z</time>
      </trkpt>
      <trkpt lat="47.48799" lon="-2.79304">
        <ele>4.7</ele>
        <time>2026-08-29T14:26:49Z</time>
      </trkpt>
      <trkpt lat="47.48803" lon="-2.79301">
        <ele>4.6</ele>
        <time>2026-08-29T14:26:50Z</time>
      </trkpt>
      <trkpt lat="47.48807" lon="-2.79299">
        <ele>4.5</ele>
        <time>2026-08-29T14:26:51Z</time>
      </trkpt>
      <trkpt lat="47.48812" lon="-2.79296">
        <ele>4.4</ele>
        <time>2026-08-29T14:26:52Z</time>
      </trkpt>
      <trkpt lat="47.48816" lon="-2.79293">
        <ele>4.3</ele>
        <time>2026-08-29T14:26:53Z</time>
      </trkpt>
      <trkpt lat="47.4882" lon="-2.7929">
        <ele>4.2</ele>
        <time>2026-08-29T14:26:54Z</time>
      </trkpt>
      <trkpt lat="47.48824" lon="-2.79286">
        <ele>4.1</ele>
        <time>2026-08-29T14:26:55Z</time>
      </trkpt>
      <trkpt lat="47.48828" lon="-2.79283">
        <ele>4</ele>
        <time>2026-08-29T14:26:56Z</time>
      </trkpt>
      <trkpt lat="47.48833" lon="-2.79279">
        <ele>4</ele>
        <time>2026-08-29T14:26:57Z</time>
      </trkpt>
      <trkpt lat="47.48837" lon="-2.79275">
        <ele>4</ele>
        <time>2026-08-29T14:26:58Z</time>
      </trkpt>
      <trkpt lat="47.48841" lon="-2.79272">
        <ele>4.1</ele>
        <time>2026-08-29T14:26:59Z</time>
      </trkpt>
      <trkpt lat="47.48844" lon="-2.79268">
        <ele>4</ele>
        <time>2026-08-29T14:27:00Z</time>
      </trkpt>
      <trkpt lat="47.48848" lon="-2.79265">
        <ele>4.1</ele>
        <time>2026-08-29T14:27:01Z</time>
      </trkpt>
      <trkpt lat="47.48852" lon="-2.79261">
        <ele>4.1</ele>
        <time>2026-08-29T14:27:02Z</time>
      </trkpt>
      <trkpt lat="47.48856" lon="-2.79258">
        <ele>4.1</ele>
        <time>2026-08-29T14:27:03Z</time>
      </trkpt>
      <trkpt lat="47.48861" lon="-2.79255">
        <ele>4.2</ele>
        <time>2026-08-29T14:27:04Z</time>
      </trkpt>
      <trkpt lat="47.48865" lon="-2.79254">
        <ele>4.3</ele>
        <time>2026-08-29T14:27:05Z</time>
      </trkpt>
      <trkpt lat="47.48869" lon="-2.79253">
        <ele>4.4</ele>
        <time>2026-08-29T14:27:06Z</time>
      </trkpt>
      <trkpt lat="47.48874" lon="-2.79254">
        <ele>4.5</ele>
        <time>2026-08-29T14:27:07Z</time>
      </trkpt>
      <trkpt lat="47.48878" lon="-2.79255">
        <ele>4.7</ele>
        <time>2026-08-29T14:27:08Z</time>
      </trkpt>
      <trkpt lat="47.48883" lon="-2.79257">
        <ele>4.8</ele>
        <time>2026-08-29T14:27:09Z</time>
      </trkpt>
      <trkpt lat="47.48887" lon="-2.79259">
        <ele>5</ele>
        <time>2026-08-29T14:27:10Z</time>
      </trkpt>
      <trkpt lat="47.48891" lon="-2.79261">
        <ele>4.9</ele>
        <time>2026-08-29T14:27:11Z</time>
      </trkpt>
      <trkpt lat="47.48895" lon="-2.79263">
        <ele>4.8</ele>
        <time>2026-08-29T14:27:12Z</time>
      </trkpt>
      <trkpt lat="47.48899" lon="-2.79266">
        <ele>4.6</ele>
        <time>2026-08-29T14:27:13Z</time>
      </trkpt>
      <trkpt lat="47.48903" lon="-2.79269">
        <ele>4.5</ele>
        <time>2026-08-29T14:27:14Z</time>
      </trkpt>
      <trkpt lat="47.48907" lon="-2.79272">
        <ele>4.3</ele>
        <time>2026-08-29T14:27:15Z</time>
      </trkpt>
      <trkpt lat="47.48912" lon="-2.79275">
        <ele>4.2</ele>
        <time>2026-08-29T14:27:16Z</time>
      </trkpt>
      <trkpt lat="47.48916" lon="-2.79278">
        <ele>4</ele>
        <time>2026-08-29T14:27:17Z</time>
      </trkpt>
      <trkpt lat="47.4892" lon="-2.79281">
        <ele>4.1</ele>
        <time>2026-08-29T14:27:18Z</time>
      </trkpt>
      <trkpt lat="47.48925" lon="-2.79283">
        <ele>4.2</ele>
        <time>2026-08-29T14:27:19Z</time>
      </trkpt>
      <trkpt lat="47.48929" lon="-2.79286">
        <ele>4.3</ele>
        <time>2026-08-29T14:27:20Z</time>
      </trkpt>
      <trkpt lat="47.48933" lon="-2.79288">
        <ele>4.4</ele>
        <time>2026-08-29T14:27:21Z</time>
      </trkpt>
      <trkpt lat="47.48937" lon="-2.79291">
        <ele>4.4</ele>
        <time>2026-08-29T14:27:22Z</time>
      </trkpt>
      <trkpt lat="47.48941" lon="-2.79293">
        <ele>4.4</ele>
        <time>2026-08-29T14:27:23Z</time>
      </trkpt>
      <trkpt lat="47.48946" lon="-2.79296">
        <ele>4.3</ele>
        <time>2026-08-29T14:27:24Z</time>
      </trkpt>
      <trkpt lat="47.4895" lon="-2.79298">
        <ele>4.3</ele>
        <time>2026-08-29T14:27:25Z</time>
      </trkpt>
      <trkpt lat="47.48955" lon="-2.79301">
        <ele>4.2</ele>
        <time>2026-08-29T14:27:26Z</time>
      </trkpt>
      <trkpt lat="47.48959" lon="-2.79304">
        <ele>4.1</ele>
        <time>2026-08-29T14:27:27Z</time>
      </trkpt>
      <trkpt lat="47.48964" lon="-2.79306">
        <ele>4</ele>
        <time>2026-08-29T14:27:28Z</time>
      </trkpt>
      <trkpt lat="47.48968" lon="-2.79307">
        <ele>4</ele>
        <time>2026-08-29T14:27:29Z</time>
      </trkpt>
      <trkpt lat="47.48973" lon="-2.79307">
        <ele>4</ele>
        <time>2026-08-29T14:27:30Z</time>
      </trkpt>
      <trkpt lat="47.48977" lon="-2.79305">
        <ele>4.2</ele>
        <time>2026-08-29T14:27:31Z</time>
      </trkpt>
      <trkpt lat="47.48981" lon="-2.79303">
        <ele>4.4</ele>
        <time>2026-08-29T14:27:32Z</time>
      </trkpt>
      <trkpt lat="47.48985" lon="-2.79299">
        <ele>4.6</ele>
        <time>2026-08-29T14:27:33Z</time>
      </trkpt>
      <trkpt lat="47.48989" lon="-2.79296">
        <ele>4.7</ele>
        <time>2026-08-29T14:27:34Z</time>
      </trkpt>
      <trkpt lat="47.48993" lon="-2.79292">
        <ele>4.9</ele>
        <time>2026-08-29T14:27:35Z</time>
      </trkpt>
      <trkpt lat="47.48996" lon="-2.79288">
        <ele>4.9</ele>
        <time>2026-08-29T14:27:36Z</time>
      </trkpt>
      <trkpt lat="47.48999" lon="-2.79283">
        <ele>5</ele>
        <time>2026-08-29T14:27:37Z</time>
      </trkpt>
      <trkpt lat="47.49001" lon="-2.79277">
        <ele>4.9</ele>
        <time>2026-08-29T14:27:38Z</time>
      </trkpt>
      <trkpt lat="47.49003" lon="-2.79271">
        <ele>4.7</ele>
        <time>2026-08-29T14:27:39Z</time>
      </trkpt>
      <trkpt lat="47.49004" lon="-2.79264">
        <ele>4.5</ele>
        <time>2026-08-29T14:27:40Z</time>
      </trkpt>
      <trkpt lat="47.49005" lon="-2.79257">
        <ele>4.3</ele>
        <time>2026-08-29T14:27:41Z</time>
      </trkpt>
      <trkpt lat="47.49008" lon="-2.7925">
        <ele>4.3</ele>
        <time>2026-08-29T14:27:42Z</time>
      </trkpt>
      <trkpt lat="47.4901" lon="-2.79244">
        <ele>4.3</ele>
        <time>2026-08-29T14:27:43Z</time>
      </trkpt>
      <trkpt lat="47.49012" lon="-2.79237">
        <ele>4.2</ele>
        <time>2026-08-29T14:27:44Z</time>
      </trkpt>
      <trkpt lat="47.49015" lon="-2.79231">
        <ele>4.2</ele>
        <time>2026-08-29T14:27:45Z</time>
      </trkpt>
      <trkpt lat="47.49017" lon="-2.79224">
        <ele>4</ele>
        <time>2026-08-29T14:27:46Z</time>
      </trkpt>
      <trkpt lat="47.4902" lon="-2.79218">
        <ele>4</ele>
        <time>2026-08-29T14:27:47Z</time>
      </trkpt>
      <trkpt lat="47.49022" lon="-2.79211">
        <ele>4</ele>
        <time>2026-08-29T14:27:48Z</time>
      </trkpt>
      <trkpt lat="47.49024" lon="-2.79205">
        <ele>4</ele>
        <time>2026-08-29T14:27:49Z</time>
      </trkpt>
      <trkpt lat="47.49026" lon="-2.79198">
        <ele>4</ele>
        <time>2026-08-29T14:27:50Z</time>
      </trkpt>
      <trkpt lat="47.49028" lon="-2.79191">
        <ele>4</ele>
        <time>2026-08-29T14:27:51Z</time>
      </trkpt>
      <trkpt lat="47.4903" lon="-2.79184">
        <ele>4</ele>
        <time>2026-08-29T14:27:52Z</time>
      </trkpt>
      <trkpt lat="47.49032" lon="-2.79177">
        <ele>4</ele>
        <time>2026-08-29T14:27:53Z</time>
      </trkpt>
      <trkpt lat="47.49034" lon="-2.79171">
        <ele>4</ele>
        <time>2026-08-29T14:27:54Z</time>
      </trkpt>
      <trkpt lat="47.49036" lon="-2.79164">
        <ele>4</ele>
        <time>2026-08-29T14:27:55Z</time>
      </trkpt>
      <trkpt lat="47.49038" lon="-2.79156">
        <ele>4</ele>
        <time>2026-08-29T14:27:56Z</time>
      </trkpt>
      <trkpt lat="47.4904" lon="-2.79149">
        <ele>4</ele>
        <time>2026-08-29T14:27:57Z</time>
      </trkpt>
      <trkpt lat="47.49042" lon="-2.79142">
        <ele>4</ele>
        <time>2026-08-29T14:27:58Z</time>
      </trkpt>
      <trkpt lat="47.49043" lon="-2.79135">
        <ele>4</ele>
        <time>2026-08-29T14:27:59Z</time>
      </trkpt>
      <trkpt lat="47.49045" lon="-2.79127">
        <ele>4</ele>
        <time>2026-08-29T14:28:00Z</time>
      </trkpt>
      <trkpt lat="47.49047" lon="-2.7912">
        <ele>4</ele>
        <time>2026-08-29T14:28:01Z</time>
      </trkpt>
      <trkpt lat="47.49048" lon="-2.79113">
        <ele>4</ele>
        <time>2026-08-29T14:28:02Z</time>
      </trkpt>
      <trkpt lat="47.4905" lon="-2.79105">
        <ele>4</ele>
        <time>2026-08-29T14:28:03Z</time>
      </trkpt>
      <trkpt lat="47.49051" lon="-2.79098">
        <ele>4</ele>
        <time>2026-08-29T14:28:04Z</time>
      </trkpt>
      <trkpt lat="47.49053" lon="-2.7909">
        <ele>4</ele>
        <time>2026-08-29T14:28:05Z</time>
      </trkpt>
      <trkpt lat="47.49054" lon="-2.79083">
        <ele>4</ele>
        <time>2026-08-29T14:28:06Z</time>
      </trkpt>
      <trkpt lat="47.49055" lon="-2.79075">
        <ele>4</ele>
        <time>2026-08-29T14:28:07Z</time>
      </trkpt>
      <trkpt lat="47.49057" lon="-2.79068">
        <ele>4</ele>
        <time>2026-08-29T14:28:08Z</time>
      </trkpt>
      <trkpt lat="47.49058" lon="-2.79061">
        <ele>4</ele>
        <time>2026-08-29T14:28:09Z</time>
      </trkpt>
      <trkpt lat="47.4906" lon="-2.79054">
        <ele>4</ele>
        <time>2026-08-29T14:28:10Z</time>
      </trkpt>
      <trkpt lat="47.49061" lon="-2.79047">
        <ele>4</ele>
        <time>2026-08-29T14:28:11Z</time>
      </trkpt>
      <trkpt lat="47.49063" lon="-2.7904">
        <ele>4</ele>
        <time>2026-08-29T14:28:12Z</time>
      </trkpt>
      <trkpt lat="47.49064" lon="-2.79033">
        <ele>4</ele>
        <time>2026-08-29T14:28:13Z</time>
      </trkpt>
      <trkpt lat="47.49066" lon="-2.79026">
        <ele>4.1</ele>
        <time>2026-08-29T14:28:14Z</time>
      </trkpt>
      <trkpt lat="47.49067" lon="-2.79019">
        <ele>4.3</ele>
        <time>2026-08-29T14:28:15Z</time>
      </trkpt>
      <trkpt lat="47.49069" lon="-2.79012">
        <ele>4.6</ele>
        <time>2026-08-29T14:28:16Z</time>
      </trkpt>
      <trkpt lat="47.4907" lon="-2.79005">
        <ele>4.8</ele>
        <time>2026-08-29T14:28:17Z</time>
      </trkpt>
      <trkpt lat="47.49071" lon="-2.78997">
        <ele>5</ele>
        <time>2026-08-29T14:28:18Z</time>
      </trkpt>
      <trkpt lat="47.49073" lon="-2.7899">
        <ele>5</ele>
        <time>2026-08-29T14:28:19Z</time>
      </trkpt>
      <trkpt lat="47.49074" lon="-2.78982">
        <ele>5</ele>
        <time>2026-08-29T14:28:20Z</time>
      </trkpt>
      <trkpt lat="47.49076" lon="-2.78975">
        <ele>5</ele>
        <time>2026-08-29T14:28:21Z</time>
      </trkpt>
      <trkpt lat="47.49078" lon="-2.78967">
        <ele>5</ele>
        <time>2026-08-29T14:28:22Z</time>
      </trkpt>
      <trkpt lat="47.49079" lon="-2.7896">
        <ele>4.9</ele>
        <time>2026-08-29T14:28:23Z</time>
      </trkpt>
      <trkpt lat="47.49081" lon="-2.78952">
        <ele>4.9</ele>
        <time>2026-08-29T14:28:24Z</time>
      </trkpt>
      <trkpt lat="47.49082" lon="-2.78945">
        <ele>5</ele>
        <time>2026-08-29T14:28:25Z</time>
      </trkpt>
      <trkpt lat="47.49083" lon="-2.78937">
        <ele>5</ele>
        <time>2026-08-29T14:28:26Z</time>
      </trkpt>
      <trkpt lat="47.49085" lon="-2.78929">
        <ele>5</ele>
        <time>2026-08-29T14:28:27Z</time>
      </trkpt>
      <trkpt lat="47.49086" lon="-2.78921">
        <ele>5</ele>
        <time>2026-08-29T14:28:28Z</time>
      </trkpt>
      <trkpt lat="47.49087" lon="-2.78913">
        <ele>4.9</ele>
        <time>2026-08-29T14:28:29Z</time>
      </trkpt>
      <trkpt lat="47.49088" lon="-2.78905">
        <ele>4.6</ele>
        <time>2026-08-29T14:28:30Z</time>
      </trkpt>
      <trkpt lat="47.49089" lon="-2.78897">
        <ele>4.3</ele>
        <time>2026-08-29T14:28:31Z</time>
      </trkpt>
      <trkpt lat="47.49091" lon="-2.7889">
        <ele>4</ele>
        <time>2026-08-29T14:28:32Z</time>
      </trkpt>
      <trkpt lat="47.49092" lon="-2.78883">
        <ele>4.1</ele>
        <time>2026-08-29T14:28:33Z</time>
      </trkpt>
      <trkpt lat="47.49092" lon="-2.78876">
        <ele>4.3</ele>
        <time>2026-08-29T14:28:34Z</time>
      </trkpt>
      <trkpt lat="47.49093" lon="-2.78869">
        <ele>4.5</ele>
        <time>2026-08-29T14:28:35Z</time>
      </trkpt>
      <trkpt lat="47.49093" lon="-2.78862">
        <ele>4.6</ele>
        <time>2026-08-29T14:28:36Z</time>
      </trkpt>
      <trkpt lat="47.49095" lon="-2.78856">
        <ele>4.6</ele>
        <time>2026-08-29T14:28:37Z</time>
      </trkpt>
      <trkpt lat="47.49096" lon="-2.78849">
        <ele>4.5</ele>
        <time>2026-08-29T14:28:38Z</time>
      </trkpt>
      <trkpt lat="47.49097" lon="-2.78842">
        <ele>4.5</ele>
        <time>2026-08-29T14:28:39Z</time>
      </trkpt>
      <trkpt lat="47.49098" lon="-2.78835">
        <ele>4.5</ele>
        <time>2026-08-29T14:28:40Z</time>
      </trkpt>
      <trkpt lat="47.49099" lon="-2.78829">
        <ele>4.5</ele>
        <time>2026-08-29T14:28:41Z</time>
      </trkpt>
      <trkpt lat="47.491" lon="-2.78822">
        <ele>4.5</ele>
        <time>2026-08-29T14:28:42Z</time>
      </trkpt>
      <trkpt lat="47.49101" lon="-2.78816">
        <ele>4.5</ele>
        <time>2026-08-29T14:28:43Z</time>
      </trkpt>
      <trkpt lat="47.49102" lon="-2.7881">
        <ele>4.6</ele>
        <time>2026-08-29T14:28:44Z</time>
      </trkpt>
      <trkpt lat="47.49104" lon="-2.78804">
        <ele>4.7</ele>
        <time>2026-08-29T14:28:45Z</time>
      </trkpt>
      <trkpt lat="47.49105" lon="-2.78798">
        <ele>4.6</ele>
        <time>2026-08-29T14:28:46Z</time>
      </trkpt>
      <trkpt lat="47.49106" lon="-2.78792">
        <ele>4.4</ele>
        <time>2026-08-29T14:28:47Z</time>
      </trkpt>
      <trkpt lat="47.49107" lon="-2.78785">
        <ele>4.2</ele>
        <time>2026-08-29T14:28:48Z</time>
      </trkpt>
      <trkpt lat="47.49109" lon="-2.78779">
        <ele>4</ele>
        <time>2026-08-29T14:28:49Z</time>
      </trkpt>
      <trkpt lat="47.4911" lon="-2.78772">
        <ele>4</ele>
        <time>2026-08-29T14:28:50Z</time>
      </trkpt>
      <trkpt lat="47.49112" lon="-2.78765">
        <ele>4</ele>
        <time>2026-08-29T14:28:51Z</time>
      </trkpt>
      <trkpt lat="47.49115" lon="-2.78758">
        <ele>4</ele>
        <time>2026-08-29T14:28:52Z</time>
      </trkpt>
      <trkpt lat="47.49117" lon="-2.78751">
        <ele>4</ele>
        <time>2026-08-29T14:28:53Z</time>
      </trkpt>
      <trkpt lat="47.49121" lon="-2.78744">
        <ele>4</ele>
        <time>2026-08-29T14:28:54Z</time>
      </trkpt>
      <trkpt lat="47.49124" lon="-2.78738">
        <ele>4</ele>
        <time>2026-08-29T14:28:55Z</time>
      </trkpt>
      <trkpt lat="47.49128" lon="-2.78733">
        <ele>4</ele>
        <time>2026-08-29T14:28:56Z</time>
      </trkpt>
      <trkpt lat="47.49132" lon="-2.78728">
        <ele>4</ele>
        <time>2026-08-29T14:28:57Z</time>
      </trkpt>
      <trkpt lat="47.49137" lon="-2.78724">
        <ele>4</ele>
        <time>2026-08-29T14:28:58Z</time>
      </trkpt>
      <trkpt lat="47.49141" lon="-2.7872">
        <ele>3.8</ele>
        <time>2026-08-29T14:28:59Z</time>
      </trkpt>
      <trkpt lat="47.49145" lon="-2.78717">
        <ele>3.7</ele>
        <time>2026-08-29T14:29:00Z</time>
      </trkpt>
      <trkpt lat="47.4915" lon="-2.78714">
        <ele>3.5</ele>
        <time>2026-08-29T14:29:01Z</time>
      </trkpt>
      <trkpt lat="47.49155" lon="-2.78711">
        <ele>3.4</ele>
        <time>2026-08-29T14:29:02Z</time>
      </trkpt>
      <trkpt lat="47.4916" lon="-2.78708">
        <ele>3.4</ele>
        <time>2026-08-29T14:29:03Z</time>
      </trkpt>
      <trkpt lat="47.49165" lon="-2.78706">
        <ele>3.4</ele>
        <time>2026-08-29T14:29:04Z</time>
      </trkpt>
      <trkpt lat="47.4917" lon="-2.78704">
        <ele>3.3</ele>
        <time>2026-08-29T14:29:05Z</time>
      </trkpt>
      <trkpt lat="47.49175" lon="-2.78704">
        <ele>3.3</ele>
        <time>2026-08-29T14:29:06Z</time>
      </trkpt>
      <trkpt lat="47.4918" lon="-2.78703">
        <ele>3.3</ele>
        <time>2026-08-29T14:29:07Z</time>
      </trkpt>
      <trkpt lat="47.49185" lon="-2.78703">
        <ele>3.3</ele>
        <time>2026-08-29T14:29:08Z</time>
      </trkpt>
      <trkpt lat="47.4919" lon="-2.78704">
        <ele>3.3</ele>
        <time>2026-08-29T14:29:09Z</time>
      </trkpt>
      <trkpt lat="47.49194" lon="-2.78705">
        <ele>3.4</ele>
        <time>2026-08-29T14:29:10Z</time>
      </trkpt>
      <trkpt lat="47.49199" lon="-2.78708">
        <ele>3.6</ele>
        <time>2026-08-29T14:29:11Z</time>
      </trkpt>
      <trkpt lat="47.49203" lon="-2.78711">
        <ele>3.7</ele>
        <time>2026-08-29T14:29:12Z</time>
      </trkpt>
      <trkpt lat="47.49207" lon="-2.78715">
        <ele>3.9</ele>
        <time>2026-08-29T14:29:13Z</time>
      </trkpt>
      <trkpt lat="47.4921" lon="-2.78719">
        <ele>3.9</ele>
        <time>2026-08-29T14:29:14Z</time>
      </trkpt>
      <trkpt lat="47.49213" lon="-2.78725">
        <ele>4</ele>
        <time>2026-08-29T14:29:15Z</time>
      </trkpt>
      <trkpt lat="47.49216" lon="-2.7873">
        <ele>4</ele>
        <time>2026-08-29T14:29:16Z</time>
      </trkpt>
      <trkpt lat="47.49218" lon="-2.78736">
        <ele>4</ele>
        <time>2026-08-29T14:29:17Z</time>
      </trkpt>
      <trkpt lat="47.49221" lon="-2.78741">
        <ele>4</ele>
        <time>2026-08-29T14:29:18Z</time>
      </trkpt>
      <trkpt lat="47.49223" lon="-2.78746">
        <ele>4</ele>
        <time>2026-08-29T14:29:19Z</time>
      </trkpt>
      <trkpt lat="47.49226" lon="-2.78752">
        <ele>4.2</ele>
        <time>2026-08-29T14:29:20Z</time>
      </trkpt>
      <trkpt lat="47.49228" lon="-2.78757">
        <ele>4.4</ele>
        <time>2026-08-29T14:29:21Z</time>
      </trkpt>
      <trkpt lat="47.49231" lon="-2.78762">
        <ele>4.6</ele>
        <time>2026-08-29T14:29:22Z</time>
      </trkpt>
      <trkpt lat="47.49233" lon="-2.78767">
        <ele>4.8</ele>
        <time>2026-08-29T14:29:23Z</time>
      </trkpt>
      <trkpt lat="47.49236" lon="-2.78772">
        <ele>4.9</ele>
        <time>2026-08-29T14:29:24Z</time>
      </trkpt>
      <trkpt lat="47.49239" lon="-2.78777">
        <ele>5</ele>
        <time>2026-08-29T14:29:25Z</time>
      </trkpt>
      <trkpt lat="47.49241" lon="-2.78782">
        <ele>5</ele>
        <time>2026-08-29T14:29:26Z</time>
      </trkpt>
      <trkpt lat="47.49244" lon="-2.78787">
        <ele>5</ele>
        <time>2026-08-29T14:29:27Z</time>
      </trkpt>
      <trkpt lat="47.49246" lon="-2.78792">
        <ele>5</ele>
        <time>2026-08-29T14:29:28Z</time>
      </trkpt>
      <trkpt lat="47.49248" lon="-2.78797">
        <ele>5</ele>
        <time>2026-08-29T14:29:29Z</time>
      </trkpt>
      <trkpt lat="47.49251" lon="-2.78802">
        <ele>5</ele>
        <time>2026-08-29T14:29:30Z</time>
      </trkpt>
      <trkpt lat="47.49253" lon="-2.78807">
        <ele>5</ele>
        <time>2026-08-29T14:29:31Z</time>
      </trkpt>
      <trkpt lat="47.49256" lon="-2.78812">
        <ele>5</ele>
        <time>2026-08-29T14:29:32Z</time>
      </trkpt>
      <trkpt lat="47.49258" lon="-2.78816">
        <ele>5</ele>
        <time>2026-08-29T14:29:33Z</time>
      </trkpt>
      <trkpt lat="47.4926" lon="-2.78821">
        <ele>5</ele>
        <time>2026-08-29T14:29:34Z</time>
      </trkpt>
      <trkpt lat="47.49263" lon="-2.78826">
        <ele>5</ele>
        <time>2026-08-29T14:29:35Z</time>
      </trkpt>
      <trkpt lat="47.49265" lon="-2.78831">
        <ele>5</ele>
        <time>2026-08-29T14:29:36Z</time>
      </trkpt>
      <trkpt lat="47.49267" lon="-2.78836">
        <ele>5.1</ele>
        <time>2026-08-29T14:29:37Z</time>
      </trkpt>
      <trkpt lat="47.4927" lon="-2.7884">
        <ele>5.2</ele>
        <time>2026-08-29T14:29:38Z</time>
      </trkpt>
      <trkpt lat="47.49272" lon="-2.78845">
        <ele>5.3</ele>
        <time>2026-08-29T14:29:39Z</time>
      </trkpt>
      <trkpt lat="47.49274" lon="-2.7885">
        <ele>5.5</ele>
        <time>2026-08-29T14:29:40Z</time>
      </trkpt>
      <trkpt lat="47.49277" lon="-2.78855">
        <ele>5.8</ele>
        <time>2026-08-29T14:29:41Z</time>
      </trkpt>
      <trkpt lat="47.49279" lon="-2.78859">
        <ele>5.9</ele>
        <time>2026-08-29T14:29:42Z</time>
      </trkpt>
      <trkpt lat="47.49281" lon="-2.78864">
        <ele>6</ele>
        <time>2026-08-29T14:29:43Z</time>
      </trkpt>
      <trkpt lat="47.49283" lon="-2.78869">
        <ele>6</ele>
        <time>2026-08-29T14:29:44Z</time>
      </trkpt>
      <trkpt lat="47.49286" lon="-2.78873">
        <ele>6</ele>
        <time>2026-08-29T14:29:45Z</time>
      </trkpt>
      <trkpt lat="47.49288" lon="-2.78878">
        <ele>6</ele>
        <time>2026-08-29T14:29:46Z</time>
      </trkpt>
      <trkpt lat="47.4929" lon="-2.78883">
        <ele>6</ele>
        <time>2026-08-29T14:29:47Z</time>
      </trkpt>
      <trkpt lat="47.49293" lon="-2.78887">
        <ele>6</ele>
        <time>2026-08-29T14:29:48Z</time>
      </trkpt>
      <trkpt lat="47.49295" lon="-2.78892">
        <ele>6</ele>
        <time>2026-08-29T14:29:49Z</time>
      </trkpt>
      <trkpt lat="47.49297" lon="-2.78897">
        <ele>6</ele>
        <time>2026-08-29T14:29:50Z</time>
      </trkpt>
      <trkpt lat="47.49299" lon="-2.78901">
        <ele>6</ele>
        <time>2026-08-29T14:29:51Z</time>
      </trkpt>
      <trkpt lat="47.49302" lon="-2.78906">
        <ele>6</ele>
        <time>2026-08-29T14:29:52Z</time>
      </trkpt>
      <trkpt lat="47.49304" lon="-2.78911">
        <ele>6</ele>
        <time>2026-08-29T14:29:53Z</time>
      </trkpt>
      <trkpt lat="47.49307" lon="-2.78916">
        <ele>6.1</ele>
        <time>2026-08-29T14:29:54Z</time>
      </trkpt>
      <trkpt lat="47.49309" lon="-2.7892">
        <ele>6.2</ele>
        <time>2026-08-29T14:29:55Z</time>
      </trkpt>
      <trkpt lat="47.49311" lon="-2.78925">
        <ele>6.4</ele>
        <time>2026-08-29T14:29:56Z</time>
      </trkpt>
      <trkpt lat="47.49314" lon="-2.78929">
        <ele>6.6</ele>
        <time>2026-08-29T14:29:57Z</time>
      </trkpt>
      <trkpt lat="47.49316" lon="-2.78933">
        <ele>6.7</ele>
        <time>2026-08-29T14:29:58Z</time>
      </trkpt>
      <trkpt lat="47.49319" lon="-2.78937">
        <ele>6.9</ele>
        <time>2026-08-29T14:29:59Z</time>
      </trkpt>
      <trkpt lat="47.49321" lon="-2.78941">
        <ele>6.9</ele>
        <time>2026-08-29T14:30:00Z</time>
      </trkpt>
      <trkpt lat="47.49324" lon="-2.78945">
        <ele>7</ele>
        <time>2026-08-29T14:30:01Z</time>
      </trkpt>
      <trkpt lat="47.49327" lon="-2.78949">
        <ele>7</ele>
        <time>2026-08-29T14:30:02Z</time>
      </trkpt>
      <trkpt lat="47.4933" lon="-2.78953">
        <ele>7</ele>
        <time>2026-08-29T14:30:03Z</time>
      </trkpt>
      <trkpt lat="47.49333" lon="-2.78956">
        <ele>7</ele>
        <time>2026-08-29T14:30:04Z</time>
      </trkpt>
      <trkpt lat="47.49337" lon="-2.7896">
        <ele>7.1</ele>
        <time>2026-08-29T14:30:05Z</time>
      </trkpt>
      <trkpt lat="47.4934" lon="-2.78962">
        <ele>7.2</ele>
        <time>2026-08-29T14:30:06Z</time>
      </trkpt>
      <trkpt lat="47.49344" lon="-2.78962">
        <ele>7.2</ele>
        <time>2026-08-29T14:30:07Z</time>
      </trkpt>
      <trkpt lat="47.49348" lon="-2.7896">
        <ele>7.3</ele>
        <time>2026-08-29T14:30:08Z</time>
      </trkpt>
      <trkpt lat="47.49351" lon="-2.78958">
        <ele>7.3</ele>
        <time>2026-08-29T14:30:09Z</time>
      </trkpt>
      <trkpt lat="47.49355" lon="-2.78956">
        <ele>7.3</ele>
        <time>2026-08-29T14:30:10Z</time>
      </trkpt>
      <trkpt lat="47.49359" lon="-2.78953">
        <ele>7.3</ele>
        <time>2026-08-29T14:30:11Z</time>
      </trkpt>
      <trkpt lat="47.49362" lon="-2.7895">
        <ele>7.2</ele>
        <time>2026-08-29T14:30:12Z</time>
      </trkpt>
      <trkpt lat="47.49366" lon="-2.78947">
        <ele>7.3</ele>
        <time>2026-08-29T14:30:13Z</time>
      </trkpt>
      <trkpt lat="47.49368" lon="-2.78943">
        <ele>7.2</ele>
        <time>2026-08-29T14:30:14Z</time>
      </trkpt>
      <trkpt lat="47.49371" lon="-2.78938">
        <ele>7.3</ele>
        <time>2026-08-29T14:30:15Z</time>
      </trkpt>
      <trkpt lat="47.49374" lon="-2.78934">
        <ele>7.3</ele>
        <time>2026-08-29T14:30:16Z</time>
      </trkpt>
      <trkpt lat="47.49378" lon="-2.78929">
        <ele>7.3</ele>
        <time>2026-08-29T14:30:17Z</time>
      </trkpt>
      <trkpt lat="47.49381" lon="-2.78925">
        <ele>7.2</ele>
        <time>2026-08-29T14:30:18Z</time>
      </trkpt>
      <trkpt lat="47.49385" lon="-2.7892">
        <ele>7.1</ele>
        <time>2026-08-29T14:30:19Z</time>
      </trkpt>
      <trkpt lat="47.49389" lon="-2.78916">
        <ele>7</ele>
        <time>2026-08-29T14:30:20Z</time>
      </trkpt>
      <trkpt lat="47.49392" lon="-2.78911">
        <ele>7.1</ele>
        <time>2026-08-29T14:30:21Z</time>
      </trkpt>
      <trkpt lat="47.49396" lon="-2.78907">
        <ele>7.2</ele>
        <time>2026-08-29T14:30:22Z</time>
      </trkpt>
      <trkpt lat="47.494" lon="-2.78902">
        <ele>7.2</ele>
        <time>2026-08-29T14:30:23Z</time>
      </trkpt>
      <trkpt lat="47.49404" lon="-2.78898">
        <ele>7.2</ele>
        <time>2026-08-29T14:30:24Z</time>
      </trkpt>
      <trkpt lat="47.49408" lon="-2.78894">
        <ele>7.1</ele>
        <time>2026-08-29T14:30:25Z</time>
      </trkpt>
      <trkpt lat="47.49412" lon="-2.78891">
        <ele>7.1</ele>
        <time>2026-08-29T14:30:26Z</time>
      </trkpt>
      <trkpt lat="47.49417" lon="-2.78889">
        <ele>7</ele>
        <time>2026-08-29T14:30:27Z</time>
      </trkpt>
      <trkpt lat="47.49421" lon="-2.78886">
        <ele>7.2</ele>
        <time>2026-08-29T14:30:28Z</time>
      </trkpt>
      <trkpt lat="47.49426" lon="-2.78884">
        <ele>7.5</ele>
        <time>2026-08-29T14:30:29Z</time>
      </trkpt>
      <trkpt lat="47.4943" lon="-2.78882">
        <ele>7.6</ele>
        <time>2026-08-29T14:30:30Z</time>
      </trkpt>
      <trkpt lat="47.49435" lon="-2.7888">
        <ele>7.8</ele>
        <time>2026-08-29T14:30:31Z</time>
      </trkpt>
      <trkpt lat="47.49439" lon="-2.78878">
        <ele>7.9</ele>
        <time>2026-08-29T14:30:32Z</time>
      </trkpt>
      <trkpt lat="47.49444" lon="-2.78876">
        <ele>8</ele>
        <time>2026-08-29T14:30:33Z</time>
      </trkpt>
      <trkpt lat="47.49449" lon="-2.78875">
        <ele>8</ele>
        <time>2026-08-29T14:30:34Z</time>
      </trkpt>
      <trkpt lat="47.49453" lon="-2.78874">
        <ele>8</ele>
        <time>2026-08-29T14:30:35Z</time>
      </trkpt>
      <trkpt lat="47.49458" lon="-2.78872">
        <ele>7.9</ele>
        <time>2026-08-29T14:30:36Z</time>
      </trkpt>
      <trkpt lat="47.49463" lon="-2.7887">
        <ele>7.8</ele>
        <time>2026-08-29T14:30:37Z</time>
      </trkpt>
      <trkpt lat="47.49467" lon="-2.78868">
        <ele>7.6</ele>
        <time>2026-08-29T14:30:38Z</time>
      </trkpt>
      <trkpt lat="47.49472" lon="-2.78866">
        <ele>7.4</ele>
        <time>2026-08-29T14:30:39Z</time>
      </trkpt>
      <trkpt lat="47.49477" lon="-2.78865">
        <ele>7.4</ele>
        <time>2026-08-29T14:30:40Z</time>
      </trkpt>
      <trkpt lat="47.49482" lon="-2.78863">
        <ele>7.5</ele>
        <time>2026-08-29T14:30:41Z</time>
      </trkpt>
      <trkpt lat="47.49486" lon="-2.78862">
        <ele>7.5</ele>
        <time>2026-08-29T14:30:42Z</time>
      </trkpt>
      <trkpt lat="47.49491" lon="-2.78861">
        <ele>7.7</ele>
        <time>2026-08-29T14:30:43Z</time>
      </trkpt>
      <trkpt lat="47.49496" lon="-2.78859">
        <ele>7.9</ele>
        <time>2026-08-29T14:30:44Z</time>
      </trkpt>
      <trkpt lat="47.495" lon="-2.78858">
        <ele>8</ele>
        <time>2026-08-29T14:30:45Z</time>
      </trkpt>
      <trkpt lat="47.49505" lon="-2.78856">
        <ele>8</ele>
        <time>2026-08-29T14:30:46Z</time>
      </trkpt>
      <trkpt lat="47.4951" lon="-2.78854">
        <ele>8</ele>
        <time>2026-08-29T14:30:47Z</time>
      </trkpt>
      <trkpt lat="47.49515" lon="-2.78853">
        <ele>8</ele>
        <time>2026-08-29T14:30:48Z</time>
      </trkpt>
      <trkpt lat="47.49519" lon="-2.78851">
        <ele>8</ele>
        <time>2026-08-29T14:30:49Z</time>
      </trkpt>
      <trkpt lat="47.49524" lon="-2.7885">
        <ele>8</ele>
        <time>2026-08-29T14:30:50Z</time>
      </trkpt>
      <trkpt lat="47.49529" lon="-2.78848">
        <ele>8</ele>
        <time>2026-08-29T14:30:51Z</time>
      </trkpt>
      <trkpt lat="47.49533" lon="-2.78847">
        <ele>8.1</ele>
        <time>2026-08-29T14:30:52Z</time>
      </trkpt>
      <trkpt lat="47.49538" lon="-2.78846">
        <ele>8.2</ele>
        <time>2026-08-29T14:30:53Z</time>
      </trkpt>
      <trkpt lat="47.49542" lon="-2.78844">
        <ele>8.2</ele>
        <time>2026-08-29T14:30:54Z</time>
      </trkpt>
      <trkpt lat="47.49547" lon="-2.78843">
        <ele>8.2</ele>
        <time>2026-08-29T14:30:55Z</time>
      </trkpt>
      <trkpt lat="47.49551" lon="-2.78841">
        <ele>8.2</ele>
        <time>2026-08-29T14:30:56Z</time>
      </trkpt>
      <trkpt lat="47.49556" lon="-2.7884">
        <ele>8.3</ele>
        <time>2026-08-29T14:30:57Z</time>
      </trkpt>
      <trkpt lat="47.4956" lon="-2.78838">
        <ele>8.3</ele>
        <time>2026-08-29T14:30:58Z</time>
      </trkpt>
      <trkpt lat="47.49565" lon="-2.78837">
        <ele>8.5</ele>
        <time>2026-08-29T14:30:59Z</time>
      </trkpt>
      <trkpt lat="47.49569" lon="-2.78835">
        <ele>8.5</ele>
        <time>2026-08-29T14:31:00Z</time>
      </trkpt>
      <trkpt lat="47.49574" lon="-2.78834">
        <ele>8.7</ele>
        <time>2026-08-29T14:31:01Z</time>
      </trkpt>
      <trkpt lat="47.49578" lon="-2.78832">
        <ele>8.8</ele>
        <time>2026-08-29T14:31:02Z</time>
      </trkpt>
      <trkpt lat="47.49582" lon="-2.7883">
        <ele>9</ele>
        <time>2026-08-29T14:31:03Z</time>
      </trkpt>
      <trkpt lat="47.49587" lon="-2.78829">
        <ele>9.1</ele>
        <time>2026-08-29T14:31:04Z</time>
      </trkpt>
      <trkpt lat="47.49591" lon="-2.78827">
        <ele>9.3</ele>
        <time>2026-08-29T14:31:05Z</time>
      </trkpt>
      <trkpt lat="47.49595" lon="-2.78826">
        <ele>9.4</ele>
        <time>2026-08-29T14:31:06Z</time>
      </trkpt>
      <trkpt lat="47.496" lon="-2.78824">
        <ele>9.6</ele>
        <time>2026-08-29T14:31:07Z</time>
      </trkpt>
      <trkpt lat="47.49604" lon="-2.78823">
        <ele>9.7</ele>
        <time>2026-08-29T14:31:08Z</time>
      </trkpt>
      <trkpt lat="47.49608" lon="-2.78821">
        <ele>9.9</ele>
        <time>2026-08-29T14:31:09Z</time>
      </trkpt>
      <trkpt lat="47.49612" lon="-2.7882">
        <ele>10</ele>
        <time>2026-08-29T14:31:10Z</time>
      </trkpt>
      <trkpt lat="47.49616" lon="-2.78819">
        <ele>10.1</ele>
        <time>2026-08-29T14:31:11Z</time>
      </trkpt>
      <trkpt lat="47.49621" lon="-2.78818">
        <ele>10.2</ele>
        <time>2026-08-29T14:31:12Z</time>
      </trkpt>
      <trkpt lat="47.49625" lon="-2.78816">
        <ele>10.2</ele>
        <time>2026-08-29T14:31:13Z</time>
      </trkpt>
      <trkpt lat="47.49629" lon="-2.78815">
        <ele>10.2</ele>
        <time>2026-08-29T14:31:14Z</time>
      </trkpt>
      <trkpt lat="47.49633" lon="-2.78814">
        <ele>10.2</ele>
        <time>2026-08-29T14:31:15Z</time>
      </trkpt>
      <trkpt lat="47.49637" lon="-2.78813">
        <ele>10.2</ele>
        <time>2026-08-29T14:31:16Z</time>
      </trkpt>
      <trkpt lat="47.49641" lon="-2.78812">
        <ele>10.3</ele>
        <time>2026-08-29T14:31:17Z</time>
      </trkpt>
      <trkpt lat="47.49645" lon="-2.7881">
        <ele>10.3</ele>
        <time>2026-08-29T14:31:18Z</time>
      </trkpt>
      <trkpt lat="47.49649" lon="-2.78807">
        <ele>10.4</ele>
        <time>2026-08-29T14:31:19Z</time>
      </trkpt>
      <trkpt lat="47.49652" lon="-2.78805">
        <ele>10.5</ele>
        <time>2026-08-29T14:31:20Z</time>
      </trkpt>
      <trkpt lat="47.49656" lon="-2.78801">
        <ele>10.5</ele>
        <time>2026-08-29T14:31:21Z</time>
      </trkpt>
      <trkpt lat="47.49659" lon="-2.78797">
        <ele>10.5</ele>
        <time>2026-08-29T14:31:22Z</time>
      </trkpt>
      <trkpt lat="47.49663" lon="-2.78793">
        <ele>10.5</ele>
        <time>2026-08-29T14:31:23Z</time>
      </trkpt>
      <trkpt lat="47.49666" lon="-2.78789">
        <ele>10.4</ele>
        <time>2026-08-29T14:31:24Z</time>
      </trkpt>
      <trkpt lat="47.49669" lon="-2.78784">
        <ele>10.3</ele>
        <time>2026-08-29T14:31:25Z</time>
      </trkpt>
      <trkpt lat="47.49671" lon="-2.78779">
        <ele>10.2</ele>
        <time>2026-08-29T14:31:26Z</time>
      </trkpt>
      <trkpt lat="47.49675" lon="-2.78774">
        <ele>10.3</ele>
        <time>2026-08-29T14:31:27Z</time>
      </trkpt>
      <trkpt lat="47.49678" lon="-2.78769">
        <ele>10.4</ele>
        <time>2026-08-29T14:31:28Z</time>
      </trkpt>
      <trkpt lat="47.49681" lon="-2.78764">
        <ele>10.5</ele>
        <time>2026-08-29T14:31:29Z</time>
      </trkpt>
      <trkpt lat="47.49684" lon="-2.7876">
        <ele>10.6</ele>
        <time>2026-08-29T14:31:30Z</time>
      </trkpt>
      <trkpt lat="47.49687" lon="-2.78755">
        <ele>10.7</ele>
        <time>2026-08-29T14:31:31Z</time>
      </trkpt>
      <trkpt lat="47.4969" lon="-2.7875">
        <ele>10.8</ele>
        <time>2026-08-29T14:31:32Z</time>
      </trkpt>
      <trkpt lat="47.49693" lon="-2.78746">
        <ele>10.9</ele>
        <time>2026-08-29T14:31:33Z</time>
      </trkpt>
      <trkpt lat="47.49696" lon="-2.78741">
        <ele>11</ele>
        <time>2026-08-29T14:31:34Z</time>
      </trkpt>
      <trkpt lat="47.49699" lon="-2.78737">
        <ele>11</ele>
        <time>2026-08-29T14:31:35Z</time>
      </trkpt>
      <trkpt lat="47.49702" lon="-2.78732">
        <ele>11</ele>
        <time>2026-08-29T14:31:36Z</time>
      </trkpt>
      <trkpt lat="47.49705" lon="-2.78728">
        <ele>11</ele>
        <time>2026-08-29T14:31:37Z</time>
      </trkpt>
      <trkpt lat="47.49708" lon="-2.78723">
        <ele>11</ele>
        <time>2026-08-29T14:31:38Z</time>
      </trkpt>
      <trkpt lat="47.49712" lon="-2.78719">
        <ele>11</ele>
        <time>2026-08-29T14:31:39Z</time>
      </trkpt>
      <trkpt lat="47.49715" lon="-2.78715">
        <ele>10.9</ele>
        <time>2026-08-29T14:31:40Z</time>
      </trkpt>
      <trkpt lat="47.49718" lon="-2.78711">
        <ele>10.9</ele>
        <time>2026-08-29T14:31:41Z</time>
      </trkpt>
      <trkpt lat="47.49721" lon="-2.78706">
        <ele>11</ele>
        <time>2026-08-29T14:31:42Z</time>
      </trkpt>
      <trkpt lat="47.49724" lon="-2.78702">
        <ele>11.1</ele>
        <time>2026-08-29T14:31:43Z</time>
      </trkpt>
      <trkpt lat="47.49728" lon="-2.78698">
        <ele>11.2</ele>
        <time>2026-08-29T14:31:44Z</time>
      </trkpt>
      <trkpt lat="47.49731" lon="-2.78694">
        <ele>11.3</ele>
        <time>2026-08-29T14:31:45Z</time>
      </trkpt>
      <trkpt lat="47.49734" lon="-2.78689">
        <ele>11.4</ele>
        <time>2026-08-29T14:31:46Z</time>
      </trkpt>
      <trkpt lat="47.49737" lon="-2.78685">
        <ele>11.5</ele>
        <time>2026-08-29T14:31:47Z</time>
      </trkpt>
      <trkpt lat="47.4974" lon="-2.7868">
        <ele>11.6</ele>
        <time>2026-08-29T14:31:48Z</time>
      </trkpt>
      <trkpt lat="47.49743" lon="-2.78674">
        <ele>11.7</ele>
        <time>2026-08-29T14:31:49Z</time>
      </trkpt>
      <trkpt lat="47.49746" lon="-2.78668">
        <ele>11.9</ele>
        <time>2026-08-29T14:31:50Z</time>
      </trkpt>
      <trkpt lat="47.49748" lon="-2.78662">
        <ele>11.9</ele>
        <time>2026-08-29T14:31:51Z</time>
      </trkpt>
      <trkpt lat="47.49749" lon="-2.78655">
        <ele>12</ele>
        <time>2026-08-29T14:31:52Z</time>
      </trkpt>
      <trkpt lat="47.49751" lon="-2.78649">
        <ele>12</ele>
        <time>2026-08-29T14:31:53Z</time>
      </trkpt>
      <trkpt lat="47.49753" lon="-2.78642">
        <ele>12.1</ele>
        <time>2026-08-29T14:31:54Z</time>
      </trkpt>
      <trkpt lat="47.49755" lon="-2.78636">
        <ele>12.2</ele>
        <time>2026-08-29T14:31:55Z</time>
      </trkpt>
      <trkpt lat="47.49756" lon="-2.78629">
        <ele>12.2</ele>
        <time>2026-08-29T14:31:56Z</time>
      </trkpt>
      <trkpt lat="47.49758" lon="-2.78623">
        <ele>12.3</ele>
        <time>2026-08-29T14:31:57Z</time>
      </trkpt>
      <trkpt lat="47.49759" lon="-2.78616">
        <ele>12.3</ele>
        <time>2026-08-29T14:31:58Z</time>
      </trkpt>
      <trkpt lat="47.49761" lon="-2.7861">
        <ele>12.4</ele>
        <time>2026-08-29T14:31:59Z</time>
      </trkpt>
      <trkpt lat="47.49763" lon="-2.78604">
        <ele>12.5</ele>
        <time>2026-08-29T14:32:00Z</time>
      </trkpt>
      <trkpt lat="47.49764" lon="-2.78597">
        <ele>12.5</ele>
        <time>2026-08-29T14:32:01Z</time>
      </trkpt>
      <trkpt lat="47.49766" lon="-2.78591">
        <ele>12.6</ele>
        <time>2026-08-29T14:32:02Z</time>
      </trkpt>
      <trkpt lat="47.49768" lon="-2.78585">
        <ele>12.6</ele>
        <time>2026-08-29T14:32:03Z</time>
      </trkpt>
      <trkpt lat="47.4977" lon="-2.78579">
        <ele>12.7</ele>
        <time>2026-08-29T14:32:04Z</time>
      </trkpt>
      <trkpt lat="47.49772" lon="-2.78573">
        <ele>12.7</ele>
        <time>2026-08-29T14:32:05Z</time>
      </trkpt>
      <trkpt lat="47.49773" lon="-2.78567">
        <ele>12.7</ele>
        <time>2026-08-29T14:32:06Z</time>
      </trkpt>
      <trkpt lat="47.49775" lon="-2.78561">
        <ele>12.8</ele>
        <time>2026-08-29T14:32:07Z</time>
      </trkpt>
      <trkpt lat="47.49776" lon="-2.78555">
        <ele>12.9</ele>
        <time>2026-08-29T14:32:08Z</time>
      </trkpt>
      <trkpt lat="47.49778" lon="-2.78548">
        <ele>13</ele>
        <time>2026-08-29T14:32:09Z</time>
      </trkpt>
      <trkpt lat="47.4978" lon="-2.78542">
        <ele>13.2</ele>
        <time>2026-08-29T14:32:10Z</time>
      </trkpt>
      <trkpt lat="47.49782" lon="-2.78536">
        <ele>13.3</ele>
        <time>2026-08-29T14:32:11Z</time>
      </trkpt>
      <trkpt lat="47.49784" lon="-2.7853">
        <ele>13.4</ele>
        <time>2026-08-29T14:32:12Z</time>
      </trkpt>
      <trkpt lat="47.49786" lon="-2.78524">
        <ele>13.6</ele>
        <time>2026-08-29T14:32:13Z</time>
      </trkpt>
      <trkpt lat="47.49788" lon="-2.78518">
        <ele>13.6</ele>
        <time>2026-08-29T14:32:14Z</time>
      </trkpt>
      <trkpt lat="47.4979" lon="-2.78512">
        <ele>13.6</ele>
        <time>2026-08-29T14:32:15Z</time>
      </trkpt>
      <trkpt lat="47.49793" lon="-2.78506">
        <ele>13.7</ele>
        <time>2026-08-29T14:32:16Z</time>
      </trkpt>
      <trkpt lat="47.49795" lon="-2.78501">
        <ele>13.6</ele>
        <time>2026-08-29T14:32:17Z</time>
      </trkpt>
      <trkpt lat="47.49797" lon="-2.78495">
        <ele>13.6</ele>
        <time>2026-08-29T14:32:18Z</time>
      </trkpt>
      <trkpt lat="47.498" lon="-2.78489">
        <ele>13.7</ele>
        <time>2026-08-29T14:32:19Z</time>
      </trkpt>
      <trkpt lat="47.49802" lon="-2.78483">
        <ele>13.8</ele>
        <time>2026-08-29T14:32:20Z</time>
      </trkpt>
      <trkpt lat="47.49805" lon="-2.78477">
        <ele>14</ele>
        <time>2026-08-29T14:32:21Z</time>
      </trkpt>
      <trkpt lat="47.49807" lon="-2.78472">
        <ele>14.1</ele>
        <time>2026-08-29T14:32:22Z</time>
      </trkpt>
      <trkpt lat="47.49809" lon="-2.78467">
        <ele>14.2</ele>
        <time>2026-08-29T14:32:23Z</time>
      </trkpt>
      <trkpt lat="47.49812" lon="-2.78461">
        <ele>14.5</ele>
        <time>2026-08-29T14:32:24Z</time>
      </trkpt>
      <trkpt lat="47.49814" lon="-2.78456">
        <ele>14.6</ele>
        <time>2026-08-29T14:32:25Z</time>
      </trkpt>
      <trkpt lat="47.49817" lon="-2.7845">
        <ele>14.8</ele>
        <time>2026-08-29T14:32:26Z</time>
      </trkpt>
      <trkpt lat="47.49819" lon="-2.78445">
        <ele>15</ele>
        <time>2026-08-29T14:32:27Z</time>
      </trkpt>
      <trkpt lat="47.49822" lon="-2.78441">
        <ele>15.1</ele>
        <time>2026-08-29T14:32:28Z</time>
      </trkpt>
      <trkpt lat="47.49824" lon="-2.78436">
        <ele>15</ele>
        <time>2026-08-29T14:32:29Z</time>
      </trkpt>
      <trkpt lat="47.49827" lon="-2.78432">
        <ele>15.1</ele>
        <time>2026-08-29T14:32:30Z</time>
      </trkpt>
      <trkpt lat="47.49829" lon="-2.78427">
        <ele>15.1</ele>
        <time>2026-08-29T14:32:31Z</time>
      </trkpt>
      <trkpt lat="47.49832" lon="-2.78423">
        <ele>15.1</ele>
        <time>2026-08-29T14:32:32Z</time>
      </trkpt>
      <trkpt lat="47.49835" lon="-2.78419">
        <ele>15.3</ele>
        <time>2026-08-29T14:32:33Z</time>
      </trkpt>
      <trkpt lat="47.49838" lon="-2.78415">
        <ele>15.5</ele>
        <time>2026-08-29T14:32:34Z</time>
      </trkpt>
      <trkpt lat="47.49841" lon="-2.78411">
        <ele>15.8</ele>
        <time>2026-08-29T14:32:35Z</time>
      </trkpt>
      <trkpt lat="47.49843" lon="-2.78407">
        <ele>15.9</ele>
        <time>2026-08-29T14:32:36Z</time>
      </trkpt>
      <trkpt lat="47.49846" lon="-2.78403">
        <ele>16.1</ele>
        <time>2026-08-29T14:32:37Z</time>
      </trkpt>
      <trkpt lat="47.49849" lon="-2.78399">
        <ele>16.3</ele>
        <time>2026-08-29T14:32:38Z</time>
      </trkpt>
      <trkpt lat="47.49852" lon="-2.78395">
        <ele>16.5</ele>
        <time>2026-08-29T14:32:39Z</time>
      </trkpt>
      <trkpt lat="47.49855" lon="-2.78391">
        <ele>16.6</ele>
        <time>2026-08-29T14:32:40Z</time>
      </trkpt>
      <trkpt lat="47.49858" lon="-2.78387">
        <ele>16.7</ele>
        <time>2026-08-29T14:32:41Z</time>
      </trkpt>
      <trkpt lat="47.49861" lon="-2.78383">
        <ele>16.8</ele>
        <time>2026-08-29T14:32:42Z</time>
      </trkpt>
      <trkpt lat="47.49863" lon="-2.78379">
        <ele>16.8</ele>
        <time>2026-08-29T14:32:43Z</time>
      </trkpt>
      <trkpt lat="47.49866" lon="-2.78374">
        <ele>16.8</ele>
        <time>2026-08-29T14:32:44Z</time>
      </trkpt>
      <trkpt lat="47.49869" lon="-2.7837">
        <ele>16.9</ele>
        <time>2026-08-29T14:32:45Z</time>
      </trkpt>
      <trkpt lat="47.49872" lon="-2.78367">
        <ele>17</ele>
        <time>2026-08-29T14:32:46Z</time>
      </trkpt>
      <trkpt lat="47.49875" lon="-2.78363">
        <ele>17.1</ele>
        <time>2026-08-29T14:32:47Z</time>
      </trkpt>
      <trkpt lat="47.49878" lon="-2.7836">
        <ele>17.2</ele>
        <time>2026-08-29T14:32:48Z</time>
      </trkpt>
      <trkpt lat="47.49881" lon="-2.78356">
        <ele>17.4</ele>
        <time>2026-08-29T14:32:49Z</time>
      </trkpt>
      <trkpt lat="47.49884" lon="-2.78352">
        <ele>17.6</ele>
        <time>2026-08-29T14:32:50Z</time>
      </trkpt>
      <trkpt lat="47.49887" lon="-2.78349">
        <ele>17.8</ele>
        <time>2026-08-29T14:32:51Z</time>
      </trkpt>
      <trkpt lat="47.4989" lon="-2.78345">
        <ele>18.1</ele>
        <time>2026-08-29T14:32:52Z</time>
      </trkpt>
      <trkpt lat="47.49893" lon="-2.78342">
        <ele>18.2</ele>
        <time>2026-08-29T14:32:53Z</time>
      </trkpt>
      <trkpt lat="47.49896" lon="-2.78338">
        <ele>18.3</ele>
        <time>2026-08-29T14:32:54Z</time>
      </trkpt>
      <trkpt lat="47.49899" lon="-2.78335">
        <ele>18.4</ele>
        <time>2026-08-29T14:32:55Z</time>
      </trkpt>
      <trkpt lat="47.49902" lon="-2.78333">
        <ele>18.5</ele>
        <time>2026-08-29T14:32:56Z</time>
      </trkpt>
      <trkpt lat="47.49905" lon="-2.7833">
        <ele>18.5</ele>
        <time>2026-08-29T14:32:57Z</time>
      </trkpt>
      <trkpt lat="47.49908" lon="-2.78327">
        <ele>18.6</ele>
        <time>2026-08-29T14:32:58Z</time>
      </trkpt>
      <trkpt lat="47.49911" lon="-2.78323">
        <ele>18.7</ele>
        <time>2026-08-29T14:32:59Z</time>
      </trkpt>
      <trkpt lat="47.49914" lon="-2.7832">
        <ele>18.9</ele>
        <time>2026-08-29T14:33:00Z</time>
      </trkpt>
      <trkpt lat="47.49916" lon="-2.78317">
        <ele>19</ele>
        <time>2026-08-29T14:33:01Z</time>
      </trkpt>
      <trkpt lat="47.49919" lon="-2.78315">
        <ele>19.2</ele>
        <time>2026-08-29T14:33:02Z</time>
      </trkpt>
      <trkpt lat="47.49922" lon="-2.78312">
        <ele>19.4</ele>
        <time>2026-08-29T14:33:03Z</time>
      </trkpt>
      <trkpt lat="47.49924" lon="-2.78309">
        <ele>19.5</ele>
        <time>2026-08-29T14:33:04Z</time>
      </trkpt>
      <trkpt lat="47.49927" lon="-2.78306">
        <ele>19.7</ele>
        <time>2026-08-29T14:33:05Z</time>
      </trkpt>
      <trkpt lat="47.49929" lon="-2.78303">
        <ele>19.8</ele>
        <time>2026-08-29T14:33:06Z</time>
      </trkpt>
      <trkpt lat="47.49932" lon="-2.783">
        <ele>20</ele>
        <time>2026-08-29T14:33:07Z</time>
      </trkpt>
      <trkpt lat="47.49934" lon="-2.78297">
        <ele>20.1</ele>
        <time>2026-08-29T14:33:08Z</time>
      </trkpt>
      <trkpt lat="47.49937" lon="-2.78294">
        <ele>20.2</ele>
        <time>2026-08-29T14:33:09Z</time>
      </trkpt>
      <trkpt lat="47.49939" lon="-2.78292">
        <ele>20.2</ele>
        <time>2026-08-29T14:33:10Z</time>
      </trkpt>
      <trkpt lat="47.49942" lon="-2.78289">
        <ele>20.3</ele>
        <time>2026-08-29T14:33:11Z</time>
      </trkpt>
      <trkpt lat="47.49944" lon="-2.78287">
        <ele>20.3</ele>
        <time>2026-08-29T14:33:12Z</time>
      </trkpt>
      <trkpt lat="47.49947" lon="-2.78285">
        <ele>20.5</ele>
        <time>2026-08-29T14:33:13Z</time>
      </trkpt>
      <trkpt lat="47.49949" lon="-2.78282">
        <ele>20.6</ele>
        <time>2026-08-29T14:33:14Z</time>
      </trkpt>
      <trkpt lat="47.49951" lon="-2.7828">
        <ele>20.8</ele>
        <time>2026-08-29T14:33:15Z</time>
      </trkpt>
      <trkpt lat="47.49954" lon="-2.78277">
        <ele>21</ele>
        <time>2026-08-29T14:33:16Z</time>
      </trkpt>
      <trkpt lat="47.49956" lon="-2.78274">
        <ele>21.1</ele>
        <time>2026-08-29T14:33:17Z</time>
      </trkpt>
      <trkpt lat="47.49958" lon="-2.78271">
        <ele>21.2</ele>
        <time>2026-08-29T14:33:18Z</time>
      </trkpt>
      <trkpt lat="47.4996" lon="-2.78269">
        <ele>21.3</ele>
        <time>2026-08-29T14:33:19Z</time>
      </trkpt>
      <trkpt lat="47.49963" lon="-2.78266">
        <ele>21.4</ele>
        <time>2026-08-29T14:33:20Z</time>
      </trkpt>
      <trkpt lat="47.49965" lon="-2.78264">
        <ele>21.5</ele>
        <time>2026-08-29T14:33:21Z</time>
      </trkpt>
      <trkpt lat="47.49967" lon="-2.78261">
        <ele>21.5</ele>
        <time>2026-08-29T14:33:22Z</time>
      </trkpt>
      <trkpt lat="47.49969" lon="-2.78258">
        <ele>21.4</ele>
        <time>2026-08-29T14:33:23Z</time>
      </trkpt>
      <trkpt lat="47.49971" lon="-2.78255">
        <ele>21.3</ele>
        <time>2026-08-29T14:33:24Z</time>
      </trkpt>
      <trkpt lat="47.49974" lon="-2.78253">
        <ele>21.3</ele>
        <time>2026-08-29T14:33:25Z</time>
      </trkpt>
      <trkpt lat="47.49976" lon="-2.7825">
        <ele>21.3</ele>
        <time>2026-08-29T14:33:26Z</time>
      </trkpt>
      <trkpt lat="47.49978" lon="-2.78248">
        <ele>21.4</ele>
        <time>2026-08-29T14:33:27Z</time>
      </trkpt>
      <trkpt lat="47.49981" lon="-2.78245">
        <ele>21.7</ele>
        <time>2026-08-29T14:33:28Z</time>
      </trkpt>
      <trkpt lat="47.49983" lon="-2.78242">
        <ele>21.9</ele>
        <time>2026-08-29T14:33:29Z</time>
      </trkpt>
      <trkpt lat="47.49985" lon="-2.78239">
        <ele>22.1</ele>
        <time>2026-08-29T14:33:30Z</time>
      </trkpt>
      <trkpt lat="47.49987" lon="-2.78237">
        <ele>22.3</ele>
        <time>2026-08-29T14:33:31Z</time>
      </trkpt>
      <trkpt lat="47.49989" lon="-2.78234">
        <ele>22.6</ele>
        <time>2026-08-29T14:33:32Z</time>
      </trkpt>
      <trkpt lat="47.49991" lon="-2.78231">
        <ele>22.8</ele>
        <time>2026-08-29T14:33:33Z</time>
      </trkpt>
      <trkpt lat="47.49994" lon="-2.78229">
        <ele>23.2</ele>
        <time>2026-08-29T14:33:34Z</time>
      </trkpt>
      <trkpt lat="47.49996" lon="-2.78226">
        <ele>23.5</ele>
        <time>2026-08-29T14:33:35Z</time>
      </trkpt>
      <trkpt lat="47.49998" lon="-2.78223">
        <ele>23.8</ele>
        <time>2026-08-29T14:33:36Z</time>
      </trkpt>
      <trkpt lat="47.49999" lon="-2.78221">
        <ele>23.9</ele>
        <time>2026-08-29T14:33:37Z</time>
      </trkpt>
      <trkpt lat="47.50002" lon="-2.78218">
        <ele>24.1</ele>
        <time>2026-08-29T14:33:38Z</time>
      </trkpt>
      <trkpt lat="47.50004" lon="-2.78215">
        <ele>24.3</ele>
        <time>2026-08-29T14:33:39Z</time>
      </trkpt>
      <trkpt lat="47.50006" lon="-2.78213">
        <ele>24.4</ele>
        <time>2026-08-29T14:33:40Z</time>
      </trkpt>
      <trkpt lat="47.50008" lon="-2.7821">
        <ele>24.6</ele>
        <time>2026-08-29T14:33:41Z</time>
      </trkpt>
      <trkpt lat="47.5001" lon="-2.78208">
        <ele>24.7</ele>
        <time>2026-08-29T14:33:42Z</time>
      </trkpt>
      <trkpt lat="47.50012" lon="-2.78206">
        <ele>24.9</ele>
        <time>2026-08-29T14:33:43Z</time>
      </trkpt>
      <trkpt lat="47.50014" lon="-2.78203">
        <ele>25</ele>
        <time>2026-08-29T14:33:44Z</time>
      </trkpt>
      <trkpt lat="47.50016" lon="-2.78201">
        <ele>25.2</ele>
        <time>2026-08-29T14:33:45Z</time>
      </trkpt>
      <trkpt lat="47.50018" lon="-2.78198">
        <ele>25.3</ele>
        <time>2026-08-29T14:33:46Z</time>
      </trkpt>
      <trkpt lat="47.5002" lon="-2.78196">
        <ele>25.4</ele>
        <time>2026-08-29T14:33:47Z</time>
      </trkpt>
      <trkpt lat="47.50022" lon="-2.78193">
        <ele>25.6</ele>
        <time>2026-08-29T14:33:48Z</time>
      </trkpt>
      <trkpt lat="47.50025" lon="-2.7819">
        <ele>25.8</ele>
        <time>2026-08-29T14:33:49Z</time>
      </trkpt>
      <trkpt lat="47.50027" lon="-2.78187">
        <ele>26</ele>
        <time>2026-08-29T14:33:50Z</time>
      </trkpt>
      <trkpt lat="47.5003" lon="-2.78185">
        <ele>26.1</ele>
        <time>2026-08-29T14:33:51Z</time>
      </trkpt>
      <trkpt lat="47.50032" lon="-2.78182">
        <ele>26.2</ele>
        <time>2026-08-29T14:33:52Z</time>
      </trkpt>
      <trkpt lat="47.50034" lon="-2.78179">
        <ele>26.2</ele>
        <time>2026-08-29T14:33:53Z</time>
      </trkpt>
      <trkpt lat="47.50036" lon="-2.78177">
        <ele>26.3</ele>
        <time>2026-08-29T14:33:54Z</time>
      </trkpt>
      <trkpt lat="47.50038" lon="-2.78174">
        <ele>26.4</ele>
        <time>2026-08-29T14:33:55Z</time>
      </trkpt>
      <trkpt lat="47.5004" lon="-2.78171">
        <ele>26.4</ele>
        <time>2026-08-29T14:33:56Z</time>
      </trkpt>
      <trkpt lat="47.50043" lon="-2.78169">
        <ele>26.5</ele>
        <time>2026-08-29T14:33:57Z</time>
      </trkpt>
      <trkpt lat="47.50045" lon="-2.78166">
        <ele>26.6</ele>
        <time>2026-08-29T14:33:58Z</time>
      </trkpt>
      <trkpt lat="47.50047" lon="-2.78163">
        <ele>26.7</ele>
        <time>2026-08-29T14:33:59Z</time>
      </trkpt>
      <trkpt lat="47.50049" lon="-2.7816">
        <ele>26.8</ele>
        <time>2026-08-29T14:34:00Z</time>
      </trkpt>
      <trkpt lat="47.50051" lon="-2.78156">
        <ele>26.8</ele>
        <time>2026-08-29T14:34:01Z</time>
      </trkpt>
      <trkpt lat="47.50053" lon="-2.78154">
        <ele>26.9</ele>
        <time>2026-08-29T14:34:02Z</time>
      </trkpt>
      <trkpt lat="47.50056" lon="-2.78151">
        <ele>27</ele>
        <time>2026-08-29T14:34:03Z</time>
      </trkpt>
      <trkpt lat="47.50058" lon="-2.78148">
        <ele>27.1</ele>
        <time>2026-08-29T14:34:04Z</time>
      </trkpt>
      <trkpt lat="47.5006" lon="-2.78145">
        <ele>27.1</ele>
        <time>2026-08-29T14:34:05Z</time>
      </trkpt>
      <trkpt lat="47.50062" lon="-2.78142">
        <ele>27.2</ele>
        <time>2026-08-29T14:34:06Z</time>
      </trkpt>
      <trkpt lat="47.50065" lon="-2.78139">
        <ele>27.3</ele>
        <time>2026-08-29T14:34:07Z</time>
      </trkpt>
      <trkpt lat="47.50067" lon="-2.78136">
        <ele>27.4</ele>
        <time>2026-08-29T14:34:08Z</time>
      </trkpt>
      <trkpt lat="47.5007" lon="-2.78133">
        <ele>27.4</ele>
        <time>2026-08-29T14:34:09Z</time>
      </trkpt>
      <trkpt lat="47.50072" lon="-2.7813">
        <ele>27.4</ele>
        <time>2026-08-29T14:34:10Z</time>
      </trkpt>
      <trkpt lat="47.50075" lon="-2.78126">
        <ele>27.4</ele>
        <time>2026-08-29T14:34:11Z</time>
      </trkpt>
      <trkpt lat="47.50078" lon="-2.78123">
        <ele>27.3</ele>
        <time>2026-08-29T14:34:12Z</time>
      </trkpt>
      <trkpt lat="47.50081" lon="-2.78119">
        <ele>27.3</ele>
        <time>2026-08-29T14:34:13Z</time>
      </trkpt>
      <trkpt lat="47.50084" lon="-2.78116">
        <ele>27.2</ele>
        <time>2026-08-29T14:34:14Z</time>
      </trkpt>
      <trkpt lat="47.50086" lon="-2.78113">
        <ele>27.2</ele>
        <time>2026-08-29T14:34:15Z</time>
      </trkpt>
      <trkpt lat="47.50089" lon="-2.78109">
        <ele>27.1</ele>
        <time>2026-08-29T14:34:16Z</time>
      </trkpt>
      <trkpt lat="47.50092" lon="-2.78105">
        <ele>27.2</ele>
        <time>2026-08-29T14:34:17Z</time>
      </trkpt>
      <trkpt lat="47.50095" lon="-2.78101">
        <ele>27.2</ele>
        <time>2026-08-29T14:34:18Z</time>
      </trkpt>
      <trkpt lat="47.50098" lon="-2.78096">
        <ele>27.3</ele>
        <time>2026-08-29T14:34:19Z</time>
      </trkpt>
      <trkpt lat="47.50101" lon="-2.78092">
        <ele>27.4</ele>
        <time>2026-08-29T14:34:20Z</time>
      </trkpt>
      <trkpt lat="47.50104" lon="-2.78088">
        <ele>27.5</ele>
        <time>2026-08-29T14:34:21Z</time>
      </trkpt>
      <trkpt lat="47.50107" lon="-2.78084">
        <ele>27.7</ele>
        <time>2026-08-29T14:34:22Z</time>
      </trkpt>
      <trkpt lat="47.50109" lon="-2.78081">
        <ele>27.8</ele>
        <time>2026-08-29T14:34:23Z</time>
      </trkpt>
      <trkpt lat="47.50112" lon="-2.78077">
        <ele>27.8</ele>
        <time>2026-08-29T14:34:24Z</time>
      </trkpt>
      <trkpt lat="47.50114" lon="-2.78073">
        <ele>27.7</ele>
        <time>2026-08-29T14:34:25Z</time>
      </trkpt>
      <trkpt lat="47.50116" lon="-2.78069">
        <ele>27.7</ele>
        <time>2026-08-29T14:34:26Z</time>
      </trkpt>
      <trkpt lat="47.50118" lon="-2.78064">
        <ele>27.6</ele>
        <time>2026-08-29T14:34:27Z</time>
      </trkpt>
      <trkpt lat="47.50119" lon="-2.7806">
        <ele>27.4</ele>
        <time>2026-08-29T14:34:28Z</time>
      </trkpt>
      <trkpt lat="47.50121" lon="-2.78055">
        <ele>27.3</ele>
        <time>2026-08-29T14:34:29Z</time>
      </trkpt>
      <trkpt lat="47.50123" lon="-2.7805">
        <ele>27.2</ele>
        <time>2026-08-29T14:34:30Z</time>
      </trkpt>
      <trkpt lat="47.50125" lon="-2.78045">
        <ele>27.1</ele>
        <time>2026-08-29T14:34:31Z</time>
      </trkpt>
      <trkpt lat="47.50127" lon="-2.7804">
        <ele>27.1</ele>
        <time>2026-08-29T14:34:32Z</time>
      </trkpt>
      <trkpt lat="47.50129" lon="-2.78035">
        <ele>27.1</ele>
        <time>2026-08-29T14:34:33Z</time>
      </trkpt>
      <trkpt lat="47.5013" lon="-2.78029">
        <ele>27.1</ele>
        <time>2026-08-29T14:34:34Z</time>
      </trkpt>
      <trkpt lat="47.50132" lon="-2.78024">
        <ele>27.3</ele>
        <time>2026-08-29T14:34:35Z</time>
      </trkpt>
      <trkpt lat="47.50134" lon="-2.78018">
        <ele>27.5</ele>
        <time>2026-08-29T14:34:36Z</time>
      </trkpt>
      <trkpt lat="47.50136" lon="-2.78013">
        <ele>27.7</ele>
        <time>2026-08-29T14:34:37Z</time>
      </trkpt>
      <trkpt lat="47.50137" lon="-2.78008">
        <ele>27.8</ele>
        <time>2026-08-29T14:34:38Z</time>
      </trkpt>
      <trkpt lat="47.50139" lon="-2.78002">
        <ele>28</ele>
        <time>2026-08-29T14:34:39Z</time>
      </trkpt>
      <trkpt lat="47.50141" lon="-2.77997">
        <ele>28.1</ele>
        <time>2026-08-29T14:34:40Z</time>
      </trkpt>
      <trkpt lat="47.50142" lon="-2.77992">
        <ele>28.1</ele>
        <time>2026-08-29T14:34:41Z</time>
      </trkpt>
      <trkpt lat="47.50144" lon="-2.77987">
        <ele>28.2</ele>
        <time>2026-08-29T14:34:42Z</time>
      </trkpt>
      <trkpt lat="47.50145" lon="-2.77982">
        <ele>28.2</ele>
        <time>2026-08-29T14:34:43Z</time>
      </trkpt>
      <trkpt lat="47.50147" lon="-2.77976">
        <ele>28.3</ele>
        <time>2026-08-29T14:34:44Z</time>
      </trkpt>
      <trkpt lat="47.50149" lon="-2.77971">
        <ele>28.4</ele>
        <time>2026-08-29T14:34:45Z</time>
      </trkpt>
      <trkpt lat="47.5015" lon="-2.77966">
        <ele>28.4</ele>
        <time>2026-08-29T14:34:46Z</time>
      </trkpt>
      <trkpt lat="47.50152" lon="-2.77961">
        <ele>28.5</ele>
        <time>2026-08-29T14:34:47Z</time>
      </trkpt>
      <trkpt lat="47.50153" lon="-2.77956">
        <ele>28.5</ele>
        <time>2026-08-29T14:34:48Z</time>
      </trkpt>
      <trkpt lat="47.50155" lon="-2.77951">
        <ele>28.6</ele>
        <time>2026-08-29T14:34:49Z</time>
      </trkpt>
      <trkpt lat="47.50156" lon="-2.77947">
        <ele>28.6</ele>
        <time>2026-08-29T14:34:50Z</time>
      </trkpt>
      <trkpt lat="47.50157" lon="-2.77942">
        <ele>28.7</ele>
        <time>2026-08-29T14:34:51Z</time>
      </trkpt>
      <trkpt lat="47.50159" lon="-2.77937">
        <ele>29</ele>
        <time>2026-08-29T14:34:52Z</time>
      </trkpt>
      <trkpt lat="47.5016" lon="-2.77933">
        <ele>29.2</ele>
        <time>2026-08-29T14:34:53Z</time>
      </trkpt>
      <trkpt lat="47.50162" lon="-2.77928">
        <ele>29.4</ele>
        <time>2026-08-29T14:34:54Z</time>
      </trkpt>
      <trkpt lat="47.50163" lon="-2.77923">
        <ele>29.6</ele>
        <time>2026-08-29T14:34:55Z</time>
      </trkpt>
      <trkpt lat="47.50164" lon="-2.77919">
        <ele>29.8</ele>
        <time>2026-08-29T14:34:56Z</time>
      </trkpt>
      <trkpt lat="47.50166" lon="-2.77914">
        <ele>30.1</ele>
        <time>2026-08-29T14:34:57Z</time>
      </trkpt>
      <trkpt lat="47.50167" lon="-2.77909">
        <ele>30.3</ele>
        <time>2026-08-29T14:34:58Z</time>
      </trkpt>
      <trkpt lat="47.50169" lon="-2.77904">
        <ele>30.5</ele>
        <time>2026-08-29T14:34:59Z</time>
      </trkpt>
      <trkpt lat="47.5017" lon="-2.77899">
        <ele>30.8</ele>
        <time>2026-08-29T14:35:00Z</time>
      </trkpt>
      <trkpt lat="47.50172" lon="-2.77895">
        <ele>31</ele>
        <time>2026-08-29T14:35:01Z</time>
      </trkpt>
      <trkpt lat="47.50173" lon="-2.7789">
        <ele>31.2</ele>
        <time>2026-08-29T14:35:02Z</time>
      </trkpt>
      <trkpt lat="47.50175" lon="-2.77885">
        <ele>31.3</ele>
        <time>2026-08-29T14:35:03Z</time>
      </trkpt>
      <trkpt lat="47.50176" lon="-2.7788">
        <ele>31.3</ele>
        <time>2026-08-29T14:35:04Z</time>
      </trkpt>
      <trkpt lat="47.50177" lon="-2.77875">
        <ele>31.4</ele>
        <time>2026-08-29T14:35:05Z</time>
      </trkpt>
      <trkpt lat="47.50178" lon="-2.7787">
        <ele>31.4</ele>
        <time>2026-08-29T14:35:06Z</time>
      </trkpt>
      <trkpt lat="47.50179" lon="-2.77865">
        <ele>31.4</ele>
        <time>2026-08-29T14:35:07Z</time>
      </trkpt>
      <trkpt lat="47.5018" lon="-2.77859">
        <ele>31.5</ele>
        <time>2026-08-29T14:35:08Z</time>
      </trkpt>
      <trkpt lat="47.50181" lon="-2.77854">
        <ele>31.5</ele>
        <time>2026-08-29T14:35:09Z</time>
      </trkpt>
      <trkpt lat="47.50181" lon="-2.77848">
        <ele>31.5</ele>
        <time>2026-08-29T14:35:10Z</time>
      </trkpt>
      <trkpt lat="47.50182" lon="-2.77842">
        <ele>31.6</ele>
        <time>2026-08-29T14:35:11Z</time>
      </trkpt>
      <trkpt lat="47.50182" lon="-2.77836">
        <ele>31.6</ele>
        <time>2026-08-29T14:35:12Z</time>
      </trkpt>
      <trkpt lat="47.50182" lon="-2.7783">
        <ele>31.6</ele>
        <time>2026-08-29T14:35:13Z</time>
      </trkpt>
      <trkpt lat="47.50183" lon="-2.77824">
        <ele>31.7</ele>
        <time>2026-08-29T14:35:14Z</time>
      </trkpt>
      <trkpt lat="47.50183" lon="-2.77818">
        <ele>31.8</ele>
        <time>2026-08-29T14:35:15Z</time>
      </trkpt>
      <trkpt lat="47.50183" lon="-2.77813">
        <ele>31.9</ele>
        <time>2026-08-29T14:35:16Z</time>
      </trkpt>
      <trkpt lat="47.50183" lon="-2.77807">
        <ele>32</ele>
        <time>2026-08-29T14:35:17Z</time>
      </trkpt>
      <trkpt lat="47.50183" lon="-2.77801">
        <ele>32</ele>
        <time>2026-08-29T14:35:18Z</time>
      </trkpt>
      <trkpt lat="47.50182" lon="-2.77794">
        <ele>32</ele>
        <time>2026-08-29T14:35:19Z</time>
      </trkpt>
      <trkpt lat="47.50182" lon="-2.77788">
        <ele>32</ele>
        <time>2026-08-29T14:35:20Z</time>
      </trkpt>
      <trkpt lat="47.50181" lon="-2.77781">
        <ele>32</ele>
        <time>2026-08-29T14:35:21Z</time>
      </trkpt>
      <trkpt lat="47.50181" lon="-2.77774">
        <ele>31.9</ele>
        <time>2026-08-29T14:35:22Z</time>
      </trkpt>
      <trkpt lat="47.5018" lon="-2.77767">
        <ele>31.6</ele>
        <time>2026-08-29T14:35:23Z</time>
      </trkpt>
      <trkpt lat="47.5018" lon="-2.7776">
        <ele>31.4</ele>
        <time>2026-08-29T14:35:24Z</time>
      </trkpt>
      <trkpt lat="47.50179" lon="-2.77752">
        <ele>31.1</ele>
        <time>2026-08-29T14:35:25Z</time>
      </trkpt>
      <trkpt lat="47.50178" lon="-2.77745">
        <ele>31</ele>
        <time>2026-08-29T14:35:26Z</time>
      </trkpt>
      <trkpt lat="47.50177" lon="-2.77737">
        <ele>31</ele>
        <time>2026-08-29T14:35:27Z</time>
      </trkpt>
      <trkpt lat="47.50175" lon="-2.77729">
        <ele>31</ele>
        <time>2026-08-29T14:35:28Z</time>
      </trkpt>
      <trkpt lat="47.50174" lon="-2.7772">
        <ele>30.9</ele>
        <time>2026-08-29T14:35:29Z</time>
      </trkpt>
      <trkpt lat="47.50173" lon="-2.77711">
        <ele>30.6</ele>
        <time>2026-08-29T14:35:30Z</time>
      </trkpt>
      <trkpt lat="47.50172" lon="-2.77702">
        <ele>30.3</ele>
        <time>2026-08-29T14:35:31Z</time>
      </trkpt>
      <trkpt lat="47.50171" lon="-2.77693">
        <ele>30</ele>
        <time>2026-08-29T14:35:32Z</time>
      </trkpt>
      <trkpt lat="47.5017" lon="-2.77683">
        <ele>29.6</ele>
        <time>2026-08-29T14:35:33Z</time>
      </trkpt>
      <trkpt lat="47.50168" lon="-2.77673">
        <ele>29.3</ele>
        <time>2026-08-29T14:35:34Z</time>
      </trkpt>
      <trkpt lat="47.50166" lon="-2.77662">
        <ele>28.9</ele>
        <time>2026-08-29T14:35:35Z</time>
      </trkpt>
      <trkpt lat="47.50165" lon="-2.7765">
        <ele>28.5</ele>
        <time>2026-08-29T14:35:36Z</time>
      </trkpt>
      <trkpt lat="47.50163" lon="-2.77638">
        <ele>28.1</ele>
        <time>2026-08-29T14:35:37Z</time>
      </trkpt>
      <trkpt lat="47.50162" lon="-2.77626">
        <ele>27.3</ele>
        <time>2026-08-29T14:35:38Z</time>
      </trkpt>
      <trkpt lat="47.50161" lon="-2.77613">
        <ele>26.5</ele>
        <time>2026-08-29T14:35:39Z</time>
      </trkpt>
      <trkpt lat="47.5016" lon="-2.77599">
        <ele>25.9</ele>
        <time>2026-08-29T14:35:40Z</time>
      </trkpt>
      <trkpt lat="47.5016" lon="-2.77584">
        <ele>25.3</ele>
        <time>2026-08-29T14:35:41Z</time>
      </trkpt>
      <trkpt lat="47.50161" lon="-2.7757">
        <ele>23.9</ele>
        <time>2026-08-29T14:35:42Z</time>
      </trkpt>
      <trkpt lat="47.50163" lon="-2.77554">
        <ele>22.2</ele>
        <time>2026-08-29T14:35:43Z</time>
      </trkpt>
      <trkpt lat="47.50166" lon="-2.77539">
        <ele>21.5</ele>
        <time>2026-08-29T14:35:44Z</time>
      </trkpt>
      <trkpt lat="47.50169" lon="-2.77523">
        <ele>20.8</ele>
        <time>2026-08-29T14:35:45Z</time>
      </trkpt>
      <trkpt lat="47.50173" lon="-2.77507">
        <ele>20.1</ele>
        <time>2026-08-29T14:35:46Z</time>
      </trkpt>
      <trkpt lat="47.50177" lon="-2.77492">
        <ele>19.4</ele>
        <time>2026-08-29T14:35:47Z</time>
      </trkpt>
      <trkpt lat="47.50181" lon="-2.77477">
        <ele>19.1</ele>
        <time>2026-08-29T14:35:48Z</time>
      </trkpt>
      <trkpt lat="47.50185" lon="-2.77464">
        <ele>18.5</ele>
        <time>2026-08-29T14:35:49Z</time>
      </trkpt>
      <trkpt lat="47.50188" lon="-2.77451">
        <ele>17.6</ele>
        <time>2026-08-29T14:35:50Z</time>
      </trkpt>
      <trkpt lat="47.5019" lon="-2.7744">
        <ele>17</ele>
        <time>2026-08-29T14:35:51Z</time>
      </trkpt>
      <trkpt lat="47.5019" lon="-2.77429">
        <ele>16.7</ele>
        <time>2026-08-29T14:35:52Z</time>
      </trkpt>
      <trkpt lat="47.50189" lon="-2.77419">
        <ele>16.5</ele>
        <time>2026-08-29T14:35:53Z</time>
      </trkpt>
      <trkpt lat="47.50185" lon="-2.77409">
        <ele>16.3</ele>
        <time>2026-08-29T14:35:54Z</time>
      </trkpt>
      <trkpt lat="47.5018" lon="-2.77402">
        <ele>16.2</ele>
        <time>2026-08-29T14:35:55Z</time>
      </trkpt>
      <trkpt lat="47.50175" lon="-2.77395">
        <ele>16.1</ele>
        <time>2026-08-29T14:35:56Z</time>
      </trkpt>
      <trkpt lat="47.5017" lon="-2.77388">
        <ele>15.8</ele>
        <time>2026-08-29T14:35:57Z</time>
      </trkpt>
      <trkpt lat="47.50165" lon="-2.77381">
        <ele>15.8</ele>
        <time>2026-08-29T14:35:58Z</time>
      </trkpt>
      <trkpt lat="47.50161" lon="-2.77374">
        <ele>15.8</ele>
        <time>2026-08-29T14:35:59Z</time>
      </trkpt>
      <trkpt lat="47.50156" lon="-2.77367">
        <ele>15.7</ele>
        <time>2026-08-29T14:36:00Z</time>
      </trkpt>
      <trkpt lat="47.50151" lon="-2.77361">
        <ele>15.6</ele>
        <time>2026-08-29T14:36:01Z</time>
      </trkpt>
      <trkpt lat="47.50146" lon="-2.77354">
        <ele>15.6</ele>
        <time>2026-08-29T14:36:02Z</time>
      </trkpt>
      <trkpt lat="47.50142" lon="-2.77348">
        <ele>15.5</ele>
        <time>2026-08-29T14:36:03Z</time>
      </trkpt>
      <trkpt lat="47.50137" lon="-2.77342">
        <ele>15.4</ele>
        <time>2026-08-29T14:36:04Z</time>
      </trkpt>
      <trkpt lat="47.50131" lon="-2.77337">
        <ele>15.4</ele>
        <time>2026-08-29T14:36:05Z</time>
      </trkpt>
      <trkpt lat="47.50126" lon="-2.77332">
        <ele>15.4</ele>
        <time>2026-08-29T14:36:06Z</time>
      </trkpt>
      <trkpt lat="47.50121" lon="-2.77326">
        <ele>15.2</ele>
        <time>2026-08-29T14:36:07Z</time>
      </trkpt>
      <trkpt lat="47.50115" lon="-2.77322">
        <ele>15.1</ele>
        <time>2026-08-29T14:36:08Z</time>
      </trkpt>
      <trkpt lat="47.50109" lon="-2.77319">
        <ele>15</ele>
        <time>2026-08-29T14:36:09Z</time>
      </trkpt>
      <trkpt lat="47.50104" lon="-2.77316">
        <ele>15</ele>
        <time>2026-08-29T14:36:10Z</time>
      </trkpt>
      <trkpt lat="47.50098" lon="-2.77314">
        <ele>15.1</ele>
        <time>2026-08-29T14:36:11Z</time>
      </trkpt>
      <trkpt lat="47.50093" lon="-2.77313">
        <ele>15.2</ele>
        <time>2026-08-29T14:36:12Z</time>
      </trkpt>
      <trkpt lat="47.50088" lon="-2.77313">
        <ele>15.4</ele>
        <time>2026-08-29T14:36:13Z</time>
      </trkpt>
      <trkpt lat="47.50083" lon="-2.77313">
        <ele>15.5</ele>
        <time>2026-08-29T14:36:14Z</time>
      </trkpt>
      <trkpt lat="47.50078" lon="-2.77313">
        <ele>15.5</ele>
        <time>2026-08-29T14:36:15Z</time>
      </trkpt>
      <trkpt lat="47.50074" lon="-2.77314">
        <ele>15.6</ele>
        <time>2026-08-29T14:36:16Z</time>
      </trkpt>
      <trkpt lat="47.5007" lon="-2.77315">
        <ele>15.7</ele>
        <time>2026-08-29T14:36:17Z</time>
      </trkpt>
      <trkpt lat="47.50067" lon="-2.77316">
        <ele>15.8</ele>
        <time>2026-08-29T14:36:18Z</time>
      </trkpt>
      <trkpt lat="47.50063" lon="-2.77317">
        <ele>15.8</ele>
        <time>2026-08-29T14:36:19Z</time>
      </trkpt>
      <trkpt lat="47.5006" lon="-2.77318">
        <ele>15.9</ele>
        <time>2026-08-29T14:36:20Z</time>
      </trkpt>
      <trkpt lat="47.50057" lon="-2.77319">
        <ele>16</ele>
        <time>2026-08-29T14:36:21Z</time>
      </trkpt>
      <trkpt lat="47.50054" lon="-2.77321">
        <ele>16.2</ele>
        <time>2026-08-29T14:36:22Z</time>
      </trkpt>
      <trkpt lat="47.5005" lon="-2.77322">
        <ele>16.6</ele>
        <time>2026-08-29T14:36:23Z</time>
      </trkpt>
      <trkpt lat="47.50047" lon="-2.77323">
        <ele>16.9</ele>
        <time>2026-08-29T14:36:24Z</time>
      </trkpt>
      <trkpt lat="47.50044" lon="-2.77325">
        <ele>17.2</ele>
        <time>2026-08-29T14:36:25Z</time>
      </trkpt>
      <trkpt lat="47.50041" lon="-2.77326">
        <ele>17.5</ele>
        <time>2026-08-29T14:36:26Z</time>
      </trkpt>
      <trkpt lat="47.50038" lon="-2.77327">
        <ele>17.8</ele>
        <time>2026-08-29T14:36:27Z</time>
      </trkpt>
      <trkpt lat="47.50034" lon="-2.77328">
        <ele>18.2</ele>
        <time>2026-08-29T14:36:28Z</time>
      </trkpt>
      <trkpt lat="47.50031" lon="-2.77329">
        <ele>18.5</ele>
        <time>2026-08-29T14:36:29Z</time>
      </trkpt>
      <trkpt lat="47.50028" lon="-2.7733">
        <ele>18.7</ele>
        <time>2026-08-29T14:36:30Z</time>
      </trkpt>
      <trkpt lat="47.50026" lon="-2.77331">
        <ele>19</ele>
        <time>2026-08-29T14:36:31Z</time>
      </trkpt>
      <trkpt lat="47.50023" lon="-2.77331">
        <ele>19.2</ele>
        <time>2026-08-29T14:36:32Z</time>
      </trkpt>
      <trkpt lat="47.5002" lon="-2.77332">
        <ele>19.5</ele>
        <time>2026-08-29T14:36:33Z</time>
      </trkpt>
      <trkpt lat="47.50017" lon="-2.77333">
        <ele>19.8</ele>
        <time>2026-08-29T14:36:34Z</time>
      </trkpt>
      <trkpt lat="47.50015" lon="-2.77334">
        <ele>20</ele>
        <time>2026-08-29T14:36:35Z</time>
      </trkpt>
      <trkpt lat="47.50012" lon="-2.77334">
        <ele>20.2</ele>
        <time>2026-08-29T14:36:36Z</time>
      </trkpt>
      <trkpt lat="47.5001" lon="-2.77334">
        <ele>20.3</ele>
        <time>2026-08-29T14:36:37Z</time>
      </trkpt>
      <trkpt lat="47.50007" lon="-2.77335">
        <ele>20.6</ele>
        <time>2026-08-29T14:36:38Z</time>
      </trkpt>
      <trkpt lat="47.50005" lon="-2.77335">
        <ele>20.8</ele>
        <time>2026-08-29T14:36:39Z</time>
      </trkpt>
      <trkpt lat="47.50002" lon="-2.77336">
        <ele>21</ele>
        <time>2026-08-29T14:36:40Z</time>
      </trkpt>
      <trkpt lat="47.5" lon="-2.77336">
        <ele>21.2</ele>
        <time>2026-08-29T14:36:41Z</time>
      </trkpt>
      <trkpt lat="47.49997" lon="-2.77337">
        <ele>21.4</ele>
        <time>2026-08-29T14:36:42Z</time>
      </trkpt>
      <trkpt lat="47.49995" lon="-2.77337">
        <ele>21.4</ele>
        <time>2026-08-29T14:36:43Z</time>
      </trkpt>
      <trkpt lat="47.49992" lon="-2.77338">
        <ele>21.6</ele>
        <time>2026-08-29T14:36:44Z</time>
      </trkpt>
      <trkpt lat="47.4999" lon="-2.77338">
        <ele>21.7</ele>
        <time>2026-08-29T14:36:45Z</time>
      </trkpt>
      <trkpt lat="47.49987" lon="-2.77339">
        <ele>21.9</ele>
        <time>2026-08-29T14:36:46Z</time>
      </trkpt>
      <trkpt lat="47.49985" lon="-2.7734">
        <ele>22</ele>
        <time>2026-08-29T14:36:47Z</time>
      </trkpt>
      <trkpt lat="47.49982" lon="-2.77341">
        <ele>22.2</ele>
        <time>2026-08-29T14:36:48Z</time>
      </trkpt>
      <trkpt lat="47.4998" lon="-2.77342">
        <ele>22.3</ele>
        <time>2026-08-29T14:36:49Z</time>
      </trkpt>
      <trkpt lat="47.49978" lon="-2.77343">
        <ele>22.5</ele>
        <time>2026-08-29T14:36:50Z</time>
      </trkpt>
      <trkpt lat="47.49975" lon="-2.77344">
        <ele>22.7</ele>
        <time>2026-08-29T14:36:51Z</time>
      </trkpt>
      <trkpt lat="47.49973" lon="-2.77346">
        <ele>22.9</ele>
        <time>2026-08-29T14:36:52Z</time>
      </trkpt>
      <trkpt lat="47.4997" lon="-2.77347">
        <ele>23</ele>
        <time>2026-08-29T14:36:53Z</time>
      </trkpt>
      <trkpt lat="47.49968" lon="-2.77348">
        <ele>23.1</ele>
        <time>2026-08-29T14:36:54Z</time>
      </trkpt>
      <trkpt lat="47.49965" lon="-2.77349">
        <ele>23.1</ele>
        <time>2026-08-29T14:36:55Z</time>
      </trkpt>
      <trkpt lat="47.49963" lon="-2.7735">
        <ele>23.2</ele>
        <time>2026-08-29T14:36:56Z</time>
      </trkpt>
      <trkpt lat="47.49961" lon="-2.77351">
        <ele>23.3</ele>
        <time>2026-08-29T14:36:57Z</time>
      </trkpt>
      <trkpt lat="47.49958" lon="-2.77352">
        <ele>23.3</ele>
        <time>2026-08-29T14:36:58Z</time>
      </trkpt>
      <trkpt lat="47.49956" lon="-2.77353">
        <ele>23.4</ele>
        <time>2026-08-29T14:36:59Z</time>
      </trkpt>
      <trkpt lat="47.49953" lon="-2.77354">
        <ele>23.5</ele>
        <time>2026-08-29T14:37:00Z</time>
      </trkpt>
      <trkpt lat="47.4995" lon="-2.77355">
        <ele>23.6</ele>
        <time>2026-08-29T14:37:01Z</time>
      </trkpt>
      <trkpt lat="47.49948" lon="-2.77356">
        <ele>23.6</ele>
        <time>2026-08-29T14:37:02Z</time>
      </trkpt>
      <trkpt lat="47.49945" lon="-2.77357">
        <ele>23.7</ele>
        <time>2026-08-29T14:37:03Z</time>
      </trkpt>
      <trkpt lat="47.49943" lon="-2.77358">
        <ele>23.7</ele>
        <time>2026-08-29T14:37:04Z</time>
      </trkpt>
      <trkpt lat="47.49941" lon="-2.77359">
        <ele>23.7</ele>
        <time>2026-08-29T14:37:05Z</time>
      </trkpt>
      <trkpt lat="47.49938" lon="-2.77361">
        <ele>23.8</ele>
        <time>2026-08-29T14:37:06Z</time>
      </trkpt>
      <trkpt lat="47.49936" lon="-2.77362">
        <ele>23.7</ele>
        <time>2026-08-29T14:37:07Z</time>
      </trkpt>
      <trkpt lat="47.49933" lon="-2.77363">
        <ele>23.6</ele>
        <time>2026-08-29T14:37:08Z</time>
      </trkpt>
      <trkpt lat="47.49931" lon="-2.77364">
        <ele>23.6</ele>
        <time>2026-08-29T14:37:09Z</time>
      </trkpt>
      <trkpt lat="47.49928" lon="-2.77364">
        <ele>23.5</ele>
        <time>2026-08-29T14:37:10Z</time>
      </trkpt>
      <trkpt lat="47.49925" lon="-2.77365">
        <ele>23.4</ele>
        <time>2026-08-29T14:37:11Z</time>
      </trkpt>
      <trkpt lat="47.49922" lon="-2.77367">
        <ele>23.4</ele>
        <time>2026-08-29T14:37:12Z</time>
      </trkpt>
      <trkpt lat="47.49919" lon="-2.77368">
        <ele>23.3</ele>
        <time>2026-08-29T14:37:13Z</time>
      </trkpt>
      <trkpt lat="47.49916" lon="-2.77369">
        <ele>23.2</ele>
        <time>2026-08-29T14:37:14Z</time>
      </trkpt>
      <trkpt lat="47.49912" lon="-2.77371">
        <ele>23</ele>
        <time>2026-08-29T14:37:15Z</time>
      </trkpt>
      <trkpt lat="47.49909" lon="-2.77372">
        <ele>22.8</ele>
        <time>2026-08-29T14:37:16Z</time>
      </trkpt>
      <trkpt lat="47.49905" lon="-2.77373">
        <ele>22.6</ele>
        <time>2026-08-29T14:37:17Z</time>
      </trkpt>
      <trkpt lat="47.49901" lon="-2.77374">
        <ele>22.3</ele>
        <time>2026-08-29T14:37:18Z</time>
      </trkpt>
      <trkpt lat="47.49896" lon="-2.77375">
        <ele>22</ele>
        <time>2026-08-29T14:37:19Z</time>
      </trkpt>
      <trkpt lat="47.49891" lon="-2.77376">
        <ele>21.7</ele>
        <time>2026-08-29T14:37:20Z</time>
      </trkpt>
      <trkpt lat="47.49885" lon="-2.77377">
        <ele>21.1</ele>
        <time>2026-08-29T14:37:21Z</time>
      </trkpt>
      <trkpt lat="47.49879" lon="-2.77377">
        <ele>20.4</ele>
        <time>2026-08-29T14:37:22Z</time>
      </trkpt>
      <trkpt lat="47.49872" lon="-2.77375">
        <ele>19.4</ele>
        <time>2026-08-29T14:37:23Z</time>
      </trkpt>
      <trkpt lat="47.49864" lon="-2.77374">
        <ele>18.3</ele>
        <time>2026-08-29T14:37:24Z</time>
      </trkpt>
      <trkpt lat="47.49855" lon="-2.77372">
        <ele>17.3</ele>
        <time>2026-08-29T14:37:25Z</time>
      </trkpt>
      <trkpt lat="47.49846" lon="-2.7737">
        <ele>16.6</ele>
        <time>2026-08-29T14:37:26Z</time>
      </trkpt>
      <trkpt lat="47.49837" lon="-2.77368">
        <ele>15.8</ele>
        <time>2026-08-29T14:37:27Z</time>
      </trkpt>
      <trkpt lat="47.49828" lon="-2.77368">
        <ele>15.1</ele>
        <time>2026-08-29T14:37:28Z</time>
      </trkpt>
      <trkpt lat="47.49819" lon="-2.77368">
        <ele>14.5</ele>
        <time>2026-08-29T14:37:29Z</time>
      </trkpt>
      <trkpt lat="47.49811" lon="-2.7737">
        <ele>14</ele>
        <time>2026-08-29T14:37:30Z</time>
      </trkpt>
      <trkpt lat="47.49804" lon="-2.77373">
        <ele>13.7</ele>
        <time>2026-08-29T14:37:31Z</time>
      </trkpt>
      <trkpt lat="47.49798" lon="-2.77376">
        <ele>13.4</ele>
        <time>2026-08-29T14:37:32Z</time>
      </trkpt>
      <trkpt lat="47.49793" lon="-2.77378">
        <ele>13</ele>
        <time>2026-08-29T14:37:33Z</time>
      </trkpt>
      <trkpt lat="47.49788" lon="-2.7738">
        <ele>12.7</ele>
        <time>2026-08-29T14:37:34Z</time>
      </trkpt>
      <trkpt lat="47.49783" lon="-2.7738">
        <ele>12.2</ele>
        <time>2026-08-29T14:37:35Z</time>
      </trkpt>
      <trkpt lat="47.49779" lon="-2.77378">
        <ele>11.7</ele>
        <time>2026-08-29T14:37:36Z</time>
      </trkpt>
      <trkpt lat="47.49776" lon="-2.77375">
        <ele>11.3</ele>
        <time>2026-08-29T14:37:37Z</time>
      </trkpt>
      <trkpt lat="47.49774" lon="-2.7737">
        <ele>11</ele>
        <time>2026-08-29T14:37:38Z</time>
      </trkpt>
      <trkpt lat="47.49772" lon="-2.77363">
        <ele>10.6</ele>
        <time>2026-08-29T14:37:39Z</time>
      </trkpt>
      <trkpt lat="47.49772" lon="-2.77356">
        <ele>10.4</ele>
        <time>2026-08-29T14:37:40Z</time>
      </trkpt>
      <trkpt lat="47.49772" lon="-2.77348">
        <ele>10.1</ele>
        <time>2026-08-29T14:37:41Z</time>
      </trkpt>
      <trkpt lat="47.49772" lon="-2.7734">
        <ele>9.8</ele>
        <time>2026-08-29T14:37:42Z</time>
      </trkpt>
      <trkpt lat="47.49771" lon="-2.77331">
        <ele>9.4</ele>
        <time>2026-08-29T14:37:43Z</time>
      </trkpt>
      <trkpt lat="47.4977" lon="-2.77323">
        <ele>8.8</ele>
        <time>2026-08-29T14:37:44Z</time>
      </trkpt>
      <trkpt lat="47.49769" lon="-2.77314">
        <ele>8.2</ele>
        <time>2026-08-29T14:37:45Z</time>
      </trkpt>
      <trkpt lat="47.49768" lon="-2.77304">
        <ele>7.6</ele>
        <time>2026-08-29T14:37:46Z</time>
      </trkpt>
      <trkpt lat="47.49767" lon="-2.77294">
        <ele>7.2</ele>
        <time>2026-08-29T14:37:47Z</time>
      </trkpt>
      <trkpt lat="47.49767" lon="-2.77285">
        <ele>6.9</ele>
        <time>2026-08-29T14:37:48Z</time>
      </trkpt>
      <trkpt lat="47.49768" lon="-2.77277">
        <ele>6.6</ele>
        <time>2026-08-29T14:37:49Z</time>
      </trkpt>
      <trkpt lat="47.49769" lon="-2.7727">
        <ele>6.5</ele>
        <time>2026-08-29T14:37:50Z</time>
      </trkpt>
      <trkpt lat="47.4977" lon="-2.77264">
        <ele>6.4</ele>
        <time>2026-08-29T14:37:51Z</time>
      </trkpt>
      <trkpt lat="47.49771" lon="-2.77258">
        <ele>6.2</ele>
        <time>2026-08-29T14:37:52Z</time>
      </trkpt>
      <trkpt lat="47.49771" lon="-2.77252">
        <ele>6.1</ele>
        <time>2026-08-29T14:37:53Z</time>
      </trkpt>
      <trkpt lat="47.4977" lon="-2.77245">
        <ele>5.9</ele>
        <time>2026-08-29T14:37:54Z</time>
      </trkpt>
      <trkpt lat="47.49769" lon="-2.77239">
        <ele>5.9</ele>
        <time>2026-08-29T14:37:55Z</time>
      </trkpt>
      <trkpt lat="47.49767" lon="-2.77233">
        <ele>5.8</ele>
        <time>2026-08-29T14:37:56Z</time>
      </trkpt>
      <trkpt lat="47.49766" lon="-2.77228">
        <ele>5.7</ele>
        <time>2026-08-29T14:37:57Z</time>
      </trkpt>
      <trkpt lat="47.49765" lon="-2.77222">
        <ele>5.5</ele>
        <time>2026-08-29T14:37:58Z</time>
      </trkpt>
      <trkpt lat="47.49763" lon="-2.77217">
        <ele>5.5</ele>
        <time>2026-08-29T14:37:59Z</time>
      </trkpt>
      <trkpt lat="47.49763" lon="-2.77213">
        <ele>5.5</ele>
        <time>2026-08-29T14:38:00Z</time>
      </trkpt>
      <trkpt lat="47.49762" lon="-2.77209">
        <ele>5.4</ele>
        <time>2026-08-29T14:38:01Z</time>
      </trkpt>
      <trkpt lat="47.49762" lon="-2.77206">
        <ele>5.4</ele>
        <time>2026-08-29T14:38:02Z</time>
      </trkpt>
      <trkpt lat="47.49762" lon="-2.77202">
        <ele>5.4</ele>
        <time>2026-08-29T14:38:03Z</time>
      </trkpt>
      <trkpt lat="47.49761" lon="-2.77198">
        <ele>5.4</ele>
        <time>2026-08-29T14:38:04Z</time>
      </trkpt>
      <trkpt lat="47.49761" lon="-2.77192">
        <ele>5.4</ele>
        <time>2026-08-29T14:38:05Z</time>
      </trkpt>
      <trkpt lat="47.49762" lon="-2.77187">
        <ele>5.3</ele>
        <time>2026-08-29T14:38:06Z</time>
      </trkpt>
      <trkpt lat="47.49762" lon="-2.77181">
        <ele>5.2</ele>
        <time>2026-08-29T14:38:07Z</time>
      </trkpt>
      <trkpt lat="47.49762" lon="-2.77175">
        <ele>5.1</ele>
        <time>2026-08-29T14:38:08Z</time>
      </trkpt>
      <trkpt lat="47.49762" lon="-2.77168">
        <ele>5</ele>
        <time>2026-08-29T14:38:09Z</time>
      </trkpt>
      <trkpt lat="47.49762" lon="-2.77162">
        <ele>5</ele>
        <time>2026-08-29T14:38:10Z</time>
      </trkpt>
      <trkpt lat="47.49761" lon="-2.77155">
        <ele>5</ele>
        <time>2026-08-29T14:38:11Z</time>
      </trkpt>
      <trkpt lat="47.4976" lon="-2.77148">
        <ele>5</ele>
        <time>2026-08-29T14:38:12Z</time>
      </trkpt>
      <trkpt lat="47.49759" lon="-2.77142">
        <ele>5</ele>
        <time>2026-08-29T14:38:13Z</time>
      </trkpt>
      <trkpt lat="47.49758" lon="-2.77136">
        <ele>4.9</ele>
        <time>2026-08-29T14:38:14Z</time>
      </trkpt>
      <trkpt lat="47.49757" lon="-2.77129">
        <ele>4.7</ele>
        <time>2026-08-29T14:38:15Z</time>
      </trkpt>
      <trkpt lat="47.49756" lon="-2.77122">
        <ele>4.5</ele>
        <time>2026-08-29T14:38:16Z</time>
      </trkpt>
      <trkpt lat="47.49756" lon="-2.77116">
        <ele>4.4</ele>
        <time>2026-08-29T14:38:17Z</time>
      </trkpt>
      <trkpt lat="47.49757" lon="-2.7711">
        <ele>4.2</ele>
        <time>2026-08-29T14:38:18Z</time>
      </trkpt>
      <trkpt lat="47.49757" lon="-2.77103">
        <ele>4</ele>
        <time>2026-08-29T14:38:19Z</time>
      </trkpt>
      <trkpt lat="47.49758" lon="-2.77097">
        <ele>3.9</ele>
        <time>2026-08-29T14:38:20Z</time>
      </trkpt>
      <trkpt lat="47.49759" lon="-2.77091">
        <ele>3.8</ele>
        <time>2026-08-29T14:38:21Z</time>
      </trkpt>
      <trkpt lat="47.4976" lon="-2.77084">
        <ele>3.7</ele>
        <time>2026-08-29T14:38:22Z</time>
      </trkpt>
      <trkpt lat="47.49761" lon="-2.77078">
        <ele>3.9</ele>
        <time>2026-08-29T14:38:23Z</time>
      </trkpt>
      <trkpt lat="47.49763" lon="-2.77071">
        <ele>4.1</ele>
        <time>2026-08-29T14:38:24Z</time>
      </trkpt>
      <trkpt lat="47.49764" lon="-2.77064">
        <ele>4.4</ele>
        <time>2026-08-29T14:38:25Z</time>
      </trkpt>
      <trkpt lat="47.49765" lon="-2.77056">
        <ele>4.6</ele>
        <time>2026-08-29T14:38:26Z</time>
      </trkpt>
      <trkpt lat="47.49766" lon="-2.77049">
        <ele>4.7</ele>
        <time>2026-08-29T14:38:27Z</time>
      </trkpt>
      <trkpt lat="47.49766" lon="-2.77042">
        <ele>4.7</ele>
        <time>2026-08-29T14:38:28Z</time>
      </trkpt>
      <trkpt lat="47.49767" lon="-2.77034">
        <ele>4.8</ele>
        <time>2026-08-29T14:38:29Z</time>
      </trkpt>
      <trkpt lat="47.49768" lon="-2.77026">
        <ele>4.9</ele>
        <time>2026-08-29T14:38:30Z</time>
      </trkpt>
      <trkpt lat="47.49769" lon="-2.77019">
        <ele>5</ele>
        <time>2026-08-29T14:38:31Z</time>
      </trkpt>
      <trkpt lat="47.4977" lon="-2.77012">
        <ele>5</ele>
        <time>2026-08-29T14:38:32Z</time>
      </trkpt>
      <trkpt lat="47.4977" lon="-2.77004">
        <ele>4.9</ele>
        <time>2026-08-29T14:38:33Z</time>
      </trkpt>
      <trkpt lat="47.49771" lon="-2.76997">
        <ele>5</ele>
        <time>2026-08-29T14:38:34Z</time>
      </trkpt>
      <trkpt lat="47.49772" lon="-2.7699">
        <ele>5.2</ele>
        <time>2026-08-29T14:38:35Z</time>
      </trkpt>
      <trkpt lat="47.49773" lon="-2.76983">
        <ele>5.3</ele>
        <time>2026-08-29T14:38:36Z</time>
      </trkpt>
      <trkpt lat="47.49774" lon="-2.76975">
        <ele>5.5</ele>
        <time>2026-08-29T14:38:37Z</time>
      </trkpt>
      <trkpt lat="47.49774" lon="-2.76969">
        <ele>5.5</ele>
        <time>2026-08-29T14:38:38Z</time>
      </trkpt>
      <trkpt lat="47.49775" lon="-2.76962">
        <ele>5.6</ele>
        <time>2026-08-29T14:38:39Z</time>
      </trkpt>
      <trkpt lat="47.49776" lon="-2.76955">
        <ele>5.7</ele>
        <time>2026-08-29T14:38:40Z</time>
      </trkpt>
      <trkpt lat="47.49777" lon="-2.76948">
        <ele>5.9</ele>
        <time>2026-08-29T14:38:41Z</time>
      </trkpt>
      <trkpt lat="47.49778" lon="-2.7694">
        <ele>5.8</ele>
        <time>2026-08-29T14:38:42Z</time>
      </trkpt>
      <trkpt lat="47.49778" lon="-2.76933">
        <ele>5.6</ele>
        <time>2026-08-29T14:38:43Z</time>
      </trkpt>
      <trkpt lat="47.49779" lon="-2.76926">
        <ele>5.3</ele>
        <time>2026-08-29T14:38:44Z</time>
      </trkpt>
      <trkpt lat="47.49781" lon="-2.76918">
        <ele>4.9</ele>
        <time>2026-08-29T14:38:45Z</time>
      </trkpt>
      <trkpt lat="47.49782" lon="-2.76911">
        <ele>4.8</ele>
        <time>2026-08-29T14:38:46Z</time>
      </trkpt>
      <trkpt lat="47.49783" lon="-2.76903">
        <ele>4.8</ele>
        <time>2026-08-29T14:38:47Z</time>
      </trkpt>
      <trkpt lat="47.49784" lon="-2.76895">
        <ele>4.8</ele>
        <time>2026-08-29T14:38:48Z</time>
      </trkpt>
      <trkpt lat="47.49785" lon="-2.76886">
        <ele>4.7</ele>
        <time>2026-08-29T14:38:49Z</time>
      </trkpt>
      <trkpt lat="47.49786" lon="-2.76878">
        <ele>4.7</ele>
        <time>2026-08-29T14:38:50Z</time>
      </trkpt>
      <trkpt lat="47.49788" lon="-2.76869">
        <ele>4.6</ele>
        <time>2026-08-29T14:38:51Z</time>
      </trkpt>
      <trkpt lat="47.49789" lon="-2.7686">
        <ele>4.6</ele>
        <time>2026-08-29T14:38:52Z</time>
      </trkpt>
      <trkpt lat="47.49789" lon="-2.76851">
        <ele>4.7</ele>
        <time>2026-08-29T14:38:53Z</time>
      </trkpt>
      <trkpt lat="47.4979" lon="-2.76842">
        <ele>4.9</ele>
        <time>2026-08-29T14:38:54Z</time>
      </trkpt>
      <trkpt lat="47.49791" lon="-2.76834">
        <ele>5</ele>
        <time>2026-08-29T14:38:55Z</time>
      </trkpt>
      <trkpt lat="47.49791" lon="-2.76825">
        <ele>4.9</ele>
        <time>2026-08-29T14:38:56Z</time>
      </trkpt>
      <trkpt lat="47.49791" lon="-2.76816">
        <ele>4.7</ele>
        <time>2026-08-29T14:38:57Z</time>
      </trkpt>
      <trkpt lat="47.49791" lon="-2.76807">
        <ele>4.5</ele>
        <time>2026-08-29T14:38:58Z</time>
      </trkpt>
      <trkpt lat="47.49791" lon="-2.76798">
        <ele>4.5</ele>
        <time>2026-08-29T14:38:59Z</time>
      </trkpt>
      <trkpt lat="47.49792" lon="-2.76789">
        <ele>4.5</ele>
        <time>2026-08-29T14:39:00Z</time>
      </trkpt>
      <trkpt lat="47.49794" lon="-2.76782">
        <ele>4.4</ele>
        <time>2026-08-29T14:39:01Z</time>
      </trkpt>
      <trkpt lat="47.49796" lon="-2.76775">
        <ele>4.3</ele>
        <time>2026-08-29T14:39:02Z</time>
      </trkpt>
      <trkpt lat="47.49799" lon="-2.76769">
        <ele>4.2</ele>
        <time>2026-08-29T14:39:03Z</time>
      </trkpt>
      <trkpt lat="47.49804" lon="-2.76764">
        <ele>4.1</ele>
        <time>2026-08-29T14:39:04Z</time>
      </trkpt>
      <trkpt lat="47.49808" lon="-2.7676">
        <ele>4</ele>
        <time>2026-08-29T14:39:05Z</time>
      </trkpt>
      <trkpt lat="47.49813" lon="-2.76755">
        <ele>4</ele>
        <time>2026-08-29T14:39:06Z</time>
      </trkpt>
      <trkpt lat="47.49818" lon="-2.76751">
        <ele>4</ele>
        <time>2026-08-29T14:39:07Z</time>
      </trkpt>
      <trkpt lat="47.49822" lon="-2.76746">
        <ele>4</ele>
        <time>2026-08-29T14:39:08Z</time>
      </trkpt>
      <trkpt lat="47.49827" lon="-2.76741">
        <ele>4</ele>
        <time>2026-08-29T14:39:09Z</time>
      </trkpt>
      <trkpt lat="47.49832" lon="-2.76736">
        <ele>4</ele>
        <time>2026-08-29T14:39:10Z</time>
      </trkpt>
      <trkpt lat="47.49837" lon="-2.76732">
        <ele>4</ele>
        <time>2026-08-29T14:39:11Z</time>
      </trkpt>
      <trkpt lat="47.49842" lon="-2.76727">
        <ele>4</ele>
        <time>2026-08-29T14:39:12Z</time>
      </trkpt>
      <trkpt lat="47.49847" lon="-2.76722">
        <ele>4</ele>
        <time>2026-08-29T14:39:13Z</time>
      </trkpt>
      <trkpt lat="47.49852" lon="-2.76718">
        <ele>4</ele>
        <time>2026-08-29T14:39:14Z</time>
      </trkpt>
      <trkpt lat="47.49857" lon="-2.76713">
        <ele>4</ele>
        <time>2026-08-29T14:39:15Z</time>
      </trkpt>
      <trkpt lat="47.49862" lon="-2.76709">
        <ele>4</ele>
        <time>2026-08-29T14:39:16Z</time>
      </trkpt>
      <trkpt lat="47.49867" lon="-2.76704">
        <ele>4</ele>
        <time>2026-08-29T14:39:17Z</time>
      </trkpt>
      <trkpt lat="47.49873" lon="-2.767">
        <ele>4</ele>
        <time>2026-08-29T14:39:18Z</time>
      </trkpt>
      <trkpt lat="47.49878" lon="-2.76695">
        <ele>4</ele>
        <time>2026-08-29T14:39:19Z</time>
      </trkpt>
      <trkpt lat="47.49883" lon="-2.7669">
        <ele>4</ele>
        <time>2026-08-29T14:39:20Z</time>
      </trkpt>
      <trkpt lat="47.49888" lon="-2.76686">
        <ele>4</ele>
        <time>2026-08-29T14:39:21Z</time>
      </trkpt>
      <trkpt lat="47.49894" lon="-2.76681">
        <ele>4</ele>
        <time>2026-08-29T14:39:22Z</time>
      </trkpt>
      <trkpt lat="47.49899" lon="-2.76677">
        <ele>4</ele>
        <time>2026-08-29T14:39:23Z</time>
      </trkpt>
      <trkpt lat="47.49904" lon="-2.76673">
        <ele>4</ele>
        <time>2026-08-29T14:39:24Z</time>
      </trkpt>
      <trkpt lat="47.49909" lon="-2.76669">
        <ele>4</ele>
        <time>2026-08-29T14:39:25Z</time>
      </trkpt>
      <trkpt lat="47.49914" lon="-2.76665">
        <ele>3.9</ele>
        <time>2026-08-29T14:39:26Z</time>
      </trkpt>
      <trkpt lat="47.4992" lon="-2.76663">
        <ele>3.9</ele>
        <time>2026-08-29T14:39:27Z</time>
      </trkpt>
      <trkpt lat="47.49925" lon="-2.76662">
        <ele>3.9</ele>
        <time>2026-08-29T14:39:28Z</time>
      </trkpt>
      <trkpt lat="47.49931" lon="-2.76662">
        <ele>3.9</ele>
        <time>2026-08-29T14:39:29Z</time>
      </trkpt>
      <trkpt lat="47.49936" lon="-2.76664">
        <ele>4</ele>
        <time>2026-08-29T14:39:30Z</time>
      </trkpt>
      <trkpt lat="47.49941" lon="-2.76666">
        <ele>4</ele>
        <time>2026-08-29T14:39:31Z</time>
      </trkpt>
      <trkpt lat="47.49946" lon="-2.7667">
        <ele>4</ele>
        <time>2026-08-29T14:39:32Z</time>
      </trkpt>
      <trkpt lat="47.49951" lon="-2.76673">
        <ele>4</ele>
        <time>2026-08-29T14:39:33Z</time>
      </trkpt>
      <trkpt lat="47.49956" lon="-2.76677">
        <ele>4</ele>
        <time>2026-08-29T14:39:34Z</time>
      </trkpt>
      <trkpt lat="47.4996" lon="-2.76681">
        <ele>4</ele>
        <time>2026-08-29T14:39:35Z</time>
      </trkpt>
      <trkpt lat="47.49965" lon="-2.76684">
        <ele>4</ele>
        <time>2026-08-29T14:39:36Z</time>
      </trkpt>
      <trkpt lat="47.4997" lon="-2.76688">
        <ele>4</ele>
        <time>2026-08-29T14:39:37Z</time>
      </trkpt>
      <trkpt lat="47.49975" lon="-2.76692">
        <ele>4</ele>
        <time>2026-08-29T14:39:38Z</time>
      </trkpt>
      <trkpt lat="47.4998" lon="-2.76696">
        <ele>4</ele>
        <time>2026-08-29T14:39:39Z</time>
      </trkpt>
      <trkpt lat="47.49985" lon="-2.767">
        <ele>3.9</ele>
        <time>2026-08-29T14:39:40Z</time>
      </trkpt>
      <trkpt lat="47.4999" lon="-2.76704">
        <ele>3.8</ele>
        <time>2026-08-29T14:39:41Z</time>
      </trkpt>
      <trkpt lat="47.49995" lon="-2.76708">
        <ele>3.6</ele>
        <time>2026-08-29T14:39:42Z</time>
      </trkpt>
      <trkpt lat="47.5" lon="-2.76712">
        <ele>3.4</ele>
        <time>2026-08-29T14:39:43Z</time>
      </trkpt>
      <trkpt lat="47.50005" lon="-2.76717">
        <ele>3.3</ele>
        <time>2026-08-29T14:39:44Z</time>
      </trkpt>
      <trkpt lat="47.5001" lon="-2.76721">
        <ele>3.4</ele>
        <time>2026-08-29T14:39:45Z</time>
      </trkpt>
      <trkpt lat="47.50015" lon="-2.76725">
        <ele>3.6</ele>
        <time>2026-08-29T14:39:46Z</time>
      </trkpt>
      <trkpt lat="47.5002" lon="-2.76729">
        <ele>3.8</ele>
        <time>2026-08-29T14:39:47Z</time>
      </trkpt>
      <trkpt lat="47.50025" lon="-2.76734">
        <ele>3.9</ele>
        <time>2026-08-29T14:39:48Z</time>
      </trkpt>
      <trkpt lat="47.5003" lon="-2.76738">
        <ele>3.9</ele>
        <time>2026-08-29T14:39:49Z</time>
      </trkpt>
      <trkpt lat="47.50035" lon="-2.76742">
        <ele>3.7</ele>
        <time>2026-08-29T14:39:50Z</time>
      </trkpt>
      <trkpt lat="47.5004" lon="-2.76746">
        <ele>3.6</ele>
        <time>2026-08-29T14:39:51Z</time>
      </trkpt>
      <trkpt lat="47.50045" lon="-2.7675">
        <ele>3.4</ele>
        <time>2026-08-29T14:39:52Z</time>
      </trkpt>
      <trkpt lat="47.5005" lon="-2.76754">
        <ele>3.3</ele>
        <time>2026-08-29T14:39:53Z</time>
      </trkpt>
      <trkpt lat="47.50054" lon="-2.76758">
        <ele>3.3</ele>
        <time>2026-08-29T14:39:54Z</time>
      </trkpt>
      <trkpt lat="47.50059" lon="-2.76762">
        <ele>3.4</ele>
        <time>2026-08-29T14:39:55Z</time>
      </trkpt>
      <trkpt lat="47.50064" lon="-2.76766">
        <ele>3.6</ele>
        <time>2026-08-29T14:39:56Z</time>
      </trkpt>
      <trkpt lat="47.50068" lon="-2.76771">
        <ele>3.8</ele>
        <time>2026-08-29T14:39:57Z</time>
      </trkpt>
      <trkpt lat="47.50072" lon="-2.76776">
        <ele>3.9</ele>
        <time>2026-08-29T14:39:58Z</time>
      </trkpt>
      <trkpt lat="47.50076" lon="-2.7678">
        <ele>4</ele>
        <time>2026-08-29T14:39:59Z</time>
      </trkpt>
      <trkpt lat="47.5008" lon="-2.76784">
        <ele>4</ele>
        <time>2026-08-29T14:40:00Z</time>
      </trkpt>
      <trkpt lat="47.50085" lon="-2.76786">
        <ele>4</ele>
        <time>2026-08-29T14:40:01Z</time>
      </trkpt>
      <trkpt lat="47.50089" lon="-2.76785">
        <ele>3.8</ele>
        <time>2026-08-29T14:40:02Z</time>
      </trkpt>
      <trkpt lat="47.50094" lon="-2.76782">
        <ele>3.7</ele>
        <time>2026-08-29T14:40:03Z</time>
      </trkpt>
      <trkpt lat="47.50098" lon="-2.76779">
        <ele>3.5</ele>
        <time>2026-08-29T14:40:04Z</time>
      </trkpt>
      <trkpt lat="47.50103" lon="-2.76775">
        <ele>3.3</ele>
        <time>2026-08-29T14:40:05Z</time>
      </trkpt>
      <trkpt lat="47.50107" lon="-2.76771">
        <ele>3.3</ele>
        <time>2026-08-29T14:40:06Z</time>
      </trkpt>
      <trkpt lat="47.50112" lon="-2.76768">
        <ele>3.4</ele>
        <time>2026-08-29T14:40:07Z</time>
      </trkpt>
      <trkpt lat="47.50116" lon="-2.76765">
        <ele>3.6</ele>
        <time>2026-08-29T14:40:08Z</time>
      </trkpt>
      <trkpt lat="47.5012" lon="-2.76762">
        <ele>3.7</ele>
        <time>2026-08-29T14:40:09Z</time>
      </trkpt>
      <trkpt lat="47.50125" lon="-2.76759">
        <ele>3.8</ele>
        <time>2026-08-29T14:40:10Z</time>
      </trkpt>
      <trkpt lat="47.50129" lon="-2.76754">
        <ele>3.9</ele>
        <time>2026-08-29T14:40:11Z</time>
      </trkpt>
      <trkpt lat="47.50132" lon="-2.76749">
        <ele>4</ele>
        <time>2026-08-29T14:40:12Z</time>
      </trkpt>
      <trkpt lat="47.50133" lon="-2.76743">
        <ele>4.2</ele>
        <time>2026-08-29T14:40:13Z</time>
      </trkpt>
      <trkpt lat="47.50134" lon="-2.76736">
        <ele>4.4</ele>
        <time>2026-08-29T14:40:14Z</time>
      </trkpt>
      <trkpt lat="47.50134" lon="-2.76728">
        <ele>4.7</ele>
        <time>2026-08-29T14:40:15Z</time>
      </trkpt>
      <trkpt lat="47.50133" lon="-2.76721">
        <ele>4.8</ele>
        <time>2026-08-29T14:40:16Z</time>
      </trkpt>
      <trkpt lat="47.50132" lon="-2.76715">
        <ele>4.8</ele>
        <time>2026-08-29T14:40:17Z</time>
      </trkpt>
      <trkpt lat="47.50131" lon="-2.76708">
        <ele>4.9</ele>
        <time>2026-08-29T14:40:18Z</time>
      </trkpt>
      <trkpt lat="47.5013" lon="-2.76701">
        <ele>4.9</ele>
        <time>2026-08-29T14:40:19Z</time>
      </trkpt>
      <trkpt lat="47.50129" lon="-2.76695">
        <ele>5</ele>
        <time>2026-08-29T14:40:20Z</time>
      </trkpt>
      <trkpt lat="47.50128" lon="-2.76688">
        <ele>5</ele>
        <time>2026-08-29T14:40:21Z</time>
      </trkpt>
      <trkpt lat="47.50127" lon="-2.76681">
        <ele>5</ele>
        <time>2026-08-29T14:40:22Z</time>
      </trkpt>
      <trkpt lat="47.50126" lon="-2.76674">
        <ele>5</ele>
        <time>2026-08-29T14:40:23Z</time>
      </trkpt>
      <trkpt lat="47.50125" lon="-2.76668">
        <ele>5</ele>
        <time>2026-08-29T14:40:24Z</time>
      </trkpt>
      <trkpt lat="47.50125" lon="-2.76661">
        <ele>5</ele>
        <time>2026-08-29T14:40:25Z</time>
      </trkpt>
      <trkpt lat="47.50124" lon="-2.76654">
        <ele>5</ele>
        <time>2026-08-29T14:40:26Z</time>
      </trkpt>
      <trkpt lat="47.50123" lon="-2.76647">
        <ele>5</ele>
        <time>2026-08-29T14:40:27Z</time>
      </trkpt>
      <trkpt lat="47.50122" lon="-2.7664">
        <ele>5</ele>
        <time>2026-08-29T14:40:28Z</time>
      </trkpt>
      <trkpt lat="47.50121" lon="-2.76633">
        <ele>5</ele>
        <time>2026-08-29T14:40:29Z</time>
      </trkpt>
      <trkpt lat="47.5012" lon="-2.76626">
        <ele>5</ele>
        <time>2026-08-29T14:40:30Z</time>
      </trkpt>
      <trkpt lat="47.5012" lon="-2.76619">
        <ele>5</ele>
        <time>2026-08-29T14:40:31Z</time>
      </trkpt>
      <trkpt lat="47.50119" lon="-2.76612">
        <ele>5</ele>
        <time>2026-08-29T14:40:32Z</time>
      </trkpt>
      <trkpt lat="47.50119" lon="-2.76605">
        <ele>4.8</ele>
        <time>2026-08-29T14:40:33Z</time>
      </trkpt>
      <trkpt lat="47.50118" lon="-2.76598">
        <ele>4.6</ele>
        <time>2026-08-29T14:40:34Z</time>
      </trkpt>
      <trkpt lat="47.50117" lon="-2.76591">
        <ele>4.4</ele>
        <time>2026-08-29T14:40:35Z</time>
      </trkpt>
      <trkpt lat="47.50116" lon="-2.76585">
        <ele>4.2</ele>
        <time>2026-08-29T14:40:36Z</time>
      </trkpt>
      <trkpt lat="47.50115" lon="-2.76579">
        <ele>4.1</ele>
        <time>2026-08-29T14:40:37Z</time>
      </trkpt>
      <trkpt lat="47.50114" lon="-2.76572">
        <ele>4.1</ele>
        <time>2026-08-29T14:40:38Z</time>
      </trkpt>
      <trkpt lat="47.50114" lon="-2.76565">
        <ele>4.1</ele>
        <time>2026-08-29T14:40:39Z</time>
      </trkpt>
      <trkpt lat="47.50113" lon="-2.76558">
        <ele>4.1</ele>
        <time>2026-08-29T14:40:40Z</time>
      </trkpt>
      <trkpt lat="47.50113" lon="-2.76552">
        <ele>4.1</ele>
        <time>2026-08-29T14:40:41Z</time>
      </trkpt>
      <trkpt lat="47.50112" lon="-2.76545">
        <ele>4</ele>
        <time>2026-08-29T14:40:42Z</time>
      </trkpt>
      <trkpt lat="47.50111" lon="-2.76539">
        <ele>4</ele>
        <time>2026-08-29T14:40:43Z</time>
      </trkpt>
      <trkpt lat="47.5011" lon="-2.76532">
        <ele>4</ele>
        <time>2026-08-29T14:40:44Z</time>
      </trkpt>
      <trkpt lat="47.50109" lon="-2.76525">
        <ele>4</ele>
        <time>2026-08-29T14:40:45Z</time>
      </trkpt>
      <trkpt lat="47.50108" lon="-2.76518">
        <ele>4</ele>
        <time>2026-08-29T14:40:46Z</time>
      </trkpt>
      <trkpt lat="47.50107" lon="-2.76512">
        <ele>4</ele>
        <time>2026-08-29T14:40:47Z</time>
      </trkpt>
      <trkpt lat="47.50106" lon="-2.76506">
        <ele>4</ele>
        <time>2026-08-29T14:40:48Z</time>
      </trkpt>
      <trkpt lat="47.50105" lon="-2.76499">
        <ele>4</ele>
        <time>2026-08-29T14:40:49Z</time>
      </trkpt>
      <trkpt lat="47.50104" lon="-2.76494">
        <ele>3.9</ele>
        <time>2026-08-29T14:40:50Z</time>
      </trkpt>
      <trkpt lat="47.50103" lon="-2.76487">
        <ele>3.9</ele>
        <time>2026-08-29T14:40:51Z</time>
      </trkpt>
      <trkpt lat="47.50102" lon="-2.7648">
        <ele>3.8</ele>
        <time>2026-08-29T14:40:52Z</time>
      </trkpt>
      <trkpt lat="47.50102" lon="-2.76472">
        <ele>3.7</ele>
        <time>2026-08-29T14:40:53Z</time>
      </trkpt>
      <trkpt lat="47.50103" lon="-2.76464">
        <ele>3.8</ele>
        <time>2026-08-29T14:40:54Z</time>
      </trkpt>
      <trkpt lat="47.50105" lon="-2.76457">
        <ele>3.9</ele>
        <time>2026-08-29T14:40:55Z</time>
      </trkpt>
      <trkpt lat="47.50107" lon="-2.76451">
        <ele>4</ele>
        <time>2026-08-29T14:40:56Z</time>
      </trkpt>
      <trkpt lat="47.50112" lon="-2.76446">
        <ele>4</ele>
        <time>2026-08-29T14:40:57Z</time>
      </trkpt>
      <trkpt lat="47.50117" lon="-2.76442">
        <ele>3.9</ele>
        <time>2026-08-29T14:40:58Z</time>
      </trkpt>
      <trkpt lat="47.50121" lon="-2.76437">
        <ele>3.8</ele>
        <time>2026-08-29T14:40:59Z</time>
      </trkpt>
      <trkpt lat="47.50125" lon="-2.76433">
        <ele>3.8</ele>
        <time>2026-08-29T14:41:00Z</time>
      </trkpt>
      <trkpt lat="47.50128" lon="-2.76429">
        <ele>3.8</ele>
        <time>2026-08-29T14:41:01Z</time>
      </trkpt>
      <trkpt lat="47.50132" lon="-2.76427">
        <ele>3.8</ele>
        <time>2026-08-29T14:41:02Z</time>
      </trkpt>
      <trkpt lat="47.50136" lon="-2.76423">
        <ele>3.9</ele>
        <time>2026-08-29T14:41:03Z</time>
      </trkpt>
      <trkpt lat="47.50141" lon="-2.76421">
        <ele>4.1</ele>
        <time>2026-08-29T14:41:04Z</time>
      </trkpt>
      <trkpt lat="47.50145" lon="-2.76418">
        <ele>4.2</ele>
        <time>2026-08-29T14:41:05Z</time>
      </trkpt>
      <trkpt lat="47.5015" lon="-2.76415">
        <ele>4.4</ele>
        <time>2026-08-29T14:41:06Z</time>
      </trkpt>
      <trkpt lat="47.50154" lon="-2.76413">
        <ele>4.5</ele>
        <time>2026-08-29T14:41:07Z</time>
      </trkpt>
      <trkpt lat="47.50158" lon="-2.7641">
        <ele>4.7</ele>
        <time>2026-08-29T14:41:08Z</time>
      </trkpt>
      <trkpt lat="47.50162" lon="-2.76407">
        <ele>4.8</ele>
        <time>2026-08-29T14:41:09Z</time>
      </trkpt>
      <trkpt lat="47.50166" lon="-2.76405">
        <ele>5</ele>
        <time>2026-08-29T14:41:10Z</time>
      </trkpt>
      <trkpt lat="47.5017" lon="-2.76402">
        <ele>5.1</ele>
        <time>2026-08-29T14:41:11Z</time>
      </trkpt>
      <trkpt lat="47.50174" lon="-2.764">
        <ele>5.3</ele>
        <time>2026-08-29T14:41:12Z</time>
      </trkpt>
      <trkpt lat="47.50178" lon="-2.76398">
        <ele>5.4</ele>
        <time>2026-08-29T14:41:13Z</time>
      </trkpt>
      <trkpt lat="47.50182" lon="-2.76395">
        <ele>5.6</ele>
        <time>2026-08-29T14:41:14Z</time>
      </trkpt>
      <trkpt lat="47.50186" lon="-2.76393">
        <ele>5.7</ele>
        <time>2026-08-29T14:41:15Z</time>
      </trkpt>
      <trkpt lat="47.5019" lon="-2.7639">
        <ele>5.8</ele>
        <time>2026-08-29T14:41:16Z</time>
      </trkpt>
      <trkpt lat="47.50193" lon="-2.76388">
        <ele>5.9</ele>
        <time>2026-08-29T14:41:17Z</time>
      </trkpt>
      <trkpt lat="47.50197" lon="-2.76386">
        <ele>5.9</ele>
        <time>2026-08-29T14:41:18Z</time>
      </trkpt>
      <trkpt lat="47.50201" lon="-2.76385">
        <ele>5.9</ele>
        <time>2026-08-29T14:41:19Z</time>
      </trkpt>
      <trkpt lat="47.50205" lon="-2.76383">
        <ele>5.9</ele>
        <time>2026-08-29T14:41:20Z</time>
      </trkpt>
      <trkpt lat="47.50208" lon="-2.76381">
        <ele>5.9</ele>
        <time>2026-08-29T14:41:21Z</time>
      </trkpt>
      <trkpt lat="47.50212" lon="-2.7638">
        <ele>5.9</ele>
        <time>2026-08-29T14:41:22Z</time>
      </trkpt>
      <trkpt lat="47.50216" lon="-2.76379">
        <ele>5.9</ele>
        <time>2026-08-29T14:41:23Z</time>
      </trkpt>
      <trkpt lat="47.5022" lon="-2.76378">
        <ele>6</ele>
        <time>2026-08-29T14:41:24Z</time>
      </trkpt>
      <trkpt lat="47.50224" lon="-2.76378">
        <ele>6.1</ele>
        <time>2026-08-29T14:41:25Z</time>
      </trkpt>
      <trkpt lat="47.50228" lon="-2.76378">
        <ele>6.2</ele>
        <time>2026-08-29T14:41:26Z</time>
      </trkpt>
      <trkpt lat="47.50232" lon="-2.76378">
        <ele>6.4</ele>
        <time>2026-08-29T14:41:27Z</time>
      </trkpt>
      <trkpt lat="47.50236" lon="-2.76378">
        <ele>6.5</ele>
        <time>2026-08-29T14:41:28Z</time>
      </trkpt>
      <trkpt lat="47.50241" lon="-2.76378">
        <ele>6.7</ele>
        <time>2026-08-29T14:41:29Z</time>
      </trkpt>
      <trkpt lat="47.50245" lon="-2.76378">
        <ele>6.8</ele>
        <time>2026-08-29T14:41:30Z</time>
      </trkpt>
      <trkpt lat="47.50249" lon="-2.76378">
        <ele>7</ele>
        <time>2026-08-29T14:41:31Z</time>
      </trkpt>
      <trkpt lat="47.50253" lon="-2.76378">
        <ele>7</ele>
        <time>2026-08-29T14:41:32Z</time>
      </trkpt>
      <trkpt lat="47.50257" lon="-2.76379">
        <ele>7</ele>
        <time>2026-08-29T14:41:33Z</time>
      </trkpt>
      <trkpt lat="47.50262" lon="-2.76379">
        <ele>7</ele>
        <time>2026-08-29T14:41:34Z</time>
      </trkpt>
      <trkpt lat="47.50266" lon="-2.76378">
        <ele>7</ele>
        <time>2026-08-29T14:41:35Z</time>
      </trkpt>
      <trkpt lat="47.5027" lon="-2.76378">
        <ele>7</ele>
        <time>2026-08-29T14:41:36Z</time>
      </trkpt>
      <trkpt lat="47.50274" lon="-2.76377">
        <ele>7</ele>
        <time>2026-08-29T14:41:37Z</time>
      </trkpt>
      <trkpt lat="47.50278" lon="-2.76377">
        <ele>7</ele>
        <time>2026-08-29T14:41:38Z</time>
      </trkpt>
      <trkpt lat="47.50283" lon="-2.76376">
        <ele>7</ele>
        <time>2026-08-29T14:41:39Z</time>
      </trkpt>
      <trkpt lat="47.50287" lon="-2.76376">
        <ele>7</ele>
        <time>2026-08-29T14:41:40Z</time>
      </trkpt>
      <trkpt lat="47.50291" lon="-2.76376">
        <ele>7</ele>
        <time>2026-08-29T14:41:41Z</time>
      </trkpt>
      <trkpt lat="47.50295" lon="-2.76376">
        <ele>7</ele>
        <time>2026-08-29T14:41:42Z</time>
      </trkpt>
      <trkpt lat="47.50299" lon="-2.76375">
        <ele>7</ele>
        <time>2026-08-29T14:41:43Z</time>
      </trkpt>
      <trkpt lat="47.50304" lon="-2.76375">
        <ele>7</ele>
        <time>2026-08-29T14:41:44Z</time>
      </trkpt>
      <trkpt lat="47.50308" lon="-2.76374">
        <ele>7.1</ele>
        <time>2026-08-29T14:41:45Z</time>
      </trkpt>
      <trkpt lat="47.50312" lon="-2.76374">
        <ele>7.2</ele>
        <time>2026-08-29T14:41:46Z</time>
      </trkpt>
      <trkpt lat="47.50316" lon="-2.76374">
        <ele>7.4</ele>
        <time>2026-08-29T14:41:47Z</time>
      </trkpt>
      <trkpt lat="47.5032" lon="-2.76373">
        <ele>7.5</ele>
        <time>2026-08-29T14:41:48Z</time>
      </trkpt>
      <trkpt lat="47.50323" lon="-2.76372">
        <ele>7.6</ele>
        <time>2026-08-29T14:41:49Z</time>
      </trkpt>
      <trkpt lat="47.50327" lon="-2.76372">
        <ele>7.8</ele>
        <time>2026-08-29T14:41:50Z</time>
      </trkpt>
      <trkpt lat="47.50331" lon="-2.76371">
        <ele>7.9</ele>
        <time>2026-08-29T14:41:51Z</time>
      </trkpt>
      <trkpt lat="47.50335" lon="-2.7637">
        <ele>8</ele>
        <time>2026-08-29T14:41:52Z</time>
      </trkpt>
      <trkpt lat="47.50339" lon="-2.76369">
        <ele>8</ele>
        <time>2026-08-29T14:41:53Z</time>
      </trkpt>
      <trkpt lat="47.50343" lon="-2.76368">
        <ele>8</ele>
        <time>2026-08-29T14:41:54Z</time>
      </trkpt>
      <trkpt lat="47.50346" lon="-2.76367">
        <ele>8</ele>
        <time>2026-08-29T14:41:55Z</time>
      </trkpt>
      <trkpt lat="47.5035" lon="-2.76366">
        <ele>8</ele>
        <time>2026-08-29T14:41:56Z</time>
      </trkpt>
      <trkpt lat="47.50354" lon="-2.76365">
        <ele>8</ele>
        <time>2026-08-29T14:41:57Z</time>
      </trkpt>
      <trkpt lat="47.50359" lon="-2.76364">
        <ele>8</ele>
        <time>2026-08-29T14:41:58Z</time>
      </trkpt>
      <trkpt lat="47.50363" lon="-2.76363">
        <ele>8.1</ele>
        <time>2026-08-29T14:41:59Z</time>
      </trkpt>
      <trkpt lat="47.50367" lon="-2.76362">
        <ele>8.2</ele>
        <time>2026-08-29T14:42:00Z</time>
      </trkpt>
      <trkpt lat="47.5037" lon="-2.76361">
        <ele>8.3</ele>
        <time>2026-08-29T14:42:01Z</time>
      </trkpt>
      <trkpt lat="47.50374" lon="-2.7636">
        <ele>8.5</ele>
        <time>2026-08-29T14:42:02Z</time>
      </trkpt>
      <trkpt lat="47.50377" lon="-2.7636">
        <ele>8.6</ele>
        <time>2026-08-29T14:42:03Z</time>
      </trkpt>
      <trkpt lat="47.50381" lon="-2.76359">
        <ele>8.7</ele>
        <time>2026-08-29T14:42:04Z</time>
      </trkpt>
      <trkpt lat="47.50384" lon="-2.76358">
        <ele>8.8</ele>
        <time>2026-08-29T14:42:05Z</time>
      </trkpt>
      <trkpt lat="47.50388" lon="-2.76357">
        <ele>9</ele>
        <time>2026-08-29T14:42:06Z</time>
      </trkpt>
      <trkpt lat="47.50392" lon="-2.76357">
        <ele>9.1</ele>
        <time>2026-08-29T14:42:07Z</time>
      </trkpt>
      <trkpt lat="47.50395" lon="-2.76356">
        <ele>9.2</ele>
        <time>2026-08-29T14:42:08Z</time>
      </trkpt>
      <trkpt lat="47.50399" lon="-2.76355">
        <ele>9.4</ele>
        <time>2026-08-29T14:42:09Z</time>
      </trkpt>
      <trkpt lat="47.50403" lon="-2.76354">
        <ele>9.5</ele>
        <time>2026-08-29T14:42:10Z</time>
      </trkpt>
      <trkpt lat="47.50406" lon="-2.76354">
        <ele>9.6</ele>
        <time>2026-08-29T14:42:11Z</time>
      </trkpt>
      <trkpt lat="47.5041" lon="-2.76353">
        <ele>9.8</ele>
        <time>2026-08-29T14:42:12Z</time>
      </trkpt>
      <trkpt lat="47.50413" lon="-2.76352">
        <ele>9.9</ele>
        <time>2026-08-29T14:42:13Z</time>
      </trkpt>
      <trkpt lat="47.50417" lon="-2.76351">
        <ele>10</ele>
        <time>2026-08-29T14:42:14Z</time>
      </trkpt>
      <trkpt lat="47.5042" lon="-2.76348">
        <ele>10.1</ele>
        <time>2026-08-29T14:42:15Z</time>
      </trkpt>
      <trkpt lat="47.50423" lon="-2.76346">
        <ele>10.2</ele>
        <time>2026-08-29T14:42:16Z</time>
      </trkpt>
      <trkpt lat="47.50426" lon="-2.76342">
        <ele>10.3</ele>
        <time>2026-08-29T14:42:17Z</time>
      </trkpt>
      <trkpt lat="47.50427" lon="-2.76338">
        <ele>10.4</ele>
        <time>2026-08-29T14:42:18Z</time>
      </trkpt>
      <trkpt lat="47.50429" lon="-2.76333">
        <ele>10.4</ele>
        <time>2026-08-29T14:42:19Z</time>
      </trkpt>
      <trkpt lat="47.5043" lon="-2.76329">
        <ele>10.5</ele>
        <time>2026-08-29T14:42:20Z</time>
      </trkpt>
      <trkpt lat="47.50431" lon="-2.76324">
        <ele>10.5</ele>
        <time>2026-08-29T14:42:21Z</time>
      </trkpt>
      <trkpt lat="47.50432" lon="-2.76319">
        <ele>10.6</ele>
        <time>2026-08-29T14:42:22Z</time>
      </trkpt>
      <trkpt lat="47.50434" lon="-2.76314">
        <ele>10.6</ele>
        <time>2026-08-29T14:42:23Z</time>
      </trkpt>
      <trkpt lat="47.50435" lon="-2.76309">
        <ele>10.7</ele>
        <time>2026-08-29T14:42:24Z</time>
      </trkpt>
      <trkpt lat="47.50436" lon="-2.76305">
        <ele>10.7</ele>
        <time>2026-08-29T14:42:25Z</time>
      </trkpt>
      <trkpt lat="47.50438" lon="-2.763">
        <ele>10.8</ele>
        <time>2026-08-29T14:42:26Z</time>
      </trkpt>
      <trkpt lat="47.5044" lon="-2.76295">
        <ele>10.8</ele>
        <time>2026-08-29T14:42:27Z</time>
      </trkpt>
      <trkpt lat="47.50442" lon="-2.76291">
        <ele>10.9</ele>
        <time>2026-08-29T14:42:28Z</time>
      </trkpt>
      <trkpt lat="47.50443" lon="-2.76287">
        <ele>10.9</ele>
        <time>2026-08-29T14:42:29Z</time>
      </trkpt>
      <trkpt lat="47.50444" lon="-2.76282">
        <ele>11</ele>
        <time>2026-08-29T14:42:30Z</time>
      </trkpt>
      <trkpt lat="47.50445" lon="-2.76278">
        <ele>11</ele>
        <time>2026-08-29T14:42:31Z</time>
      </trkpt>
      <trkpt lat="47.50447" lon="-2.76273">
        <ele>10.8</ele>
        <time>2026-08-29T14:42:32Z</time>
      </trkpt>
      <trkpt lat="47.50448" lon="-2.76269">
        <ele>10.7</ele>
        <time>2026-08-29T14:42:33Z</time>
      </trkpt>
      <trkpt lat="47.5045" lon="-2.76266">
        <ele>10.7</ele>
        <time>2026-08-29T14:42:34Z</time>
      </trkpt>
      <trkpt lat="47.50453" lon="-2.76263">
        <ele>10.6</ele>
        <time>2026-08-29T14:42:35Z</time>
      </trkpt>
      <trkpt lat="47.50456" lon="-2.76262">
        <ele>10.7</ele>
        <time>2026-08-29T14:42:36Z</time>
      </trkpt>
      <trkpt lat="47.50459" lon="-2.7626">
        <ele>10.7</ele>
        <time>2026-08-29T14:42:37Z</time>
      </trkpt>
      <trkpt lat="47.50461" lon="-2.7626">
        <ele>10.7</ele>
        <time>2026-08-29T14:42:38Z</time>
      </trkpt>
      <trkpt lat="47.50464" lon="-2.76259">
        <ele>10.8</ele>
        <time>2026-08-29T14:42:39Z</time>
      </trkpt>
      <trkpt lat="47.50467" lon="-2.76259">
        <ele>10.9</ele>
        <time>2026-08-29T14:42:40Z</time>
      </trkpt>
      <trkpt lat="47.5047" lon="-2.76259">
        <ele>10.9</ele>
        <time>2026-08-29T14:42:41Z</time>
      </trkpt>
      <trkpt lat="47.50474" lon="-2.7626">
        <ele>11.1</ele>
        <time>2026-08-29T14:42:42Z</time>
      </trkpt>
      <trkpt lat="47.50477" lon="-2.76261">
        <ele>11.3</ele>
        <time>2026-08-29T14:42:43Z</time>
      </trkpt>
      <trkpt lat="47.50481" lon="-2.76261">
        <ele>11.5</ele>
        <time>2026-08-29T14:42:44Z</time>
      </trkpt>
      <trkpt lat="47.50485" lon="-2.76261">
        <ele>11.7</ele>
        <time>2026-08-29T14:42:45Z</time>
      </trkpt>
      <trkpt lat="47.50488" lon="-2.76262">
        <ele>11.9</ele>
        <time>2026-08-29T14:42:46Z</time>
      </trkpt>
      <trkpt lat="47.50492" lon="-2.76263">
        <ele>12.1</ele>
        <time>2026-08-29T14:42:47Z</time>
      </trkpt>
      <trkpt lat="47.50495" lon="-2.76264">
        <ele>12.2</ele>
        <time>2026-08-29T14:42:48Z</time>
      </trkpt>
      <trkpt lat="47.50499" lon="-2.76264">
        <ele>12.4</ele>
        <time>2026-08-29T14:42:49Z</time>
      </trkpt>
      <trkpt lat="47.50502" lon="-2.76265">
        <ele>12.5</ele>
        <time>2026-08-29T14:42:50Z</time>
      </trkpt>
      <trkpt lat="47.50506" lon="-2.76266">
        <ele>12.6</ele>
        <time>2026-08-29T14:42:51Z</time>
      </trkpt>
      <trkpt lat="47.50509" lon="-2.76266">
        <ele>12.7</ele>
        <time>2026-08-29T14:42:52Z</time>
      </trkpt>
      <trkpt lat="47.50513" lon="-2.76267">
        <ele>12.9</ele>
        <time>2026-08-29T14:42:53Z</time>
      </trkpt>
      <trkpt lat="47.50516" lon="-2.76268">
        <ele>12.9</ele>
        <time>2026-08-29T14:42:54Z</time>
      </trkpt>
      <trkpt lat="47.5052" lon="-2.76268">
        <ele>13.1</ele>
        <time>2026-08-29T14:42:55Z</time>
      </trkpt>
      <trkpt lat="47.50524" lon="-2.76269">
        <ele>13.2</ele>
        <time>2026-08-29T14:42:56Z</time>
      </trkpt>
      <trkpt lat="47.50527" lon="-2.7627">
        <ele>13.3</ele>
        <time>2026-08-29T14:42:57Z</time>
      </trkpt>
      <trkpt lat="47.50531" lon="-2.76271">
        <ele>13.3</ele>
        <time>2026-08-29T14:42:58Z</time>
      </trkpt>
      <trkpt lat="47.50535" lon="-2.76272">
        <ele>13.3</ele>
        <time>2026-08-29T14:42:59Z</time>
      </trkpt>
      <trkpt lat="47.50539" lon="-2.76273">
        <ele>13.2</ele>
        <time>2026-08-29T14:43:00Z</time>
      </trkpt>
      <trkpt lat="47.50542" lon="-2.76274">
        <ele>13.2</ele>
        <time>2026-08-29T14:43:01Z</time>
      </trkpt>
      <trkpt lat="47.50546" lon="-2.76274">
        <ele>13.2</ele>
        <time>2026-08-29T14:43:02Z</time>
      </trkpt>
      <trkpt lat="47.5055" lon="-2.76275">
        <ele>13.2</ele>
        <time>2026-08-29T14:43:03Z</time>
      </trkpt>
      <trkpt lat="47.50553" lon="-2.76276">
        <ele>13.1</ele>
        <time>2026-08-29T14:43:04Z</time>
      </trkpt>
      <trkpt lat="47.50557" lon="-2.76277">
        <ele>13.2</ele>
        <time>2026-08-29T14:43:05Z</time>
      </trkpt>
      <trkpt lat="47.5056" lon="-2.76278">
        <ele>13.3</ele>
        <time>2026-08-29T14:43:06Z</time>
      </trkpt>
      <trkpt lat="47.50563" lon="-2.76278">
        <ele>13.5</ele>
        <time>2026-08-29T14:43:07Z</time>
      </trkpt>
      <trkpt lat="47.50567" lon="-2.76278">
        <ele>13.8</ele>
        <time>2026-08-29T14:43:08Z</time>
      </trkpt>
      <trkpt lat="47.5057" lon="-2.76278">
        <ele>14</ele>
        <time>2026-08-29T14:43:09Z</time>
      </trkpt>
      <trkpt lat="47.50573" lon="-2.76278">
        <ele>14.3</ele>
        <time>2026-08-29T14:43:10Z</time>
      </trkpt>
      <trkpt lat="47.50576" lon="-2.76278">
        <ele>14.5</ele>
        <time>2026-08-29T14:43:11Z</time>
      </trkpt>
      <trkpt lat="47.50579" lon="-2.76278">
        <ele>14.7</ele>
        <time>2026-08-29T14:43:12Z</time>
      </trkpt>
      <trkpt lat="47.50583" lon="-2.76278">
        <ele>15</ele>
        <time>2026-08-29T14:43:13Z</time>
      </trkpt>
      <trkpt lat="47.50586" lon="-2.76278">
        <ele>15.1</ele>
        <time>2026-08-29T14:43:14Z</time>
      </trkpt>
      <trkpt lat="47.50589" lon="-2.76277">
        <ele>15.2</ele>
        <time>2026-08-29T14:43:15Z</time>
      </trkpt>
      <trkpt lat="47.50592" lon="-2.76276">
        <ele>15.3</ele>
        <time>2026-08-29T14:43:16Z</time>
      </trkpt>
      <trkpt lat="47.50595" lon="-2.76275">
        <ele>15.4</ele>
        <time>2026-08-29T14:43:17Z</time>
      </trkpt>
      <trkpt lat="47.50598" lon="-2.76275">
        <ele>15.5</ele>
        <time>2026-08-29T14:43:18Z</time>
      </trkpt>
      <trkpt lat="47.50601" lon="-2.76274">
        <ele>15.6</ele>
        <time>2026-08-29T14:43:19Z</time>
      </trkpt>
      <trkpt lat="47.50604" lon="-2.76273">
        <ele>15.7</ele>
        <time>2026-08-29T14:43:20Z</time>
      </trkpt>
      <trkpt lat="47.50607" lon="-2.76272">
        <ele>15.9</ele>
        <time>2026-08-29T14:43:21Z</time>
      </trkpt>
      <trkpt lat="47.5061" lon="-2.76271">
        <ele>16</ele>
        <time>2026-08-29T14:43:22Z</time>
      </trkpt>
      <trkpt lat="47.50613" lon="-2.7627">
        <ele>16.1</ele>
        <time>2026-08-29T14:43:23Z</time>
      </trkpt>
      <trkpt lat="47.50615" lon="-2.76268">
        <ele>16.2</ele>
        <time>2026-08-29T14:43:24Z</time>
      </trkpt>
      <trkpt lat="47.50617" lon="-2.76265">
        <ele>16.3</ele>
        <time>2026-08-29T14:43:25Z</time>
      </trkpt>
      <trkpt lat="47.50619" lon="-2.76263">
        <ele>16.4</ele>
        <time>2026-08-29T14:43:26Z</time>
      </trkpt>
      <trkpt lat="47.50622" lon="-2.7626">
        <ele>16.6</ele>
        <time>2026-08-29T14:43:27Z</time>
      </trkpt>
      <trkpt lat="47.50624" lon="-2.76257">
        <ele>16.8</ele>
        <time>2026-08-29T14:43:28Z</time>
      </trkpt>
      <trkpt lat="47.50626" lon="-2.76255">
        <ele>17</ele>
        <time>2026-08-29T14:43:29Z</time>
      </trkpt>
      <trkpt lat="47.50628" lon="-2.76253">
        <ele>17.2</ele>
        <time>2026-08-29T14:43:30Z</time>
      </trkpt>
      <trkpt lat="47.5063" lon="-2.76251">
        <ele>17.3</ele>
        <time>2026-08-29T14:43:31Z</time>
      </trkpt>
      <trkpt lat="47.50632" lon="-2.76249">
        <ele>17.5</ele>
        <time>2026-08-29T14:43:32Z</time>
      </trkpt>
      <trkpt lat="47.50635" lon="-2.76247">
        <ele>17.7</ele>
        <time>2026-08-29T14:43:33Z</time>
      </trkpt>
      <trkpt lat="47.50637" lon="-2.76245">
        <ele>17.9</ele>
        <time>2026-08-29T14:43:34Z</time>
      </trkpt>
      <trkpt lat="47.5064" lon="-2.76243">
        <ele>18</ele>
        <time>2026-08-29T14:43:35Z</time>
      </trkpt>
      <trkpt lat="47.50642" lon="-2.76241">
        <ele>18.1</ele>
        <time>2026-08-29T14:43:36Z</time>
      </trkpt>
      <trkpt lat="47.50644" lon="-2.76239">
        <ele>18.2</ele>
        <time>2026-08-29T14:43:37Z</time>
      </trkpt>
      <trkpt lat="47.50647" lon="-2.76238">
        <ele>18.3</ele>
        <time>2026-08-29T14:43:38Z</time>
      </trkpt>
      <trkpt lat="47.50649" lon="-2.76237">
        <ele>18.4</ele>
        <time>2026-08-29T14:43:39Z</time>
      </trkpt>
      <trkpt lat="47.50652" lon="-2.76235">
        <ele>18.5</ele>
        <time>2026-08-29T14:43:40Z</time>
      </trkpt>
      <trkpt lat="47.50654" lon="-2.76234">
        <ele>18.5</ele>
        <time>2026-08-29T14:43:41Z</time>
      </trkpt>
      <trkpt lat="47.50657" lon="-2.76232">
        <ele>18.7</ele>
        <time>2026-08-29T14:43:42Z</time>
      </trkpt>
      <trkpt lat="47.50659" lon="-2.76231">
        <ele>18.7</ele>
        <time>2026-08-29T14:43:43Z</time>
      </trkpt>
      <trkpt lat="47.50661" lon="-2.7623">
        <ele>18.8</ele>
        <time>2026-08-29T14:43:44Z</time>
      </trkpt>
      <trkpt lat="47.50663" lon="-2.7623">
        <ele>18.9</ele>
        <time>2026-08-29T14:43:45Z</time>
      </trkpt>
      <trkpt lat="47.50665" lon="-2.76229">
        <ele>18.9</ele>
        <time>2026-08-29T14:43:46Z</time>
      </trkpt>
      <trkpt lat="47.50667" lon="-2.76228">
        <ele>19</ele>
        <time>2026-08-29T14:43:47Z</time>
      </trkpt>
      <trkpt lat="47.50668" lon="-2.76227">
        <ele>19.1</ele>
        <time>2026-08-29T14:43:48Z</time>
      </trkpt>
      <trkpt lat="47.5067" lon="-2.76227">
        <ele>19.2</ele>
        <time>2026-08-29T14:43:49Z</time>
      </trkpt>
      <trkpt lat="47.50673" lon="-2.76226">
        <ele>19.5</ele>
        <time>2026-08-29T14:43:50Z</time>
      </trkpt>
      <trkpt lat="47.50675" lon="-2.76226">
        <ele>19.6</ele>
        <time>2026-08-29T14:43:51Z</time>
      </trkpt>
      <trkpt lat="47.50677" lon="-2.76225">
        <ele>19.7</ele>
        <time>2026-08-29T14:43:52Z</time>
      </trkpt>
      <trkpt lat="47.50679" lon="-2.76225">
        <ele>19.9</ele>
        <time>2026-08-29T14:43:53Z</time>
      </trkpt>
      <trkpt lat="47.50682" lon="-2.76225">
        <ele>20.1</ele>
        <time>2026-08-29T14:43:54Z</time>
      </trkpt>
      <trkpt lat="47.50684" lon="-2.76225">
        <ele>20.2</ele>
        <time>2026-08-29T14:43:55Z</time>
      </trkpt>
      <trkpt lat="47.50686" lon="-2.76225">
        <ele>20.4</ele>
        <time>2026-08-29T14:43:56Z</time>
      </trkpt>
      <trkpt lat="47.50688" lon="-2.76225">
        <ele>20.5</ele>
        <time>2026-08-29T14:43:57Z</time>
      </trkpt>
      <trkpt lat="47.5069" lon="-2.76225">
        <ele>20.7</ele>
        <time>2026-08-29T14:43:58Z</time>
      </trkpt>
      <trkpt lat="47.50692" lon="-2.76226">
        <ele>20.8</ele>
        <time>2026-08-29T14:43:59Z</time>
      </trkpt>
      <trkpt lat="47.50694" lon="-2.76226">
        <ele>21</ele>
        <time>2026-08-29T14:44:00Z</time>
      </trkpt>
      <trkpt lat="47.50697" lon="-2.76226">
        <ele>21.2</ele>
        <time>2026-08-29T14:44:01Z</time>
      </trkpt>
      <trkpt lat="47.50699" lon="-2.76226">
        <ele>21.3</ele>
        <time>2026-08-29T14:44:02Z</time>
      </trkpt>
      <trkpt lat="47.50701" lon="-2.76226">
        <ele>21.5</ele>
        <time>2026-08-29T14:44:03Z</time>
      </trkpt>
      <trkpt lat="47.50703" lon="-2.76226">
        <ele>21.6</ele>
        <time>2026-08-29T14:44:04Z</time>
      </trkpt>
      <trkpt lat="47.50705" lon="-2.76226">
        <ele>21.8</ele>
        <time>2026-08-29T14:44:05Z</time>
      </trkpt>
      <trkpt lat="47.50707" lon="-2.76226">
        <ele>21.9</ele>
        <time>2026-08-29T14:44:06Z</time>
      </trkpt>
      <trkpt lat="47.50709" lon="-2.76226">
        <ele>22</ele>
        <time>2026-08-29T14:44:07Z</time>
      </trkpt>
      <trkpt lat="47.50711" lon="-2.76227">
        <ele>22.2</ele>
        <time>2026-08-29T14:44:08Z</time>
      </trkpt>
      <trkpt lat="47.50713" lon="-2.76227">
        <ele>22.3</ele>
        <time>2026-08-29T14:44:09Z</time>
      </trkpt>
      <trkpt lat="47.50715" lon="-2.76227">
        <ele>22.5</ele>
        <time>2026-08-29T14:44:10Z</time>
      </trkpt>
      <trkpt lat="47.50717" lon="-2.76228">
        <ele>22.6</ele>
        <time>2026-08-29T14:44:11Z</time>
      </trkpt>
      <trkpt lat="47.50719" lon="-2.76228">
        <ele>22.8</ele>
        <time>2026-08-29T14:44:12Z</time>
      </trkpt>
      <trkpt lat="47.50721" lon="-2.76229">
        <ele>22.9</ele>
        <time>2026-08-29T14:44:13Z</time>
      </trkpt>
      <trkpt lat="47.50723" lon="-2.76229">
        <ele>23.1</ele>
        <time>2026-08-29T14:44:14Z</time>
      </trkpt>
      <trkpt lat="47.50725" lon="-2.7623">
        <ele>23.2</ele>
        <time>2026-08-29T14:44:15Z</time>
      </trkpt>
      <trkpt lat="47.50727" lon="-2.76231">
        <ele>23.3</ele>
        <time>2026-08-29T14:44:16Z</time>
      </trkpt>
      <trkpt lat="47.50729" lon="-2.76232">
        <ele>23.5</ele>
        <time>2026-08-29T14:44:17Z</time>
      </trkpt>
      <trkpt lat="47.50731" lon="-2.76233">
        <ele>23.6</ele>
        <time>2026-08-29T14:44:18Z</time>
      </trkpt>
      <trkpt lat="47.50733" lon="-2.76234">
        <ele>23.8</ele>
        <time>2026-08-29T14:44:19Z</time>
      </trkpt>
      <trkpt lat="47.50735" lon="-2.76234">
        <ele>23.9</ele>
        <time>2026-08-29T14:44:20Z</time>
      </trkpt>
      <trkpt lat="47.50736" lon="-2.76235">
        <ele>24</ele>
        <time>2026-08-29T14:44:21Z</time>
      </trkpt>
      <trkpt lat="47.50738" lon="-2.76235">
        <ele>24.1</ele>
        <time>2026-08-29T14:44:22Z</time>
      </trkpt>
      <trkpt lat="47.50739" lon="-2.76236">
        <ele>24.2</ele>
        <time>2026-08-29T14:44:23Z</time>
      </trkpt>
      <trkpt lat="47.50741" lon="-2.76238">
        <ele>24.4</ele>
        <time>2026-08-29T14:44:24Z</time>
      </trkpt>
      <trkpt lat="47.50742" lon="-2.76239">
        <ele>24.4</ele>
        <time>2026-08-29T14:44:25Z</time>
      </trkpt>
      <trkpt lat="47.50744" lon="-2.76241">
        <ele>24.6</ele>
        <time>2026-08-29T14:44:26Z</time>
      </trkpt>
      <trkpt lat="47.50746" lon="-2.76242">
        <ele>24.7</ele>
        <time>2026-08-29T14:44:27Z</time>
      </trkpt>
      <trkpt lat="47.50748" lon="-2.76244">
        <ele>24.9</ele>
        <time>2026-08-29T14:44:28Z</time>
      </trkpt>
      <trkpt lat="47.50749" lon="-2.76246">
        <ele>24.9</ele>
        <time>2026-08-29T14:44:29Z</time>
      </trkpt>
      <trkpt lat="47.50751" lon="-2.76248">
        <ele>25.1</ele>
        <time>2026-08-29T14:44:30Z</time>
      </trkpt>
      <trkpt lat="47.50753" lon="-2.7625">
        <ele>25.2</ele>
        <time>2026-08-29T14:44:31Z</time>
      </trkpt>
      <trkpt lat="47.50755" lon="-2.76252">
        <ele>25.3</ele>
        <time>2026-08-29T14:44:32Z</time>
      </trkpt>
      <trkpt lat="47.50756" lon="-2.76254">
        <ele>25.3</ele>
        <time>2026-08-29T14:44:33Z</time>
      </trkpt>
      <trkpt lat="47.50758" lon="-2.76257">
        <ele>25.3</ele>
        <time>2026-08-29T14:44:34Z</time>
      </trkpt>
      <trkpt lat="47.50759" lon="-2.76259">
        <ele>25.3</ele>
        <time>2026-08-29T14:44:35Z</time>
      </trkpt>
      <trkpt lat="47.50761" lon="-2.76262">
        <ele>25.4</ele>
        <time>2026-08-29T14:44:36Z</time>
      </trkpt>
      <trkpt lat="47.50763" lon="-2.76264">
        <ele>25.4</ele>
        <time>2026-08-29T14:44:37Z</time>
      </trkpt>
      <trkpt lat="47.50765" lon="-2.76266">
        <ele>25.5</ele>
        <time>2026-08-29T14:44:38Z</time>
      </trkpt>
      <trkpt lat="47.50767" lon="-2.76268">
        <ele>25.6</ele>
        <time>2026-08-29T14:44:39Z</time>
      </trkpt>
      <trkpt lat="47.50769" lon="-2.76269">
        <ele>25.7</ele>
        <time>2026-08-29T14:44:40Z</time>
      </trkpt>
      <trkpt lat="47.50772" lon="-2.76268">
        <ele>25.9</ele>
        <time>2026-08-29T14:44:41Z</time>
      </trkpt>
      <trkpt lat="47.50775" lon="-2.76268">
        <ele>26.2</ele>
        <time>2026-08-29T14:44:42Z</time>
      </trkpt>
      <trkpt lat="47.50777" lon="-2.76267">
        <ele>26.3</ele>
        <time>2026-08-29T14:44:43Z</time>
      </trkpt>
      <trkpt lat="47.5078" lon="-2.76267">
        <ele>26.5</ele>
        <time>2026-08-29T14:44:44Z</time>
      </trkpt>
      <trkpt lat="47.50782" lon="-2.76266">
        <ele>26.6</ele>
        <time>2026-08-29T14:44:45Z</time>
      </trkpt>
      <trkpt lat="47.50785" lon="-2.76265">
        <ele>26.7</ele>
        <time>2026-08-29T14:44:46Z</time>
      </trkpt>
      <trkpt lat="47.50787" lon="-2.76264">
        <ele>26.8</ele>
        <time>2026-08-29T14:44:47Z</time>
      </trkpt>
      <trkpt lat="47.5079" lon="-2.76263">
        <ele>27</ele>
        <time>2026-08-29T14:44:48Z</time>
      </trkpt>
      <trkpt lat="47.50792" lon="-2.76262">
        <ele>27.1</ele>
        <time>2026-08-29T14:44:49Z</time>
      </trkpt>
      <trkpt lat="47.50795" lon="-2.7626">
        <ele>27.3</ele>
        <time>2026-08-29T14:44:50Z</time>
      </trkpt>
      <trkpt lat="47.50797" lon="-2.76259">
        <ele>27.4</ele>
        <time>2026-08-29T14:44:51Z</time>
      </trkpt>
      <trkpt lat="47.508" lon="-2.76258">
        <ele>27.5</ele>
        <time>2026-08-29T14:44:52Z</time>
      </trkpt>
      <trkpt lat="47.50802" lon="-2.76257">
        <ele>27.6</ele>
        <time>2026-08-29T14:44:53Z</time>
      </trkpt>
      <trkpt lat="47.50804" lon="-2.76255">
        <ele>27.8</ele>
        <time>2026-08-29T14:44:54Z</time>
      </trkpt>
      <trkpt lat="47.50807" lon="-2.76254">
        <ele>27.9</ele>
        <time>2026-08-29T14:44:55Z</time>
      </trkpt>
      <trkpt lat="47.50809" lon="-2.76253">
        <ele>27.9</ele>
        <time>2026-08-29T14:44:56Z</time>
      </trkpt>
      <trkpt lat="47.50812" lon="-2.76252">
        <ele>27.9</ele>
        <time>2026-08-29T14:44:57Z</time>
      </trkpt>
      <trkpt lat="47.50814" lon="-2.7625">
        <ele>28</ele>
        <time>2026-08-29T14:44:58Z</time>
      </trkpt>
      <trkpt lat="47.50817" lon="-2.76249">
        <ele>28</ele>
        <time>2026-08-29T14:44:59Z</time>
      </trkpt>
      <trkpt lat="47.5082" lon="-2.76247">
        <ele>28.1</ele>
        <time>2026-08-29T14:45:00Z</time>
      </trkpt>
      <trkpt lat="47.50822" lon="-2.76246">
        <ele>28.1</ele>
        <time>2026-08-29T14:45:01Z</time>
      </trkpt>
      <trkpt lat="47.50824" lon="-2.76244">
        <ele>28.1</ele>
        <time>2026-08-29T14:45:02Z</time>
      </trkpt>
      <trkpt lat="47.50827" lon="-2.76242">
        <ele>28.2</ele>
        <time>2026-08-29T14:45:03Z</time>
      </trkpt>
      <trkpt lat="47.50829" lon="-2.7624">
        <ele>28.3</ele>
        <time>2026-08-29T14:45:04Z</time>
      </trkpt>
      <trkpt lat="47.50832" lon="-2.76238">
        <ele>28.4</ele>
        <time>2026-08-29T14:45:05Z</time>
      </trkpt>
      <trkpt lat="47.50834" lon="-2.76237">
        <ele>28.5</ele>
        <time>2026-08-29T14:45:06Z</time>
      </trkpt>
      <trkpt lat="47.50836" lon="-2.76235">
        <ele>28.6</ele>
        <time>2026-08-29T14:45:07Z</time>
      </trkpt>
      <trkpt lat="47.50839" lon="-2.76233">
        <ele>28.7</ele>
        <time>2026-08-29T14:45:08Z</time>
      </trkpt>
      <trkpt lat="47.50841" lon="-2.76232">
        <ele>28.7</ele>
        <time>2026-08-29T14:45:09Z</time>
      </trkpt>
      <trkpt lat="47.50844" lon="-2.7623">
        <ele>28.8</ele>
        <time>2026-08-29T14:45:10Z</time>
      </trkpt>
      <trkpt lat="47.50846" lon="-2.76229">
        <ele>28.9</ele>
        <time>2026-08-29T14:45:11Z</time>
      </trkpt>
      <trkpt lat="47.50849" lon="-2.76227">
        <ele>28.9</ele>
        <time>2026-08-29T14:45:12Z</time>
      </trkpt>
      <trkpt lat="47.50851" lon="-2.76226">
        <ele>29</ele>
        <time>2026-08-29T14:45:13Z</time>
      </trkpt>
      <trkpt lat="47.50854" lon="-2.76225">
        <ele>29</ele>
        <time>2026-08-29T14:45:14Z</time>
      </trkpt>
      <trkpt lat="47.50856" lon="-2.76224">
        <ele>29</ele>
        <time>2026-08-29T14:45:15Z</time>
      </trkpt>
      <trkpt lat="47.50859" lon="-2.76223">
        <ele>29</ele>
        <time>2026-08-29T14:45:16Z</time>
      </trkpt>
      <trkpt lat="47.50862" lon="-2.76222">
        <ele>29</ele>
        <time>2026-08-29T14:45:17Z</time>
      </trkpt>
      <trkpt lat="47.50865" lon="-2.76221">
        <ele>29.1</ele>
        <time>2026-08-29T14:45:18Z</time>
      </trkpt>
      <trkpt lat="47.50867" lon="-2.7622">
        <ele>29.2</ele>
        <time>2026-08-29T14:45:19Z</time>
      </trkpt>
      <trkpt lat="47.5087" lon="-2.76219">
        <ele>29.3</ele>
        <time>2026-08-29T14:45:20Z</time>
      </trkpt>
      <trkpt lat="47.50873" lon="-2.76217">
        <ele>29.4</ele>
        <time>2026-08-29T14:45:21Z</time>
      </trkpt>
      <trkpt lat="47.50876" lon="-2.76216">
        <ele>29.5</ele>
        <time>2026-08-29T14:45:22Z</time>
      </trkpt>
      <trkpt lat="47.50878" lon="-2.76215">
        <ele>29.6</ele>
        <time>2026-08-29T14:45:23Z</time>
      </trkpt>
      <trkpt lat="47.50881" lon="-2.76213">
        <ele>29.7</ele>
        <time>2026-08-29T14:45:24Z</time>
      </trkpt>
      <trkpt lat="47.50884" lon="-2.76212">
        <ele>29.8</ele>
        <time>2026-08-29T14:45:25Z</time>
      </trkpt>
      <trkpt lat="47.50887" lon="-2.7621">
        <ele>29.9</ele>
        <time>2026-08-29T14:45:26Z</time>
      </trkpt>
      <trkpt lat="47.5089" lon="-2.76208">
        <ele>30</ele>
        <time>2026-08-29T14:45:27Z</time>
      </trkpt>
      <trkpt lat="47.50893" lon="-2.76207">
        <ele>30</ele>
        <time>2026-08-29T14:45:28Z</time>
      </trkpt>
      <trkpt lat="47.50896" lon="-2.76205">
        <ele>30</ele>
        <time>2026-08-29T14:45:29Z</time>
      </trkpt>
      <trkpt lat="47.50899" lon="-2.76202">
        <ele>30</ele>
        <time>2026-08-29T14:45:30Z</time>
      </trkpt>
      <trkpt lat="47.50901" lon="-2.76198">
        <ele>30</ele>
        <time>2026-08-29T14:45:31Z</time>
      </trkpt>
      <trkpt lat="47.50903" lon="-2.76195">
        <ele>30</ele>
        <time>2026-08-29T14:45:32Z</time>
      </trkpt>
      <trkpt lat="47.50906" lon="-2.76192">
        <ele>29.9</ele>
        <time>2026-08-29T14:45:33Z</time>
      </trkpt>
      <trkpt lat="47.5091" lon="-2.7619">
        <ele>29.8</ele>
        <time>2026-08-29T14:45:34Z</time>
      </trkpt>
      <trkpt lat="47.50913" lon="-2.76188">
        <ele>29.8</ele>
        <time>2026-08-29T14:45:35Z</time>
      </trkpt>
      <trkpt lat="47.50917" lon="-2.76186">
        <ele>29.7</ele>
        <time>2026-08-29T14:45:36Z</time>
      </trkpt>
      <trkpt lat="47.50921" lon="-2.76184">
        <ele>29.5</ele>
        <time>2026-08-29T14:45:37Z</time>
      </trkpt>
      <trkpt lat="47.50925" lon="-2.76181">
        <ele>29.4</ele>
        <time>2026-08-29T14:45:38Z</time>
      </trkpt>
      <trkpt lat="47.50929" lon="-2.76178">
        <ele>29.2</ele>
        <time>2026-08-29T14:45:39Z</time>
      </trkpt>
      <trkpt lat="47.50933" lon="-2.76176">
        <ele>29.1</ele>
        <time>2026-08-29T14:45:40Z</time>
      </trkpt>
      <trkpt lat="47.50937" lon="-2.76173">
        <ele>29.1</ele>
        <time>2026-08-29T14:45:41Z</time>
      </trkpt>
      <trkpt lat="47.50941" lon="-2.7617">
        <ele>29</ele>
        <time>2026-08-29T14:45:42Z</time>
      </trkpt>
      <trkpt lat="47.50945" lon="-2.76167">
        <ele>29</ele>
        <time>2026-08-29T14:45:43Z</time>
      </trkpt>
      <trkpt lat="47.5095" lon="-2.76164">
        <ele>28.7</ele>
        <time>2026-08-29T14:45:44Z</time>
      </trkpt>
      <trkpt lat="47.50954" lon="-2.76161">
        <ele>28.5</ele>
        <time>2026-08-29T14:45:45Z</time>
      </trkpt>
      <trkpt lat="47.50959" lon="-2.76158">
        <ele>28.2</ele>
        <time>2026-08-29T14:45:46Z</time>
      </trkpt>
      <trkpt lat="47.50964" lon="-2.76155">
        <ele>27.9</ele>
        <time>2026-08-29T14:45:47Z</time>
      </trkpt>
      <trkpt lat="47.50969" lon="-2.76152">
        <ele>27.6</ele>
        <time>2026-08-29T14:45:48Z</time>
      </trkpt>
      <trkpt lat="47.50975" lon="-2.7615">
        <ele>27.3</ele>
        <time>2026-08-29T14:45:49Z</time>
      </trkpt>
      <trkpt lat="47.50979" lon="-2.76148">
        <ele>27.1</ele>
        <time>2026-08-29T14:45:50Z</time>
      </trkpt>
      <trkpt lat="47.50983" lon="-2.76144">
        <ele>26.8</ele>
        <time>2026-08-29T14:45:51Z</time>
      </trkpt>
      <trkpt lat="47.50987" lon="-2.76139">
        <ele>26.5</ele>
        <time>2026-08-29T14:45:52Z</time>
      </trkpt>
      <trkpt lat="47.5099" lon="-2.76133">
        <ele>26.1</ele>
        <time>2026-08-29T14:45:53Z</time>
      </trkpt>
      <trkpt lat="47.50992" lon="-2.76126">
        <ele>25.8</ele>
        <time>2026-08-29T14:45:54Z</time>
      </trkpt>
      <trkpt lat="47.50993" lon="-2.76118">
        <ele>25.5</ele>
        <time>2026-08-29T14:45:55Z</time>
      </trkpt>
      <trkpt lat="47.50993" lon="-2.76109">
        <ele>25.2</ele>
        <time>2026-08-29T14:45:56Z</time>
      </trkpt>
      <trkpt lat="47.50993" lon="-2.761">
        <ele>24.8</ele>
        <time>2026-08-29T14:45:57Z</time>
      </trkpt>
      <trkpt lat="47.50993" lon="-2.7609">
        <ele>24.3</ele>
        <time>2026-08-29T14:45:58Z</time>
      </trkpt>
      <trkpt lat="47.50993" lon="-2.7608">
        <ele>23.8</ele>
        <time>2026-08-29T14:45:59Z</time>
      </trkpt>
      <trkpt lat="47.50992" lon="-2.76071">
        <ele>23.2</ele>
        <time>2026-08-29T14:46:00Z</time>
      </trkpt>
      <trkpt lat="47.50992" lon="-2.76062">
        <ele>22.7</ele>
        <time>2026-08-29T14:46:01Z</time>
      </trkpt>
      <trkpt lat="47.50992" lon="-2.76054">
        <ele>22.2</ele>
        <time>2026-08-29T14:46:02Z</time>
      </trkpt>
      <trkpt lat="47.50993" lon="-2.76048">
        <ele>22</ele>
        <time>2026-08-29T14:46:03Z</time>
      </trkpt>
      <trkpt lat="47.50995" lon="-2.76043">
        <ele>21.7</ele>
        <time>2026-08-29T14:46:04Z</time>
      </trkpt>
      <trkpt lat="47.50999" lon="-2.7604">
        <ele>21.5</ele>
        <time>2026-08-29T14:46:05Z</time>
      </trkpt>
      <trkpt lat="47.51003" lon="-2.76037">
        <ele>21.3</ele>
        <time>2026-08-29T14:46:06Z</time>
      </trkpt>
      <trkpt lat="47.51008" lon="-2.76034">
        <ele>21</ele>
        <time>2026-08-29T14:46:07Z</time>
      </trkpt>
      <trkpt lat="47.51013" lon="-2.76032">
        <ele>20.8</ele>
        <time>2026-08-29T14:46:08Z</time>
      </trkpt>
      <trkpt lat="47.51018" lon="-2.76029">
        <ele>20.4</ele>
        <time>2026-08-29T14:46:09Z</time>
      </trkpt>
      <trkpt lat="47.51024" lon="-2.76026">
        <ele>20.1</ele>
        <time>2026-08-29T14:46:10Z</time>
      </trkpt>
      <trkpt lat="47.51029" lon="-2.76023">
        <ele>19.8</ele>
        <time>2026-08-29T14:46:11Z</time>
      </trkpt>
      <trkpt lat="47.51035" lon="-2.76021">
        <ele>19.7</ele>
        <time>2026-08-29T14:46:12Z</time>
      </trkpt>
      <trkpt lat="47.51041" lon="-2.76018">
        <ele>19.5</ele>
        <time>2026-08-29T14:46:13Z</time>
      </trkpt>
      <trkpt lat="47.51046" lon="-2.76015">
        <ele>19.2</ele>
        <time>2026-08-29T14:46:14Z</time>
      </trkpt>
      <trkpt lat="47.51052" lon="-2.76012">
        <ele>18.9</ele>
        <time>2026-08-29T14:46:15Z</time>
      </trkpt>
      <trkpt lat="47.51058" lon="-2.76009">
        <ele>18.6</ele>
        <time>2026-08-29T14:46:16Z</time>
      </trkpt>
      <trkpt lat="47.51063" lon="-2.76005">
        <ele>18.3</ele>
        <time>2026-08-29T14:46:17Z</time>
      </trkpt>
      <trkpt lat="47.51067" lon="-2.76">
        <ele>18</ele>
        <time>2026-08-29T14:46:18Z</time>
      </trkpt>
      <trkpt lat="47.51071" lon="-2.75994">
        <ele>17.8</ele>
        <time>2026-08-29T14:46:19Z</time>
      </trkpt>
      <trkpt lat="47.51073" lon="-2.75986">
        <ele>17.5</ele>
        <time>2026-08-29T14:46:20Z</time>
      </trkpt>
      <trkpt lat="47.51075" lon="-2.75978">
        <ele>17.2</ele>
        <time>2026-08-29T14:46:21Z</time>
      </trkpt>
      <trkpt lat="47.51077" lon="-2.75969">
        <ele>16.8</ele>
        <time>2026-08-29T14:46:22Z</time>
      </trkpt>
      <trkpt lat="47.51079" lon="-2.75959">
        <ele>16.1</ele>
        <time>2026-08-29T14:46:23Z</time>
      </trkpt>
      <trkpt lat="47.51082" lon="-2.75949">
        <ele>15.4</ele>
        <time>2026-08-29T14:46:24Z</time>
      </trkpt>
      <trkpt lat="47.51086" lon="-2.75939">
        <ele>14.7</ele>
        <time>2026-08-29T14:46:25Z</time>
      </trkpt>
      <trkpt lat="47.51088" lon="-2.75929">
        <ele>14.3</ele>
        <time>2026-08-29T14:46:26Z</time>
      </trkpt>
      <trkpt lat="47.5109" lon="-2.75921">
        <ele>13.9</ele>
        <time>2026-08-29T14:46:27Z</time>
      </trkpt>
      <trkpt lat="47.51093" lon="-2.75916">
        <ele>13.7</ele>
        <time>2026-08-29T14:46:28Z</time>
      </trkpt>
      <trkpt lat="47.51096" lon="-2.75912">
        <ele>13.6</ele>
        <time>2026-08-29T14:46:29Z</time>
      </trkpt>
      <trkpt lat="47.511" lon="-2.75909">
        <ele>13.3</ele>
        <time>2026-08-29T14:46:30Z</time>
      </trkpt>
      <trkpt lat="47.51105" lon="-2.75905">
        <ele>13</ele>
        <time>2026-08-29T14:46:31Z</time>
      </trkpt>
      <trkpt lat="47.5111" lon="-2.75902">
        <ele>12.6</ele>
        <time>2026-08-29T14:46:32Z</time>
      </trkpt>
      <trkpt lat="47.51116" lon="-2.75898">
        <ele>12.2</ele>
        <time>2026-08-29T14:46:33Z</time>
      </trkpt>
      <trkpt lat="47.51121" lon="-2.75894">
        <ele>11.8</ele>
        <time>2026-08-29T14:46:34Z</time>
      </trkpt>
      <trkpt lat="47.51127" lon="-2.75891">
        <ele>11.5</ele>
        <time>2026-08-29T14:46:35Z</time>
      </trkpt>
      <trkpt lat="47.51133" lon="-2.75887">
        <ele>11.2</ele>
        <time>2026-08-29T14:46:36Z</time>
      </trkpt>
      <trkpt lat="47.51139" lon="-2.75885">
        <ele>11</ele>
        <time>2026-08-29T14:46:37Z</time>
      </trkpt>
      <trkpt lat="47.51145" lon="-2.75881">
        <ele>10.8</ele>
        <time>2026-08-29T14:46:38Z</time>
      </trkpt>
      <trkpt lat="47.51151" lon="-2.75877">
        <ele>10.6</ele>
        <time>2026-08-29T14:46:39Z</time>
      </trkpt>
      <trkpt lat="47.51157" lon="-2.75873">
        <ele>10.3</ele>
        <time>2026-08-29T14:46:40Z</time>
      </trkpt>
      <trkpt lat="47.51163" lon="-2.75869">
        <ele>10.1</ele>
        <time>2026-08-29T14:46:41Z</time>
      </trkpt>
      <trkpt lat="47.51169" lon="-2.75864">
        <ele>9.9</ele>
        <time>2026-08-29T14:46:42Z</time>
      </trkpt>
      <trkpt lat="47.51175" lon="-2.75859">
        <ele>9.6</ele>
        <time>2026-08-29T14:46:43Z</time>
      </trkpt>
      <trkpt lat="47.51182" lon="-2.75855">
        <ele>9.2</ele>
        <time>2026-08-29T14:46:44Z</time>
      </trkpt>
      <trkpt lat="47.51188" lon="-2.7585">
        <ele>8.8</ele>
        <time>2026-08-29T14:46:45Z</time>
      </trkpt>
      <trkpt lat="47.51194" lon="-2.75847">
        <ele>8.5</ele>
        <time>2026-08-29T14:46:46Z</time>
      </trkpt>
      <trkpt lat="47.51199" lon="-2.75843">
        <ele>8.3</ele>
        <time>2026-08-29T14:46:47Z</time>
      </trkpt>
      <trkpt lat="47.51204" lon="-2.7584">
        <ele>8.2</ele>
        <time>2026-08-29T14:46:48Z</time>
      </trkpt>
      <trkpt lat="47.51208" lon="-2.75838">
        <ele>8.1</ele>
        <time>2026-08-29T14:46:49Z</time>
      </trkpt>
      <trkpt lat="47.51211" lon="-2.75836">
        <ele>8</ele>
        <time>2026-08-29T14:46:50Z</time>
      </trkpt>
      <trkpt lat="47.51214" lon="-2.75833">
        <ele>8</ele>
        <time>2026-08-29T14:46:51Z</time>
      </trkpt>
      <trkpt lat="47.51216" lon="-2.75828">
        <ele>7.9</ele>
        <time>2026-08-29T14:46:52Z</time>
      </trkpt>
      <trkpt lat="47.51216" lon="-2.75823">
        <ele>7.7</ele>
        <time>2026-08-29T14:46:53Z</time>
      </trkpt>
      <trkpt lat="47.51214" lon="-2.75818">
        <ele>7.6</ele>
        <time>2026-08-29T14:46:54Z</time>
      </trkpt>
      <trkpt lat="47.51212" lon="-2.75812">
        <ele>7.5</ele>
        <time>2026-08-29T14:46:55Z</time>
      </trkpt>
      <trkpt lat="47.51209" lon="-2.75807">
        <ele>7.5</ele>
        <time>2026-08-29T14:46:56Z</time>
      </trkpt>
      <trkpt lat="47.51207" lon="-2.75801">
        <ele>7.4</ele>
        <time>2026-08-29T14:46:57Z</time>
      </trkpt>
      <trkpt lat="47.51204" lon="-2.75795">
        <ele>7.3</ele>
        <time>2026-08-29T14:46:58Z</time>
      </trkpt>
      <trkpt lat="47.51202" lon="-2.7579">
        <ele>7.2</ele>
        <time>2026-08-29T14:46:59Z</time>
      </trkpt>
      <trkpt lat="47.51198" lon="-2.75784">
        <ele>7.1</ele>
        <time>2026-08-29T14:47:00Z</time>
      </trkpt>
      <trkpt lat="47.51195" lon="-2.75778">
        <ele>7</ele>
        <time>2026-08-29T14:47:01Z</time>
      </trkpt>
      <trkpt lat="47.51192" lon="-2.75772">
        <ele>7.1</ele>
        <time>2026-08-29T14:47:02Z</time>
      </trkpt>
      <trkpt lat="47.51189" lon="-2.75765">
        <ele>7.2</ele>
        <time>2026-08-29T14:47:03Z</time>
      </trkpt>
      <trkpt lat="47.51185" lon="-2.75759">
        <ele>7.3</ele>
        <time>2026-08-29T14:47:04Z</time>
      </trkpt>
      <trkpt lat="47.51181" lon="-2.75754">
        <ele>7.5</ele>
        <time>2026-08-29T14:47:05Z</time>
      </trkpt>
      <trkpt lat="47.51177" lon="-2.75748">
        <ele>7.6</ele>
        <time>2026-08-29T14:47:06Z</time>
      </trkpt>
      <trkpt lat="47.51173" lon="-2.75742">
        <ele>7.5</ele>
        <time>2026-08-29T14:47:07Z</time>
      </trkpt>
      <trkpt lat="47.51169" lon="-2.75737">
        <ele>7.4</ele>
        <time>2026-08-29T14:47:08Z</time>
      </trkpt>
      <trkpt lat="47.51165" lon="-2.75731">
        <ele>7.4</ele>
        <time>2026-08-29T14:47:09Z</time>
      </trkpt>
      <trkpt lat="47.51161" lon="-2.75726">
        <ele>7.3</ele>
        <time>2026-08-29T14:47:10Z</time>
      </trkpt>
      <trkpt lat="47.51157" lon="-2.7572">
        <ele>7.3</ele>
        <time>2026-08-29T14:47:11Z</time>
      </trkpt>
      <trkpt lat="47.51153" lon="-2.75714">
        <ele>7.2</ele>
        <time>2026-08-29T14:47:12Z</time>
      </trkpt>
      <trkpt lat="47.51149" lon="-2.75708">
        <ele>7.1</ele>
        <time>2026-08-29T14:47:13Z</time>
      </trkpt>
      <trkpt lat="47.51145" lon="-2.75703">
        <ele>7.1</ele>
        <time>2026-08-29T14:47:14Z</time>
      </trkpt>
      <trkpt lat="47.51141" lon="-2.75697">
        <ele>7</ele>
        <time>2026-08-29T14:47:15Z</time>
      </trkpt>
      <trkpt lat="47.51138" lon="-2.75692">
        <ele>7</ele>
        <time>2026-08-29T14:47:16Z</time>
      </trkpt>
      <trkpt lat="47.51134" lon="-2.75687">
        <ele>7.1</ele>
        <time>2026-08-29T14:47:17Z</time>
      </trkpt>
      <trkpt lat="47.51131" lon="-2.75682">
        <ele>7.1</ele>
        <time>2026-08-29T14:47:18Z</time>
      </trkpt>
      <trkpt lat="47.51127" lon="-2.75678">
        <ele>7.3</ele>
        <time>2026-08-29T14:47:19Z</time>
      </trkpt>
      <trkpt lat="47.51124" lon="-2.75673">
        <ele>7.3</ele>
        <time>2026-08-29T14:47:20Z</time>
      </trkpt>
      <trkpt lat="47.5112" lon="-2.75668">
        <ele>7.4</ele>
        <time>2026-08-29T14:47:21Z</time>
      </trkpt>
      <trkpt lat="47.51117" lon="-2.75662">
        <ele>7.4</ele>
        <time>2026-08-29T14:47:22Z</time>
      </trkpt>
      <trkpt lat="47.51114" lon="-2.75656">
        <ele>7.4</ele>
        <time>2026-08-29T14:47:23Z</time>
      </trkpt>
      <trkpt lat="47.5111" lon="-2.7565">
        <ele>7.4</ele>
        <time>2026-08-29T14:47:24Z</time>
      </trkpt>
      <trkpt lat="47.51107" lon="-2.75645">
        <ele>7.4</ele>
        <time>2026-08-29T14:47:25Z</time>
      </trkpt>
      <trkpt lat="47.51104" lon="-2.75638">
        <ele>7.2</ele>
        <time>2026-08-29T14:47:26Z</time>
      </trkpt>
      <trkpt lat="47.51101" lon="-2.75632">
        <ele>7.1</ele>
        <time>2026-08-29T14:47:27Z</time>
      </trkpt>
      <trkpt lat="47.51097" lon="-2.75626">
        <ele>7</ele>
        <time>2026-08-29T14:47:28Z</time>
      </trkpt>
      <trkpt lat="47.51094" lon="-2.7562">
        <ele>6.9</ele>
        <time>2026-08-29T14:47:29Z</time>
      </trkpt>
      <trkpt lat="47.51091" lon="-2.75614">
        <ele>6.8</ele>
        <time>2026-08-29T14:47:30Z</time>
      </trkpt>
      <trkpt lat="47.51088" lon="-2.75608">
        <ele>6.7</ele>
        <time>2026-08-29T14:47:31Z</time>
      </trkpt>
      <trkpt lat="47.51085" lon="-2.75601">
        <ele>6.6</ele>
        <time>2026-08-29T14:47:32Z</time>
      </trkpt>
      <trkpt lat="47.51082" lon="-2.75594">
        <ele>6.5</ele>
        <time>2026-08-29T14:47:33Z</time>
      </trkpt>
      <trkpt lat="47.51079" lon="-2.75587">
        <ele>6.6</ele>
        <time>2026-08-29T14:47:34Z</time>
      </trkpt>
      <trkpt lat="47.51077" lon="-2.7558">
        <ele>6.7</ele>
        <time>2026-08-29T14:47:35Z</time>
      </trkpt>
      <trkpt lat="47.51076" lon="-2.75573">
        <ele>6.8</ele>
        <time>2026-08-29T14:47:36Z</time>
      </trkpt>
      <trkpt lat="47.51074" lon="-2.75566">
        <ele>7</ele>
        <time>2026-08-29T14:47:37Z</time>
      </trkpt>
      <trkpt lat="47.51073" lon="-2.75559">
        <ele>7.1</ele>
        <time>2026-08-29T14:47:38Z</time>
      </trkpt>
      <trkpt lat="47.51072" lon="-2.75551">
        <ele>7.1</ele>
        <time>2026-08-29T14:47:39Z</time>
      </trkpt>
      <trkpt lat="47.51071" lon="-2.75544">
        <ele>6.9</ele>
        <time>2026-08-29T14:47:40Z</time>
      </trkpt>
      <trkpt lat="47.5107" lon="-2.75536">
        <ele>6.7</ele>
        <time>2026-08-29T14:47:41Z</time>
      </trkpt>
      <trkpt lat="47.51069" lon="-2.75529">
        <ele>6.6</ele>
        <time>2026-08-29T14:47:42Z</time>
      </trkpt>
      <trkpt lat="47.51068" lon="-2.75522">
        <ele>6.7</ele>
        <time>2026-08-29T14:47:43Z</time>
      </trkpt>
      <trkpt lat="47.51067" lon="-2.75514">
        <ele>6.8</ele>
        <time>2026-08-29T14:47:44Z</time>
      </trkpt>
      <trkpt lat="47.51067" lon="-2.75507">
        <ele>6.8</ele>
        <time>2026-08-29T14:47:45Z</time>
      </trkpt>
      <trkpt lat="47.51066" lon="-2.755">
        <ele>6.9</ele>
        <time>2026-08-29T14:47:46Z</time>
      </trkpt>
      <trkpt lat="47.51065" lon="-2.75493">
        <ele>6.8</ele>
        <time>2026-08-29T14:47:47Z</time>
      </trkpt>
      <trkpt lat="47.51063" lon="-2.75486">
        <ele>6.8</ele>
        <time>2026-08-29T14:47:48Z</time>
      </trkpt>
      <trkpt lat="47.51062" lon="-2.75479">
        <ele>6.7</ele>
        <time>2026-08-29T14:47:49Z</time>
      </trkpt>
      <trkpt lat="47.51061" lon="-2.75472">
        <ele>6.6</ele>
        <time>2026-08-29T14:47:50Z</time>
      </trkpt>
      <trkpt lat="47.51059" lon="-2.75465">
        <ele>6.8</ele>
        <time>2026-08-29T14:47:51Z</time>
      </trkpt>
      <trkpt lat="47.51057" lon="-2.75459">
        <ele>6.9</ele>
        <time>2026-08-29T14:47:52Z</time>
      </trkpt>
      <trkpt lat="47.51055" lon="-2.75453">
        <ele>7</ele>
        <time>2026-08-29T14:47:53Z</time>
      </trkpt>
      <trkpt lat="47.51052" lon="-2.75447">
        <ele>7.3</ele>
        <time>2026-08-29T14:47:54Z</time>
      </trkpt>
      <trkpt lat="47.5105" lon="-2.75442">
        <ele>7.3</ele>
        <time>2026-08-29T14:47:55Z</time>
      </trkpt>
      <trkpt lat="47.51047" lon="-2.75436">
        <ele>7.3</ele>
        <time>2026-08-29T14:47:56Z</time>
      </trkpt>
      <trkpt lat="47.51043" lon="-2.75431">
        <ele>7.4</ele>
        <time>2026-08-29T14:47:57Z</time>
      </trkpt>
      <trkpt lat="47.5104" lon="-2.75426">
        <ele>7.5</ele>
        <time>2026-08-29T14:47:58Z</time>
      </trkpt>
      <trkpt lat="47.51036" lon="-2.7542">
        <ele>7.5</ele>
        <time>2026-08-29T14:47:59Z</time>
      </trkpt>
      <trkpt lat="47.51033" lon="-2.75415">
        <ele>7.5</ele>
        <time>2026-08-29T14:48:00Z</time>
      </trkpt>
      <trkpt lat="47.51029" lon="-2.7541">
        <ele>7.2</ele>
        <time>2026-08-29T14:48:01Z</time>
      </trkpt>
      <trkpt lat="47.51026" lon="-2.75405">
        <ele>6.9</ele>
        <time>2026-08-29T14:48:02Z</time>
      </trkpt>
      <trkpt lat="47.51023" lon="-2.75401">
        <ele>6.8</ele>
        <time>2026-08-29T14:48:03Z</time>
      </trkpt>
      <trkpt lat="47.5102" lon="-2.75396">
        <ele>6.7</ele>
        <time>2026-08-29T14:48:04Z</time>
      </trkpt>
      <trkpt lat="47.51017" lon="-2.75391">
        <ele>6.7</ele>
        <time>2026-08-29T14:48:05Z</time>
      </trkpt>
      <trkpt lat="47.51015" lon="-2.75387">
        <ele>6.7</ele>
        <time>2026-08-29T14:48:06Z</time>
      </trkpt>
      <trkpt lat="47.51012" lon="-2.75382">
        <ele>6.6</ele>
        <time>2026-08-29T14:48:07Z</time>
      </trkpt>
      <trkpt lat="47.51009" lon="-2.75378">
        <ele>6.7</ele>
        <time>2026-08-29T14:48:08Z</time>
      </trkpt>
      <trkpt lat="47.51006" lon="-2.75373">
        <ele>6.5</ele>
        <time>2026-08-29T14:48:09Z</time>
      </trkpt>
      <trkpt lat="47.51003" lon="-2.75368">
        <ele>6.4</ele>
        <time>2026-08-29T14:48:10Z</time>
      </trkpt>
      <trkpt lat="47.51001" lon="-2.75363">
        <ele>6.1</ele>
        <time>2026-08-29T14:48:11Z</time>
      </trkpt>
      <trkpt lat="47.50998" lon="-2.75359">
        <ele>6.1</ele>
        <time>2026-08-29T14:48:12Z</time>
      </trkpt>
      <trkpt lat="47.50994" lon="-2.75354">
        <ele>6.3</ele>
        <time>2026-08-29T14:48:13Z</time>
      </trkpt>
      <trkpt lat="47.5099" lon="-2.7535">
        <ele>6.5</ele>
        <time>2026-08-29T14:48:14Z</time>
      </trkpt>
      <trkpt lat="47.50987" lon="-2.75345">
        <ele>6.4</ele>
        <time>2026-08-29T14:48:15Z</time>
      </trkpt>
      <trkpt lat="47.50984" lon="-2.75341">
        <ele>6.4</ele>
        <time>2026-08-29T14:48:16Z</time>
      </trkpt>
      <trkpt lat="47.5098" lon="-2.75336">
        <ele>6.4</ele>
        <time>2026-08-29T14:48:17Z</time>
      </trkpt>
      <trkpt lat="47.50976" lon="-2.75331">
        <ele>6.4</ele>
        <time>2026-08-29T14:48:18Z</time>
      </trkpt>
      <trkpt lat="47.50973" lon="-2.75327">
        <ele>6.5</ele>
        <time>2026-08-29T14:48:19Z</time>
      </trkpt>
      <trkpt lat="47.50969" lon="-2.75322">
        <ele>6.6</ele>
        <time>2026-08-29T14:48:20Z</time>
      </trkpt>
      <trkpt lat="47.50966" lon="-2.75317">
        <ele>6.8</ele>
        <time>2026-08-29T14:48:21Z</time>
      </trkpt>
      <trkpt lat="47.50963" lon="-2.75311">
        <ele>6.9</ele>
        <time>2026-08-29T14:48:22Z</time>
      </trkpt>
      <trkpt lat="47.50961" lon="-2.75306">
        <ele>7</ele>
        <time>2026-08-29T14:48:23Z</time>
      </trkpt>
      <trkpt lat="47.50958" lon="-2.753">
        <ele>7.3</ele>
        <time>2026-08-29T14:48:24Z</time>
      </trkpt>
      <trkpt lat="47.50956" lon="-2.75295">
        <ele>7.3</ele>
        <time>2026-08-29T14:48:25Z</time>
      </trkpt>
      <trkpt lat="47.50954" lon="-2.7529">
        <ele>7.4</ele>
        <time>2026-08-29T14:48:26Z</time>
      </trkpt>
      <trkpt lat="47.50952" lon="-2.75285">
        <ele>7.4</ele>
        <time>2026-08-29T14:48:27Z</time>
      </trkpt>
      <trkpt lat="47.50951" lon="-2.7528">
        <ele>7.2</ele>
        <time>2026-08-29T14:48:28Z</time>
      </trkpt>
      <trkpt lat="47.50949" lon="-2.75276">
        <ele>7.2</ele>
        <time>2026-08-29T14:48:29Z</time>
      </trkpt>
      <trkpt lat="47.50947" lon="-2.7527">
        <ele>7.1</ele>
        <time>2026-08-29T14:48:30Z</time>
      </trkpt>
      <trkpt lat="47.50945" lon="-2.75265">
        <ele>7</ele>
        <time>2026-08-29T14:48:31Z</time>
      </trkpt>
      <trkpt lat="47.50943" lon="-2.7526">
        <ele>6.8</ele>
        <time>2026-08-29T14:48:32Z</time>
      </trkpt>
      <trkpt lat="47.50941" lon="-2.75254">
        <ele>6.5</ele>
        <time>2026-08-29T14:48:33Z</time>
      </trkpt>
      <trkpt lat="47.50938" lon="-2.75248">
        <ele>6.3</ele>
        <time>2026-08-29T14:48:34Z</time>
      </trkpt>
      <trkpt lat="47.50935" lon="-2.75241">
        <ele>6.1</ele>
        <time>2026-08-29T14:48:35Z</time>
      </trkpt>
      <trkpt lat="47.50932" lon="-2.75235">
        <ele>6.1</ele>
        <time>2026-08-29T14:48:36Z</time>
      </trkpt>
      <trkpt lat="47.50928" lon="-2.75229">
        <ele>6.1</ele>
        <time>2026-08-29T14:48:37Z</time>
      </trkpt>
      <trkpt lat="47.50926" lon="-2.75222">
        <ele>6</ele>
        <time>2026-08-29T14:48:38Z</time>
      </trkpt>
      <trkpt lat="47.50923" lon="-2.75215">
        <ele>6.3</ele>
        <time>2026-08-29T14:48:39Z</time>
      </trkpt>
      <trkpt lat="47.50922" lon="-2.75208">
        <ele>6.4</ele>
        <time>2026-08-29T14:48:40Z</time>
      </trkpt>
      <trkpt lat="47.50921" lon="-2.75202">
        <ele>6.5</ele>
        <time>2026-08-29T14:48:41Z</time>
      </trkpt>
      <trkpt lat="47.5092" lon="-2.75195">
        <ele>6.6</ele>
        <time>2026-08-29T14:48:42Z</time>
      </trkpt>
      <trkpt lat="47.50919" lon="-2.75188">
        <ele>6.7</ele>
        <time>2026-08-29T14:48:43Z</time>
      </trkpt>
      <trkpt lat="47.50919" lon="-2.75181">
        <ele>6.7</ele>
        <time>2026-08-29T14:48:44Z</time>
      </trkpt>
      <trkpt lat="47.50919" lon="-2.75174">
        <ele>6.7</ele>
        <time>2026-08-29T14:48:45Z</time>
      </trkpt>
      <trkpt lat="47.5092" lon="-2.75167">
        <ele>6.5</ele>
        <time>2026-08-29T14:48:46Z</time>
      </trkpt>
      <trkpt lat="47.5092" lon="-2.7516">
        <ele>6.5</ele>
        <time>2026-08-29T14:48:47Z</time>
      </trkpt>
      <trkpt lat="47.50921" lon="-2.75153">
        <ele>6.5</ele>
        <time>2026-08-29T14:48:48Z</time>
      </trkpt>
      <trkpt lat="47.50922" lon="-2.75147">
        <ele>6.4</ele>
        <time>2026-08-29T14:48:49Z</time>
      </trkpt>
      <trkpt lat="47.50922" lon="-2.7514">
        <ele>6.4</ele>
        <time>2026-08-29T14:48:50Z</time>
      </trkpt>
      <trkpt lat="47.50923" lon="-2.75134">
        <ele>6.3</ele>
        <time>2026-08-29T14:48:51Z</time>
      </trkpt>
      <trkpt lat="47.50923" lon="-2.75128">
        <ele>6.3</ele>
        <time>2026-08-29T14:48:52Z</time>
      </trkpt>
      <trkpt lat="47.50923" lon="-2.75123">
        <ele>6.3</ele>
        <time>2026-08-29T14:48:53Z</time>
      </trkpt>
      <trkpt lat="47.50923" lon="-2.75117">
        <ele>6.3</ele>
        <time>2026-08-29T14:48:54Z</time>
      </trkpt>
      <trkpt lat="47.50923" lon="-2.75112">
        <ele>6.3</ele>
        <time>2026-08-29T14:48:55Z</time>
      </trkpt>
      <trkpt lat="47.50924" lon="-2.75106">
        <ele>6.2</ele>
        <time>2026-08-29T14:48:56Z</time>
      </trkpt>
      <trkpt lat="47.50925" lon="-2.751">
        <ele>6.1</ele>
        <time>2026-08-29T14:48:57Z</time>
      </trkpt>
      <trkpt lat="47.50928" lon="-2.75094">
        <ele>5.9</ele>
        <time>2026-08-29T14:48:58Z</time>
      </trkpt>
      <trkpt lat="47.50932" lon="-2.75089">
        <ele>5.9</ele>
        <time>2026-08-29T14:48:59Z</time>
      </trkpt>
      <trkpt lat="47.50936" lon="-2.75085">
        <ele>5.9</ele>
        <time>2026-08-29T14:49:00Z</time>
      </trkpt>
      <trkpt lat="47.50941" lon="-2.75081">
        <ele>5.7</ele>
        <time>2026-08-29T14:49:01Z</time>
      </trkpt>
      <trkpt lat="47.50945" lon="-2.75078">
        <ele>5.4</ele>
        <time>2026-08-29T14:49:02Z</time>
      </trkpt>
      <trkpt lat="47.50949" lon="-2.75075">
        <ele>4.9</ele>
        <time>2026-08-29T14:49:03Z</time>
      </trkpt>
      <trkpt lat="47.50953" lon="-2.75071">
        <ele>4.6</ele>
        <time>2026-08-29T14:49:04Z</time>
      </trkpt>
      <trkpt lat="47.50957" lon="-2.75068">
        <ele>4.5</ele>
        <time>2026-08-29T14:49:05Z</time>
      </trkpt>
      <trkpt lat="47.50961" lon="-2.75064">
        <ele>4.6</ele>
        <time>2026-08-29T14:49:06Z</time>
      </trkpt>
      <trkpt lat="47.50965" lon="-2.7506">
        <ele>5</ele>
        <time>2026-08-29T14:49:07Z</time>
      </trkpt>
      <trkpt lat="47.50969" lon="-2.75056">
        <ele>5.6</ele>
        <time>2026-08-29T14:49:08Z</time>
      </trkpt>
      <trkpt lat="47.50973" lon="-2.75052">
        <ele>5.9</ele>
        <time>2026-08-29T14:49:09Z</time>
      </trkpt>
      <trkpt lat="47.50977" lon="-2.75048">
        <ele>5.7</ele>
        <time>2026-08-29T14:49:10Z</time>
      </trkpt>
      <trkpt lat="47.5098" lon="-2.75045">
        <ele>5.7</ele>
        <time>2026-08-29T14:49:11Z</time>
      </trkpt>
      <trkpt lat="47.50984" lon="-2.75041">
        <ele>5.7</ele>
        <time>2026-08-29T14:49:12Z</time>
      </trkpt>
      <trkpt lat="47.50987" lon="-2.75037">
        <ele>5.9</ele>
        <time>2026-08-29T14:49:13Z</time>
      </trkpt>
      <trkpt lat="47.5099" lon="-2.75033">
        <ele>6.1</ele>
        <time>2026-08-29T14:49:14Z</time>
      </trkpt>
      <trkpt lat="47.50993" lon="-2.7503">
        <ele>6.4</ele>
        <time>2026-08-29T14:49:15Z</time>
      </trkpt>
      <trkpt lat="47.50996" lon="-2.75025">
        <ele>6.8</ele>
        <time>2026-08-29T14:49:16Z</time>
      </trkpt>
      <trkpt lat="47.50999" lon="-2.7502">
        <ele>7.2</ele>
        <time>2026-08-29T14:49:17Z</time>
      </trkpt>
      <trkpt lat="47.51001" lon="-2.75015">
        <ele>7.5</ele>
        <time>2026-08-29T14:49:18Z</time>
      </trkpt>
      <trkpt lat="47.51003" lon="-2.75009">
        <ele>7.8</ele>
        <time>2026-08-29T14:49:19Z</time>
      </trkpt>
      <trkpt lat="47.51004" lon="-2.75003">
        <ele>8</ele>
        <time>2026-08-29T14:49:20Z</time>
      </trkpt>
      <trkpt lat="47.51005" lon="-2.74997">
        <ele>8.3</ele>
        <time>2026-08-29T14:49:21Z</time>
      </trkpt>
      <trkpt lat="47.51007" lon="-2.74991">
        <ele>8.6</ele>
        <time>2026-08-29T14:49:22Z</time>
      </trkpt>
      <trkpt lat="47.51008" lon="-2.74985">
        <ele>8.8</ele>
        <time>2026-08-29T14:49:23Z</time>
      </trkpt>
      <trkpt lat="47.51009" lon="-2.7498">
        <ele>9</ele>
        <time>2026-08-29T14:49:24Z</time>
      </trkpt>
      <trkpt lat="47.5101" lon="-2.74974">
        <ele>9.3</ele>
        <time>2026-08-29T14:49:25Z</time>
      </trkpt>
      <trkpt lat="47.51011" lon="-2.74969">
        <ele>9.5</ele>
        <time>2026-08-29T14:49:26Z</time>
      </trkpt>
      <trkpt lat="47.51012" lon="-2.74963">
        <ele>9.8</ele>
        <time>2026-08-29T14:49:27Z</time>
      </trkpt>
      <trkpt lat="47.51014" lon="-2.74958">
        <ele>10</ele>
        <time>2026-08-29T14:49:28Z</time>
      </trkpt>
      <trkpt lat="47.51015" lon="-2.74952">
        <ele>10.3</ele>
        <time>2026-08-29T14:49:29Z</time>
      </trkpt>
      <trkpt lat="47.51016" lon="-2.74947">
        <ele>10.5</ele>
        <time>2026-08-29T14:49:30Z</time>
      </trkpt>
      <trkpt lat="47.51017" lon="-2.74942">
        <ele>10.6</ele>
        <time>2026-08-29T14:49:31Z</time>
      </trkpt>
      <trkpt lat="47.51018" lon="-2.74936">
        <ele>10.6</ele>
        <time>2026-08-29T14:49:32Z</time>
      </trkpt>
      <trkpt lat="47.51019" lon="-2.7493">
        <ele>10.7</ele>
        <time>2026-08-29T14:49:33Z</time>
      </trkpt>
      <trkpt lat="47.5102" lon="-2.74925">
        <ele>10.7</ele>
        <time>2026-08-29T14:49:34Z</time>
      </trkpt>
      <trkpt lat="47.51021" lon="-2.74919">
        <ele>10.8</ele>
        <time>2026-08-29T14:49:35Z</time>
      </trkpt>
      <trkpt lat="47.51023" lon="-2.74914">
        <ele>10.8</ele>
        <time>2026-08-29T14:49:36Z</time>
      </trkpt>
      <trkpt lat="47.51024" lon="-2.74909">
        <ele>10.9</ele>
        <time>2026-08-29T14:49:37Z</time>
      </trkpt>
      <trkpt lat="47.51025" lon="-2.74903">
        <ele>10.9</ele>
        <time>2026-08-29T14:49:38Z</time>
      </trkpt>
      <trkpt lat="47.51026" lon="-2.74897">
        <ele>11</ele>
        <time>2026-08-29T14:49:39Z</time>
      </trkpt>
      <trkpt lat="47.51027" lon="-2.74892">
        <ele>11</ele>
        <time>2026-08-29T14:49:40Z</time>
      </trkpt>
      <trkpt lat="47.51028" lon="-2.74886">
        <ele>11</ele>
        <time>2026-08-29T14:49:41Z</time>
      </trkpt>
      <trkpt lat="47.51029" lon="-2.74881">
        <ele>11</ele>
        <time>2026-08-29T14:49:42Z</time>
      </trkpt>
      <trkpt lat="47.5103" lon="-2.74875">
        <ele>11.1</ele>
        <time>2026-08-29T14:49:43Z</time>
      </trkpt>
      <trkpt lat="47.51031" lon="-2.7487">
        <ele>11.1</ele>
        <time>2026-08-29T14:49:44Z</time>
      </trkpt>
      <trkpt lat="47.51032" lon="-2.74864">
        <ele>11.2</ele>
        <time>2026-08-29T14:49:45Z</time>
      </trkpt>
      <trkpt lat="47.51033" lon="-2.74859">
        <ele>11.2</ele>
        <time>2026-08-29T14:49:46Z</time>
      </trkpt>
      <trkpt lat="47.51035" lon="-2.74854">
        <ele>11.4</ele>
        <time>2026-08-29T14:49:47Z</time>
      </trkpt>
      <trkpt lat="47.51036" lon="-2.74848">
        <ele>11.6</ele>
        <time>2026-08-29T14:49:48Z</time>
      </trkpt>
      <trkpt lat="47.51037" lon="-2.74843">
        <ele>11.8</ele>
        <time>2026-08-29T14:49:49Z</time>
      </trkpt>
      <trkpt lat="47.51038" lon="-2.74837">
        <ele>11.9</ele>
        <time>2026-08-29T14:49:50Z</time>
      </trkpt>
      <trkpt lat="47.51039" lon="-2.74831">
        <ele>11.9</ele>
        <time>2026-08-29T14:49:51Z</time>
      </trkpt>
      <trkpt lat="47.51041" lon="-2.74825">
        <ele>11.7</ele>
        <time>2026-08-29T14:49:52Z</time>
      </trkpt>
      <trkpt lat="47.51042" lon="-2.74819">
        <ele>11.5</ele>
        <time>2026-08-29T14:49:53Z</time>
      </trkpt>
      <trkpt lat="47.51044" lon="-2.74814">
        <ele>11.3</ele>
        <time>2026-08-29T14:49:54Z</time>
      </trkpt>
      <trkpt lat="47.51046" lon="-2.74808">
        <ele>11.1</ele>
        <time>2026-08-29T14:49:55Z</time>
      </trkpt>
      <trkpt lat="47.51049" lon="-2.74802">
        <ele>10.9</ele>
        <time>2026-08-29T14:49:56Z</time>
      </trkpt>
      <trkpt lat="47.51051" lon="-2.74796">
        <ele>10.7</ele>
        <time>2026-08-29T14:49:57Z</time>
      </trkpt>
      <trkpt lat="47.51054" lon="-2.7479">
        <ele>10.4</ele>
        <time>2026-08-29T14:49:58Z</time>
      </trkpt>
      <trkpt lat="47.51057" lon="-2.74784">
        <ele>10.2</ele>
        <time>2026-08-29T14:49:59Z</time>
      </trkpt>
      <trkpt lat="47.5106" lon="-2.74777">
        <ele>9.8</ele>
        <time>2026-08-29T14:50:00Z</time>
      </trkpt>
      <trkpt lat="47.51063" lon="-2.7477">
        <ele>9.5</ele>
        <time>2026-08-29T14:50:01Z</time>
      </trkpt>
      <trkpt lat="47.51067" lon="-2.74763">
        <ele>9.1</ele>
        <time>2026-08-29T14:50:02Z</time>
      </trkpt>
      <trkpt lat="47.5107" lon="-2.74755">
        <ele>8.7</ele>
        <time>2026-08-29T14:50:03Z</time>
      </trkpt>
      <trkpt lat="47.51074" lon="-2.74747">
        <ele>8.2</ele>
        <time>2026-08-29T14:50:04Z</time>
      </trkpt>
      <trkpt lat="47.51077" lon="-2.74738">
        <ele>7.7</ele>
        <time>2026-08-29T14:50:05Z</time>
      </trkpt>
      <trkpt lat="47.51079" lon="-2.74729">
        <ele>7.6</ele>
        <time>2026-08-29T14:50:06Z</time>
      </trkpt>
      <trkpt lat="47.51082" lon="-2.7472">
        <ele>7.8</ele>
        <time>2026-08-29T14:50:07Z</time>
      </trkpt>
      <trkpt lat="47.51084" lon="-2.74711">
        <ele>7.9</ele>
        <time>2026-08-29T14:50:08Z</time>
      </trkpt>
      <trkpt lat="47.51086" lon="-2.74702">
        <ele>7.5</ele>
        <time>2026-08-29T14:50:09Z</time>
      </trkpt>
      <trkpt lat="47.51088" lon="-2.74693">
        <ele>7</ele>
        <time>2026-08-29T14:50:10Z</time>
      </trkpt>
      <trkpt lat="47.5109" lon="-2.74685">
        <ele>6.2</ele>
        <time>2026-08-29T14:50:11Z</time>
      </trkpt>
      <trkpt lat="47.51092" lon="-2.74676">
        <ele>5.5</ele>
        <time>2026-08-29T14:50:12Z</time>
      </trkpt>
      <trkpt lat="47.51093" lon="-2.74668">
        <ele>5.1</ele>
        <time>2026-08-29T14:50:13Z</time>
      </trkpt>
      <trkpt lat="47.51095" lon="-2.7466">
        <ele>5.7</ele>
        <time>2026-08-29T14:50:14Z</time>
      </trkpt>
      <trkpt lat="47.51097" lon="-2.74653">
        <ele>6.5</ele>
        <time>2026-08-29T14:50:15Z</time>
      </trkpt>
      <trkpt lat="47.51098" lon="-2.74646">
        <ele>7.3</ele>
        <time>2026-08-29T14:50:16Z</time>
      </trkpt>
      <trkpt lat="47.511" lon="-2.7464">
        <ele>8.1</ele>
        <time>2026-08-29T14:50:17Z</time>
      </trkpt>
      <trkpt lat="47.51102" lon="-2.74633">
        <ele>8.8</ele>
        <time>2026-08-29T14:50:18Z</time>
      </trkpt>
      <trkpt lat="47.51103" lon="-2.74627">
        <ele>9.2</ele>
        <time>2026-08-29T14:50:19Z</time>
      </trkpt>
      <trkpt lat="47.51104" lon="-2.74621">
        <ele>9.6</ele>
        <time>2026-08-29T14:50:20Z</time>
      </trkpt>
      <trkpt lat="47.51105" lon="-2.74615">
        <ele>10</ele>
        <time>2026-08-29T14:50:21Z</time>
      </trkpt>
      <trkpt lat="47.51106" lon="-2.74609">
        <ele>10.2</ele>
        <time>2026-08-29T14:50:22Z</time>
      </trkpt>
      <trkpt lat="47.51106" lon="-2.74603">
        <ele>10.4</ele>
        <time>2026-08-29T14:50:23Z</time>
      </trkpt>
      <trkpt lat="47.51107" lon="-2.74597">
        <ele>10.5</ele>
        <time>2026-08-29T14:50:24Z</time>
      </trkpt>
      <trkpt lat="47.51108" lon="-2.74591">
        <ele>10.7</ele>
        <time>2026-08-29T14:50:25Z</time>
      </trkpt>
      <trkpt lat="47.51108" lon="-2.74585">
        <ele>10.8</ele>
        <time>2026-08-29T14:50:26Z</time>
      </trkpt>
      <trkpt lat="47.51109" lon="-2.74578">
        <ele>10.9</ele>
        <time>2026-08-29T14:50:27Z</time>
      </trkpt>
      <trkpt lat="47.51109" lon="-2.74571">
        <ele>10.9</ele>
        <time>2026-08-29T14:50:28Z</time>
      </trkpt>
      <trkpt lat="47.5111" lon="-2.74565">
        <ele>11</ele>
        <time>2026-08-29T14:50:29Z</time>
      </trkpt>
      <trkpt lat="47.5111" lon="-2.74558">
        <ele>11</ele>
        <time>2026-08-29T14:50:30Z</time>
      </trkpt>
      <trkpt lat="47.51111" lon="-2.74552">
        <ele>11</ele>
        <time>2026-08-29T14:50:31Z</time>
      </trkpt>
      <trkpt lat="47.51111" lon="-2.74545">
        <ele>11</ele>
        <time>2026-08-29T14:50:32Z</time>
      </trkpt>
      <trkpt lat="47.51112" lon="-2.74538">
        <ele>11</ele>
        <time>2026-08-29T14:50:33Z</time>
      </trkpt>
      <trkpt lat="47.51112" lon="-2.74532">
        <ele>11</ele>
        <time>2026-08-29T14:50:34Z</time>
      </trkpt>
      <trkpt lat="47.51112" lon="-2.74525">
        <ele>11</ele>
        <time>2026-08-29T14:50:35Z</time>
      </trkpt>
      <trkpt lat="47.51113" lon="-2.74518">
        <ele>11</ele>
        <time>2026-08-29T14:50:36Z</time>
      </trkpt>
      <trkpt lat="47.51113" lon="-2.74511">
        <ele>11</ele>
        <time>2026-08-29T14:50:37Z</time>
      </trkpt>
      <trkpt lat="47.51113" lon="-2.74505">
        <ele>11.1</ele>
        <time>2026-08-29T14:50:38Z</time>
      </trkpt>
      <trkpt lat="47.51114" lon="-2.74498">
        <ele>11.1</ele>
        <time>2026-08-29T14:50:39Z</time>
      </trkpt>
      <trkpt lat="47.51114" lon="-2.74491">
        <ele>11.1</ele>
        <time>2026-08-29T14:50:40Z</time>
      </trkpt>
      <trkpt lat="47.51114" lon="-2.74484">
        <ele>11.1</ele>
        <time>2026-08-29T14:50:41Z</time>
      </trkpt>
      <trkpt lat="47.51115" lon="-2.74477">
        <ele>11.1</ele>
        <time>2026-08-29T14:50:42Z</time>
      </trkpt>
      <trkpt lat="47.51115" lon="-2.7447">
        <ele>11.1</ele>
        <time>2026-08-29T14:50:43Z</time>
      </trkpt>
      <trkpt lat="47.51116" lon="-2.74463">
        <ele>11.2</ele>
        <time>2026-08-29T14:50:44Z</time>
      </trkpt>
      <trkpt lat="47.51116" lon="-2.74455">
        <ele>11.2</ele>
        <time>2026-08-29T14:50:45Z</time>
      </trkpt>
      <trkpt lat="47.51116" lon="-2.74448">
        <ele>11.2</ele>
        <time>2026-08-29T14:50:46Z</time>
      </trkpt>
      <trkpt lat="47.51117" lon="-2.7444">
        <ele>11.2</ele>
        <time>2026-08-29T14:50:47Z</time>
      </trkpt>
      <trkpt lat="47.51117" lon="-2.74432">
        <ele>11.1</ele>
        <time>2026-08-29T14:50:48Z</time>
      </trkpt>
      <trkpt lat="47.51117" lon="-2.74425">
        <ele>11.1</ele>
        <time>2026-08-29T14:50:49Z</time>
      </trkpt>
      <trkpt lat="47.51118" lon="-2.74418">
        <ele>11</ele>
        <time>2026-08-29T14:50:50Z</time>
      </trkpt>
      <trkpt lat="47.51118" lon="-2.7441">
        <ele>10.8</ele>
        <time>2026-08-29T14:50:51Z</time>
      </trkpt>
      <trkpt lat="47.51118" lon="-2.74403">
        <ele>10.6</ele>
        <time>2026-08-29T14:50:52Z</time>
      </trkpt>
      <trkpt lat="47.51119" lon="-2.74396">
        <ele>10.5</ele>
        <time>2026-08-29T14:50:53Z</time>
      </trkpt>
      <trkpt lat="47.51119" lon="-2.74389">
        <ele>10.3</ele>
        <time>2026-08-29T14:50:54Z</time>
      </trkpt>
      <trkpt lat="47.51119" lon="-2.74382">
        <ele>10.4</ele>
        <time>2026-08-29T14:50:55Z</time>
      </trkpt>
      <trkpt lat="47.5112" lon="-2.74374">
        <ele>10.5</ele>
        <time>2026-08-29T14:50:56Z</time>
      </trkpt>
      <trkpt lat="47.5112" lon="-2.74367">
        <ele>10.6</ele>
        <time>2026-08-29T14:50:57Z</time>
      </trkpt>
      <trkpt lat="47.5112" lon="-2.7436">
        <ele>10.6</ele>
        <time>2026-08-29T14:50:58Z</time>
      </trkpt>
      <trkpt lat="47.5112" lon="-2.74352">
        <ele>10.6</ele>
        <time>2026-08-29T14:50:59Z</time>
      </trkpt>
      <trkpt lat="47.51121" lon="-2.74344">
        <ele>10.7</ele>
        <time>2026-08-29T14:51:00Z</time>
      </trkpt>
      <trkpt lat="47.51121" lon="-2.74336">
        <ele>10.7</ele>
        <time>2026-08-29T14:51:01Z</time>
      </trkpt>
      <trkpt lat="47.51121" lon="-2.74328">
        <ele>10.6</ele>
        <time>2026-08-29T14:51:02Z</time>
      </trkpt>
      <trkpt lat="47.51121" lon="-2.74321">
        <ele>10.6</ele>
        <time>2026-08-29T14:51:03Z</time>
      </trkpt>
      <trkpt lat="47.51121" lon="-2.74313">
        <ele>10.5</ele>
        <time>2026-08-29T14:51:04Z</time>
      </trkpt>
      <trkpt lat="47.51121" lon="-2.74306">
        <ele>10.4</ele>
        <time>2026-08-29T14:51:05Z</time>
      </trkpt>
      <trkpt lat="47.51121" lon="-2.74299">
        <ele>10.4</ele>
        <time>2026-08-29T14:51:06Z</time>
      </trkpt>
      <trkpt lat="47.51122" lon="-2.74291">
        <ele>10.4</ele>
        <time>2026-08-29T14:51:07Z</time>
      </trkpt>
      <trkpt lat="47.51122" lon="-2.74285">
        <ele>10.4</ele>
        <time>2026-08-29T14:51:08Z</time>
      </trkpt>
      <trkpt lat="47.51123" lon="-2.74277">
        <ele>10.4</ele>
        <time>2026-08-29T14:51:09Z</time>
      </trkpt>
      <trkpt lat="47.51123" lon="-2.7427">
        <ele>10.4</ele>
        <time>2026-08-29T14:51:10Z</time>
      </trkpt>
      <trkpt lat="47.51123" lon="-2.74263">
        <ele>10.4</ele>
        <time>2026-08-29T14:51:11Z</time>
      </trkpt>
      <trkpt lat="47.51123" lon="-2.74256">
        <ele>10.4</ele>
        <time>2026-08-29T14:51:12Z</time>
      </trkpt>
      <trkpt lat="47.51123" lon="-2.74249">
        <ele>10.4</ele>
        <time>2026-08-29T14:51:13Z</time>
      </trkpt>
      <trkpt lat="47.51124" lon="-2.74243">
        <ele>10.6</ele>
        <time>2026-08-29T14:51:14Z</time>
      </trkpt>
      <trkpt lat="47.51123" lon="-2.74236">
        <ele>10.6</ele>
        <time>2026-08-29T14:51:15Z</time>
      </trkpt>
      <trkpt lat="47.51123" lon="-2.7423">
        <ele>10.7</ele>
        <time>2026-08-29T14:51:16Z</time>
      </trkpt>
      <trkpt lat="47.51123" lon="-2.74224">
        <ele>10.8</ele>
        <time>2026-08-29T14:51:17Z</time>
      </trkpt>
      <trkpt lat="47.51123" lon="-2.74217">
        <ele>10.9</ele>
        <time>2026-08-29T14:51:18Z</time>
      </trkpt>
      <trkpt lat="47.51124" lon="-2.74211">
        <ele>10.9</ele>
        <time>2026-08-29T14:51:19Z</time>
      </trkpt>
      <trkpt lat="47.51124" lon="-2.74204">
        <ele>10.9</ele>
        <time>2026-08-29T14:51:20Z</time>
      </trkpt>
      <trkpt lat="47.51124" lon="-2.74197">
        <ele>10.9</ele>
        <time>2026-08-29T14:51:21Z</time>
      </trkpt>
      <trkpt lat="47.51124" lon="-2.7419">
        <ele>10.9</ele>
        <time>2026-08-29T14:51:22Z</time>
      </trkpt>
      <trkpt lat="47.51124" lon="-2.74183">
        <ele>10.9</ele>
        <time>2026-08-29T14:51:23Z</time>
      </trkpt>
      <trkpt lat="47.51124" lon="-2.74177">
        <ele>10.9</ele>
        <time>2026-08-29T14:51:24Z</time>
      </trkpt>
      <trkpt lat="47.51124" lon="-2.7417">
        <ele>10.9</ele>
        <time>2026-08-29T14:51:25Z</time>
      </trkpt>
      <trkpt lat="47.51124" lon="-2.74163">
        <ele>10.9</ele>
        <time>2026-08-29T14:51:26Z</time>
      </trkpt>
      <trkpt lat="47.51124" lon="-2.74156">
        <ele>10.9</ele>
        <time>2026-08-29T14:51:27Z</time>
      </trkpt>
      <trkpt lat="47.51124" lon="-2.74149">
        <ele>10.9</ele>
        <time>2026-08-29T14:51:28Z</time>
      </trkpt>
      <trkpt lat="47.51125" lon="-2.74143">
        <ele>11</ele>
        <time>2026-08-29T14:51:29Z</time>
      </trkpt>
      <trkpt lat="47.51125" lon="-2.74136">
        <ele>11</ele>
        <time>2026-08-29T14:51:30Z</time>
      </trkpt>
      <trkpt lat="47.51125" lon="-2.74129">
        <ele>11</ele>
        <time>2026-08-29T14:51:31Z</time>
      </trkpt>
      <trkpt lat="47.51125" lon="-2.74123">
        <ele>11</ele>
        <time>2026-08-29T14:51:32Z</time>
      </trkpt>
      <trkpt lat="47.51125" lon="-2.74116">
        <ele>11</ele>
        <time>2026-08-29T14:51:33Z</time>
      </trkpt>
      <trkpt lat="47.51125" lon="-2.74109">
        <ele>11</ele>
        <time>2026-08-29T14:51:34Z</time>
      </trkpt>
      <trkpt lat="47.51125" lon="-2.74102">
        <ele>11</ele>
        <time>2026-08-29T14:51:35Z</time>
      </trkpt>
      <trkpt lat="47.51125" lon="-2.74096">
        <ele>11</ele>
        <time>2026-08-29T14:51:36Z</time>
      </trkpt>
      <trkpt lat="47.51126" lon="-2.74089">
        <ele>11.1</ele>
        <time>2026-08-29T14:51:37Z</time>
      </trkpt>
      <trkpt lat="47.51126" lon="-2.74082">
        <ele>11.1</ele>
        <time>2026-08-29T14:51:38Z</time>
      </trkpt>
      <trkpt lat="47.51126" lon="-2.74075">
        <ele>11.1</ele>
        <time>2026-08-29T14:51:39Z</time>
      </trkpt>
      <trkpt lat="47.51127" lon="-2.74068">
        <ele>11.1</ele>
        <time>2026-08-29T14:51:40Z</time>
      </trkpt>
      <trkpt lat="47.51127" lon="-2.74061">
        <ele>11.1</ele>
        <time>2026-08-29T14:51:41Z</time>
      </trkpt>
      <trkpt lat="47.51127" lon="-2.74055">
        <ele>11.1</ele>
        <time>2026-08-29T14:51:42Z</time>
      </trkpt>
      <trkpt lat="47.51129" lon="-2.74049">
        <ele>11.3</ele>
        <time>2026-08-29T14:51:43Z</time>
      </trkpt>
      <trkpt lat="47.5113" lon="-2.74043">
        <ele>11.4</ele>
        <time>2026-08-29T14:51:44Z</time>
      </trkpt>
      <trkpt lat="47.51133" lon="-2.74038">
        <ele>11.6</ele>
        <time>2026-08-29T14:51:45Z</time>
      </trkpt>
      <trkpt lat="47.51137" lon="-2.74035">
        <ele>11.9</ele>
        <time>2026-08-29T14:51:46Z</time>
      </trkpt>
      <trkpt lat="47.5114" lon="-2.74034">
        <ele>12.1</ele>
        <time>2026-08-29T14:51:47Z</time>
      </trkpt>
      <trkpt lat="47.51144" lon="-2.74033">
        <ele>12.4</ele>
        <time>2026-08-29T14:51:48Z</time>
      </trkpt>
      <trkpt lat="47.51147" lon="-2.74034">
        <ele>12.6</ele>
        <time>2026-08-29T14:51:49Z</time>
      </trkpt>
      <trkpt lat="47.51151" lon="-2.74035">
        <ele>12.9</ele>
        <time>2026-08-29T14:51:50Z</time>
      </trkpt>
      <trkpt lat="47.51154" lon="-2.74035">
        <ele>13.1</ele>
        <time>2026-08-29T14:51:51Z</time>
      </trkpt>
      <trkpt lat="47.51157" lon="-2.74036">
        <ele>13.3</ele>
        <time>2026-08-29T14:51:52Z</time>
      </trkpt>
      <trkpt lat="47.51161" lon="-2.74037">
        <ele>13.6</ele>
        <time>2026-08-29T14:51:53Z</time>
      </trkpt>
      <trkpt lat="47.51165" lon="-2.74037">
        <ele>13.9</ele>
        <time>2026-08-29T14:51:54Z</time>
      </trkpt>
      <trkpt lat="47.51168" lon="-2.74038">
        <ele>14</ele>
        <time>2026-08-29T14:51:55Z</time>
      </trkpt>
      <trkpt lat="47.51172" lon="-2.74039">
        <ele>14.1</ele>
        <time>2026-08-29T14:51:56Z</time>
      </trkpt>
      <trkpt lat="47.51176" lon="-2.74039">
        <ele>14.2</ele>
        <time>2026-08-29T14:51:57Z</time>
      </trkpt>
      <trkpt lat="47.51179" lon="-2.7404">
        <ele>14.2</ele>
        <time>2026-08-29T14:51:58Z</time>
      </trkpt>
      <trkpt lat="47.51183" lon="-2.7404">
        <ele>14.3</ele>
        <time>2026-08-29T14:51:59Z</time>
      </trkpt>
      <trkpt lat="47.51187" lon="-2.74041">
        <ele>14.4</ele>
        <time>2026-08-29T14:52:00Z</time>
      </trkpt>
      <trkpt lat="47.51191" lon="-2.74042">
        <ele>14.4</ele>
        <time>2026-08-29T14:52:01Z</time>
      </trkpt>
      <trkpt lat="47.51194" lon="-2.74042">
        <ele>14.5</ele>
        <time>2026-08-29T14:52:02Z</time>
      </trkpt>
      <trkpt lat="47.51198" lon="-2.74043">
        <ele>14.5</ele>
        <time>2026-08-29T14:52:03Z</time>
      </trkpt>
      <trkpt lat="47.51202" lon="-2.74043">
        <ele>14.6</ele>
        <time>2026-08-29T14:52:04Z</time>
      </trkpt>
      <trkpt lat="47.51206" lon="-2.74044">
        <ele>14.7</ele>
        <time>2026-08-29T14:52:05Z</time>
      </trkpt>
      <trkpt lat="47.5121" lon="-2.74045">
        <ele>14.7</ele>
        <time>2026-08-29T14:52:06Z</time>
      </trkpt>
      <trkpt lat="47.51214" lon="-2.74045">
        <ele>14.8</ele>
        <time>2026-08-29T14:52:07Z</time>
      </trkpt>
      <trkpt lat="47.51218" lon="-2.74046">
        <ele>14.9</ele>
        <time>2026-08-29T14:52:08Z</time>
      </trkpt>
      <trkpt lat="47.51222" lon="-2.74047">
        <ele>15</ele>
        <time>2026-08-29T14:52:09Z</time>
      </trkpt>
      <trkpt lat="47.51226" lon="-2.74048">
        <ele>15</ele>
        <time>2026-08-29T14:52:10Z</time>
      </trkpt>
      <trkpt lat="47.5123" lon="-2.74049">
        <ele>15</ele>
        <time>2026-08-29T14:52:11Z</time>
      </trkpt>
      <trkpt lat="47.51234" lon="-2.74049">
        <ele>15</ele>
        <time>2026-08-29T14:52:12Z</time>
      </trkpt>
      <trkpt lat="47.51238" lon="-2.74049">
        <ele>15</ele>
        <time>2026-08-29T14:52:13Z</time>
      </trkpt>
      <trkpt lat="47.51242" lon="-2.74049">
        <ele>15</ele>
        <time>2026-08-29T14:52:14Z</time>
      </trkpt>
      <trkpt lat="47.51247" lon="-2.74049">
        <ele>15</ele>
        <time>2026-08-29T14:52:15Z</time>
      </trkpt>
      <trkpt lat="47.51252" lon="-2.7405">
        <ele>14.9</ele>
        <time>2026-08-29T14:52:16Z</time>
      </trkpt>
      <trkpt lat="47.51256" lon="-2.7405">
        <ele>14.8</ele>
        <time>2026-08-29T14:52:17Z</time>
      </trkpt>
      <trkpt lat="47.51261" lon="-2.74051">
        <ele>14.6</ele>
        <time>2026-08-29T14:52:18Z</time>
      </trkpt>
      <trkpt lat="47.51266" lon="-2.74051">
        <ele>14.4</ele>
        <time>2026-08-29T14:52:19Z</time>
      </trkpt>
      <trkpt lat="47.51271" lon="-2.74051">
        <ele>14.2</ele>
        <time>2026-08-29T14:52:20Z</time>
      </trkpt>
      <trkpt lat="47.51276" lon="-2.74051">
        <ele>14.1</ele>
        <time>2026-08-29T14:52:21Z</time>
      </trkpt>
      <trkpt lat="47.51281" lon="-2.74051">
        <ele>13.9</ele>
        <time>2026-08-29T14:52:22Z</time>
      </trkpt>
      <trkpt lat="47.51286" lon="-2.74051">
        <ele>13.7</ele>
        <time>2026-08-29T14:52:23Z</time>
      </trkpt>
      <trkpt lat="47.51291" lon="-2.74052">
        <ele>13.5</ele>
        <time>2026-08-29T14:52:24Z</time>
      </trkpt>
      <trkpt lat="47.51297" lon="-2.74053">
        <ele>13.3</ele>
        <time>2026-08-29T14:52:25Z</time>
      </trkpt>
      <trkpt lat="47.51302" lon="-2.74053">
        <ele>13.1</ele>
        <time>2026-08-29T14:52:26Z</time>
      </trkpt>
      <trkpt lat="47.51308" lon="-2.74053">
        <ele>12.9</ele>
        <time>2026-08-29T14:52:27Z</time>
      </trkpt>
      <trkpt lat="47.51313" lon="-2.74053">
        <ele>12.7</ele>
        <time>2026-08-29T14:52:28Z</time>
      </trkpt>
      <trkpt lat="47.5132" lon="-2.74053">
        <ele>12.5</ele>
        <time>2026-08-29T14:52:29Z</time>
      </trkpt>
      <trkpt lat="47.51326" lon="-2.74053">
        <ele>12.3</ele>
        <time>2026-08-29T14:52:30Z</time>
      </trkpt>
      <trkpt lat="47.51332" lon="-2.74053">
        <ele>12</ele>
        <time>2026-08-29T14:52:31Z</time>
      </trkpt>
      <trkpt lat="47.51339" lon="-2.74053">
        <ele>11.6</ele>
        <time>2026-08-29T14:52:32Z</time>
      </trkpt>
      <trkpt lat="47.51345" lon="-2.74054">
        <ele>11.2</ele>
        <time>2026-08-29T14:52:33Z</time>
      </trkpt>
      <trkpt lat="47.51352" lon="-2.74054">
        <ele>10.7</ele>
        <time>2026-08-29T14:52:34Z</time>
      </trkpt>
      <trkpt lat="47.51359" lon="-2.74054">
        <ele>10.2</ele>
        <time>2026-08-29T14:52:35Z</time>
      </trkpt>
      <trkpt lat="47.51366" lon="-2.74052">
        <ele>10</ele>
        <time>2026-08-29T14:52:36Z</time>
      </trkpt>
      <trkpt lat="47.51373" lon="-2.7405">
        <ele>9.8</ele>
        <time>2026-08-29T14:52:37Z</time>
      </trkpt>
      <trkpt lat="47.51379" lon="-2.74046">
        <ele>9.7</ele>
        <time>2026-08-29T14:52:38Z</time>
      </trkpt>
      <trkpt lat="47.51385" lon="-2.74042">
        <ele>9.6</ele>
        <time>2026-08-29T14:52:39Z</time>
      </trkpt>
      <trkpt lat="47.51391" lon="-2.74038">
        <ele>9.6</ele>
        <time>2026-08-29T14:52:40Z</time>
      </trkpt>
      <trkpt lat="47.51397" lon="-2.74034">
        <ele>9.5</ele>
        <time>2026-08-29T14:52:41Z</time>
      </trkpt>
      <trkpt lat="47.51404" lon="-2.7403">
        <ele>9.4</ele>
        <time>2026-08-29T14:52:42Z</time>
      </trkpt>
      <trkpt lat="47.5141" lon="-2.74027">
        <ele>9.2</ele>
        <time>2026-08-29T14:52:43Z</time>
      </trkpt>
      <trkpt lat="47.51416" lon="-2.74023">
        <ele>9</ele>
        <time>2026-08-29T14:52:44Z</time>
      </trkpt>
      <trkpt lat="47.51422" lon="-2.7402">
        <ele>9</ele>
        <time>2026-08-29T14:52:45Z</time>
      </trkpt>
      <trkpt lat="47.51427" lon="-2.74017">
        <ele>9</ele>
        <time>2026-08-29T14:52:46Z</time>
      </trkpt>
      <trkpt lat="47.51433" lon="-2.74013">
        <ele>9</ele>
        <time>2026-08-29T14:52:47Z</time>
      </trkpt>
      <trkpt lat="47.51438" lon="-2.74009">
        <ele>9</ele>
        <time>2026-08-29T14:52:48Z</time>
      </trkpt>
      <trkpt lat="47.51443" lon="-2.74006">
        <ele>9</ele>
        <time>2026-08-29T14:52:49Z</time>
      </trkpt>
      <trkpt lat="47.51448" lon="-2.74003">
        <ele>9</ele>
        <time>2026-08-29T14:52:50Z</time>
      </trkpt>
      <trkpt lat="47.51454" lon="-2.74001">
        <ele>9</ele>
        <time>2026-08-29T14:52:51Z</time>
      </trkpt>
      <trkpt lat="47.51459" lon="-2.74">
        <ele>9</ele>
        <time>2026-08-29T14:52:52Z</time>
      </trkpt>
      <trkpt lat="47.51465" lon="-2.73998">
        <ele>9.1</ele>
        <time>2026-08-29T14:52:53Z</time>
      </trkpt>
      <trkpt lat="47.5147" lon="-2.73997">
        <ele>9.1</ele>
        <time>2026-08-29T14:52:54Z</time>
      </trkpt>
      <trkpt lat="47.51475" lon="-2.73996">
        <ele>9.2</ele>
        <time>2026-08-29T14:52:55Z</time>
      </trkpt>
      <trkpt lat="47.5148" lon="-2.73994">
        <ele>9.4</ele>
        <time>2026-08-29T14:52:56Z</time>
      </trkpt>
      <trkpt lat="47.51486" lon="-2.73993">
        <ele>9.6</ele>
        <time>2026-08-29T14:52:57Z</time>
      </trkpt>
      <trkpt lat="47.51491" lon="-2.73991">
        <ele>9.8</ele>
        <time>2026-08-29T14:52:58Z</time>
      </trkpt>
      <trkpt lat="47.51495" lon="-2.7399">
        <ele>9.9</ele>
        <time>2026-08-29T14:52:59Z</time>
      </trkpt>
      <trkpt lat="47.515" lon="-2.73989">
        <ele>10</ele>
        <time>2026-08-29T14:53:00Z</time>
      </trkpt>
      <trkpt lat="47.51505" lon="-2.73988">
        <ele>10</ele>
        <time>2026-08-29T14:53:01Z</time>
      </trkpt>
      <trkpt lat="47.5151" lon="-2.73987">
        <ele>10</ele>
        <time>2026-08-29T14:53:02Z</time>
      </trkpt>
      <trkpt lat="47.51515" lon="-2.73986">
        <ele>10</ele>
        <time>2026-08-29T14:53:03Z</time>
      </trkpt>
      <trkpt lat="47.5152" lon="-2.73986">
        <ele>10</ele>
        <time>2026-08-29T14:53:04Z</time>
      </trkpt>
      <trkpt lat="47.51525" lon="-2.73985">
        <ele>10</ele>
        <time>2026-08-29T14:53:05Z</time>
      </trkpt>
      <trkpt lat="47.5153" lon="-2.73984">
        <ele>10.1</ele>
        <time>2026-08-29T14:53:06Z</time>
      </trkpt>
      <trkpt lat="47.51535" lon="-2.73983">
        <ele>10.3</ele>
        <time>2026-08-29T14:53:07Z</time>
      </trkpt>
      <trkpt lat="47.5154" lon="-2.73982">
        <ele>10.4</ele>
        <time>2026-08-29T14:53:08Z</time>
      </trkpt>
      <trkpt lat="47.51544" lon="-2.73981">
        <ele>10.6</ele>
        <time>2026-08-29T14:53:09Z</time>
      </trkpt>
      <trkpt lat="47.51549" lon="-2.7398">
        <ele>10.8</ele>
        <time>2026-08-29T14:53:10Z</time>
      </trkpt>
      <trkpt lat="47.51554" lon="-2.73979">
        <ele>10.9</ele>
        <time>2026-08-29T14:53:11Z</time>
      </trkpt>
      <trkpt lat="47.51558" lon="-2.73978">
        <ele>11</ele>
        <time>2026-08-29T14:53:12Z</time>
      </trkpt>
      <trkpt lat="47.51563" lon="-2.73977">
        <ele>11</ele>
        <time>2026-08-29T14:53:13Z</time>
      </trkpt>
      <trkpt lat="47.51568" lon="-2.73976">
        <ele>11</ele>
        <time>2026-08-29T14:53:14Z</time>
      </trkpt>
      <trkpt lat="47.51572" lon="-2.73975">
        <ele>11</ele>
        <time>2026-08-29T14:53:15Z</time>
      </trkpt>
      <trkpt lat="47.51577" lon="-2.73974">
        <ele>11</ele>
        <time>2026-08-29T14:53:16Z</time>
      </trkpt>
      <trkpt lat="47.51581" lon="-2.73973">
        <ele>11</ele>
        <time>2026-08-29T14:53:17Z</time>
      </trkpt>
      <trkpt lat="47.51586" lon="-2.73972">
        <ele>11.1</ele>
        <time>2026-08-29T14:53:18Z</time>
      </trkpt>
      <trkpt lat="47.51591" lon="-2.7397">
        <ele>11.3</ele>
        <time>2026-08-29T14:53:19Z</time>
      </trkpt>
      <trkpt lat="47.51596" lon="-2.73969">
        <ele>11.5</ele>
        <time>2026-08-29T14:53:20Z</time>
      </trkpt>
      <trkpt lat="47.51601" lon="-2.73968">
        <ele>11.6</ele>
        <time>2026-08-29T14:53:21Z</time>
      </trkpt>
      <trkpt lat="47.51606" lon="-2.73968">
        <ele>11.8</ele>
        <time>2026-08-29T14:53:22Z</time>
      </trkpt>
      <trkpt lat="47.51611" lon="-2.73967">
        <ele>12</ele>
        <time>2026-08-29T14:53:23Z</time>
      </trkpt>
      <trkpt lat="47.51616" lon="-2.73966">
        <ele>12</ele>
        <time>2026-08-29T14:53:24Z</time>
      </trkpt>
      <trkpt lat="47.51621" lon="-2.73965">
        <ele>12</ele>
        <time>2026-08-29T14:53:25Z</time>
      </trkpt>
      <trkpt lat="47.51625" lon="-2.73964">
        <ele>12</ele>
        <time>2026-08-29T14:53:26Z</time>
      </trkpt>
      <trkpt lat="47.5163" lon="-2.73962">
        <ele>12</ele>
        <time>2026-08-29T14:53:27Z</time>
      </trkpt>
      <trkpt lat="47.51635" lon="-2.73961">
        <ele>12</ele>
        <time>2026-08-29T14:53:28Z</time>
      </trkpt>
      <trkpt lat="47.5164" lon="-2.7396">
        <ele>12</ele>
        <time>2026-08-29T14:53:29Z</time>
      </trkpt>
      <trkpt lat="47.51644" lon="-2.73958">
        <ele>11.9</ele>
        <time>2026-08-29T14:53:30Z</time>
      </trkpt>
      <trkpt lat="47.51649" lon="-2.73956">
        <ele>11.8</ele>
        <time>2026-08-29T14:53:31Z</time>
      </trkpt>
      <trkpt lat="47.51654" lon="-2.73954">
        <ele>11.8</ele>
        <time>2026-08-29T14:53:32Z</time>
      </trkpt>
      <trkpt lat="47.51659" lon="-2.73952">
        <ele>11.8</ele>
        <time>2026-08-29T14:53:33Z</time>
      </trkpt>
      <trkpt lat="47.51664" lon="-2.7395">
        <ele>11.8</ele>
        <time>2026-08-29T14:53:34Z</time>
      </trkpt>
      <trkpt lat="47.51669" lon="-2.73948">
        <ele>11.9</ele>
        <time>2026-08-29T14:53:35Z</time>
      </trkpt>
      <trkpt lat="47.51674" lon="-2.73946">
        <ele>11.9</ele>
        <time>2026-08-29T14:53:36Z</time>
      </trkpt>
      <trkpt lat="47.51679" lon="-2.73944">
        <ele>12</ele>
        <time>2026-08-29T14:53:37Z</time>
      </trkpt>
      <trkpt lat="47.51684" lon="-2.73942">
        <ele>11.9</ele>
        <time>2026-08-29T14:53:38Z</time>
      </trkpt>
      <trkpt lat="47.51689" lon="-2.7394">
        <ele>11.8</ele>
        <time>2026-08-29T14:53:39Z</time>
      </trkpt>
      <trkpt lat="47.51694" lon="-2.73938">
        <ele>11.8</ele>
        <time>2026-08-29T14:53:40Z</time>
      </trkpt>
      <trkpt lat="47.51698" lon="-2.73935">
        <ele>11.6</ele>
        <time>2026-08-29T14:53:41Z</time>
      </trkpt>
      <trkpt lat="47.51703" lon="-2.73933">
        <ele>11.5</ele>
        <time>2026-08-29T14:53:42Z</time>
      </trkpt>
      <trkpt lat="47.51708" lon="-2.73931">
        <ele>11.5</ele>
        <time>2026-08-29T14:53:43Z</time>
      </trkpt>
      <trkpt lat="47.51713" lon="-2.73929">
        <ele>11.5</ele>
        <time>2026-08-29T14:53:44Z</time>
      </trkpt>
      <trkpt lat="47.51718" lon="-2.73926">
        <ele>11.6</ele>
        <time>2026-08-29T14:53:45Z</time>
      </trkpt>
      <trkpt lat="47.51723" lon="-2.73924">
        <ele>11.7</ele>
        <time>2026-08-29T14:53:46Z</time>
      </trkpt>
      <trkpt lat="47.51728" lon="-2.73921">
        <ele>11.8</ele>
        <time>2026-08-29T14:53:47Z</time>
      </trkpt>
      <trkpt lat="47.51733" lon="-2.7392">
        <ele>11.9</ele>
        <time>2026-08-29T14:53:48Z</time>
      </trkpt>
      <trkpt lat="47.51737" lon="-2.73918">
        <ele>12</ele>
        <time>2026-08-29T14:53:49Z</time>
      </trkpt>
      <trkpt lat="47.51742" lon="-2.73916">
        <ele>12</ele>
        <time>2026-08-29T14:53:50Z</time>
      </trkpt>
      <trkpt lat="47.51747" lon="-2.73913">
        <ele>12</ele>
        <time>2026-08-29T14:53:51Z</time>
      </trkpt>
      <trkpt lat="47.51751" lon="-2.73911">
        <ele>12</ele>
        <time>2026-08-29T14:53:52Z</time>
      </trkpt>
      <trkpt lat="47.51756" lon="-2.73909">
        <ele>11.8</ele>
        <time>2026-08-29T14:53:53Z</time>
      </trkpt>
      <trkpt lat="47.5176" lon="-2.73906">
        <ele>11.8</ele>
        <time>2026-08-29T14:53:54Z</time>
      </trkpt>
      <trkpt lat="47.51765" lon="-2.73904">
        <ele>11.7</ele>
        <time>2026-08-29T14:53:55Z</time>
      </trkpt>
      <trkpt lat="47.5177" lon="-2.73902">
        <ele>11.7</ele>
        <time>2026-08-29T14:53:56Z</time>
      </trkpt>
      <trkpt lat="47.51775" lon="-2.73899">
        <ele>11.7</ele>
        <time>2026-08-29T14:53:57Z</time>
      </trkpt>
      <trkpt lat="47.5178" lon="-2.73896">
        <ele>11.7</ele>
        <time>2026-08-29T14:53:58Z</time>
      </trkpt>
      <trkpt lat="47.51785" lon="-2.73893">
        <ele>11.9</ele>
        <time>2026-08-29T14:53:59Z</time>
      </trkpt>
      <trkpt lat="47.51789" lon="-2.7389">
        <ele>12</ele>
        <time>2026-08-29T14:54:00Z</time>
      </trkpt>
      <trkpt lat="47.51794" lon="-2.73888">
        <ele>12</ele>
        <time>2026-08-29T14:54:01Z</time>
      </trkpt>
      <trkpt lat="47.51799" lon="-2.73885">
        <ele>12</ele>
        <time>2026-08-29T14:54:02Z</time>
      </trkpt>
      <trkpt lat="47.51804" lon="-2.73882">
        <ele>12</ele>
        <time>2026-08-29T14:54:03Z</time>
      </trkpt>
      <trkpt lat="47.51808" lon="-2.7388">
        <ele>12</ele>
        <time>2026-08-29T14:54:04Z</time>
      </trkpt>
      <trkpt lat="47.51813" lon="-2.73877">
        <ele>12</ele>
        <time>2026-08-29T14:54:05Z</time>
      </trkpt>
      <trkpt lat="47.51818" lon="-2.73875">
        <ele>12</ele>
        <time>2026-08-29T14:54:06Z</time>
      </trkpt>
      <trkpt lat="47.51822" lon="-2.73872">
        <ele>12</ele>
        <time>2026-08-29T14:54:07Z</time>
      </trkpt>
      <trkpt lat="47.51827" lon="-2.7387">
        <ele>12</ele>
        <time>2026-08-29T14:54:08Z</time>
      </trkpt>
      <trkpt lat="47.51831" lon="-2.73868">
        <ele>12</ele>
        <time>2026-08-29T14:54:09Z</time>
      </trkpt>
      <trkpt lat="47.51836" lon="-2.73865">
        <ele>12</ele>
        <time>2026-08-29T14:54:10Z</time>
      </trkpt>
      <trkpt lat="47.5184" lon="-2.73863">
        <ele>12</ele>
        <time>2026-08-29T14:54:11Z</time>
      </trkpt>
      <trkpt lat="47.51844" lon="-2.7386">
        <ele>12</ele>
        <time>2026-08-29T14:54:12Z</time>
      </trkpt>
      <trkpt lat="47.51849" lon="-2.73858">
        <ele>12.1</ele>
        <time>2026-08-29T14:54:13Z</time>
      </trkpt>
      <trkpt lat="47.51853" lon="-2.73855">
        <ele>12.2</ele>
        <time>2026-08-29T14:54:14Z</time>
      </trkpt>
      <trkpt lat="47.51858" lon="-2.73853">
        <ele>12.3</ele>
        <time>2026-08-29T14:54:15Z</time>
      </trkpt>
      <trkpt lat="47.51862" lon="-2.7385">
        <ele>12.4</ele>
        <time>2026-08-29T14:54:16Z</time>
      </trkpt>
      <trkpt lat="47.51866" lon="-2.73847">
        <ele>12.6</ele>
        <time>2026-08-29T14:54:17Z</time>
      </trkpt>
      <trkpt lat="47.51871" lon="-2.73843">
        <ele>12.8</ele>
        <time>2026-08-29T14:54:18Z</time>
      </trkpt>
      <trkpt lat="47.51875" lon="-2.7384">
        <ele>12.9</ele>
        <time>2026-08-29T14:54:19Z</time>
      </trkpt>
      <trkpt lat="47.51879" lon="-2.73837">
        <ele>13</ele>
        <time>2026-08-29T14:54:20Z</time>
      </trkpt>
      <trkpt lat="47.51883" lon="-2.73833">
        <ele>13</ele>
        <time>2026-08-29T14:54:21Z</time>
      </trkpt>
      <trkpt lat="47.51887" lon="-2.73829">
        <ele>13</ele>
        <time>2026-08-29T14:54:22Z</time>
      </trkpt>
      <trkpt lat="47.5189" lon="-2.73825">
        <ele>13</ele>
        <time>2026-08-29T14:54:23Z</time>
      </trkpt>
      <trkpt lat="47.51894" lon="-2.73821">
        <ele>13</ele>
        <time>2026-08-29T14:54:24Z</time>
      </trkpt>
      <trkpt lat="47.51898" lon="-2.73818">
        <ele>13</ele>
        <time>2026-08-29T14:54:25Z</time>
      </trkpt>
      <trkpt lat="47.51902" lon="-2.73814">
        <ele>13</ele>
        <time>2026-08-29T14:54:26Z</time>
      </trkpt>
      <trkpt lat="47.51906" lon="-2.7381">
        <ele>13</ele>
        <time>2026-08-29T14:54:27Z</time>
      </trkpt>
      <trkpt lat="47.51909" lon="-2.73806">
        <ele>13</ele>
        <time>2026-08-29T14:54:28Z</time>
      </trkpt>
      <trkpt lat="47.51913" lon="-2.73802">
        <ele>13</ele>
        <time>2026-08-29T14:54:29Z</time>
      </trkpt>
      <trkpt lat="47.51916" lon="-2.73798">
        <ele>13</ele>
        <time>2026-08-29T14:54:30Z</time>
      </trkpt>
      <trkpt lat="47.5192" lon="-2.73794">
        <ele>13</ele>
        <time>2026-08-29T14:54:31Z</time>
      </trkpt>
      <trkpt lat="47.51923" lon="-2.7379">
        <ele>13</ele>
        <time>2026-08-29T14:54:32Z</time>
      </trkpt>
      <trkpt lat="47.51926" lon="-2.73785">
        <ele>13</ele>
        <time>2026-08-29T14:54:33Z</time>
      </trkpt>
      <trkpt lat="47.51929" lon="-2.73781">
        <ele>13</ele>
        <time>2026-08-29T14:54:34Z</time>
      </trkpt>
      <trkpt lat="47.51932" lon="-2.73777">
        <ele>13</ele>
        <time>2026-08-29T14:54:35Z</time>
      </trkpt>
      <trkpt lat="47.51934" lon="-2.73772">
        <ele>13.1</ele>
        <time>2026-08-29T14:54:36Z</time>
      </trkpt>
      <trkpt lat="47.51937" lon="-2.73768">
        <ele>13.3</ele>
        <time>2026-08-29T14:54:37Z</time>
      </trkpt>
      <trkpt lat="47.51939" lon="-2.73764">
        <ele>13.4</ele>
        <time>2026-08-29T14:54:38Z</time>
      </trkpt>
      <trkpt lat="47.51942" lon="-2.7376">
        <ele>13.6</ele>
        <time>2026-08-29T14:54:39Z</time>
      </trkpt>
      <trkpt lat="47.51944" lon="-2.73756">
        <ele>13.8</ele>
        <time>2026-08-29T14:54:40Z</time>
      </trkpt>
      <trkpt lat="47.51947" lon="-2.73752">
        <ele>13.9</ele>
        <time>2026-08-29T14:54:41Z</time>
      </trkpt>
      <trkpt lat="47.5195" lon="-2.73748">
        <ele>14</ele>
        <time>2026-08-29T14:54:42Z</time>
      </trkpt>
      <trkpt lat="47.51952" lon="-2.73743">
        <ele>14</ele>
        <time>2026-08-29T14:54:43Z</time>
      </trkpt>
      <trkpt lat="47.51955" lon="-2.73739">
        <ele>14</ele>
        <time>2026-08-29T14:54:44Z</time>
      </trkpt>
      <trkpt lat="47.51957" lon="-2.73734">
        <ele>14</ele>
        <time>2026-08-29T14:54:45Z</time>
      </trkpt>
      <trkpt lat="47.51959" lon="-2.73728">
        <ele>14</ele>
        <time>2026-08-29T14:54:46Z</time>
      </trkpt>
      <trkpt lat="47.51961" lon="-2.73722">
        <ele>14</ele>
        <time>2026-08-29T14:54:47Z</time>
      </trkpt>
      <trkpt lat="47.51962" lon="-2.73716">
        <ele>13.9</ele>
        <time>2026-08-29T14:54:48Z</time>
      </trkpt>
      <trkpt lat="47.51963" lon="-2.7371">
        <ele>13.9</ele>
        <time>2026-08-29T14:54:49Z</time>
      </trkpt>
      <trkpt lat="47.51965" lon="-2.73703">
        <ele>13.8</ele>
        <time>2026-08-29T14:54:50Z</time>
      </trkpt>
      <trkpt lat="47.51966" lon="-2.73697">
        <ele>13.8</ele>
        <time>2026-08-29T14:54:51Z</time>
      </trkpt>
      <trkpt lat="47.51967" lon="-2.7369">
        <ele>13.7</ele>
        <time>2026-08-29T14:54:52Z</time>
      </trkpt>
      <trkpt lat="47.51968" lon="-2.73683">
        <ele>13.5</ele>
        <time>2026-08-29T14:54:53Z</time>
      </trkpt>
      <trkpt lat="47.51968" lon="-2.73676">
        <ele>13.3</ele>
        <time>2026-08-29T14:54:54Z</time>
      </trkpt>
      <trkpt lat="47.51969" lon="-2.73669">
        <ele>13.1</ele>
        <time>2026-08-29T14:54:55Z</time>
      </trkpt>
      <trkpt lat="47.51969" lon="-2.73663">
        <ele>13</ele>
        <time>2026-08-29T14:54:56Z</time>
      </trkpt>
      <trkpt lat="47.5197" lon="-2.73656">
        <ele>13</ele>
        <time>2026-08-29T14:54:57Z</time>
      </trkpt>
      <trkpt lat="47.51971" lon="-2.73649">
        <ele>13</ele>
        <time>2026-08-29T14:54:58Z</time>
      </trkpt>
      <trkpt lat="47.51971" lon="-2.73642">
        <ele>13</ele>
        <time>2026-08-29T14:54:59Z</time>
      </trkpt>
      <trkpt lat="47.51972" lon="-2.73635">
        <ele>13</ele>
        <time>2026-08-29T14:55:00Z</time>
      </trkpt>
      <trkpt lat="47.51972" lon="-2.73628">
        <ele>13</ele>
        <time>2026-08-29T14:55:01Z</time>
      </trkpt>
      <trkpt lat="47.51972" lon="-2.73621">
        <ele>13</ele>
        <time>2026-08-29T14:55:02Z</time>
      </trkpt>
      <trkpt lat="47.51972" lon="-2.73613">
        <ele>13</ele>
        <time>2026-08-29T14:55:03Z</time>
      </trkpt>
      <trkpt lat="47.51972" lon="-2.73606">
        <ele>13</ele>
        <time>2026-08-29T14:55:04Z</time>
      </trkpt>
      <trkpt lat="47.51972" lon="-2.73598">
        <ele>13</ele>
        <time>2026-08-29T14:55:05Z</time>
      </trkpt>
      <trkpt lat="47.51973" lon="-2.7359">
        <ele>13</ele>
        <time>2026-08-29T14:55:06Z</time>
      </trkpt>
      <trkpt lat="47.51973" lon="-2.73582">
        <ele>13</ele>
        <time>2026-08-29T14:55:07Z</time>
      </trkpt>
      <trkpt lat="47.51973" lon="-2.73574">
        <ele>13</ele>
        <time>2026-08-29T14:55:08Z</time>
      </trkpt>
      <trkpt lat="47.51973" lon="-2.73567">
        <ele>13</ele>
        <time>2026-08-29T14:55:09Z</time>
      </trkpt>
      <trkpt lat="47.51973" lon="-2.73558">
        <ele>13</ele>
        <time>2026-08-29T14:55:10Z</time>
      </trkpt>
      <trkpt lat="47.51973" lon="-2.7355">
        <ele>12.8</ele>
        <time>2026-08-29T14:55:11Z</time>
      </trkpt>
      <trkpt lat="47.51972" lon="-2.73542">
        <ele>12.5</ele>
        <time>2026-08-29T14:55:12Z</time>
      </trkpt>
      <trkpt lat="47.51971" lon="-2.73534">
        <ele>12.3</ele>
        <time>2026-08-29T14:55:13Z</time>
      </trkpt>
      <trkpt lat="47.5197" lon="-2.73526">
        <ele>12.1</ele>
        <time>2026-08-29T14:55:14Z</time>
      </trkpt>
      <trkpt lat="47.51969" lon="-2.73517">
        <ele>12.1</ele>
        <time>2026-08-29T14:55:15Z</time>
      </trkpt>
      <trkpt lat="47.51968" lon="-2.73509">
        <ele>12</ele>
        <time>2026-08-29T14:55:16Z</time>
      </trkpt>
      <trkpt lat="47.51967" lon="-2.735">
        <ele>12</ele>
        <time>2026-08-29T14:55:17Z</time>
      </trkpt>
      <trkpt lat="47.51966" lon="-2.73491">
        <ele>11.7</ele>
        <time>2026-08-29T14:55:18Z</time>
      </trkpt>
      <trkpt lat="47.51966" lon="-2.73483">
        <ele>11.5</ele>
        <time>2026-08-29T14:55:19Z</time>
      </trkpt>
      <trkpt lat="47.51966" lon="-2.73473">
        <ele>11.2</ele>
        <time>2026-08-29T14:55:20Z</time>
      </trkpt>
      <trkpt lat="47.51966" lon="-2.73464">
        <ele>11.2</ele>
        <time>2026-08-29T14:55:21Z</time>
      </trkpt>
      <trkpt lat="47.51966" lon="-2.73456">
        <ele>11.1</ele>
        <time>2026-08-29T14:55:22Z</time>
      </trkpt>
      <trkpt lat="47.51966" lon="-2.73447">
        <ele>11</ele>
        <time>2026-08-29T14:55:23Z</time>
      </trkpt>
      <trkpt lat="47.51966" lon="-2.73438">
        <ele>10.8</ele>
        <time>2026-08-29T14:55:24Z</time>
      </trkpt>
      <trkpt lat="47.51966" lon="-2.73429">
        <ele>10.4</ele>
        <time>2026-08-29T14:55:25Z</time>
      </trkpt>
      <trkpt lat="47.51965" lon="-2.7342">
        <ele>10.1</ele>
        <time>2026-08-29T14:55:26Z</time>
      </trkpt>
      <trkpt lat="47.51964" lon="-2.73412">
        <ele>10</ele>
        <time>2026-08-29T14:55:27Z</time>
      </trkpt>
      <trkpt lat="47.51963" lon="-2.73403">
        <ele>10</ele>
        <time>2026-08-29T14:55:28Z</time>
      </trkpt>
      <trkpt lat="47.51963" lon="-2.73395">
        <ele>10</ele>
        <time>2026-08-29T14:55:29Z</time>
      </trkpt>
      <trkpt lat="47.51962" lon="-2.73387">
        <ele>10</ele>
        <time>2026-08-29T14:55:30Z</time>
      </trkpt>
      <trkpt lat="47.51963" lon="-2.73378">
        <ele>9.9</ele>
        <time>2026-08-29T14:55:31Z</time>
      </trkpt>
      <trkpt lat="47.51964" lon="-2.7337">
        <ele>9.8</ele>
        <time>2026-08-29T14:55:32Z</time>
      </trkpt>
      <trkpt lat="47.51966" lon="-2.73363">
        <ele>9.8</ele>
        <time>2026-08-29T14:55:33Z</time>
      </trkpt>
      <trkpt lat="47.51968" lon="-2.73355">
        <ele>9.8</ele>
        <time>2026-08-29T14:55:34Z</time>
      </trkpt>
      <trkpt lat="47.5197" lon="-2.73348">
        <ele>9.9</ele>
        <time>2026-08-29T14:55:35Z</time>
      </trkpt>
      <trkpt lat="47.51972" lon="-2.73341">
        <ele>10</ele>
        <time>2026-08-29T14:55:36Z</time>
      </trkpt>
      <trkpt lat="47.51973" lon="-2.73335">
        <ele>10</ele>
        <time>2026-08-29T14:55:37Z</time>
      </trkpt>
      <trkpt lat="47.51975" lon="-2.73328">
        <ele>10.1</ele>
        <time>2026-08-29T14:55:38Z</time>
      </trkpt>
      <trkpt lat="47.51976" lon="-2.73322">
        <ele>10.1</ele>
        <time>2026-08-29T14:55:39Z</time>
      </trkpt>
      <trkpt lat="47.51978" lon="-2.73316">
        <ele>10.2</ele>
        <time>2026-08-29T14:55:40Z</time>
      </trkpt>
      <trkpt lat="47.51979" lon="-2.7331">
        <ele>10.2</ele>
        <time>2026-08-29T14:55:41Z</time>
      </trkpt>
      <trkpt lat="47.5198" lon="-2.73304">
        <ele>10.3</ele>
        <time>2026-08-29T14:55:42Z</time>
      </trkpt>
      <trkpt lat="47.51981" lon="-2.73298">
        <ele>10.6</ele>
        <time>2026-08-29T14:55:43Z</time>
      </trkpt>
      <trkpt lat="47.51982" lon="-2.73292">
        <ele>10.8</ele>
        <time>2026-08-29T14:55:44Z</time>
      </trkpt>
      <trkpt lat="47.51983" lon="-2.73287">
        <ele>11.1</ele>
        <time>2026-08-29T14:55:45Z</time>
      </trkpt>
      <trkpt lat="47.51985" lon="-2.73281">
        <ele>11.3</ele>
        <time>2026-08-29T14:55:46Z</time>
      </trkpt>
      <trkpt lat="47.51986" lon="-2.73275">
        <ele>11.5</ele>
        <time>2026-08-29T14:55:47Z</time>
      </trkpt>
      <trkpt lat="47.51988" lon="-2.73269">
        <ele>11.6</ele>
        <time>2026-08-29T14:55:48Z</time>
      </trkpt>
      <trkpt lat="47.5199" lon="-2.73264">
        <ele>11.6</ele>
        <time>2026-08-29T14:55:49Z</time>
      </trkpt>
      <trkpt lat="47.51992" lon="-2.73258">
        <ele>11.7</ele>
        <time>2026-08-29T14:55:50Z</time>
      </trkpt>
      <trkpt lat="47.51994" lon="-2.73253">
        <ele>11.8</ele>
        <time>2026-08-29T14:55:51Z</time>
      </trkpt>
      <trkpt lat="47.51997" lon="-2.73247">
        <ele>12</ele>
        <time>2026-08-29T14:55:52Z</time>
      </trkpt>
      <trkpt lat="47.51999" lon="-2.73243">
        <ele>12.2</ele>
        <time>2026-08-29T14:55:53Z</time>
      </trkpt>
      <trkpt lat="47.52002" lon="-2.73238">
        <ele>12.5</ele>
        <time>2026-08-29T14:55:54Z</time>
      </trkpt>
      <trkpt lat="47.52005" lon="-2.73235">
        <ele>12.7</ele>
        <time>2026-08-29T14:55:55Z</time>
      </trkpt>
      <trkpt lat="47.52009" lon="-2.73233">
        <ele>12.9</ele>
        <time>2026-08-29T14:55:56Z</time>
      </trkpt>
      <trkpt lat="47.52012" lon="-2.73232">
        <ele>13.1</ele>
        <time>2026-08-29T14:55:57Z</time>
      </trkpt>
      <trkpt lat="47.52016" lon="-2.73232">
        <ele>13.2</ele>
        <time>2026-08-29T14:55:58Z</time>
      </trkpt>
      <trkpt lat="47.52019" lon="-2.73232">
        <ele>13.3</ele>
        <time>2026-08-29T14:55:59Z</time>
      </trkpt>
      <trkpt lat="47.52023" lon="-2.73232">
        <ele>13.5</ele>
        <time>2026-08-29T14:56:00Z</time>
      </trkpt>
      <trkpt lat="47.52026" lon="-2.73234">
        <ele>13.5</ele>
        <time>2026-08-29T14:56:01Z</time>
      </trkpt>
      <trkpt lat="47.52029" lon="-2.73237">
        <ele>13.5</ele>
        <time>2026-08-29T14:56:02Z</time>
      </trkpt>
      <trkpt lat="47.52032" lon="-2.7324">
        <ele>13.5</ele>
        <time>2026-08-29T14:56:03Z</time>
      </trkpt>
      <trkpt lat="47.52035" lon="-2.73244">
        <ele>13.4</ele>
        <time>2026-08-29T14:56:04Z</time>
      </trkpt>
      <trkpt lat="47.52038" lon="-2.73248">
        <ele>13.4</ele>
        <time>2026-08-29T14:56:05Z</time>
      </trkpt>
      <trkpt lat="47.5204" lon="-2.73253">
        <ele>13.4</ele>
        <time>2026-08-29T14:56:06Z</time>
      </trkpt>
      <trkpt lat="47.52043" lon="-2.73257">
        <ele>13.5</ele>
        <time>2026-08-29T14:56:07Z</time>
      </trkpt>
      <trkpt lat="47.52046" lon="-2.73261">
        <ele>13.7</ele>
        <time>2026-08-29T14:56:08Z</time>
      </trkpt>
      <trkpt lat="47.52048" lon="-2.73265">
        <ele>13.7</ele>
        <time>2026-08-29T14:56:09Z</time>
      </trkpt>
      <trkpt lat="47.52051" lon="-2.73268">
        <ele>13.8</ele>
        <time>2026-08-29T14:56:10Z</time>
      </trkpt>
      <trkpt lat="47.52054" lon="-2.73272">
        <ele>13.9</ele>
        <time>2026-08-29T14:56:11Z</time>
      </trkpt>
      <trkpt lat="47.52057" lon="-2.73276">
        <ele>14</ele>
        <time>2026-08-29T14:56:12Z</time>
      </trkpt>
      <trkpt lat="47.52059" lon="-2.7328">
        <ele>14</ele>
        <time>2026-08-29T14:56:13Z</time>
      </trkpt>
      <trkpt lat="47.52062" lon="-2.73284">
        <ele>14</ele>
        <time>2026-08-29T14:56:14Z</time>
      </trkpt>
      <trkpt lat="47.52065" lon="-2.73288">
        <ele>14</ele>
        <time>2026-08-29T14:56:15Z</time>
      </trkpt>
      <trkpt lat="47.52068" lon="-2.73292">
        <ele>14</ele>
        <time>2026-08-29T14:56:16Z</time>
      </trkpt>
      <trkpt lat="47.52071" lon="-2.73297">
        <ele>14</ele>
        <time>2026-08-29T14:56:17Z</time>
      </trkpt>
      <trkpt lat="47.52073" lon="-2.73301">
        <ele>14</ele>
        <time>2026-08-29T14:56:18Z</time>
      </trkpt>
      <trkpt lat="47.52076" lon="-2.73305">
        <ele>14</ele>
        <time>2026-08-29T14:56:19Z</time>
      </trkpt>
      <trkpt lat="47.52079" lon="-2.7331">
        <ele>14</ele>
        <time>2026-08-29T14:56:20Z</time>
      </trkpt>
      <trkpt lat="47.52082" lon="-2.73315">
        <ele>14</ele>
        <time>2026-08-29T14:56:21Z</time>
      </trkpt>
      <trkpt lat="47.52085" lon="-2.73319">
        <ele>14</ele>
        <time>2026-08-29T14:56:22Z</time>
      </trkpt>
      <trkpt lat="47.52088" lon="-2.73324">
        <ele>14</ele>
        <time>2026-08-29T14:56:23Z</time>
      </trkpt>
      <trkpt lat="47.52091" lon="-2.73328">
        <ele>14</ele>
        <time>2026-08-29T14:56:24Z</time>
      </trkpt>
      <trkpt lat="47.52094" lon="-2.73332">
        <ele>14</ele>
        <time>2026-08-29T14:56:25Z</time>
      </trkpt>
      <trkpt lat="47.52097" lon="-2.73337">
        <ele>13.9</ele>
        <time>2026-08-29T14:56:26Z</time>
      </trkpt>
      <trkpt lat="47.521" lon="-2.73341">
        <ele>13.9</ele>
        <time>2026-08-29T14:56:27Z</time>
      </trkpt>
      <trkpt lat="47.52103" lon="-2.73345">
        <ele>13.9</ele>
        <time>2026-08-29T14:56:28Z</time>
      </trkpt>
      <trkpt lat="47.52105" lon="-2.73349">
        <ele>13.9</ele>
        <time>2026-08-29T14:56:29Z</time>
      </trkpt>
      <trkpt lat="47.52108" lon="-2.73353">
        <ele>13.9</ele>
        <time>2026-08-29T14:56:30Z</time>
      </trkpt>
      <trkpt lat="47.52111" lon="-2.73357">
        <ele>14</ele>
        <time>2026-08-29T14:56:31Z</time>
      </trkpt>
      <trkpt lat="47.52114" lon="-2.73361">
        <ele>14.1</ele>
        <time>2026-08-29T14:56:32Z</time>
      </trkpt>
      <trkpt lat="47.52117" lon="-2.73365">
        <ele>14.2</ele>
        <time>2026-08-29T14:56:33Z</time>
      </trkpt>
      <trkpt lat="47.52119" lon="-2.73369">
        <ele>14.3</ele>
        <time>2026-08-29T14:56:34Z</time>
      </trkpt>
      <trkpt lat="47.52122" lon="-2.73374">
        <ele>14.4</ele>
        <time>2026-08-29T14:56:35Z</time>
      </trkpt>
      <trkpt lat="47.52125" lon="-2.73378">
        <ele>14.5</ele>
        <time>2026-08-29T14:56:36Z</time>
      </trkpt>
      <trkpt lat="47.52128" lon="-2.73382">
        <ele>14.6</ele>
        <time>2026-08-29T14:56:37Z</time>
      </trkpt>
      <trkpt lat="47.52131" lon="-2.73387">
        <ele>14.7</ele>
        <time>2026-08-29T14:56:38Z</time>
      </trkpt>
      <trkpt lat="47.52134" lon="-2.73391">
        <ele>14.7</ele>
        <time>2026-08-29T14:56:39Z</time>
      </trkpt>
      <trkpt lat="47.52137" lon="-2.73395">
        <ele>14.7</ele>
        <time>2026-08-29T14:56:40Z</time>
      </trkpt>
      <trkpt lat="47.52139" lon="-2.734">
        <ele>14.6</ele>
        <time>2026-08-29T14:56:41Z</time>
      </trkpt>
      <trkpt lat="47.52142" lon="-2.73404">
        <ele>14.6</ele>
        <time>2026-08-29T14:56:42Z</time>
      </trkpt>
      <trkpt lat="47.52145" lon="-2.73408">
        <ele>14.5</ele>
        <time>2026-08-29T14:56:43Z</time>
      </trkpt>
      <trkpt lat="47.52148" lon="-2.73412">
        <ele>14.5</ele>
        <time>2026-08-29T14:56:44Z</time>
      </trkpt>
      <trkpt lat="47.52151" lon="-2.73416">
        <ele>14.5</ele>
        <time>2026-08-29T14:56:45Z</time>
      </trkpt>
      <trkpt lat="47.52153" lon="-2.7342">
        <ele>14.6</ele>
        <time>2026-08-29T14:56:46Z</time>
      </trkpt>
      <trkpt lat="47.52156" lon="-2.73424">
        <ele>14.7</ele>
        <time>2026-08-29T14:56:47Z</time>
      </trkpt>
      <trkpt lat="47.52159" lon="-2.73428">
        <ele>14.8</ele>
        <time>2026-08-29T14:56:48Z</time>
      </trkpt>
      <trkpt lat="47.52162" lon="-2.73432">
        <ele>14.9</ele>
        <time>2026-08-29T14:56:49Z</time>
      </trkpt>
      <trkpt lat="47.52164" lon="-2.73436">
        <ele>15</ele>
        <time>2026-08-29T14:56:50Z</time>
      </trkpt>
      <trkpt lat="47.52167" lon="-2.73439">
        <ele>15</ele>
        <time>2026-08-29T14:56:51Z</time>
      </trkpt>
      <trkpt lat="47.52169" lon="-2.73443">
        <ele>15.1</ele>
        <time>2026-08-29T14:56:52Z</time>
      </trkpt>
      <trkpt lat="47.52172" lon="-2.73447">
        <ele>15.3</ele>
        <time>2026-08-29T14:56:53Z</time>
      </trkpt>
      <trkpt lat="47.52174" lon="-2.73451">
        <ele>15.5</ele>
        <time>2026-08-29T14:56:54Z</time>
      </trkpt>
      <trkpt lat="47.52177" lon="-2.73455">
        <ele>15.8</ele>
        <time>2026-08-29T14:56:55Z</time>
      </trkpt>
      <trkpt lat="47.52179" lon="-2.73459">
        <ele>16</ele>
        <time>2026-08-29T14:56:56Z</time>
      </trkpt>
      <trkpt lat="47.52182" lon="-2.73462">
        <ele>16.2</ele>
        <time>2026-08-29T14:56:57Z</time>
      </trkpt>
      <trkpt lat="47.52184" lon="-2.73465">
        <ele>16.4</ele>
        <time>2026-08-29T14:56:58Z</time>
      </trkpt>
      <trkpt lat="47.52187" lon="-2.73469">
        <ele>16.6</ele>
        <time>2026-08-29T14:56:59Z</time>
      </trkpt>
      <trkpt lat="47.52189" lon="-2.73472">
        <ele>16.8</ele>
        <time>2026-08-29T14:57:00Z</time>
      </trkpt>
      <trkpt lat="47.52192" lon="-2.73475">
        <ele>16.9</ele>
        <time>2026-08-29T14:57:01Z</time>
      </trkpt>
      <trkpt lat="47.52194" lon="-2.73479">
        <ele>17</ele>
        <time>2026-08-29T14:57:02Z</time>
      </trkpt>
      <trkpt lat="47.52197" lon="-2.73482">
        <ele>17.1</ele>
        <time>2026-08-29T14:57:03Z</time>
      </trkpt>
      <trkpt lat="47.52199" lon="-2.73486">
        <ele>17.2</ele>
        <time>2026-08-29T14:57:04Z</time>
      </trkpt>
      <trkpt lat="47.52201" lon="-2.73489">
        <ele>17.2</ele>
        <time>2026-08-29T14:57:05Z</time>
      </trkpt>
      <trkpt lat="47.52204" lon="-2.73492">
        <ele>17.3</ele>
        <time>2026-08-29T14:57:06Z</time>
      </trkpt>
      <trkpt lat="47.52206" lon="-2.73496">
        <ele>17.4</ele>
        <time>2026-08-29T14:57:07Z</time>
      </trkpt>
      <trkpt lat="47.52208" lon="-2.73499">
        <ele>17.5</ele>
        <time>2026-08-29T14:57:08Z</time>
      </trkpt>
      <trkpt lat="47.52211" lon="-2.73502">
        <ele>17.7</ele>
        <time>2026-08-29T14:57:09Z</time>
      </trkpt>
      <trkpt lat="47.52213" lon="-2.73506">
        <ele>17.9</ele>
        <time>2026-08-29T14:57:10Z</time>
      </trkpt>
      <trkpt lat="47.52215" lon="-2.7351">
        <ele>18.1</ele>
        <time>2026-08-29T14:57:11Z</time>
      </trkpt>
      <trkpt lat="47.52217" lon="-2.73513">
        <ele>18.3</ele>
        <time>2026-08-29T14:57:12Z</time>
      </trkpt>
      <trkpt lat="47.52219" lon="-2.73516">
        <ele>18.5</ele>
        <time>2026-08-29T14:57:13Z</time>
      </trkpt>
      <trkpt lat="47.52221" lon="-2.7352">
        <ele>18.7</ele>
        <time>2026-08-29T14:57:14Z</time>
      </trkpt>
      <trkpt lat="47.52223" lon="-2.73523">
        <ele>18.9</ele>
        <time>2026-08-29T14:57:15Z</time>
      </trkpt>
      <trkpt lat="47.52225" lon="-2.73526">
        <ele>19</ele>
        <time>2026-08-29T14:57:16Z</time>
      </trkpt>
      <trkpt lat="47.52227" lon="-2.73529">
        <ele>19.2</ele>
        <time>2026-08-29T14:57:17Z</time>
      </trkpt>
      <trkpt lat="47.52229" lon="-2.73533">
        <ele>19.2</ele>
        <time>2026-08-29T14:57:18Z</time>
      </trkpt>
      <trkpt lat="47.5223" lon="-2.73537">
        <ele>19.3</ele>
        <time>2026-08-29T14:57:19Z</time>
      </trkpt>
      <trkpt lat="47.52231" lon="-2.7354">
        <ele>19.3</ele>
        <time>2026-08-29T14:57:20Z</time>
      </trkpt>
      <trkpt lat="47.52232" lon="-2.73545">
        <ele>19.4</ele>
        <time>2026-08-29T14:57:21Z</time>
      </trkpt>
      <trkpt lat="47.52232" lon="-2.73549">
        <ele>19.4</ele>
        <time>2026-08-29T14:57:22Z</time>
      </trkpt>
      <trkpt lat="47.52232" lon="-2.73553">
        <ele>19.4</ele>
        <time>2026-08-29T14:57:23Z</time>
      </trkpt>
      <trkpt lat="47.52233" lon="-2.73557">
        <ele>19.4</ele>
        <time>2026-08-29T14:57:24Z</time>
      </trkpt>
      <trkpt lat="47.52233" lon="-2.73562">
        <ele>19.6</ele>
        <time>2026-08-29T14:57:25Z</time>
      </trkpt>
      <trkpt lat="47.52234" lon="-2.73566">
        <ele>19.8</ele>
        <time>2026-08-29T14:57:26Z</time>
      </trkpt>
      <trkpt lat="47.52234" lon="-2.73571">
        <ele>20</ele>
        <time>2026-08-29T14:57:27Z</time>
      </trkpt>
      <trkpt lat="47.52234" lon="-2.73575">
        <ele>20.1</ele>
        <time>2026-08-29T14:57:28Z</time>
      </trkpt>
      <trkpt lat="47.52234" lon="-2.7358">
        <ele>20.3</ele>
        <time>2026-08-29T14:57:29Z</time>
      </trkpt>
      <trkpt lat="47.52235" lon="-2.73584">
        <ele>20.5</ele>
        <time>2026-08-29T14:57:30Z</time>
      </trkpt>
      <trkpt lat="47.52235" lon="-2.73589">
        <ele>20.5</ele>
        <time>2026-08-29T14:57:31Z</time>
      </trkpt>
      <trkpt lat="47.52235" lon="-2.73593">
        <ele>20.5</ele>
        <time>2026-08-29T14:57:32Z</time>
      </trkpt>
      <trkpt lat="47.52235" lon="-2.73598">
        <ele>20.5</ele>
        <time>2026-08-29T14:57:33Z</time>
      </trkpt>
      <trkpt lat="47.52236" lon="-2.73603">
        <ele>20.5</ele>
        <time>2026-08-29T14:57:34Z</time>
      </trkpt>
      <trkpt lat="47.52236" lon="-2.73608">
        <ele>20.5</ele>
        <time>2026-08-29T14:57:35Z</time>
      </trkpt>
      <trkpt lat="47.52236" lon="-2.73613">
        <ele>20.5</ele>
        <time>2026-08-29T14:57:36Z</time>
      </trkpt>
      <trkpt lat="47.52236" lon="-2.73618">
        <ele>20.6</ele>
        <time>2026-08-29T14:57:37Z</time>
      </trkpt>
      <trkpt lat="47.52236" lon="-2.73622">
        <ele>20.7</ele>
        <time>2026-08-29T14:57:38Z</time>
      </trkpt>
      <trkpt lat="47.52236" lon="-2.73627">
        <ele>20.8</ele>
        <time>2026-08-29T14:57:39Z</time>
      </trkpt>
      <trkpt lat="47.52236" lon="-2.73631">
        <ele>20.9</ele>
        <time>2026-08-29T14:57:40Z</time>
      </trkpt>
      <trkpt lat="47.52236" lon="-2.73636">
        <ele>20.9</ele>
        <time>2026-08-29T14:57:41Z</time>
      </trkpt>
      <trkpt lat="47.52237" lon="-2.73641">
        <ele>21.1</ele>
        <time>2026-08-29T14:57:42Z</time>
      </trkpt>
      <trkpt lat="47.52237" lon="-2.73646">
        <ele>21.2</ele>
        <time>2026-08-29T14:57:43Z</time>
      </trkpt>
      <trkpt lat="47.52237" lon="-2.73651">
        <ele>21.3</ele>
        <time>2026-08-29T14:57:44Z</time>
      </trkpt>
      <trkpt lat="47.52237" lon="-2.73656">
        <ele>21.4</ele>
        <time>2026-08-29T14:57:45Z</time>
      </trkpt>
      <trkpt lat="47.52237" lon="-2.73661">
        <ele>21.4</ele>
        <time>2026-08-29T14:57:46Z</time>
      </trkpt>
      <trkpt lat="47.52238" lon="-2.73666">
        <ele>21.6</ele>
        <time>2026-08-29T14:57:47Z</time>
      </trkpt>
      <trkpt lat="47.52238" lon="-2.73671">
        <ele>21.6</ele>
        <time>2026-08-29T14:57:48Z</time>
      </trkpt>
      <trkpt lat="47.52238" lon="-2.73676">
        <ele>21.6</ele>
        <time>2026-08-29T14:57:49Z</time>
      </trkpt>
      <trkpt lat="47.52238" lon="-2.73681">
        <ele>21.6</ele>
        <time>2026-08-29T14:57:50Z</time>
      </trkpt>
      <trkpt lat="47.52238" lon="-2.73686">
        <ele>21.6</ele>
        <time>2026-08-29T14:57:51Z</time>
      </trkpt>
      <trkpt lat="47.52239" lon="-2.73691">
        <ele>21.6</ele>
        <time>2026-08-29T14:57:52Z</time>
      </trkpt>
      <trkpt lat="47.5224" lon="-2.73696">
        <ele>21.7</ele>
        <time>2026-08-29T14:57:53Z</time>
      </trkpt>
      <trkpt lat="47.52241" lon="-2.737">
        <ele>21.8</ele>
        <time>2026-08-29T14:57:54Z</time>
      </trkpt>
      <trkpt lat="47.52242" lon="-2.73705">
        <ele>22</ele>
        <time>2026-08-29T14:57:55Z</time>
      </trkpt>
      <trkpt lat="47.52243" lon="-2.7371">
        <ele>22.2</ele>
        <time>2026-08-29T14:57:56Z</time>
      </trkpt>
      <trkpt lat="47.52244" lon="-2.73714">
        <ele>22.3</ele>
        <time>2026-08-29T14:57:57Z</time>
      </trkpt>
      <trkpt lat="47.52245" lon="-2.73718">
        <ele>22.5</ele>
        <time>2026-08-29T14:57:58Z</time>
      </trkpt>
      <trkpt lat="47.52246" lon="-2.73723">
        <ele>22.7</ele>
        <time>2026-08-29T14:57:59Z</time>
      </trkpt>
      <trkpt lat="47.52247" lon="-2.73727">
        <ele>22.8</ele>
        <time>2026-08-29T14:58:00Z</time>
      </trkpt>
      <trkpt lat="47.52249" lon="-2.73732">
        <ele>22.9</ele>
        <time>2026-08-29T14:58:01Z</time>
      </trkpt>
      <trkpt lat="47.5225" lon="-2.73736">
        <ele>23</ele>
        <time>2026-08-29T14:58:02Z</time>
      </trkpt>
      <trkpt lat="47.52252" lon="-2.7374">
        <ele>23</ele>
        <time>2026-08-29T14:58:03Z</time>
      </trkpt>
      <trkpt lat="47.52253" lon="-2.73745">
        <ele>23.1</ele>
        <time>2026-08-29T14:58:04Z</time>
      </trkpt>
      <trkpt lat="47.52255" lon="-2.73749">
        <ele>23.2</ele>
        <time>2026-08-29T14:58:05Z</time>
      </trkpt>
      <trkpt lat="47.52257" lon="-2.73754">
        <ele>23.1</ele>
        <time>2026-08-29T14:58:06Z</time>
      </trkpt>
      <trkpt lat="47.52259" lon="-2.73758">
        <ele>23</ele>
        <time>2026-08-29T14:58:07Z</time>
      </trkpt>
      <trkpt lat="47.52261" lon="-2.73762">
        <ele>23</ele>
        <time>2026-08-29T14:58:08Z</time>
      </trkpt>
      <trkpt lat="47.52262" lon="-2.73767">
        <ele>22.8</ele>
        <time>2026-08-29T14:58:09Z</time>
      </trkpt>
      <trkpt lat="47.52264" lon="-2.73771">
        <ele>22.7</ele>
        <time>2026-08-29T14:58:10Z</time>
      </trkpt>
      <trkpt lat="47.52266" lon="-2.73776">
        <ele>22.6</ele>
        <time>2026-08-29T14:58:11Z</time>
      </trkpt>
      <trkpt lat="47.52267" lon="-2.7378">
        <ele>22.6</ele>
        <time>2026-08-29T14:58:12Z</time>
      </trkpt>
      <trkpt lat="47.52269" lon="-2.73784">
        <ele>22.7</ele>
        <time>2026-08-29T14:58:13Z</time>
      </trkpt>
      <trkpt lat="47.52271" lon="-2.73788">
        <ele>22.8</ele>
        <time>2026-08-29T14:58:14Z</time>
      </trkpt>
      <trkpt lat="47.52272" lon="-2.73793">
        <ele>22.8</ele>
        <time>2026-08-29T14:58:15Z</time>
      </trkpt>
      <trkpt lat="47.52274" lon="-2.73797">
        <ele>22.9</ele>
        <time>2026-08-29T14:58:16Z</time>
      </trkpt>
      <trkpt lat="47.52276" lon="-2.73802">
        <ele>22.9</ele>
        <time>2026-08-29T14:58:17Z</time>
      </trkpt>
      <trkpt lat="47.52277" lon="-2.73806">
        <ele>23</ele>
        <time>2026-08-29T14:58:18Z</time>
      </trkpt>
      <trkpt lat="47.52279" lon="-2.7381">
        <ele>23.1</ele>
        <time>2026-08-29T14:58:19Z</time>
      </trkpt>
      <trkpt lat="47.52281" lon="-2.73815">
        <ele>23.2</ele>
        <time>2026-08-29T14:58:20Z</time>
      </trkpt>
      <trkpt lat="47.52282" lon="-2.73819">
        <ele>23.2</ele>
        <time>2026-08-29T14:58:21Z</time>
      </trkpt>
      <trkpt lat="47.52284" lon="-2.73823">
        <ele>23.4</ele>
        <time>2026-08-29T14:58:22Z</time>
      </trkpt>
      <trkpt lat="47.52285" lon="-2.73828">
        <ele>23.5</ele>
        <time>2026-08-29T14:58:23Z</time>
      </trkpt>
      <trkpt lat="47.52287" lon="-2.73832">
        <ele>23.6</ele>
        <time>2026-08-29T14:58:24Z</time>
      </trkpt>
      <trkpt lat="47.52289" lon="-2.73837">
        <ele>23.8</ele>
        <time>2026-08-29T14:58:25Z</time>
      </trkpt>
      <trkpt lat="47.52291" lon="-2.73841">
        <ele>23.8</ele>
        <time>2026-08-29T14:58:26Z</time>
      </trkpt>
      <trkpt lat="47.52292" lon="-2.73845">
        <ele>23.8</ele>
        <time>2026-08-29T14:58:27Z</time>
      </trkpt>
      <trkpt lat="47.52294" lon="-2.7385">
        <ele>23.8</ele>
        <time>2026-08-29T14:58:28Z</time>
      </trkpt>
      <trkpt lat="47.52296" lon="-2.73854">
        <ele>23.8</ele>
        <time>2026-08-29T14:58:29Z</time>
      </trkpt>
      <trkpt lat="47.52297" lon="-2.73859">
        <ele>23.7</ele>
        <time>2026-08-29T14:58:30Z</time>
      </trkpt>
      <trkpt lat="47.52299" lon="-2.73863">
        <ele>23.8</ele>
        <time>2026-08-29T14:58:31Z</time>
      </trkpt>
      <trkpt lat="47.52301" lon="-2.73868">
        <ele>23.8</ele>
        <time>2026-08-29T14:58:32Z</time>
      </trkpt>
      <trkpt lat="47.52303" lon="-2.73872">
        <ele>23.9</ele>
        <time>2026-08-29T14:58:33Z</time>
      </trkpt>
      <trkpt lat="47.52304" lon="-2.73877">
        <ele>23.9</ele>
        <time>2026-08-29T14:58:34Z</time>
      </trkpt>
      <trkpt lat="47.52306" lon="-2.73881">
        <ele>24</ele>
        <time>2026-08-29T14:58:35Z</time>
      </trkpt>
      <trkpt lat="47.52308" lon="-2.73886">
        <ele>24.1</ele>
        <time>2026-08-29T14:58:36Z</time>
      </trkpt>
      <trkpt lat="47.52309" lon="-2.7389">
        <ele>24.1</ele>
        <time>2026-08-29T14:58:37Z</time>
      </trkpt>
      <trkpt lat="47.52311" lon="-2.73894">
        <ele>24.2</ele>
        <time>2026-08-29T14:58:38Z</time>
      </trkpt>
      <trkpt lat="47.52313" lon="-2.73899">
        <ele>24.3</ele>
        <time>2026-08-29T14:58:39Z</time>
      </trkpt>
      <trkpt lat="47.52315" lon="-2.73903">
        <ele>24.3</ele>
        <time>2026-08-29T14:58:40Z</time>
      </trkpt>
      <trkpt lat="47.52316" lon="-2.73908">
        <ele>24.4</ele>
        <time>2026-08-29T14:58:41Z</time>
      </trkpt>
      <trkpt lat="47.52318" lon="-2.73913">
        <ele>24.4</ele>
        <time>2026-08-29T14:58:42Z</time>
      </trkpt>
      <trkpt lat="47.5232" lon="-2.73918">
        <ele>24.5</ele>
        <time>2026-08-29T14:58:43Z</time>
      </trkpt>
      <trkpt lat="47.52321" lon="-2.73922">
        <ele>24.6</ele>
        <time>2026-08-29T14:58:44Z</time>
      </trkpt>
      <trkpt lat="47.52323" lon="-2.73927">
        <ele>24.6</ele>
        <time>2026-08-29T14:58:45Z</time>
      </trkpt>
      <trkpt lat="47.52325" lon="-2.73931">
        <ele>24.7</ele>
        <time>2026-08-29T14:58:46Z</time>
      </trkpt>
      <trkpt lat="47.52326" lon="-2.73936">
        <ele>24.7</ele>
        <time>2026-08-29T14:58:47Z</time>
      </trkpt>
      <trkpt lat="47.52328" lon="-2.7394">
        <ele>24.8</ele>
        <time>2026-08-29T14:58:48Z</time>
      </trkpt>
      <trkpt lat="47.5233" lon="-2.73945">
        <ele>24.9</ele>
        <time>2026-08-29T14:58:49Z</time>
      </trkpt>
      <trkpt lat="47.52331" lon="-2.7395">
        <ele>24.9</ele>
        <time>2026-08-29T14:58:50Z</time>
      </trkpt>
      <trkpt lat="47.52333" lon="-2.73954">
        <ele>25</ele>
        <time>2026-08-29T14:58:51Z</time>
      </trkpt>
      <trkpt lat="47.52335" lon="-2.73959">
        <ele>25.1</ele>
        <time>2026-08-29T14:58:52Z</time>
      </trkpt>
      <trkpt lat="47.52336" lon="-2.73963">
        <ele>25.2</ele>
        <time>2026-08-29T14:58:53Z</time>
      </trkpt>
      <trkpt lat="47.52338" lon="-2.73967">
        <ele>25.3</ele>
        <time>2026-08-29T14:58:54Z</time>
      </trkpt>
      <trkpt lat="47.52339" lon="-2.73971">
        <ele>25.4</ele>
        <time>2026-08-29T14:58:55Z</time>
      </trkpt>
      <trkpt lat="47.52341" lon="-2.73975">
        <ele>25.6</ele>
        <time>2026-08-29T14:58:56Z</time>
      </trkpt>
      <trkpt lat="47.52343" lon="-2.73979">
        <ele>25.9</ele>
        <time>2026-08-29T14:58:57Z</time>
      </trkpt>
      <trkpt lat="47.52345" lon="-2.73983">
        <ele>26.1</ele>
        <time>2026-08-29T14:58:58Z</time>
      </trkpt>
      <trkpt lat="47.52346" lon="-2.73987">
        <ele>26.2</ele>
        <time>2026-08-29T14:58:59Z</time>
      </trkpt>
      <trkpt lat="47.52348" lon="-2.73991">
        <ele>26.4</ele>
        <time>2026-08-29T14:59:00Z</time>
      </trkpt>
      <trkpt lat="47.5235" lon="-2.73995">
        <ele>26.5</ele>
        <time>2026-08-29T14:59:01Z</time>
      </trkpt>
      <trkpt lat="47.52352" lon="-2.73999">
        <ele>26.7</ele>
        <time>2026-08-29T14:59:02Z</time>
      </trkpt>
      <trkpt lat="47.52353" lon="-2.74004">
        <ele>26.7</ele>
        <time>2026-08-29T14:59:03Z</time>
      </trkpt>
      <trkpt lat="47.52355" lon="-2.74008">
        <ele>26.8</ele>
        <time>2026-08-29T14:59:04Z</time>
      </trkpt>
      <trkpt lat="47.52357" lon="-2.74013">
        <ele>26.9</ele>
        <time>2026-08-29T14:59:05Z</time>
      </trkpt>
      <trkpt lat="47.52359" lon="-2.74018">
        <ele>26.9</ele>
        <time>2026-08-29T14:59:06Z</time>
      </trkpt>
      <trkpt lat="47.5236" lon="-2.74023">
        <ele>27</ele>
        <time>2026-08-29T14:59:07Z</time>
      </trkpt>
      <trkpt lat="47.52362" lon="-2.74027">
        <ele>27.1</ele>
        <time>2026-08-29T14:59:08Z</time>
      </trkpt>
      <trkpt lat="47.52364" lon="-2.74032">
        <ele>27.2</ele>
        <time>2026-08-29T14:59:09Z</time>
      </trkpt>
      <trkpt lat="47.52366" lon="-2.74036">
        <ele>27.3</ele>
        <time>2026-08-29T14:59:10Z</time>
      </trkpt>
      <trkpt lat="47.52367" lon="-2.74041">
        <ele>27.3</ele>
        <time>2026-08-29T14:59:11Z</time>
      </trkpt>
      <trkpt lat="47.52369" lon="-2.74046">
        <ele>27.4</ele>
        <time>2026-08-29T14:59:12Z</time>
      </trkpt>
      <trkpt lat="47.52371" lon="-2.7405">
        <ele>27.4</ele>
        <time>2026-08-29T14:59:13Z</time>
      </trkpt>
      <trkpt lat="47.52373" lon="-2.74055">
        <ele>27.4</ele>
        <time>2026-08-29T14:59:14Z</time>
      </trkpt>
      <trkpt lat="47.52375" lon="-2.7406">
        <ele>27.3</ele>
        <time>2026-08-29T14:59:15Z</time>
      </trkpt>
      <trkpt lat="47.52377" lon="-2.74066">
        <ele>27</ele>
        <time>2026-08-29T14:59:16Z</time>
      </trkpt>
      <trkpt lat="47.52379" lon="-2.74071">
        <ele>26.7</ele>
        <time>2026-08-29T14:59:17Z</time>
      </trkpt>
      <trkpt lat="47.52381" lon="-2.74076">
        <ele>26.5</ele>
        <time>2026-08-29T14:59:18Z</time>
      </trkpt>
      <trkpt lat="47.52383" lon="-2.74082">
        <ele>26.1</ele>
        <time>2026-08-29T14:59:19Z</time>
      </trkpt>
      <trkpt lat="47.52385" lon="-2.74087">
        <ele>26</ele>
        <time>2026-08-29T14:59:20Z</time>
      </trkpt>
      <trkpt lat="47.52387" lon="-2.74093">
        <ele>26</ele>
        <time>2026-08-29T14:59:21Z</time>
      </trkpt>
      <trkpt lat="47.5239" lon="-2.74099">
        <ele>26</ele>
        <time>2026-08-29T14:59:22Z</time>
      </trkpt>
      <trkpt lat="47.52392" lon="-2.74106">
        <ele>25.9</ele>
        <time>2026-08-29T14:59:23Z</time>
      </trkpt>
      <trkpt lat="47.52394" lon="-2.74112">
        <ele>25.8</ele>
        <time>2026-08-29T14:59:24Z</time>
      </trkpt>
      <trkpt lat="47.52396" lon="-2.74119">
        <ele>25.2</ele>
        <time>2026-08-29T14:59:25Z</time>
      </trkpt>
      <trkpt lat="47.52399" lon="-2.74126">
        <ele>24.6</ele>
        <time>2026-08-29T14:59:26Z</time>
      </trkpt>
      <trkpt lat="47.52402" lon="-2.74134">
        <ele>23.9</ele>
        <time>2026-08-29T14:59:27Z</time>
      </trkpt>
      <trkpt lat="47.52406" lon="-2.74142">
        <ele>23.2</ele>
        <time>2026-08-29T14:59:28Z</time>
      </trkpt>
      <trkpt lat="47.52409" lon="-2.7415">
        <ele>22.8</ele>
        <time>2026-08-29T14:59:29Z</time>
      </trkpt>
      <trkpt lat="47.52412" lon="-2.74159">
        <ele>22.3</ele>
        <time>2026-08-29T14:59:30Z</time>
      </trkpt>
      <trkpt lat="47.52415" lon="-2.74169">
        <ele>21.9</ele>
        <time>2026-08-29T14:59:31Z</time>
      </trkpt>
      <trkpt lat="47.52419" lon="-2.74178">
        <ele>21.5</ele>
        <time>2026-08-29T14:59:32Z</time>
      </trkpt>
      <trkpt lat="47.52422" lon="-2.74188">
        <ele>21</ele>
        <time>2026-08-29T14:59:33Z</time>
      </trkpt>
      <trkpt lat="47.52426" lon="-2.74198">
        <ele>20.5</ele>
        <time>2026-08-29T14:59:34Z</time>
      </trkpt>
      <trkpt lat="47.5243" lon="-2.74208">
        <ele>20</ele>
        <time>2026-08-29T14:59:35Z</time>
      </trkpt>
      <trkpt lat="47.52434" lon="-2.74218">
        <ele>19.5</ele>
        <time>2026-08-29T14:59:36Z</time>
      </trkpt>
      <trkpt lat="47.52438" lon="-2.74228">
        <ele>19</ele>
        <time>2026-08-29T14:59:37Z</time>
      </trkpt>
      <trkpt lat="47.52442" lon="-2.74239">
        <ele>18.4</ele>
        <time>2026-08-29T14:59:38Z</time>
      </trkpt>
      <trkpt lat="47.52446" lon="-2.74249">
        <ele>18</ele>
        <time>2026-08-29T14:59:39Z</time>
      </trkpt>
      <trkpt lat="47.5245" lon="-2.74259">
        <ele>17.7</ele>
        <time>2026-08-29T14:59:40Z</time>
      </trkpt>
      <trkpt lat="47.52454" lon="-2.74269">
        <ele>17.6</ele>
        <time>2026-08-29T14:59:41Z</time>
      </trkpt>
      <trkpt lat="47.52458" lon="-2.74279">
        <ele>17.5</ele>
        <time>2026-08-29T14:59:42Z</time>
      </trkpt>
      <trkpt lat="47.52461" lon="-2.74289">
        <ele>17.4</ele>
        <time>2026-08-29T14:59:43Z</time>
      </trkpt>
      <trkpt lat="47.52466" lon="-2.74298">
        <ele>17.2</ele>
        <time>2026-08-29T14:59:44Z</time>
      </trkpt>
      <trkpt lat="47.5247" lon="-2.74305">
        <ele>17</ele>
        <time>2026-08-29T14:59:45Z</time>
      </trkpt>
      <trkpt lat="47.52475" lon="-2.74313">
        <ele>17.1</ele>
        <time>2026-08-29T14:59:46Z</time>
      </trkpt>
      <trkpt lat="47.5248" lon="-2.74319">
        <ele>17.3</ele>
        <time>2026-08-29T14:59:47Z</time>
      </trkpt>
      <trkpt lat="47.52486" lon="-2.74325">
        <ele>17.5</ele>
        <time>2026-08-29T14:59:48Z</time>
      </trkpt>
      <trkpt lat="47.52491" lon="-2.74331">
        <ele>17.7</ele>
        <time>2026-08-29T14:59:49Z</time>
      </trkpt>
      <trkpt lat="47.52497" lon="-2.74337">
        <ele>17.8</ele>
        <time>2026-08-29T14:59:50Z</time>
      </trkpt>
      <trkpt lat="47.52502" lon="-2.74343">
        <ele>17.7</ele>
        <time>2026-08-29T14:59:51Z</time>
      </trkpt>
      <trkpt lat="47.52508" lon="-2.74348">
        <ele>17.8</ele>
        <time>2026-08-29T14:59:52Z</time>
      </trkpt>
      <trkpt lat="47.52513" lon="-2.74352">
        <ele>17.8</ele>
        <time>2026-08-29T14:59:53Z</time>
      </trkpt>
      <trkpt lat="47.52518" lon="-2.74357">
        <ele>17.8</ele>
        <time>2026-08-29T14:59:54Z</time>
      </trkpt>
      <trkpt lat="47.52522" lon="-2.7436">
        <ele>17.8</ele>
        <time>2026-08-29T14:59:55Z</time>
      </trkpt>
      <trkpt lat="47.52526" lon="-2.74364">
        <ele>17.9</ele>
        <time>2026-08-29T14:59:56Z</time>
      </trkpt>
      <trkpt lat="47.5253" lon="-2.74367">
        <ele>18.1</ele>
        <time>2026-08-29T14:59:57Z</time>
      </trkpt>
      <trkpt lat="47.52534" lon="-2.74371">
        <ele>18.3</ele>
        <time>2026-08-29T14:59:58Z</time>
      </trkpt>
      <trkpt lat="47.52538" lon="-2.74374">
        <ele>18.4</ele>
        <time>2026-08-29T14:59:59Z</time>
      </trkpt>
      <trkpt lat="47.52542" lon="-2.74377">
        <ele>18.4</ele>
        <time>2026-08-29T15:00:00Z</time>
      </trkpt>
      <trkpt lat="47.52546" lon="-2.7438">
        <ele>18.4</ele>
        <time>2026-08-29T15:00:01Z</time>
      </trkpt>
      <trkpt lat="47.5255" lon="-2.74383">
        <ele>18.3</ele>
        <time>2026-08-29T15:00:02Z</time>
      </trkpt>
      <trkpt lat="47.52554" lon="-2.74386">
        <ele>18.2</ele>
        <time>2026-08-29T15:00:03Z</time>
      </trkpt>
      <trkpt lat="47.52557" lon="-2.74388">
        <ele>18.2</ele>
        <time>2026-08-29T15:00:04Z</time>
      </trkpt>
      <trkpt lat="47.52561" lon="-2.74391">
        <ele>18.4</ele>
        <time>2026-08-29T15:00:05Z</time>
      </trkpt>
      <trkpt lat="47.52564" lon="-2.74394">
        <ele>18.6</ele>
        <time>2026-08-29T15:00:06Z</time>
      </trkpt>
      <trkpt lat="47.52568" lon="-2.74398">
        <ele>18.9</ele>
        <time>2026-08-29T15:00:07Z</time>
      </trkpt>
      <trkpt lat="47.5257" lon="-2.74402">
        <ele>19</ele>
        <time>2026-08-29T15:00:08Z</time>
      </trkpt>
      <trkpt lat="47.52572" lon="-2.74405">
        <ele>19.2</ele>
        <time>2026-08-29T15:00:09Z</time>
      </trkpt>
      <trkpt lat="47.52573" lon="-2.74409">
        <ele>19.3</ele>
        <time>2026-08-29T15:00:10Z</time>
      </trkpt>
      <trkpt lat="47.52574" lon="-2.74412">
        <ele>19.3</ele>
        <time>2026-08-29T15:00:11Z</time>
      </trkpt>
      <trkpt lat="47.52575" lon="-2.74415">
        <ele>19.4</ele>
        <time>2026-08-29T15:00:12Z</time>
      </trkpt>
      <trkpt lat="47.52576" lon="-2.74418">
        <ele>19.5</ele>
        <time>2026-08-29T15:00:13Z</time>
      </trkpt>
      <trkpt lat="47.52576" lon="-2.74421">
        <ele>19.5</ele>
        <time>2026-08-29T15:00:14Z</time>
      </trkpt>
      <trkpt lat="47.52577" lon="-2.74424">
        <ele>19.5</ele>
        <time>2026-08-29T15:00:15Z</time>
      </trkpt>
      <trkpt lat="47.52577" lon="-2.74427">
        <ele>19.5</ele>
        <time>2026-08-29T15:00:16Z</time>
      </trkpt>
      <trkpt lat="47.52578" lon="-2.74429">
        <ele>19.6</ele>
        <time>2026-08-29T15:00:17Z</time>
      </trkpt>
      <trkpt lat="47.5258" lon="-2.74431">
        <ele>19.8</ele>
        <time>2026-08-29T15:00:18Z</time>
      </trkpt>
      <trkpt lat="47.52582" lon="-2.74432">
        <ele>19.9</ele>
        <time>2026-08-29T15:00:19Z</time>
      </trkpt>
      <trkpt lat="47.52583" lon="-2.74432">
        <ele>20</ele>
        <time>2026-08-29T15:00:20Z</time>
      </trkpt>
      <trkpt lat="47.52585" lon="-2.74431">
        <ele>20.1</ele>
        <time>2026-08-29T15:00:21Z</time>
      </trkpt>
      <trkpt lat="47.52588" lon="-2.7443">
        <ele>20.2</ele>
        <time>2026-08-29T15:00:22Z</time>
      </trkpt>
      <trkpt lat="47.5259" lon="-2.74429">
        <ele>20.2</ele>
        <time>2026-08-29T15:00:23Z</time>
      </trkpt>
      <trkpt lat="47.52592" lon="-2.74426">
        <ele>20.3</ele>
        <time>2026-08-29T15:00:24Z</time>
      </trkpt>
      <trkpt lat="47.52593" lon="-2.74422">
        <ele>20.3</ele>
        <time>2026-08-29T15:00:25Z</time>
      </trkpt>
      <trkpt lat="47.52593" lon="-2.74418">
        <ele>20.3</ele>
        <time>2026-08-29T15:00:26Z</time>
      </trkpt>
      <trkpt lat="47.52594" lon="-2.74413">
        <ele>20.3</ele>
        <time>2026-08-29T15:00:27Z</time>
      </trkpt>
      <trkpt lat="47.52595" lon="-2.74408">
        <ele>20.3</ele>
        <time>2026-08-29T15:00:28Z</time>
      </trkpt>
      <trkpt lat="47.52597" lon="-2.74403">
        <ele>20.2</ele>
        <time>2026-08-29T15:00:29Z</time>
      </trkpt>
      <trkpt lat="47.52598" lon="-2.74398">
        <ele>20.2</ele>
        <time>2026-08-29T15:00:30Z</time>
      </trkpt>
      <trkpt lat="47.52601" lon="-2.74394">
        <ele>20.1</ele>
        <time>2026-08-29T15:00:31Z</time>
      </trkpt>
      <trkpt lat="47.52604" lon="-2.74392">
        <ele>20.1</ele>
        <time>2026-08-29T15:00:32Z</time>
      </trkpt>
      <trkpt lat="47.52607" lon="-2.74392">
        <ele>20.1</ele>
        <time>2026-08-29T15:00:33Z</time>
      </trkpt>
      <trkpt lat="47.5261" lon="-2.74393">
        <ele>20.1</ele>
        <time>2026-08-29T15:00:34Z</time>
      </trkpt>
      <trkpt lat="47.52613" lon="-2.74395">
        <ele>20.3</ele>
        <time>2026-08-29T15:00:35Z</time>
      </trkpt>
      <trkpt lat="47.52616" lon="-2.74396">
        <ele>20.4</ele>
        <time>2026-08-29T15:00:36Z</time>
      </trkpt>
      <trkpt lat="47.52619" lon="-2.74397">
        <ele>20.5</ele>
        <time>2026-08-29T15:00:37Z</time>
      </trkpt>
      <trkpt lat="47.52622" lon="-2.74399">
        <ele>20.6</ele>
        <time>2026-08-29T15:00:38Z</time>
      </trkpt>
      <trkpt lat="47.52626" lon="-2.744">
        <ele>20.7</ele>
        <time>2026-08-29T15:00:39Z</time>
      </trkpt>
      <trkpt lat="47.52629" lon="-2.744">
        <ele>20.8</ele>
        <time>2026-08-29T15:00:40Z</time>
      </trkpt>
      <trkpt lat="47.52633" lon="-2.74402">
        <ele>20.9</ele>
        <time>2026-08-29T15:00:41Z</time>
      </trkpt>
      <trkpt lat="47.52636" lon="-2.74403">
        <ele>20.9</ele>
        <time>2026-08-29T15:00:42Z</time>
      </trkpt>
      <trkpt lat="47.5264" lon="-2.74404">
        <ele>21</ele>
        <time>2026-08-29T15:00:43Z</time>
      </trkpt>
      <trkpt lat="47.52643" lon="-2.74405">
        <ele>21</ele>
        <time>2026-08-29T15:00:44Z</time>
      </trkpt>
      <trkpt lat="47.52646" lon="-2.74405">
        <ele>21</ele>
        <time>2026-08-29T15:00:45Z</time>
      </trkpt>
      <trkpt lat="47.52649" lon="-2.74405">
        <ele>21</ele>
        <time>2026-08-29T15:00:46Z</time>
      </trkpt>
      <trkpt lat="47.52651" lon="-2.74406">
        <ele>21</ele>
        <time>2026-08-29T15:00:47Z</time>
      </trkpt>
      <trkpt lat="47.52655" lon="-2.74406">
        <ele>21</ele>
        <time>2026-08-29T15:00:48Z</time>
      </trkpt>
      <trkpt lat="47.52658" lon="-2.74406">
        <ele>21</ele>
        <time>2026-08-29T15:00:49Z</time>
      </trkpt>
      <trkpt lat="47.52661" lon="-2.74406">
        <ele>21</ele>
        <time>2026-08-29T15:00:50Z</time>
      </trkpt>
      <trkpt lat="47.52665" lon="-2.74405">
        <ele>21</ele>
        <time>2026-08-29T15:00:51Z</time>
      </trkpt>
      <trkpt lat="47.52669" lon="-2.74403">
        <ele>21</ele>
        <time>2026-08-29T15:00:52Z</time>
      </trkpt>
      <trkpt lat="47.52673" lon="-2.74401">
        <ele>21</ele>
        <time>2026-08-29T15:00:53Z</time>
      </trkpt>
      <trkpt lat="47.52678" lon="-2.744">
        <ele>21</ele>
        <time>2026-08-29T15:00:54Z</time>
      </trkpt>
      <trkpt lat="47.52682" lon="-2.74399">
        <ele>21</ele>
        <time>2026-08-29T15:00:55Z</time>
      </trkpt>
      <trkpt lat="47.52687" lon="-2.74398">
        <ele>21</ele>
        <time>2026-08-29T15:00:56Z</time>
      </trkpt>
      <trkpt lat="47.52691" lon="-2.74397">
        <ele>21</ele>
        <time>2026-08-29T15:00:57Z</time>
      </trkpt>
      <trkpt lat="47.52695" lon="-2.74396">
        <ele>21</ele>
        <time>2026-08-29T15:00:58Z</time>
      </trkpt>
      <trkpt lat="47.52699" lon="-2.74396">
        <ele>21</ele>
        <time>2026-08-29T15:00:59Z</time>
      </trkpt>
      <trkpt lat="47.52703" lon="-2.74396">
        <ele>20.9</ele>
        <time>2026-08-29T15:01:00Z</time>
      </trkpt>
      <trkpt lat="47.52706" lon="-2.74395">
        <ele>20.9</ele>
        <time>2026-08-29T15:01:01Z</time>
      </trkpt>
      <trkpt lat="47.52709" lon="-2.74392">
        <ele>20.9</ele>
        <time>2026-08-29T15:01:02Z</time>
      </trkpt>
      <trkpt lat="47.52713" lon="-2.7439">
        <ele>21</ele>
        <time>2026-08-29T15:01:03Z</time>
      </trkpt>
      <trkpt lat="47.52717" lon="-2.74387">
        <ele>21</ele>
        <time>2026-08-29T15:01:04Z</time>
      </trkpt>
      <trkpt lat="47.52721" lon="-2.74384">
        <ele>21</ele>
        <time>2026-08-29T15:01:05Z</time>
      </trkpt>
      <trkpt lat="47.52726" lon="-2.74381">
        <ele>20.9</ele>
        <time>2026-08-29T15:01:06Z</time>
      </trkpt>
      <trkpt lat="47.5273" lon="-2.74378">
        <ele>20.8</ele>
        <time>2026-08-29T15:01:07Z</time>
      </trkpt>
      <trkpt lat="47.52734" lon="-2.74375">
        <ele>20.8</ele>
        <time>2026-08-29T15:01:08Z</time>
      </trkpt>
      <trkpt lat="47.52738" lon="-2.74373">
        <ele>20.8</ele>
        <time>2026-08-29T15:01:09Z</time>
      </trkpt>
      <trkpt lat="47.52742" lon="-2.7437">
        <ele>20.8</ele>
        <time>2026-08-29T15:01:10Z</time>
      </trkpt>
      <trkpt lat="47.52747" lon="-2.74368">
        <ele>20.8</ele>
        <time>2026-08-29T15:01:11Z</time>
      </trkpt>
      <trkpt lat="47.52751" lon="-2.74365">
        <ele>20.9</ele>
        <time>2026-08-29T15:01:12Z</time>
      </trkpt>
      <trkpt lat="47.52755" lon="-2.74363">
        <ele>20.9</ele>
        <time>2026-08-29T15:01:13Z</time>
      </trkpt>
      <trkpt lat="47.52759" lon="-2.7436">
        <ele>21</ele>
        <time>2026-08-29T15:01:14Z</time>
      </trkpt>
      <trkpt lat="47.52763" lon="-2.74358">
        <ele>21</ele>
        <time>2026-08-29T15:01:15Z</time>
      </trkpt>
      <trkpt lat="47.52767" lon="-2.74355">
        <ele>21</ele>
        <time>2026-08-29T15:01:16Z</time>
      </trkpt>
      <trkpt lat="47.52771" lon="-2.74353">
        <ele>21</ele>
        <time>2026-08-29T15:01:17Z</time>
      </trkpt>
      <trkpt lat="47.52775" lon="-2.7435">
        <ele>21</ele>
        <time>2026-08-29T15:01:18Z</time>
      </trkpt>
      <trkpt lat="47.52779" lon="-2.74347">
        <ele>21</ele>
        <time>2026-08-29T15:01:19Z</time>
      </trkpt>
      <trkpt lat="47.52783" lon="-2.74345">
        <ele>20.9</ele>
        <time>2026-08-29T15:01:20Z</time>
      </trkpt>
      <trkpt lat="47.52787" lon="-2.74342">
        <ele>20.9</ele>
        <time>2026-08-29T15:01:21Z</time>
      </trkpt>
      <trkpt lat="47.52791" lon="-2.7434">
        <ele>20.9</ele>
        <time>2026-08-29T15:01:22Z</time>
      </trkpt>
      <trkpt lat="47.52795" lon="-2.74337">
        <ele>20.9</ele>
        <time>2026-08-29T15:01:23Z</time>
      </trkpt>
      <trkpt lat="47.52799" lon="-2.74334">
        <ele>21</ele>
        <time>2026-08-29T15:01:24Z</time>
      </trkpt>
      <trkpt lat="47.52803" lon="-2.74331">
        <ele>21</ele>
        <time>2026-08-29T15:01:25Z</time>
      </trkpt>
      <trkpt lat="47.52807" lon="-2.74329">
        <ele>21</ele>
        <time>2026-08-29T15:01:26Z</time>
      </trkpt>
      <trkpt lat="47.52811" lon="-2.74326">
        <ele>20.9</ele>
        <time>2026-08-29T15:01:27Z</time>
      </trkpt>
      <trkpt lat="47.52815" lon="-2.74323">
        <ele>20.8</ele>
        <time>2026-08-29T15:01:28Z</time>
      </trkpt>
      <trkpt lat="47.52819" lon="-2.7432">
        <ele>20.7</ele>
        <time>2026-08-29T15:01:29Z</time>
      </trkpt>
      <trkpt lat="47.52823" lon="-2.74317">
        <ele>20.7</ele>
        <time>2026-08-29T15:01:30Z</time>
      </trkpt>
      <trkpt lat="47.52827" lon="-2.74315">
        <ele>20.7</ele>
        <time>2026-08-29T15:01:31Z</time>
      </trkpt>
      <trkpt lat="47.52831" lon="-2.74312">
        <ele>20.8</ele>
        <time>2026-08-29T15:01:32Z</time>
      </trkpt>
      <trkpt lat="47.52835" lon="-2.7431">
        <ele>20.8</ele>
        <time>2026-08-29T15:01:33Z</time>
      </trkpt>
      <trkpt lat="47.52839" lon="-2.74307">
        <ele>20.9</ele>
        <time>2026-08-29T15:01:34Z</time>
      </trkpt>
      <trkpt lat="47.52843" lon="-2.74304">
        <ele>21.1</ele>
        <time>2026-08-29T15:01:35Z</time>
      </trkpt>
      <trkpt lat="47.52847" lon="-2.74302">
        <ele>21.1</ele>
        <time>2026-08-29T15:01:36Z</time>
      </trkpt>
      <trkpt lat="47.52851" lon="-2.74299">
        <ele>21.2</ele>
        <time>2026-08-29T15:01:37Z</time>
      </trkpt>
      <trkpt lat="47.52855" lon="-2.74297">
        <ele>21.3</ele>
        <time>2026-08-29T15:01:38Z</time>
      </trkpt>
      <trkpt lat="47.52858" lon="-2.74294">
        <ele>21.4</ele>
        <time>2026-08-29T15:01:39Z</time>
      </trkpt>
      <trkpt lat="47.52863" lon="-2.74291">
        <ele>21.5</ele>
        <time>2026-08-29T15:01:40Z</time>
      </trkpt>
      <trkpt lat="47.52867" lon="-2.74288">
        <ele>21.4</ele>
        <time>2026-08-29T15:01:41Z</time>
      </trkpt>
      <trkpt lat="47.52871" lon="-2.74285">
        <ele>21.4</ele>
        <time>2026-08-29T15:01:42Z</time>
      </trkpt>
      <trkpt lat="47.52874" lon="-2.74282">
        <ele>21.4</ele>
        <time>2026-08-29T15:01:43Z</time>
      </trkpt>
      <trkpt lat="47.52878" lon="-2.74279">
        <ele>21.3</ele>
        <time>2026-08-29T15:01:44Z</time>
      </trkpt>
      <trkpt lat="47.52881" lon="-2.74276">
        <ele>21.3</ele>
        <time>2026-08-29T15:01:45Z</time>
      </trkpt>
      <trkpt lat="47.52884" lon="-2.74274">
        <ele>21.3</ele>
        <time>2026-08-29T15:01:46Z</time>
      </trkpt>
      <trkpt lat="47.52888" lon="-2.74271">
        <ele>21.3</ele>
        <time>2026-08-29T15:01:47Z</time>
      </trkpt>
      <trkpt lat="47.52891" lon="-2.74268">
        <ele>21.3</ele>
        <time>2026-08-29T15:01:48Z</time>
      </trkpt>
      <trkpt lat="47.52894" lon="-2.74265">
        <ele>21.4</ele>
        <time>2026-08-29T15:01:49Z</time>
      </trkpt>
      <trkpt lat="47.52897" lon="-2.74262">
        <ele>21.4</ele>
        <time>2026-08-29T15:01:50Z</time>
      </trkpt>
      <trkpt lat="47.529" lon="-2.74259">
        <ele>21.4</ele>
        <time>2026-08-29T15:01:51Z</time>
      </trkpt>
      <trkpt lat="47.52904" lon="-2.74255">
        <ele>21.4</ele>
        <time>2026-08-29T15:01:52Z</time>
      </trkpt>
      <trkpt lat="47.52907" lon="-2.74251">
        <ele>21.3</ele>
        <time>2026-08-29T15:01:53Z</time>
      </trkpt>
      <trkpt lat="47.52911" lon="-2.74246">
        <ele>21.2</ele>
        <time>2026-08-29T15:01:54Z</time>
      </trkpt>
      <trkpt lat="47.52915" lon="-2.74242">
        <ele>21.1</ele>
        <time>2026-08-29T15:01:55Z</time>
      </trkpt>
      <trkpt lat="47.52919" lon="-2.74237">
        <ele>21</ele>
        <time>2026-08-29T15:01:56Z</time>
      </trkpt>
      <trkpt lat="47.52923" lon="-2.74232">
        <ele>21</ele>
        <time>2026-08-29T15:01:57Z</time>
      </trkpt>
      <trkpt lat="47.52926" lon="-2.74227">
        <ele>21</ele>
        <time>2026-08-29T15:01:58Z</time>
      </trkpt>
      <trkpt lat="47.5293" lon="-2.74222">
        <ele>21</ele>
        <time>2026-08-29T15:01:59Z</time>
      </trkpt>
      <trkpt lat="47.52934" lon="-2.74217">
        <ele>21.1</ele>
        <time>2026-08-29T15:02:00Z</time>
      </trkpt>
      <trkpt lat="47.52938" lon="-2.74212">
        <ele>21.1</ele>
        <time>2026-08-29T15:02:01Z</time>
      </trkpt>
      <trkpt lat="47.52941" lon="-2.74207">
        <ele>21.1</ele>
        <time>2026-08-29T15:02:02Z</time>
      </trkpt>
      <trkpt lat="47.52945" lon="-2.74202">
        <ele>21</ele>
        <time>2026-08-29T15:02:03Z</time>
      </trkpt>
      <trkpt lat="47.52948" lon="-2.74197">
        <ele>20.9</ele>
        <time>2026-08-29T15:02:04Z</time>
      </trkpt>
      <trkpt lat="47.52952" lon="-2.74192">
        <ele>20.7</ele>
        <time>2026-08-29T15:02:05Z</time>
      </trkpt>
      <trkpt lat="47.52955" lon="-2.74187">
        <ele>20.6</ele>
        <time>2026-08-29T15:02:06Z</time>
      </trkpt>
      <trkpt lat="47.52958" lon="-2.74183">
        <ele>20.5</ele>
        <time>2026-08-29T15:02:07Z</time>
      </trkpt>
      <trkpt lat="47.52962" lon="-2.74178">
        <ele>20.4</ele>
        <time>2026-08-29T15:02:08Z</time>
      </trkpt>
      <trkpt lat="47.52965" lon="-2.74174">
        <ele>20.3</ele>
        <time>2026-08-29T15:02:09Z</time>
      </trkpt>
      <trkpt lat="47.52967" lon="-2.74169">
        <ele>20.2</ele>
        <time>2026-08-29T15:02:10Z</time>
      </trkpt>
      <trkpt lat="47.5297" lon="-2.74163">
        <ele>20.1</ele>
        <time>2026-08-29T15:02:11Z</time>
      </trkpt>
      <trkpt lat="47.52972" lon="-2.74158">
        <ele>20</ele>
        <time>2026-08-29T15:02:12Z</time>
      </trkpt>
      <trkpt lat="47.52975" lon="-2.74152">
        <ele>19.9</ele>
        <time>2026-08-29T15:02:13Z</time>
      </trkpt>
      <trkpt lat="47.52978" lon="-2.74146">
        <ele>19.8</ele>
        <time>2026-08-29T15:02:14Z</time>
      </trkpt>
      <trkpt lat="47.52981" lon="-2.74139">
        <ele>19.7</ele>
        <time>2026-08-29T15:02:15Z</time>
      </trkpt>
      <trkpt lat="47.52984" lon="-2.74133">
        <ele>19.8</ele>
        <time>2026-08-29T15:02:16Z</time>
      </trkpt>
      <trkpt lat="47.52987" lon="-2.74126">
        <ele>19.9</ele>
        <time>2026-08-29T15:02:17Z</time>
      </trkpt>
      <trkpt lat="47.5299" lon="-2.7412">
        <ele>20</ele>
        <time>2026-08-29T15:02:18Z</time>
      </trkpt>
      <trkpt lat="47.52993" lon="-2.74114">
        <ele>20.1</ele>
        <time>2026-08-29T15:02:19Z</time>
      </trkpt>
      <trkpt lat="47.52996" lon="-2.74107">
        <ele>20.1</ele>
        <time>2026-08-29T15:02:20Z</time>
      </trkpt>
      <trkpt lat="47.52998" lon="-2.74102">
        <ele>20.1</ele>
        <time>2026-08-29T15:02:21Z</time>
      </trkpt>
      <trkpt lat="47.53001" lon="-2.74096">
        <ele>20</ele>
        <time>2026-08-29T15:02:22Z</time>
      </trkpt>
      <trkpt lat="47.53004" lon="-2.74089">
        <ele>19.9</ele>
        <time>2026-08-29T15:02:23Z</time>
      </trkpt>
      <trkpt lat="47.53006" lon="-2.74083">
        <ele>19.8</ele>
        <time>2026-08-29T15:02:24Z</time>
      </trkpt>
      <trkpt lat="47.53009" lon="-2.74077">
        <ele>19.7</ele>
        <time>2026-08-29T15:02:25Z</time>
      </trkpt>
      <trkpt lat="47.53011" lon="-2.7407">
        <ele>19.6</ele>
        <time>2026-08-29T15:02:26Z</time>
      </trkpt>
      <trkpt lat="47.53013" lon="-2.74064">
        <ele>19.5</ele>
        <time>2026-08-29T15:02:27Z</time>
      </trkpt>
      <trkpt lat="47.53016" lon="-2.74057">
        <ele>19.4</ele>
        <time>2026-08-29T15:02:28Z</time>
      </trkpt>
      <trkpt lat="47.53019" lon="-2.74051">
        <ele>19.3</ele>
        <time>2026-08-29T15:02:29Z</time>
      </trkpt>
      <trkpt lat="47.53021" lon="-2.74044">
        <ele>19.2</ele>
        <time>2026-08-29T15:02:30Z</time>
      </trkpt>
      <trkpt lat="47.53023" lon="-2.74038">
        <ele>19.2</ele>
        <time>2026-08-29T15:02:31Z</time>
      </trkpt>
      <trkpt lat="47.53025" lon="-2.74032">
        <ele>19.1</ele>
        <time>2026-08-29T15:02:32Z</time>
      </trkpt>
      <trkpt lat="47.53027" lon="-2.74026">
        <ele>19.1</ele>
        <time>2026-08-29T15:02:33Z</time>
      </trkpt>
      <trkpt lat="47.53029" lon="-2.7402">
        <ele>19.3</ele>
        <time>2026-08-29T15:02:34Z</time>
      </trkpt>
      <trkpt lat="47.5303" lon="-2.74015">
        <ele>19.4</ele>
        <time>2026-08-29T15:02:35Z</time>
      </trkpt>
      <trkpt lat="47.53033" lon="-2.74008">
        <ele>19.6</ele>
        <time>2026-08-29T15:02:36Z</time>
      </trkpt>
      <trkpt lat="47.53037" lon="-2.74002">
        <ele>19.6</ele>
        <time>2026-08-29T15:02:37Z</time>
      </trkpt>
      <trkpt lat="47.5304" lon="-2.73996">
        <ele>19.6</ele>
        <time>2026-08-29T15:02:38Z</time>
      </trkpt>
      <trkpt lat="47.53042" lon="-2.73991">
        <ele>19.5</ele>
        <time>2026-08-29T15:02:39Z</time>
      </trkpt>
      <trkpt lat="47.53043" lon="-2.73986">
        <ele>19.5</ele>
        <time>2026-08-29T15:02:40Z</time>
      </trkpt>
      <trkpt lat="47.53045" lon="-2.73981">
        <ele>19.4</ele>
        <time>2026-08-29T15:02:41Z</time>
      </trkpt>
      <trkpt lat="47.53046" lon="-2.73977">
        <ele>19.3</ele>
        <time>2026-08-29T15:02:42Z</time>
      </trkpt>
      <trkpt lat="47.53048" lon="-2.73972">
        <ele>19.3</ele>
        <time>2026-08-29T15:02:43Z</time>
      </trkpt>
      <trkpt lat="47.53049" lon="-2.73967">
        <ele>19.4</ele>
        <time>2026-08-29T15:02:44Z</time>
      </trkpt>
      <trkpt lat="47.5305" lon="-2.73963">
        <ele>19.5</ele>
        <time>2026-08-29T15:02:45Z</time>
      </trkpt>
      <trkpt lat="47.5305" lon="-2.7396">
        <ele>19.6</ele>
        <time>2026-08-29T15:02:46Z</time>
      </trkpt>
      <trkpt lat="47.53051" lon="-2.73958">
        <ele>19.6</ele>
        <time>2026-08-29T15:02:47Z</time>
      </trkpt>
      <trkpt lat="47.5305" lon="-2.73956">
        <ele>19.7</ele>
        <time>2026-08-29T15:02:48Z</time>
      </trkpt>
      <trkpt lat="47.5305" lon="-2.73955">
        <ele>19.7</ele>
        <time>2026-08-29T15:02:49Z</time>
      </trkpt>
      <trkpt lat="47.5305" lon="-2.73955">
        <ele>19.7</ele>
        <time>2026-08-29T15:02:50Z</time>
      </trkpt>
      <trkpt lat="47.53055" lon="-2.7395">
        <ele>19.8</ele>
        <time>2026-08-29T15:04:02Z</time>
      </trkpt>
      <trkpt lat="47.53055" lon="-2.73948">
        <ele>19.9</ele>
        <time>2026-08-29T15:04:03Z</time>
      </trkpt>
      <trkpt lat="47.53056" lon="-2.73946">
        <ele>19.9</ele>
        <time>2026-08-29T15:04:04Z</time>
      </trkpt>
      <trkpt lat="47.53057" lon="-2.73943">
        <ele>19.9</ele>
        <time>2026-08-29T15:04:05Z</time>
      </trkpt>
      <trkpt lat="47.53058" lon="-2.73939">
        <ele>19.9</ele>
        <time>2026-08-29T15:04:06Z</time>
      </trkpt>
      <trkpt lat="47.53059" lon="-2.73935">
        <ele>19.9</ele>
        <time>2026-08-29T15:04:07Z</time>
      </trkpt>
      <trkpt lat="47.53061" lon="-2.73931">
        <ele>19.8</ele>
        <time>2026-08-29T15:04:08Z</time>
      </trkpt>
      <trkpt lat="47.53062" lon="-2.73927">
        <ele>19.8</ele>
        <time>2026-08-29T15:04:09Z</time>
      </trkpt>
      <trkpt lat="47.53064" lon="-2.73923">
        <ele>19.7</ele>
        <time>2026-08-29T15:04:10Z</time>
      </trkpt>
      <trkpt lat="47.53065" lon="-2.73919">
        <ele>19.7</ele>
        <time>2026-08-29T15:04:11Z</time>
      </trkpt>
      <trkpt lat="47.53066" lon="-2.73915">
        <ele>19.6</ele>
        <time>2026-08-29T15:04:12Z</time>
      </trkpt>
      <trkpt lat="47.53067" lon="-2.7391">
        <ele>19.6</ele>
        <time>2026-08-29T15:04:13Z</time>
      </trkpt>
      <trkpt lat="47.53068" lon="-2.73905">
        <ele>19.6</ele>
        <time>2026-08-29T15:04:14Z</time>
      </trkpt>
      <trkpt lat="47.5307" lon="-2.73901">
        <ele>19.5</ele>
        <time>2026-08-29T15:04:15Z</time>
      </trkpt>
      <trkpt lat="47.53072" lon="-2.73896">
        <ele>19.4</ele>
        <time>2026-08-29T15:04:16Z</time>
      </trkpt>
      <trkpt lat="47.53074" lon="-2.73891">
        <ele>19.3</ele>
        <time>2026-08-29T15:04:17Z</time>
      </trkpt>
      <trkpt lat="47.53076" lon="-2.73886">
        <ele>19.3</ele>
        <time>2026-08-29T15:04:18Z</time>
      </trkpt>
      <trkpt lat="47.53078" lon="-2.7388">
        <ele>19.5</ele>
        <time>2026-08-29T15:04:19Z</time>
      </trkpt>
      <trkpt lat="47.53081" lon="-2.73874">
        <ele>19.6</ele>
        <time>2026-08-29T15:04:20Z</time>
      </trkpt>
      <trkpt lat="47.53083" lon="-2.73868">
        <ele>19.8</ele>
        <time>2026-08-29T15:04:21Z</time>
      </trkpt>
      <trkpt lat="47.53085" lon="-2.73862">
        <ele>19.9</ele>
        <time>2026-08-29T15:04:22Z</time>
      </trkpt>
      <trkpt lat="47.53087" lon="-2.73857">
        <ele>19.7</ele>
        <time>2026-08-29T15:04:23Z</time>
      </trkpt>
      <trkpt lat="47.53089" lon="-2.73851">
        <ele>19.5</ele>
        <time>2026-08-29T15:04:24Z</time>
      </trkpt>
      <trkpt lat="47.53092" lon="-2.73846">
        <ele>19.3</ele>
        <time>2026-08-29T15:04:25Z</time>
      </trkpt>
      <trkpt lat="47.53095" lon="-2.7384">
        <ele>19.1</ele>
        <time>2026-08-29T15:04:26Z</time>
      </trkpt>
      <trkpt lat="47.53096" lon="-2.73833">
        <ele>19</ele>
        <time>2026-08-29T15:04:27Z</time>
      </trkpt>
      <trkpt lat="47.53098" lon="-2.73827">
        <ele>19.2</ele>
        <time>2026-08-29T15:04:28Z</time>
      </trkpt>
      <trkpt lat="47.531" lon="-2.7382">
        <ele>19.5</ele>
        <time>2026-08-29T15:04:29Z</time>
      </trkpt>
      <trkpt lat="47.53103" lon="-2.73814">
        <ele>19.7</ele>
        <time>2026-08-29T15:04:30Z</time>
      </trkpt>
      <trkpt lat="47.53106" lon="-2.73809">
        <ele>19.9</ele>
        <time>2026-08-29T15:04:31Z</time>
      </trkpt>
      <trkpt lat="47.53109" lon="-2.73803">
        <ele>20</ele>
        <time>2026-08-29T15:04:32Z</time>
      </trkpt>
      <trkpt lat="47.53111" lon="-2.73798">
        <ele>20</ele>
        <time>2026-08-29T15:04:33Z</time>
      </trkpt>
      <trkpt lat="47.53112" lon="-2.73792">
        <ele>20</ele>
        <time>2026-08-29T15:04:34Z</time>
      </trkpt>
      <trkpt lat="47.53115" lon="-2.73787">
        <ele>20</ele>
        <time>2026-08-29T15:04:35Z</time>
      </trkpt>
      <trkpt lat="47.53117" lon="-2.73781">
        <ele>20</ele>
        <time>2026-08-29T15:04:36Z</time>
      </trkpt>
      <trkpt lat="47.5312" lon="-2.73775">
        <ele>20</ele>
        <time>2026-08-29T15:04:37Z</time>
      </trkpt>
      <trkpt lat="47.53121" lon="-2.73768">
        <ele>20</ele>
        <time>2026-08-29T15:04:38Z</time>
      </trkpt>
      <trkpt lat="47.53123" lon="-2.73762">
        <ele>20</ele>
        <time>2026-08-29T15:04:39Z</time>
      </trkpt>
      <trkpt lat="47.53125" lon="-2.73756">
        <ele>20</ele>
        <time>2026-08-29T15:04:40Z</time>
      </trkpt>
      <trkpt lat="47.53126" lon="-2.7375">
        <ele>20</ele>
        <time>2026-08-29T15:04:41Z</time>
      </trkpt>
      <trkpt lat="47.53129" lon="-2.73742">
        <ele>20</ele>
        <time>2026-08-29T15:04:42Z</time>
      </trkpt>
      <trkpt lat="47.5313" lon="-2.73737">
        <ele>20</ele>
        <time>2026-08-29T15:04:43Z</time>
      </trkpt>
      <trkpt lat="47.53132" lon="-2.73732">
        <ele>20</ele>
        <time>2026-08-29T15:04:44Z</time>
      </trkpt>
      <trkpt lat="47.53134" lon="-2.73727">
        <ele>20</ele>
        <time>2026-08-29T15:04:45Z</time>
      </trkpt>
      <trkpt lat="47.53135" lon="-2.73722">
        <ele>20</ele>
        <time>2026-08-29T15:04:46Z</time>
      </trkpt>
      <trkpt lat="47.53137" lon="-2.73717">
        <ele>20.2</ele>
        <time>2026-08-29T15:04:47Z</time>
      </trkpt>
      <trkpt lat="47.53139" lon="-2.73711">
        <ele>20.4</ele>
        <time>2026-08-29T15:04:48Z</time>
      </trkpt>
      <trkpt lat="47.53141" lon="-2.73705">
        <ele>20.6</ele>
        <time>2026-08-29T15:04:49Z</time>
      </trkpt>
      <trkpt lat="47.53144" lon="-2.737">
        <ele>20.7</ele>
        <time>2026-08-29T15:04:50Z</time>
      </trkpt>
      <trkpt lat="47.53146" lon="-2.73694">
        <ele>20.7</ele>
        <time>2026-08-29T15:04:51Z</time>
      </trkpt>
      <trkpt lat="47.53148" lon="-2.73688">
        <ele>20.7</ele>
        <time>2026-08-29T15:04:52Z</time>
      </trkpt>
      <trkpt lat="47.53149" lon="-2.73682">
        <ele>20.6</ele>
        <time>2026-08-29T15:04:53Z</time>
      </trkpt>
      <trkpt lat="47.53151" lon="-2.73677">
        <ele>20.6</ele>
        <time>2026-08-29T15:04:54Z</time>
      </trkpt>
      <trkpt lat="47.53153" lon="-2.73671">
        <ele>20.5</ele>
        <time>2026-08-29T15:04:55Z</time>
      </trkpt>
      <trkpt lat="47.53155" lon="-2.73665">
        <ele>20.5</ele>
        <time>2026-08-29T15:04:56Z</time>
      </trkpt>
      <trkpt lat="47.53156" lon="-2.73659">
        <ele>20.6</ele>
        <time>2026-08-29T15:04:57Z</time>
      </trkpt>
      <trkpt lat="47.53158" lon="-2.73653">
        <ele>20.7</ele>
        <time>2026-08-29T15:04:58Z</time>
      </trkpt>
      <trkpt lat="47.5316" lon="-2.73647">
        <ele>20.8</ele>
        <time>2026-08-29T15:04:59Z</time>
      </trkpt>
      <trkpt lat="47.53162" lon="-2.73641">
        <ele>20.9</ele>
        <time>2026-08-29T15:05:00Z</time>
      </trkpt>
      <trkpt lat="47.53164" lon="-2.73635">
        <ele>21</ele>
        <time>2026-08-29T15:05:01Z</time>
      </trkpt>
      <trkpt lat="47.53166" lon="-2.73629">
        <ele>21</ele>
        <time>2026-08-29T15:05:02Z</time>
      </trkpt>
      <trkpt lat="47.53168" lon="-2.73623">
        <ele>21</ele>
        <time>2026-08-29T15:05:03Z</time>
      </trkpt>
      <trkpt lat="47.5317" lon="-2.73617">
        <ele>21</ele>
        <time>2026-08-29T15:05:04Z</time>
      </trkpt>
      <trkpt lat="47.53172" lon="-2.73611">
        <ele>21</ele>
        <time>2026-08-29T15:05:05Z</time>
      </trkpt>
      <trkpt lat="47.53174" lon="-2.73605">
        <ele>21</ele>
        <time>2026-08-29T15:05:06Z</time>
      </trkpt>
      <trkpt lat="47.53176" lon="-2.73598">
        <ele>21</ele>
        <time>2026-08-29T15:05:07Z</time>
      </trkpt>
      <trkpt lat="47.53178" lon="-2.73592">
        <ele>21</ele>
        <time>2026-08-29T15:05:08Z</time>
      </trkpt>
      <trkpt lat="47.5318" lon="-2.73586">
        <ele>21</ele>
        <time>2026-08-29T15:05:09Z</time>
      </trkpt>
      <trkpt lat="47.53182" lon="-2.73581">
        <ele>21</ele>
        <time>2026-08-29T15:05:10Z</time>
      </trkpt>
      <trkpt lat="47.53184" lon="-2.73575">
        <ele>21.2</ele>
        <time>2026-08-29T15:05:11Z</time>
      </trkpt>
      <trkpt lat="47.53186" lon="-2.73569">
        <ele>21.4</ele>
        <time>2026-08-29T15:05:12Z</time>
      </trkpt>
      <trkpt lat="47.53188" lon="-2.73564">
        <ele>21.5</ele>
        <time>2026-08-29T15:05:13Z</time>
      </trkpt>
      <trkpt lat="47.5319" lon="-2.73558">
        <ele>21.8</ele>
        <time>2026-08-29T15:05:14Z</time>
      </trkpt>
      <trkpt lat="47.53191" lon="-2.73552">
        <ele>22</ele>
        <time>2026-08-29T15:05:15Z</time>
      </trkpt>
      <trkpt lat="47.53193" lon="-2.73547">
        <ele>22.3</ele>
        <time>2026-08-29T15:05:16Z</time>
      </trkpt>
      <trkpt lat="47.53195" lon="-2.73542">
        <ele>22.5</ele>
        <time>2026-08-29T15:05:17Z</time>
      </trkpt>
      <trkpt lat="47.53197" lon="-2.73536">
        <ele>22.6</ele>
        <time>2026-08-29T15:05:18Z</time>
      </trkpt>
      <trkpt lat="47.53199" lon="-2.73531">
        <ele>22.7</ele>
        <time>2026-08-29T15:05:19Z</time>
      </trkpt>
      <trkpt lat="47.53201" lon="-2.73526">
        <ele>22.8</ele>
        <time>2026-08-29T15:05:20Z</time>
      </trkpt>
      <trkpt lat="47.53202" lon="-2.7352">
        <ele>23</ele>
        <time>2026-08-29T15:05:21Z</time>
      </trkpt>
      <trkpt lat="47.53204" lon="-2.73515">
        <ele>23.1</ele>
        <time>2026-08-29T15:05:22Z</time>
      </trkpt>
      <trkpt lat="47.53206" lon="-2.7351">
        <ele>23.2</ele>
        <time>2026-08-29T15:05:23Z</time>
      </trkpt>
      <trkpt lat="47.53208" lon="-2.73504">
        <ele>23.4</ele>
        <time>2026-08-29T15:05:24Z</time>
      </trkpt>
      <trkpt lat="47.5321" lon="-2.73499">
        <ele>23.5</ele>
        <time>2026-08-29T15:05:25Z</time>
      </trkpt>
      <trkpt lat="47.53211" lon="-2.73494">
        <ele>23.5</ele>
        <time>2026-08-29T15:05:26Z</time>
      </trkpt>
      <trkpt lat="47.53213" lon="-2.73489">
        <ele>23.6</ele>
        <time>2026-08-29T15:05:27Z</time>
      </trkpt>
      <trkpt lat="47.53215" lon="-2.73484">
        <ele>23.7</ele>
        <time>2026-08-29T15:05:28Z</time>
      </trkpt>
      <trkpt lat="47.53217" lon="-2.73479">
        <ele>23.8</ele>
        <time>2026-08-29T15:05:29Z</time>
      </trkpt>
      <trkpt lat="47.53219" lon="-2.73473">
        <ele>24</ele>
        <time>2026-08-29T15:05:30Z</time>
      </trkpt>
      <trkpt lat="47.53221" lon="-2.73468">
        <ele>24.2</ele>
        <time>2026-08-29T15:05:31Z</time>
      </trkpt>
      <trkpt lat="47.53223" lon="-2.73463">
        <ele>24.3</ele>
        <time>2026-08-29T15:05:32Z</time>
      </trkpt>
      <trkpt lat="47.53225" lon="-2.73457">
        <ele>24.4</ele>
        <time>2026-08-29T15:05:33Z</time>
      </trkpt>
      <trkpt lat="47.53227" lon="-2.73452">
        <ele>24.6</ele>
        <time>2026-08-29T15:05:34Z</time>
      </trkpt>
      <trkpt lat="47.53229" lon="-2.73447">
        <ele>24.7</ele>
        <time>2026-08-29T15:05:35Z</time>
      </trkpt>
      <trkpt lat="47.53231" lon="-2.73441">
        <ele>24.7</ele>
        <time>2026-08-29T15:05:36Z</time>
      </trkpt>
      <trkpt lat="47.53233" lon="-2.73436">
        <ele>24.7</ele>
        <time>2026-08-29T15:05:37Z</time>
      </trkpt>
      <trkpt lat="47.53235" lon="-2.73431">
        <ele>24.8</ele>
        <time>2026-08-29T15:05:38Z</time>
      </trkpt>
      <trkpt lat="47.53236" lon="-2.73425">
        <ele>24.9</ele>
        <time>2026-08-29T15:05:39Z</time>
      </trkpt>
      <trkpt lat="47.53238" lon="-2.7342">
        <ele>24.9</ele>
        <time>2026-08-29T15:05:40Z</time>
      </trkpt>
      <trkpt lat="47.5324" lon="-2.73415">
        <ele>25</ele>
        <time>2026-08-29T15:05:41Z</time>
      </trkpt>
      <trkpt lat="47.53242" lon="-2.73409">
        <ele>25.1</ele>
        <time>2026-08-29T15:05:42Z</time>
      </trkpt>
      <trkpt lat="47.53244" lon="-2.73404">
        <ele>25.1</ele>
        <time>2026-08-29T15:05:43Z</time>
      </trkpt>
      <trkpt lat="47.53245" lon="-2.73399">
        <ele>25.1</ele>
        <time>2026-08-29T15:05:44Z</time>
      </trkpt>
      <trkpt lat="47.53247" lon="-2.73394">
        <ele>25.1</ele>
        <time>2026-08-29T15:05:45Z</time>
      </trkpt>
      <trkpt lat="47.53249" lon="-2.73389">
        <ele>25</ele>
        <time>2026-08-29T15:05:46Z</time>
      </trkpt>
      <trkpt lat="47.53251" lon="-2.73383">
        <ele>25.2</ele>
        <time>2026-08-29T15:05:47Z</time>
      </trkpt>
      <trkpt lat="47.53253" lon="-2.73378">
        <ele>25.2</ele>
        <time>2026-08-29T15:05:48Z</time>
      </trkpt>
      <trkpt lat="47.53255" lon="-2.73373">
        <ele>25.3</ele>
        <time>2026-08-29T15:05:49Z</time>
      </trkpt>
      <trkpt lat="47.53256" lon="-2.73367">
        <ele>25.4</ele>
        <time>2026-08-29T15:05:50Z</time>
      </trkpt>
      <trkpt lat="47.53259" lon="-2.73362">
        <ele>25.3</ele>
        <time>2026-08-29T15:05:51Z</time>
      </trkpt>
      <trkpt lat="47.5326" lon="-2.73356">
        <ele>25.3</ele>
        <time>2026-08-29T15:05:52Z</time>
      </trkpt>
      <trkpt lat="47.53262" lon="-2.73351">
        <ele>25.1</ele>
        <time>2026-08-29T15:05:53Z</time>
      </trkpt>
      <trkpt lat="47.53264" lon="-2.73346">
        <ele>25</ele>
        <time>2026-08-29T15:05:54Z</time>
      </trkpt>
      <trkpt lat="47.53265" lon="-2.7334">
        <ele>24.9</ele>
        <time>2026-08-29T15:05:55Z</time>
      </trkpt>
      <trkpt lat="47.53267" lon="-2.73335">
        <ele>24.8</ele>
        <time>2026-08-29T15:05:56Z</time>
      </trkpt>
      <trkpt lat="47.53269" lon="-2.73329">
        <ele>24.7</ele>
        <time>2026-08-29T15:05:57Z</time>
      </trkpt>
      <trkpt lat="47.53271" lon="-2.73323">
        <ele>24.8</ele>
        <time>2026-08-29T15:05:58Z</time>
      </trkpt>
      <trkpt lat="47.53274" lon="-2.73317">
        <ele>24.8</ele>
        <time>2026-08-29T15:05:59Z</time>
      </trkpt>
      <trkpt lat="47.53276" lon="-2.73311">
        <ele>24.9</ele>
        <time>2026-08-29T15:06:00Z</time>
      </trkpt>
      <trkpt lat="47.53278" lon="-2.73304">
        <ele>25</ele>
        <time>2026-08-29T15:06:01Z</time>
      </trkpt>
      <trkpt lat="47.5328" lon="-2.73298">
        <ele>24.8</ele>
        <time>2026-08-29T15:06:02Z</time>
      </trkpt>
      <trkpt lat="47.53282" lon="-2.73292">
        <ele>24.7</ele>
        <time>2026-08-29T15:06:03Z</time>
      </trkpt>
      <trkpt lat="47.53285" lon="-2.73285">
        <ele>24.5</ele>
        <time>2026-08-29T15:06:04Z</time>
      </trkpt>
      <trkpt lat="47.53287" lon="-2.73279">
        <ele>24.3</ele>
        <time>2026-08-29T15:06:05Z</time>
      </trkpt>
      <trkpt lat="47.53289" lon="-2.73272">
        <ele>24.1</ele>
        <time>2026-08-29T15:06:06Z</time>
      </trkpt>
      <trkpt lat="47.53292" lon="-2.73265">
        <ele>23.8</ele>
        <time>2026-08-29T15:06:07Z</time>
      </trkpt>
      <trkpt lat="47.53294" lon="-2.73259">
        <ele>23.6</ele>
        <time>2026-08-29T15:06:08Z</time>
      </trkpt>
      <trkpt lat="47.53297" lon="-2.73252">
        <ele>23.3</ele>
        <time>2026-08-29T15:06:09Z</time>
      </trkpt>
      <trkpt lat="47.53299" lon="-2.73245">
        <ele>23.4</ele>
        <time>2026-08-29T15:06:10Z</time>
      </trkpt>
      <trkpt lat="47.53301" lon="-2.73238">
        <ele>23.6</ele>
        <time>2026-08-29T15:06:11Z</time>
      </trkpt>
      <trkpt lat="47.53304" lon="-2.73231">
        <ele>23.7</ele>
        <time>2026-08-29T15:06:12Z</time>
      </trkpt>
      <trkpt lat="47.53306" lon="-2.73224">
        <ele>23.9</ele>
        <time>2026-08-29T15:06:13Z</time>
      </trkpt>
      <trkpt lat="47.53308" lon="-2.73217">
        <ele>23.6</ele>
        <time>2026-08-29T15:06:14Z</time>
      </trkpt>
      <trkpt lat="47.53311" lon="-2.7321">
        <ele>23.2</ele>
        <time>2026-08-29T15:06:15Z</time>
      </trkpt>
      <trkpt lat="47.53313" lon="-2.73203">
        <ele>23.1</ele>
        <time>2026-08-29T15:06:16Z</time>
      </trkpt>
      <trkpt lat="47.53316" lon="-2.73196">
        <ele>23</ele>
        <time>2026-08-29T15:06:17Z</time>
      </trkpt>
      <trkpt lat="47.53318" lon="-2.73189">
        <ele>23.2</ele>
        <time>2026-08-29T15:06:18Z</time>
      </trkpt>
      <trkpt lat="47.53321" lon="-2.73183">
        <ele>23.4</ele>
        <time>2026-08-29T15:06:19Z</time>
      </trkpt>
      <trkpt lat="47.53323" lon="-2.73176">
        <ele>23.7</ele>
        <time>2026-08-29T15:06:20Z</time>
      </trkpt>
      <trkpt lat="47.53325" lon="-2.73169">
        <ele>23.9</ele>
        <time>2026-08-29T15:06:21Z</time>
      </trkpt>
      <trkpt lat="47.53328" lon="-2.73163">
        <ele>24.1</ele>
        <time>2026-08-29T15:06:22Z</time>
      </trkpt>
      <trkpt lat="47.5333" lon="-2.73157">
        <ele>24.3</ele>
        <time>2026-08-29T15:06:23Z</time>
      </trkpt>
      <trkpt lat="47.53332" lon="-2.73151">
        <ele>24.6</ele>
        <time>2026-08-29T15:06:24Z</time>
      </trkpt>
      <trkpt lat="47.53334" lon="-2.73145">
        <ele>24.8</ele>
        <time>2026-08-29T15:06:25Z</time>
      </trkpt>
      <trkpt lat="47.53337" lon="-2.73139">
        <ele>25</ele>
        <time>2026-08-29T15:06:26Z</time>
      </trkpt>
      <trkpt lat="47.53339" lon="-2.73133">
        <ele>25.2</ele>
        <time>2026-08-29T15:06:27Z</time>
      </trkpt>
      <trkpt lat="47.53341" lon="-2.73127">
        <ele>25.3</ele>
        <time>2026-08-29T15:06:28Z</time>
      </trkpt>
      <trkpt lat="47.53343" lon="-2.73121">
        <ele>25.4</ele>
        <time>2026-08-29T15:06:29Z</time>
      </trkpt>
      <trkpt lat="47.53345" lon="-2.73115">
        <ele>25.5</ele>
        <time>2026-08-29T15:06:30Z</time>
      </trkpt>
      <trkpt lat="47.53347" lon="-2.73109">
        <ele>25.6</ele>
        <time>2026-08-29T15:06:31Z</time>
      </trkpt>
      <trkpt lat="47.53349" lon="-2.73104">
        <ele>25.7</ele>
        <time>2026-08-29T15:06:32Z</time>
      </trkpt>
      <trkpt lat="47.53352" lon="-2.731">
        <ele>25.7</ele>
        <time>2026-08-29T15:06:33Z</time>
      </trkpt>
      <trkpt lat="47.53355" lon="-2.73098">
        <ele>25.7</ele>
        <time>2026-08-29T15:06:34Z</time>
      </trkpt>
      <trkpt lat="47.5336" lon="-2.73097">
        <ele>25.5</ele>
        <time>2026-08-29T15:06:35Z</time>
      </trkpt>
      <trkpt lat="47.53364" lon="-2.73097">
        <ele>25.5</ele>
        <time>2026-08-29T15:06:36Z</time>
      </trkpt>
      <trkpt lat="47.53369" lon="-2.73096">
        <ele>25.4</ele>
        <time>2026-08-29T15:06:37Z</time>
      </trkpt>
      <trkpt lat="47.53373" lon="-2.73096">
        <ele>25.3</ele>
        <time>2026-08-29T15:06:38Z</time>
      </trkpt>
      <trkpt lat="47.53377" lon="-2.73098">
        <ele>25.2</ele>
        <time>2026-08-29T15:06:39Z</time>
      </trkpt>
      <trkpt lat="47.53382" lon="-2.731">
        <ele>25.1</ele>
        <time>2026-08-29T15:06:40Z</time>
      </trkpt>
      <trkpt lat="47.53387" lon="-2.73102">
        <ele>25</ele>
        <time>2026-08-29T15:06:41Z</time>
      </trkpt>
      <trkpt lat="47.53391" lon="-2.73104">
        <ele>24.9</ele>
        <time>2026-08-29T15:06:42Z</time>
      </trkpt>
      <trkpt lat="47.53395" lon="-2.73106">
        <ele>24.8</ele>
        <time>2026-08-29T15:06:43Z</time>
      </trkpt>
      <trkpt lat="47.534" lon="-2.73108">
        <ele>24.6</ele>
        <time>2026-08-29T15:06:44Z</time>
      </trkpt>
      <trkpt lat="47.53404" lon="-2.73111">
        <ele>24.5</ele>
        <time>2026-08-29T15:06:45Z</time>
      </trkpt>
      <trkpt lat="47.53409" lon="-2.73113">
        <ele>24.3</ele>
        <time>2026-08-29T15:06:46Z</time>
      </trkpt>
      <trkpt lat="47.53414" lon="-2.73116">
        <ele>24.1</ele>
        <time>2026-08-29T15:06:47Z</time>
      </trkpt>
      <trkpt lat="47.53418" lon="-2.73118">
        <ele>24</ele>
        <time>2026-08-29T15:06:48Z</time>
      </trkpt>
      <trkpt lat="47.53422" lon="-2.7312">
        <ele>23.9</ele>
        <time>2026-08-29T15:06:49Z</time>
      </trkpt>
      <trkpt lat="47.53427" lon="-2.73122">
        <ele>23.9</ele>
        <time>2026-08-29T15:06:50Z</time>
      </trkpt>
      <trkpt lat="47.53433" lon="-2.73125">
        <ele>23.7</ele>
        <time>2026-08-29T15:06:51Z</time>
      </trkpt>
      <trkpt lat="47.53438" lon="-2.73127">
        <ele>23.6</ele>
        <time>2026-08-29T15:06:52Z</time>
      </trkpt>
      <trkpt lat="47.53443" lon="-2.73129">
        <ele>23.4</ele>
        <time>2026-08-29T15:06:53Z</time>
      </trkpt>
      <trkpt lat="47.53448" lon="-2.7313">
        <ele>23.2</ele>
        <time>2026-08-29T15:06:54Z</time>
      </trkpt>
      <trkpt lat="47.53454" lon="-2.73132">
        <ele>22.9</ele>
        <time>2026-08-29T15:06:55Z</time>
      </trkpt>
      <trkpt lat="47.5346" lon="-2.73134">
        <ele>22.6</ele>
        <time>2026-08-29T15:06:56Z</time>
      </trkpt>
      <trkpt lat="47.53465" lon="-2.73137">
        <ele>22.3</ele>
        <time>2026-08-29T15:06:57Z</time>
      </trkpt>
      <trkpt lat="47.53469" lon="-2.73139">
        <ele>22.1</ele>
        <time>2026-08-29T15:06:58Z</time>
      </trkpt>
      <trkpt lat="47.53474" lon="-2.73141">
        <ele>22</ele>
        <time>2026-08-29T15:06:59Z</time>
      </trkpt>
      <trkpt lat="47.53479" lon="-2.73143">
        <ele>22</ele>
        <time>2026-08-29T15:07:00Z</time>
      </trkpt>
      <trkpt lat="47.53484" lon="-2.73145">
        <ele>22</ele>
        <time>2026-08-29T15:07:01Z</time>
      </trkpt>
      <trkpt lat="47.53489" lon="-2.73143">
        <ele>22</ele>
        <time>2026-08-29T15:07:02Z</time>
      </trkpt>
      <trkpt lat="47.53493" lon="-2.7314">
        <ele>22</ele>
        <time>2026-08-29T15:07:03Z</time>
      </trkpt>
      <trkpt lat="47.53496" lon="-2.73135">
        <ele>22</ele>
        <time>2026-08-29T15:07:04Z</time>
      </trkpt>
      <trkpt lat="47.53497" lon="-2.7313">
        <ele>22</ele>
        <time>2026-08-29T15:07:05Z</time>
      </trkpt>
      <trkpt lat="47.53499" lon="-2.73124">
        <ele>22</ele>
        <time>2026-08-29T15:07:06Z</time>
      </trkpt>
      <trkpt lat="47.53503" lon="-2.7312">
        <ele>21.9</ele>
        <time>2026-08-29T15:07:07Z</time>
      </trkpt>
      <trkpt lat="47.53508" lon="-2.73119">
        <ele>21.7</ele>
        <time>2026-08-29T15:07:08Z</time>
      </trkpt>
      <trkpt lat="47.53513" lon="-2.73121">
        <ele>21.5</ele>
        <time>2026-08-29T15:07:09Z</time>
      </trkpt>
      <trkpt lat="47.53518" lon="-2.73124">
        <ele>21.4</ele>
        <time>2026-08-29T15:07:10Z</time>
      </trkpt>
      <trkpt lat="47.53522" lon="-2.73127">
        <ele>21.2</ele>
        <time>2026-08-29T15:07:11Z</time>
      </trkpt>
      <trkpt lat="47.53526" lon="-2.7313">
        <ele>21.1</ele>
        <time>2026-08-29T15:07:12Z</time>
      </trkpt>
      <trkpt lat="47.53531" lon="-2.73133">
        <ele>21</ele>
        <time>2026-08-29T15:07:13Z</time>
      </trkpt>
      <trkpt lat="47.53535" lon="-2.73136">
        <ele>21</ele>
        <time>2026-08-29T15:07:14Z</time>
      </trkpt>
      <trkpt lat="47.5354" lon="-2.7314">
        <ele>21</ele>
        <time>2026-08-29T15:07:15Z</time>
      </trkpt>
      <trkpt lat="47.53544" lon="-2.73144">
        <ele>21.1</ele>
        <time>2026-08-29T15:07:16Z</time>
      </trkpt>
      <trkpt lat="47.53549" lon="-2.73147">
        <ele>21.1</ele>
        <time>2026-08-29T15:07:17Z</time>
      </trkpt>
      <trkpt lat="47.53553" lon="-2.73151">
        <ele>21</ele>
        <time>2026-08-29T15:07:18Z</time>
      </trkpt>
      <trkpt lat="47.53557" lon="-2.73155">
        <ele>21</ele>
        <time>2026-08-29T15:07:19Z</time>
      </trkpt>
      <trkpt lat="47.53561" lon="-2.73158">
        <ele>20.9</ele>
        <time>2026-08-29T15:07:20Z</time>
      </trkpt>
      <trkpt lat="47.53565" lon="-2.73162">
        <ele>20.7</ele>
        <time>2026-08-29T15:07:21Z</time>
      </trkpt>
      <trkpt lat="47.53569" lon="-2.73166">
        <ele>20.5</ele>
        <time>2026-08-29T15:07:22Z</time>
      </trkpt>
      <trkpt lat="47.53572" lon="-2.73169">
        <ele>20.4</ele>
        <time>2026-08-29T15:07:23Z</time>
      </trkpt>
      <trkpt lat="47.53576" lon="-2.73172">
        <ele>20.3</ele>
        <time>2026-08-29T15:07:24Z</time>
      </trkpt>
      <trkpt lat="47.53581" lon="-2.73173">
        <ele>20.1</ele>
        <time>2026-08-29T15:07:25Z</time>
      </trkpt>
      <trkpt lat="47.53585" lon="-2.73174">
        <ele>20</ele>
        <time>2026-08-29T15:07:26Z</time>
      </trkpt>
      <trkpt lat="47.53589" lon="-2.73174">
        <ele>20</ele>
        <time>2026-08-29T15:07:27Z</time>
      </trkpt>
      <trkpt lat="47.53593" lon="-2.73175">
        <ele>20</ele>
        <time>2026-08-29T15:07:28Z</time>
      </trkpt>
      <trkpt lat="47.53597" lon="-2.73176">
        <ele>20</ele>
        <time>2026-08-29T15:07:29Z</time>
      </trkpt>
      <trkpt lat="47.53601" lon="-2.73177">
        <ele>20</ele>
        <time>2026-08-29T15:07:30Z</time>
      </trkpt>
      <trkpt lat="47.53606" lon="-2.73179">
        <ele>20</ele>
        <time>2026-08-29T15:07:31Z</time>
      </trkpt>
      <trkpt lat="47.5361" lon="-2.7318">
        <ele>20</ele>
        <time>2026-08-29T15:07:32Z</time>
      </trkpt>
      <trkpt lat="47.53615" lon="-2.73182">
        <ele>20.1</ele>
        <time>2026-08-29T15:07:33Z</time>
      </trkpt>
      <trkpt lat="47.53618" lon="-2.73184">
        <ele>20.2</ele>
        <time>2026-08-29T15:07:34Z</time>
      </trkpt>
      <trkpt lat="47.53622" lon="-2.73186">
        <ele>20.4</ele>
        <time>2026-08-29T15:07:35Z</time>
      </trkpt>
      <trkpt lat="47.53626" lon="-2.73188">
        <ele>20.5</ele>
        <time>2026-08-29T15:07:36Z</time>
      </trkpt>
      <trkpt lat="47.53629" lon="-2.73189">
        <ele>20.6</ele>
        <time>2026-08-29T15:07:37Z</time>
      </trkpt>
      <trkpt lat="47.53633" lon="-2.7319">
        <ele>20.8</ele>
        <time>2026-08-29T15:07:38Z</time>
      </trkpt>
      <trkpt lat="47.53637" lon="-2.7319">
        <ele>20.9</ele>
        <time>2026-08-29T15:07:39Z</time>
      </trkpt>
      <trkpt lat="47.53642" lon="-2.73191">
        <ele>21.1</ele>
        <time>2026-08-29T15:07:40Z</time>
      </trkpt>
      <trkpt lat="47.53646" lon="-2.73192">
        <ele>21.3</ele>
        <time>2026-08-29T15:07:41Z</time>
      </trkpt>
      <trkpt lat="47.53649" lon="-2.73193">
        <ele>21.4</ele>
        <time>2026-08-29T15:07:42Z</time>
      </trkpt>
      <trkpt lat="47.53653" lon="-2.73193">
        <ele>21.5</ele>
        <time>2026-08-29T15:07:43Z</time>
      </trkpt>
      <trkpt lat="47.53657" lon="-2.73194">
        <ele>21.7</ele>
        <time>2026-08-29T15:07:44Z</time>
      </trkpt>
      <trkpt lat="47.53661" lon="-2.73195">
        <ele>21.8</ele>
        <time>2026-08-29T15:07:45Z</time>
      </trkpt>
      <trkpt lat="47.53664" lon="-2.73196">
        <ele>21.9</ele>
        <time>2026-08-29T15:07:46Z</time>
      </trkpt>
      <trkpt lat="47.53668" lon="-2.73198">
        <ele>22</ele>
        <time>2026-08-29T15:07:47Z</time>
      </trkpt>
      <trkpt lat="47.53672" lon="-2.73198">
        <ele>22.2</ele>
        <time>2026-08-29T15:07:48Z</time>
      </trkpt>
      <trkpt lat="47.53676" lon="-2.73199">
        <ele>22.3</ele>
        <time>2026-08-29T15:07:49Z</time>
      </trkpt>
      <trkpt lat="47.5368" lon="-2.732">
        <ele>22.5</ele>
        <time>2026-08-29T15:07:50Z</time>
      </trkpt>
      <trkpt lat="47.53683" lon="-2.73202">
        <ele>22.6</ele>
        <time>2026-08-29T15:07:51Z</time>
      </trkpt>
      <trkpt lat="47.53687" lon="-2.73204">
        <ele>22.7</ele>
        <time>2026-08-29T15:07:52Z</time>
      </trkpt>
      <trkpt lat="47.53691" lon="-2.73205">
        <ele>22.9</ele>
        <time>2026-08-29T15:07:53Z</time>
      </trkpt>
      <trkpt lat="47.53694" lon="-2.73206">
        <ele>23</ele>
        <time>2026-08-29T15:07:54Z</time>
      </trkpt>
      <trkpt lat="47.53698" lon="-2.73207">
        <ele>23</ele>
        <time>2026-08-29T15:07:55Z</time>
      </trkpt>
      <trkpt lat="47.53701" lon="-2.73209">
        <ele>23</ele>
        <time>2026-08-29T15:07:56Z</time>
      </trkpt>
      <trkpt lat="47.53704" lon="-2.7321">
        <ele>23</ele>
        <time>2026-08-29T15:07:57Z</time>
      </trkpt>
      <trkpt lat="47.53708" lon="-2.73212">
        <ele>23</ele>
        <time>2026-08-29T15:07:58Z</time>
      </trkpt>
      <trkpt lat="47.53712" lon="-2.73214">
        <ele>23</ele>
        <time>2026-08-29T15:07:59Z</time>
      </trkpt>
      <trkpt lat="47.53716" lon="-2.73216">
        <ele>23</ele>
        <time>2026-08-29T15:08:00Z</time>
      </trkpt>
      <trkpt lat="47.53719" lon="-2.73217">
        <ele>23</ele>
        <time>2026-08-29T15:08:01Z</time>
      </trkpt>
      <trkpt lat="47.53722" lon="-2.73218">
        <ele>23</ele>
        <time>2026-08-29T15:08:02Z</time>
      </trkpt>
      <trkpt lat="47.53725" lon="-2.73219">
        <ele>23</ele>
        <time>2026-08-29T15:08:03Z</time>
      </trkpt>
      <trkpt lat="47.53729" lon="-2.73219">
        <ele>23</ele>
        <time>2026-08-29T15:08:04Z</time>
      </trkpt>
      <trkpt lat="47.53733" lon="-2.7322">
        <ele>23</ele>
        <time>2026-08-29T15:08:05Z</time>
      </trkpt>
      <trkpt lat="47.53736" lon="-2.7322">
        <ele>23</ele>
        <time>2026-08-29T15:08:06Z</time>
      </trkpt>
      <trkpt lat="47.53739" lon="-2.73219">
        <ele>22.9</ele>
        <time>2026-08-29T15:08:07Z</time>
      </trkpt>
      <trkpt lat="47.53742" lon="-2.73215">
        <ele>22.8</ele>
        <time>2026-08-29T15:08:08Z</time>
      </trkpt>
      <trkpt lat="47.53743" lon="-2.7321">
        <ele>22.7</ele>
        <time>2026-08-29T15:08:09Z</time>
      </trkpt>
      <trkpt lat="47.53744" lon="-2.73205">
        <ele>22.5</ele>
        <time>2026-08-29T15:08:10Z</time>
      </trkpt>
      <trkpt lat="47.53746" lon="-2.73198">
        <ele>22.3</ele>
        <time>2026-08-29T15:08:11Z</time>
      </trkpt>
      <trkpt lat="47.53747" lon="-2.73192">
        <ele>22</ele>
        <time>2026-08-29T15:08:12Z</time>
      </trkpt>
      <trkpt lat="47.53749" lon="-2.73185">
        <ele>21.7</ele>
        <time>2026-08-29T15:08:13Z</time>
      </trkpt>
      <trkpt lat="47.53751" lon="-2.73178">
        <ele>21.4</ele>
        <time>2026-08-29T15:08:14Z</time>
      </trkpt>
      <trkpt lat="47.53752" lon="-2.7317">
        <ele>21.1</ele>
        <time>2026-08-29T15:08:15Z</time>
      </trkpt>
      <trkpt lat="47.53754" lon="-2.73163">
        <ele>20.8</ele>
        <time>2026-08-29T15:08:16Z</time>
      </trkpt>
      <trkpt lat="47.53757" lon="-2.73155">
        <ele>20.6</ele>
        <time>2026-08-29T15:08:17Z</time>
      </trkpt>
      <trkpt lat="47.53759" lon="-2.73145">
        <ele>20.4</ele>
        <time>2026-08-29T15:08:18Z</time>
      </trkpt>
      <trkpt lat="47.53761" lon="-2.73136">
        <ele>20.1</ele>
        <time>2026-08-29T15:08:19Z</time>
      </trkpt>
      <trkpt lat="47.53763" lon="-2.73127">
        <ele>19.6</ele>
        <time>2026-08-29T15:08:20Z</time>
      </trkpt>
      <trkpt lat="47.53766" lon="-2.73117">
        <ele>19.1</ele>
        <time>2026-08-29T15:08:21Z</time>
      </trkpt>
      <trkpt lat="47.53769" lon="-2.73108">
        <ele>18.5</ele>
        <time>2026-08-29T15:08:22Z</time>
      </trkpt>
      <trkpt lat="47.53773" lon="-2.73098">
        <ele>17.9</ele>
        <time>2026-08-29T15:08:23Z</time>
      </trkpt>
      <trkpt lat="47.53777" lon="-2.73089">
        <ele>17.3</ele>
        <time>2026-08-29T15:08:24Z</time>
      </trkpt>
      <trkpt lat="47.5378" lon="-2.73079">
        <ele>16.6</ele>
        <time>2026-08-29T15:08:25Z</time>
      </trkpt>
      <trkpt lat="47.53784" lon="-2.7307">
        <ele>16.1</ele>
        <time>2026-08-29T15:08:26Z</time>
      </trkpt>
      <trkpt lat="47.53788" lon="-2.7306">
        <ele>15.7</ele>
        <time>2026-08-29T15:08:27Z</time>
      </trkpt>
      <trkpt lat="47.53791" lon="-2.7305">
        <ele>15.7</ele>
        <time>2026-08-29T15:08:28Z</time>
      </trkpt>
      <trkpt lat="47.53793" lon="-2.7304">
        <ele>16.1</ele>
        <time>2026-08-29T15:08:29Z</time>
      </trkpt>
      <trkpt lat="47.53793" lon="-2.73031">
        <ele>16.4</ele>
        <time>2026-08-29T15:08:30Z</time>
      </trkpt>
      <trkpt lat="47.53791" lon="-2.73022">
        <ele>16.5</ele>
        <time>2026-08-29T15:08:31Z</time>
      </trkpt>
      <trkpt lat="47.53789" lon="-2.73015">
        <ele>16.3</ele>
        <time>2026-08-29T15:08:32Z</time>
      </trkpt>
      <trkpt lat="47.53786" lon="-2.73008">
        <ele>16</ele>
        <time>2026-08-29T15:08:33Z</time>
      </trkpt>
      <trkpt lat="47.53784" lon="-2.73001">
        <ele>15.7</ele>
        <time>2026-08-29T15:08:34Z</time>
      </trkpt>
      <trkpt lat="47.53781" lon="-2.72994">
        <ele>15.8</ele>
        <time>2026-08-29T15:08:35Z</time>
      </trkpt>
      <trkpt lat="47.53778" lon="-2.72988">
        <ele>15.9</ele>
        <time>2026-08-29T15:08:36Z</time>
      </trkpt>
      <trkpt lat="47.53776" lon="-2.72982">
        <ele>16.3</ele>
        <time>2026-08-29T15:08:37Z</time>
      </trkpt>
      <trkpt lat="47.53773" lon="-2.72976">
        <ele>16.6</ele>
        <time>2026-08-29T15:08:38Z</time>
      </trkpt>
      <trkpt lat="47.53771" lon="-2.7297">
        <ele>16.8</ele>
        <time>2026-08-29T15:08:39Z</time>
      </trkpt>
      <trkpt lat="47.53768" lon="-2.72964">
        <ele>16.8</ele>
        <time>2026-08-29T15:08:40Z</time>
      </trkpt>
      <trkpt lat="47.53766" lon="-2.72958">
        <ele>16.9</ele>
        <time>2026-08-29T15:08:41Z</time>
      </trkpt>
      <trkpt lat="47.53763" lon="-2.72952">
        <ele>16.8</ele>
        <time>2026-08-29T15:08:42Z</time>
      </trkpt>
      <trkpt lat="47.53761" lon="-2.72946">
        <ele>16.8</ele>
        <time>2026-08-29T15:08:43Z</time>
      </trkpt>
      <trkpt lat="47.53759" lon="-2.7294">
        <ele>16.6</ele>
        <time>2026-08-29T15:08:44Z</time>
      </trkpt>
      <trkpt lat="47.53758" lon="-2.72935">
        <ele>16.6</ele>
        <time>2026-08-29T15:08:45Z</time>
      </trkpt>
      <trkpt lat="47.53757" lon="-2.7293">
        <ele>16.5</ele>
        <time>2026-08-29T15:08:46Z</time>
      </trkpt>
      <trkpt lat="47.53757" lon="-2.72923">
        <ele>16.5</ele>
        <time>2026-08-29T15:08:47Z</time>
      </trkpt>
      <trkpt lat="47.53757" lon="-2.72916">
        <ele>16.5</ele>
        <time>2026-08-29T15:08:48Z</time>
      </trkpt>
      <trkpt lat="47.53757" lon="-2.72908">
        <ele>16.4</ele>
        <time>2026-08-29T15:08:49Z</time>
      </trkpt>
      <trkpt lat="47.53757" lon="-2.72902">
        <ele>16.4</ele>
        <time>2026-08-29T15:08:50Z</time>
      </trkpt>
      <trkpt lat="47.53758" lon="-2.72895">
        <ele>16.4</ele>
        <time>2026-08-29T15:08:51Z</time>
      </trkpt>
      <trkpt lat="47.5376" lon="-2.72887">
        <ele>16.4</ele>
        <time>2026-08-29T15:08:52Z</time>
      </trkpt>
      <trkpt lat="47.53761" lon="-2.72881">
        <ele>16.6</ele>
        <time>2026-08-29T15:08:53Z</time>
      </trkpt>
      <trkpt lat="47.53762" lon="-2.72874">
        <ele>16.7</ele>
        <time>2026-08-29T15:08:54Z</time>
      </trkpt>
      <trkpt lat="47.53763" lon="-2.72867">
        <ele>16.9</ele>
        <time>2026-08-29T15:08:55Z</time>
      </trkpt>
      <trkpt lat="47.53765" lon="-2.72861">
        <ele>17</ele>
        <time>2026-08-29T15:08:56Z</time>
      </trkpt>
      <trkpt lat="47.53766" lon="-2.72855">
        <ele>17</ele>
        <time>2026-08-29T15:08:57Z</time>
      </trkpt>
      <trkpt lat="47.53768" lon="-2.72849">
        <ele>17</ele>
        <time>2026-08-29T15:08:58Z</time>
      </trkpt>
      <trkpt lat="47.53769" lon="-2.72843">
        <ele>17</ele>
        <time>2026-08-29T15:08:59Z</time>
      </trkpt>
      <trkpt lat="47.5377" lon="-2.72838">
        <ele>17</ele>
        <time>2026-08-29T15:09:00Z</time>
      </trkpt>
      <trkpt lat="47.53771" lon="-2.72832">
        <ele>17</ele>
        <time>2026-08-29T15:09:01Z</time>
      </trkpt>
      <trkpt lat="47.53771" lon="-2.72826">
        <ele>17.2</ele>
        <time>2026-08-29T15:09:02Z</time>
      </trkpt>
      <trkpt lat="47.5377" lon="-2.7282">
        <ele>17.3</ele>
        <time>2026-08-29T15:09:03Z</time>
      </trkpt>
      <trkpt lat="47.53768" lon="-2.72815">
        <ele>17.4</ele>
        <time>2026-08-29T15:09:04Z</time>
      </trkpt>
      <trkpt lat="47.53766" lon="-2.72811">
        <ele>17.5</ele>
        <time>2026-08-29T15:09:05Z</time>
      </trkpt>
      <trkpt lat="47.53764" lon="-2.72806">
        <ele>17.5</ele>
        <time>2026-08-29T15:09:06Z</time>
      </trkpt>
      <trkpt lat="47.53761" lon="-2.72802">
        <ele>17.5</ele>
        <time>2026-08-29T15:09:07Z</time>
      </trkpt>
      <trkpt lat="47.5376" lon="-2.72799">
        <ele>17.6</ele>
        <time>2026-08-29T15:09:08Z</time>
      </trkpt>
      <trkpt lat="47.53758" lon="-2.72797">
        <ele>17.6</ele>
        <time>2026-08-29T15:09:09Z</time>
      </trkpt>
      <trkpt lat="47.53755" lon="-2.72794">
        <ele>17.6</ele>
        <time>2026-08-29T15:09:10Z</time>
      </trkpt>
      <trkpt lat="47.53749" lon="-2.72791">
        <ele>17.5</ele>
        <time>2026-08-29T15:09:11Z</time>
      </trkpt>
      <trkpt lat="47.53744" lon="-2.72787">
        <ele>17.7</ele>
        <time>2026-08-29T15:09:12Z</time>
      </trkpt>
      <trkpt lat="47.5374" lon="-2.72784">
        <ele>17.8</ele>
        <time>2026-08-29T15:09:13Z</time>
      </trkpt>
      <trkpt lat="47.53736" lon="-2.7278">
        <ele>17.9</ele>
        <time>2026-08-29T15:09:14Z</time>
      </trkpt>
      <trkpt lat="47.53733" lon="-2.72776">
        <ele>18.1</ele>
        <time>2026-08-29T15:09:15Z</time>
      </trkpt>
      <trkpt lat="47.53729" lon="-2.72772">
        <ele>18.2</ele>
        <time>2026-08-29T15:09:16Z</time>
      </trkpt>
      <trkpt lat="47.53726" lon="-2.72767">
        <ele>18.4</ele>
        <time>2026-08-29T15:09:17Z</time>
      </trkpt>
      <trkpt lat="47.53723" lon="-2.72763">
        <ele>18.5</ele>
        <time>2026-08-29T15:09:18Z</time>
      </trkpt>
      <trkpt lat="47.53719" lon="-2.7276">
        <ele>18.6</ele>
        <time>2026-08-29T15:09:19Z</time>
      </trkpt>
      <trkpt lat="47.53715" lon="-2.72757">
        <ele>18.6</ele>
        <time>2026-08-29T15:09:20Z</time>
      </trkpt>
      <trkpt lat="47.53712" lon="-2.72754">
        <ele>18.5</ele>
        <time>2026-08-29T15:09:21Z</time>
      </trkpt>
      <trkpt lat="47.53709" lon="-2.7275">
        <ele>18.5</ele>
        <time>2026-08-29T15:09:22Z</time>
      </trkpt>
      <trkpt lat="47.53706" lon="-2.72748">
        <ele>18.5</ele>
        <time>2026-08-29T15:09:23Z</time>
      </trkpt>
      <trkpt lat="47.53702" lon="-2.72743">
        <ele>18.5</ele>
        <time>2026-08-29T15:09:24Z</time>
      </trkpt>
      <trkpt lat="47.53699" lon="-2.7274">
        <ele>18.5</ele>
        <time>2026-08-29T15:09:25Z</time>
      </trkpt>
      <trkpt lat="47.53695" lon="-2.72737">
        <ele>18.5</ele>
        <time>2026-08-29T15:09:26Z</time>
      </trkpt>
      <trkpt lat="47.53692" lon="-2.72735">
        <ele>18.6</ele>
        <time>2026-08-29T15:09:27Z</time>
      </trkpt>
      <trkpt lat="47.53689" lon="-2.72733">
        <ele>18.7</ele>
        <time>2026-08-29T15:09:28Z</time>
      </trkpt>
      <trkpt lat="47.53686" lon="-2.72731">
        <ele>18.8</ele>
        <time>2026-08-29T15:09:29Z</time>
      </trkpt>
      <trkpt lat="47.53682" lon="-2.72728">
        <ele>18.9</ele>
        <time>2026-08-29T15:09:30Z</time>
      </trkpt>
      <trkpt lat="47.53678" lon="-2.72728">
        <ele>18.9</ele>
        <time>2026-08-29T15:09:31Z</time>
      </trkpt>
      <trkpt lat="47.53674" lon="-2.72728">
        <ele>18.9</ele>
        <time>2026-08-29T15:09:32Z</time>
      </trkpt>
      <trkpt lat="47.5367" lon="-2.7273">
        <ele>19</ele>
        <time>2026-08-29T15:09:33Z</time>
      </trkpt>
      <trkpt lat="47.53666" lon="-2.72732">
        <ele>19</ele>
        <time>2026-08-29T15:09:34Z</time>
      </trkpt>
      <trkpt lat="47.53663" lon="-2.72734">
        <ele>19.1</ele>
        <time>2026-08-29T15:09:35Z</time>
      </trkpt>
      <trkpt lat="47.53659" lon="-2.72735">
        <ele>19.3</ele>
        <time>2026-08-29T15:09:36Z</time>
      </trkpt>
      <trkpt lat="47.53655" lon="-2.72736">
        <ele>19.4</ele>
        <time>2026-08-29T15:09:37Z</time>
      </trkpt>
      <trkpt lat="47.53651" lon="-2.72735">
        <ele>19.6</ele>
        <time>2026-08-29T15:09:38Z</time>
      </trkpt>
      <trkpt lat="47.53647" lon="-2.72733">
        <ele>19.7</ele>
        <time>2026-08-29T15:09:39Z</time>
      </trkpt>
      <trkpt lat="47.53643" lon="-2.7273">
        <ele>19.9</ele>
        <time>2026-08-29T15:09:40Z</time>
      </trkpt>
      <trkpt lat="47.5364" lon="-2.72728">
        <ele>20</ele>
        <time>2026-08-29T15:09:41Z</time>
      </trkpt>
      <trkpt lat="47.53636" lon="-2.72724">
        <ele>20.1</ele>
        <time>2026-08-29T15:09:42Z</time>
      </trkpt>
      <trkpt lat="47.53634" lon="-2.7272">
        <ele>20.2</ele>
        <time>2026-08-29T15:09:43Z</time>
      </trkpt>
      <trkpt lat="47.53631" lon="-2.72715">
        <ele>20.5</ele>
        <time>2026-08-29T15:09:44Z</time>
      </trkpt>
      <trkpt lat="47.53629" lon="-2.7271">
        <ele>20.6</ele>
        <time>2026-08-29T15:09:45Z</time>
      </trkpt>
      <trkpt lat="47.53626" lon="-2.72705">
        <ele>20.8</ele>
        <time>2026-08-29T15:09:46Z</time>
      </trkpt>
      <trkpt lat="47.53624" lon="-2.727">
        <ele>20.9</ele>
        <time>2026-08-29T15:09:47Z</time>
      </trkpt>
      <trkpt lat="47.53623" lon="-2.72695">
        <ele>21</ele>
        <time>2026-08-29T15:09:48Z</time>
      </trkpt>
      <trkpt lat="47.53622" lon="-2.72689">
        <ele>21</ele>
        <time>2026-08-29T15:09:49Z</time>
      </trkpt>
      <trkpt lat="47.53622" lon="-2.72683">
        <ele>21</ele>
        <time>2026-08-29T15:09:50Z</time>
      </trkpt>
      <trkpt lat="47.53621" lon="-2.72678">
        <ele>21</ele>
        <time>2026-08-29T15:09:51Z</time>
      </trkpt>
      <trkpt lat="47.53621" lon="-2.72672">
        <ele>21</ele>
        <time>2026-08-29T15:09:52Z</time>
      </trkpt>
      <trkpt lat="47.53621" lon="-2.72666">
        <ele>21</ele>
        <time>2026-08-29T15:09:53Z</time>
      </trkpt>
      <trkpt lat="47.53622" lon="-2.72661">
        <ele>21.1</ele>
        <time>2026-08-29T15:09:54Z</time>
      </trkpt>
      <trkpt lat="47.53622" lon="-2.72655">
        <ele>21.3</ele>
        <time>2026-08-29T15:09:55Z</time>
      </trkpt>
      <trkpt lat="47.53623" lon="-2.7265">
        <ele>21.3</ele>
        <time>2026-08-29T15:09:56Z</time>
      </trkpt>
      <trkpt lat="47.53623" lon="-2.72645">
        <ele>21.4</ele>
        <time>2026-08-29T15:09:57Z</time>
      </trkpt>
      <trkpt lat="47.53623" lon="-2.72639">
        <ele>21.6</ele>
        <time>2026-08-29T15:09:58Z</time>
      </trkpt>
      <trkpt lat="47.53624" lon="-2.72634">
        <ele>21.5</ele>
        <time>2026-08-29T15:09:59Z</time>
      </trkpt>
      <trkpt lat="47.53624" lon="-2.72629">
        <ele>21.5</ele>
        <time>2026-08-29T15:10:00Z</time>
      </trkpt>
      <trkpt lat="47.53624" lon="-2.72624">
        <ele>21.5</ele>
        <time>2026-08-29T15:10:01Z</time>
      </trkpt>
      <trkpt lat="47.53624" lon="-2.72619">
        <ele>21.5</ele>
        <time>2026-08-29T15:10:02Z</time>
      </trkpt>
      <trkpt lat="47.53624" lon="-2.72615">
        <ele>21.5</ele>
        <time>2026-08-29T15:10:03Z</time>
      </trkpt>
      <trkpt lat="47.53625" lon="-2.72611">
        <ele>21.5</ele>
        <time>2026-08-29T15:10:04Z</time>
      </trkpt>
      <trkpt lat="47.53627" lon="-2.72609">
        <ele>21.4</ele>
        <time>2026-08-29T15:10:05Z</time>
      </trkpt>
      <trkpt lat="47.53629" lon="-2.72607">
        <ele>21.4</ele>
        <time>2026-08-29T15:10:06Z</time>
      </trkpt>
      <trkpt lat="47.53632" lon="-2.72605">
        <ele>21.2</ele>
        <time>2026-08-29T15:10:07Z</time>
      </trkpt>
      <trkpt lat="47.53636" lon="-2.72605">
        <ele>21.1</ele>
        <time>2026-08-29T15:10:08Z</time>
      </trkpt>
      <trkpt lat="47.5364" lon="-2.72604">
        <ele>21</ele>
        <time>2026-08-29T15:10:09Z</time>
      </trkpt>
      <trkpt lat="47.53644" lon="-2.72604">
        <ele>21</ele>
        <time>2026-08-29T15:10:10Z</time>
      </trkpt>
      <trkpt lat="47.53649" lon="-2.72604">
        <ele>21</ele>
        <time>2026-08-29T15:10:11Z</time>
      </trkpt>
      <trkpt lat="47.53653" lon="-2.72604">
        <ele>21</ele>
        <time>2026-08-29T15:10:12Z</time>
      </trkpt>
      <trkpt lat="47.53658" lon="-2.72603">
        <ele>21</ele>
        <time>2026-08-29T15:10:13Z</time>
      </trkpt>
      <trkpt lat="47.53663" lon="-2.72601">
        <ele>21</ele>
        <time>2026-08-29T15:10:14Z</time>
      </trkpt>
      <trkpt lat="47.53667" lon="-2.72598">
        <ele>21</ele>
        <time>2026-08-29T15:10:15Z</time>
      </trkpt>
      <trkpt lat="47.53671" lon="-2.72593">
        <ele>20.9</ele>
        <time>2026-08-29T15:10:16Z</time>
      </trkpt>
      <trkpt lat="47.53675" lon="-2.72588">
        <ele>20.8</ele>
        <time>2026-08-29T15:10:17Z</time>
      </trkpt>
      <trkpt lat="47.53679" lon="-2.72584">
        <ele>20.6</ele>
        <time>2026-08-29T15:10:18Z</time>
      </trkpt>
      <trkpt lat="47.53684" lon="-2.72579">
        <ele>20.3</ele>
        <time>2026-08-29T15:10:19Z</time>
      </trkpt>
      <trkpt lat="47.53689" lon="-2.72574">
        <ele>20.1</ele>
        <time>2026-08-29T15:10:20Z</time>
      </trkpt>
      <trkpt lat="47.53694" lon="-2.7257">
        <ele>20</ele>
        <time>2026-08-29T15:10:21Z</time>
      </trkpt>
      <trkpt lat="47.53699" lon="-2.72565">
        <ele>20</ele>
        <time>2026-08-29T15:10:22Z</time>
      </trkpt>
      <trkpt lat="47.53703" lon="-2.72561">
        <ele>20</ele>
        <time>2026-08-29T15:10:23Z</time>
      </trkpt>
      <trkpt lat="47.53708" lon="-2.72556">
        <ele>20</ele>
        <time>2026-08-29T15:10:24Z</time>
      </trkpt>
      <trkpt lat="47.53713" lon="-2.72553">
        <ele>19.9</ele>
        <time>2026-08-29T15:10:25Z</time>
      </trkpt>
      <trkpt lat="47.53718" lon="-2.7255">
        <ele>19.8</ele>
        <time>2026-08-29T15:10:26Z</time>
      </trkpt>
      <trkpt lat="47.53723" lon="-2.72549">
        <ele>19.8</ele>
        <time>2026-08-29T15:10:27Z</time>
      </trkpt>
      <trkpt lat="47.53728" lon="-2.72549">
        <ele>19.8</ele>
        <time>2026-08-29T15:10:28Z</time>
      </trkpt>
      <trkpt lat="47.53734" lon="-2.72549">
        <ele>19.8</ele>
        <time>2026-08-29T15:10:29Z</time>
      </trkpt>
      <trkpt lat="47.53739" lon="-2.72549">
        <ele>19.8</ele>
        <time>2026-08-29T15:10:30Z</time>
      </trkpt>
      <trkpt lat="47.53744" lon="-2.72549">
        <ele>19.8</ele>
        <time>2026-08-29T15:10:31Z</time>
      </trkpt>
      <trkpt lat="47.53749" lon="-2.72549">
        <ele>19.8</ele>
        <time>2026-08-29T15:10:32Z</time>
      </trkpt>
      <trkpt lat="47.53754" lon="-2.72549">
        <ele>19.7</ele>
        <time>2026-08-29T15:10:33Z</time>
      </trkpt>
      <trkpt lat="47.53759" lon="-2.72549">
        <ele>19.5</ele>
        <time>2026-08-29T15:10:34Z</time>
      </trkpt>
      <trkpt lat="47.53763" lon="-2.72549">
        <ele>19.4</ele>
        <time>2026-08-29T15:10:35Z</time>
      </trkpt>
      <trkpt lat="47.53768" lon="-2.7255">
        <ele>19.3</ele>
        <time>2026-08-29T15:10:36Z</time>
      </trkpt>
      <trkpt lat="47.53772" lon="-2.7255">
        <ele>19.2</ele>
        <time>2026-08-29T15:10:37Z</time>
      </trkpt>
      <trkpt lat="47.53777" lon="-2.72551">
        <ele>19</ele>
        <time>2026-08-29T15:10:38Z</time>
      </trkpt>
      <trkpt lat="47.53781" lon="-2.72551">
        <ele>19</ele>
        <time>2026-08-29T15:10:39Z</time>
      </trkpt>
      <trkpt lat="47.53786" lon="-2.72551">
        <ele>19</ele>
        <time>2026-08-29T15:10:40Z</time>
      </trkpt>
      <trkpt lat="47.53791" lon="-2.72551">
        <ele>19</ele>
        <time>2026-08-29T15:10:41Z</time>
      </trkpt>
      <trkpt lat="47.53796" lon="-2.72551">
        <ele>19</ele>
        <time>2026-08-29T15:10:42Z</time>
      </trkpt>
      <trkpt lat="47.53801" lon="-2.72551">
        <ele>19</ele>
        <time>2026-08-29T15:10:43Z</time>
      </trkpt>
      <trkpt lat="47.53805" lon="-2.72551">
        <ele>19</ele>
        <time>2026-08-29T15:10:44Z</time>
      </trkpt>
      <trkpt lat="47.5381" lon="-2.72551">
        <ele>19</ele>
        <time>2026-08-29T15:10:45Z</time>
      </trkpt>
      <trkpt lat="47.53814" lon="-2.72551">
        <ele>19</ele>
        <time>2026-08-29T15:10:46Z</time>
      </trkpt>
      <trkpt lat="47.53818" lon="-2.72551">
        <ele>19</ele>
        <time>2026-08-29T15:10:47Z</time>
      </trkpt>
      <trkpt lat="47.53823" lon="-2.72551">
        <ele>19</ele>
        <time>2026-08-29T15:10:48Z</time>
      </trkpt>
      <trkpt lat="47.53826" lon="-2.72551">
        <ele>19</ele>
        <time>2026-08-29T15:10:49Z</time>
      </trkpt>
      <trkpt lat="47.53829" lon="-2.7255">
        <ele>19</ele>
        <time>2026-08-29T15:10:50Z</time>
      </trkpt>
      <trkpt lat="47.53832" lon="-2.72551">
        <ele>19</ele>
        <time>2026-08-29T15:10:51Z</time>
      </trkpt>
      <trkpt lat="47.53836" lon="-2.72551">
        <ele>19</ele>
        <time>2026-08-29T15:10:52Z</time>
      </trkpt>
      <trkpt lat="47.53841" lon="-2.7255">
        <ele>18.9</ele>
        <time>2026-08-29T15:10:53Z</time>
      </trkpt>
      <trkpt lat="47.53846" lon="-2.72549">
        <ele>18.9</ele>
        <time>2026-08-29T15:10:54Z</time>
      </trkpt>
      <trkpt lat="47.53851" lon="-2.72548">
        <ele>18.8</ele>
        <time>2026-08-29T15:10:55Z</time>
      </trkpt>
      <trkpt lat="47.53855" lon="-2.72548">
        <ele>18.8</ele>
        <time>2026-08-29T15:10:56Z</time>
      </trkpt>
      <trkpt lat="47.53859" lon="-2.72547">
        <ele>18.7</ele>
        <time>2026-08-29T15:10:57Z</time>
      </trkpt>
      <trkpt lat="47.53863" lon="-2.72546">
        <ele>18.6</ele>
        <time>2026-08-29T15:10:58Z</time>
      </trkpt>
      <trkpt lat="47.53868" lon="-2.72545">
        <ele>18.4</ele>
        <time>2026-08-29T15:10:59Z</time>
      </trkpt>
      <trkpt lat="47.53873" lon="-2.72545">
        <ele>18.2</ele>
        <time>2026-08-29T15:11:00Z</time>
      </trkpt>
      <trkpt lat="47.53877" lon="-2.72544">
        <ele>18</ele>
        <time>2026-08-29T15:11:01Z</time>
      </trkpt>
      <trkpt lat="47.53882" lon="-2.72542">
        <ele>17.8</ele>
        <time>2026-08-29T15:11:02Z</time>
      </trkpt>
      <trkpt lat="47.53887" lon="-2.7254">
        <ele>17.5</ele>
        <time>2026-08-29T15:11:03Z</time>
      </trkpt>
      <trkpt lat="47.53892" lon="-2.72537">
        <ele>17.2</ele>
        <time>2026-08-29T15:11:04Z</time>
      </trkpt>
      <trkpt lat="47.53897" lon="-2.72534">
        <ele>16.9</ele>
        <time>2026-08-29T15:11:05Z</time>
      </trkpt>
      <trkpt lat="47.53902" lon="-2.72531">
        <ele>16.6</ele>
        <time>2026-08-29T15:11:06Z</time>
      </trkpt>
      <trkpt lat="47.53907" lon="-2.72528">
        <ele>16.4</ele>
        <time>2026-08-29T15:11:07Z</time>
      </trkpt>
      <trkpt lat="47.53912" lon="-2.72524">
        <ele>16.2</ele>
        <time>2026-08-29T15:11:08Z</time>
      </trkpt>
      <trkpt lat="47.53919" lon="-2.7252">
        <ele>15.9</ele>
        <time>2026-08-29T15:11:09Z</time>
      </trkpt>
      <trkpt lat="47.53925" lon="-2.72516">
        <ele>15.7</ele>
        <time>2026-08-29T15:11:10Z</time>
      </trkpt>
      <trkpt lat="47.53931" lon="-2.72512">
        <ele>15.5</ele>
        <time>2026-08-29T15:11:11Z</time>
      </trkpt>
      <trkpt lat="47.53937" lon="-2.72508">
        <ele>15.3</ele>
        <time>2026-08-29T15:11:12Z</time>
      </trkpt>
      <trkpt lat="47.53943" lon="-2.72504">
        <ele>15.1</ele>
        <time>2026-08-29T15:11:13Z</time>
      </trkpt>
      <trkpt lat="47.53948" lon="-2.725">
        <ele>14.9</ele>
        <time>2026-08-29T15:11:14Z</time>
      </trkpt>
      <trkpt lat="47.53952" lon="-2.72495">
        <ele>14.5</ele>
        <time>2026-08-29T15:11:15Z</time>
      </trkpt>
      <trkpt lat="47.53958" lon="-2.72491">
        <ele>14.2</ele>
        <time>2026-08-29T15:11:16Z</time>
      </trkpt>
      <trkpt lat="47.53963" lon="-2.72487">
        <ele>13.9</ele>
        <time>2026-08-29T15:11:17Z</time>
      </trkpt>
      <trkpt lat="47.53968" lon="-2.72483">
        <ele>13.5</ele>
        <time>2026-08-29T15:11:18Z</time>
      </trkpt>
      <trkpt lat="47.53974" lon="-2.72478">
        <ele>13.2</ele>
        <time>2026-08-29T15:11:19Z</time>
      </trkpt>
      <trkpt lat="47.53979" lon="-2.72474">
        <ele>13.1</ele>
        <time>2026-08-29T15:11:20Z</time>
      </trkpt>
      <trkpt lat="47.53984" lon="-2.72471">
        <ele>13</ele>
        <time>2026-08-29T15:11:21Z</time>
      </trkpt>
      <trkpt lat="47.53988" lon="-2.72466">
        <ele>12.8</ele>
        <time>2026-08-29T15:11:22Z</time>
      </trkpt>
      <trkpt lat="47.53991" lon="-2.72462">
        <ele>12.6</ele>
        <time>2026-08-29T15:11:23Z</time>
      </trkpt>
      <trkpt lat="47.53996" lon="-2.72456">
        <ele>12.4</ele>
        <time>2026-08-29T15:11:24Z</time>
      </trkpt>
      <trkpt lat="47.54001" lon="-2.72451">
        <ele>12.2</ele>
        <time>2026-08-29T15:11:25Z</time>
      </trkpt>
      <trkpt lat="47.54004" lon="-2.72447">
        <ele>12.1</ele>
        <time>2026-08-29T15:11:26Z</time>
      </trkpt>
      <trkpt lat="47.54006" lon="-2.72443">
        <ele>12</ele>
        <time>2026-08-29T15:11:27Z</time>
      </trkpt>
      <trkpt lat="47.5401" lon="-2.7244">
        <ele>11.9</ele>
        <time>2026-08-29T15:11:28Z</time>
      </trkpt>
      <trkpt lat="47.54013" lon="-2.72435">
        <ele>11.8</ele>
        <time>2026-08-29T15:11:29Z</time>
      </trkpt>
      <trkpt lat="47.54016" lon="-2.72431">
        <ele>11.7</ele>
        <time>2026-08-29T15:11:30Z</time>
      </trkpt>
      <trkpt lat="47.5402" lon="-2.72427">
        <ele>11.5</ele>
        <time>2026-08-29T15:11:31Z</time>
      </trkpt>
      <trkpt lat="47.54024" lon="-2.72423">
        <ele>11.3</ele>
        <time>2026-08-29T15:11:32Z</time>
      </trkpt>
      <trkpt lat="47.54027" lon="-2.72419">
        <ele>11.1</ele>
        <time>2026-08-29T15:11:33Z</time>
      </trkpt>
      <trkpt lat="47.54031" lon="-2.72415">
        <ele>11</ele>
        <time>2026-08-29T15:11:34Z</time>
      </trkpt>
      <trkpt lat="47.54036" lon="-2.7241">
        <ele>11</ele>
        <time>2026-08-29T15:11:35Z</time>
      </trkpt>
      <trkpt lat="47.54039" lon="-2.72406">
        <ele>11</ele>
        <time>2026-08-29T15:11:36Z</time>
      </trkpt>
      <trkpt lat="47.54044" lon="-2.72401">
        <ele>11</ele>
        <time>2026-08-29T15:11:37Z</time>
      </trkpt>
      <trkpt lat="47.54047" lon="-2.72396">
        <ele>11</ele>
        <time>2026-08-29T15:11:38Z</time>
      </trkpt>
      <trkpt lat="47.54051" lon="-2.72391">
        <ele>11</ele>
        <time>2026-08-29T15:11:39Z</time>
      </trkpt>
      <trkpt lat="47.54054" lon="-2.72386">
        <ele>10.9</ele>
        <time>2026-08-29T15:11:40Z</time>
      </trkpt>
      <trkpt lat="47.54057" lon="-2.72382">
        <ele>10.7</ele>
        <time>2026-08-29T15:11:41Z</time>
      </trkpt>
      <trkpt lat="47.5406" lon="-2.7238">
        <ele>10.6</ele>
        <time>2026-08-29T15:11:42Z</time>
      </trkpt>
      <trkpt lat="47.54064" lon="-2.72379">
        <ele>10.4</ele>
        <time>2026-08-29T15:11:43Z</time>
      </trkpt>
      <trkpt lat="47.54069" lon="-2.72377">
        <ele>10.3</ele>
        <time>2026-08-29T15:11:44Z</time>
      </trkpt>
      <trkpt lat="47.54074" lon="-2.72375">
        <ele>10.2</ele>
        <time>2026-08-29T15:11:45Z</time>
      </trkpt>
      <trkpt lat="47.5408" lon="-2.72372">
        <ele>10</ele>
        <time>2026-08-29T15:11:46Z</time>
      </trkpt>
      <trkpt lat="47.54086" lon="-2.72371">
        <ele>10.1</ele>
        <time>2026-08-29T15:11:47Z</time>
      </trkpt>
      <trkpt lat="47.54091" lon="-2.7237">
        <ele>10.3</ele>
        <time>2026-08-29T15:11:48Z</time>
      </trkpt>
      <trkpt lat="47.54096" lon="-2.72368">
        <ele>10.5</ele>
        <time>2026-08-29T15:11:49Z</time>
      </trkpt>
      <trkpt lat="47.541" lon="-2.72367">
        <ele>10.6</ele>
        <time>2026-08-29T15:11:50Z</time>
      </trkpt>
      <trkpt lat="47.54105" lon="-2.72365">
        <ele>10.8</ele>
        <time>2026-08-29T15:11:51Z</time>
      </trkpt>
      <trkpt lat="47.5411" lon="-2.72363">
        <ele>11</ele>
        <time>2026-08-29T15:11:52Z</time>
      </trkpt>
      <trkpt lat="47.54115" lon="-2.72362">
        <ele>10.9</ele>
        <time>2026-08-29T15:11:53Z</time>
      </trkpt>
      <trkpt lat="47.54119" lon="-2.72361">
        <ele>10.7</ele>
        <time>2026-08-29T15:11:54Z</time>
      </trkpt>
      <trkpt lat="47.54124" lon="-2.72359">
        <ele>10.4</ele>
        <time>2026-08-29T15:11:55Z</time>
      </trkpt>
      <trkpt lat="47.54129" lon="-2.72359">
        <ele>10.3</ele>
        <time>2026-08-29T15:11:56Z</time>
      </trkpt>
      <trkpt lat="47.54134" lon="-2.72357">
        <ele>10</ele>
        <time>2026-08-29T15:11:57Z</time>
      </trkpt>
      <trkpt lat="47.5414" lon="-2.72355">
        <ele>9.8</ele>
        <time>2026-08-29T15:11:58Z</time>
      </trkpt>
      <trkpt lat="47.54144" lon="-2.72355">
        <ele>10</ele>
        <time>2026-08-29T15:11:59Z</time>
      </trkpt>
      <trkpt lat="47.54149" lon="-2.72354">
        <ele>10.2</ele>
        <time>2026-08-29T15:12:00Z</time>
      </trkpt>
      <trkpt lat="47.54154" lon="-2.72352">
        <ele>10.4</ele>
        <time>2026-08-29T15:12:01Z</time>
      </trkpt>
      <trkpt lat="47.54158" lon="-2.72351">
        <ele>10.6</ele>
        <time>2026-08-29T15:12:02Z</time>
      </trkpt>
      <trkpt lat="47.54163" lon="-2.72349">
        <ele>10.8</ele>
        <time>2026-08-29T15:12:03Z</time>
      </trkpt>
      <trkpt lat="47.54167" lon="-2.72348">
        <ele>11</ele>
        <time>2026-08-29T15:12:04Z</time>
      </trkpt>
      <trkpt lat="47.54171" lon="-2.72346">
        <ele>11.1</ele>
        <time>2026-08-29T15:12:05Z</time>
      </trkpt>
      <trkpt lat="47.54176" lon="-2.72346">
        <ele>11.2</ele>
        <time>2026-08-29T15:12:06Z</time>
      </trkpt>
      <trkpt lat="47.5418" lon="-2.72345">
        <ele>11.2</ele>
        <time>2026-08-29T15:12:07Z</time>
      </trkpt>
      <trkpt lat="47.54184" lon="-2.72344">
        <ele>11.2</ele>
        <time>2026-08-29T15:12:08Z</time>
      </trkpt>
      <trkpt lat="47.54189" lon="-2.72343">
        <ele>11.3</ele>
        <time>2026-08-29T15:12:09Z</time>
      </trkpt>
      <trkpt lat="47.54194" lon="-2.72341">
        <ele>11.3</ele>
        <time>2026-08-29T15:12:10Z</time>
      </trkpt>
      <trkpt lat="47.54198" lon="-2.72339">
        <ele>11.2</ele>
        <time>2026-08-29T15:12:11Z</time>
      </trkpt>
      <trkpt lat="47.54203" lon="-2.72338">
        <ele>11.2</ele>
        <time>2026-08-29T15:12:12Z</time>
      </trkpt>
      <trkpt lat="47.54208" lon="-2.72337">
        <ele>11.2</ele>
        <time>2026-08-29T15:12:13Z</time>
      </trkpt>
      <trkpt lat="47.54212" lon="-2.72335">
        <ele>11.1</ele>
        <time>2026-08-29T15:12:14Z</time>
      </trkpt>
      <trkpt lat="47.54217" lon="-2.72334">
        <ele>11</ele>
        <time>2026-08-29T15:12:15Z</time>
      </trkpt>
      <trkpt lat="47.54222" lon="-2.72333">
        <ele>11</ele>
        <time>2026-08-29T15:12:16Z</time>
      </trkpt>
      <trkpt lat="47.54227" lon="-2.72332">
        <ele>11</ele>
        <time>2026-08-29T15:12:17Z</time>
      </trkpt>
      <trkpt lat="47.54231" lon="-2.72331">
        <ele>11</ele>
        <time>2026-08-29T15:12:18Z</time>
      </trkpt>
      <trkpt lat="47.54236" lon="-2.7233">
        <ele>11.1</ele>
        <time>2026-08-29T15:12:19Z</time>
      </trkpt>
      <trkpt lat="47.54241" lon="-2.72329">
        <ele>11.1</ele>
        <time>2026-08-29T15:12:20Z</time>
      </trkpt>
      <trkpt lat="47.54245" lon="-2.72328">
        <ele>11.2</ele>
        <time>2026-08-29T15:12:21Z</time>
      </trkpt>
      <trkpt lat="47.5425" lon="-2.72327">
        <ele>11.2</ele>
        <time>2026-08-29T15:12:22Z</time>
      </trkpt>
      <trkpt lat="47.54254" lon="-2.72326">
        <ele>11.3</ele>
        <time>2026-08-29T15:12:23Z</time>
      </trkpt>
      <trkpt lat="47.54259" lon="-2.72325">
        <ele>11.3</ele>
        <time>2026-08-29T15:12:24Z</time>
      </trkpt>
      <trkpt lat="47.54263" lon="-2.72325">
        <ele>11.3</ele>
        <time>2026-08-29T15:12:25Z</time>
      </trkpt>
      <trkpt lat="47.54268" lon="-2.72324">
        <ele>11.3</ele>
        <time>2026-08-29T15:12:26Z</time>
      </trkpt>
      <trkpt lat="47.54272" lon="-2.72323">
        <ele>11.4</ele>
        <time>2026-08-29T15:12:27Z</time>
      </trkpt>
      <trkpt lat="47.54276" lon="-2.72322">
        <ele>11.4</ele>
        <time>2026-08-29T15:12:28Z</time>
      </trkpt>
      <trkpt lat="47.5428" lon="-2.72321">
        <ele>11.5</ele>
        <time>2026-08-29T15:12:29Z</time>
      </trkpt>
      <trkpt lat="47.54285" lon="-2.7232">
        <ele>11.6</ele>
        <time>2026-08-29T15:12:30Z</time>
      </trkpt>
      <trkpt lat="47.54289" lon="-2.72319">
        <ele>11.7</ele>
        <time>2026-08-29T15:12:31Z</time>
      </trkpt>
      <trkpt lat="47.54293" lon="-2.72318">
        <ele>11.8</ele>
        <time>2026-08-29T15:12:32Z</time>
      </trkpt>
      <trkpt lat="47.54297" lon="-2.72317">
        <ele>11.9</ele>
        <time>2026-08-29T15:12:33Z</time>
      </trkpt>
      <trkpt lat="47.54302" lon="-2.72316">
        <ele>12</ele>
        <time>2026-08-29T15:12:34Z</time>
      </trkpt>
      <trkpt lat="47.54306" lon="-2.72315">
        <ele>12</ele>
        <time>2026-08-29T15:12:35Z</time>
      </trkpt>
      <trkpt lat="47.5431" lon="-2.72314">
        <ele>11.9</ele>
        <time>2026-08-29T15:12:36Z</time>
      </trkpt>
      <trkpt lat="47.54315" lon="-2.72313">
        <ele>11.8</ele>
        <time>2026-08-29T15:12:37Z</time>
      </trkpt>
      <trkpt lat="47.54319" lon="-2.72312">
        <ele>11.6</ele>
        <time>2026-08-29T15:12:38Z</time>
      </trkpt>
      <trkpt lat="47.54323" lon="-2.72311">
        <ele>11.5</ele>
        <time>2026-08-29T15:12:39Z</time>
      </trkpt>
      <trkpt lat="47.54328" lon="-2.7231">
        <ele>11.3</ele>
        <time>2026-08-29T15:12:40Z</time>
      </trkpt>
      <trkpt lat="47.54332" lon="-2.72309">
        <ele>11.2</ele>
        <time>2026-08-29T15:12:41Z</time>
      </trkpt>
      <trkpt lat="47.54336" lon="-2.72308">
        <ele>11.3</ele>
        <time>2026-08-29T15:12:42Z</time>
      </trkpt>
      <trkpt lat="47.5434" lon="-2.72307">
        <ele>11.5</ele>
        <time>2026-08-29T15:12:43Z</time>
      </trkpt>
      <trkpt lat="47.54344" lon="-2.72306">
        <ele>11.8</ele>
        <time>2026-08-29T15:12:44Z</time>
      </trkpt>
      <trkpt lat="47.54348" lon="-2.72305">
        <ele>12</ele>
        <time>2026-08-29T15:12:45Z</time>
      </trkpt>
      <trkpt lat="47.54352" lon="-2.72304">
        <ele>12.3</ele>
        <time>2026-08-29T15:12:46Z</time>
      </trkpt>
      <trkpt lat="47.54357" lon="-2.72303">
        <ele>12.6</ele>
        <time>2026-08-29T15:12:47Z</time>
      </trkpt>
      <trkpt lat="47.54361" lon="-2.72302">
        <ele>12.9</ele>
        <time>2026-08-29T15:12:48Z</time>
      </trkpt>
      <trkpt lat="47.54364" lon="-2.72301">
        <ele>12.8</ele>
        <time>2026-08-29T15:12:49Z</time>
      </trkpt>
      <trkpt lat="47.54368" lon="-2.723">
        <ele>12.8</ele>
        <time>2026-08-29T15:12:50Z</time>
      </trkpt>
      <trkpt lat="47.54372" lon="-2.72299">
        <ele>12.8</ele>
        <time>2026-08-29T15:12:51Z</time>
      </trkpt>
      <trkpt lat="47.54376" lon="-2.72298">
        <ele>12.7</ele>
        <time>2026-08-29T15:12:52Z</time>
      </trkpt>
      <trkpt lat="47.5438" lon="-2.72297">
        <ele>12.7</ele>
        <time>2026-08-29T15:12:53Z</time>
      </trkpt>
      <trkpt lat="47.54384" lon="-2.72296">
        <ele>12.7</ele>
        <time>2026-08-29T15:12:54Z</time>
      </trkpt>
      <trkpt lat="47.54389" lon="-2.72295">
        <ele>12.6</ele>
        <time>2026-08-29T15:12:55Z</time>
      </trkpt>
      <trkpt lat="47.54392" lon="-2.72294">
        <ele>12.6</ele>
        <time>2026-08-29T15:12:56Z</time>
      </trkpt>
      <trkpt lat="47.54396" lon="-2.72293">
        <ele>12.5</ele>
        <time>2026-08-29T15:12:57Z</time>
      </trkpt>
      <trkpt lat="47.544" lon="-2.72292">
        <ele>12.5</ele>
        <time>2026-08-29T15:12:58Z</time>
      </trkpt>
      <trkpt lat="47.54404" lon="-2.72291">
        <ele>12.5</ele>
        <time>2026-08-29T15:12:59Z</time>
      </trkpt>
      <trkpt lat="47.54408" lon="-2.72291">
        <ele>12.5</ele>
        <time>2026-08-29T15:13:00Z</time>
      </trkpt>
      <trkpt lat="47.54412" lon="-2.7229">
        <ele>12.4</ele>
        <time>2026-08-29T15:13:01Z</time>
      </trkpt>
      <trkpt lat="47.54415" lon="-2.7229">
        <ele>12.4</ele>
        <time>2026-08-29T15:13:02Z</time>
      </trkpt>
      <trkpt lat="47.5442" lon="-2.72289">
        <ele>12.5</ele>
        <time>2026-08-29T15:13:03Z</time>
      </trkpt>
      <trkpt lat="47.54424" lon="-2.72288">
        <ele>12.7</ele>
        <time>2026-08-29T15:13:04Z</time>
      </trkpt>
      <trkpt lat="47.54427" lon="-2.72286">
        <ele>12.8</ele>
        <time>2026-08-29T15:13:05Z</time>
      </trkpt>
      <trkpt lat="47.54431" lon="-2.72283">
        <ele>13</ele>
        <time>2026-08-29T15:13:06Z</time>
      </trkpt>
      <trkpt lat="47.54434" lon="-2.72279">
        <ele>13.2</ele>
        <time>2026-08-29T15:13:07Z</time>
      </trkpt>
      <trkpt lat="47.54436" lon="-2.72274">
        <ele>13.3</ele>
        <time>2026-08-29T15:13:08Z</time>
      </trkpt>
      <trkpt lat="47.54439" lon="-2.72269">
        <ele>13.4</ele>
        <time>2026-08-29T15:13:09Z</time>
      </trkpt>
      <trkpt lat="47.54441" lon="-2.72265">
        <ele>13.3</ele>
        <time>2026-08-29T15:13:10Z</time>
      </trkpt>
      <trkpt lat="47.54444" lon="-2.7226">
        <ele>13.3</ele>
        <time>2026-08-29T15:13:11Z</time>
      </trkpt>
      <trkpt lat="47.54447" lon="-2.72255">
        <ele>13.2</ele>
        <time>2026-08-29T15:13:12Z</time>
      </trkpt>
      <trkpt lat="47.54449" lon="-2.7225">
        <ele>13</ele>
        <time>2026-08-29T15:13:13Z</time>
      </trkpt>
      <trkpt lat="47.54452" lon="-2.72245">
        <ele>12.9</ele>
        <time>2026-08-29T15:13:14Z</time>
      </trkpt>
      <trkpt lat="47.54455" lon="-2.7224">
        <ele>12.9</ele>
        <time>2026-08-29T15:13:15Z</time>
      </trkpt>
      <trkpt lat="47.54458" lon="-2.72235">
        <ele>13</ele>
        <time>2026-08-29T15:13:16Z</time>
      </trkpt>
      <trkpt lat="47.54461" lon="-2.7223">
        <ele>13.1</ele>
        <time>2026-08-29T15:13:17Z</time>
      </trkpt>
      <trkpt lat="47.54463" lon="-2.72225">
        <ele>13.3</ele>
        <time>2026-08-29T15:13:18Z</time>
      </trkpt>
      <trkpt lat="47.54466" lon="-2.7222">
        <ele>13.4</ele>
        <time>2026-08-29T15:13:19Z</time>
      </trkpt>
      <trkpt lat="47.54469" lon="-2.72215">
        <ele>13.3</ele>
        <time>2026-08-29T15:13:20Z</time>
      </trkpt>
      <trkpt lat="47.54472" lon="-2.7221">
        <ele>13.1</ele>
        <time>2026-08-29T15:13:21Z</time>
      </trkpt>
      <trkpt lat="47.54475" lon="-2.72205">
        <ele>12.8</ele>
        <time>2026-08-29T15:13:22Z</time>
      </trkpt>
      <trkpt lat="47.54479" lon="-2.722">
        <ele>12.7</ele>
        <time>2026-08-29T15:13:23Z</time>
      </trkpt>
      <trkpt lat="47.54482" lon="-2.72195">
        <ele>12.7</ele>
        <time>2026-08-29T15:13:24Z</time>
      </trkpt>
      <trkpt lat="47.54485" lon="-2.7219">
        <ele>12.9</ele>
        <time>2026-08-29T15:13:25Z</time>
      </trkpt>
      <trkpt lat="47.54488" lon="-2.72185">
        <ele>13.1</ele>
        <time>2026-08-29T15:13:26Z</time>
      </trkpt>
      <trkpt lat="47.54491" lon="-2.7218">
        <ele>13.4</ele>
        <time>2026-08-29T15:13:27Z</time>
      </trkpt>
      <trkpt lat="47.54495" lon="-2.72176">
        <ele>13.6</ele>
        <time>2026-08-29T15:13:28Z</time>
      </trkpt>
      <trkpt lat="47.54498" lon="-2.72171">
        <ele>13.9</ele>
        <time>2026-08-29T15:13:29Z</time>
      </trkpt>
      <trkpt lat="47.54501" lon="-2.72166">
        <ele>13.9</ele>
        <time>2026-08-29T15:13:30Z</time>
      </trkpt>
      <trkpt lat="47.54504" lon="-2.72161">
        <ele>13.7</ele>
        <time>2026-08-29T15:13:31Z</time>
      </trkpt>
      <trkpt lat="47.54507" lon="-2.72156">
        <ele>13.6</ele>
        <time>2026-08-29T15:13:32Z</time>
      </trkpt>
      <trkpt lat="47.5451" lon="-2.7215">
        <ele>13.5</ele>
        <time>2026-08-29T15:13:33Z</time>
      </trkpt>
      <trkpt lat="47.54513" lon="-2.72144">
        <ele>13.5</ele>
        <time>2026-08-29T15:13:34Z</time>
      </trkpt>
      <trkpt lat="47.54516" lon="-2.72139">
        <ele>13.6</ele>
        <time>2026-08-29T15:13:35Z</time>
      </trkpt>
      <trkpt lat="47.54519" lon="-2.72133">
        <ele>13.7</ele>
        <time>2026-08-29T15:13:36Z</time>
      </trkpt>
      <trkpt lat="47.54522" lon="-2.72128">
        <ele>13.8</ele>
        <time>2026-08-29T15:13:37Z</time>
      </trkpt>
      <trkpt lat="47.54525" lon="-2.72123">
        <ele>13.9</ele>
        <time>2026-08-29T15:13:38Z</time>
      </trkpt>
      <trkpt lat="47.54529" lon="-2.72118">
        <ele>14</ele>
        <time>2026-08-29T15:13:39Z</time>
      </trkpt>
      <trkpt lat="47.54532" lon="-2.72113">
        <ele>14</ele>
        <time>2026-08-29T15:13:40Z</time>
      </trkpt>
      <trkpt lat="47.54536" lon="-2.72108">
        <ele>13.9</ele>
        <time>2026-08-29T15:13:41Z</time>
      </trkpt>
      <trkpt lat="47.54539" lon="-2.72103">
        <ele>13.8</ele>
        <time>2026-08-29T15:13:42Z</time>
      </trkpt>
      <trkpt lat="47.54543" lon="-2.72099">
        <ele>13.8</ele>
        <time>2026-08-29T15:13:43Z</time>
      </trkpt>
      <trkpt lat="47.54546" lon="-2.72094">
        <ele>13.8</ele>
        <time>2026-08-29T15:13:44Z</time>
      </trkpt>
      <trkpt lat="47.54549" lon="-2.72089">
        <ele>13.8</ele>
        <time>2026-08-29T15:13:45Z</time>
      </trkpt>
      <trkpt lat="47.54553" lon="-2.72085">
        <ele>13.9</ele>
        <time>2026-08-29T15:13:46Z</time>
      </trkpt>
      <trkpt lat="47.54557" lon="-2.7208">
        <ele>14</ele>
        <time>2026-08-29T15:13:47Z</time>
      </trkpt>
      <trkpt lat="47.5456" lon="-2.72076">
        <ele>13.9</ele>
        <time>2026-08-29T15:13:48Z</time>
      </trkpt>
      <trkpt lat="47.54564" lon="-2.72071">
        <ele>13.8</ele>
        <time>2026-08-29T15:13:49Z</time>
      </trkpt>
      <trkpt lat="47.54568" lon="-2.72066">
        <ele>13.8</ele>
        <time>2026-08-29T15:13:50Z</time>
      </trkpt>
      <trkpt lat="47.54572" lon="-2.72062">
        <ele>13.9</ele>
        <time>2026-08-29T15:13:51Z</time>
      </trkpt>
      <trkpt lat="47.54575" lon="-2.72057">
        <ele>14</ele>
        <time>2026-08-29T15:13:52Z</time>
      </trkpt>
      <trkpt lat="47.54579" lon="-2.72052">
        <ele>14</ele>
        <time>2026-08-29T15:13:53Z</time>
      </trkpt>
      <trkpt lat="47.54583" lon="-2.72048">
        <ele>14</ele>
        <time>2026-08-29T15:13:54Z</time>
      </trkpt>
      <trkpt lat="47.54587" lon="-2.72043">
        <ele>13.9</ele>
        <time>2026-08-29T15:13:55Z</time>
      </trkpt>
      <trkpt lat="47.54591" lon="-2.72039">
        <ele>13.7</ele>
        <time>2026-08-29T15:13:56Z</time>
      </trkpt>
      <trkpt lat="47.54595" lon="-2.72034">
        <ele>13.6</ele>
        <time>2026-08-29T15:13:57Z</time>
      </trkpt>
      <trkpt lat="47.54599" lon="-2.72029">
        <ele>13.4</ele>
        <time>2026-08-29T15:13:58Z</time>
      </trkpt>
      <trkpt lat="47.54603" lon="-2.72024">
        <ele>13.5</ele>
        <time>2026-08-29T15:13:59Z</time>
      </trkpt>
      <trkpt lat="47.54607" lon="-2.72019">
        <ele>13.7</ele>
        <time>2026-08-29T15:14:00Z</time>
      </trkpt>
      <trkpt lat="47.54611" lon="-2.72015">
        <ele>13.9</ele>
        <time>2026-08-29T15:14:01Z</time>
      </trkpt>
      <trkpt lat="47.54616" lon="-2.7201">
        <ele>14.1</ele>
        <time>2026-08-29T15:14:02Z</time>
      </trkpt>
      <trkpt lat="47.5462" lon="-2.72005">
        <ele>14.1</ele>
        <time>2026-08-29T15:14:03Z</time>
      </trkpt>
      <trkpt lat="47.54624" lon="-2.72">
        <ele>14.1</ele>
        <time>2026-08-29T15:14:04Z</time>
      </trkpt>
      <trkpt lat="47.54628" lon="-2.71995">
        <ele>13.9</ele>
        <time>2026-08-29T15:14:05Z</time>
      </trkpt>
      <trkpt lat="47.54632" lon="-2.71991">
        <ele>13.7</ele>
        <time>2026-08-29T15:14:06Z</time>
      </trkpt>
      <trkpt lat="47.54636" lon="-2.71986">
        <ele>13.7</ele>
        <time>2026-08-29T15:14:07Z</time>
      </trkpt>
      <trkpt lat="47.54639" lon="-2.71981">
        <ele>13.7</ele>
        <time>2026-08-29T15:14:08Z</time>
      </trkpt>
      <trkpt lat="47.54642" lon="-2.71974">
        <ele>13.8</ele>
        <time>2026-08-29T15:14:09Z</time>
      </trkpt>
      <trkpt lat="47.54644" lon="-2.71967">
        <ele>13.9</ele>
        <time>2026-08-29T15:14:10Z</time>
      </trkpt>
      <trkpt lat="47.54644" lon="-2.71958">
        <ele>14</ele>
        <time>2026-08-29T15:14:11Z</time>
      </trkpt>
      <trkpt lat="47.54643" lon="-2.7195">
        <ele>14.1</ele>
        <time>2026-08-29T15:14:12Z</time>
      </trkpt>
      <trkpt lat="47.5464" lon="-2.71944">
        <ele>14</ele>
        <time>2026-08-29T15:14:13Z</time>
      </trkpt>
      <trkpt lat="47.54637" lon="-2.71938">
        <ele>14.1</ele>
        <time>2026-08-29T15:14:14Z</time>
      </trkpt>
      <trkpt lat="47.54635" lon="-2.71933">
        <ele>14.1</ele>
        <time>2026-08-29T15:14:15Z</time>
      </trkpt>
      <trkpt lat="47.54634" lon="-2.71928">
        <ele>14.1</ele>
        <time>2026-08-29T15:14:16Z</time>
      </trkpt>
      <trkpt lat="47.54633" lon="-2.71923">
        <ele>14</ele>
        <time>2026-08-29T15:14:17Z</time>
      </trkpt>
      <trkpt lat="47.54634" lon="-2.71917">
        <ele>14</ele>
        <time>2026-08-29T15:14:18Z</time>
      </trkpt>
      <trkpt lat="47.54636" lon="-2.71912">
        <ele>14</ele>
        <time>2026-08-29T15:14:19Z</time>
      </trkpt>
      <trkpt lat="47.5464" lon="-2.71909">
        <ele>14</ele>
        <time>2026-08-29T15:14:20Z</time>
      </trkpt>
      <trkpt lat="47.54643" lon="-2.71906">
        <ele>14.1</ele>
        <time>2026-08-29T15:14:21Z</time>
      </trkpt>
      <trkpt lat="47.54646" lon="-2.71905">
        <ele>14.3</ele>
        <time>2026-08-29T15:14:22Z</time>
      </trkpt>
      <trkpt lat="47.54649" lon="-2.71907">
        <ele>14.4</ele>
        <time>2026-08-29T15:14:23Z</time>
      </trkpt>
      <trkpt lat="47.54651" lon="-2.71909">
        <ele>14.4</ele>
        <time>2026-08-29T15:14:24Z</time>
      </trkpt>
      <trkpt lat="47.54654" lon="-2.71911">
        <ele>14.5</ele>
        <time>2026-08-29T15:14:25Z</time>
      </trkpt>
      <trkpt lat="47.54658" lon="-2.71912">
        <ele>14.7</ele>
        <time>2026-08-29T15:14:26Z</time>
      </trkpt>
      <trkpt lat="47.54661" lon="-2.71911">
        <ele>14.8</ele>
        <time>2026-08-29T15:14:27Z</time>
      </trkpt>
      <trkpt lat="47.54664" lon="-2.7191">
        <ele>14.9</ele>
        <time>2026-08-29T15:14:28Z</time>
      </trkpt>
      <trkpt lat="47.54666" lon="-2.7191">
        <ele>15</ele>
        <time>2026-08-29T15:14:29Z</time>
      </trkpt>
      <trkpt lat="47.54669" lon="-2.71911">
        <ele>15</ele>
        <time>2026-08-29T15:14:30Z</time>
      </trkpt>
      <trkpt lat="47.5467" lon="-2.71912">
        <ele>15</ele>
        <time>2026-08-29T15:14:31Z</time>
      </trkpt>
      <trkpt lat="47.54671" lon="-2.71915">
        <ele>15</ele>
        <time>2026-08-29T15:14:32Z</time>
      </trkpt>
      <trkpt lat="47.54672" lon="-2.71918">
        <ele>15</ele>
        <time>2026-08-29T15:14:33Z</time>
      </trkpt>
      <trkpt lat="47.54673" lon="-2.71921">
        <ele>15</ele>
        <time>2026-08-29T15:14:34Z</time>
      </trkpt>
      <trkpt lat="47.54675" lon="-2.71925">
        <ele>14.9</ele>
        <time>2026-08-29T15:14:35Z</time>
      </trkpt>
      <trkpt lat="47.54677" lon="-2.71928">
        <ele>14.8</ele>
        <time>2026-08-29T15:14:36Z</time>
      </trkpt>
      <trkpt lat="47.5468" lon="-2.71927">
        <ele>14.8</ele>
        <time>2026-08-29T15:14:37Z</time>
      </trkpt>
      <trkpt lat="47.54683" lon="-2.71925">
        <ele>14.8</ele>
        <time>2026-08-29T15:14:38Z</time>
      </trkpt>
      <trkpt lat="47.54686" lon="-2.71923">
        <ele>14.8</ele>
        <time>2026-08-29T15:14:39Z</time>
      </trkpt>
      <trkpt lat="47.54689" lon="-2.7192">
        <ele>14.9</ele>
        <time>2026-08-29T15:14:40Z</time>
      </trkpt>
      <trkpt lat="47.54693" lon="-2.71917">
        <ele>15</ele>
        <time>2026-08-29T15:14:41Z</time>
      </trkpt>
      <trkpt lat="47.54696" lon="-2.71915">
        <ele>15</ele>
        <time>2026-08-29T15:14:42Z</time>
      </trkpt>
      <trkpt lat="47.547" lon="-2.71913">
        <ele>15</ele>
        <time>2026-08-29T15:14:43Z</time>
      </trkpt>
      <trkpt lat="47.54704" lon="-2.7191">
        <ele>15</ele>
        <time>2026-08-29T15:14:44Z</time>
      </trkpt>
      <trkpt lat="47.54708" lon="-2.71907">
        <ele>15</ele>
        <time>2026-08-29T15:14:45Z</time>
      </trkpt>
      <trkpt lat="47.54712" lon="-2.71904">
        <ele>15</ele>
        <time>2026-08-29T15:14:46Z</time>
      </trkpt>
      <trkpt lat="47.54716" lon="-2.71901">
        <ele>15</ele>
        <time>2026-08-29T15:14:47Z</time>
      </trkpt>
      <trkpt lat="47.54721" lon="-2.71898">
        <ele>15</ele>
        <time>2026-08-29T15:14:48Z</time>
      </trkpt>
      <trkpt lat="47.54725" lon="-2.71895">
        <ele>14.9</ele>
        <time>2026-08-29T15:14:49Z</time>
      </trkpt>
      <trkpt lat="47.5473" lon="-2.71892">
        <ele>14.9</ele>
        <time>2026-08-29T15:14:50Z</time>
      </trkpt>
      <trkpt lat="47.54735" lon="-2.7189">
        <ele>14.9</ele>
        <time>2026-08-29T15:14:51Z</time>
      </trkpt>
      <trkpt lat="47.5474" lon="-2.71888">
        <ele>15</ele>
        <time>2026-08-29T15:14:52Z</time>
      </trkpt>
      <trkpt lat="47.54745" lon="-2.71888">
        <ele>15</ele>
        <time>2026-08-29T15:14:53Z</time>
      </trkpt>
      <trkpt lat="47.5475" lon="-2.71888">
        <ele>15</ele>
        <time>2026-08-29T15:14:54Z</time>
      </trkpt>
      <trkpt lat="47.54755" lon="-2.71886">
        <ele>14.6</ele>
        <time>2026-08-29T15:14:55Z</time>
      </trkpt>
      <trkpt lat="47.5476" lon="-2.71884">
        <ele>14.2</ele>
        <time>2026-08-29T15:14:56Z</time>
      </trkpt>
      <trkpt lat="47.54765" lon="-2.71882">
        <ele>13.9</ele>
        <time>2026-08-29T15:14:57Z</time>
      </trkpt>
      <trkpt lat="47.54771" lon="-2.7188">
        <ele>13.7</ele>
        <time>2026-08-29T15:14:58Z</time>
      </trkpt>
      <trkpt lat="47.54777" lon="-2.71877">
        <ele>13.5</ele>
        <time>2026-08-29T15:14:59Z</time>
      </trkpt>
      <trkpt lat="47.54782" lon="-2.71875">
        <ele>13.3</ele>
        <time>2026-08-29T15:15:00Z</time>
      </trkpt>
      <trkpt lat="47.54788" lon="-2.71873">
        <ele>13.3</ele>
        <time>2026-08-29T15:15:01Z</time>
      </trkpt>
      <trkpt lat="47.54794" lon="-2.71871">
        <ele>13.2</ele>
        <time>2026-08-29T15:15:02Z</time>
      </trkpt>
      <trkpt lat="47.54799" lon="-2.71869">
        <ele>13.3</ele>
        <time>2026-08-29T15:15:03Z</time>
      </trkpt>
      <trkpt lat="47.54805" lon="-2.71868">
        <ele>13.3</ele>
        <time>2026-08-29T15:15:04Z</time>
      </trkpt>
      <trkpt lat="47.54811" lon="-2.71865">
        <ele>13</ele>
        <time>2026-08-29T15:15:05Z</time>
      </trkpt>
      <trkpt lat="47.54817" lon="-2.71863">
        <ele>12.6</ele>
        <time>2026-08-29T15:15:06Z</time>
      </trkpt>
      <trkpt lat="47.54823" lon="-2.71861">
        <ele>12.1</ele>
        <time>2026-08-29T15:15:07Z</time>
      </trkpt>
      <trkpt lat="47.54829" lon="-2.71858">
        <ele>11.6</ele>
        <time>2026-08-29T15:15:08Z</time>
      </trkpt>
      <trkpt lat="47.54835" lon="-2.71856">
        <ele>11.3</ele>
        <time>2026-08-29T15:15:09Z</time>
      </trkpt>
      <trkpt lat="47.5484" lon="-2.71854">
        <ele>11.3</ele>
        <time>2026-08-29T15:15:10Z</time>
      </trkpt>
      <trkpt lat="47.54846" lon="-2.71851">
        <ele>11.4</ele>
        <time>2026-08-29T15:15:11Z</time>
      </trkpt>
      <trkpt lat="47.54852" lon="-2.71849">
        <ele>11.5</ele>
        <time>2026-08-29T15:15:12Z</time>
      </trkpt>
      <trkpt lat="47.54859" lon="-2.71846">
        <ele>11.7</ele>
        <time>2026-08-29T15:15:13Z</time>
      </trkpt>
      <trkpt lat="47.54865" lon="-2.71844">
        <ele>11.7</ele>
        <time>2026-08-29T15:15:14Z</time>
      </trkpt>
      <trkpt lat="47.54871" lon="-2.71841">
        <ele>11.7</ele>
        <time>2026-08-29T15:15:15Z</time>
      </trkpt>
      <trkpt lat="47.54877" lon="-2.71837">
        <ele>11.6</ele>
        <time>2026-08-29T15:15:16Z</time>
      </trkpt>
      <trkpt lat="47.54883" lon="-2.71834">
        <ele>11.4</ele>
        <time>2026-08-29T15:15:17Z</time>
      </trkpt>
      <trkpt lat="47.5489" lon="-2.71831">
        <ele>11</ele>
        <time>2026-08-29T15:15:18Z</time>
      </trkpt>
      <trkpt lat="47.54896" lon="-2.71827">
        <ele>10.7</ele>
        <time>2026-08-29T15:15:19Z</time>
      </trkpt>
      <trkpt lat="47.54902" lon="-2.71824">
        <ele>10.5</ele>
        <time>2026-08-29T15:15:20Z</time>
      </trkpt>
      <trkpt lat="47.54909" lon="-2.7182">
        <ele>10.3</ele>
        <time>2026-08-29T15:15:21Z</time>
      </trkpt>
      <trkpt lat="47.54915" lon="-2.71817">
        <ele>10.1</ele>
        <time>2026-08-29T15:15:22Z</time>
      </trkpt>
      <trkpt lat="47.54921" lon="-2.71813">
        <ele>10</ele>
        <time>2026-08-29T15:15:23Z</time>
      </trkpt>
      <trkpt lat="47.54926" lon="-2.7181">
        <ele>9.9</ele>
        <time>2026-08-29T15:15:24Z</time>
      </trkpt>
      <trkpt lat="47.54932" lon="-2.71806">
        <ele>10</ele>
        <time>2026-08-29T15:15:25Z</time>
      </trkpt>
      <trkpt lat="47.54938" lon="-2.71803">
        <ele>10</ele>
        <time>2026-08-29T15:15:26Z</time>
      </trkpt>
      <trkpt lat="47.54943" lon="-2.718">
        <ele>10</ele>
        <time>2026-08-29T15:15:27Z</time>
      </trkpt>
      <trkpt lat="47.54948" lon="-2.71797">
        <ele>9.9</ele>
        <time>2026-08-29T15:15:28Z</time>
      </trkpt>
      <trkpt lat="47.54953" lon="-2.71794">
        <ele>9.7</ele>
        <time>2026-08-29T15:15:29Z</time>
      </trkpt>
      <trkpt lat="47.54958" lon="-2.71791">
        <ele>9.5</ele>
        <time>2026-08-29T15:15:30Z</time>
      </trkpt>
      <trkpt lat="47.54963" lon="-2.71787">
        <ele>9.3</ele>
        <time>2026-08-29T15:15:31Z</time>
      </trkpt>
      <trkpt lat="47.54968" lon="-2.71784">
        <ele>9.2</ele>
        <time>2026-08-29T15:15:32Z</time>
      </trkpt>
      <trkpt lat="47.54973" lon="-2.71782">
        <ele>9</ele>
        <time>2026-08-29T15:15:33Z</time>
      </trkpt>
      <trkpt lat="47.54978" lon="-2.71779">
        <ele>9</ele>
        <time>2026-08-29T15:15:34Z</time>
      </trkpt>
      <trkpt lat="47.54984" lon="-2.71777">
        <ele>9</ele>
        <time>2026-08-29T15:15:35Z</time>
      </trkpt>
      <trkpt lat="47.5499" lon="-2.71775">
        <ele>8.9</ele>
        <time>2026-08-29T15:15:36Z</time>
      </trkpt>
      <trkpt lat="47.54996" lon="-2.71772">
        <ele>8.8</ele>
        <time>2026-08-29T15:15:37Z</time>
      </trkpt>
      <trkpt lat="47.55002" lon="-2.71769">
        <ele>8.7</ele>
        <time>2026-08-29T15:15:38Z</time>
      </trkpt>
      <trkpt lat="47.55008" lon="-2.71766">
        <ele>8.6</ele>
        <time>2026-08-29T15:15:39Z</time>
      </trkpt>
      <trkpt lat="47.55014" lon="-2.71762">
        <ele>8.4</ele>
        <time>2026-08-29T15:15:40Z</time>
      </trkpt>
      <trkpt lat="47.5502" lon="-2.71759">
        <ele>8.3</ele>
        <time>2026-08-29T15:15:41Z</time>
      </trkpt>
      <trkpt lat="47.55026" lon="-2.71756">
        <ele>8.2</ele>
        <time>2026-08-29T15:15:42Z</time>
      </trkpt>
      <trkpt lat="47.55031" lon="-2.71753">
        <ele>8.1</ele>
        <time>2026-08-29T15:15:43Z</time>
      </trkpt>
      <trkpt lat="47.55037" lon="-2.71749">
        <ele>8</ele>
        <time>2026-08-29T15:15:44Z</time>
      </trkpt>
      <trkpt lat="47.55042" lon="-2.71745">
        <ele>7.9</ele>
        <time>2026-08-29T15:15:45Z</time>
      </trkpt>
      <trkpt lat="47.55046" lon="-2.71741">
        <ele>7.8</ele>
        <time>2026-08-29T15:15:46Z</time>
      </trkpt>
      <trkpt lat="47.5505" lon="-2.71736">
        <ele>7.6</ele>
        <time>2026-08-29T15:15:47Z</time>
      </trkpt>
      <trkpt lat="47.55053" lon="-2.7173">
        <ele>7.3</ele>
        <time>2026-08-29T15:15:48Z</time>
      </trkpt>
      <trkpt lat="47.55055" lon="-2.71723">
        <ele>7</ele>
        <time>2026-08-29T15:15:49Z</time>
      </trkpt>
      <trkpt lat="47.55056" lon="-2.71716">
        <ele>7</ele>
        <time>2026-08-29T15:15:50Z</time>
      </trkpt>
      <trkpt lat="47.55055" lon="-2.71709">
        <ele>7</ele>
        <time>2026-08-29T15:15:51Z</time>
      </trkpt>
      <trkpt lat="47.55054" lon="-2.71702">
        <ele>7.1</ele>
        <time>2026-08-29T15:15:52Z</time>
      </trkpt>
      <trkpt lat="47.55053" lon="-2.71695">
        <ele>7.1</ele>
        <time>2026-08-29T15:15:53Z</time>
      </trkpt>
      <trkpt lat="47.55051" lon="-2.71688">
        <ele>7.4</ele>
        <time>2026-08-29T15:15:54Z</time>
      </trkpt>
      <trkpt lat="47.55051" lon="-2.71682">
        <ele>7.5</ele>
        <time>2026-08-29T15:15:55Z</time>
      </trkpt>
      <trkpt lat="47.55053" lon="-2.71677">
        <ele>7.7</ele>
        <time>2026-08-29T15:15:56Z</time>
      </trkpt>
      <trkpt lat="47.55056" lon="-2.71674">
        <ele>7.8</ele>
        <time>2026-08-29T15:15:57Z</time>
      </trkpt>
      <trkpt lat="47.55058" lon="-2.71671">
        <ele>7.9</ele>
        <time>2026-08-29T15:15:58Z</time>
      </trkpt>
      <trkpt lat="47.5506" lon="-2.71667">
        <ele>8.1</ele>
        <time>2026-08-29T15:15:59Z</time>
      </trkpt>
      <trkpt lat="47.5506" lon="-2.71662">
        <ele>8.3</ele>
        <time>2026-08-29T15:16:00Z</time>
      </trkpt>
      <trkpt lat="47.55059" lon="-2.71657">
        <ele>8.4</ele>
        <time>2026-08-29T15:16:01Z</time>
      </trkpt>
      <trkpt lat="47.55059" lon="-2.71651">
        <ele>8.6</ele>
        <time>2026-08-29T15:16:02Z</time>
      </trkpt>
      <trkpt lat="47.55059" lon="-2.71646">
        <ele>8.8</ele>
        <time>2026-08-29T15:16:03Z</time>
      </trkpt>
      <trkpt lat="47.5506" lon="-2.71642">
        <ele>8.9</ele>
        <time>2026-08-29T15:16:04Z</time>
      </trkpt>
      <trkpt lat="47.55063" lon="-2.7164">
        <ele>9</ele>
        <time>2026-08-29T15:16:05Z</time>
      </trkpt>
      <trkpt lat="47.55066" lon="-2.7164">
        <ele>9</ele>
        <time>2026-08-29T15:16:06Z</time>
      </trkpt>
      <trkpt lat="47.55069" lon="-2.7164">
        <ele>9</ele>
        <time>2026-08-29T15:16:07Z</time>
      </trkpt>
      <trkpt lat="47.55072" lon="-2.71641">
        <ele>9</ele>
        <time>2026-08-29T15:16:08Z</time>
      </trkpt>
      <trkpt lat="47.55076" lon="-2.71643">
        <ele>9</ele>
        <time>2026-08-29T15:16:09Z</time>
      </trkpt>
      <trkpt lat="47.5508" lon="-2.71644">
        <ele>9</ele>
        <time>2026-08-29T15:16:10Z</time>
      </trkpt>
      <trkpt lat="47.55084" lon="-2.71645">
        <ele>9</ele>
        <time>2026-08-29T15:16:11Z</time>
      </trkpt>
      <trkpt lat="47.55088" lon="-2.71647">
        <ele>9</ele>
        <time>2026-08-29T15:16:12Z</time>
      </trkpt>
      <trkpt lat="47.55092" lon="-2.71648">
        <ele>9</ele>
        <time>2026-08-29T15:16:13Z</time>
      </trkpt>
      <trkpt lat="47.55096" lon="-2.7165">
        <ele>9</ele>
        <time>2026-08-29T15:16:14Z</time>
      </trkpt>
      <trkpt lat="47.551" lon="-2.71652">
        <ele>9</ele>
        <time>2026-08-29T15:16:15Z</time>
      </trkpt>
      <trkpt lat="47.55104" lon="-2.71654">
        <ele>9</ele>
        <time>2026-08-29T15:16:16Z</time>
      </trkpt>
      <trkpt lat="47.55107" lon="-2.71654">
        <ele>9</ele>
        <time>2026-08-29T15:16:17Z</time>
      </trkpt>
      <trkpt lat="47.55111" lon="-2.71654">
        <ele>9</ele>
        <time>2026-08-29T15:16:18Z</time>
      </trkpt>
      <trkpt lat="47.55114" lon="-2.71651">
        <ele>9</ele>
        <time>2026-08-29T15:16:19Z</time>
      </trkpt>
      <trkpt lat="47.55116" lon="-2.71646">
        <ele>9</ele>
        <time>2026-08-29T15:16:20Z</time>
      </trkpt>
      <trkpt lat="47.55117" lon="-2.71641">
        <ele>9</ele>
        <time>2026-08-29T15:16:21Z</time>
      </trkpt>
      <trkpt lat="47.55118" lon="-2.71636">
        <ele>9</ele>
        <time>2026-08-29T15:16:22Z</time>
      </trkpt>
      <trkpt lat="47.55119" lon="-2.71631">
        <ele>9</ele>
        <time>2026-08-29T15:16:23Z</time>
      </trkpt>
      <trkpt lat="47.55121" lon="-2.71627">
        <ele>9</ele>
        <time>2026-08-29T15:16:24Z</time>
      </trkpt>
      <trkpt lat="47.55124" lon="-2.71625">
        <ele>9</ele>
        <time>2026-08-29T15:16:25Z</time>
      </trkpt>
      <trkpt lat="47.55125" lon="-2.71624">
        <ele>9</ele>
        <time>2026-08-29T15:16:26Z</time>
      </trkpt>
      <trkpt lat="47.55127" lon="-2.71624">
        <ele>9</ele>
        <time>2026-08-29T15:16:27Z</time>
      </trkpt>
      <trkpt lat="47.55128" lon="-2.71624">
        <ele>9</ele>
        <time>2026-08-29T15:16:28Z</time>
      </trkpt>
      <trkpt lat="47.55129" lon="-2.71625">
        <ele>9</ele>
        <time>2026-08-29T15:16:29Z</time>
      </trkpt>
      <trkpt lat="47.55132" lon="-2.71625">
        <ele>9</ele>
        <time>2026-08-29T15:16:30Z</time>
      </trkpt>
      <trkpt lat="47.55134" lon="-2.71625">
        <ele>9</ele>
        <time>2026-08-29T15:16:31Z</time>
      </trkpt>
      <trkpt lat="47.55137" lon="-2.71626">
        <ele>9</ele>
        <time>2026-08-29T15:16:32Z</time>
      </trkpt>
      <trkpt lat="47.5514" lon="-2.71626">
        <ele>9</ele>
        <time>2026-08-29T15:16:33Z</time>
      </trkpt>
      <trkpt lat="47.55143" lon="-2.71627">
        <ele>9</ele>
        <time>2026-08-29T15:16:34Z</time>
      </trkpt>
      <trkpt lat="47.55147" lon="-2.71628">
        <ele>9</ele>
        <time>2026-08-29T15:16:35Z</time>
      </trkpt>
      <trkpt lat="47.55151" lon="-2.71629">
        <ele>9</ele>
        <time>2026-08-29T15:16:36Z</time>
      </trkpt>
      <trkpt lat="47.55155" lon="-2.71629">
        <ele>9</ele>
        <time>2026-08-29T15:16:37Z</time>
      </trkpt>
      <trkpt lat="47.55159" lon="-2.71629">
        <ele>9</ele>
        <time>2026-08-29T15:16:38Z</time>
      </trkpt>
      <trkpt lat="47.55164" lon="-2.7163">
        <ele>9</ele>
        <time>2026-08-29T15:16:39Z</time>
      </trkpt>
      <trkpt lat="47.55168" lon="-2.71631">
        <ele>9</ele>
        <time>2026-08-29T15:16:40Z</time>
      </trkpt>
      <trkpt lat="47.55172" lon="-2.71633">
        <ele>9.2</ele>
        <time>2026-08-29T15:16:41Z</time>
      </trkpt>
      <trkpt lat="47.55176" lon="-2.71634">
        <ele>9.3</ele>
        <time>2026-08-29T15:16:42Z</time>
      </trkpt>
      <trkpt lat="47.55181" lon="-2.71635">
        <ele>9.5</ele>
        <time>2026-08-29T15:16:43Z</time>
      </trkpt>
      <trkpt lat="47.55185" lon="-2.71637">
        <ele>9.7</ele>
        <time>2026-08-29T15:16:44Z</time>
      </trkpt>
      <trkpt lat="47.5519" lon="-2.71638">
        <ele>9.8</ele>
        <time>2026-08-29T15:16:45Z</time>
      </trkpt>
      <trkpt lat="47.55194" lon="-2.71639">
        <ele>10</ele>
        <time>2026-08-29T15:16:46Z</time>
      </trkpt>
      <trkpt lat="47.55199" lon="-2.71641">
        <ele>10.2</ele>
        <time>2026-08-29T15:16:47Z</time>
      </trkpt>
      <trkpt lat="47.55204" lon="-2.71642">
        <ele>10.3</ele>
        <time>2026-08-29T15:16:48Z</time>
      </trkpt>
      <trkpt lat="47.55208" lon="-2.71643">
        <ele>10.4</ele>
        <time>2026-08-29T15:16:49Z</time>
      </trkpt>
      <trkpt lat="47.55213" lon="-2.71644">
        <ele>10.5</ele>
        <time>2026-08-29T15:16:50Z</time>
      </trkpt>
      <trkpt lat="47.55217" lon="-2.71645">
        <ele>10.6</ele>
        <time>2026-08-29T15:16:51Z</time>
      </trkpt>
      <trkpt lat="47.55222" lon="-2.71646">
        <ele>10.7</ele>
        <time>2026-08-29T15:16:52Z</time>
      </trkpt>
      <trkpt lat="47.55227" lon="-2.71646">
        <ele>10.7</ele>
        <time>2026-08-29T15:16:53Z</time>
      </trkpt>
      <trkpt lat="47.55232" lon="-2.71646">
        <ele>10.7</ele>
        <time>2026-08-29T15:16:54Z</time>
      </trkpt>
      <trkpt lat="47.55236" lon="-2.71645">
        <ele>10.8</ele>
        <time>2026-08-29T15:16:55Z</time>
      </trkpt>
      <trkpt lat="47.55241" lon="-2.71643">
        <ele>10.9</ele>
        <time>2026-08-29T15:16:56Z</time>
      </trkpt>
      <trkpt lat="47.55245" lon="-2.71641">
        <ele>10.9</ele>
        <time>2026-08-29T15:16:57Z</time>
      </trkpt>
      <trkpt lat="47.55249" lon="-2.71639">
        <ele>11</ele>
        <time>2026-08-29T15:16:58Z</time>
      </trkpt>
      <trkpt lat="47.55253" lon="-2.71636">
        <ele>10.9</ele>
        <time>2026-08-29T15:16:59Z</time>
      </trkpt>
      <trkpt lat="47.55257" lon="-2.71633">
        <ele>10.9</ele>
        <time>2026-08-29T15:17:00Z</time>
      </trkpt>
      <trkpt lat="47.55261" lon="-2.7163">
        <ele>10.9</ele>
        <time>2026-08-29T15:17:01Z</time>
      </trkpt>
      <trkpt lat="47.55265" lon="-2.71628">
        <ele>10.9</ele>
        <time>2026-08-29T15:17:02Z</time>
      </trkpt>
      <trkpt lat="47.55269" lon="-2.71625">
        <ele>11</ele>
        <time>2026-08-29T15:17:03Z</time>
      </trkpt>
      <trkpt lat="47.55274" lon="-2.71623">
        <ele>11.1</ele>
        <time>2026-08-29T15:17:04Z</time>
      </trkpt>
      <trkpt lat="47.55278" lon="-2.7162">
        <ele>11.4</ele>
        <time>2026-08-29T15:17:05Z</time>
      </trkpt>
      <trkpt lat="47.55282" lon="-2.71617">
        <ele>11.5</ele>
        <time>2026-08-29T15:17:06Z</time>
      </trkpt>
      <trkpt lat="47.55286" lon="-2.71614">
        <ele>11.5</ele>
        <time>2026-08-29T15:17:07Z</time>
      </trkpt>
      <trkpt lat="47.5529" lon="-2.71611">
        <ele>11.6</ele>
        <time>2026-08-29T15:17:08Z</time>
      </trkpt>
      <trkpt lat="47.55295" lon="-2.71608">
        <ele>11.5</ele>
        <time>2026-08-29T15:17:09Z</time>
      </trkpt>
      <trkpt lat="47.55299" lon="-2.71606">
        <ele>11.5</ele>
        <time>2026-08-29T15:17:10Z</time>
      </trkpt>
      <trkpt lat="47.55303" lon="-2.71604">
        <ele>11.6</ele>
        <time>2026-08-29T15:17:11Z</time>
      </trkpt>
      <trkpt lat="47.55307" lon="-2.71601">
        <ele>11.7</ele>
        <time>2026-08-29T15:17:12Z</time>
      </trkpt>
      <trkpt lat="47.55312" lon="-2.71599">
        <ele>11.7</ele>
        <time>2026-08-29T15:17:13Z</time>
      </trkpt>
      <trkpt lat="47.55316" lon="-2.71597">
        <ele>11.8</ele>
        <time>2026-08-29T15:17:14Z</time>
      </trkpt>
      <trkpt lat="47.5532" lon="-2.71595">
        <ele>11.9</ele>
        <time>2026-08-29T15:17:15Z</time>
      </trkpt>
      <trkpt lat="47.55325" lon="-2.71592">
        <ele>12.2</ele>
        <time>2026-08-29T15:17:16Z</time>
      </trkpt>
      <trkpt lat="47.55329" lon="-2.7159">
        <ele>12.3</ele>
        <time>2026-08-29T15:17:17Z</time>
      </trkpt>
      <trkpt lat="47.55333" lon="-2.71587">
        <ele>12.6</ele>
        <time>2026-08-29T15:17:18Z</time>
      </trkpt>
      <trkpt lat="47.55337" lon="-2.71585">
        <ele>12.6</ele>
        <time>2026-08-29T15:17:19Z</time>
      </trkpt>
      <trkpt lat="47.55342" lon="-2.71582">
        <ele>12.4</ele>
        <time>2026-08-29T15:17:20Z</time>
      </trkpt>
      <trkpt lat="47.55346" lon="-2.71579">
        <ele>12.2</ele>
        <time>2026-08-29T15:17:21Z</time>
      </trkpt>
      <trkpt lat="47.55351" lon="-2.71577">
        <ele>12</ele>
        <time>2026-08-29T15:17:22Z</time>
      </trkpt>
      <trkpt lat="47.55355" lon="-2.71574">
        <ele>12</ele>
        <time>2026-08-29T15:17:23Z</time>
      </trkpt>
      <trkpt lat="47.55359" lon="-2.71572">
        <ele>11.9</ele>
        <time>2026-08-29T15:17:24Z</time>
      </trkpt>
      <trkpt lat="47.55364" lon="-2.71569">
        <ele>12</ele>
        <time>2026-08-29T15:17:25Z</time>
      </trkpt>
      <trkpt lat="47.55368" lon="-2.71566">
        <ele>12.2</ele>
        <time>2026-08-29T15:17:26Z</time>
      </trkpt>
      <trkpt lat="47.55372" lon="-2.71564">
        <ele>12.4</ele>
        <time>2026-08-29T15:17:27Z</time>
      </trkpt>
      <trkpt lat="47.55377" lon="-2.71561">
        <ele>12.6</ele>
        <time>2026-08-29T15:17:28Z</time>
      </trkpt>
      <trkpt lat="47.55381" lon="-2.71558">
        <ele>12.8</ele>
        <time>2026-08-29T15:17:29Z</time>
      </trkpt>
      <trkpt lat="47.55386" lon="-2.71555">
        <ele>13</ele>
        <time>2026-08-29T15:17:30Z</time>
      </trkpt>
      <trkpt lat="47.55391" lon="-2.71552">
        <ele>12.9</ele>
        <time>2026-08-29T15:17:31Z</time>
      </trkpt>
      <trkpt lat="47.55396" lon="-2.71549">
        <ele>12.5</ele>
        <time>2026-08-29T15:17:32Z</time>
      </trkpt>
      <trkpt lat="47.554" lon="-2.71546">
        <ele>12.3</ele>
        <time>2026-08-29T15:17:33Z</time>
      </trkpt>
      <trkpt lat="47.55405" lon="-2.71543">
        <ele>12.1</ele>
        <time>2026-08-29T15:17:34Z</time>
      </trkpt>
      <trkpt lat="47.5541" lon="-2.7154">
        <ele>11.9</ele>
        <time>2026-08-29T15:17:35Z</time>
      </trkpt>
      <trkpt lat="47.55415" lon="-2.71537">
        <ele>11.7</ele>
        <time>2026-08-29T15:17:36Z</time>
      </trkpt>
      <trkpt lat="47.5542" lon="-2.71534">
        <ele>11.7</ele>
        <time>2026-08-29T15:17:37Z</time>
      </trkpt>
      <trkpt lat="47.55424" lon="-2.71532">
        <ele>11.6</ele>
        <time>2026-08-29T15:17:38Z</time>
      </trkpt>
      <trkpt lat="47.55429" lon="-2.71529">
        <ele>11.5</ele>
        <time>2026-08-29T15:17:39Z</time>
      </trkpt>
      <trkpt lat="47.55434" lon="-2.71526">
        <ele>11.4</ele>
        <time>2026-08-29T15:17:40Z</time>
      </trkpt>
      <trkpt lat="47.55439" lon="-2.71522">
        <ele>11.4</ele>
        <time>2026-08-29T15:17:41Z</time>
      </trkpt>
      <trkpt lat="47.55444" lon="-2.71519">
        <ele>11.3</ele>
        <time>2026-08-29T15:17:42Z</time>
      </trkpt>
      <trkpt lat="47.55449" lon="-2.71516">
        <ele>11.4</ele>
        <time>2026-08-29T15:17:43Z</time>
      </trkpt>
      <trkpt lat="47.55454" lon="-2.71513">
        <ele>11.3</ele>
        <time>2026-08-29T15:17:44Z</time>
      </trkpt>
      <trkpt lat="47.55459" lon="-2.7151">
        <ele>11.3</ele>
        <time>2026-08-29T15:17:45Z</time>
      </trkpt>
      <trkpt lat="47.55464" lon="-2.71507">
        <ele>11.2</ele>
        <time>2026-08-29T15:17:46Z</time>
      </trkpt>
      <trkpt lat="47.55469" lon="-2.71504">
        <ele>11.1</ele>
        <time>2026-08-29T15:17:47Z</time>
      </trkpt>
      <trkpt lat="47.55474" lon="-2.71501">
        <ele>11</ele>
        <time>2026-08-29T15:17:48Z</time>
      </trkpt>
      <trkpt lat="47.55478" lon="-2.71499">
        <ele>11</ele>
        <time>2026-08-29T15:17:49Z</time>
      </trkpt>
      <trkpt lat="47.55483" lon="-2.71496">
        <ele>11</ele>
        <time>2026-08-29T15:17:50Z</time>
      </trkpt>
      <trkpt lat="47.55487" lon="-2.71494">
        <ele>11</ele>
        <time>2026-08-29T15:17:51Z</time>
      </trkpt>
      <trkpt lat="47.55491" lon="-2.71491">
        <ele>11</ele>
        <time>2026-08-29T15:17:52Z</time>
      </trkpt>
      <trkpt lat="47.55495" lon="-2.71488">
        <ele>11</ele>
        <time>2026-08-29T15:17:53Z</time>
      </trkpt>
      <trkpt lat="47.55498" lon="-2.71486">
        <ele>11</ele>
        <time>2026-08-29T15:17:54Z</time>
      </trkpt>
      <trkpt lat="47.55502" lon="-2.71484">
        <ele>11</ele>
        <time>2026-08-29T15:17:55Z</time>
      </trkpt>
      <trkpt lat="47.55506" lon="-2.71482">
        <ele>11.1</ele>
        <time>2026-08-29T15:17:56Z</time>
      </trkpt>
      <trkpt lat="47.5551" lon="-2.7148">
        <ele>11.1</ele>
        <time>2026-08-29T15:17:57Z</time>
      </trkpt>
      <trkpt lat="47.55514" lon="-2.71477">
        <ele>11.1</ele>
        <time>2026-08-29T15:17:58Z</time>
      </trkpt>
      <trkpt lat="47.55518" lon="-2.71474">
        <ele>11</ele>
        <time>2026-08-29T15:17:59Z</time>
      </trkpt>
      <trkpt lat="47.55523" lon="-2.71472">
        <ele>11</ele>
        <time>2026-08-29T15:18:00Z</time>
      </trkpt>
      <trkpt lat="47.55528" lon="-2.71469">
        <ele>11.1</ele>
        <time>2026-08-29T15:18:01Z</time>
      </trkpt>
      <trkpt lat="47.55532" lon="-2.71467">
        <ele>11.3</ele>
        <time>2026-08-29T15:18:02Z</time>
      </trkpt>
      <trkpt lat="47.55536" lon="-2.71464">
        <ele>11.5</ele>
        <time>2026-08-29T15:18:03Z</time>
      </trkpt>
      <trkpt lat="47.55541" lon="-2.71462">
        <ele>11.7</ele>
        <time>2026-08-29T15:18:04Z</time>
      </trkpt>
      <trkpt lat="47.55545" lon="-2.71459">
        <ele>11.8</ele>
        <time>2026-08-29T15:18:05Z</time>
      </trkpt>
      <trkpt lat="47.55549" lon="-2.71456">
        <ele>11.9</ele>
        <time>2026-08-29T15:18:06Z</time>
      </trkpt>
      <trkpt lat="47.55554" lon="-2.71454">
        <ele>12</ele>
        <time>2026-08-29T15:18:07Z</time>
      </trkpt>
      <trkpt lat="47.55559" lon="-2.71451">
        <ele>12</ele>
        <time>2026-08-29T15:18:08Z</time>
      </trkpt>
      <trkpt lat="47.55563" lon="-2.71448">
        <ele>12</ele>
        <time>2026-08-29T15:18:09Z</time>
      </trkpt>
      <trkpt lat="47.55568" lon="-2.71445">
        <ele>12</ele>
        <time>2026-08-29T15:18:10Z</time>
      </trkpt>
      <trkpt lat="47.55572" lon="-2.71443">
        <ele>12.1</ele>
        <time>2026-08-29T15:18:11Z</time>
      </trkpt>
      <trkpt lat="47.55576" lon="-2.7144">
        <ele>12.2</ele>
        <time>2026-08-29T15:18:12Z</time>
      </trkpt>
      <trkpt lat="47.55581" lon="-2.71437">
        <ele>12.3</ele>
        <time>2026-08-29T15:18:13Z</time>
      </trkpt>
      <trkpt lat="47.55585" lon="-2.71434">
        <ele>12.4</ele>
        <time>2026-08-29T15:18:14Z</time>
      </trkpt>
      <trkpt lat="47.5559" lon="-2.71432">
        <ele>12.4</ele>
        <time>2026-08-29T15:18:15Z</time>
      </trkpt>
      <trkpt lat="47.55594" lon="-2.71429">
        <ele>12.6</ele>
        <time>2026-08-29T15:18:16Z</time>
      </trkpt>
      <trkpt lat="47.55599" lon="-2.71426">
        <ele>12.7</ele>
        <time>2026-08-29T15:18:17Z</time>
      </trkpt>
      <trkpt lat="47.55603" lon="-2.71424">
        <ele>12.7</ele>
        <time>2026-08-29T15:18:18Z</time>
      </trkpt>
      <trkpt lat="47.55608" lon="-2.71421">
        <ele>12.8</ele>
        <time>2026-08-29T15:18:19Z</time>
      </trkpt>
      <trkpt lat="47.55612" lon="-2.71418">
        <ele>13</ele>
        <time>2026-08-29T15:18:20Z</time>
      </trkpt>
      <trkpt lat="47.55617" lon="-2.71416">
        <ele>13</ele>
        <time>2026-08-29T15:18:21Z</time>
      </trkpt>
      <trkpt lat="47.55621" lon="-2.71413">
        <ele>13</ele>
        <time>2026-08-29T15:18:22Z</time>
      </trkpt>
      <trkpt lat="47.55626" lon="-2.7141">
        <ele>13</ele>
        <time>2026-08-29T15:18:23Z</time>
      </trkpt>
      <trkpt lat="47.5563" lon="-2.71408">
        <ele>13</ele>
        <time>2026-08-29T15:18:24Z</time>
      </trkpt>
      <trkpt lat="47.55635" lon="-2.71405">
        <ele>13</ele>
        <time>2026-08-29T15:18:25Z</time>
      </trkpt>
      <trkpt lat="47.55639" lon="-2.71402">
        <ele>13</ele>
        <time>2026-08-29T15:18:26Z</time>
      </trkpt>
      <trkpt lat="47.55644" lon="-2.71399">
        <ele>13.1</ele>
        <time>2026-08-29T15:18:27Z</time>
      </trkpt>
      <trkpt lat="47.55648" lon="-2.71397">
        <ele>13.2</ele>
        <time>2026-08-29T15:18:28Z</time>
      </trkpt>
      <trkpt lat="47.55652" lon="-2.71395">
        <ele>13.4</ele>
        <time>2026-08-29T15:18:29Z</time>
      </trkpt>
      <trkpt lat="47.55657" lon="-2.71392">
        <ele>13.6</ele>
        <time>2026-08-29T15:18:30Z</time>
      </trkpt>
      <trkpt lat="47.55661" lon="-2.71389">
        <ele>13.8</ele>
        <time>2026-08-29T15:18:31Z</time>
      </trkpt>
      <trkpt lat="47.55666" lon="-2.71386">
        <ele>14</ele>
        <time>2026-08-29T15:18:32Z</time>
      </trkpt>
      <trkpt lat="47.5567" lon="-2.71383">
        <ele>13.9</ele>
        <time>2026-08-29T15:18:33Z</time>
      </trkpt>
      <trkpt lat="47.55675" lon="-2.7138">
        <ele>13.8</ele>
        <time>2026-08-29T15:18:34Z</time>
      </trkpt>
      <trkpt lat="47.55679" lon="-2.71377">
        <ele>13.7</ele>
        <time>2026-08-29T15:18:35Z</time>
      </trkpt>
      <trkpt lat="47.55684" lon="-2.71374">
        <ele>13.7</ele>
        <time>2026-08-29T15:18:36Z</time>
      </trkpt>
      <trkpt lat="47.55689" lon="-2.71371">
        <ele>13.7</ele>
        <time>2026-08-29T15:18:37Z</time>
      </trkpt>
      <trkpt lat="47.55693" lon="-2.71368">
        <ele>13.8</ele>
        <time>2026-08-29T15:18:38Z</time>
      </trkpt>
      <trkpt lat="47.55698" lon="-2.71366">
        <ele>13.8</ele>
        <time>2026-08-29T15:18:39Z</time>
      </trkpt>
      <trkpt lat="47.55703" lon="-2.71363">
        <ele>14</ele>
        <time>2026-08-29T15:18:40Z</time>
      </trkpt>
      <trkpt lat="47.55708" lon="-2.71359">
        <ele>14</ele>
        <time>2026-08-29T15:18:41Z</time>
      </trkpt>
      <trkpt lat="47.55713" lon="-2.71356">
        <ele>14</ele>
        <time>2026-08-29T15:18:42Z</time>
      </trkpt>
      <trkpt lat="47.55717" lon="-2.71354">
        <ele>14</ele>
        <time>2026-08-29T15:18:43Z</time>
      </trkpt>
      <trkpt lat="47.55722" lon="-2.71351">
        <ele>14</ele>
        <time>2026-08-29T15:18:44Z</time>
      </trkpt>
      <trkpt lat="47.55727" lon="-2.71348">
        <ele>14</ele>
        <time>2026-08-29T15:18:45Z</time>
      </trkpt>
      <trkpt lat="47.55732" lon="-2.71344">
        <ele>14</ele>
        <time>2026-08-29T15:18:46Z</time>
      </trkpt>
      <trkpt lat="47.55737" lon="-2.71341">
        <ele>14</ele>
        <time>2026-08-29T15:18:47Z</time>
      </trkpt>
      <trkpt lat="47.55742" lon="-2.71339">
        <ele>14</ele>
        <time>2026-08-29T15:18:48Z</time>
      </trkpt>
      <trkpt lat="47.55747" lon="-2.71336">
        <ele>14</ele>
        <time>2026-08-29T15:18:49Z</time>
      </trkpt>
      <trkpt lat="47.55753" lon="-2.71333">
        <ele>14</ele>
        <time>2026-08-29T15:18:50Z</time>
      </trkpt>
      <trkpt lat="47.55758" lon="-2.7133">
        <ele>14</ele>
        <time>2026-08-29T15:18:51Z</time>
      </trkpt>
      <trkpt lat="47.55763" lon="-2.71327">
        <ele>14</ele>
        <time>2026-08-29T15:18:52Z</time>
      </trkpt>
      <trkpt lat="47.55768" lon="-2.71324">
        <ele>14</ele>
        <time>2026-08-29T15:18:53Z</time>
      </trkpt>
      <trkpt lat="47.55773" lon="-2.7132">
        <ele>14</ele>
        <time>2026-08-29T15:18:54Z</time>
      </trkpt>
      <trkpt lat="47.55778" lon="-2.71317">
        <ele>14</ele>
        <time>2026-08-29T15:18:55Z</time>
      </trkpt>
      <trkpt lat="47.55784" lon="-2.71314">
        <ele>14</ele>
        <time>2026-08-29T15:18:56Z</time>
      </trkpt>
      <trkpt lat="47.55789" lon="-2.7131">
        <ele>14</ele>
        <time>2026-08-29T15:18:57Z</time>
      </trkpt>
      <trkpt lat="47.55795" lon="-2.71307">
        <ele>14</ele>
        <time>2026-08-29T15:18:58Z</time>
      </trkpt>
      <trkpt lat="47.558" lon="-2.71304">
        <ele>14</ele>
        <time>2026-08-29T15:18:59Z</time>
      </trkpt>
      <trkpt lat="47.55806" lon="-2.713">
        <ele>14</ele>
        <time>2026-08-29T15:19:00Z</time>
      </trkpt>
      <trkpt lat="47.55811" lon="-2.71297">
        <ele>13.9</ele>
        <time>2026-08-29T15:19:01Z</time>
      </trkpt>
      <trkpt lat="47.55817" lon="-2.71294">
        <ele>13.8</ele>
        <time>2026-08-29T15:19:02Z</time>
      </trkpt>
      <trkpt lat="47.55822" lon="-2.7129">
        <ele>13.7</ele>
        <time>2026-08-29T15:19:03Z</time>
      </trkpt>
      <trkpt lat="47.55828" lon="-2.71287">
        <ele>13.5</ele>
        <time>2026-08-29T15:19:04Z</time>
      </trkpt>
      <trkpt lat="47.55833" lon="-2.71283">
        <ele>13.2</ele>
        <time>2026-08-29T15:19:05Z</time>
      </trkpt>
      <trkpt lat="47.55839" lon="-2.7128">
        <ele>13.1</ele>
        <time>2026-08-29T15:19:06Z</time>
      </trkpt>
      <trkpt lat="47.55844" lon="-2.71277">
        <ele>13</ele>
        <time>2026-08-29T15:19:07Z</time>
      </trkpt>
      <trkpt lat="47.5585" lon="-2.71273">
        <ele>13</ele>
        <time>2026-08-29T15:19:08Z</time>
      </trkpt>
      <trkpt lat="47.55856" lon="-2.7127">
        <ele>13</ele>
        <time>2026-08-29T15:19:09Z</time>
      </trkpt>
      <trkpt lat="47.55861" lon="-2.71267">
        <ele>13</ele>
        <time>2026-08-29T15:19:10Z</time>
      </trkpt>
      <trkpt lat="47.55867" lon="-2.71264">
        <ele>13.1</ele>
        <time>2026-08-29T15:19:11Z</time>
      </trkpt>
      <trkpt lat="47.55873" lon="-2.71261">
        <ele>13.2</ele>
        <time>2026-08-29T15:19:12Z</time>
      </trkpt>
      <trkpt lat="47.55878" lon="-2.71257">
        <ele>13.2</ele>
        <time>2026-08-29T15:19:13Z</time>
      </trkpt>
      <trkpt lat="47.55884" lon="-2.71254">
        <ele>13.1</ele>
        <time>2026-08-29T15:19:14Z</time>
      </trkpt>
      <trkpt lat="47.5589" lon="-2.7125">
        <ele>13</ele>
        <time>2026-08-29T15:19:15Z</time>
      </trkpt>
      <trkpt lat="47.55896" lon="-2.71247">
        <ele>13.2</ele>
        <time>2026-08-29T15:19:16Z</time>
      </trkpt>
      <trkpt lat="47.55902" lon="-2.71244">
        <ele>13.4</ele>
        <time>2026-08-29T15:19:17Z</time>
      </trkpt>
      <trkpt lat="47.55907" lon="-2.7124">
        <ele>13.4</ele>
        <time>2026-08-29T15:19:18Z</time>
      </trkpt>
      <trkpt lat="47.55912" lon="-2.71237">
        <ele>13.4</ele>
        <time>2026-08-29T15:19:19Z</time>
      </trkpt>
      <trkpt lat="47.55918" lon="-2.71234">
        <ele>13.4</ele>
        <time>2026-08-29T15:19:20Z</time>
      </trkpt>
      <trkpt lat="47.55923" lon="-2.71231">
        <ele>13.2</ele>
        <time>2026-08-29T15:19:21Z</time>
      </trkpt>
      <trkpt lat="47.55928" lon="-2.71229">
        <ele>13.1</ele>
        <time>2026-08-29T15:19:22Z</time>
      </trkpt>
      <trkpt lat="47.55933" lon="-2.71226">
        <ele>13.1</ele>
        <time>2026-08-29T15:19:23Z</time>
      </trkpt>
      <trkpt lat="47.55937" lon="-2.71222">
        <ele>13</ele>
        <time>2026-08-29T15:19:24Z</time>
      </trkpt>
      <trkpt lat="47.55942" lon="-2.71219">
        <ele>13</ele>
        <time>2026-08-29T15:19:25Z</time>
      </trkpt>
      <trkpt lat="47.55947" lon="-2.71216">
        <ele>13</ele>
        <time>2026-08-29T15:19:26Z</time>
      </trkpt>
      <trkpt lat="47.55952" lon="-2.71213">
        <ele>13</ele>
        <time>2026-08-29T15:19:27Z</time>
      </trkpt>
      <trkpt lat="47.55957" lon="-2.7121">
        <ele>13</ele>
        <time>2026-08-29T15:19:28Z</time>
      </trkpt>
      <trkpt lat="47.55963" lon="-2.71206">
        <ele>13</ele>
        <time>2026-08-29T15:19:29Z</time>
      </trkpt>
      <trkpt lat="47.55968" lon="-2.71202">
        <ele>13</ele>
        <time>2026-08-29T15:19:30Z</time>
      </trkpt>
      <trkpt lat="47.55974" lon="-2.71199">
        <ele>13</ele>
        <time>2026-08-29T15:19:31Z</time>
      </trkpt>
      <trkpt lat="47.55979" lon="-2.71195">
        <ele>13</ele>
        <time>2026-08-29T15:19:32Z</time>
      </trkpt>
      <trkpt lat="47.55985" lon="-2.71191">
        <ele>13</ele>
        <time>2026-08-29T15:19:33Z</time>
      </trkpt>
      <trkpt lat="47.55991" lon="-2.71188">
        <ele>13</ele>
        <time>2026-08-29T15:19:34Z</time>
      </trkpt>
      <trkpt lat="47.55997" lon="-2.71184">
        <ele>13</ele>
        <time>2026-08-29T15:19:35Z</time>
      </trkpt>
      <trkpt lat="47.56003" lon="-2.71181">
        <ele>12.9</ele>
        <time>2026-08-29T15:19:36Z</time>
      </trkpt>
      <trkpt lat="47.56009" lon="-2.71178">
        <ele>12.8</ele>
        <time>2026-08-29T15:19:37Z</time>
      </trkpt>
      <trkpt lat="47.56016" lon="-2.71174">
        <ele>12.6</ele>
        <time>2026-08-29T15:19:38Z</time>
      </trkpt>
      <trkpt lat="47.56022" lon="-2.7117">
        <ele>12.3</ele>
        <time>2026-08-29T15:19:39Z</time>
      </trkpt>
      <trkpt lat="47.56029" lon="-2.71167">
        <ele>12</ele>
        <time>2026-08-29T15:19:40Z</time>
      </trkpt>
      <trkpt lat="47.56036" lon="-2.71163">
        <ele>12.3</ele>
        <time>2026-08-29T15:19:41Z</time>
      </trkpt>
      <trkpt lat="47.56043" lon="-2.7116">
        <ele>12.5</ele>
        <time>2026-08-29T15:19:42Z</time>
      </trkpt>
      <trkpt lat="47.56051" lon="-2.71156">
        <ele>12.8</ele>
        <time>2026-08-29T15:19:43Z</time>
      </trkpt>
      <trkpt lat="47.56058" lon="-2.71152">
        <ele>13</ele>
        <time>2026-08-29T15:19:44Z</time>
      </trkpt>
      <trkpt lat="47.56066" lon="-2.71148">
        <ele>12.8</ele>
        <time>2026-08-29T15:19:45Z</time>
      </trkpt>
      <trkpt lat="47.56073" lon="-2.71145">
        <ele>12.6</ele>
        <time>2026-08-29T15:19:46Z</time>
      </trkpt>
      <trkpt lat="47.56079" lon="-2.71142">
        <ele>12.3</ele>
        <time>2026-08-29T15:19:47Z</time>
      </trkpt>
      <trkpt lat="47.56085" lon="-2.71138">
        <ele>12.1</ele>
        <time>2026-08-29T15:19:48Z</time>
      </trkpt>
      <trkpt lat="47.56091" lon="-2.71135">
        <ele>12.2</ele>
        <time>2026-08-29T15:19:49Z</time>
      </trkpt>
      <trkpt lat="47.56097" lon="-2.71132">
        <ele>12.4</ele>
        <time>2026-08-29T15:19:50Z</time>
      </trkpt>
      <trkpt lat="47.56102" lon="-2.71129">
        <ele>12.5</ele>
        <time>2026-08-29T15:19:51Z</time>
      </trkpt>
      <trkpt lat="47.56107" lon="-2.71125">
        <ele>12.6</ele>
        <time>2026-08-29T15:19:52Z</time>
      </trkpt>
      <trkpt lat="47.56112" lon="-2.71122">
        <ele>12.6</ele>
        <time>2026-08-29T15:19:53Z</time>
      </trkpt>
      <trkpt lat="47.56117" lon="-2.71118">
        <ele>12.6</ele>
        <time>2026-08-29T15:19:54Z</time>
      </trkpt>
      <trkpt lat="47.56122" lon="-2.71115">
        <ele>12.5</ele>
        <time>2026-08-29T15:19:55Z</time>
      </trkpt>
      <trkpt lat="47.56127" lon="-2.71112">
        <ele>12.4</ele>
        <time>2026-08-29T15:19:56Z</time>
      </trkpt>
      <trkpt lat="47.56132" lon="-2.71108">
        <ele>12.3</ele>
        <time>2026-08-29T15:19:57Z</time>
      </trkpt>
      <trkpt lat="47.56137" lon="-2.71105">
        <ele>12.1</ele>
        <time>2026-08-29T15:19:58Z</time>
      </trkpt>
      <trkpt lat="47.56142" lon="-2.71101">
        <ele>12</ele>
        <time>2026-08-29T15:19:59Z</time>
      </trkpt>
      <trkpt lat="47.56147" lon="-2.71098">
        <ele>12.1</ele>
        <time>2026-08-29T15:20:00Z</time>
      </trkpt>
      <trkpt lat="47.56152" lon="-2.71094">
        <ele>12.3</ele>
        <time>2026-08-29T15:20:01Z</time>
      </trkpt>
      <trkpt lat="47.56157" lon="-2.71091">
        <ele>12.5</ele>
        <time>2026-08-29T15:20:02Z</time>
      </trkpt>
      <trkpt lat="47.56163" lon="-2.71087">
        <ele>12.8</ele>
        <time>2026-08-29T15:20:03Z</time>
      </trkpt>
      <trkpt lat="47.56168" lon="-2.71084">
        <ele>12.9</ele>
        <time>2026-08-29T15:20:04Z</time>
      </trkpt>
      <trkpt lat="47.56173" lon="-2.71081">
        <ele>12.8</ele>
        <time>2026-08-29T15:20:05Z</time>
      </trkpt>
      <trkpt lat="47.56178" lon="-2.71078">
        <ele>12.6</ele>
        <time>2026-08-29T15:20:06Z</time>
      </trkpt>
      <trkpt lat="47.56183" lon="-2.71075">
        <ele>12.4</ele>
        <time>2026-08-29T15:20:07Z</time>
      </trkpt>
      <trkpt lat="47.56188" lon="-2.71071">
        <ele>12.2</ele>
        <time>2026-08-29T15:20:08Z</time>
      </trkpt>
      <trkpt lat="47.56194" lon="-2.71068">
        <ele>12</ele>
        <time>2026-08-29T15:20:09Z</time>
      </trkpt>
      <trkpt lat="47.56199" lon="-2.71065">
        <ele>11.8</ele>
        <time>2026-08-29T15:20:10Z</time>
      </trkpt>
      <trkpt lat="47.56205" lon="-2.71061">
        <ele>11.6</ele>
        <time>2026-08-29T15:20:11Z</time>
      </trkpt>
      <trkpt lat="47.56211" lon="-2.71058">
        <ele>11.4</ele>
        <time>2026-08-29T15:20:12Z</time>
      </trkpt>
      <trkpt lat="47.56217" lon="-2.71054">
        <ele>11.2</ele>
        <time>2026-08-29T15:20:13Z</time>
      </trkpt>
      <trkpt lat="47.56223" lon="-2.7105">
        <ele>11</ele>
        <time>2026-08-29T15:20:14Z</time>
      </trkpt>
      <trkpt lat="47.56229" lon="-2.71046">
        <ele>11</ele>
        <time>2026-08-29T15:20:15Z</time>
      </trkpt>
      <trkpt lat="47.56235" lon="-2.71043">
        <ele>11</ele>
        <time>2026-08-29T15:20:16Z</time>
      </trkpt>
      <trkpt lat="47.56241" lon="-2.71039">
        <ele>11</ele>
        <time>2026-08-29T15:20:17Z</time>
      </trkpt>
      <trkpt lat="47.56247" lon="-2.71036">
        <ele>11</ele>
        <time>2026-08-29T15:20:18Z</time>
      </trkpt>
      <trkpt lat="47.56253" lon="-2.71033">
        <ele>10.9</ele>
        <time>2026-08-29T15:20:19Z</time>
      </trkpt>
      <trkpt lat="47.56259" lon="-2.71029">
        <ele>10.7</ele>
        <time>2026-08-29T15:20:20Z</time>
      </trkpt>
      <trkpt lat="47.56265" lon="-2.71025">
        <ele>10.5</ele>
        <time>2026-08-29T15:20:21Z</time>
      </trkpt>
      <trkpt lat="47.5627" lon="-2.71022">
        <ele>10.3</ele>
        <time>2026-08-29T15:20:22Z</time>
      </trkpt>
      <trkpt lat="47.56276" lon="-2.71019">
        <ele>10.1</ele>
        <time>2026-08-29T15:20:23Z</time>
      </trkpt>
      <trkpt lat="47.56282" lon="-2.71015">
        <ele>10.1</ele>
        <time>2026-08-29T15:20:24Z</time>
      </trkpt>
      <trkpt lat="47.56288" lon="-2.71012">
        <ele>10.2</ele>
        <time>2026-08-29T15:20:25Z</time>
      </trkpt>
      <trkpt lat="47.56293" lon="-2.71008">
        <ele>10.2</ele>
        <time>2026-08-29T15:20:26Z</time>
      </trkpt>
      <trkpt lat="47.56298" lon="-2.71005">
        <ele>10.1</ele>
        <time>2026-08-29T15:20:27Z</time>
      </trkpt>
      <trkpt lat="47.56303" lon="-2.71002">
        <ele>10.1</ele>
        <time>2026-08-29T15:20:28Z</time>
      </trkpt>
      <trkpt lat="47.56309" lon="-2.70998">
        <ele>10</ele>
        <time>2026-08-29T15:20:29Z</time>
      </trkpt>
      <trkpt lat="47.56315" lon="-2.70995">
        <ele>10</ele>
        <time>2026-08-29T15:20:30Z</time>
      </trkpt>
      <trkpt lat="47.56321" lon="-2.70991">
        <ele>10</ele>
        <time>2026-08-29T15:20:31Z</time>
      </trkpt>
      <trkpt lat="47.56326" lon="-2.70988">
        <ele>10</ele>
        <time>2026-08-29T15:20:32Z</time>
      </trkpt>
      <trkpt lat="47.56332" lon="-2.70985">
        <ele>10</ele>
        <time>2026-08-29T15:20:33Z</time>
      </trkpt>
      <trkpt lat="47.56338" lon="-2.70981">
        <ele>9.9</ele>
        <time>2026-08-29T15:20:34Z</time>
      </trkpt>
      <trkpt lat="47.56343" lon="-2.70977">
        <ele>9.7</ele>
        <time>2026-08-29T15:20:35Z</time>
      </trkpt>
      <trkpt lat="47.56349" lon="-2.70975">
        <ele>9.5</ele>
        <time>2026-08-29T15:20:36Z</time>
      </trkpt>
      <trkpt lat="47.56355" lon="-2.70972">
        <ele>9.2</ele>
        <time>2026-08-29T15:20:37Z</time>
      </trkpt>
      <trkpt lat="47.5636" lon="-2.70969">
        <ele>9.2</ele>
        <time>2026-08-29T15:20:38Z</time>
      </trkpt>
      <trkpt lat="47.56366" lon="-2.70965">
        <ele>9.3</ele>
        <time>2026-08-29T15:20:39Z</time>
      </trkpt>
      <trkpt lat="47.56372" lon="-2.70962">
        <ele>9.5</ele>
        <time>2026-08-29T15:20:40Z</time>
      </trkpt>
      <trkpt lat="47.56377" lon="-2.70959">
        <ele>9.5</ele>
        <time>2026-08-29T15:20:41Z</time>
      </trkpt>
      <trkpt lat="47.56382" lon="-2.70955">
        <ele>9.4</ele>
        <time>2026-08-29T15:20:42Z</time>
      </trkpt>
      <trkpt lat="47.56388" lon="-2.70952">
        <ele>9.3</ele>
        <time>2026-08-29T15:20:43Z</time>
      </trkpt>
      <trkpt lat="47.56393" lon="-2.70949">
        <ele>9.1</ele>
        <time>2026-08-29T15:20:44Z</time>
      </trkpt>
      <trkpt lat="47.56398" lon="-2.70946">
        <ele>9</ele>
        <time>2026-08-29T15:20:45Z</time>
      </trkpt>
      <trkpt lat="47.56404" lon="-2.70942">
        <ele>9</ele>
        <time>2026-08-29T15:20:46Z</time>
      </trkpt>
      <trkpt lat="47.56409" lon="-2.70938">
        <ele>8.8</ele>
        <time>2026-08-29T15:20:47Z</time>
      </trkpt>
      <trkpt lat="47.56414" lon="-2.70935">
        <ele>8.7</ele>
        <time>2026-08-29T15:20:48Z</time>
      </trkpt>
      <trkpt lat="47.5642" lon="-2.70931">
        <ele>8.5</ele>
        <time>2026-08-29T15:20:49Z</time>
      </trkpt>
      <trkpt lat="47.56426" lon="-2.70927">
        <ele>8.4</ele>
        <time>2026-08-29T15:20:50Z</time>
      </trkpt>
      <trkpt lat="47.56432" lon="-2.70924">
        <ele>8.3</ele>
        <time>2026-08-29T15:20:51Z</time>
      </trkpt>
      <trkpt lat="47.56438" lon="-2.70921">
        <ele>8.2</ele>
        <time>2026-08-29T15:20:52Z</time>
      </trkpt>
      <trkpt lat="47.56443" lon="-2.70918">
        <ele>8</ele>
        <time>2026-08-29T15:20:53Z</time>
      </trkpt>
      <trkpt lat="47.56449" lon="-2.70914">
        <ele>8.1</ele>
        <time>2026-08-29T15:20:54Z</time>
      </trkpt>
      <trkpt lat="47.56455" lon="-2.7091">
        <ele>8.3</ele>
        <time>2026-08-29T15:20:55Z</time>
      </trkpt>
      <trkpt lat="47.56461" lon="-2.70906">
        <ele>8.4</ele>
        <time>2026-08-29T15:20:56Z</time>
      </trkpt>
      <trkpt lat="47.56466" lon="-2.70903">
        <ele>8.4</ele>
        <time>2026-08-29T15:20:57Z</time>
      </trkpt>
      <trkpt lat="47.56472" lon="-2.70899">
        <ele>8.4</ele>
        <time>2026-08-29T15:20:58Z</time>
      </trkpt>
      <trkpt lat="47.56477" lon="-2.70896">
        <ele>8.4</ele>
        <time>2026-08-29T15:20:59Z</time>
      </trkpt>
      <trkpt lat="47.56483" lon="-2.70892">
        <ele>8.5</ele>
        <time>2026-08-29T15:21:00Z</time>
      </trkpt>
      <trkpt lat="47.56488" lon="-2.70889">
        <ele>8.6</ele>
        <time>2026-08-29T15:21:01Z</time>
      </trkpt>
      <trkpt lat="47.56494" lon="-2.70885">
        <ele>8.8</ele>
        <time>2026-08-29T15:21:02Z</time>
      </trkpt>
      <trkpt lat="47.56499" lon="-2.70882">
        <ele>9</ele>
        <time>2026-08-29T15:21:03Z</time>
      </trkpt>
      <trkpt lat="47.56504" lon="-2.70879">
        <ele>9</ele>
        <time>2026-08-29T15:21:04Z</time>
      </trkpt>
      <trkpt lat="47.5651" lon="-2.70876">
        <ele>9</ele>
        <time>2026-08-29T15:21:05Z</time>
      </trkpt>
      <trkpt lat="47.56515" lon="-2.70873">
        <ele>9</ele>
        <time>2026-08-29T15:21:06Z</time>
      </trkpt>
      <trkpt lat="47.5652" lon="-2.70869">
        <ele>9</ele>
        <time>2026-08-29T15:21:07Z</time>
      </trkpt>
      <trkpt lat="47.56525" lon="-2.70866">
        <ele>9</ele>
        <time>2026-08-29T15:21:08Z</time>
      </trkpt>
      <trkpt lat="47.56531" lon="-2.70864">
        <ele>9</ele>
        <time>2026-08-29T15:21:09Z</time>
      </trkpt>
      <trkpt lat="47.56536" lon="-2.7086">
        <ele>9</ele>
        <time>2026-08-29T15:21:10Z</time>
      </trkpt>
      <trkpt lat="47.56541" lon="-2.70857">
        <ele>9</ele>
        <time>2026-08-29T15:21:11Z</time>
      </trkpt>
      <trkpt lat="47.56546" lon="-2.70853">
        <ele>9</ele>
        <time>2026-08-29T15:21:12Z</time>
      </trkpt>
      <trkpt lat="47.56551" lon="-2.7085">
        <ele>9</ele>
        <time>2026-08-29T15:21:13Z</time>
      </trkpt>
      <trkpt lat="47.56556" lon="-2.70847">
        <ele>9</ele>
        <time>2026-08-29T15:21:14Z</time>
      </trkpt>
      <trkpt lat="47.56561" lon="-2.70844">
        <ele>9</ele>
        <time>2026-08-29T15:21:15Z</time>
      </trkpt>
      <trkpt lat="47.56566" lon="-2.70841">
        <ele>9</ele>
        <time>2026-08-29T15:21:16Z</time>
      </trkpt>
      <trkpt lat="47.56571" lon="-2.70838">
        <ele>9</ele>
        <time>2026-08-29T15:21:17Z</time>
      </trkpt>
      <trkpt lat="47.56577" lon="-2.70835">
        <ele>9</ele>
        <time>2026-08-29T15:21:18Z</time>
      </trkpt>
      <trkpt lat="47.56581" lon="-2.70832">
        <ele>9</ele>
        <time>2026-08-29T15:21:19Z</time>
      </trkpt>
      <trkpt lat="47.56586" lon="-2.7083">
        <ele>9.1</ele>
        <time>2026-08-29T15:21:20Z</time>
      </trkpt>
      <trkpt lat="47.56591" lon="-2.70828">
        <ele>9.2</ele>
        <time>2026-08-29T15:21:21Z</time>
      </trkpt>
      <trkpt lat="47.56596" lon="-2.70825">
        <ele>9.3</ele>
        <time>2026-08-29T15:21:22Z</time>
      </trkpt>
      <trkpt lat="47.566" lon="-2.70821">
        <ele>9.4</ele>
        <time>2026-08-29T15:21:23Z</time>
      </trkpt>
      <trkpt lat="47.56605" lon="-2.70818">
        <ele>9.6</ele>
        <time>2026-08-29T15:21:24Z</time>
      </trkpt>
      <trkpt lat="47.5661" lon="-2.70814">
        <ele>9.7</ele>
        <time>2026-08-29T15:21:25Z</time>
      </trkpt>
      <trkpt lat="47.56615" lon="-2.7081">
        <ele>9.9</ele>
        <time>2026-08-29T15:21:26Z</time>
      </trkpt>
      <trkpt lat="47.5662" lon="-2.70806">
        <ele>10</ele>
        <time>2026-08-29T15:21:27Z</time>
      </trkpt>
      <trkpt lat="47.56625" lon="-2.70801">
        <ele>10.2</ele>
        <time>2026-08-29T15:21:28Z</time>
      </trkpt>
      <trkpt lat="47.56629" lon="-2.70796">
        <ele>10.3</ele>
        <time>2026-08-29T15:21:29Z</time>
      </trkpt>
      <trkpt lat="47.56634" lon="-2.70792">
        <ele>10.5</ele>
        <time>2026-08-29T15:21:30Z</time>
      </trkpt>
      <trkpt lat="47.56638" lon="-2.70787">
        <ele>10.7</ele>
        <time>2026-08-29T15:21:31Z</time>
      </trkpt>
      <trkpt lat="47.56642" lon="-2.70782">
        <ele>10.9</ele>
        <time>2026-08-29T15:21:32Z</time>
      </trkpt>
      <trkpt lat="47.56646" lon="-2.70778">
        <ele>11</ele>
        <time>2026-08-29T15:21:33Z</time>
      </trkpt>
      <trkpt lat="47.5665" lon="-2.70773">
        <ele>10.9</ele>
        <time>2026-08-29T15:21:34Z</time>
      </trkpt>
      <trkpt lat="47.56654" lon="-2.70768">
        <ele>10.8</ele>
        <time>2026-08-29T15:21:35Z</time>
      </trkpt>
      <trkpt lat="47.56658" lon="-2.70764">
        <ele>10.7</ele>
        <time>2026-08-29T15:21:36Z</time>
      </trkpt>
      <trkpt lat="47.56662" lon="-2.70759">
        <ele>10.4</ele>
        <time>2026-08-29T15:21:37Z</time>
      </trkpt>
      <trkpt lat="47.56666" lon="-2.70754">
        <ele>10.2</ele>
        <time>2026-08-29T15:21:38Z</time>
      </trkpt>
      <trkpt lat="47.56669" lon="-2.70749">
        <ele>10.1</ele>
        <time>2026-08-29T15:21:39Z</time>
      </trkpt>
      <trkpt lat="47.56673" lon="-2.70744">
        <ele>10.4</ele>
        <time>2026-08-29T15:21:40Z</time>
      </trkpt>
      <trkpt lat="47.56677" lon="-2.7074">
        <ele>10.6</ele>
        <time>2026-08-29T15:21:41Z</time>
      </trkpt>
      <trkpt lat="47.56681" lon="-2.70735">
        <ele>10.8</ele>
        <time>2026-08-29T15:21:42Z</time>
      </trkpt>
      <trkpt lat="47.56684" lon="-2.7073">
        <ele>10.9</ele>
        <time>2026-08-29T15:21:43Z</time>
      </trkpt>
      <trkpt lat="47.56688" lon="-2.70726">
        <ele>11</ele>
        <time>2026-08-29T15:21:44Z</time>
      </trkpt>
      <trkpt lat="47.56692" lon="-2.70721">
        <ele>11</ele>
        <time>2026-08-29T15:21:45Z</time>
      </trkpt>
      <trkpt lat="47.56695" lon="-2.70717">
        <ele>11.2</ele>
        <time>2026-08-29T15:21:46Z</time>
      </trkpt>
      <trkpt lat="47.56699" lon="-2.70712">
        <ele>11.5</ele>
        <time>2026-08-29T15:21:47Z</time>
      </trkpt>
      <trkpt lat="47.56702" lon="-2.70708">
        <ele>11.6</ele>
        <time>2026-08-29T15:21:48Z</time>
      </trkpt>
      <trkpt lat="47.56705" lon="-2.70703">
        <ele>11.8</ele>
        <time>2026-08-29T15:21:49Z</time>
      </trkpt>
      <trkpt lat="47.56709" lon="-2.70698">
        <ele>11.9</ele>
        <time>2026-08-29T15:21:50Z</time>
      </trkpt>
      <trkpt lat="47.56712" lon="-2.70693">
        <ele>12</ele>
        <time>2026-08-29T15:21:51Z</time>
      </trkpt>
      <trkpt lat="47.56714" lon="-2.70688">
        <ele>12</ele>
        <time>2026-08-29T15:21:52Z</time>
      </trkpt>
      <trkpt lat="47.56716" lon="-2.70682">
        <ele>12</ele>
        <time>2026-08-29T15:21:53Z</time>
      </trkpt>
      <trkpt lat="47.56718" lon="-2.70676">
        <ele>12</ele>
        <time>2026-08-29T15:21:54Z</time>
      </trkpt>
      <trkpt lat="47.56719" lon="-2.7067">
        <ele>12</ele>
        <time>2026-08-29T15:21:55Z</time>
      </trkpt>
      <trkpt lat="47.56719" lon="-2.70665">
        <ele>12</ele>
        <time>2026-08-29T15:21:56Z</time>
      </trkpt>
      <trkpt lat="47.56721" lon="-2.7066">
        <ele>12</ele>
        <time>2026-08-29T15:21:57Z</time>
      </trkpt>
      <trkpt lat="47.56723" lon="-2.70655">
        <ele>12</ele>
        <time>2026-08-29T15:21:58Z</time>
      </trkpt>
      <trkpt lat="47.56725" lon="-2.70651">
        <ele>12</ele>
        <time>2026-08-29T15:21:59Z</time>
      </trkpt>
      <trkpt lat="47.56727" lon="-2.70647">
        <ele>12.1</ele>
        <time>2026-08-29T15:22:00Z</time>
      </trkpt>
      <trkpt lat="47.5673" lon="-2.70643">
        <ele>12</ele>
        <time>2026-08-29T15:22:01Z</time>
      </trkpt>
      <trkpt lat="47.56732" lon="-2.70639">
        <ele>12</ele>
        <time>2026-08-29T15:22:02Z</time>
      </trkpt>
      <trkpt lat="47.56735" lon="-2.70636">
        <ele>12.1</ele>
        <time>2026-08-29T15:22:03Z</time>
      </trkpt>
      <trkpt lat="47.56738" lon="-2.70634">
        <ele>12.1</ele>
        <time>2026-08-29T15:22:04Z</time>
      </trkpt>
      <trkpt lat="47.56742" lon="-2.70633">
        <ele>12.1</ele>
        <time>2026-08-29T15:22:05Z</time>
      </trkpt>
      <trkpt lat="47.56745" lon="-2.7063">
        <ele>12.1</ele>
        <time>2026-08-29T15:22:06Z</time>
      </trkpt>
      <trkpt lat="47.56747" lon="-2.70627">
        <ele>12</ele>
        <time>2026-08-29T15:22:07Z</time>
      </trkpt>
      <trkpt lat="47.5675" lon="-2.70624">
        <ele>12</ele>
        <time>2026-08-29T15:22:08Z</time>
      </trkpt>
      <trkpt lat="47.56753" lon="-2.70622">
        <ele>12</ele>
        <time>2026-08-29T15:22:09Z</time>
      </trkpt>
      <trkpt lat="47.56756" lon="-2.70622">
        <ele>12</ele>
        <time>2026-08-29T15:22:10Z</time>
      </trkpt>
      <trkpt lat="47.5676" lon="-2.70624">
        <ele>12</ele>
        <time>2026-08-29T15:22:11Z</time>
      </trkpt>
      <trkpt lat="47.56763" lon="-2.70626">
        <ele>12</ele>
        <time>2026-08-29T15:22:12Z</time>
      </trkpt>
      <trkpt lat="47.56767" lon="-2.70628">
        <ele>12</ele>
        <time>2026-08-29T15:22:13Z</time>
      </trkpt>
      <trkpt lat="47.5677" lon="-2.7063">
        <ele>12</ele>
        <time>2026-08-29T15:22:14Z</time>
      </trkpt>
      <trkpt lat="47.56772" lon="-2.70632">
        <ele>12</ele>
        <time>2026-08-29T15:22:15Z</time>
      </trkpt>
      <trkpt lat="47.56774" lon="-2.70636">
        <ele>12</ele>
        <time>2026-08-29T15:22:16Z</time>
      </trkpt>
      <trkpt lat="47.56776" lon="-2.7064">
        <ele>12</ele>
        <time>2026-08-29T15:22:17Z</time>
      </trkpt>
      <trkpt lat="47.56777" lon="-2.70644">
        <ele>12</ele>
        <time>2026-08-29T15:22:18Z</time>
      </trkpt>
      <trkpt lat="47.56777" lon="-2.70648">
        <ele>12</ele>
        <time>2026-08-29T15:22:19Z</time>
      </trkpt>
      <trkpt lat="47.56777" lon="-2.70653">
        <ele>12</ele>
        <time>2026-08-29T15:22:20Z</time>
      </trkpt>
      <trkpt lat="47.56776" lon="-2.70657">
        <ele>12</ele>
        <time>2026-08-29T15:22:21Z</time>
      </trkpt>
      <trkpt lat="47.56776" lon="-2.70662">
        <ele>12.1</ele>
        <time>2026-08-29T15:22:22Z</time>
      </trkpt>
      <trkpt lat="47.56776" lon="-2.70667">
        <ele>12.1</ele>
        <time>2026-08-29T15:22:23Z</time>
      </trkpt>
      <trkpt lat="47.56776" lon="-2.70673">
        <ele>12</ele>
        <time>2026-08-29T15:22:24Z</time>
      </trkpt>
      <trkpt lat="47.56777" lon="-2.70678">
        <ele>12</ele>
        <time>2026-08-29T15:22:25Z</time>
      </trkpt>
      <trkpt lat="47.56777" lon="-2.70683">
        <ele>12</ele>
        <time>2026-08-29T15:22:26Z</time>
      </trkpt>
      <trkpt lat="47.56779" lon="-2.70687">
        <ele>12</ele>
        <time>2026-08-29T15:22:27Z</time>
      </trkpt>
      <trkpt lat="47.56782" lon="-2.7069">
        <ele>12</ele>
        <time>2026-08-29T15:22:28Z</time>
      </trkpt>
      <trkpt lat="47.56785" lon="-2.70691">
        <ele>12</ele>
        <time>2026-08-29T15:22:29Z</time>
      </trkpt>
      <trkpt lat="47.56789" lon="-2.7069">
        <ele>12</ele>
        <time>2026-08-29T15:22:30Z</time>
      </trkpt>
      <trkpt lat="47.56793" lon="-2.70689">
        <ele>12</ele>
        <time>2026-08-29T15:22:31Z</time>
      </trkpt>
      <trkpt lat="47.56798" lon="-2.70688">
        <ele>12</ele>
        <time>2026-08-29T15:22:32Z</time>
      </trkpt>
      <trkpt lat="47.56802" lon="-2.70687">
        <ele>12</ele>
        <time>2026-08-29T15:22:33Z</time>
      </trkpt>
      <trkpt lat="47.56807" lon="-2.70686">
        <ele>11.9</ele>
        <time>2026-08-29T15:22:34Z</time>
      </trkpt>
      <trkpt lat="47.56811" lon="-2.70686">
        <ele>11.8</ele>
        <time>2026-08-29T15:22:35Z</time>
      </trkpt>
      <trkpt lat="47.56815" lon="-2.70688">
        <ele>11.7</ele>
        <time>2026-08-29T15:22:36Z</time>
      </trkpt>
      <trkpt lat="47.56819" lon="-2.70692">
        <ele>11.5</ele>
        <time>2026-08-29T15:22:37Z</time>
      </trkpt>
      <trkpt lat="47.56822" lon="-2.70697">
        <ele>11.4</ele>
        <time>2026-08-29T15:22:38Z</time>
      </trkpt>
      <trkpt lat="47.56824" lon="-2.70703">
        <ele>11.2</ele>
        <time>2026-08-29T15:22:39Z</time>
      </trkpt>
      <trkpt lat="47.56826" lon="-2.70708">
        <ele>11.1</ele>
        <time>2026-08-29T15:22:40Z</time>
      </trkpt>
      <trkpt lat="47.56829" lon="-2.70712">
        <ele>11.1</ele>
        <time>2026-08-29T15:22:41Z</time>
      </trkpt>
      <trkpt lat="47.56832" lon="-2.70714">
        <ele>11</ele>
        <time>2026-08-29T15:22:42Z</time>
      </trkpt>
      <trkpt lat="47.56836" lon="-2.70714">
        <ele>11</ele>
        <time>2026-08-29T15:22:43Z</time>
      </trkpt>
      <trkpt lat="47.5684" lon="-2.70711">
        <ele>11</ele>
        <time>2026-08-29T15:22:44Z</time>
      </trkpt>
      <trkpt lat="47.56843" lon="-2.70707">
        <ele>11</ele>
        <time>2026-08-29T15:22:45Z</time>
      </trkpt>
      <trkpt lat="47.56847" lon="-2.70704">
        <ele>11</ele>
        <time>2026-08-29T15:22:46Z</time>
      </trkpt>
      <trkpt lat="47.56851" lon="-2.70701">
        <ele>11</ele>
        <time>2026-08-29T15:22:47Z</time>
      </trkpt>
      <trkpt lat="47.56855" lon="-2.70699">
        <ele>11</ele>
        <time>2026-08-29T15:22:48Z</time>
      </trkpt>
      <trkpt lat="47.5686" lon="-2.70697">
        <ele>11</ele>
        <time>2026-08-29T15:22:49Z</time>
      </trkpt>
      <trkpt lat="47.56865" lon="-2.70695">
        <ele>11</ele>
        <time>2026-08-29T15:22:50Z</time>
      </trkpt>
      <trkpt lat="47.56869" lon="-2.70694">
        <ele>11</ele>
        <time>2026-08-29T15:22:51Z</time>
      </trkpt>
      <trkpt lat="47.56874" lon="-2.70693">
        <ele>11</ele>
        <time>2026-08-29T15:22:52Z</time>
      </trkpt>
      <trkpt lat="47.56879" lon="-2.70692">
        <ele>11</ele>
        <time>2026-08-29T15:22:53Z</time>
      </trkpt>
      <trkpt lat="47.56884" lon="-2.7069">
        <ele>11</ele>
        <time>2026-08-29T15:22:54Z</time>
      </trkpt>
      <trkpt lat="47.56889" lon="-2.70689">
        <ele>11</ele>
        <time>2026-08-29T15:22:55Z</time>
      </trkpt>
      <trkpt lat="47.56894" lon="-2.70687">
        <ele>11</ele>
        <time>2026-08-29T15:22:56Z</time>
      </trkpt>
      <trkpt lat="47.56899" lon="-2.70686">
        <ele>11</ele>
        <time>2026-08-29T15:22:57Z</time>
      </trkpt>
      <trkpt lat="47.56904" lon="-2.70685">
        <ele>11</ele>
        <time>2026-08-29T15:22:58Z</time>
      </trkpt>
      <trkpt lat="47.5691" lon="-2.70684">
        <ele>11</ele>
        <time>2026-08-29T15:22:59Z</time>
      </trkpt>
      <trkpt lat="47.56915" lon="-2.70684">
        <ele>11</ele>
        <time>2026-08-29T15:23:00Z</time>
      </trkpt>
      <trkpt lat="47.5692" lon="-2.70684">
        <ele>11</ele>
        <time>2026-08-29T15:23:01Z</time>
      </trkpt>
      <trkpt lat="47.56925" lon="-2.70685">
        <ele>11</ele>
        <time>2026-08-29T15:23:02Z</time>
      </trkpt>
      <trkpt lat="47.5693" lon="-2.70686">
        <ele>11</ele>
        <time>2026-08-29T15:23:03Z</time>
      </trkpt>
      <trkpt lat="47.56935" lon="-2.70687">
        <ele>11</ele>
        <time>2026-08-29T15:23:04Z</time>
      </trkpt>
      <trkpt lat="47.5694" lon="-2.70688">
        <ele>11</ele>
        <time>2026-08-29T15:23:05Z</time>
      </trkpt>
      <trkpt lat="47.56945" lon="-2.7069">
        <ele>11</ele>
        <time>2026-08-29T15:23:06Z</time>
      </trkpt>
      <trkpt lat="47.56949" lon="-2.70692">
        <ele>11</ele>
        <time>2026-08-29T15:23:07Z</time>
      </trkpt>
      <trkpt lat="47.56954" lon="-2.70694">
        <ele>11</ele>
        <time>2026-08-29T15:23:08Z</time>
      </trkpt>
      <trkpt lat="47.56959" lon="-2.70696">
        <ele>11</ele>
        <time>2026-08-29T15:23:09Z</time>
      </trkpt>
      <trkpt lat="47.56963" lon="-2.70698">
        <ele>10.9</ele>
        <time>2026-08-29T15:23:10Z</time>
      </trkpt>
      <trkpt lat="47.56968" lon="-2.707">
        <ele>10.8</ele>
        <time>2026-08-29T15:23:11Z</time>
      </trkpt>
      <trkpt lat="47.56972" lon="-2.70703">
        <ele>10.7</ele>
        <time>2026-08-29T15:23:12Z</time>
      </trkpt>
      <trkpt lat="47.56976" lon="-2.70705">
        <ele>10.5</ele>
        <time>2026-08-29T15:23:13Z</time>
      </trkpt>
      <trkpt lat="47.56981" lon="-2.70707">
        <ele>10.4</ele>
        <time>2026-08-29T15:23:14Z</time>
      </trkpt>
      <trkpt lat="47.56985" lon="-2.70709">
        <ele>10.3</ele>
        <time>2026-08-29T15:23:15Z</time>
      </trkpt>
      <trkpt lat="47.5699" lon="-2.70711">
        <ele>10.1</ele>
        <time>2026-08-29T15:23:16Z</time>
      </trkpt>
      <trkpt lat="47.56995" lon="-2.70714">
        <ele>10.1</ele>
        <time>2026-08-29T15:23:17Z</time>
      </trkpt>
      <trkpt lat="47.57" lon="-2.70716">
        <ele>10</ele>
        <time>2026-08-29T15:23:18Z</time>
      </trkpt>
      <trkpt lat="47.57005" lon="-2.70719">
        <ele>10</ele>
        <time>2026-08-29T15:23:19Z</time>
      </trkpt>
      <trkpt lat="47.5701" lon="-2.70721">
        <ele>10</ele>
        <time>2026-08-29T15:23:20Z</time>
      </trkpt>
      <trkpt lat="47.57015" lon="-2.70724">
        <ele>10</ele>
        <time>2026-08-29T15:23:21Z</time>
      </trkpt>
      <trkpt lat="47.5702" lon="-2.70727">
        <ele>10</ele>
        <time>2026-08-29T15:23:22Z</time>
      </trkpt>
      <trkpt lat="47.57025" lon="-2.7073">
        <ele>10</ele>
        <time>2026-08-29T15:23:23Z</time>
      </trkpt>
      <trkpt lat="47.5703" lon="-2.70733">
        <ele>10</ele>
        <time>2026-08-29T15:23:24Z</time>
      </trkpt>
      <trkpt lat="47.57034" lon="-2.70735">
        <ele>9.9</ele>
        <time>2026-08-29T15:23:25Z</time>
      </trkpt>
      <trkpt lat="47.57039" lon="-2.70738">
        <ele>9.8</ele>
        <time>2026-08-29T15:23:26Z</time>
      </trkpt>
      <trkpt lat="47.57044" lon="-2.70741">
        <ele>9.6</ele>
        <time>2026-08-29T15:23:27Z</time>
      </trkpt>
      <trkpt lat="47.57049" lon="-2.70744">
        <ele>9.4</ele>
        <time>2026-08-29T15:23:28Z</time>
      </trkpt>
      <trkpt lat="47.57054" lon="-2.70747">
        <ele>9.2</ele>
        <time>2026-08-29T15:23:29Z</time>
      </trkpt>
      <trkpt lat="47.57059" lon="-2.7075">
        <ele>9</ele>
        <time>2026-08-29T15:23:30Z</time>
      </trkpt>
      <trkpt lat="47.57064" lon="-2.70753">
        <ele>9</ele>
        <time>2026-08-29T15:23:31Z</time>
      </trkpt>
      <trkpt lat="47.57069" lon="-2.70756">
        <ele>9</ele>
        <time>2026-08-29T15:23:32Z</time>
      </trkpt>
      <trkpt lat="47.57075" lon="-2.70758">
        <ele>9</ele>
        <time>2026-08-29T15:23:33Z</time>
      </trkpt>
      <trkpt lat="47.5708" lon="-2.7076">
        <ele>9</ele>
        <time>2026-08-29T15:23:34Z</time>
      </trkpt>
      <trkpt lat="47.57086" lon="-2.70763">
        <ele>9</ele>
        <time>2026-08-29T15:23:35Z</time>
      </trkpt>
      <trkpt lat="47.57092" lon="-2.70766">
        <ele>9</ele>
        <time>2026-08-29T15:23:36Z</time>
      </trkpt>
      <trkpt lat="47.57098" lon="-2.7077">
        <ele>9</ele>
        <time>2026-08-29T15:23:37Z</time>
      </trkpt>
      <trkpt lat="47.57103" lon="-2.70774">
        <ele>9</ele>
        <time>2026-08-29T15:23:38Z</time>
      </trkpt>
      <trkpt lat="47.57108" lon="-2.70778">
        <ele>9</ele>
        <time>2026-08-29T15:23:39Z</time>
      </trkpt>
      <trkpt lat="47.57114" lon="-2.70781">
        <ele>8.9</ele>
        <time>2026-08-29T15:23:40Z</time>
      </trkpt>
      <trkpt lat="47.57119" lon="-2.70785">
        <ele>8.7</ele>
        <time>2026-08-29T15:23:41Z</time>
      </trkpt>
      <trkpt lat="47.57124" lon="-2.70789">
        <ele>8.5</ele>
        <time>2026-08-29T15:23:42Z</time>
      </trkpt>
      <trkpt lat="47.57129" lon="-2.70794">
        <ele>8.4</ele>
        <time>2026-08-29T15:23:43Z</time>
      </trkpt>
      <trkpt lat="47.57134" lon="-2.70798">
        <ele>8.2</ele>
        <time>2026-08-29T15:23:44Z</time>
      </trkpt>
      <trkpt lat="47.57139" lon="-2.70803">
        <ele>8</ele>
        <time>2026-08-29T15:23:45Z</time>
      </trkpt>
      <trkpt lat="47.57144" lon="-2.70807">
        <ele>8</ele>
        <time>2026-08-29T15:23:46Z</time>
      </trkpt>
      <trkpt lat="47.57149" lon="-2.70812">
        <ele>7.9</ele>
        <time>2026-08-29T15:23:47Z</time>
      </trkpt>
      <trkpt lat="47.57153" lon="-2.70817">
        <ele>7.8</ele>
        <time>2026-08-29T15:23:48Z</time>
      </trkpt>
      <trkpt lat="47.57158" lon="-2.70822">
        <ele>7.6</ele>
        <time>2026-08-29T15:23:49Z</time>
      </trkpt>
      <trkpt lat="47.57162" lon="-2.70827">
        <ele>7.4</ele>
        <time>2026-08-29T15:23:50Z</time>
      </trkpt>
      <trkpt lat="47.57166" lon="-2.70832">
        <ele>7.1</ele>
        <time>2026-08-29T15:23:51Z</time>
      </trkpt>
      <trkpt lat="47.5717" lon="-2.70838">
        <ele>7.2</ele>
        <time>2026-08-29T15:23:52Z</time>
      </trkpt>
      <trkpt lat="47.57174" lon="-2.70843">
        <ele>7.4</ele>
        <time>2026-08-29T15:23:53Z</time>
      </trkpt>
      <trkpt lat="47.57178" lon="-2.70848">
        <ele>7.5</ele>
        <time>2026-08-29T15:23:54Z</time>
      </trkpt>
      <trkpt lat="47.57183" lon="-2.70853">
        <ele>7.5</ele>
        <time>2026-08-29T15:23:55Z</time>
      </trkpt>
      <trkpt lat="47.57187" lon="-2.70858">
        <ele>7.3</ele>
        <time>2026-08-29T15:23:56Z</time>
      </trkpt>
      <trkpt lat="47.57191" lon="-2.70863">
        <ele>7.1</ele>
        <time>2026-08-29T15:23:57Z</time>
      </trkpt>
      <trkpt lat="47.57196" lon="-2.70869">
        <ele>7</ele>
        <time>2026-08-29T15:23:58Z</time>
      </trkpt>
      <trkpt lat="47.572" lon="-2.70874">
        <ele>7</ele>
        <time>2026-08-29T15:23:59Z</time>
      </trkpt>
      <trkpt lat="47.57204" lon="-2.7088">
        <ele>7</ele>
        <time>2026-08-29T15:24:00Z</time>
      </trkpt>
      <trkpt lat="47.57208" lon="-2.70885">
        <ele>7</ele>
        <time>2026-08-29T15:24:01Z</time>
      </trkpt>
      <trkpt lat="47.57213" lon="-2.7089">
        <ele>7</ele>
        <time>2026-08-29T15:24:02Z</time>
      </trkpt>
      <trkpt lat="47.57217" lon="-2.70895">
        <ele>7</ele>
        <time>2026-08-29T15:24:03Z</time>
      </trkpt>
      <trkpt lat="47.57222" lon="-2.70901">
        <ele>7</ele>
        <time>2026-08-29T15:24:04Z</time>
      </trkpt>
      <trkpt lat="47.57226" lon="-2.70906">
        <ele>7</ele>
        <time>2026-08-29T15:24:05Z</time>
      </trkpt>
      <trkpt lat="47.57229" lon="-2.70911">
        <ele>7</ele>
        <time>2026-08-29T15:24:06Z</time>
      </trkpt>
      <trkpt lat="47.57233" lon="-2.70917">
        <ele>7</ele>
        <time>2026-08-29T15:24:07Z</time>
      </trkpt>
      <trkpt lat="47.57237" lon="-2.70923">
        <ele>7.1</ele>
        <time>2026-08-29T15:24:08Z</time>
      </trkpt>
      <trkpt lat="47.57241" lon="-2.70928">
        <ele>7.1</ele>
        <time>2026-08-29T15:24:09Z</time>
      </trkpt>
      <trkpt lat="47.57244" lon="-2.70934">
        <ele>7.1</ele>
        <time>2026-08-29T15:24:10Z</time>
      </trkpt>
      <trkpt lat="47.57247" lon="-2.70939">
        <ele>7.1</ele>
        <time>2026-08-29T15:24:11Z</time>
      </trkpt>
      <trkpt lat="47.57251" lon="-2.70945">
        <ele>7</ele>
        <time>2026-08-29T15:24:12Z</time>
      </trkpt>
      <trkpt lat="47.57254" lon="-2.7095">
        <ele>7</ele>
        <time>2026-08-29T15:24:13Z</time>
      </trkpt>
      <trkpt lat="47.57257" lon="-2.70955">
        <ele>7</ele>
        <time>2026-08-29T15:24:14Z</time>
      </trkpt>
      <trkpt lat="47.57259" lon="-2.70961">
        <ele>7</ele>
        <time>2026-08-29T15:24:15Z</time>
      </trkpt>
      <trkpt lat="47.57262" lon="-2.70966">
        <ele>7</ele>
        <time>2026-08-29T15:24:16Z</time>
      </trkpt>
      <trkpt lat="47.57264" lon="-2.70971">
        <ele>7</ele>
        <time>2026-08-29T15:24:17Z</time>
      </trkpt>
      <trkpt lat="47.57266" lon="-2.70975">
        <ele>7.1</ele>
        <time>2026-08-29T15:24:18Z</time>
      </trkpt>
      <trkpt lat="47.57269" lon="-2.70979">
        <ele>7.2</ele>
        <time>2026-08-29T15:24:19Z</time>
      </trkpt>
      <trkpt lat="47.57271" lon="-2.70983">
        <ele>7.2</ele>
        <time>2026-08-29T15:24:20Z</time>
      </trkpt>
      <trkpt lat="47.57273" lon="-2.70986">
        <ele>7.2</ele>
        <time>2026-08-29T15:24:21Z</time>
      </trkpt>
      <trkpt lat="47.57275" lon="-2.70989">
        <ele>7.1</ele>
        <time>2026-08-29T15:24:22Z</time>
      </trkpt>
      <trkpt lat="47.57278" lon="-2.70992">
        <ele>7</ele>
        <time>2026-08-29T15:24:23Z</time>
      </trkpt>
      <trkpt lat="47.5728" lon="-2.70994">
        <ele>7</ele>
        <time>2026-08-29T15:24:24Z</time>
      </trkpt>
      <trkpt lat="47.57282" lon="-2.70996">
        <ele>7</ele>
        <time>2026-08-29T15:24:25Z</time>
      </trkpt>
      <trkpt lat="47.57283" lon="-2.70999">
        <ele>7</ele>
        <time>2026-08-29T15:24:26Z</time>
      </trkpt>
      <trkpt lat="47.57284" lon="-2.71001">
        <ele>7</ele>
        <time>2026-08-29T15:24:27Z</time>
      </trkpt>
      <trkpt lat="47.57284" lon="-2.71003">
        <ele>7.1</ele>
        <time>2026-08-29T15:24:28Z</time>
      </trkpt>
      <trkpt lat="47.57283" lon="-2.71004">
        <ele>7.1</ele>
        <time>2026-08-29T15:24:29Z</time>
      </trkpt>
      <trkpt lat="47.57282" lon="-2.71005">
        <ele>7.2</ele>
        <time>2026-08-29T15:24:30Z</time>
      </trkpt>
      <trkpt lat="47.57282" lon="-2.71005">
        <ele>7.2</ele>
        <time>2026-08-29T15:24:31Z</time>
      </trkpt>
      <trkpt lat="47.57282" lon="-2.71005">
        <ele>7.2</ele>
        <time>2026-08-29T15:24:32Z</time>
      </trkpt>
      <trkpt lat="47.57284" lon="-2.71012">
        <ele>7.4</ele>
        <time>2026-08-29T15:41:56Z</time>
      </trkpt>
      <trkpt lat="47.57284" lon="-2.71014">
        <ele>7.5</ele>
        <time>2026-08-29T15:41:57Z</time>
      </trkpt>
      <trkpt lat="47.57286" lon="-2.71015">
        <ele>7.5</ele>
        <time>2026-08-29T15:41:58Z</time>
      </trkpt>
      <trkpt lat="47.57288" lon="-2.71016">
        <ele>7.6</ele>
        <time>2026-08-29T15:41:59Z</time>
      </trkpt>
      <trkpt lat="47.5729" lon="-2.71018">
        <ele>7.6</ele>
        <time>2026-08-29T15:42:00Z</time>
      </trkpt>
      <trkpt lat="47.57291" lon="-2.71021">
        <ele>7.8</ele>
        <time>2026-08-29T15:42:01Z</time>
      </trkpt>
      <trkpt lat="47.57292" lon="-2.71024">
        <ele>7.9</ele>
        <time>2026-08-29T15:42:02Z</time>
      </trkpt>
      <trkpt lat="47.57294" lon="-2.71028">
        <ele>8</ele>
        <time>2026-08-29T15:42:03Z</time>
      </trkpt>
      <trkpt lat="47.57295" lon="-2.71031">
        <ele>8</ele>
        <time>2026-08-29T15:42:04Z</time>
      </trkpt>
      <trkpt lat="47.57297" lon="-2.71034">
        <ele>8.1</ele>
        <time>2026-08-29T15:42:05Z</time>
      </trkpt>
      <trkpt lat="47.57298" lon="-2.71038">
        <ele>8.1</ele>
        <time>2026-08-29T15:42:06Z</time>
      </trkpt>
      <trkpt lat="47.573" lon="-2.71041">
        <ele>8.1</ele>
        <time>2026-08-29T15:42:07Z</time>
      </trkpt>
      <trkpt lat="47.57302" lon="-2.71045">
        <ele>8.1</ele>
        <time>2026-08-29T15:42:08Z</time>
      </trkpt>
      <trkpt lat="47.57304" lon="-2.71048">
        <ele>8</ele>
        <time>2026-08-29T15:42:09Z</time>
      </trkpt>
      <trkpt lat="47.57307" lon="-2.71051">
        <ele>8</ele>
        <time>2026-08-29T15:42:10Z</time>
      </trkpt>
      <trkpt lat="47.57309" lon="-2.71055">
        <ele>8</ele>
        <time>2026-08-29T15:42:11Z</time>
      </trkpt>
      <trkpt lat="47.57311" lon="-2.71058">
        <ele>8.1</ele>
        <time>2026-08-29T15:42:12Z</time>
      </trkpt>
      <trkpt lat="47.57313" lon="-2.71062">
        <ele>8.2</ele>
        <time>2026-08-29T15:42:13Z</time>
      </trkpt>
      <trkpt lat="47.57315" lon="-2.71065">
        <ele>8.2</ele>
        <time>2026-08-29T15:42:14Z</time>
      </trkpt>
      <trkpt lat="47.57317" lon="-2.71069">
        <ele>8.3</ele>
        <time>2026-08-29T15:42:15Z</time>
      </trkpt>
      <trkpt lat="47.57319" lon="-2.71073">
        <ele>8.3</ele>
        <time>2026-08-29T15:42:16Z</time>
      </trkpt>
      <trkpt lat="47.5732" lon="-2.71077">
        <ele>8.4</ele>
        <time>2026-08-29T15:42:17Z</time>
      </trkpt>
      <trkpt lat="47.57321" lon="-2.71081">
        <ele>8.4</ele>
        <time>2026-08-29T15:42:18Z</time>
      </trkpt>
      <trkpt lat="47.57322" lon="-2.71085">
        <ele>8.4</ele>
        <time>2026-08-29T15:42:19Z</time>
      </trkpt>
      <trkpt lat="47.57324" lon="-2.71091">
        <ele>8.3</ele>
        <time>2026-08-29T15:42:20Z</time>
      </trkpt>
      <trkpt lat="47.57324" lon="-2.71096">
        <ele>8.3</ele>
        <time>2026-08-29T15:42:21Z</time>
      </trkpt>
      <trkpt lat="47.57325" lon="-2.71101">
        <ele>8.3</ele>
        <time>2026-08-29T15:42:22Z</time>
      </trkpt>
      <trkpt lat="47.57325" lon="-2.71106">
        <ele>8.3</ele>
        <time>2026-08-29T15:42:23Z</time>
      </trkpt>
      <trkpt lat="47.57325" lon="-2.71111">
        <ele>8.3</ele>
        <time>2026-08-29T15:42:24Z</time>
      </trkpt>
      <trkpt lat="47.57326" lon="-2.71117">
        <ele>8.3</ele>
        <time>2026-08-29T15:42:25Z</time>
      </trkpt>
      <trkpt lat="47.57326" lon="-2.71122">
        <ele>8.3</ele>
        <time>2026-08-29T15:42:26Z</time>
      </trkpt>
      <trkpt lat="47.57326" lon="-2.71128">
        <ele>8.3</ele>
        <time>2026-08-29T15:42:27Z</time>
      </trkpt>
      <trkpt lat="47.57325" lon="-2.71134">
        <ele>8.3</ele>
        <time>2026-08-29T15:42:28Z</time>
      </trkpt>
      <trkpt lat="47.57325" lon="-2.71139">
        <ele>8.3</ele>
        <time>2026-08-29T15:42:29Z</time>
      </trkpt>
      <trkpt lat="47.57325" lon="-2.71145">
        <ele>8.3</ele>
        <time>2026-08-29T15:42:30Z</time>
      </trkpt>
      <trkpt lat="47.57325" lon="-2.71151">
        <ele>8.3</ele>
        <time>2026-08-29T15:42:31Z</time>
      </trkpt>
      <trkpt lat="47.57325" lon="-2.71156">
        <ele>8.3</ele>
        <time>2026-08-29T15:42:32Z</time>
      </trkpt>
      <trkpt lat="47.57325" lon="-2.71161">
        <ele>8.3</ele>
        <time>2026-08-29T15:42:33Z</time>
      </trkpt>
      <trkpt lat="47.57325" lon="-2.71167">
        <ele>8.3</ele>
        <time>2026-08-29T15:42:34Z</time>
      </trkpt>
      <trkpt lat="47.57326" lon="-2.71172">
        <ele>8.3</ele>
        <time>2026-08-29T15:42:35Z</time>
      </trkpt>
      <trkpt lat="47.57326" lon="-2.71178">
        <ele>8.3</ele>
        <time>2026-08-29T15:42:36Z</time>
      </trkpt>
      <trkpt lat="47.57326" lon="-2.71184">
        <ele>8.3</ele>
        <time>2026-08-29T15:42:37Z</time>
      </trkpt>
      <trkpt lat="47.57327" lon="-2.7119">
        <ele>8.2</ele>
        <time>2026-08-29T15:42:38Z</time>
      </trkpt>
      <trkpt lat="47.57327" lon="-2.71196">
        <ele>8.2</ele>
        <time>2026-08-29T15:42:39Z</time>
      </trkpt>
      <trkpt lat="47.57328" lon="-2.71202">
        <ele>7.9</ele>
        <time>2026-08-29T15:42:40Z</time>
      </trkpt>
      <trkpt lat="47.57329" lon="-2.71209">
        <ele>7.6</ele>
        <time>2026-08-29T15:42:41Z</time>
      </trkpt>
      <trkpt lat="47.5733" lon="-2.71215">
        <ele>7.4</ele>
        <time>2026-08-29T15:42:42Z</time>
      </trkpt>
      <trkpt lat="47.57331" lon="-2.71222">
        <ele>7.1</ele>
        <time>2026-08-29T15:42:43Z</time>
      </trkpt>
      <trkpt lat="47.57333" lon="-2.71228">
        <ele>6.8</ele>
        <time>2026-08-29T15:42:44Z</time>
      </trkpt>
      <trkpt lat="47.57334" lon="-2.71235">
        <ele>6.5</ele>
        <time>2026-08-29T15:42:45Z</time>
      </trkpt>
      <trkpt lat="47.57336" lon="-2.71242">
        <ele>6.3</ele>
        <time>2026-08-29T15:42:46Z</time>
      </trkpt>
      <trkpt lat="47.57338" lon="-2.71248">
        <ele>6.1</ele>
        <time>2026-08-29T15:42:47Z</time>
      </trkpt>
      <trkpt lat="47.5734" lon="-2.71254">
        <ele>6</ele>
        <time>2026-08-29T15:42:48Z</time>
      </trkpt>
      <trkpt lat="47.57342" lon="-2.7126">
        <ele>6</ele>
        <time>2026-08-29T15:42:49Z</time>
      </trkpt>
      <trkpt lat="47.57344" lon="-2.71267">
        <ele>6</ele>
        <time>2026-08-29T15:42:50Z</time>
      </trkpt>
      <trkpt lat="47.57346" lon="-2.71273">
        <ele>6</ele>
        <time>2026-08-29T15:42:51Z</time>
      </trkpt>
      <trkpt lat="47.57349" lon="-2.71279">
        <ele>6</ele>
        <time>2026-08-29T15:42:52Z</time>
      </trkpt>
      <trkpt lat="47.57351" lon="-2.71285">
        <ele>6</ele>
        <time>2026-08-29T15:42:53Z</time>
      </trkpt>
      <trkpt lat="47.57352" lon="-2.71291">
        <ele>6</ele>
        <time>2026-08-29T15:42:54Z</time>
      </trkpt>
      <trkpt lat="47.57355" lon="-2.71296">
        <ele>6</ele>
        <time>2026-08-29T15:42:55Z</time>
      </trkpt>
      <trkpt lat="47.57357" lon="-2.71302">
        <ele>6</ele>
        <time>2026-08-29T15:42:56Z</time>
      </trkpt>
      <trkpt lat="47.57359" lon="-2.71308">
        <ele>5.9</ele>
        <time>2026-08-29T15:42:57Z</time>
      </trkpt>
      <trkpt lat="47.57361" lon="-2.71314">
        <ele>5.7</ele>
        <time>2026-08-29T15:42:58Z</time>
      </trkpt>
      <trkpt lat="47.57363" lon="-2.7132">
        <ele>5.4</ele>
        <time>2026-08-29T15:42:59Z</time>
      </trkpt>
      <trkpt lat="47.57365" lon="-2.71326">
        <ele>5.2</ele>
        <time>2026-08-29T15:43:00Z</time>
      </trkpt>
      <trkpt lat="47.57368" lon="-2.71333">
        <ele>5</ele>
        <time>2026-08-29T15:43:01Z</time>
      </trkpt>
      <trkpt lat="47.5737" lon="-2.71339">
        <ele>5</ele>
        <time>2026-08-29T15:43:02Z</time>
      </trkpt>
      <trkpt lat="47.57372" lon="-2.71345">
        <ele>5</ele>
        <time>2026-08-29T15:43:03Z</time>
      </trkpt>
      <trkpt lat="47.57374" lon="-2.71352">
        <ele>5</ele>
        <time>2026-08-29T15:43:04Z</time>
      </trkpt>
      <trkpt lat="47.57376" lon="-2.71358">
        <ele>5</ele>
        <time>2026-08-29T15:43:05Z</time>
      </trkpt>
      <trkpt lat="47.57379" lon="-2.71365">
        <ele>5</ele>
        <time>2026-08-29T15:43:06Z</time>
      </trkpt>
      <trkpt lat="47.57381" lon="-2.71371">
        <ele>5</ele>
        <time>2026-08-29T15:43:07Z</time>
      </trkpt>
      <trkpt lat="47.57382" lon="-2.71378">
        <ele>5</ele>
        <time>2026-08-29T15:43:08Z</time>
      </trkpt>
      <trkpt lat="47.57384" lon="-2.71385">
        <ele>5</ele>
        <time>2026-08-29T15:43:09Z</time>
      </trkpt>
      <trkpt lat="47.57386" lon="-2.71392">
        <ele>5</ele>
        <time>2026-08-29T15:43:10Z</time>
      </trkpt>
      <trkpt lat="47.57388" lon="-2.71399">
        <ele>5</ele>
        <time>2026-08-29T15:43:11Z</time>
      </trkpt>
      <trkpt lat="47.5739" lon="-2.71406">
        <ele>5</ele>
        <time>2026-08-29T15:43:12Z</time>
      </trkpt>
      <trkpt lat="47.57391" lon="-2.71413">
        <ele>5</ele>
        <time>2026-08-29T15:43:13Z</time>
      </trkpt>
      <trkpt lat="47.57392" lon="-2.7142">
        <ele>5</ele>
        <time>2026-08-29T15:43:14Z</time>
      </trkpt>
      <trkpt lat="47.57393" lon="-2.71427">
        <ele>5</ele>
        <time>2026-08-29T15:43:15Z</time>
      </trkpt>
      <trkpt lat="47.57394" lon="-2.71433">
        <ele>5</ele>
        <time>2026-08-29T15:43:16Z</time>
      </trkpt>
      <trkpt lat="47.57395" lon="-2.71439">
        <ele>5</ele>
        <time>2026-08-29T15:43:17Z</time>
      </trkpt>
      <trkpt lat="47.57394" lon="-2.71445">
        <ele>5</ele>
        <time>2026-08-29T15:43:18Z</time>
      </trkpt>
      <trkpt lat="47.57391" lon="-2.7145">
        <ele>5</ele>
        <time>2026-08-29T15:43:19Z</time>
      </trkpt>
      <trkpt lat="47.57388" lon="-2.71453">
        <ele>5</ele>
        <time>2026-08-29T15:43:20Z</time>
      </trkpt>
      <trkpt lat="47.57384" lon="-2.71455">
        <ele>5</ele>
        <time>2026-08-29T15:43:21Z</time>
      </trkpt>
      <trkpt lat="47.5738" lon="-2.71456">
        <ele>5</ele>
        <time>2026-08-29T15:43:22Z</time>
      </trkpt>
      <trkpt lat="47.57375" lon="-2.71457">
        <ele>5</ele>
        <time>2026-08-29T15:43:23Z</time>
      </trkpt>
      <trkpt lat="47.57371" lon="-2.71458">
        <ele>5</ele>
        <time>2026-08-29T15:43:24Z</time>
      </trkpt>
      <trkpt lat="47.57366" lon="-2.71459">
        <ele>5</ele>
        <time>2026-08-29T15:43:25Z</time>
      </trkpt>
      <trkpt lat="47.57362" lon="-2.71459">
        <ele>5</ele>
        <time>2026-08-29T15:43:26Z</time>
      </trkpt>
      <trkpt lat="47.57357" lon="-2.7146">
        <ele>4.9</ele>
        <time>2026-08-29T15:43:27Z</time>
      </trkpt>
      <trkpt lat="47.57352" lon="-2.71461">
        <ele>4.7</ele>
        <time>2026-08-29T15:43:28Z</time>
      </trkpt>
      <trkpt lat="47.57347" lon="-2.71461">
        <ele>4.5</ele>
        <time>2026-08-29T15:43:29Z</time>
      </trkpt>
      <trkpt lat="47.57342" lon="-2.71461">
        <ele>4.3</ele>
        <time>2026-08-29T15:43:30Z</time>
      </trkpt>
      <trkpt lat="47.57337" lon="-2.71462">
        <ele>4.1</ele>
        <time>2026-08-29T15:43:31Z</time>
      </trkpt>
      <trkpt lat="47.57333" lon="-2.71463">
        <ele>4</ele>
        <time>2026-08-29T15:43:32Z</time>
      </trkpt>
      <trkpt lat="47.57328" lon="-2.71463">
        <ele>4</ele>
        <time>2026-08-29T15:43:33Z</time>
      </trkpt>
      <trkpt lat="47.57323" lon="-2.71464">
        <ele>4</ele>
        <time>2026-08-29T15:43:34Z</time>
      </trkpt>
      <trkpt lat="47.57318" lon="-2.71465">
        <ele>4</ele>
        <time>2026-08-29T15:43:35Z</time>
      </trkpt>
      <trkpt lat="47.57314" lon="-2.71466">
        <ele>4</ele>
        <time>2026-08-29T15:43:36Z</time>
      </trkpt>
      <trkpt lat="47.57309" lon="-2.71466">
        <ele>4</ele>
        <time>2026-08-29T15:43:37Z</time>
      </trkpt>
      <trkpt lat="47.57304" lon="-2.71467">
        <ele>4</ele>
        <time>2026-08-29T15:43:38Z</time>
      </trkpt>
      <trkpt lat="47.57299" lon="-2.71468">
        <ele>4</ele>
        <time>2026-08-29T15:43:39Z</time>
      </trkpt>
      <trkpt lat="47.57294" lon="-2.71469">
        <ele>4</ele>
        <time>2026-08-29T15:43:40Z</time>
      </trkpt>
      <trkpt lat="47.57289" lon="-2.7147">
        <ele>4</ele>
        <time>2026-08-29T15:43:41Z</time>
      </trkpt>
      <trkpt lat="47.57284" lon="-2.7147">
        <ele>4</ele>
        <time>2026-08-29T15:43:42Z</time>
      </trkpt>
      <trkpt lat="47.57279" lon="-2.7147">
        <ele>4</ele>
        <time>2026-08-29T15:43:43Z</time>
      </trkpt>
      <trkpt lat="47.57274" lon="-2.71471">
        <ele>4</ele>
        <time>2026-08-29T15:43:44Z</time>
      </trkpt>
      <trkpt lat="47.5727" lon="-2.71471">
        <ele>4</ele>
        <time>2026-08-29T15:43:45Z</time>
      </trkpt>
      <trkpt lat="47.57265" lon="-2.71471">
        <ele>4</ele>
        <time>2026-08-29T15:43:46Z</time>
      </trkpt>
      <trkpt lat="47.5726" lon="-2.71472">
        <ele>4</ele>
        <time>2026-08-29T15:43:47Z</time>
      </trkpt>
      <trkpt lat="47.57256" lon="-2.71473">
        <ele>4</ele>
        <time>2026-08-29T15:43:48Z</time>
      </trkpt>
      <trkpt lat="47.57251" lon="-2.71474">
        <ele>4</ele>
        <time>2026-08-29T15:43:49Z</time>
      </trkpt>
      <trkpt lat="47.57247" lon="-2.71475">
        <ele>4</ele>
        <time>2026-08-29T15:43:50Z</time>
      </trkpt>
      <trkpt lat="47.57242" lon="-2.71476">
        <ele>4</ele>
        <time>2026-08-29T15:43:51Z</time>
      </trkpt>
      <trkpt lat="47.57238" lon="-2.71477">
        <ele>3.9</ele>
        <time>2026-08-29T15:43:52Z</time>
      </trkpt>
      <trkpt lat="47.57234" lon="-2.71478">
        <ele>3.9</ele>
        <time>2026-08-29T15:43:53Z</time>
      </trkpt>
      <trkpt lat="47.57229" lon="-2.71479">
        <ele>3.8</ele>
        <time>2026-08-29T15:43:54Z</time>
      </trkpt>
      <trkpt lat="47.57225" lon="-2.7148">
        <ele>3.7</ele>
        <time>2026-08-29T15:43:55Z</time>
      </trkpt>
      <trkpt lat="47.57221" lon="-2.7148">
        <ele>3.7</ele>
        <time>2026-08-29T15:43:56Z</time>
      </trkpt>
      <trkpt lat="47.57216" lon="-2.71481">
        <ele>3.8</ele>
        <time>2026-08-29T15:43:57Z</time>
      </trkpt>
      <trkpt lat="47.57212" lon="-2.71481">
        <ele>3.8</ele>
        <time>2026-08-29T15:43:58Z</time>
      </trkpt>
      <trkpt lat="47.57207" lon="-2.71482">
        <ele>3.8</ele>
        <time>2026-08-29T15:43:59Z</time>
      </trkpt>
      <trkpt lat="47.57203" lon="-2.71482">
        <ele>3.9</ele>
        <time>2026-08-29T15:44:00Z</time>
      </trkpt>
      <trkpt lat="47.57199" lon="-2.71483">
        <ele>3.9</ele>
        <time>2026-08-29T15:44:01Z</time>
      </trkpt>
      <trkpt lat="47.57194" lon="-2.71483">
        <ele>4</ele>
        <time>2026-08-29T15:44:02Z</time>
      </trkpt>
      <trkpt lat="47.5719" lon="-2.71484">
        <ele>4.1</ele>
        <time>2026-08-29T15:44:03Z</time>
      </trkpt>
      <trkpt lat="47.57185" lon="-2.71485">
        <ele>4.2</ele>
        <time>2026-08-29T15:44:04Z</time>
      </trkpt>
      <trkpt lat="47.57181" lon="-2.71485">
        <ele>4.3</ele>
        <time>2026-08-29T15:44:05Z</time>
      </trkpt>
      <trkpt lat="47.57176" lon="-2.71486">
        <ele>4.3</ele>
        <time>2026-08-29T15:44:06Z</time>
      </trkpt>
      <trkpt lat="47.57172" lon="-2.71486">
        <ele>4.4</ele>
        <time>2026-08-29T15:44:07Z</time>
      </trkpt>
      <trkpt lat="47.57168" lon="-2.71487">
        <ele>4.4</ele>
        <time>2026-08-29T15:44:08Z</time>
      </trkpt>
      <trkpt lat="47.57163" lon="-2.71488">
        <ele>4.4</ele>
        <time>2026-08-29T15:44:09Z</time>
      </trkpt>
      <trkpt lat="47.57159" lon="-2.71488">
        <ele>4.4</ele>
        <time>2026-08-29T15:44:10Z</time>
      </trkpt>
      <trkpt lat="47.57155" lon="-2.71489">
        <ele>4.4</ele>
        <time>2026-08-29T15:44:11Z</time>
      </trkpt>
      <trkpt lat="47.5715" lon="-2.71489">
        <ele>4.4</ele>
        <time>2026-08-29T15:44:12Z</time>
      </trkpt>
      <trkpt lat="47.57146" lon="-2.7149">
        <ele>4.4</ele>
        <time>2026-08-29T15:44:13Z</time>
      </trkpt>
      <trkpt lat="47.57142" lon="-2.7149">
        <ele>4.4</ele>
        <time>2026-08-29T15:44:14Z</time>
      </trkpt>
      <trkpt lat="47.57138" lon="-2.71491">
        <ele>4.3</ele>
        <time>2026-08-29T15:44:15Z</time>
      </trkpt>
      <trkpt lat="47.57134" lon="-2.71492">
        <ele>4.3</ele>
        <time>2026-08-29T15:44:16Z</time>
      </trkpt>
      <trkpt lat="47.5713" lon="-2.71492">
        <ele>4.3</ele>
        <time>2026-08-29T15:44:17Z</time>
      </trkpt>
      <trkpt lat="47.57126" lon="-2.71493">
        <ele>4.3</ele>
        <time>2026-08-29T15:44:18Z</time>
      </trkpt>
      <trkpt lat="47.57121" lon="-2.71493">
        <ele>4.3</ele>
        <time>2026-08-29T15:44:19Z</time>
      </trkpt>
      <trkpt lat="47.57117" lon="-2.71494">
        <ele>4.2</ele>
        <time>2026-08-29T15:44:20Z</time>
      </trkpt>
      <trkpt lat="47.57113" lon="-2.71495">
        <ele>4.2</ele>
        <time>2026-08-29T15:44:21Z</time>
      </trkpt>
      <trkpt lat="47.57109" lon="-2.71495">
        <ele>4.2</ele>
        <time>2026-08-29T15:44:22Z</time>
      </trkpt>
      <trkpt lat="47.57105" lon="-2.71496">
        <ele>4.1</ele>
        <time>2026-08-29T15:44:23Z</time>
      </trkpt>
      <trkpt lat="47.57101" lon="-2.71496">
        <ele>4.1</ele>
        <time>2026-08-29T15:44:24Z</time>
      </trkpt>
      <trkpt lat="47.57097" lon="-2.71497">
        <ele>4.1</ele>
        <time>2026-08-29T15:44:25Z</time>
      </trkpt>
      <trkpt lat="47.57093" lon="-2.71498">
        <ele>4.1</ele>
        <time>2026-08-29T15:44:26Z</time>
      </trkpt>
      <trkpt lat="47.57089" lon="-2.71498">
        <ele>4.1</ele>
        <time>2026-08-29T15:44:27Z</time>
      </trkpt>
      <trkpt lat="47.57085" lon="-2.71499">
        <ele>4</ele>
        <time>2026-08-29T15:44:28Z</time>
      </trkpt>
      <trkpt lat="47.57081" lon="-2.71499">
        <ele>4.1</ele>
        <time>2026-08-29T15:44:29Z</time>
      </trkpt>
      <trkpt lat="47.57077" lon="-2.715">
        <ele>4.2</ele>
        <time>2026-08-29T15:44:30Z</time>
      </trkpt>
      <trkpt lat="47.57073" lon="-2.71501">
        <ele>4.3</ele>
        <time>2026-08-29T15:44:31Z</time>
      </trkpt>
      <trkpt lat="47.57069" lon="-2.71502">
        <ele>4.4</ele>
        <time>2026-08-29T15:44:32Z</time>
      </trkpt>
      <trkpt lat="47.57065" lon="-2.71502">
        <ele>4.6</ele>
        <time>2026-08-29T15:44:33Z</time>
      </trkpt>
      <trkpt lat="47.57061" lon="-2.71503">
        <ele>4.7</ele>
        <time>2026-08-29T15:44:34Z</time>
      </trkpt>
      <trkpt lat="47.57058" lon="-2.71504">
        <ele>4.8</ele>
        <time>2026-08-29T15:44:35Z</time>
      </trkpt>
      <trkpt lat="47.57054" lon="-2.71505">
        <ele>4.8</ele>
        <time>2026-08-29T15:44:36Z</time>
      </trkpt>
      <trkpt lat="47.5705" lon="-2.71506">
        <ele>4.8</ele>
        <time>2026-08-29T15:44:37Z</time>
      </trkpt>
      <trkpt lat="47.57046" lon="-2.71506">
        <ele>4.8</ele>
        <time>2026-08-29T15:44:38Z</time>
      </trkpt>
      <trkpt lat="47.57043" lon="-2.71507">
        <ele>4.7</ele>
        <time>2026-08-29T15:44:39Z</time>
      </trkpt>
      <trkpt lat="47.57039" lon="-2.71507">
        <ele>4.7</ele>
        <time>2026-08-29T15:44:40Z</time>
      </trkpt>
      <trkpt lat="47.57035" lon="-2.71507">
        <ele>4.7</ele>
        <time>2026-08-29T15:44:41Z</time>
      </trkpt>
      <trkpt lat="47.57031" lon="-2.71508">
        <ele>4.7</ele>
        <time>2026-08-29T15:44:42Z</time>
      </trkpt>
      <trkpt lat="47.57028" lon="-2.71508">
        <ele>4.7</ele>
        <time>2026-08-29T15:44:43Z</time>
      </trkpt>
      <trkpt lat="47.57024" lon="-2.71509">
        <ele>4.8</ele>
        <time>2026-08-29T15:44:44Z</time>
      </trkpt>
      <trkpt lat="47.5702" lon="-2.7151">
        <ele>4.9</ele>
        <time>2026-08-29T15:44:45Z</time>
      </trkpt>
      <trkpt lat="47.57017" lon="-2.7151">
        <ele>5</ele>
        <time>2026-08-29T15:44:46Z</time>
      </trkpt>
      <trkpt lat="47.57013" lon="-2.71511">
        <ele>5.1</ele>
        <time>2026-08-29T15:44:47Z</time>
      </trkpt>
      <trkpt lat="47.5701" lon="-2.71511">
        <ele>5.2</ele>
        <time>2026-08-29T15:44:48Z</time>
      </trkpt>
      <trkpt lat="47.57006" lon="-2.71511">
        <ele>5.4</ele>
        <time>2026-08-29T15:44:49Z</time>
      </trkpt>
      <trkpt lat="47.57002" lon="-2.71511">
        <ele>5.5</ele>
        <time>2026-08-29T15:44:50Z</time>
      </trkpt>
      <trkpt lat="47.56999" lon="-2.71512">
        <ele>5.6</ele>
        <time>2026-08-29T15:44:51Z</time>
      </trkpt>
      <trkpt lat="47.56995" lon="-2.71512">
        <ele>5.7</ele>
        <time>2026-08-29T15:44:52Z</time>
      </trkpt>
      <trkpt lat="47.56992" lon="-2.71513">
        <ele>5.7</ele>
        <time>2026-08-29T15:44:53Z</time>
      </trkpt>
      <trkpt lat="47.56988" lon="-2.71513">
        <ele>5.8</ele>
        <time>2026-08-29T15:44:54Z</time>
      </trkpt>
      <trkpt lat="47.56984" lon="-2.71514">
        <ele>5.8</ele>
        <time>2026-08-29T15:44:55Z</time>
      </trkpt>
      <trkpt lat="47.5698" lon="-2.71514">
        <ele>5.9</ele>
        <time>2026-08-29T15:44:56Z</time>
      </trkpt>
      <trkpt lat="47.56976" lon="-2.71514">
        <ele>5.9</ele>
        <time>2026-08-29T15:44:57Z</time>
      </trkpt>
      <trkpt lat="47.56973" lon="-2.71515">
        <ele>5.9</ele>
        <time>2026-08-29T15:44:58Z</time>
      </trkpt>
      <trkpt lat="47.5697" lon="-2.71516">
        <ele>5.9</ele>
        <time>2026-08-29T15:44:59Z</time>
      </trkpt>
      <trkpt lat="47.56966" lon="-2.71516">
        <ele>6</ele>
        <time>2026-08-29T15:45:00Z</time>
      </trkpt>
      <trkpt lat="47.56962" lon="-2.71517">
        <ele>6</ele>
        <time>2026-08-29T15:45:01Z</time>
      </trkpt>
      <trkpt lat="47.56959" lon="-2.71517">
        <ele>6.1</ele>
        <time>2026-08-29T15:45:02Z</time>
      </trkpt>
      <trkpt lat="47.56955" lon="-2.71518">
        <ele>6.1</ele>
        <time>2026-08-29T15:45:03Z</time>
      </trkpt>
      <trkpt lat="47.56951" lon="-2.71518">
        <ele>6.2</ele>
        <time>2026-08-29T15:45:04Z</time>
      </trkpt>
      <trkpt lat="47.56948" lon="-2.71519">
        <ele>6.2</ele>
        <time>2026-08-29T15:45:05Z</time>
      </trkpt>
      <trkpt lat="47.56944" lon="-2.71519">
        <ele>6.3</ele>
        <time>2026-08-29T15:45:06Z</time>
      </trkpt>
      <trkpt lat="47.5694" lon="-2.7152">
        <ele>6.4</ele>
        <time>2026-08-29T15:45:07Z</time>
      </trkpt>
      <trkpt lat="47.56937" lon="-2.7152">
        <ele>6.5</ele>
        <time>2026-08-29T15:45:08Z</time>
      </trkpt>
      <trkpt lat="47.56933" lon="-2.71521">
        <ele>6.7</ele>
        <time>2026-08-29T15:45:09Z</time>
      </trkpt>
      <trkpt lat="47.5693" lon="-2.71522">
        <ele>6.7</ele>
        <time>2026-08-29T15:45:10Z</time>
      </trkpt>
      <trkpt lat="47.56927" lon="-2.71522">
        <ele>6.8</ele>
        <time>2026-08-29T15:45:11Z</time>
      </trkpt>
      <trkpt lat="47.56922" lon="-2.71523">
        <ele>7</ele>
        <time>2026-08-29T15:45:12Z</time>
      </trkpt>
      <trkpt lat="47.56919" lon="-2.71523">
        <ele>7.1</ele>
        <time>2026-08-29T15:45:13Z</time>
      </trkpt>
      <trkpt lat="47.56915" lon="-2.71524">
        <ele>7.2</ele>
        <time>2026-08-29T15:45:14Z</time>
      </trkpt>
      <trkpt lat="47.56912" lon="-2.71524">
        <ele>7.3</ele>
        <time>2026-08-29T15:45:15Z</time>
      </trkpt>
      <trkpt lat="47.56908" lon="-2.71525">
        <ele>7.4</ele>
        <time>2026-08-29T15:45:16Z</time>
      </trkpt>
      <trkpt lat="47.56904" lon="-2.71525">
        <ele>7.6</ele>
        <time>2026-08-29T15:45:17Z</time>
      </trkpt>
      <trkpt lat="47.56901" lon="-2.71526">
        <ele>7.6</ele>
        <time>2026-08-29T15:45:18Z</time>
      </trkpt>
      <trkpt lat="47.56897" lon="-2.71526">
        <ele>7.8</ele>
        <time>2026-08-29T15:45:19Z</time>
      </trkpt>
      <trkpt lat="47.56893" lon="-2.71527">
        <ele>7.9</ele>
        <time>2026-08-29T15:45:20Z</time>
      </trkpt>
      <trkpt lat="47.5689" lon="-2.71527">
        <ele>8</ele>
        <time>2026-08-29T15:45:21Z</time>
      </trkpt>
      <trkpt lat="47.56886" lon="-2.71528">
        <ele>8</ele>
        <time>2026-08-29T15:45:22Z</time>
      </trkpt>
      <trkpt lat="47.56882" lon="-2.71529">
        <ele>7.9</ele>
        <time>2026-08-29T15:45:23Z</time>
      </trkpt>
      <trkpt lat="47.56879" lon="-2.71529">
        <ele>7.9</ele>
        <time>2026-08-29T15:45:24Z</time>
      </trkpt>
      <trkpt lat="47.56875" lon="-2.7153">
        <ele>7.9</ele>
        <time>2026-08-29T15:45:25Z</time>
      </trkpt>
      <trkpt lat="47.56871" lon="-2.71531">
        <ele>7.8</ele>
        <time>2026-08-29T15:45:26Z</time>
      </trkpt>
      <trkpt lat="47.56868" lon="-2.71531">
        <ele>7.9</ele>
        <time>2026-08-29T15:45:27Z</time>
      </trkpt>
      <trkpt lat="47.56864" lon="-2.71531">
        <ele>7.9</ele>
        <time>2026-08-29T15:45:28Z</time>
      </trkpt>
      <trkpt lat="47.56861" lon="-2.71531">
        <ele>7.9</ele>
        <time>2026-08-29T15:45:29Z</time>
      </trkpt>
      <trkpt lat="47.56857" lon="-2.71532">
        <ele>7.9</ele>
        <time>2026-08-29T15:45:30Z</time>
      </trkpt>
      <trkpt lat="47.56853" lon="-2.71533">
        <ele>7.9</ele>
        <time>2026-08-29T15:45:31Z</time>
      </trkpt>
      <trkpt lat="47.56849" lon="-2.71534">
        <ele>7.9</ele>
        <time>2026-08-29T15:45:32Z</time>
      </trkpt>
      <trkpt lat="47.56845" lon="-2.71534">
        <ele>7.9</ele>
        <time>2026-08-29T15:45:33Z</time>
      </trkpt>
      <trkpt lat="47.56841" lon="-2.71535">
        <ele>7.9</ele>
        <time>2026-08-29T15:45:34Z</time>
      </trkpt>
      <trkpt lat="47.56838" lon="-2.71535">
        <ele>8</ele>
        <time>2026-08-29T15:45:35Z</time>
      </trkpt>
      <trkpt lat="47.56834" lon="-2.71535">
        <ele>8</ele>
        <time>2026-08-29T15:45:36Z</time>
      </trkpt>
      <trkpt lat="47.5683" lon="-2.71536">
        <ele>8</ele>
        <time>2026-08-29T15:45:37Z</time>
      </trkpt>
      <trkpt lat="47.56826" lon="-2.71536">
        <ele>7.9</ele>
        <time>2026-08-29T15:45:38Z</time>
      </trkpt>
      <trkpt lat="47.56822" lon="-2.71537">
        <ele>7.9</ele>
        <time>2026-08-29T15:45:39Z</time>
      </trkpt>
      <trkpt lat="47.56817" lon="-2.71538">
        <ele>7.8</ele>
        <time>2026-08-29T15:45:40Z</time>
      </trkpt>
      <trkpt lat="47.56813" lon="-2.71538">
        <ele>7.7</ele>
        <time>2026-08-29T15:45:41Z</time>
      </trkpt>
      <trkpt lat="47.56808" lon="-2.71538">
        <ele>7.7</ele>
        <time>2026-08-29T15:45:42Z</time>
      </trkpt>
      <trkpt lat="47.56804" lon="-2.71539">
        <ele>7.5</ele>
        <time>2026-08-29T15:45:43Z</time>
      </trkpt>
      <trkpt lat="47.56799" lon="-2.7154">
        <ele>7.3</ele>
        <time>2026-08-29T15:45:44Z</time>
      </trkpt>
      <trkpt lat="47.56794" lon="-2.7154">
        <ele>7.1</ele>
        <time>2026-08-29T15:45:45Z</time>
      </trkpt>
      <trkpt lat="47.56789" lon="-2.71541">
        <ele>6.9</ele>
        <time>2026-08-29T15:45:46Z</time>
      </trkpt>
      <trkpt lat="47.56784" lon="-2.71542">
        <ele>6.7</ele>
        <time>2026-08-29T15:45:47Z</time>
      </trkpt>
      <trkpt lat="47.56779" lon="-2.71543">
        <ele>6.5</ele>
        <time>2026-08-29T15:45:48Z</time>
      </trkpt>
      <trkpt lat="47.56774" lon="-2.71544">
        <ele>6.4</ele>
        <time>2026-08-29T15:45:49Z</time>
      </trkpt>
      <trkpt lat="47.56769" lon="-2.71544">
        <ele>6.3</ele>
        <time>2026-08-29T15:45:50Z</time>
      </trkpt>
      <trkpt lat="47.56763" lon="-2.71545">
        <ele>6.2</ele>
        <time>2026-08-29T15:45:51Z</time>
      </trkpt>
      <trkpt lat="47.56758" lon="-2.71546">
        <ele>6.1</ele>
        <time>2026-08-29T15:45:52Z</time>
      </trkpt>
      <trkpt lat="47.56752" lon="-2.71547">
        <ele>6</ele>
        <time>2026-08-29T15:45:53Z</time>
      </trkpt>
      <trkpt lat="47.56747" lon="-2.71548">
        <ele>5.9</ele>
        <time>2026-08-29T15:45:54Z</time>
      </trkpt>
      <trkpt lat="47.56741" lon="-2.71549">
        <ele>5.7</ele>
        <time>2026-08-29T15:45:55Z</time>
      </trkpt>
      <trkpt lat="47.56735" lon="-2.7155">
        <ele>5.5</ele>
        <time>2026-08-29T15:45:56Z</time>
      </trkpt>
      <trkpt lat="47.56729" lon="-2.7155">
        <ele>5.2</ele>
        <time>2026-08-29T15:45:57Z</time>
      </trkpt>
      <trkpt lat="47.56723" lon="-2.71551">
        <ele>5</ele>
        <time>2026-08-29T15:45:58Z</time>
      </trkpt>
      <trkpt lat="47.56717" lon="-2.71552">
        <ele>4.8</ele>
        <time>2026-08-29T15:45:59Z</time>
      </trkpt>
      <trkpt lat="47.5671" lon="-2.71553">
        <ele>4.6</ele>
        <time>2026-08-29T15:46:00Z</time>
      </trkpt>
      <trkpt lat="47.56704" lon="-2.71554">
        <ele>4.4</ele>
        <time>2026-08-29T15:46:01Z</time>
      </trkpt>
      <trkpt lat="47.56698" lon="-2.71554">
        <ele>4.2</ele>
        <time>2026-08-29T15:46:02Z</time>
      </trkpt>
      <trkpt lat="47.56692" lon="-2.71555">
        <ele>4</ele>
        <time>2026-08-29T15:46:03Z</time>
      </trkpt>
      <trkpt lat="47.56687" lon="-2.71556">
        <ele>4</ele>
        <time>2026-08-29T15:46:04Z</time>
      </trkpt>
      <trkpt lat="47.56681" lon="-2.71557">
        <ele>4</ele>
        <time>2026-08-29T15:46:05Z</time>
      </trkpt>
      <trkpt lat="47.56676" lon="-2.71558">
        <ele>4.1</ele>
        <time>2026-08-29T15:46:06Z</time>
      </trkpt>
      <trkpt lat="47.5667" lon="-2.71558">
        <ele>4.1</ele>
        <time>2026-08-29T15:46:07Z</time>
      </trkpt>
      <trkpt lat="47.56665" lon="-2.71559">
        <ele>4.2</ele>
        <time>2026-08-29T15:46:08Z</time>
      </trkpt>
      <trkpt lat="47.56661" lon="-2.7156">
        <ele>4.3</ele>
        <time>2026-08-29T15:46:09Z</time>
      </trkpt>
      <trkpt lat="47.56656" lon="-2.7156">
        <ele>4.5</ele>
        <time>2026-08-29T15:46:10Z</time>
      </trkpt>
      <trkpt lat="47.56652" lon="-2.71561">
        <ele>4.6</ele>
        <time>2026-08-29T15:46:11Z</time>
      </trkpt>
      <trkpt lat="47.56648" lon="-2.71562">
        <ele>4.7</ele>
        <time>2026-08-29T15:46:12Z</time>
      </trkpt>
      <trkpt lat="47.56644" lon="-2.71562">
        <ele>4.9</ele>
        <time>2026-08-29T15:46:13Z</time>
      </trkpt>
      <trkpt lat="47.5664" lon="-2.71562">
        <ele>5</ele>
        <time>2026-08-29T15:46:14Z</time>
      </trkpt>
      <trkpt lat="47.56636" lon="-2.71563">
        <ele>5.1</ele>
        <time>2026-08-29T15:46:15Z</time>
      </trkpt>
      <trkpt lat="47.56632" lon="-2.71563">
        <ele>5.2</ele>
        <time>2026-08-29T15:46:16Z</time>
      </trkpt>
      <trkpt lat="47.56628" lon="-2.71564">
        <ele>5.4</ele>
        <time>2026-08-29T15:46:17Z</time>
      </trkpt>
      <trkpt lat="47.56624" lon="-2.71565">
        <ele>5.5</ele>
        <time>2026-08-29T15:46:18Z</time>
      </trkpt>
      <trkpt lat="47.56621" lon="-2.71565">
        <ele>5.6</ele>
        <time>2026-08-29T15:46:19Z</time>
      </trkpt>
      <trkpt lat="47.56617" lon="-2.71565">
        <ele>5.8</ele>
        <time>2026-08-29T15:46:20Z</time>
      </trkpt>
      <trkpt lat="47.56614" lon="-2.71565">
        <ele>5.9</ele>
        <time>2026-08-29T15:46:21Z</time>
      </trkpt>
      <trkpt lat="47.56611" lon="-2.71566">
        <ele>6</ele>
        <time>2026-08-29T15:46:22Z</time>
      </trkpt>
      <trkpt lat="47.56607" lon="-2.71566">
        <ele>6.1</ele>
        <time>2026-08-29T15:46:23Z</time>
      </trkpt>
      <trkpt lat="47.56604" lon="-2.71566">
        <ele>6.3</ele>
        <time>2026-08-29T15:46:24Z</time>
      </trkpt>
      <trkpt lat="47.566" lon="-2.71566">
        <ele>6.4</ele>
        <time>2026-08-29T15:46:25Z</time>
      </trkpt>
      <trkpt lat="47.56597" lon="-2.71567">
        <ele>6.5</ele>
        <time>2026-08-29T15:46:26Z</time>
      </trkpt>
      <trkpt lat="47.56594" lon="-2.71568">
        <ele>6.6</ele>
        <time>2026-08-29T15:46:27Z</time>
      </trkpt>
      <trkpt lat="47.56591" lon="-2.71568">
        <ele>6.7</ele>
        <time>2026-08-29T15:46:28Z</time>
      </trkpt>
      <trkpt lat="47.56587" lon="-2.71569">
        <ele>6.9</ele>
        <time>2026-08-29T15:46:29Z</time>
      </trkpt>
      <trkpt lat="47.56584" lon="-2.71569">
        <ele>7</ele>
        <time>2026-08-29T15:46:30Z</time>
      </trkpt>
      <trkpt lat="47.56581" lon="-2.7157">
        <ele>7.1</ele>
        <time>2026-08-29T15:46:31Z</time>
      </trkpt>
      <trkpt lat="47.56578" lon="-2.71572">
        <ele>7.2</ele>
        <time>2026-08-29T15:46:32Z</time>
      </trkpt>
      <trkpt lat="47.56575" lon="-2.71574">
        <ele>7.3</ele>
        <time>2026-08-29T15:46:33Z</time>
      </trkpt>
      <trkpt lat="47.56573" lon="-2.71577">
        <ele>7.4</ele>
        <time>2026-08-29T15:46:34Z</time>
      </trkpt>
      <trkpt lat="47.56571" lon="-2.71581">
        <ele>7.4</ele>
        <time>2026-08-29T15:46:35Z</time>
      </trkpt>
      <trkpt lat="47.56571" lon="-2.71586">
        <ele>7.5</ele>
        <time>2026-08-29T15:46:36Z</time>
      </trkpt>
      <trkpt lat="47.5657" lon="-2.71589">
        <ele>7.7</ele>
        <time>2026-08-29T15:46:37Z</time>
      </trkpt>
      <trkpt lat="47.5657" lon="-2.71595">
        <ele>7.9</ele>
        <time>2026-08-29T15:46:38Z</time>
      </trkpt>
      <trkpt lat="47.56571" lon="-2.716">
        <ele>8</ele>
        <time>2026-08-29T15:46:39Z</time>
      </trkpt>
      <trkpt lat="47.5657" lon="-2.71605">
        <ele>8.3</ele>
        <time>2026-08-29T15:46:40Z</time>
      </trkpt>
      <trkpt lat="47.5657" lon="-2.7161">
        <ele>8.4</ele>
        <time>2026-08-29T15:46:41Z</time>
      </trkpt>
      <trkpt lat="47.5657" lon="-2.71615">
        <ele>8.5</ele>
        <time>2026-08-29T15:46:42Z</time>
      </trkpt>
      <trkpt lat="47.56569" lon="-2.7162">
        <ele>8.5</ele>
        <time>2026-08-29T15:46:43Z</time>
      </trkpt>
      <trkpt lat="47.56568" lon="-2.71625">
        <ele>8.6</ele>
        <time>2026-08-29T15:46:44Z</time>
      </trkpt>
      <trkpt lat="47.56567" lon="-2.7163">
        <ele>8.6</ele>
        <time>2026-08-29T15:46:45Z</time>
      </trkpt>
      <trkpt lat="47.56567" lon="-2.71635">
        <ele>8.6</ele>
        <time>2026-08-29T15:46:46Z</time>
      </trkpt>
      <trkpt lat="47.56566" lon="-2.7164">
        <ele>8.6</ele>
        <time>2026-08-29T15:46:47Z</time>
      </trkpt>
      <trkpt lat="47.56565" lon="-2.71645">
        <ele>8.7</ele>
        <time>2026-08-29T15:46:48Z</time>
      </trkpt>
      <trkpt lat="47.56564" lon="-2.7165">
        <ele>8.7</ele>
        <time>2026-08-29T15:46:49Z</time>
      </trkpt>
      <trkpt lat="47.56563" lon="-2.71656">
        <ele>8.7</ele>
        <time>2026-08-29T15:46:50Z</time>
      </trkpt>
      <trkpt lat="47.56561" lon="-2.71661">
        <ele>8.8</ele>
        <time>2026-08-29T15:46:51Z</time>
      </trkpt>
      <trkpt lat="47.5656" lon="-2.71666">
        <ele>8.8</ele>
        <time>2026-08-29T15:46:52Z</time>
      </trkpt>
      <trkpt lat="47.56559" lon="-2.71671">
        <ele>8.7</ele>
        <time>2026-08-29T15:46:53Z</time>
      </trkpt>
      <trkpt lat="47.56558" lon="-2.71676">
        <ele>8.6</ele>
        <time>2026-08-29T15:46:54Z</time>
      </trkpt>
      <trkpt lat="47.56556" lon="-2.71681">
        <ele>8.5</ele>
        <time>2026-08-29T15:46:55Z</time>
      </trkpt>
      <trkpt lat="47.56555" lon="-2.71687">
        <ele>8.3</ele>
        <time>2026-08-29T15:46:56Z</time>
      </trkpt>
      <trkpt lat="47.56553" lon="-2.71692">
        <ele>8.2</ele>
        <time>2026-08-29T15:46:57Z</time>
      </trkpt>
      <trkpt lat="47.56552" lon="-2.71698">
        <ele>8</ele>
        <time>2026-08-29T15:46:58Z</time>
      </trkpt>
      <trkpt lat="47.5655" lon="-2.71703">
        <ele>8</ele>
        <time>2026-08-29T15:46:59Z</time>
      </trkpt>
      <trkpt lat="47.56549" lon="-2.71709">
        <ele>7.8</ele>
        <time>2026-08-29T15:47:00Z</time>
      </trkpt>
      <trkpt lat="47.56548" lon="-2.71715">
        <ele>7.7</ele>
        <time>2026-08-29T15:47:01Z</time>
      </trkpt>
      <trkpt lat="47.56546" lon="-2.71721">
        <ele>7.7</ele>
        <time>2026-08-29T15:47:02Z</time>
      </trkpt>
      <trkpt lat="47.56545" lon="-2.71728">
        <ele>7.7</ele>
        <time>2026-08-29T15:47:03Z</time>
      </trkpt>
      <trkpt lat="47.56544" lon="-2.71734">
        <ele>7.7</ele>
        <time>2026-08-29T15:47:04Z</time>
      </trkpt>
      <trkpt lat="47.56543" lon="-2.71741">
        <ele>7.6</ele>
        <time>2026-08-29T15:47:05Z</time>
      </trkpt>
      <trkpt lat="47.56542" lon="-2.71747">
        <ele>7.5</ele>
        <time>2026-08-29T15:47:06Z</time>
      </trkpt>
      <trkpt lat="47.56541" lon="-2.71754">
        <ele>7.5</ele>
        <time>2026-08-29T15:47:07Z</time>
      </trkpt>
      <trkpt lat="47.5654" lon="-2.7176">
        <ele>7.6</ele>
        <time>2026-08-29T15:47:08Z</time>
      </trkpt>
      <trkpt lat="47.5654" lon="-2.71766">
        <ele>7.6</ele>
        <time>2026-08-29T15:47:09Z</time>
      </trkpt>
      <trkpt lat="47.56539" lon="-2.71772">
        <ele>7.6</ele>
        <time>2026-08-29T15:47:10Z</time>
      </trkpt>
      <trkpt lat="47.56539" lon="-2.71779">
        <ele>7.6</ele>
        <time>2026-08-29T15:47:11Z</time>
      </trkpt>
      <trkpt lat="47.56538" lon="-2.71785">
        <ele>7.5</ele>
        <time>2026-08-29T15:47:12Z</time>
      </trkpt>
      <trkpt lat="47.56538" lon="-2.71791">
        <ele>7.5</ele>
        <time>2026-08-29T15:47:13Z</time>
      </trkpt>
      <trkpt lat="47.56538" lon="-2.71797">
        <ele>7.4</ele>
        <time>2026-08-29T15:47:14Z</time>
      </trkpt>
      <trkpt lat="47.56537" lon="-2.71803">
        <ele>7.4</ele>
        <time>2026-08-29T15:47:15Z</time>
      </trkpt>
      <trkpt lat="47.56536" lon="-2.71808">
        <ele>7.3</ele>
        <time>2026-08-29T15:47:16Z</time>
      </trkpt>
      <trkpt lat="47.56536" lon="-2.71814">
        <ele>7.2</ele>
        <time>2026-08-29T15:47:17Z</time>
      </trkpt>
      <trkpt lat="47.56535" lon="-2.7182">
        <ele>7.1</ele>
        <time>2026-08-29T15:47:18Z</time>
      </trkpt>
      <trkpt lat="47.56533" lon="-2.71826">
        <ele>7</ele>
        <time>2026-08-29T15:47:19Z</time>
      </trkpt>
      <trkpt lat="47.56532" lon="-2.71832">
        <ele>6.9</ele>
        <time>2026-08-29T15:47:20Z</time>
      </trkpt>
      <trkpt lat="47.5653" lon="-2.71838">
        <ele>6.8</ele>
        <time>2026-08-29T15:47:21Z</time>
      </trkpt>
      <trkpt lat="47.56527" lon="-2.71844">
        <ele>6.7</ele>
        <time>2026-08-29T15:47:22Z</time>
      </trkpt>
      <trkpt lat="47.56525" lon="-2.71851">
        <ele>6.7</ele>
        <time>2026-08-29T15:47:23Z</time>
      </trkpt>
      <trkpt lat="47.56523" lon="-2.71857">
        <ele>6.7</ele>
        <time>2026-08-29T15:47:24Z</time>
      </trkpt>
      <trkpt lat="47.56521" lon="-2.71864">
        <ele>6.6</ele>
        <time>2026-08-29T15:47:25Z</time>
      </trkpt>
      <trkpt lat="47.56518" lon="-2.7187">
        <ele>6.5</ele>
        <time>2026-08-29T15:47:26Z</time>
      </trkpt>
      <trkpt lat="47.56516" lon="-2.71876">
        <ele>6.3</ele>
        <time>2026-08-29T15:47:27Z</time>
      </trkpt>
      <trkpt lat="47.56513" lon="-2.71882">
        <ele>6</ele>
        <time>2026-08-29T15:47:28Z</time>
      </trkpt>
      <trkpt lat="47.56511" lon="-2.71888">
        <ele>5.7</ele>
        <time>2026-08-29T15:47:29Z</time>
      </trkpt>
      <trkpt lat="47.56509" lon="-2.71895">
        <ele>5.5</ele>
        <time>2026-08-29T15:47:30Z</time>
      </trkpt>
      <trkpt lat="47.56507" lon="-2.71902">
        <ele>5.4</ele>
        <time>2026-08-29T15:47:31Z</time>
      </trkpt>
      <trkpt lat="47.56506" lon="-2.71908">
        <ele>5.2</ele>
        <time>2026-08-29T15:47:32Z</time>
      </trkpt>
      <trkpt lat="47.56504" lon="-2.71915">
        <ele>5.1</ele>
        <time>2026-08-29T15:47:33Z</time>
      </trkpt>
      <trkpt lat="47.56503" lon="-2.71921">
        <ele>5</ele>
        <time>2026-08-29T15:47:34Z</time>
      </trkpt>
      <trkpt lat="47.56502" lon="-2.71928">
        <ele>5</ele>
        <time>2026-08-29T15:47:35Z</time>
      </trkpt>
      <trkpt lat="47.56501" lon="-2.71934">
        <ele>5</ele>
        <time>2026-08-29T15:47:36Z</time>
      </trkpt>
      <trkpt lat="47.565" lon="-2.71941">
        <ele>5</ele>
        <time>2026-08-29T15:47:37Z</time>
      </trkpt>
      <trkpt lat="47.56499" lon="-2.71948">
        <ele>4.9</ele>
        <time>2026-08-29T15:47:38Z</time>
      </trkpt>
      <trkpt lat="47.56499" lon="-2.71955">
        <ele>4.7</ele>
        <time>2026-08-29T15:47:39Z</time>
      </trkpt>
      <trkpt lat="47.56499" lon="-2.71962">
        <ele>4.4</ele>
        <time>2026-08-29T15:47:40Z</time>
      </trkpt>
      <trkpt lat="47.56498" lon="-2.71969">
        <ele>4.2</ele>
        <time>2026-08-29T15:47:41Z</time>
      </trkpt>
      <trkpt lat="47.56498" lon="-2.71976">
        <ele>4.1</ele>
        <time>2026-08-29T15:47:42Z</time>
      </trkpt>
      <trkpt lat="47.56498" lon="-2.71983">
        <ele>4.1</ele>
        <time>2026-08-29T15:47:43Z</time>
      </trkpt>
      <trkpt lat="47.56498" lon="-2.7199">
        <ele>4.1</ele>
        <time>2026-08-29T15:47:44Z</time>
      </trkpt>
      <trkpt lat="47.56498" lon="-2.71997">
        <ele>4.1</ele>
        <time>2026-08-29T15:47:45Z</time>
      </trkpt>
      <trkpt lat="47.56499" lon="-2.72003">
        <ele>4</ele>
        <time>2026-08-29T15:47:46Z</time>
      </trkpt>
      <trkpt lat="47.565" lon="-2.7201">
        <ele>4</ele>
        <time>2026-08-29T15:47:47Z</time>
      </trkpt>
      <trkpt lat="47.56502" lon="-2.72016">
        <ele>4</ele>
        <time>2026-08-29T15:47:48Z</time>
      </trkpt>
      <trkpt lat="47.56503" lon="-2.72023">
        <ele>4</ele>
        <time>2026-08-29T15:47:49Z</time>
      </trkpt>
      <trkpt lat="47.56505" lon="-2.72029">
        <ele>4</ele>
        <time>2026-08-29T15:47:50Z</time>
      </trkpt>
      <trkpt lat="47.56506" lon="-2.72035">
        <ele>4.2</ele>
        <time>2026-08-29T15:47:51Z</time>
      </trkpt>
      <trkpt lat="47.56508" lon="-2.72041">
        <ele>4.3</ele>
        <time>2026-08-29T15:47:52Z</time>
      </trkpt>
      <trkpt lat="47.56509" lon="-2.72047">
        <ele>4.5</ele>
        <time>2026-08-29T15:47:53Z</time>
      </trkpt>
      <trkpt lat="47.56511" lon="-2.72053">
        <ele>4.5</ele>
        <time>2026-08-29T15:47:54Z</time>
      </trkpt>
      <trkpt lat="47.56513" lon="-2.72059">
        <ele>4.6</ele>
        <time>2026-08-29T15:47:55Z</time>
      </trkpt>
      <trkpt lat="47.56514" lon="-2.72064">
        <ele>4.6</ele>
        <time>2026-08-29T15:47:56Z</time>
      </trkpt>
      <trkpt lat="47.56516" lon="-2.7207">
        <ele>4.7</ele>
        <time>2026-08-29T15:47:57Z</time>
      </trkpt>
      <trkpt lat="47.56517" lon="-2.72076">
        <ele>4.8</ele>
        <time>2026-08-29T15:47:58Z</time>
      </trkpt>
      <trkpt lat="47.56518" lon="-2.72082">
        <ele>5</ele>
        <time>2026-08-29T15:47:59Z</time>
      </trkpt>
      <trkpt lat="47.5652" lon="-2.72087">
        <ele>5</ele>
        <time>2026-08-29T15:48:00Z</time>
      </trkpt>
      <trkpt lat="47.56521" lon="-2.72093">
        <ele>5.1</ele>
        <time>2026-08-29T15:48:01Z</time>
      </trkpt>
      <trkpt lat="47.56521" lon="-2.72098">
        <ele>5.1</ele>
        <time>2026-08-29T15:48:02Z</time>
      </trkpt>
      <trkpt lat="47.56521" lon="-2.72103">
        <ele>5.2</ele>
        <time>2026-08-29T15:48:03Z</time>
      </trkpt>
      <trkpt lat="47.56521" lon="-2.72108">
        <ele>5.2</ele>
        <time>2026-08-29T15:48:04Z</time>
      </trkpt>
      <trkpt lat="47.56521" lon="-2.72114">
        <ele>5.3</ele>
        <time>2026-08-29T15:48:05Z</time>
      </trkpt>
      <trkpt lat="47.5652" lon="-2.72119">
        <ele>5.5</ele>
        <time>2026-08-29T15:48:06Z</time>
      </trkpt>
      <trkpt lat="47.5652" lon="-2.72124">
        <ele>5.6</ele>
        <time>2026-08-29T15:48:07Z</time>
      </trkpt>
      <trkpt lat="47.56519" lon="-2.7213">
        <ele>5.8</ele>
        <time>2026-08-29T15:48:08Z</time>
      </trkpt>
      <trkpt lat="47.56519" lon="-2.72135">
        <ele>5.9</ele>
        <time>2026-08-29T15:48:09Z</time>
      </trkpt>
      <trkpt lat="47.56519" lon="-2.72141">
        <ele>6.1</ele>
        <time>2026-08-29T15:48:10Z</time>
      </trkpt>
      <trkpt lat="47.56518" lon="-2.72146">
        <ele>6.2</ele>
        <time>2026-08-29T15:48:11Z</time>
      </trkpt>
      <trkpt lat="47.56518" lon="-2.72151">
        <ele>6.3</ele>
        <time>2026-08-29T15:48:12Z</time>
      </trkpt>
      <trkpt lat="47.56517" lon="-2.72157">
        <ele>6.4</ele>
        <time>2026-08-29T15:48:13Z</time>
      </trkpt>
      <trkpt lat="47.56517" lon="-2.72161">
        <ele>6.5</ele>
        <time>2026-08-29T15:48:14Z</time>
      </trkpt>
      <trkpt lat="47.56516" lon="-2.72166">
        <ele>6.6</ele>
        <time>2026-08-29T15:48:15Z</time>
      </trkpt>
      <trkpt lat="47.56516" lon="-2.72172">
        <ele>6.6</ele>
        <time>2026-08-29T15:48:16Z</time>
      </trkpt>
      <trkpt lat="47.56516" lon="-2.72177">
        <ele>6.6</ele>
        <time>2026-08-29T15:48:17Z</time>
      </trkpt>
      <trkpt lat="47.56516" lon="-2.72183">
        <ele>6.6</ele>
        <time>2026-08-29T15:48:18Z</time>
      </trkpt>
      <trkpt lat="47.56516" lon="-2.72189">
        <ele>6.6</ele>
        <time>2026-08-29T15:48:19Z</time>
      </trkpt>
      <trkpt lat="47.56516" lon="-2.72195">
        <ele>6.5</ele>
        <time>2026-08-29T15:48:20Z</time>
      </trkpt>
      <trkpt lat="47.56516" lon="-2.722">
        <ele>6.3</ele>
        <time>2026-08-29T15:48:21Z</time>
      </trkpt>
      <trkpt lat="47.56517" lon="-2.72206">
        <ele>5.9</ele>
        <time>2026-08-29T15:48:22Z</time>
      </trkpt>
      <trkpt lat="47.56517" lon="-2.72213">
        <ele>5.5</ele>
        <time>2026-08-29T15:48:23Z</time>
      </trkpt>
      <trkpt lat="47.56517" lon="-2.72219">
        <ele>5.2</ele>
        <time>2026-08-29T15:48:24Z</time>
      </trkpt>
      <trkpt lat="47.56517" lon="-2.72225">
        <ele>5</ele>
        <time>2026-08-29T15:48:25Z</time>
      </trkpt>
      <trkpt lat="47.56518" lon="-2.72231">
        <ele>5</ele>
        <time>2026-08-29T15:48:26Z</time>
      </trkpt>
      <trkpt lat="47.56518" lon="-2.72238">
        <ele>5</ele>
        <time>2026-08-29T15:48:27Z</time>
      </trkpt>
      <trkpt lat="47.56518" lon="-2.72244">
        <ele>5</ele>
        <time>2026-08-29T15:48:28Z</time>
      </trkpt>
      <trkpt lat="47.56517" lon="-2.72251">
        <ele>5</ele>
        <time>2026-08-29T15:48:29Z</time>
      </trkpt>
      <trkpt lat="47.56517" lon="-2.72258">
        <ele>4.7</ele>
        <time>2026-08-29T15:48:30Z</time>
      </trkpt>
      <trkpt lat="47.56517" lon="-2.72265">
        <ele>4.5</ele>
        <time>2026-08-29T15:48:31Z</time>
      </trkpt>
      <trkpt lat="47.56517" lon="-2.72272">
        <ele>4.2</ele>
        <time>2026-08-29T15:48:32Z</time>
      </trkpt>
      <trkpt lat="47.56516" lon="-2.72279">
        <ele>4</ele>
        <time>2026-08-29T15:48:33Z</time>
      </trkpt>
      <trkpt lat="47.56517" lon="-2.72286">
        <ele>4</ele>
        <time>2026-08-29T15:48:34Z</time>
      </trkpt>
      <trkpt lat="47.56517" lon="-2.72292">
        <ele>4</ele>
        <time>2026-08-29T15:48:35Z</time>
      </trkpt>
      <trkpt lat="47.56518" lon="-2.72299">
        <ele>4</ele>
        <time>2026-08-29T15:48:36Z</time>
      </trkpt>
      <trkpt lat="47.56519" lon="-2.72306">
        <ele>4</ele>
        <time>2026-08-29T15:48:37Z</time>
      </trkpt>
      <trkpt lat="47.5652" lon="-2.72312">
        <ele>3.8</ele>
        <time>2026-08-29T15:48:38Z</time>
      </trkpt>
      <trkpt lat="47.56521" lon="-2.72318">
        <ele>3.7</ele>
        <time>2026-08-29T15:48:39Z</time>
      </trkpt>
      <trkpt lat="47.56523" lon="-2.72323">
        <ele>3.5</ele>
        <time>2026-08-29T15:48:40Z</time>
      </trkpt>
      <trkpt lat="47.56525" lon="-2.72329">
        <ele>3.2</ele>
        <time>2026-08-29T15:48:41Z</time>
      </trkpt>
      <trkpt lat="47.56526" lon="-2.72335">
        <ele>3.1</ele>
        <time>2026-08-29T15:48:42Z</time>
      </trkpt>
      <trkpt lat="47.56528" lon="-2.7234">
        <ele>3.2</ele>
        <time>2026-08-29T15:48:43Z</time>
      </trkpt>
      <trkpt lat="47.5653" lon="-2.72346">
        <ele>3.5</ele>
        <time>2026-08-29T15:48:44Z</time>
      </trkpt>
      <trkpt lat="47.56531" lon="-2.72351">
        <ele>3.6</ele>
        <time>2026-08-29T15:48:45Z</time>
      </trkpt>
      <trkpt lat="47.56533" lon="-2.72357">
        <ele>3.9</ele>
        <time>2026-08-29T15:48:46Z</time>
      </trkpt>
      <trkpt lat="47.56535" lon="-2.72363">
        <ele>4</ele>
        <time>2026-08-29T15:48:47Z</time>
      </trkpt>
      <trkpt lat="47.56535" lon="-2.72369">
        <ele>4</ele>
        <time>2026-08-29T15:48:48Z</time>
      </trkpt>
      <trkpt lat="47.56536" lon="-2.72375">
        <ele>4</ele>
        <time>2026-08-29T15:48:49Z</time>
      </trkpt>
      <trkpt lat="47.56537" lon="-2.72381">
        <ele>4</ele>
        <time>2026-08-29T15:48:50Z</time>
      </trkpt>
      <trkpt lat="47.56537" lon="-2.72387">
        <ele>4</ele>
        <time>2026-08-29T15:48:51Z</time>
      </trkpt>
      <trkpt lat="47.56538" lon="-2.72393">
        <ele>4.1</ele>
        <time>2026-08-29T15:48:52Z</time>
      </trkpt>
      <trkpt lat="47.56538" lon="-2.72398">
        <ele>4.1</ele>
        <time>2026-08-29T15:48:53Z</time>
      </trkpt>
      <trkpt lat="47.56539" lon="-2.72404">
        <ele>4.2</ele>
        <time>2026-08-29T15:48:54Z</time>
      </trkpt>
      <trkpt lat="47.5654" lon="-2.72409">
        <ele>4.3</ele>
        <time>2026-08-29T15:48:55Z</time>
      </trkpt>
      <trkpt lat="47.5654" lon="-2.72415">
        <ele>4.4</ele>
        <time>2026-08-29T15:48:56Z</time>
      </trkpt>
      <trkpt lat="47.5654" lon="-2.7242">
        <ele>4.5</ele>
        <time>2026-08-29T15:48:57Z</time>
      </trkpt>
      <trkpt lat="47.56541" lon="-2.72425">
        <ele>4.6</ele>
        <time>2026-08-29T15:48:58Z</time>
      </trkpt>
      <trkpt lat="47.56542" lon="-2.7243">
        <ele>4.7</ele>
        <time>2026-08-29T15:48:59Z</time>
      </trkpt>
      <trkpt lat="47.56543" lon="-2.72434">
        <ele>4.8</ele>
        <time>2026-08-29T15:49:00Z</time>
      </trkpt>
      <trkpt lat="47.56545" lon="-2.72438">
        <ele>4.9</ele>
        <time>2026-08-29T15:49:01Z</time>
      </trkpt>
      <trkpt lat="47.56547" lon="-2.72442">
        <ele>5</ele>
        <time>2026-08-29T15:49:02Z</time>
      </trkpt>
      <trkpt lat="47.56548" lon="-2.72445">
        <ele>5</ele>
        <time>2026-08-29T15:49:03Z</time>
      </trkpt>
      <trkpt lat="47.5655" lon="-2.72449">
        <ele>5</ele>
        <time>2026-08-29T15:49:04Z</time>
      </trkpt>
      <trkpt lat="47.56553" lon="-2.72452">
        <ele>5</ele>
        <time>2026-08-29T15:49:05Z</time>
      </trkpt>
      <trkpt lat="47.56555" lon="-2.72454">
        <ele>5</ele>
        <time>2026-08-29T15:49:06Z</time>
      </trkpt>
      <trkpt lat="47.56558" lon="-2.72454">
        <ele>5</ele>
        <time>2026-08-29T15:49:07Z</time>
      </trkpt>
      <trkpt lat="47.56561" lon="-2.72454">
        <ele>5</ele>
        <time>2026-08-29T15:49:08Z</time>
      </trkpt>
      <trkpt lat="47.56564" lon="-2.72452">
        <ele>5</ele>
        <time>2026-08-29T15:49:09Z</time>
      </trkpt>
      <trkpt lat="47.56566" lon="-2.72449">
        <ele>5</ele>
        <time>2026-08-29T15:49:10Z</time>
      </trkpt>
      <trkpt lat="47.56566" lon="-2.72447">
        <ele>5</ele>
        <time>2026-08-29T15:49:11Z</time>
      </trkpt>
      <trkpt lat="47.56566" lon="-2.72444">
        <ele>5</ele>
        <time>2026-08-29T15:49:12Z</time>
      </trkpt>
      <trkpt lat="47.56566" lon="-2.72441">
        <ele>5</ele>
        <time>2026-08-29T15:49:13Z</time>
      </trkpt>
      <trkpt lat="47.56565" lon="-2.72438">
        <ele>4.9</ele>
        <time>2026-08-29T15:49:14Z</time>
      </trkpt>
      <trkpt lat="47.56563" lon="-2.72435">
        <ele>4.9</ele>
        <time>2026-08-29T15:49:15Z</time>
      </trkpt>
      <trkpt lat="47.56561" lon="-2.72434">
        <ele>4.9</ele>
        <time>2026-08-29T15:49:16Z</time>
      </trkpt>
      <trkpt lat="47.5656" lon="-2.72432">
        <ele>4.9</ele>
        <time>2026-08-29T15:49:17Z</time>
      </trkpt>
      <trkpt lat="47.56559" lon="-2.72431">
        <ele>4.9</ele>
        <time>2026-08-29T15:49:18Z</time>
      </trkpt>
      <trkpt lat="47.5656" lon="-2.7243">
        <ele>4.9</ele>
        <time>2026-08-29T15:49:19Z</time>
      </trkpt>
      <trkpt lat="47.5656" lon="-2.72429">
        <ele>4.9</ele>
        <time>2026-08-29T15:49:20Z</time>
      </trkpt>
      <trkpt lat="47.5656" lon="-2.72429">
        <ele>4.9</ele>
        <time>2026-08-29T15:49:21Z</time>
      </trkpt>
      <trkpt lat="47.5656" lon="-2.72429">
        <ele>4.9</ele>
        <time>2026-08-29T15:49:22Z</time>
      </trkpt>
    </trkseg>
  </trk>
</gpx>